
Distance (Route):
Temperature : 15.8°C
Humidity : 80.1%
Pressure : 956.7hPa| Receiver | Frames | First received | Last received |
|---|---|---|---|
| BIOWL1-15 | 834 | 2026-08-30 23:01:15 | 2026-08-31 02:04:51 |
| HSKMA3-T | 666 | 2026-08-30 23:37:53 | 2026-08-31 02:03:44 |
| DL1XH-west | 654 | 2026-08-30 23:43:52 | 2026-08-31 01:55:45 |
| DM0DOS-11 | 597 | 2026-08-30 23:02:33 | 2026-08-31 02:04:41 |
| DL1XH-15 | 372 | 2026-08-31 00:10:33 | 2026-08-31 01:51:42 |
| DF8AY | 365 | 2026-08-31 00:20:25 | 2026-08-31 02:01:22 |
| DL1XH1-15 | 360 | 2026-08-30 23:44:40 | 2026-08-31 01:55:40 |
| AA1-15 | 220 | 2026-08-31 00:47:13 | 2026-08-31 01:48:56 |
| DB0UT-9 | 127 | 2026-08-30 22:42:35 | 2026-08-31 02:03:18 |
| DB0UT-7 | 118 | 2026-08-30 22:44:38 | 2026-08-31 02:02:03 |
| DJ2DS-15 | 115 | 2026-08-30 23:30:33 | 2026-08-31 01:53:14 |
| DL3AQ-11 | 101 | 2026-08-30 23:50:52 | 2026-08-31 01:51:52 |
| DL1ZP-14 | 99 | 2026-08-30 22:50:00 | 2026-08-31 02:03:46 |
| DF7PN | 93 | 2026-08-30 22:50:34 | 2026-08-31 02:01:38 |
| DB0ND-19 | 91 | 2026-08-30 22:47:14 | 2026-08-31 02:05:20 |
| DK5PH-5 | 81 | 2026-08-30 22:52:54 | 2026-08-31 01:57:50 |
| DL1NUX | 71 | 2026-08-31 01:45:22 | 2026-08-31 02:04:37 |
| DL4BBY-15 | 68 | 2026-08-30 23:35:17 | 2026-08-31 01:52:43 |
| BIOWL9-15 | 62 | 2026-08-30 23:01:46 | 2026-08-31 02:04:27 |
| DL0LBS | 61 | 2026-08-30 23:42:07 | 2026-08-31 02:01:00 |
| CB1BUN | 53 | 2026-08-30 22:47:56 | 2026-08-30 23:51:34 |
| DJ2KF-10 | 49 | 2026-08-30 23:27:27 | 2026-08-31 01:51:41 |
| DL9PN | 47 | 2026-08-30 22:46:56 | 2026-08-30 23:44:56 |
| DO2JMG | 47 | 2026-08-31 00:25:40 | 2026-08-31 01:37:25 |
| DC4HF-4 | 45 | 2026-08-30 23:46:51 | 2026-08-31 02:00:52 |
| SONCRA | 45 | 2026-08-31 00:15:36 | 2026-08-31 02:07:29 |
| DO3MHA-11 | 43 | 2026-08-31 01:23:00 | 2026-08-31 01:55:12 |
| HEMX73-11 | 42 | 2026-08-30 22:49:35 | 2026-08-30 23:51:30 |
| DD1CC8 | 41 | 2026-08-30 23:25:35 | 2026-08-31 01:54:05 |
| DO9LL-15 | 37 | 2026-08-30 23:30:34 | 2026-08-31 01:56:38 |
| GOEST3-10 | 35 | 2026-08-31 01:16:53 | 2026-08-31 01:39:05 |
| DB0NH | 34 | 2026-08-31 00:48:41 | 2026-08-31 02:06:21 |
| DL8DAS-14 | 30 | 2026-08-30 23:16:49 | 2026-08-31 01:53:31 |
| SFWM-10 | 25 | 2026-08-30 23:43:29 | 2026-08-31 01:38:52 |
| BUE01 | 23 | 2026-08-31 00:01:35 | 2026-08-31 01:44:55 |
| BIOWL7-15 | 21 | 2026-08-30 23:07:00 | 2026-08-31 02:04:28 |
| DO1YAY-16 | 21 | 2026-08-30 23:14:50 | 2026-08-31 00:00:27 |
| DL8OAI-8 | 20 | 2026-08-31 00:32:21 | 2026-08-31 01:46:53 |
| SONDE2-11 | 20 | 2026-08-31 00:38:56 | 2026-08-31 01:55:32 |
| DL8DAS-15 | 19 | 2026-08-30 23:15:07 | 2026-08-31 01:53:35 |
| DF1GD-15 | 17 | 2026-08-30 22:54:59 | 2026-08-30 23:01:09 |
| DO2KSM | 17 | 2026-08-31 00:35:28 | 2026-08-31 01:49:45 |
| EDDB2-11 | 17 | 2026-08-31 00:55:00 | 2026-08-31 01:56:34 |
| DO8TBO-1 | 15 | 2026-08-30 23:57:44 | 2026-08-31 02:00:14 |
| DH7VM-15 | 14 | 2026-08-30 23:00:23 | 2026-08-31 00:03:02 |
| EDDB2-12 | 14 | 2026-08-31 00:43:16 | 2026-08-31 01:56:13 |
| AM1SDL-15 | 14 | 2026-08-31 01:19:43 | 2026-08-31 02:00:12 |
| NBG1-10 | 14 | 2026-08-31 01:22:42 | 2026-08-31 02:03:00 |
| HTAHTA | 13 | 2026-08-31 00:32:24 | 2026-08-31 01:10:42 |
| DF5WG-10 | 13 | 2026-08-31 01:17:38 | 2026-08-31 01:32:05 |
| DM3KS-11 | 12 | 2026-08-30 22:50:07 | 2026-08-30 23:25:46 |
| SO1NDE-10 | 10 | 2026-08-31 01:53:23 | 2026-08-31 02:04:37 |
| DJTTGO | 9 | 2026-08-31 00:00:57 | 2026-08-31 01:56:36 |
| D01LWL | 7 | 2026-08-31 01:21:00 | 2026-08-31 01:47:55 |
| DL1CLM-18 | 5 | 2026-08-31 00:02:12 | 2026-08-31 01:52:44 |
| SMARD9-10 | 5 | 2026-08-31 00:53:11 | 2026-08-31 01:49:41 |
| SP3BTT-10 | 5 | 2026-08-31 01:08:53 | 2026-08-31 01:41:38 |
| DL3JIN-12 | 5 | 2026-08-31 01:28:25 | 2026-08-31 01:37:47 |
| DF3TZ-5 | 4 | 2026-08-30 23:34:27 | 2026-08-31 00:02:21 |
| DJ3KS | 3 | 2026-08-30 23:18:21 | 2026-08-30 23:27:42 |
| DL3OBA | 2 | 2026-08-31 01:49:42 | 2026-08-31 01:55:23 |
| KANTATE | 1 | 2026-08-31 00:30:14 | 2026-08-31 00:30:14 |
| DL6DJ-15 | 1 | 2026-08-31 01:21:02 | 2026-08-31 01:21:02 |
| DM7RM-13 | 1 | 2026-08-31 01:56:24 | 2026-08-31 01:56:24 |
| Receiver | Date | Latitude | Longitude | Direction | Speed | Altitude | Climb | Temperature | Humidity | Pressure | Voltage | Killtimer | Uptime | BKT | XDATA |
|---|---|---|---|---|---|---|---|---|---|---|---|---|---|---|---|
| SONCRA | 2026-08-31 02:07:29 | 50.99063 | 10.25048 | 64° | 27km/h | 534m | -12.7m/s | 15.8°C | 80.1% | 956.7hPa | 2.6V | 00:00:00 | 00:00:00 | 00:00:00 | |
| SONCRA | 2026-08-31 02:06:58 | 50.99058 | 10.25026 | 72° | 29km/h | 560m | -13.0m/s | 15.9°C | 78.7% | 953.6hPa | 2.6V | 00:00:00 | 00:00:00 | 00:00:00 | |
| SONCRA | 2026-08-31 02:06:26 | 50.99006 | 10.24664 | 89° | 29km/h | 961m | -13.7m/s | 14.3°C | 74.6% | 909.5hPa | 2.6V | 00:00:00 | 00:00:00 | 00:00:00 | |
| DB0NH | 2026-08-31 02:06:21 | 50.99002 | 10.24605 | 80° | 33km/h | 1027m | -13.2m/s | 13.9°C | 75.0% | 902.1hPa | 2.6V | 01:41:00 | 03:33:33 | 00:00:00 | |
| DB0NH | 2026-08-31 02:06:11 | 50.98992 | 10.24475 | 86° | 37km/h | 1160m | -14.2m/s | 12.9°C | 78.1% | 887.7hPa | 2.6V | 00:00:00 | 03:33:23 | 00:00:00 | |
| SONCRA | 2026-08-31 02:05:56 | 50.98975 | 10.24229 | 80° | 44km/h | 1384m | -15.1m/s | 11.5°C | 81.7% | 864.2hPa | 2.6V | 00:00:00 | 00:00:00 | 00:00:00 | |
| DB0NH | 2026-08-31 02:05:51 | 50.98969 | 10.24157 | 82° | 47km/h | 1446m | -15.0m/s | 11.0°C | 81.5% | 858.1hPa | 2.6V | 00:00:00 | 03:33:03 | 00:00:00 | |
| DB0NH | 2026-08-31 02:05:41 | 50.98949 | 10.23967 | 80° | 47km/h | 1550m | -4.4m/s | 10.0°C | 85.0% | 846.6hPa | 2.6V | 01:42:00 | 03:32:53 | 00:00:00 | |
| DB0NH | 2026-08-31 02:05:31 | 50.98924 | 10.23779 | 78° | 49km/h | 1628m | -8.9m/s | 9.4°C | 86.2% | 839.0hPa | 2.6V | 00:00:00 | 03:32:43 | 00:00:00 | |
| SONCRA | 2026-08-31 02:05:24 | 50.98905 | 10.23646 | 76° | 49km/h | 1678m | -10.3m/s | 9.0°C | 88.6% | 833.8hPa | 2.6V | 00:00:00 | 00:00:00 | 00:00:00 | |
| DB0NH | 2026-08-31 02:05:21 | 50.98897 | 10.23587 | 80° | 49km/h | 1716m | -13.4m/s | 8.6°C | 88.7% | 830.4hPa | 2.6V | 01:42:00 | 03:32:33 | 00:00:00 | |
| DB0ND-19 | 2026-08-31 02:05:20 | 50.98888 | 10.23531 | 75° | 47km/h | 1751m | -9.0m/s | 8.4°C | 89.3% | 826.5hPa | 2.5V | 00:00:00 | 00:00:00 | 00:00:00 | |
| DB0NH | 2026-08-31 02:05:11 | 50.98862 | 10.23398 | 76° | 49km/h | 1801m | -7.9m/s | 8.1°C | 88.0% | 821.5hPa | 2.5V | 00:00:00 | 03:32:23 | 00:00:00 | |
| BIOWL1-15 | 2026-08-31 02:04:51 | 50.98793 | 10.23004 | 74° | 57km/h | 1992m | -9.2m/s | 6.9°C | 91.4% | 803hPa | 2.5V | 01:43:33 | 03:32:03 | 00:00:00 | |
| BIOWL1-15 | 2026-08-31 02:04:51 | 50.98784 | 10.22960 | 72° | 58km/h | 2010m | -9.6m/s | 6.7°C | 92.2% | 801.2hPa | 2.6V | 01:43:33 | 03:32:01 | 00:00:00 | |
| DB0ND-19 | 2026-08-31 02:04:49 | 50.98784 | 10.22960 | 72° | 57km/h | 2010m | -9.6m/s | 6.7°C | 87.2% | 801.2hPa | 2.6V | 00:00:00 | 00:00:00 | 00:00:00 | |
| DM0DOS-11 | 2026-08-31 02:04:41 | 50.98726 | 10.22678 | 70° | 57km/h | 2126m | -8.1m/s | 6°C | 86.6% | 790hPa | 2.6V | 01:43:24 | 03:31:48 | 00:00:00 | |
| BIOWL1-15 | 2026-08-31 02:04:40 | 50.98734 | 10.22721 | 73° | 57km/h | 2106m | -9.8m/s | 6.1°C | 91.4% | 791.9hPa | 2.5V | 01:43:33 | 03:31:50 | 00:00:00 | |
| DL1NUX | 2026-08-31 02:04:37 | 50.98730 | 10.22700 | 71° | 58km/h | 2117m | -10.8m/s | 6.1°C | 86.3% | 791.1hPa | 2.6V | 01:43:23 | 03:31:49 | 00:00:00 | |
| DL1NUX | 2026-08-31 02:04:37 | 50.98705 | 10.22591 | 68° | 58km/h | 2167m | -10.7m/s | 6.1°C | 84.1% | 786.1hPa | 2.5V | 01:43:28 | 03:31:44 | 00:00:00 | |
| SO1NDE-10 | 2026-08-31 02:04:37 | 50.98730 | 10.22700 | 72° | 57km/h | 2117m | -10.8m/s | 6.0°C | 86.3% | 791.1hPa | 2.6V | 00:00:00 | 03:31:49 | 00:00:00 | |
| DL1NUX | 2026-08-31 02:04:32 | 50.98677 | 10.22490 | 63° | 57km/h | 2219m | -10.4m/s | 6.2°C | 85.2% | 781hPa | 2.6V | 01:43:33 | 03:31:39 | 00:00:00 | |
| DB0NH | 2026-08-31 02:04:32 | 50.98705 | 10.22591 | 69° | 53km/h | 2167m | -10.7m/s | 6.1°C | 84.1% | 786.1hPa | 2.5V | 01:43:00 | 03:31:44 | 00:00:00 | |
| DM0DOS-11 | 2026-08-31 02:04:31 | 50.98671 | 10.22471 | 64° | 55km/h | 2229m | -9.8m/s | 6.1°C | 85.5% | 780.2hPa | 2.5V | 01:43:34 | 03:31:38 | 00:00:00 | |
| BIOWL7-15 | 2026-08-31 02:04:28 | 50.98689 | 10.22530 | 65° | 55km/h | 2199m | -10.6m/s | 6.2°C | 84.4% | 783.0hPa | 2.6V | 00:00:00 | 00:00:00 | 00:00:00 | |
| DL1NUX | 2026-08-31 02:04:27 | 50.98645 | 10.22396 | 60° | 49km/h | 2273m | -10.8m/s | 5.7°C | 87.1% | 775.9hPa | 2.6V | 01:43:38 | 03:31:34 | 00:00:00 | |
| BIOWL1-15 | 2026-08-31 02:04:27 | 50.98677 | 10.22490 | 64° | 57km/h | 2219m | -10.4m/s | 6.2°C | 91.9% | 781hPa | 2.6V | 01:43:33 | 03:31:39 | 00:00:00 | |
| BIOWL9-15 | 2026-08-31 02:04:27 | 50.98671 | 10.22471 | 64° | 53km/h | 2229m | -9.8m/s | 6.1°C | 86.1% | 780.2hPa | 2.6V | 00:00:00 | 00:00:00 | 00:00:00 | |
| DM0DOS-11 | 2026-08-31 02:04:26 | 50.98639 | 10.22379 | 55° | 49km/h | 2283m | -10.1m/s | 5.7°C | 87.2% | 774.8hPa | 2.6V | 01:43:39 | 03:31:33 | 00:00:00 | |
| DL1NUX | 2026-08-31 02:04:22 | 50.98609 | 10.22316 | 53° | 49km/h | 2319m | -10.4m/s | 5.6°C | 88.3% | 771.1hPa | 2.6V | 01:43:43 | 03:31:29 | 00:00:00 | |
| DM0DOS-11 | 2026-08-31 02:04:21 | 50.98601 | 10.22300 | 51° | 51km/h | 2330m | -10.1m/s | 5.5°C | 88.3% | 770.3hPa | 2.6V | 01:43:44 | 03:31:28 | 00:00:00 | |
| DB0ND-19 | 2026-08-31 02:04:18 | 50.98609 | 10.22316 | 53° | 49km/h | 2319m | -10.4m/s | 5.6°C | 88.9% | 771.1hPa | 2.6V | 00:00:00 | 00:00:00 | 00:00:00 | |
| DL1NUX | 2026-08-31 02:04:17 | 50.98568 | 10.22237 | 49° | 53km/h | 2372m | -10.9m/s | 5.4°C | 89.8% | 766.6hPa | 2.6V | 01:43:48 | 03:31:24 | 00:00:00 | |
| SO1NDE-10 | 2026-08-31 02:04:16 | 50.98601 | 10.22300 | 52° | 51km/h | 2330m | -10.1m/s | 5.5°C | 88.3% | 770.2hPa | 2.5V | 00:00:00 | 03:31:28 | 00:00:00 | |
| BIOWL1-15 | 2026-08-31 02:04:16 | 50.98601 | 10.22300 | 51° | 51km/h | 2330m | -10.1m/s | 5.5°C | 92.4% | 770.3hPa | 2.6V | 01:44:24 | 03:31:28 | 00:00:00 | |
| DL1NUX | 2026-08-31 02:04:12 | 50.98525 | 10.22159 | 49° | 49km/h | 2429m | -12.1m/s | 5.2°C | 92.6% | 761.3hPa | 2.5V | 01:43:53 | 03:31:19 | 00:00:00 | |
| DB0NH | 2026-08-31 02:04:12 | 50.98568 | 10.22237 | 50° | 51km/h | 2372m | -10.9m/s | 5.4°C | 89.8% | 766.6hPa | 2.6V | 00:00:00 | 03:31:24 | 00:00:00 | |
| DM0DOS-11 | 2026-08-31 02:04:10 | 50.98508 | 10.22130 | 47° | 49km/h | 2453m | -12.5m/s | 5.1°C | 92% | 759.1hPa | 2.6V | 01:43:55 | 03:31:17 | 00:00:00 | |
| BIOWL1-15 | 2026-08-31 02:04:05 | 50.98508 | 10.22130 | 48° | 49km/h | 2453m | -12.5m/s | 5.1°C | 98.1% | 759.1hPa | 2.6V | 01:44:24 | 03:31:17 | 00:00:00 | |
| DL1NUX | 2026-08-31 02:04:02 | 50.98481 | 10.22085 | 46° | 49km/h | 2491m | -13.3m/s | 5°C | 87.9% | 755.8hPa | 2.5V | 01:43:58 | 03:31:14 | 00:00:00 | |
| DL1NUX | 2026-08-31 02:04:02 | 50.98435 | 10.22010 | 46° | 51km/h | 2557m | -11.8m/s | 4.7°C | 90.6% | 749.6hPa | 2.6V | 01:44:03 | 03:31:09 | 00:00:00 | |
| DM0DOS-11 | 2026-08-31 02:04:00 | 50.98416 | 10.21981 | 42° | 53km/h | 2581m | -13.2m/s | 4.5°C | 91.1% | 747.5hPa | 2.5V | 01:44:05 | 03:31:07 | 00:00:00 | |
| BIOWL1-15 | 2026-08-31 02:03:57 | 50.98416 | 10.21981 | 42° | 53km/h | 2581m | -13.2m/s | 4.6°C | 100% | 747.5hPa | 2.5V | 01:44:24 | 03:31:07 | 00:00:00 | |
| SO1NDE-10 | 2026-08-31 02:03:57 | 50.98435 | 10.22010 | 47° | 58km/h | 2558m | -11.7m/s | 4.7°C | 90.6% | 749.6hPa | 2.6V | 01:44:00 | 03:31:09 | 00:00:00 | |
| DL1NUX | 2026-08-31 02:03:56 | 50.98378 | 10.21922 | 42° | 51km/h | 2626m | -10.1m/s | 4.2°C | 92.3% | 743.1hPa | 2.6V | 01:44:09 | 03:31:03 | 00:00:00 | |
| BIOWL9-15 | 2026-08-31 02:03:56 | 50.98416 | 10.21981 | 42° | 51km/h | 2581m | -13.2m/s | 4.6°C | 91.6% | 747.5hPa | 2.5V | 00:00:00 | 00:00:00 | 00:00:00 | |
| DM0DOS-11 | 2026-08-31 02:03:55 | 50.98368 | 10.21908 | 42° | 55km/h | 2636m | -9.6m/s | 4.1°C | 92.8% | 742.1hPa | 2.5V | 01:44:10 | 03:31:02 | 00:00:00 | |
| SONCRA | 2026-08-31 02:03:51 | 50.98378 | 10.21922 | 42° | 51km/h | 2626m | -10.1m/s | 4.2°C | 92.8% | 743.1hPa | 2.6V | 00:00:00 | 00:00:00 | 00:00:00 | |
| DB0ND-19 | 2026-08-31 02:03:47 | 50.98326 | 10.21849 | 42° | 55km/h | 2670m | -7.7m/s | 3.7°C | 95.8% | 738.9hPa | 2.6V | 00:00:00 | 00:00:00 | 00:00:00 | |
| DL1ZP-14 | 2026-08-31 02:03:46 | 50.98326 | 10.21849 | 42° | 55km/h | 2670m | -7.7m/s | 3.7°C | 95.8% | 738.9hPa | 2.6V | 00:00:00 | 00:00:00 | 00:00:00 | |
| DM0DOS-11 | 2026-08-31 02:03:45 | 50.98316 | 10.21833 | 42° | 57km/h | 2678m | -8.1m/s | 3.6°C | 95.7% | 738.2hPa | 2.5V | 01:44:15 | 03:30:57 | 00:00:00 | |
| DM0DOS-11 | 2026-08-31 02:03:45 | 50.98262 | 10.21755 | 42° | 60km/h | 2718m | -8.8m/s | 3.3°C | 97.5% | 734.4hPa | 2.6V | 01:44:20 | 03:30:52 | 00:00:00 | |
| BIOWL1-15 | 2026-08-31 02:03:45 | 50.98316 | 10.21833 | 43° | 57km/h | 2678m | -8.1m/s | 3.6°C | 97.7% | 738.2hPa | 2.5V | 01:44:24 | 03:30:57 | 00:00:00 | |
| HSKMA3-T | 2026-08-31 02:03:44 | 50.98305 | 10.21818 | 43° | 57km/h | 2686m | -8.1m/s | 3.5°C | 97.4% | 737.5hPa | 2.5V | 01:44:24 | 03:30:56 | 00:00:00 | |
| DM0DOS-11 | 2026-08-31 02:03:35 | 50.98206 | 10.21677 | 42° | 58km/h | 2760m | -10.5m/s | 3.1°C | 99.5% | 730.9hPa | 2.6V | 01:44:25 | 03:30:47 | 00:00:00 | |
| DM0DOS-11 | 2026-08-31 02:03:35 | 50.98148 | 10.21597 | 39° | 58km/h | 2811m | -9.8m/s | 2.8°C | 99.5% | 726.3hPa | 2.6V | 01:44:30 | 03:30:42 | 00:00:00 | |
| BIOWL1-15 | 2026-08-31 02:03:34 | 50.98195 | 10.21661 | 43° | 58km/h | 2771m | -12.8m/s | 3.1°C | 100% | 730hPa | 2.6V | 01:45:15 | 03:30:46 | 00:00:00 | |
| HSKMA3-T | 2026-08-31 02:03:33 | 50.98184 | 10.21645 | 40° | 60km/h | 2783m | -11.1m/s | 3°C | 100% | 728.9hPa | 2.5V | 01:45:15 | 03:30:45 | 00:00:00 | |
| DB0NH | 2026-08-31 02:03:32 | 50.98172 | 10.21629 | 43° | 60km/h | 2793m | -9.5m/s | 2.9°C | 0% | 727.8hPa | 2.6V | 00:00:00 | 03:30:44 | 00:00:00 | |
| DM0DOS-11 | 2026-08-31 02:03:30 | 50.98092 | 10.21519 | 42° | 57km/h | 2860m | -9.8m/s | 2.6°C | 0% | 722hPa | 2.6V | 01:44:35 | 03:30:37 | 00:00:00 | |
| BIOWL7-15 | 2026-08-31 02:03:27 | 50.98126 | 10.21566 | 44° | 60km/h | 2832m | -10.9m/s | 2.7°C | 0% | 724.5hPa | 2.6V | 00:00:00 | 00:00:00 | 00:00:00 | |
| DM0DOS-11 | 2026-08-31 02:03:25 | 50.98037 | 10.21440 | 40° | 58km/h | 2912m | -12.2m/s | 2.3°C | 0% | 717.6hPa | 2.6V | 01:44:40 | 03:30:32 | 00:00:00 | |
| BIOWL1-15 | 2026-08-31 02:03:24 | 50.98081 | 10.21504 | 40° | 60km/h | 2870m | -9.5m/s | 2.5°C | 100% | 721.1hPa | 2.6V | 01:45:15 | 03:30:36 | 00:00:00 | |
| HSKMA3-T | 2026-08-31 02:03:23 | 50.98070 | 10.21488 | 43° | 60km/h | 2879m | -10m/s | 2.5°C | 100% | 720.2hPa | 2.6V | 01:45:15 | 03:30:35 | 00:00:00 | |
| DM0DOS-11 | 2026-08-31 02:03:20 | 50.97981 | 10.21361 | 43° | 60km/h | 2964m | -9.2m/s | 2°C | 0% | 712.8hPa | 2.5V | 01:44:45 | 03:30:27 | 00:00:00 | |
| DB0UT-9 | 2026-08-31 02:03:18 | 50.98026 | 10.21424 | 44° | 60km/h | 2924m | -12.2m/s | 2.2°C | 102.3% | 716.5hPa | 2.5V | 00:00:00 | 00:00:00 | 00:00:00 | |
| DB0ND-19 | 2026-08-31 02:03:16 | 50.97981 | 10.21361 | 43° | 60km/h | 2964m | -9.2m/s | 2.0°C | 100.0% | 712.8hPa | 2.5V | 00:00:00 | 00:00:00 | 00:00:00 | |
| DM0DOS-11 | 2026-08-31 02:03:15 | 50.97926 | 10.21280 | 44° | 58km/h | 3011m | -10.7m/s | 1.8°C | 0% | 708.7hPa | 2.5V | 01:44:50 | 03:30:22 | 00:00:00 | |
| DL1NUX | 2026-08-31 02:03:14 | 50.97970 | 10.21345 | 42° | 58km/h | 2973m | -9.6m/s | 2°C | 0% | 711.9hPa | 2.6V | 01:44:46 | 03:30:26 | 00:00:00 | |
| DL1NUX | 2026-08-31 02:03:14 | 50.97915 | 10.21264 | 44° | 60km/h | 3022m | -10m/s | 1.8°C | 0% | 707.8hPa | 2.6V | 01:44:51 | 03:30:21 | 00:00:00 | |
| BIOWL1-15 | 2026-08-31 02:03:14 | 50.97970 | 10.21345 | 43° | 58km/h | 2973m | -9.6m/s | 2°C | 100% | 711.9hPa | 2.6V | 01:45:15 | 03:30:26 | 00:00:00 | |
| HSKMA3-T | 2026-08-31 02:03:11 | 50.97937 | 10.21296 | 42° | 60km/h | 3001m | -9.7m/s | 1.8°C | 100% | 709.5hPa | 2.5V | 01:45:15 | 03:30:23 | 00:00:00 | |
| DL1NUX | 2026-08-31 02:03:09 | 50.97858 | 10.21181 | 42° | 62km/h | 3067m | -6.3m/s | 1.4°C | 0% | 703.8hPa | 2.5V | 01:44:56 | 03:30:16 | 00:00:00 | |
| DM0DOS-11 | 2026-08-31 02:03:05 | 50.97870 | 10.21198 | 42° | 62km/h | 3059m | -9.1m/s | 1.5°C | 0% | 704.7hPa | 2.5V | 01:44:55 | 03:30:17 | 00:00:00 | |
| DM0DOS-11 | 2026-08-31 02:03:05 | 50.97813 | 10.21114 | 43° | 60km/h | 3095m | -7.8m/s | 1.3°C | 0% | 701.5hPa | 2.5V | 01:45:00 | 03:30:12 | 00:00:00 | |
| DL1NUX | 2026-08-31 02:03:04 | 50.97802 | 10.21098 | 42° | 60km/h | 3103m | -8.5m/s | 1.2°C | 0% | 700.7hPa | 2.5V | 01:45:01 | 03:30:11 | 00:00:00 | |
| BIOWL1-15 | 2026-08-31 02:03:04 | 50.97858 | 10.21181 | 42° | 62km/h | 3067m | -6.3m/s | 1.4°C | 100% | 703.8hPa | 2.5V | 01:45:15 | 03:30:16 | 00:00:00 | |
| NBG1-10 | 2026-08-31 02:03:00 | 50.97813 | 10.21114 | 44° | 60km/h | 3095m | -7.8m/s | 1.2°C | 0% | 701.4hPa | 2.5V | 00:00:00 | 03:30:12 | 00:00:00 | |
| DL1NUX | 2026-08-31 02:02:59 | 50.97745 | 10.21015 | 42° | 60km/h | 3149m | -7.2m/s | 0.2°C | 0% | 696.5hPa | 2.5V | 01:45:06 | 03:30:06 | 00:00:00 | |
| DM0DOS-11 | 2026-08-31 02:02:55 | 50.97757 | 10.21032 | 42° | 60km/h | 3141m | -9m/s | 1°C | 0% | 697.3hPa | 2.6V | 01:45:05 | 03:30:07 | 00:00:00 | |
| DM0DOS-11 | 2026-08-31 02:02:55 | 50.97700 | 10.20951 | 42° | 60km/h | 3174m | -8m/s | 0.1°C | 0% | 694.5hPa | 2.6V | 01:45:10 | 03:30:02 | 00:00:00 | |
| BIOWL1-15 | 2026-08-31 02:02:53 | 50.97734 | 10.20999 | 42° | 60km/h | 3155m | -4.6m/s | 0.1°C | 100% | 695.8hPa | 2.5V | 01:45:15 | 03:30:05 | 00:00:00 | |
| DM0DOS-11 | 2026-08-31 02:02:50 | 50.97641 | 10.20867 | 41° | 64km/h | 3207m | -5.1m/s | -0°C | 0% | 691.3hPa | 2.6V | 01:45:15 | 03:29:57 | 00:00:00 | |
| DL1NUX | 2026-08-31 02:02:49 | 50.97688 | 10.20935 | 42° | 62km/h | 3182m | -7m/s | 0.1°C | 0% | 693.8hPa | 2.5V | 01:45:11 | 03:30:01 | 00:00:00 | |
| DL1NUX | 2026-08-31 02:02:49 | 50.97629 | 10.20850 | 41° | 62km/h | 3214m | -8.2m/s | 0°C | 0% | 691hPa | 2.5V | 01:45:16 | 03:29:56 | 00:00:00 | |
| HSKMA3-T | 2026-08-31 02:02:47 | 50.97665 | 10.20901 | 43° | 62km/h | 3196m | -9.3m/s | 0°C | 100% | 692.9hPa | 2.6V | 01:45:15 | 03:29:59 | 00:00:00 | |
| DB0NH | 2026-08-31 02:02:46 | 50.97653 | 10.20884 | 42° | 60km/h | 3203m | -4.8m/s | 0.0°C | 0% | 691.8hPa | 2.6V | 00:00:00 | 03:29:58 | 00:00:00 | |
| DM0DOS-11 | 2026-08-31 02:02:45 | 50.97582 | 10.20786 | 39° | 60km/h | 3246m | -5.2m/s | -0°C | 0% | 687.9hPa | 2.6V | 01:45:20 | 03:29:52 | 00:00:00 | |
| DB0ND-19 | 2026-08-31 02:02:45 | 50.97629 | 10.20850 | 41° | 62km/h | 3214m | -8.2m/s | 0.0°C | 100.0% | 691.0hPa | 2.6V | 00:00:00 | 00:00:00 | 00:00:00 | |
| DL1NUX | 2026-08-31 02:02:44 | 50.97570 | 10.20771 | 38° | 60km/h | 3252m | -6.3m/s | -0°C | 0% | 687.6hPa | 2.6V | 01:45:21 | 03:29:51 | 00:00:00 | |
| BIOWL1-15 | 2026-08-31 02:02:44 | 50.97605 | 10.20818 | 41° | 62km/h | 3234m | -8.6m/s | -0°C | 100% | 689.3hPa | 2.6V | 01:46:06 | 03:29:54 | 00:00:00 | |
| SO1NDE-10 | 2026-08-31 02:02:44 | 50.97629 | 10.20850 | 42° | 60km/h | 3214m | -8.1m/s | 0.0°C | 0% | 690.9hPa | 2.6V | 01:45:00 | 03:29:56 | 00:00:00 | |
| DM0DOS-11 | 2026-08-31 02:02:40 | 50.97523 | 10.20709 | 40° | 60km/h | 3276m | -4.7m/s | -0°C | 0% | 685.3hPa | 2.6V | 01:45:25 | 03:29:47 | 00:00:00 | |
| HSKMA3-T | 2026-08-31 02:02:37 | 50.97546 | 10.20740 | 40° | 60km/h | 3264m | -7.6m/s | -0°C | 100% | 686.6hPa | 2.5V | 01:47:48 | 03:29:49 | 00:00:00 | |
| DM0DOS-11 | 2026-08-31 02:02:35 | 50.97466 | 10.20630 | 42° | 58km/h | 3297m | -4.9m/s | -0°C | 0% | 683.6hPa | 2.5V | 01:45:30 | 03:29:42 | 00:00:00 | |
| DL1NUX | 2026-08-31 02:02:35 | 50.97511 | 10.20693 | 40° | 60km/h | 3280m | -3.8m/s | -0°C | 0% | 685hPa | 2.6V | 01:45:26 | 03:29:46 | 00:00:00 | |
| BIOWL1-15 | 2026-08-31 02:02:33 | 50.97477 | 10.20646 | 42° | 58km/h | 3292m | -6.1m/s | -0°C | 100% | 684hPa | 2.5V | 01:46:06 | 03:29:43 | 00:00:00 | |
| DL1NUX | 2026-08-31 02:02:29 | 50.97455 | 10.20615 | 42° | 58km/h | 3303m | -7.5m/s | -0°C | 0% | 683.2hPa | 2.6V | 01:45:31 | 03:29:41 | 00:00:00 | |
| DL1NUX | 2026-08-31 02:02:29 | 50.97401 | 10.20537 | 42° | 58km/h | 3336m | -9.2m/s | -0.2°C | 0% | 680.5hPa | 2.5V | 01:45:36 | 03:29:36 | 00:00:00 | |
| HSKMA3-T | 2026-08-31 02:02:26 | 50.97422 | 10.20568 | 42° | 58km/h | 3323m | -7m/s | -0.1°C | 100% | 681.3hPa | 2.6V | 01:47:48 | 03:29:38 | 00:00:00 | |
| DB0UT-9 | 2026-08-31 02:02:25 | 50.97422 | 10.20568 | 43° | 58km/h | 3323m | -7.0m/s | -0.1°C | 102.5% | 681.3hPa | 2.5V | 01:46:00 | 00:00:00 | 00:00:00 | |
| SO1NDE-10 | 2026-08-31 02:02:24 | 50.97401 | 10.20537 | 43° | 58km/h | 3336m | -9.2m/s | -0.1°C | 0% | 680.4hPa | 2.5V | 00:00:00 | 03:29:36 | 00:00:00 | |
| DL1NUX | 2026-08-31 02:02:23 | 50.97346 | 10.20457 | 42° | 58km/h | 3365m | -3.9m/s | -0.3°C | 0% | 677.8hPa | 2.5V | 01:45:41 | 03:29:31 | 00:00:00 | |
| BIOWL1-15 | 2026-08-31 02:02:21 | 50.97368 | 10.20489 | 42° | 58km/h | 3354m | -6.5m/s | -0.2°C | 100% | 678.9hPa | 2.6V | 01:46:06 | 03:29:33 | 00:00:00 | |
| SONCRA | 2026-08-31 02:02:18 | 50.97334 | 10.20441 | 41° | 58km/h | 3368m | -3.9m/s | -0.4°C | 100.0% | 677.4hPa | 2.6V | 00:00:00 | 00:00:00 | 00:00:00 | |
| DM0DOS-11 | 2026-08-31 02:02:16 | 50.97265 | 10.20355 | 38° | 55km/h | 3395m | -9.2m/s | -0.3°C | 0% | 675.3hPa | 2.6V | 01:45:48 | 03:29:24 | 00:00:00 | |
| HSKMA3-T | 2026-08-31 02:02:16 | 50.97311 | 10.20411 | 39° | 58km/h | 3375m | -4m/s | -0.3°C | 100% | 676.8hPa | 2.6V | 01:47:48 | 03:29:28 | 00:00:00 | |
| BIOWL1-15 | 2026-08-31 02:02:12 | 50.97243 | 10.20328 | 38° | 53km/h | 3412m | -10.8m/s | -0.3°C | 100% | 674.3hPa | 2.5V | 01:46:06 | 03:29:22 | 00:00:00 | |
| DM0DOS-11 | 2026-08-31 02:02:07 | 50.97211 | 10.20289 | 35° | 53km/h | 3434m | -5.7m/s | -0.4°C | 0% | 671.8hPa | 2.6V | 01:45:53 | 03:29:19 | 00:00:00 | |
| DM0DOS-11 | 2026-08-31 02:02:07 | 50.97155 | 10.20226 | 35° | 57km/h | 3465m | -3.5m/s | -0.6°C | 0% | 669.5hPa | 2.6V | 01:45:58 | 03:29:14 | 00:00:00 | |
| DL1NUX | 2026-08-31 02:02:06 | 50.97200 | 10.20277 | 35° | 53km/h | 3440m | -6.8m/s | -0.4°C | 99.7% | 671.6hPa | 2.6V | 01:45:54 | 03:29:18 | 00:00:00 | |
| DL1NUX | 2026-08-31 02:02:06 | 50.97144 | 10.20213 | 36° | 57km/h | 3468m | -2.3m/s | -0.6°C | 0% | 669.2hPa | 2.6V | 01:45:59 | 03:29:13 | 00:00:00 | |
| SO1NDE-10 | 2026-08-31 02:02:04 | 50.97178 | 10.20252 | 36° | 57km/h | 3453m | -11.0m/s | -0.4°C | 0% | 670.7hPa | 2.5V | 01:45:00 | 03:29:16 | 00:00:00 | |
| DB0UT-7 | 2026-08-31 02:02:03 | 50.97167 | 10.20239 | 36° | 57km/h | 3461m | -5.1m/s | -0.4°C | 0% | 669.8hPa | 2.6V | 01:45:00 | 03:29:15 | 00:00:00 | |
| DM0DOS-11 | 2026-08-31 02:02:02 | 50.97099 | 10.20160 | 35° | 55km/h | 3483m | -3.7m/s | -0.6°C | 99.9% | 667.9hPa | 2.6V | 01:46:03 | 03:29:09 | 00:00:00 | |
| DL1NUX | 2026-08-31 02:02:01 | 50.97087 | 10.20147 | 33° | 55km/h | 3488m | -6.7m/s | -0.6°C | 99.7% | 667.5hPa | 2.6V | 01:46:04 | 03:29:08 | 00:00:00 | |
| BIOWL1-15 | 2026-08-31 02:02:00 | 50.97132 | 10.20199 | 37° | 57km/h | 3472m | -6.8m/s | -0.6°C | 100% | 669hPa | 2.5V | 01:46:06 | 03:29:12 | 00:00:00 | |
| DM0DOS-11 | 2026-08-31 02:01:57 | 50.97040 | 10.20101 | 31° | 55km/h | 3506m | -5.4m/s | -0.6°C | 0% | 666.2hPa | 2.6V | 01:46:08 | 03:29:04 | 00:00:00 | |
| HSKMA3-T | 2026-08-31 02:01:55 | 50.97076 | 10.20136 | 32° | 55km/h | 3494m | -4.4m/s | -0.6°C | 100% | 667.2hPa | 2.5V | 01:47:48 | 03:29:07 | 00:00:00 | |
| DM0DOS-11 | 2026-08-31 02:01:52 | 50.96980 | 10.20043 | 32° | 57km/h | 3537m | -6.1m/s | -0.8°C | 99.8% | 663.4hPa | 2.6V | 01:46:13 | 03:28:59 | 00:00:00 | |
| BIOWL1-15 | 2026-08-31 02:01:51 | 50.97005 | 10.20066 | 31° | 57km/h | 3526m | -7.6m/s | -0.7°C | 100% | 664.7hPa | 2.5V | 01:46:57 | 03:29:01 | 00:00:00 | |
| SONCRA | 2026-08-31 02:01:47 | 50.96980 | 10.20043 | 32° | 57km/h | 3537m | -6.1m/s | -0.8°C | 100.0% | 663.4hPa | 2.6V | 00:00:00 | 00:00:00 | 00:00:00 | |
| DB0NH | 2026-08-31 02:01:46 | 50.96968 | 10.20030 | 34° | 57km/h | 3543m | -4.9m/s | -0.7°C | 0% | 663.0hPa | 2.6V | 00:00:00 | 03:28:58 | 00:00:00 | |
| DB0UT-9 | 2026-08-31 02:01:44 | 50.96956 | 10.20017 | 36° | 58km/h | 3548m | -6.3m/s | -0.8°C | 100.2% | 662.6hPa | 2.6V | 01:46:00 | 00:00:00 | 00:00:00 | |
| DL1NUX | 2026-08-31 02:01:41 | 50.96908 | 10.19962 | 37° | 58km/h | 3565m | -4m/s | -0.9°C | 0% | 661.1hPa | 2.6V | 01:46:19 | 03:28:53 | 00:00:00 | |
| DL1NUX | 2026-08-31 02:01:41 | 50.96851 | 10.19893 | 36° | 57km/h | 3588m | -5m/s | -1°C | 0% | 659.2hPa | 2.6V | 01:46:24 | 03:28:48 | 00:00:00 | |
| HSKMA3-T | 2026-08-31 02:01:38 | 50.96873 | 10.19920 | 37° | 57km/h | 3577m | -4.8m/s | -0.9°C | 100% | 660.2hPa | 2.6V | 01:47:48 | 03:28:50 | 00:00:00 | |
| DF7PN | 2026-08-31 02:01:38 | 50.96862 | 10.19906 | 36° | 55km/h | 3582m | -7.3m/s | -1.0°C | 100.0% | 659.6hPa | 2.6V | 00:00:00 | 00:00:00 | 00:00:00 | |
| DL1NUX | 2026-08-31 02:01:36 | 50.96795 | 10.19830 | 33° | 53km/h | 3605m | -4.1m/s | -1.1°C | 0% | 657.6hPa | 2.6V | 01:46:29 | 03:28:43 | 00:00:00 | |
| SO1NDE-10 | 2026-08-31 02:01:33 | 50.96817 | 10.19853 | 35° | 58km/h | 3598m | -4.4m/s | -1.0°C | 0% | 658.3hPa | 2.5V | 00:00:00 | 03:28:45 | 00:00:00 | |
| DM0DOS-11 | 2026-08-31 02:01:27 | 50.96748 | 10.19782 | 32° | 58km/h | 3622m | -4.7m/s | -1.1°C | 0% | 656.1hPa | 2.5V | 01:46:33 | 03:28:39 | 00:00:00 | |
| DM0DOS-11 | 2026-08-31 02:01:27 | 50.96686 | 10.19716 | 34° | 58km/h | 3657m | -10.3m/s | -1.2°C | 99.3% | 653.8hPa | 2.6V | 01:46:38 | 03:28:34 | 00:00:00 | |
| HSKMA3-T | 2026-08-31 02:01:27 | 50.96748 | 10.19782 | 33° | 58km/h | 3622m | -4.7m/s | -1.2°C | 100% | 656.1hPa | 2.5V | 01:47:48 | 03:28:39 | 00:00:00 | |
| DL1NUX | 2026-08-31 02:01:26 | 50.96735 | 10.19769 | 32° | 60km/h | 3627m | -5.4m/s | -1.2°C | 0% | 655.7hPa | 2.5V | 01:46:34 | 03:28:38 | 00:00:00 | |
| BIOWL7-15 | 2026-08-31 02:01:24 | 50.96723 | 10.19756 | 35° | 58km/h | 3632m | -5.6m/s | -1.2°C | 0% | 655.5hPa | 2.6V | 00:00:00 | 00:00:00 | 00:00:00 | |
| DB0UT-9 | 2026-08-31 02:01:23 | 50.96710 | 10.19743 | 35° | 58km/h | 3638m | -6.0m/s | -1.2°C | 100.1% | 655.0hPa | 2.6V | 01:46:00 | 00:00:00 | 00:00:00 | |
| DM0DOS-11 | 2026-08-31 02:01:22 | 50.96625 | 10.19651 | 32° | 58km/h | 3699m | -6.9m/s | -1.4°C | 0% | 649.9hPa | 2.6V | 01:46:43 | 03:28:29 | 00:00:00 | |
| DF8AY | 2026-08-31 02:01:22 | 50.96686 | 10.19716 | 34° | 58km/h | 3657m | -10.3m/s | -1.2°C | 100% | 653.8hPa | 2.6V | 01:47:48 | 03:28:34 | 00:00:00 | |
| DL1NUX | 2026-08-31 02:01:21 | 50.96613 | 10.19638 | 34° | 57km/h | 3705m | -5.4m/s | -1.5°C | 0% | 649.3hPa | 2.6V | 01:46:44 | 03:28:28 | 00:00:00 | |
| BIOWL9-15 | 2026-08-31 02:01:20 | 50.96662 | 10.19690 | 33° | 57km/h | 3674m | -9.0m/s | -1.3°C | -1.0% | -1.0hPa | 2.5V | 00:00:00 | 00:00:00 | 00:00:00 | |
| DM0DOS-11 | 2026-08-31 02:01:17 | 50.96565 | 10.19584 | 37° | 58km/h | 3743m | -11.1m/s | -1.6°C | 99.8% | 646.7hPa | 2.5V | 01:46:48 | 03:28:24 | 00:00:00 | |
| BIOWL1-15 | 2026-08-31 02:01:17 | 50.96625 | 10.19651 | 32° | 58km/h | 3699m | -6.9m/s | -1.5°C | 100% | 649.9hPa | 2.6V | 01:46:57 | 03:28:29 | 00:00:00 | |
| DB0NH | 2026-08-31 02:01:16 | 50.96613 | 10.19638 | 35° | 60km/h | 3705m | -5.4m/s | -1.4°C | 0% | 649.3hPa | 2.6V | 01:46:00 | 03:28:28 | 00:00:00 | |
| DM0DOS-11 | 2026-08-31 02:01:12 | 50.96500 | 10.19514 | 32° | 64km/h | 3789m | -9.6m/s | -1.9°C | 99.7% | 642.8hPa | 2.6V | 01:46:53 | 03:28:19 | 00:00:00 | |
| DB0ND-19 | 2026-08-31 02:01:12 | 50.96553 | 10.19569 | 34° | 62km/h | 3754m | -9.7m/s | -1.7°C | 100.0% | 645.9hPa | 2.5V | 00:00:00 | 00:00:00 | 00:00:00 | |
| DL1NUX | 2026-08-31 02:01:11 | 50.96486 | 10.19500 | 33° | 60km/h | 3798m | -9.5m/s | -1.9°C | 99.8% | 642hPa | 2.5V | 01:46:54 | 03:28:18 | 00:00:00 | |
| HSKMA3-T | 2026-08-31 02:01:06 | 50.96486 | 10.19500 | 34° | 60km/h | 3798m | -9.5m/s | -1.9°C | 100% | 642hPa | 2.5V | 01:47:48 | 03:28:18 | 00:00:00 | |
| DM0DOS-11 | 2026-08-31 02:01:02 | 50.96433 | 10.19448 | 33° | 62km/h | 3827m | -8.4m/s | -2°C | 0% | 639.6hPa | 2.6V | 01:46:58 | 03:28:14 | 00:00:00 | |
| DM0DOS-11 | 2026-08-31 02:01:02 | 50.96369 | 10.19383 | 28° | 62km/h | 3880m | -11.2m/s | -2.2°C | 98.7% | 635.7hPa | 2.5V | 01:47:03 | 03:28:09 | 00:00:00 | |
| DL1NUX | 2026-08-31 02:01:01 | 50.96420 | 10.19434 | 34° | 60km/h | 3835m | -9.1m/s | -2°C | 99.7% | 639hPa | 2.6V | 01:46:59 | 03:28:13 | 00:00:00 | |
| DL0LBS | 2026-08-31 02:01:00 | 50.96420 | 10.19434 | 36° | 60km/h | 3835m | -9.1m/s | -2.0°C | 99.8% | 639.0hPa | 2.6V | 00:00:00 | 00:00:00 | 00:00:00 | |
| DL1NUX | 2026-08-31 02:00:56 | 50.96287 | 10.19308 | 27° | 62km/h | 3952m | -12.2m/s | -2.5°C | 98.7% | 630.1hPa | 2.6V | 01:47:09 | 03:28:03 | 00:00:00 | |
| BIOWL1-15 | 2026-08-31 02:00:56 | 50.96355 | 10.19371 | 31° | 66km/h | 3892m | -11.5m/s | -2.2°C | 100% | 634.8hPa | 2.6V | 01:47:48 | 03:28:08 | 00:00:00 | |
| HSKMA3-T | 2026-08-31 02:00:55 | 50.96341 | 10.19358 | 31° | 64km/h | 3903m | -12.4m/s | -2.3°C | 100% | 633.9hPa | 2.6V | 01:47:48 | 03:28:07 | 00:00:00 | |
| DM0DOS-11 | 2026-08-31 02:00:52 | 50.96301 | 10.19319 | 31° | 58km/h | 3940m | -13.6m/s | -2.4°C | 98.6% | 631.2hPa | 2.5V | 01:47:08 | 03:28:04 | 00:00:00 | |
| DM0DOS-11 | 2026-08-31 02:00:52 | 50.96233 | 10.19260 | 30° | 58km/h | 4001m | -12.6m/s | -2.7°C | 97.9% | 626.2hPa | 2.5V | 01:47:13 | 03:27:59 | 00:00:00 | |
| DC4HF-4 | 2026-08-31 02:00:52 | 50.96287 | 10.19308 | 27° | 60km/h | 3952m | -12.2m/s | -2.5°C | 98.8% | 630.1hPa | 2.5V | 00:00:00 | 00:00:00 | 00:00:00 | |
| DL1NUX | 2026-08-31 02:00:51 | 50.96220 | 10.19248 | 28° | 58km/h | 4013m | -12m/s | -2.7°C | 98.4% | 625.3hPa | 2.5V | 01:47:14 | 03:27:58 | 00:00:00 | |
| DM0DOS-11 | 2026-08-31 02:00:47 | 50.96166 | 10.19201 | 29° | 58km/h | 4062m | -12.7m/s | -3.1°C | 98.2% | 621.5hPa | 2.5V | 01:47:18 | 03:27:54 | 00:00:00 | |
| DB0NH | 2026-08-31 02:00:46 | 50.96220 | 10.19248 | 29° | 69km/h | 4013m | -12.0m/s | -2.7°C | 98.4% | 625.2hPa | 2.5V | 00:00:00 | 03:27:58 | 00:00:00 | |
| DL1NUX | 2026-08-31 02:00:45 | 50.96153 | 10.19189 | 27° | 62km/h | 4075m | -12.4m/s | -3.2°C | 98.6% | 620.4hPa | 2.5V | 01:47:19 | 03:27:53 | 00:00:00 | |
| BIOWL1-15 | 2026-08-31 02:00:45 | 50.96207 | 10.19237 | 27° | 60km/h | 4025m | -12.3m/s | -2.8°C | 100% | 624.3hPa | 2.6V | 01:47:48 | 03:27:57 | 00:00:00 | |
| HSKMA3-T | 2026-08-31 02:00:44 | 50.96193 | 10.19225 | 30° | 62km/h | 4038m | -12.5m/s | -2.9°C | 100% | 623.4hPa | 2.6V | 01:47:48 | 03:27:56 | 00:00:00 | |
| DF8AY | 2026-08-31 02:00:41 | 50.96153 | 10.19189 | 28° | 62km/h | 4075m | -12.4m/s | -3.2°C | 100% | 620.4hPa | 2.5V | 01:47:48 | 03:27:53 | 00:00:00 | |
| DL1ZP-14 | 2026-08-31 02:00:40 | 50.96125 | 10.19163 | 31° | 64km/h | 4099m | -13.1m/s | -3.3°C | 98.5% | 618.5hPa | 2.6V | 00:00:00 | 00:00:00 | 00:00:00 | |
| DL1NUX | 2026-08-31 02:00:39 | 50.96082 | 10.19123 | 29° | 68km/h | 4137m | -12.8m/s | -3.5°C | 98.5% | 615.6hPa | 2.5V | 01:47:24 | 03:27:48 | 00:00:00 | |
| BIOWL1-15 | 2026-08-31 02:00:37 | 50.96067 | 10.19110 | 29° | 69km/h | 4149m | -12.4m/s | -3.6°C | 100% | 614.7hPa | 2.5V | 01:47:48 | 03:27:47 | 00:00:00 | |
| DM0DOS-11 | 2026-08-31 02:00:36 | 50.96024 | 10.19068 | 32° | 66km/h | 4187m | -13.5m/s | -3.8°C | 98.6% | 611.7hPa | 2.6V | 01:47:28 | 03:27:44 | 00:00:00 | |
| HSKMA3-T | 2026-08-31 02:00:33 | 50.96038 | 10.19082 | 32° | 66km/h | 4174m | -13.3m/s | -3.7°C | 100% | 612.6hPa | 2.6V | 01:47:48 | 03:27:45 | 00:00:00 | |
| DL1NUX | 2026-08-31 02:00:31 | 50.96009 | 10.19054 | 33° | 66km/h | 4200m | -13.3m/s | -3.9°C | 98.5% | 610.7hPa | 2.5V | 01:47:29 | 03:27:43 | 00:00:00 | |
| DF8AY | 2026-08-31 02:00:30 | 50.95995 | 10.19039 | 34° | 68km/h | 4214m | -13m/s | -3.9°C | 100% | 609.6hPa | 2.5V | 01:47:48 | 03:27:42 | 00:00:00 | |
| DM0DOS-11 | 2026-08-31 02:00:25 | 50.95843 | 10.18878 | 36° | 75km/h | 4316m | -10.5m/s | -4.5°C | 97.9% | 601.8hPa | 2.5V | 01:47:40 | 03:27:32 | 00:00:00 | |
| BIOWL1-15 | 2026-08-31 02:00:25 | 50.95921 | 10.18963 | 34° | 73km/h | 4276m | -12.9m/s | -4.3°C | 100% | 604.7hPa | 2.5V | 01:47:48 | 03:27:37 | 00:00:00 | |
| HSKMA3-T | 2026-08-31 02:00:22 | 50.95874 | 10.18913 | 36° | 77km/h | 4301m | -6.4m/s | -4.4°C | 99.7% | 602.4hPa | 2.6V | 01:47:48 | 03:27:34 | 00:00:00 | |
| DL1NUX | 2026-08-31 02:00:21 | 50.95858 | 10.18896 | 35° | 75km/h | 4307m | -7.2m/s | -4.5°C | 99.1% | 602hPa | 2.6V | 01:47:39 | 03:27:33 | 00:00:00 | |
| DL1NUX | 2026-08-31 02:00:21 | 50.95780 | 10.18806 | 35° | 78km/h | 4355m | -9.6m/s | -4.7°C | 98.1% | 598.7hPa | 2.5V | 01:47:44 | 03:27:28 | 00:00:00 | |
| DF8AY | 2026-08-31 02:00:20 | 50.95843 | 10.18878 | 36° | 75km/h | 4316m | -10.5m/s | -4.5°C | 100% | 601.8hPa | 2.5V | 01:47:48 | 03:27:32 | 00:00:00 | |
| BIOWL7-15 | 2026-08-31 02:00:19 | 50.95843 | 10.18878 | 37° | 75km/h | 4316m | -10.5m/s | -4.5°C | 97.9% | 601.8hPa | 2.5V | 00:00:00 | 00:00:00 | 00:00:00 | |
| DL0LBS | 2026-08-31 02:00:17 | 50.95812 | 10.18842 | 37° | 78km/h | 4336m | -9.2m/s | -4.6°C | 98.3% | 600.0hPa | 2.5V | 00:00:00 | 00:00:00 | 00:00:00 | |
| DM0DOS-11 | 2026-08-31 02:00:16 | 50.95697 | 10.18717 | 33° | 80km/h | 4402m | -9.6m/s | -5°C | 98.8% | 594.9hPa | 2.5V | 01:47:49 | 03:27:23 | 00:00:00 | |
| BIOWL1-15 | 2026-08-31 02:00:15 | 50.95763 | 10.18788 | 34° | 78km/h | 4364m | -9.3m/s | -4.8°C | 100% | 598hPa | 2.5V | 01:47:48 | 03:27:27 | 00:00:00 | |
| DO8TBO-1 | 2026-08-31 02:00:14 | 50.95747 | 10.18770 | 35° | 86km/h | 4374m | -9.5m/s | -4.8°C | 98.3% | 597.3hPa | 2.6V | 00:00:00 | 03:27:26 | 00:00:00 | |
| AM1SDL-15 | 2026-08-31 02:00:12 | 50.95714 | 10.18735 | 35° | 82km/h | 4392m | -10.1m/s | -4.9°C | 98.6% | 595.7hPa | 2.6V | 01:47:00 | 03:27:24 | 00:00:00 | |
| DM0DOS-11 | 2026-08-31 02:00:11 | 50.95612 | 10.18628 | 33° | 82km/h | 4454m | -9.6m/s | -5.2°C | 97.4% | 591hPa | 2.6V | 01:47:54 | 03:27:18 | 00:00:00 | |
| HSKMA3-T | 2026-08-31 02:00:11 | 50.95698 | 10.18717 | 34° | 80km/h | 4402m | -9.6m/s | -5°C | 100% | 594.9hPa | 2.5V | 01:48:39 | 03:27:23 | 00:00:00 | |
| DF8AY | 2026-08-31 02:00:10 | 50.95681 | 10.18699 | 34° | 80km/h | 4411m | -10.4m/s | -5°C | 100% | 594.3hPa | 2.5V | 01:48:39 | 03:27:22 | 00:00:00 | |
| BIOWL1-15 | 2026-08-31 02:00:06 | 50.95578 | 10.18590 | 34° | 82km/h | 4474m | -10.1m/s | -5.3°C | 100% | 589.7hPa | 2.5V | 01:48:39 | 03:27:16 | 00:00:00 | |
| DM0DOS-11 | 2026-08-31 02:00:05 | 50.95509 | 10.18512 | 37° | 84km/h | 4515m | -10.4m/s | -5.5°C | 96.7% | 586.6hPa | 2.5V | 01:48:00 | 03:27:12 | 00:00:00 | |
| DL1NUX | 2026-08-31 02:00:05 | 50.95561 | 10.18571 | 34° | 82km/h | 4485m | -10.1m/s | -5.3°C | 97.3% | 588.8hPa | 2.6V | 01:47:57 | 03:27:15 | 00:00:00 | |
| DF7PN | 2026-08-31 02:00:05 | 50.95578 | 10.18590 | 33° | 82km/h | 4474m | -10.1m/s | -5.3°C | 97.5% | 589.7hPa | 2.6V | 00:00:00 | 00:00:00 | 00:00:00 | |
| DB0UT-9 | 2026-08-31 02:00:01 | 50.95543 | 10.18552 | 37° | 84km/h | 4495m | -10.3m/s | -5.4°C | 97.2% | 588.2hPa | 2.6V | 01:48:00 | 00:00:00 | 00:00:00 | |
| DM0DOS-11 | 2026-08-31 02:00:00 | 50.95424 | 10.18409 | 35° | 84km/h | 4567m | -11m/s | -5.7°C | 96.1% | 582.8hPa | 2.6V | 01:48:05 | 03:27:07 | 00:00:00 | |
| AM1SDL-15 | 2026-08-31 02:00:00 | 50.95509 | 10.18512 | 38° | 84km/h | 4516m | -10.4m/s | -5.4°C | 96.7% | 586.5hPa | 2.5V | 00:00:00 | 03:27:12 | 00:00:00 | |
| HSKMA3-T | 2026-08-31 02:00:00 | 50.95509 | 10.18512 | 37° | 84km/h | 4515m | -10.4m/s | -5.5°C | 100% | 586.6hPa | 2.5V | 01:48:39 | 03:27:12 | 00:00:00 | |
| DL0LBS | 2026-08-31 01:59:57 | 50.95475 | 10.18471 | 39° | 84km/h | 4536m | -10.9m/s | -5.5°C | 96.4% | 585.0hPa | 2.5V | 00:00:00 | 00:00:00 | 00:00:00 | |
| DM0DOS-11 | 2026-08-31 01:59:55 | 50.95337 | 10.18310 | 36° | 86km/h | 4617m | -10.6m/s | -6°C | 96.5% | 578.9hPa | 2.5V | 01:48:10 | 03:27:02 | 00:00:00 | |
| BIOWL1-15 | 2026-08-31 01:59:55 | 50.95389 | 10.18370 | 35° | 88km/h | 4588m | -10.2m/s | -5.8°C | 100% | 581.2hPa | 2.6V | 01:48:39 | 03:27:05 | 00:00:00 | |
| DM0DOS-11 | 2026-08-31 01:59:50 | 50.95247 | 10.18209 | 34° | 88km/h | 4671m | -10.4m/s | -6.2°C | 95.9% | 575hPa | 2.5V | 01:48:15 | 03:26:57 | 00:00:00 | |
| HSKMA3-T | 2026-08-31 01:59:49 | 50.95319 | 10.18290 | 34° | 88km/h | 4628m | -11m/s | -6°C | 99.9% | 578.1hPa | 2.6V | 01:48:39 | 03:27:01 | 00:00:00 | |
| BIOWL9-15 | 2026-08-31 01:59:47 | 50.95282 | 10.18250 | 34° | 88km/h | 4649m | -11.1m/s | -6.1°C | 95.7% | 576.6hPa | 2.5V | 00:00:00 | 00:00:00 | 00:00:00 | |
| DB0NH | 2026-08-31 01:59:46 | 50.95264 | 10.18229 | 37° | 88km/h | 4660m | -10.8m/s | -6.1°C | 96.1% | 575.8hPa | 2.5V | 00:00:00 | 03:26:58 | 00:00:00 | |
| DM0DOS-11 | 2026-08-31 01:59:45 | 50.95158 | 10.18108 | 37° | 88km/h | 4724m | -11.9m/s | -6.5°C | 95.7% | 571.4hPa | 2.5V | 01:48:20 | 03:26:52 | 00:00:00 | |
| BIOWL1-15 | 2026-08-31 01:59:45 | 50.95193 | 10.18148 | 37° | 84km/h | 4702m | -11.6m/s | -6.4°C | 99.9% | 572.8hPa | 2.6V | 01:48:39 | 03:26:54 | 00:00:00 | |
| HSKMA3-T | 2026-08-31 01:59:38 | 50.95123 | 10.18066 | 38° | 88km/h | 4745m | -11m/s | -6.6°C | 99.9% | 569.7hPa | 2.5V | 01:48:39 | 03:26:50 | 00:00:00 | |
| DO8TBO-1 | 2026-08-31 01:59:38 | 50.95123 | 10.18066 | 38° | 91km/h | 4745m | -11.0m/s | -6.6°C | 95.8% | 569.7hPa | 2.5V | 01:48:00 | 03:26:50 | 00:00:00 | |
| DM0DOS-11 | 2026-08-31 01:59:36 | 50.95071 | 10.18003 | 36° | 88km/h | 4777m | -10.6m/s | -6.8°C | 96% | 567.3hPa | 2.6V | 01:48:25 | 03:26:47 | 00:00:00 | |
| DM0DOS-11 | 2026-08-31 01:59:36 | 50.94983 | 10.17898 | 36° | 88km/h | 4830m | -9.2m/s | -7.1°C | 96.5% | 563.5hPa | 2.6V | 01:48:30 | 03:26:42 | 00:00:00 | |
| BIOWL1-15 | 2026-08-31 01:59:32 | 50.95018 | 10.17940 | 38° | 88km/h | 4809m | -10m/s | -6.9°C | 99.4% | 565.1hPa | 2.5V | 01:48:39 | 03:26:44 | 00:00:00 | |
| DM0DOS-11 | 2026-08-31 01:59:30 | 50.94898 | 10.17789 | 39° | 88km/h | 4882m | -9.3m/s | -7.3°C | 96.2% | 559.9hPa | 2.6V | 01:48:35 | 03:26:37 | 00:00:00 | |
| HSKMA3-T | 2026-08-31 01:59:28 | 50.94950 | 10.17855 | 39° | 88km/h | 4851m | -10.4m/s | -7.2°C | 99.9% | 562.1hPa | 2.5V | 01:48:39 | 03:26:40 | 00:00:00 | |
| DF8AY | 2026-08-31 01:59:27 | 50.94932 | 10.17833 | 39° | 86km/h | 4861m | -9.9m/s | -7.3°C | 100% | 561.4hPa | 2.5V | 01:48:39 | 03:26:39 | 00:00:00 | |
| DM0DOS-11 | 2026-08-31 01:59:25 | 50.94811 | 10.17672 | 41° | 93km/h | 4932m | -10.2m/s | -7.5°C | 95.3% | 556.2hPa | 2.5V | 01:48:40 | 03:26:32 | 00:00:00 | |
| BIOWL1-15 | 2026-08-31 01:59:21 | 50.94829 | 10.17696 | 40° | 91km/h | 4922m | -10.1m/s | -7.5°C | 99.6% | 557hPa | 2.5V | 01:48:39 | 03:26:33 | 00:00:00 | |
| DL1NUX | 2026-08-31 01:59:20 | 50.94724 | 10.17547 | 41° | 95km/h | 4983m | -8.9m/s | -7.7°C | 95.1% | 552.7hPa | 2.5V | 01:48:45 | 03:26:27 | 00:00:00 | |
| HSKMA3-T | 2026-08-31 01:59:17 | 50.94760 | 10.17598 | 42° | 93km/h | 4964m | -9.1m/s | -7.7°C | 99.3% | 553.9hPa | 2.6V | 01:49:30 | 03:26:29 | 00:00:00 | |
| DF8AY | 2026-08-31 01:59:16 | 50.94742 | 10.17573 | 42° | 95km/h | 4974m | -10.7m/s | -7.7°C | 99.4% | 553.3hPa | 2.5V | 01:49:30 | 03:26:28 | 00:00:00 | |
| DB0NH | 2026-08-31 01:59:16 | 50.94742 | 10.17573 | 42° | 104km/h | 4974m | -10.6m/s | -7.7°C | 95.3% | 553.3hPa | 2.5V | 01:48:00 | 03:26:28 | 00:00:00 | |
| DL1NUX | 2026-08-31 01:59:15 | 50.94634 | 10.17414 | 43° | 102km/h | 5037m | -11.4m/s | -8°C | 94.7% | 548.7hPa | 2.5V | 01:48:50 | 03:26:22 | 00:00:00 | |
| NBG1-10 | 2026-08-31 01:59:15 | 50.94724 | 10.17547 | 42° | 104km/h | 4983m | -8.8m/s | -7.7°C | 95.1% | 552.6hPa | 2.5V | 01:48:00 | 03:26:27 | 00:00:00 | |
| BIOWL7-15 | 2026-08-31 01:59:13 | 50.94707 | 10.17522 | 44° | 93km/h | 4993m | -10.8m/s | -7.8°C | 94.9% | 551.9hPa | 2.6V | 00:00:00 | 00:00:00 | 00:00:00 | |
| SONCRA | 2026-08-31 01:59:12 | 50.94671 | 10.17468 | 41° | 97km/h | 5014m | -10.0m/s | -8.0°C | 95.4% | 550.3hPa | 2.6V | 00:00:00 | 00:00:00 | 00:00:00 | |
| DM0DOS-11 | 2026-08-31 01:59:11 | 50.94559 | 10.17300 | 42° | 102km/h | 5082m | -11.7m/s | -8.2°C | 94.7% | 545.7hPa | 2.6V | 01:48:54 | 03:26:18 | 00:00:00 | |
| BIOWL1-15 | 2026-08-31 01:59:11 | 50.94653 | 10.17442 | 44° | 99km/h | 5025m | -12.6m/s | -8°C | 100% | 549.6hPa | 2.6V | 01:49:30 | 03:26:23 | 00:00:00 | |
| HSKMA3-T | 2026-08-31 01:59:07 | 50.94578 | 10.17328 | 44° | 102km/h | 5071m | -10.9m/s | -8.2°C | 100% | 546.4hPa | 2.6V | 01:49:30 | 03:26:19 | 00:00:00 | |
| DF8AY | 2026-08-31 01:59:06 | 50.94559 | 10.17300 | 43° | 102km/h | 5082m | -11.7m/s | -8.2°C | 100% | 545.7hPa | 2.6V | 01:49:30 | 03:26:18 | 00:00:00 | |
| DC4HF-4 | 2026-08-31 01:59:04 | 50.94503 | 10.17217 | 42° | 99km/h | 5117m | -10.4m/s | -8.5°C | 95.1% | 543.1hPa | 2.5V | 00:00:00 | 00:00:00 | 00:00:00 | |
| DL1NUX | 2026-08-31 01:59:03 | 50.94448 | 10.17134 | 44° | 102km/h | 5153m | -11.7m/s | -8.7°C | 95% | 540.8hPa | 2.5V | 01:49:00 | 03:26:12 | 00:00:00 | |
| BIOWL1-15 | 2026-08-31 01:59:01 | 50.94466 | 10.17162 | 45° | 100km/h | 5140m | -12.2m/s | -8.6°C | 100% | 541.6hPa | 2.5V | 01:49:30 | 03:26:13 | 00:00:00 | |
| DM0DOS-11 | 2026-08-31 01:59:00 | 50.94357 | 10.16982 | 47° | 110km/h | 5208m | -11.3m/s | -9.3°C | 96% | 536.9hPa | 2.5V | 01:49:05 | 03:26:07 | 00:00:00 | |
| HSKMA3-T | 2026-08-31 01:58:57 | 50.94394 | 10.17045 | 47° | 106km/h | 5186m | -11.4m/s | -9.2°C | 100% | 538.4hPa | 2.5V | 01:49:30 | 03:26:09 | 00:00:00 | |
| DF8AY | 2026-08-31 01:58:56 | 50.94375 | 10.17014 | 47° | 108km/h | 5197m | -10.4m/s | -9.3°C | 100% | 537.7hPa | 2.5V | 01:49:30 | 03:26:08 | 00:00:00 | |
| BIOWL1-15 | 2026-08-31 01:58:50 | 50.94261 | 10.16823 | 45° | 111km/h | 5263m | -11m/s | -9.9°C | 100% | 533hPa | 2.5V | 01:49:30 | 03:26:02 | 00:00:00 | |
| HSKMA3-T | 2026-08-31 01:58:46 | 50.94180 | 10.16699 | 43° | 110km/h | 5306m | -10.4m/s | -10.2°C | 98.6% | 530.1hPa | 2.6V | 01:49:30 | 03:25:58 | 00:00:00 | |
| BIOWL9-15 | 2026-08-31 01:58:45 | 50.94160 | 10.16669 | 43° | 108km/h | 5316m | -10.4m/s | -10.3°C | 94.4% | 529.3hPa | 2.6V | 00:00:00 | 00:00:00 | 00:00:00 | |
| BIOWL1-15 | 2026-08-31 01:58:39 | 50.94045 | 10.16492 | 45° | 104km/h | 5379m | -10.6m/s | -10.7°C | 98.8% | 525hPa | 2.6V | 01:49:30 | 03:25:51 | 00:00:00 | |
| HSKMA3-T | 2026-08-31 01:58:36 | 50.93991 | 10.16403 | 47° | 102km/h | 5412m | -11.5m/s | -10.9°C | 96.5% | 522.9hPa | 2.5V | 01:49:30 | 03:25:48 | 00:00:00 | |
| DF8AY | 2026-08-31 01:58:35 | 50.93973 | 10.16373 | 47° | 102km/h | 5424m | -11.1m/s | -11°C | 96% | 522.1hPa | 2.6V | 01:49:30 | 03:25:47 | 00:00:00 | |
| BIOWL1-15 | 2026-08-31 01:58:31 | 50.93869 | 10.16188 | 50° | 104km/h | 5485m | -10.1m/s | -11.5°C | 93.4% | 517.7hPa | 2.6V | 01:50:21 | 03:25:41 | 00:00:00 | |
| DF8AY | 2026-08-31 01:58:25 | 50.93801 | 10.16058 | 51° | 108km/h | 5528m | -10.9m/s | -11.8°C | 96.3% | 514.9hPa | 2.5V | 01:50:21 | 03:25:37 | 00:00:00 | |
| DB0UT-7 | 2026-08-31 01:58:24 | 50.93784 | 10.16024 | 51° | 110km/h | 5539m | -11.3m/s | -11.8°C | 89.8% | 514.1hPa | 2.5V | 00:00:00 | 00:00:00 | 00:00:00 | |
| DM0DOS-11 | 2026-08-31 01:58:21 | 50.93714 | 10.15889 | 50° | 110km/h | 5582m | -10.8m/s | -12°C | 95.9% | 511.2hPa | 2.5V | 01:49:40 | 03:25:32 | 00:00:00 | |
| BIOWL1-15 | 2026-08-31 01:58:19 | 50.93696 | 10.15855 | 50° | 111km/h | 5593m | -10.7m/s | -12.1°C | 100% | 510.5hPa | 2.5V | 01:50:21 | 03:25:31 | 00:00:00 | |
| HSKMA3-T | 2026-08-31 01:58:15 | 50.93623 | 10.15719 | 50° | 110km/h | 5636m | -11.9m/s | -12.3°C | 100% | 507.5hPa | 2.5V | 01:50:21 | 03:25:27 | 00:00:00 | |
| DL1NUX | 2026-08-31 01:58:14 | 50.93515 | 10.15518 | 49° | 110km/h | 5706m | -11.9m/s | -13.1°C | 94.3% | 503hPa | 2.5V | 01:49:51 | 03:25:21 | 00:00:00 | |
| DM0DOS-11 | 2026-08-31 01:58:11 | 50.93533 | 10.15551 | 49° | 110km/h | 5694m | -11.9m/s | -12.9°C | 92.9% | 503.8hPa | 2.5V | 01:49:50 | 03:25:22 | 00:00:00 | |
| BIOWL1-15 | 2026-08-31 01:58:08 | 50.93497 | 10.15485 | 50° | 108km/h | 5717m | -10.3m/s | -13°C | 100% | 502.3hPa | 2.5V | 01:50:21 | 03:25:20 | 00:00:00 | |
| HSKMA3-T | 2026-08-31 01:58:04 | 50.93427 | 10.15352 | 51° | 108km/h | 5763m | -11.8m/s | -13.2°C | 100% | 499.2hPa | 2.5V | 01:50:21 | 03:25:16 | 00:00:00 | |
| DM0DOS-11 | 2026-08-31 01:58:01 | 50.93359 | 10.15214 | 53° | 108km/h | 5810m | -12m/s | -13.8°C | 96% | 496.2hPa | 2.6V | 01:50:00 | 03:25:12 | 00:00:00 | |
| SO1NDE-10 | 2026-08-31 01:58:00 | 50.93359 | 10.15214 | 54° | 113km/h | 5810m | -11.9m/s | -13.7°C | 96.0% | 496.1hPa | 2.5V | 00:00:00 | 03:25:12 | 00:00:00 | |
| DL1NUX | 2026-08-31 01:57:58 | 50.93240 | 10.14962 | 52° | 115km/h | 5893m | -11.7m/s | -14.8°C | 96.6% | 490.9hPa | 2.5V | 01:50:07 | 03:25:05 | 00:00:00 | |
| BIOWL1-15 | 2026-08-31 01:57:57 | 50.93310 | 10.15107 | 53° | 113km/h | 5847m | -11.8m/s | -14.4°C | 97.7% | 494hPa | 2.5V | 01:50:21 | 03:25:09 | 00:00:00 | |
| HSKMA3-T | 2026-08-31 01:57:53 | 50.93240 | 10.14961 | 53° | 115km/h | 5893m | -11.7m/s | -14.8°C | 98.8% | 490.9hPa | 2.5V | 01:50:21 | 03:25:05 | 00:00:00 | |
| DC4HF-4 | 2026-08-31 01:57:51 | 50.93204 | 10.14887 | 53° | 115km/h | 5916m | -11.6m/s | -14.9°C | 96.8% | 489.4hPa | 2.5V | 00:00:00 | 00:00:00 | 00:00:00 | |
| DK5PH-5 | 2026-08-31 01:57:50 | 50.93186 | 10.14850 | 53° | 113km/h | 5928m | -11.9m/s | -15.0°C | 0% | 488.5hPa | 2.5V | 00:00:00 | 03:25:02 | 00:00:00 | |
| DL1NUX | 2026-08-31 01:57:48 | 50.93057 | 10.14594 | 51° | 115km/h | 6009m | -11.8m/s | -15.6°C | 0% | 483.4hPa | 2.5V | 01:50:17 | 03:24:55 | 00:00:00 | |
| BIOWL1-15 | 2026-08-31 01:57:48 | 50.93112 | 10.14702 | 51° | 117km/h | 5974m | -11.6m/s | -15.3°C | 99.5% | 485.7hPa | 2.5V | 01:50:21 | 03:24:58 | 00:00:00 | |
| DF8AY | 2026-08-31 01:57:43 | 50.93057 | 10.14594 | 51° | 115km/h | 6009m | -11.8m/s | -15.6°C | 100% | 483.4hPa | 2.5V | 01:50:21 | 03:24:55 | 00:00:00 | |
| SONCRA | 2026-08-31 01:57:39 | 50.92967 | 10.14417 | 52° | 111km/h | 6067m | -12.0m/s | -16.1°C | 100.0% | 479.8hPa | 2.5V | 00:00:00 | 00:00:00 | 00:00:00 | |
| DL1NUX | 2026-08-31 01:57:38 | 50.92882 | 10.14238 | 53° | 110km/h | 6127m | -10.6m/s | -16.6°C | 0% | 476hPa | 2.5V | 01:50:27 | 03:24:45 | 00:00:00 | |
| BIOWL1-15 | 2026-08-31 01:57:35 | 50.92915 | 10.14309 | 53° | 111km/h | 6104m | -11.1m/s | -16.4°C | 100% | 477.5hPa | 2.5V | 01:51:12 | 03:24:47 | 00:00:00 | |
| DF8AY | 2026-08-31 01:57:32 | 50.92866 | 10.14202 | 54° | 111km/h | 6138m | -11m/s | -16.7°C | 100% | 475.4hPa | 2.5V | 01:51:12 | 03:24:44 | 00:00:00 | |
| DM0DOS-11 | 2026-08-31 01:57:31 | 50.92834 | 10.14129 | 55° | 113km/h | 6160m | -10.5m/s | -16.9°C | 0% | 474hPa | 2.5V | 01:50:30 | 03:24:42 | 00:00:00 | |
| BIOWL1-15 | 2026-08-31 01:57:27 | 50.92755 | 10.13941 | 57° | 115km/h | 6215m | -11.4m/s | -17.3°C | 98.5% | 470.6hPa | 2.4V | 01:51:12 | 03:24:37 | 00:00:00 | |
| SO1NDE-10 | 2026-08-31 01:57:27 | 50.92786 | 10.14016 | 56° | 102km/h | 6193m | -10.5m/s | -17.1°C | 0% | 471.9hPa | 2.5V | 01:50:00 | 03:24:39 | 00:00:00 | |
| DL1NUX | 2026-08-31 01:57:25 | 50.92724 | 10.13865 | 55° | 115km/h | 6237m | -10.9m/s | -17.3°C | 97.5% | 469.2hPa | 2.5V | 01:50:37 | 03:24:35 | 00:00:00 | |
| HSKMA3-T | 2026-08-31 01:57:22 | 50.92708 | 10.13826 | 57° | 115km/h | 6249m | -12.3m/s | -17.4°C | 97.1% | 468.6hPa | 2.5V | 01:51:12 | 03:24:34 | 00:00:00 | |
| DM0DOS-11 | 2026-08-31 01:57:22 | 50.92676 | 10.13750 | 55° | 115km/h | 6270m | -11.5m/s | -17.5°C | 96.4% | 467hPa | 2.5V | 01:50:40 | 03:24:32 | 00:00:00 | |
| DF8AY | 2026-08-31 01:57:21 | 50.92692 | 10.13788 | 56° | 113km/h | 6260m | -9.7m/s | -17.5°C | 97.1% | 467.8hPa | 2.5V | 01:51:12 | 03:24:33 | 00:00:00 | |
| BIOWL1-15 | 2026-08-31 01:57:14 | 50.92577 | 10.13526 | 54° | 115km/h | 6338m | -10.9m/s | -18.1°C | 94.1% | 462.9hPa | 2.4V | 01:51:12 | 03:24:26 | 00:00:00 | |
| HSKMA3-T | 2026-08-31 01:57:12 | 50.92543 | 10.13453 | 52° | 113km/h | 6361m | -10.7m/s | -18.1°C | 91.7% | 461.5hPa | 2.5V | 01:51:12 | 03:24:24 | 00:00:00 | |
| DM0DOS-11 | 2026-08-31 01:57:11 | 50.92509 | 10.13382 | 53° | 108km/h | 6383m | -11.4m/s | -18.1°C | 79.6% | 460.1hPa | 2.5V | 01:50:50 | 03:24:22 | 00:00:00 | |
| DF8AY | 2026-08-31 01:57:11 | 50.92526 | 10.13417 | 52° | 111km/h | 6372m | -10.8m/s | -18.2°C | 88.9% | 460.7hPa | 2.5V | 01:51:12 | 03:24:23 | 00:00:00 | |
| BIOWL1-15 | 2026-08-31 01:57:03 | 50.92391 | 10.13145 | 52° | 108km/h | 6461m | -10.7m/s | -18.4°C | 64.9% | 455.3hPa | 2.4V | 01:51:12 | 03:24:15 | 00:00:00 | |
| NBG1-10 | 2026-08-31 01:57:03 | 50.92391 | 10.13145 | 52° | 108km/h | 6461m | -10.7m/s | -18.3°C | 60.7% | 455.3hPa | 2.5V | 01:50:00 | 03:24:15 | 00:00:00 | |
| DM0DOS-11 | 2026-08-31 01:57:02 | 50.92340 | 10.13045 | 50° | 106km/h | 6493m | -10.9m/s | -18.6°C | 57.7% | 453.3hPa | 2.5V | 01:51:00 | 03:24:12 | 00:00:00 | |
| HSKMA3-T | 2026-08-31 01:57:01 | 50.92357 | 10.13078 | 51° | 106km/h | 6482m | -10.2m/s | -18.5°C | 62.8% | 454hPa | 2.5V | 01:51:12 | 03:24:13 | 00:00:00 | |
| DF8AY | 2026-08-31 01:57:00 | 50.92340 | 10.13045 | 50° | 106km/h | 6493m | -10.9m/s | -18.6°C | 62.1% | 453.4hPa | 2.5V | 01:51:12 | 03:24:12 | 00:00:00 | |
| BIOWL1-15 | 2026-08-31 01:56:52 | 50.92207 | 10.12782 | 51° | 106km/h | 6585m | -11.5m/s | -19.1°C | 60.1% | 447.9hPa | 2.4V | 01:51:12 | 03:24:04 | 00:00:00 | |
| DF8AY | 2026-08-31 01:56:51 | 50.92158 | 10.12681 | 52° | 106km/h | 6621m | -11.3m/s | -19.5°C | 60.9% | 445.8hPa | 2.4V | 01:51:12 | 03:24:01 | 00:00:00 | |
| DM0DOS-11 | 2026-08-31 01:56:51 | 50.92175 | 10.12715 | 53° | 108km/h | 6609m | -11.3m/s | -19.4°C | 56.6% | 446.5hPa | 2.5V | 01:51:10 | 03:24:02 | 00:00:00 | |
| HSKMA3-T | 2026-08-31 01:56:51 | 50.92190 | 10.12749 | 54° | 104km/h | 6597m | -11.7m/s | -19.3°C | 60.6% | 447.1hPa | 2.5V | 01:51:12 | 03:24:03 | 00:00:00 | |
| BIOWL1-15 | 2026-08-31 01:56:43 | 50.92036 | 10.12400 | 55° | 111km/h | 6711m | -11.4m/s | -20.4°C | 70.8% | 440.3hPa | 2.5V | 01:52:03 | 03:23:53 | 00:00:00 | |
| DM0DOS-11 | 2026-08-31 01:56:41 | 50.92020 | 10.12364 | 54° | 111km/h | 6722m | -11.7m/s | -20.5°C | 69.6% | 439.6hPa | 2.5V | 01:51:20 | 03:23:52 | 00:00:00 | |
| HSKMA3-T | 2026-08-31 01:56:40 | 50.92020 | 10.12364 | 55° | 111km/h | 6722m | -11.7m/s | -20.5°C | 72.5% | 439.6hPa | 2.5V | 01:52:03 | 03:23:52 | 00:00:00 | |
| DF8AY | 2026-08-31 01:56:38 | 50.91986 | 10.12291 | 53° | 113km/h | 6746m | -11.7m/s | -20.7°C | 75.5% | 438.3hPa | 2.4V | 01:52:03 | 03:23:50 | 00:00:00 | |
| DO9LL-15 | 2026-08-31 01:56:38 | 50.91986 | 10.12291 | 54° | 100km/h | 6746m | -11.6m/s | -20.7°C | 72.7% | 438.2hPa | 2.4V | 00:00:00 | 03:23:50 | 00:00:00 | |
| DJTTGO | 2026-08-31 01:56:36 | 50.91969 | 10.12254 | 55° | 111km/h | 6757m | -11.8m/s | -20.8°C | 76.0% | 437.5hPa | 2.4V | 01:52:00 | 00:00:00 | 00:00:00 | |
| EDDB2-11 | 2026-08-31 01:56:34 | 50.91904 | 10.12114 | 54° | 104km/h | 6803m | -12.2m/s | -21.2°C | 83.8% | 434.8hPa | 2.4V | 00:00:00 | 00:00:00 | 00:00:00 | |
| DM0DOS-11 | 2026-08-31 01:56:31 | 50.91856 | 10.12012 | 51° | 104km/h | 6838m | -11.3m/s | -21.1°C | 82.4% | 432.6hPa | 2.4V | 01:51:30 | 03:23:42 | 00:00:00 | |
| BIOWL1-15 | 2026-08-31 01:56:30 | 50.91856 | 10.12012 | 52° | 104km/h | 6838m | -11.3m/s | -21.1°C | 84.6% | 432.6hPa | 2.4V | 01:52:03 | 03:23:42 | 00:00:00 | |
| HSKMA3-T | 2026-08-31 01:56:29 | 50.91840 | 10.11980 | 51° | 102km/h | 6849m | -11.5m/s | -21.2°C | 83.7% | 431.9hPa | 2.4V | 01:52:03 | 03:23:41 | 00:00:00 | |
| DF8AY | 2026-08-31 01:56:28 | 50.91824 | 10.11949 | 51° | 99km/h | 6861m | -12m/s | -21.2°C | 82.3% | 431.4hPa | 2.5V | 01:52:03 | 03:23:40 | 00:00:00 | |
| DF7PN | 2026-08-31 01:56:27 | 50.91808 | 10.11918 | 52° | 100km/h | 6873m | -12.7m/s | -21.3°C | 78.8% | 430.7hPa | 2.4V | 00:00:00 | 00:00:00 | 00:00:00 | |
| DM7RM-13 | 2026-08-31 01:56:24 | 50.91776 | 10.11856 | 53° | 97km/h | 6896m | -12.2m/s | 0°C | 0% | 0hPa | 2.4V | 00:00:00 | 00:00:00 | 00:00:00 | |
| DM0DOS-11 | 2026-08-31 01:56:21 | 50.91700 | 10.11706 | 51° | 99km/h | 6957m | -11.4m/s | -21.9°C | 80.4% | 425.9hPa | 2.4V | 01:51:40 | 03:23:32 | 00:00:00 | |
| BIOWL1-15 | 2026-08-31 01:56:20 | 50.91700 | 10.11706 | 52° | 99km/h | 6957m | -11.4m/s | -21.9°C | 82.9% | 425.9hPa | 2.4V | 01:52:03 | 03:23:32 | 00:00:00 | |
| HSKMA3-T | 2026-08-31 01:56:19 | 50.91685 | 10.11676 | 53° | 93km/h | 6968m | -12.4m/s | -22°C | 83.4% | 425.2hPa | 2.4V | 01:52:03 | 03:23:31 | 00:00:00 | |
| DF8AY | 2026-08-31 01:56:18 | 50.91671 | 10.11645 | 53° | 97km/h | 6980m | -12.1m/s | -22.1°C | 84.1% | 424.5hPa | 2.5V | 01:52:03 | 03:23:30 | 00:00:00 | |
| DB0UT-7 | 2026-08-31 01:56:18 | 50.91671 | 10.11645 | 54° | 99km/h | 6980m | -12.1m/s | -22.1°C | 82.1% | 424.5hPa | 2.5V | 00:00:00 | 00:00:00 | 00:00:00 | |
| AM1SDL-15 | 2026-08-31 01:56:17 | 50.91656 | 10.11615 | 53° | 99km/h | 6991m | -12.1m/s | -22.2°C | 82.7% | 423.7hPa | 2.4V | 00:00:00 | 03:23:29 | 00:00:00 | |
| DB0NH | 2026-08-31 01:56:16 | 50.91642 | 10.11584 | 55° | 97km/h | 7003m | -12.5m/s | -22.3°C | 84.8% | 423.1hPa | 2.4V | 01:51:00 | 03:23:28 | 00:00:00 | |
| EDDB2-12 | 2026-08-31 01:56:13 | 50.91598 | 10.11490 | 54° | 97km/h | 7038m | -13.4m/s | -22.6°C | 86.7% | 421.0hPa | 2.4V | 00:00:00 | 00:00:00 | 00:00:00 | |
| DM0DOS-11 | 2026-08-31 01:56:11 | 50.91553 | 10.11394 | 54° | 100km/h | 7074m | -13.1m/s | -22.9°C | 90.2% | 419hPa | 2.4V | 01:51:50 | 03:23:22 | 00:00:00 | |
| BIOWL1-15 | 2026-08-31 01:56:10 | 50.91553 | 10.11394 | 55° | 100km/h | 7074m | -13.1m/s | -23°C | 91.5% | 419hPa | 2.4V | 01:52:03 | 03:23:22 | 00:00:00 | |
| HSKMA3-T | 2026-08-31 01:56:08 | 50.91523 | 10.11329 | 54° | 102km/h | 7098m | -12.7m/s | -23.2°C | 92.3% | 417.7hPa | 2.4V | 01:52:03 | 03:23:20 | 00:00:00 | |
| DF8AY | 2026-08-31 01:56:07 | 50.91508 | 10.11296 | 55° | 99km/h | 7111m | -12.9m/s | -23.2°C | 92% | 417hPa | 2.5V | 01:52:03 | 03:23:19 | 00:00:00 | |
| DO9LL-15 | 2026-08-31 01:56:07 | 50.91508 | 10.11296 | 56° | 95km/h | 7111m | -12.9m/s | -23.2°C | 90.4% | 417.0hPa | 2.4V | 01:51:00 | 03:23:19 | 00:00:00 | |
| SONCRA | 2026-08-31 01:56:06 | 50.91478 | 10.11232 | 53° | 102km/h | 7134m | -12.1m/s | -23.4°C | 87.3% | 415.7hPa | 2.4V | 00:00:00 | 00:00:00 | 00:00:00 | |
| AM1SDL-15 | 2026-08-31 01:56:05 | 50.91478 | 10.11232 | 54° | 99km/h | 7134m | -12.1m/s | -23.4°C | 88.9% | 415.6hPa | 2.4V | 01:51:00 | 03:23:17 | 00:00:00 | |
| DL1NUX | 2026-08-31 01:56:04 | 50.91388 | 10.11042 | 51° | 99km/h | 7202m | -11m/s | -23.6°C | 81.2% | 411.6hPa | 2.4V | 01:52:01 | 03:23:11 | 00:00:00 | |
| DF8AY | 2026-08-31 01:55:59 | 50.91357 | 10.10980 | 52° | 95km/h | 7225m | -11.7m/s | -23.7°C | 87.8% | 410.4hPa | 2.5V | 01:52:03 | 03:23:09 | 00:00:00 | |
| BIOWL1-15 | 2026-08-31 01:55:59 | 50.91388 | 10.11042 | 52° | 99km/h | 7202m | -11m/s | -23.6°C | 84.9% | 411.6hPa | 2.4V | 01:52:03 | 03:23:11 | 00:00:00 | |
| HSKMA3-T | 2026-08-31 01:55:58 | 50.91372 | 10.11011 | 53° | 99km/h | 7213m | -11.9m/s | -23.6°C | 86% | 411hPa | 2.4V | 01:52:03 | 03:23:10 | 00:00:00 | |
| DF7PN | 2026-08-31 01:55:56 | 50.91342 | 10.10950 | 50° | 95km/h | 7237m | -11.5m/s | -23.8°C | 83.3% | 409.8hPa | 2.5V | 00:00:00 | 00:00:00 | 00:00:00 | |
| DJTTGO | 2026-08-31 01:55:55 | 50.91342 | 10.10950 | 52° | 97km/h | 7237m | -11.5m/s | -23.8°C | 83.3% | 409.7hPa | 2.5V | 01:52:00 | 00:00:00 | 00:00:00 | |
| AM1SDL-15 | 2026-08-31 01:55:53 | 50.91296 | 10.10860 | 54° | 93km/h | 7272m | -12.6m/s | -24.0°C | 86.6% | 407.8hPa | 2.5V | 00:00:00 | 03:23:05 | 00:00:00 | |
| DL1NUX | 2026-08-31 01:55:50 | 50.91182 | 10.10623 | 55° | 93km/h | 7371m | -13.3m/s | -24.7°C | 78.4% | 402.5hPa | 2.5V | 01:52:15 | 03:22:57 | 00:00:00 | |
| BIOWL1-15 | 2026-08-31 01:55:48 | 50.91223 | 10.10713 | 55° | 93km/h | 7332m | -12.7m/s | -24.5°C | 87.4% | 404.5hPa | 2.4V | 01:52:54 | 03:23:00 | 00:00:00 | |
| DF8AY | 2026-08-31 01:55:47 | 50.91210 | 10.10683 | 55° | 93km/h | 7344m | -13.5m/s | -24.6°C | 85.7% | 403.8hPa | 2.4V | 01:52:54 | 03:22:59 | 00:00:00 | |
| DL1XH-west | 2026-08-31 01:55:45 | 50.91182 | 10.10623 | 55° | 93km/h | 7371m | -13.3m/s | -24.7°C | 83.3% | 402.5hPa | 2.5V | 01:52:54 | 03:22:57 | 00:00:00 | |
| DM0DOS-11 | 2026-08-31 01:55:41 | 50.91114 | 10.10470 | 53° | 91km/h | 7434m | -12.6m/s | -25.2°C | 80.6% | 399.2hPa | 2.5V | 01:52:20 | 03:22:52 | 00:00:00 | |
| AM1SDL-15 | 2026-08-31 01:55:41 | 50.91127 | 10.10500 | 57° | 93km/h | 7421m | -13.3m/s | -25.1°C | 79.7% | 399.8hPa | 2.5V | 01:52:00 | 03:22:53 | 00:00:00 | |
| DL1XH1-15 | 2026-08-31 01:55:40 | 50.91047 | 10.10317 | 56° | 91km/h | 7497m | -13.6m/s | -25.7°C | 80.4% | 395.8hPa | 2.5V | 01:52:25 | 03:22:47 | 00:00:00 | |
| BIOWL1-15 | 2026-08-31 01:55:39 | 50.91073 | 10.10379 | 56° | 93km/h | 7471m | -12.7m/s | -25.5°C | 85% | 397.1hPa | 2.4V | 01:52:54 | 03:22:49 | 00:00:00 | |
| HSKMA3-T | 2026-08-31 01:55:38 | 50.91086 | 10.10409 | 56° | 93km/h | 7458m | -13.1m/s | -25.4°C | 85.5% | 397.8hPa | 2.4V | 01:52:54 | 03:22:50 | 00:00:00 | |
| DF8AY | 2026-08-31 01:55:36 | 50.91060 | 10.10348 | 57° | 93km/h | 7483m | -13.6m/s | -25.6°C | 85.5% | 396.4hPa | 2.4V | 01:52:54 | 03:22:48 | 00:00:00 | |
| DL1XH-west | 2026-08-31 01:55:35 | 50.91047 | 10.10317 | 56° | 91km/h | 7497m | -13.6m/s | -25.7°C | 85.8% | 395.8hPa | 2.5V | 01:52:54 | 03:22:47 | 00:00:00 | |
| SONCRA | 2026-08-31 01:55:34 | 50.91034 | 10.10286 | 54° | 95km/h | 7509m | -11.3m/s | -25.9°C | 78.6% | 395.1hPa | 2.4V | 00:00:00 | 00:00:00 | 00:00:00 | |
| SONDE2-11 | 2026-08-31 01:55:32 | 50.90994 | 10.10193 | 54° | 93km/h | 7546m | -10.4m/s | -26.1°C | 74.0% | 393.0hPa | 2.4V | 00:00:00 | 00:00:00 | 00:00:00 | |
| EDDB2-11 | 2026-08-31 01:55:31 | 50.90994 | 10.10193 | 54° | 93km/h | 7546m | -10.4m/s | -26.1°C | 74.0% | 393.0hPa | 2.4V | 00:00:00 | 00:00:00 | 00:00:00 | |
| DL1XH1-15 | 2026-08-31 01:55:30 | 50.90910 | 10.10002 | 54° | 100km/h | 7617m | -12.4m/s | -26.7°C | 74.3% | 389hPa | 2.4V | 01:52:35 | 03:22:37 | 00:00:00 | |
| HSKMA3-T | 2026-08-31 01:55:27 | 50.90938 | 10.10068 | 56° | 100km/h | 7592m | -13m/s | -26.6°C | 80.1% | 390.4hPa | 2.4V | 01:52:54 | 03:22:39 | 00:00:00 | |
| DF8AY | 2026-08-31 01:55:26 | 50.90924 | 10.10035 | 56° | 100km/h | 7604m | -12.8m/s | -26.6°C | 79.4% | 389.7hPa | 2.4V | 01:52:54 | 03:22:38 | 00:00:00 | |
| DL1XH-west | 2026-08-31 01:55:24 | 50.90895 | 10.09969 | 56° | 100km/h | 7630m | -13.2m/s | -26.8°C | 81.6% | 388.4hPa | 2.4V | 01:52:54 | 03:22:36 | 00:00:00 | |
| DL3OBA | 2026-08-31 01:55:23 | 50.90895 | 10.09969 | 57° | 100km/h | 7630m | -13.2m/s | -26.8°C | 74.0% | 388.4hPa | 2.4V | 01:52:00 | 00:00:00 | 00:00:00 | |
| DK5PH-5 | 2026-08-31 01:55:22 | 50.90867 | 10.09903 | 55° | 97km/h | 7655m | -11.9m/s | -27.0°C | 80.8% | 387.1hPa | 2.4V | 00:00:00 | 03:22:34 | 00:00:00 | |
| NBG1-10 | 2026-08-31 01:55:21 | 50.90853 | 10.09871 | 58° | 95km/h | 7668m | -13.8m/s | -27.1°C | 81.7% | 386.3hPa | 2.4V | 01:52:00 | 03:22:33 | 00:00:00 | |
| DL1XH1-15 | 2026-08-31 01:55:20 | 50.90771 | 10.09676 | 55° | 95km/h | 7746m | -13.8m/s | -27.8°C | 85.6% | 382.4hPa | 2.4V | 01:52:45 | 03:22:27 | 00:00:00 | |
| HSKMA3-T | 2026-08-31 01:55:16 | 50.90785 | 10.09708 | 57° | 100km/h | 7733m | -12m/s | -27.7°C | 90.8% | 383hPa | 2.4V | 01:52:54 | 03:22:28 | 00:00:00 | |
| BIOWL1-15 | 2026-08-31 01:55:15 | 50.90771 | 10.09676 | 56° | 95km/h | 7746m | -13.8m/s | -27.8°C | 91.4% | 382.5hPa | 2.4V | 01:52:54 | 03:22:27 | 00:00:00 | |
| DL1XH-west | 2026-08-31 01:55:13 | 50.90745 | 10.09611 | 56° | 99km/h | 7772m | -12.9m/s | -28°C | 91.4% | 381.1hPa | 2.4V | 01:52:54 | 03:22:25 | 00:00:00 | |
| DO3MHA-11 | 2026-08-31 01:55:12 | 50.90731 | 10.09579 | 57° | 97km/h | 7785m | -13.2m/s | -28.0°C | 84.9% | 380.3hPa | 2.5V | 01:52:00 | 03:22:24 | 00:00:00 | |
| EDDB2-12 | 2026-08-31 01:55:11 | 50.90704 | 10.09515 | 57° | 95km/h | 7811m | -14.1m/s | -28.4°C | 84.3% | 379.1hPa | 2.5V | 00:00:00 | 00:00:00 | 00:00:00 | |
| DL1XH1-15 | 2026-08-31 01:55:10 | 50.90636 | 10.09354 | 55° | 97km/h | 7875m | -12.1m/s | -29°C | 87% | 375.6hPa | 2.5V | 01:52:55 | 03:22:17 | 00:00:00 | |
| HSKMA3-T | 2026-08-31 01:55:06 | 50.90649 | 10.09386 | 58° | 97km/h | 7863m | -13.1m/s | -28.8°C | 92.4% | 376.3hPa | 2.5V | 01:52:54 | 03:22:18 | 00:00:00 | |
| BIOWL1-15 | 2026-08-31 01:55:05 | 50.90636 | 10.09353 | 56° | 97km/h | 7875m | -12.1m/s | -29°C | 92.3% | 375.7hPa | 2.5V | 01:53:45 | 03:22:17 | 00:00:00 | |
| DF8AY | 2026-08-31 01:55:04 | 50.90622 | 10.09321 | 56° | 99km/h | 7887m | -12.7m/s | -29.1°C | 89.9% | 375hPa | 2.4V | 01:53:45 | 03:22:16 | 00:00:00 | |
| DL1XH-west | 2026-08-31 01:55:02 | 50.90595 | 10.09257 | 58° | 95km/h | 7911m | -14m/s | -29.3°C | 87.4% | 373.8hPa | 2.4V | 01:53:45 | 03:22:14 | 00:00:00 | |
| DM0DOS-11 | 2026-08-31 01:55:01 | 50.90569 | 10.09194 | 57° | 95km/h | 7935m | -13.5m/s | -29.5°C | 81.9% | 372.4hPa | 2.5V | 01:53:00 | 03:22:12 | 00:00:00 | |
| HSKMA3-T | 2026-08-31 01:54:55 | 50.90504 | 10.09037 | 55° | 95km/h | 7996m | -10.8m/s | -30°C | 83.7% | 369.1hPa | 2.5V | 01:53:45 | 03:22:07 | 00:00:00 | |
| BIOWL1-15 | 2026-08-31 01:54:54 | 50.90490 | 10.09005 | 55° | 95km/h | 8009m | -12.4m/s | -30°C | 82.2% | 368.6hPa | 2.5V | 01:53:45 | 03:22:06 | 00:00:00 | |
| DF8AY | 2026-08-31 01:54:53 | 50.90477 | 10.08974 | 56° | 97km/h | 8020m | -12.3m/s | -30.1°C | 81.9% | 367.8hPa | 2.4V | 01:53:45 | 03:22:05 | 00:00:00 | |
| DL1NUX | 2026-08-31 01:54:53 | 50.90423 | 10.08850 | 56° | 93km/h | 8070m | -12.6m/s | -30.5°C | 75.2% | 365.3hPa | 2.5V | 01:53:11 | 03:22:01 | 00:00:00 | |
| DM0DOS-11 | 2026-08-31 01:54:51 | 50.90436 | 10.08880 | 53° | 93km/h | 8059m | -11.5m/s | -30.4°C | 75.6% | 365.9hPa | 2.4V | 01:53:10 | 03:22:02 | 00:00:00 | |
| DL1XH-west | 2026-08-31 01:54:51 | 50.90450 | 10.08911 | 57° | 91km/h | 8046m | -14m/s | -30.3°C | 81.8% | 366.6hPa | 2.4V | 01:53:45 | 03:22:03 | 00:00:00 | |
| DL1XH1-15 | 2026-08-31 01:54:50 | 50.90368 | 10.08725 | 55° | 93km/h | 8121m | -13.2m/s | -30.9°C | 73.6% | 362.9hPa | 2.4V | 01:53:15 | 03:21:57 | 00:00:00 | |
| HSKMA3-T | 2026-08-31 01:54:44 | 50.90355 | 10.08693 | 56° | 97km/h | 8134m | -13m/s | -31°C | 78.9% | 362.2hPa | 2.4V | 01:53:45 | 03:21:56 | 00:00:00 | |
| DL1NUX | 2026-08-31 01:54:43 | 50.90273 | 10.08505 | 54° | 93km/h | 8208m | -11.3m/s | -31.6°C | 70% | 358.3hPa | 2.4V | 01:53:22 | 03:21:50 | 00:00:00 | |
| DF8AY | 2026-08-31 01:54:42 | 50.90327 | 10.08630 | 56° | 97km/h | 8159m | -13.9m/s | -31.2°C | 77.1% | 361hPa | 2.5V | 01:53:45 | 03:21:54 | 00:00:00 | |
| DM0DOS-11 | 2026-08-31 01:54:41 | 50.90300 | 10.08567 | 54° | 93km/h | 8183m | -11.9m/s | -31.4°C | 69.3% | 359.6hPa | 2.4V | 01:53:20 | 03:21:52 | 00:00:00 | |
| DL1XH1-15 | 2026-08-31 01:54:40 | 50.90232 | 10.08414 | 55° | 93km/h | 8242m | -11.6m/s | -32°C | 71.4% | 356.5hPa | 2.4V | 01:53:25 | 03:21:47 | 00:00:00 | |
| DL1XH-west | 2026-08-31 01:54:40 | 50.90300 | 10.08567 | 55° | 93km/h | 8183m | -11.9m/s | -31.4°C | 75.4% | 359.6hPa | 2.4V | 01:53:45 | 03:21:52 | 00:00:00 | |
| HSKMA3-T | 2026-08-31 01:54:33 | 50.90205 | 10.08353 | 55° | 97km/h | 8265m | -13.4m/s | -32.2°C | 78% | 355.3hPa | 2.4V | 01:53:45 | 03:21:45 | 00:00:00 | |
| DM0DOS-11 | 2026-08-31 01:54:31 | 50.90166 | 10.08259 | 55° | 93km/h | 8303m | -13m/s | -32.5°C | 71.9% | 353.4hPa | 2.5V | 01:53:30 | 03:21:42 | 00:00:00 | |
| DF8AY | 2026-08-31 01:54:31 | 50.90179 | 10.08290 | 56° | 93km/h | 8290m | -13.3m/s | -32.4°C | 78.2% | 354.1hPa | 2.5V | 01:53:45 | 03:21:43 | 00:00:00 | |
| DL1XH-west | 2026-08-31 01:54:29 | 50.90152 | 10.08227 | 57° | 97km/h | 8316m | -12.9m/s | -32.6°C | 78.7% | 352.8hPa | 2.4V | 01:53:45 | 03:21:41 | 00:00:00 | |
| HSKMA3-T | 2026-08-31 01:54:22 | 50.90059 | 10.08010 | 56° | 91km/h | 8404m | -14.2m/s | -33.4°C | 79% | 348.5hPa | 2.4V | 01:53:45 | 03:21:34 | 00:00:00 | |
| DM0DOS-11 | 2026-08-31 01:54:21 | 50.90032 | 10.07947 | 55° | 93km/h | 8430m | -11.6m/s | -33.6°C | 72.8% | 347.1hPa | 2.4V | 01:53:40 | 03:21:32 | 00:00:00 | |
| DF8AY | 2026-08-31 01:54:21 | 50.90045 | 10.07979 | 57° | 93km/h | 8417m | -12.6m/s | -33.5°C | 78.7% | 347.7hPa | 2.4V | 01:53:45 | 03:21:33 | 00:00:00 | |
| DK5PH-5 | 2026-08-31 01:54:21 | 50.90045 | 10.07979 | 58° | 91km/h | 8417m | -12.6m/s | -33.4°C | 72.7% | 347.7hPa | 2.4V | 00:00:00 | 03:21:33 | 00:00:00 | |
| DL1XH1-15 | 2026-08-31 01:54:20 | 50.89968 | 10.07793 | 58° | 89km/h | 8494m | -12.7m/s | -34.1°C | 74.5% | 344.1hPa | 2.4V | 01:53:45 | 03:21:27 | 00:00:00 | |
| DL1NUX | 2026-08-31 01:54:18 | 50.89944 | 10.07733 | 57° | 88km/h | 8520m | -12.4m/s | -34.3°C | 73.7% | 342.9hPa | 2.5V | 01:53:47 | 03:21:25 | 00:00:00 | |
| DL1XH-west | 2026-08-31 01:54:18 | 50.90006 | 10.07885 | 56° | 91km/h | 8457m | -11.8m/s | -33.8°C | 79.6% | 346hPa | 2.5V | 01:53:45 | 03:21:30 | 00:00:00 | |
| BIOWL1-15 | 2026-08-31 01:54:12 | 50.89932 | 10.07703 | 56° | 89km/h | 8532m | -11.5m/s | -34.5°C | 79.6% | 342.3hPa | 2.5V | 01:54:36 | 03:21:24 | 00:00:00 | |
| DM0DOS-11 | 2026-08-31 01:54:11 | 50.89906 | 10.07644 | 55° | 91km/h | 8555m | -12.5m/s | -34.6°C | 73.2% | 341hPa | 2.4V | 01:53:50 | 03:21:22 | 00:00:00 | |
| DF8AY | 2026-08-31 01:54:10 | 50.89906 | 10.07644 | 56° | 91km/h | 8555m | -12.5m/s | -34.7°C | 79.1% | 341hPa | 2.4V | 01:54:36 | 03:21:22 | 00:00:00 | |
| DL1XH-west | 2026-08-31 01:54:08 | 50.89881 | 10.07584 | 58° | 91km/h | 8579m | -14.4m/s | -34.9°C | 78.8% | 339.9hPa | 2.4V | 01:54:36 | 03:21:20 | 00:00:00 | |
| DO9LL-15 | 2026-08-31 01:54:07 | 50.89869 | 10.07553 | 60° | 89km/h | 8592m | -12.8m/s | -34.9°C | 72.9% | 339.1hPa | 2.5V | 01:53:00 | 03:21:19 | 00:00:00 | |
| BIOWL9-15 | 2026-08-31 01:54:06 | 50.89858 | 10.07523 | 60° | 88km/h | 8605m | -13.7m/s | -35.1°C | 69.8% | 338.6hPa | 2.5V | 00:00:00 | 00:00:00 | 00:00:00 | |
| DD1CC8 | 2026-08-31 01:54:05 | 50.89824 | 10.07432 | 58° | 91km/h | 8643m | -12.8m/s | -35.4°C | 68.8% | 336.8hPa | 2.5V | 00:00:00 | 00:00:00 | 00:00:00 | |
| DB0UT-7 | 2026-08-31 01:54:03 | 50.89824 | 10.07432 | 59° | 88km/h | 8644m | -12.7m/s | -35.3°C | 71.4% | 336.8hPa | 2.5V | 00:00:00 | 00:00:00 | 00:00:00 | |
| DM0DOS-11 | 2026-08-31 01:54:01 | 50.89788 | 10.07339 | 58° | 91km/h | 8680m | -13.7m/s | -35.7°C | 70.5% | 335hPa | 2.5V | 01:54:00 | 03:21:12 | 00:00:00 | |
| BIOWL1-15 | 2026-08-31 01:54:01 | 50.89800 | 10.07370 | 58° | 91km/h | 8668m | -12.8m/s | -35.6°C | 76.7% | 0hPa | 2.5V | 01:54:36 | 03:21:13 | 00:00:00 | |
| DL1XH1-15 | 2026-08-31 01:54:00 | 50.89728 | 10.07184 | 58° | 91km/h | 8742m | -12.3m/s | -36.2°C | 65.9% | 332.1hPa | 2.5V | 01:54:05 | 03:21:07 | 00:00:00 | |
| DF8AY | 2026-08-31 01:53:59 | 50.89777 | 10.07309 | 59° | 89km/h | 8693m | -12.9m/s | -35.8°C | 75.9% | 334.4hPa | 2.4V | 01:54:36 | 03:21:11 | 00:00:00 | |
| DL1XH-west | 2026-08-31 01:53:57 | 50.89753 | 10.07246 | 58° | 91km/h | 8718m | -12.2m/s | -36°C | 74.2% | 333.2hPa | 2.4V | 01:54:36 | 03:21:09 | 00:00:00 | |
| DL1ZP-14 | 2026-08-31 01:53:56 | 50.89728 | 10.07184 | 58° | 91km/h | 8742m | -12.3m/s | -36.2°C | 63.2% | 332.1hPa | 2.5V | 00:00:00 | 00:00:00 | 00:00:00 | |
| DF7PN | 2026-08-31 01:53:52 | 50.89682 | 10.07062 | 61° | 86km/h | 8787m | -13.2m/s | -36.7°C | 63.7% | 329.6hPa | 2.4V | 00:00:00 | 00:00:00 | 00:00:00 | |
| DM0DOS-11 | 2026-08-31 01:53:51 | 50.89671 | 10.07031 | 62° | 88km/h | 8799m | -13.4m/s | -36.8°C | 67.3% | 328.9hPa | 2.4V | 01:54:10 | 03:21:02 | 00:00:00 | |
| HSKMA3-T | 2026-08-31 01:53:51 | 50.89682 | 10.07062 | 61° | 88km/h | 8787m | -13.2m/s | -36.7°C | 72.4% | 329.6hPa | 2.4V | 01:54:36 | 03:21:03 | 00:00:00 | |
| BIOWL1-15 | 2026-08-31 01:53:50 | 50.89671 | 10.07031 | 62° | 88km/h | 8799m | -13.4m/s | -36.8°C | 73.2% | 0hPa | 2.4V | 01:54:36 | 03:21:02 | 00:00:00 | |
| DF8AY | 2026-08-31 01:53:48 | 50.89651 | 10.06970 | 63° | 88km/h | 8824m | -14.1m/s | -37°C | 73.8% | 327.7hPa | 2.5V | 01:54:36 | 03:21:00 | 00:00:00 | |
| DL1XH-west | 2026-08-31 01:53:47 | 50.89641 | 10.06939 | 63° | 88km/h | 8837m | -14.3m/s | -37.1°C | 73.6% | 327.1hPa | 2.4V | 01:54:36 | 03:20:59 | 00:00:00 | |
| DB0NH | 2026-08-31 01:53:46 | 50.89631 | 10.06909 | 62° | 89km/h | 8851m | -14.4m/s | -37.2°C | 68.3% | 326.5hPa | 2.4V | 00:00:00 | 03:20:58 | 00:00:00 | |
| DL1NUX | 2026-08-31 01:53:43 | 50.89576 | 10.06758 | 60° | 84km/h | 8919m | -13.1m/s | -37.8°C | 64.5% | 323.5hPa | 2.4V | 01:54:19 | 03:20:53 | 00:00:00 | |
| HSKMA3-T | 2026-08-31 01:53:41 | 50.89576 | 10.06758 | 60° | 84km/h | 8919m | -13.1m/s | -37.8°C | 70.2% | 323.5hPa | 2.4V | 01:54:36 | 03:20:53 | 00:00:00 | |
| DL1XH1-15 | 2026-08-31 01:53:40 | 50.89508 | 10.06581 | 58° | 88km/h | 8997m | -13.7m/s | -38.6°C | 62.1% | 319.9hPa | 2.4V | 01:54:25 | 03:20:47 | 00:00:00 | |
| BIOWL1-15 | 2026-08-31 01:53:39 | 50.89554 | 10.06699 | 59° | 84km/h | 8945m | -12.8m/s | -38.1°C | 68.9% | 0hPa | 2.4V | 01:54:36 | 03:20:51 | 00:00:00 | |
| DF8AY | 2026-08-31 01:53:38 | 50.89543 | 10.06670 | 58° | 86km/h | 8957m | -12.6m/s | -38.2°C | 68.1% | 321.7hPa | 2.4V | 01:54:36 | 03:20:50 | 00:00:00 | |
| DL1XH-west | 2026-08-31 01:53:36 | 50.89520 | 10.06610 | 58° | 88km/h | 8984m | -13.3m/s | -38.4°C | 68.2% | 320.5hPa | 2.5V | 01:54:36 | 03:20:48 | 00:00:00 | |
| DL8DAS-15 | 2026-08-31 01:53:35 | 50.89508 | 10.06581 | 60° | 88km/h | 8997m | -13.7m/s | -38.6°C | 59.2% | 319.9hPa | 2.4V | 00:00:00 | 00:00:00 | 00:00:00 | |
| DB0UT-7 | 2026-08-31 01:53:33 | 50.89484 | 10.06521 | 58° | 93km/h | 9023m | -13.0m/s | -38.8°C | 61.0% | 318.6hPa | 2.4V | 01:54:00 | 03:20:45 | 00:00:00 | |
| DO3MHA-11 | 2026-08-31 01:53:32 | 50.89472 | 10.06490 | 57° | 91km/h | 9036m | -12.6m/s | -38.9°C | 61.4% | 318.0hPa | 2.4V | 01:54:00 | 03:20:44 | 00:00:00 | |
| DL8DAS-14 | 2026-08-31 01:53:31 | 50.89460 | 10.06461 | 56° | 88km/h | 9048m | -13.1m/s | -39.1°C | 58.7% | 317.5hPa | 2.4V | 00:00:00 | 00:00:00 | 00:00:00 | |
| DL1XH1-15 | 2026-08-31 01:53:30 | 50.89387 | 10.06276 | 57° | 91km/h | 9127m | -13.1m/s | -39.8°C | 59.6% | 313.9hPa | 2.4V | 01:54:35 | 03:20:37 | 00:00:00 | |
| HSKMA3-T | 2026-08-31 01:53:30 | 50.89448 | 10.06431 | 59° | 89km/h | 9062m | -13.7m/s | -39.2°C | 66.2% | 317hPa | 2.5V | 01:54:36 | 03:20:42 | 00:00:00 | |
| DF8AY | 2026-08-31 01:53:27 | 50.89412 | 10.06337 | 58° | 91km/h | 9101m | -13.2m/s | -39.5°C | 65.5% | 315.1hPa | 2.4V | 01:54:36 | 03:20:39 | 00:00:00 | |
| BIOWL1-15 | 2026-08-31 01:53:25 | 50.89338 | 10.06149 | 58° | 95km/h | 9181m | -13.1m/s | 0°C | 0% | 0hPa | 2.4V | 18:12:15 | 03:20:33 | 00:00:00 | |
| DL1XH-west | 2026-08-31 01:53:25 | 50.89387 | 10.06276 | 58° | 91km/h | 9127m | -13.1m/s | -39.8°C | 64.9% | 313.9hPa | 2.4V | 01:54:36 | 03:20:37 | 00:00:00 | |
| AM1SDL-15 | 2026-08-31 01:53:24 | 50.89375 | 10.06244 | 59° | 95km/h | 9140m | -13.8m/s | -39.8°C | 59.5% | 313.2hPa | 2.4V | 00:00:00 | 03:20:36 | 00:00:00 | |
| SO1NDE-10 | 2026-08-31 01:53:23 | 50.89362 | 10.06213 | 59° | 128km/h | 9154m | -13.6m/s | -39.9°C | 58.3% | 312.6hPa | 2.4V | 00:00:00 | 03:20:35 | 00:00:00 | |
| DM0DOS-11 | 2026-08-31 01:53:21 | 50.89325 | 10.06116 | 57° | 95km/h | 9194m | -12.9m/s | -40.4°C | 58.8% | 310.8hPa | 2.4V | 01:54:40 | 03:20:32 | 00:00:00 | |
| DK5PH-5 | 2026-08-31 01:53:21 | 50.89338 | 10.06149 | 58° | 99km/h | 9181m | -13.0m/s | -40.2°C | 58.7% | 311.4hPa | 2.4V | 00:00:00 | 03:20:33 | 00:00:00 | |
| DL1XH1-15 | 2026-08-31 01:53:20 | 50.89260 | 10.05956 | 57° | 95km/h | 9261m | -13.4m/s | -41°C | 58.2% | 307.9hPa | 2.4V | 01:54:45 | 03:20:27 | 00:00:00 | |
| HSKMA3-T | 2026-08-31 01:53:19 | 50.89312 | 10.06084 | 57° | 97km/h | 9207m | -13.6m/s | -40.5°C | 64.3% | 310.3hPa | 2.4V | 01:55:27 | 03:20:31 | 00:00:00 | |
| DF8AY | 2026-08-31 01:53:16 | 50.89273 | 10.05988 | 57° | 95km/h | 9248m | -13.9m/s | -40.8°C | 64% | 308.5hPa | 2.4V | 01:55:27 | 03:20:28 | 00:00:00 | |
| DL1XH-west | 2026-08-31 01:53:15 | 50.89261 | 10.05956 | 57° | 95km/h | 9261m | -13.4m/s | -41°C | 63.8% | 307.9hPa | 2.4V | 01:55:27 | 03:20:27 | 00:00:00 | |
| DJ2DS-15 | 2026-08-31 01:53:14 | 50.89248 | 10.05924 | 56° | 93km/h | 9275m | -13.6m/s | -41.1°C | 54.9% | 307.3hPa | 2.5V | 00:00:00 | 00:00:00 | 00:00:00 | |
| DM0DOS-11 | 2026-08-31 01:53:11 | 50.89195 | 10.05797 | 57° | 95km/h | 9329m | -13.7m/s | -41.5°C | 56.4% | 304.8hPa | 2.5V | 01:54:50 | 03:20:22 | 00:00:00 | |
| DF8AY | 2026-08-31 01:53:11 | 50.89142 | 10.05668 | 58° | 97km/h | 9383m | -13.2m/s | -41.9°C | 59.1% | 302.2hPa | 2.4V | 01:55:27 | 03:20:18 | 00:00:00 | |
| DL1XH1-15 | 2026-08-31 01:53:10 | 50.89129 | 10.05635 | 57° | 99km/h | 9396m | -13.3m/s | -42.1°C | 52.7% | 301.6hPa | 2.5V | 01:54:55 | 03:20:17 | 00:00:00 | |
| HSKMA3-T | 2026-08-31 01:53:08 | 50.89169 | 10.05733 | 58° | 95km/h | 9356m | -13.8m/s | -41.7°C | 60.7% | 303.5hPa | 2.4V | 01:55:27 | 03:20:20 | 00:00:00 | |
| BIOWL1-15 | 2026-08-31 01:53:05 | 50.89088 | 10.05535 | 56° | 100km/h | 9436m | -12.9m/s | 0°C | 0% | 0hPa | 2.4V | 18:12:15 | 03:20:14 | 00:00:00 | |
| DL1XH-west | 2026-08-31 01:53:04 | 50.89115 | 10.05602 | 57° | 99km/h | 9409m | -13.6m/s | -42.2°C | 56.5% | 301hPa | 2.5V | 01:55:27 | 03:20:16 | 00:00:00 | |
| NBG1-10 | 2026-08-31 01:53:04 | 50.89115 | 10.05602 | 58° | 111km/h | 9410m | -13.5m/s | -42.1°C | 51.3% | 301.0hPa | 2.4V | 01:54:00 | 03:20:16 | 00:00:00 | |
| DB0UT-7 | 2026-08-31 01:53:03 | 50.89102 | 10.05569 | 57° | 113km/h | 9423m | -13.4m/s | -42.2°C | 49.6% | 300.4hPa | 2.4V | 00:00:00 | 00:00:00 | 00:00:00 | |
| DO3MHA-11 | 2026-08-31 01:53:02 | 50.89088 | 10.05535 | 56° | 106km/h | 9436m | -12.8m/s | -42.3°C | 47.7% | 299.8hPa | 2.5V | 00:00:00 | 03:20:14 | 00:00:00 | |
| DL1NUX | 2026-08-31 01:53:01 | 50.89044 | 10.05434 | 54° | 104km/h | 9474m | -13.2m/s | -42.6°C | 41.4% | 298.1hPa | 2.5V | 01:55:01 | 03:20:11 | 00:00:00 | |
| DL1XH1-15 | 2026-08-31 01:53:00 | 50.88984 | 10.05295 | 54° | 108km/h | 9527m | -13m/s | -43°C | 34.4% | 295.9hPa | 2.4V | 01:55:05 | 03:20:07 | 00:00:00 | |
| HSKMA3-T | 2026-08-31 01:52:57 | 50.89014 | 10.05365 | 55° | 106km/h | 9501m | -12.8m/s | -42.8°C | 43.2% | 297.1hPa | 2.4V | 01:55:27 | 03:20:09 | 00:00:00 | |
| DF8AY | 2026-08-31 01:52:56 | 50.88999 | 10.05330 | 55° | 106km/h | 9514m | -12.8m/s | -42.9°C | 41.1% | 296.5hPa | 2.4V | 01:55:27 | 03:20:08 | 00:00:00 | |
| DL1XH-west | 2026-08-31 01:52:53 | 50.88953 | 10.05223 | 55° | 111km/h | 9553m | -13.3m/s | -43.2°C | 35.1% | 294.6hPa | 2.4V | 01:55:27 | 03:20:05 | 00:00:00 | |
| DM0DOS-11 | 2026-08-31 01:52:51 | 50.88905 | 10.05115 | 55° | 110km/h | 9594m | -13.2m/s | -43.5°C | 27.2% | 293hPa | 2.4V | 01:55:10 | 03:20:02 | 00:00:00 | |
| DK5PH-5 | 2026-08-31 01:52:51 | 50.88921 | 10.05151 | 56° | 122km/h | 9580m | -13.7m/s | -43.4°C | 28.6% | 293.5hPa | 2.5V | 01:55:00 | 03:20:03 | 00:00:00 | |
| DL1XH1-15 | 2026-08-31 01:52:50 | 50.88825 | 10.04929 | 57° | 113km/h | 9662m | -14.5m/s | -44.1°C | 25.8% | 290hPa | 2.5V | 01:55:15 | 03:19:57 | 00:00:00 | |
| HSKMA3-T | 2026-08-31 01:52:47 | 50.88857 | 10.05004 | 55° | 111km/h | 9635m | -13.4m/s | -43.9°C | 30.4% | 291.2hPa | 2.4V | 01:55:27 | 03:19:59 | 00:00:00 | |
| DF8AY | 2026-08-31 01:52:45 | 50.88825 | 10.04929 | 57° | 113km/h | 9662m | -14.5m/s | -44.2°C | 29.8% | 290hPa | 2.5V | 01:55:27 | 03:19:57 | 00:00:00 | |
| DL1CLM-18 | 2026-08-31 01:52:44 | 50.88825 | 10.04929 | 58° | 113km/h | 9662m | -14.5m/s | -44.2°C | 23.2% | 290.0hPa | 2.5V | 00:00:00 | 00:00:00 | 00:00:00 | |
| DL4BBY-15 | 2026-08-31 01:52:43 | 50.88794 | 10.04854 | 56° | 128km/h | 9690m | -13.2m/s | -45.3°C | 0% | 0hPa | 2.5V | 00:00:00 | 00:00:00 | 00:00:00 | |
| DL1XH-west | 2026-08-31 01:52:43 | 50.88794 | 10.04854 | 56° | 111km/h | 9690m | -13.3m/s | -44.3°C | 29.2% | 288.9hPa | 2.4V | 01:55:27 | 03:19:55 | 00:00:00 | |
| DM0DOS-11 | 2026-08-31 01:52:41 | 50.88744 | 10.04741 | 55° | 117km/h | 9730m | -14.7m/s | -44.7°C | 25.4% | 287.1hPa | 2.5V | 01:55:20 | 03:19:52 | 00:00:00 | |
| DL1XH1-15 | 2026-08-31 01:52:40 | 50.88656 | 10.04550 | 53° | 120km/h | 9798m | -12.7m/s | -45.2°C | 25.2% | 284.2hPa | 2.4V | 01:55:25 | 03:19:47 | 00:00:00 | |
| HSKMA3-T | 2026-08-31 01:52:36 | 50.88674 | 10.04589 | 53° | 120km/h | 9785m | -13m/s | -45.2°C | 29.3% | 284.8hPa | 2.4V | 01:55:27 | 03:19:48 | 00:00:00 | |
| DF8AY | 2026-08-31 01:52:34 | 50.88638 | 10.04511 | 53° | 124km/h | 9810m | -13.1m/s | -45.3°C | 28.9% | 283.6hPa | 2.4V | 01:55:27 | 03:19:46 | 00:00:00 | |
| DL1XH-west | 2026-08-31 01:52:33 | 50.88618 | 10.04472 | 53° | 128km/h | 9823m | -13.4m/s | -45.2°C | 28.6% | 283hPa | 2.5V | 01:55:27 | 03:19:45 | 00:00:00 | |
| DO3MHA-11 | 2026-08-31 01:52:32 | 50.88599 | 10.04432 | 54° | 131km/h | 9837m | -14.2m/s | -45.3°C | 24.3% | 282.4hPa | 2.4V | 01:55:00 | 03:19:44 | 00:00:00 | |
| NBG1-10 | 2026-08-31 01:52:31 | 50.88580 | 10.04391 | 55° | 137km/h | 9851m | -14.3m/s | -45.4°C | 23.9% | 281.9hPa | 2.4V | 00:00:00 | 03:19:43 | 00:00:00 | |
| DL1XH1-15 | 2026-08-31 01:52:30 | 50.88461 | 10.04139 | 55° | 131km/h | 9937m | -14.6m/s | -45.8°C | 24.3% | 278.4hPa | 2.4V | 01:55:35 | 03:19:37 | 00:00:00 | |
| BIOWL1-15 | 2026-08-31 01:52:27 | 50.88500 | 10.04225 | 55° | 133km/h | 9908m | -14.8m/s | 0°C | 0% | 0hPa | 2.5V | 18:12:15 | 03:19:39 | 00:00:00 | |
| HSKMA3-T | 2026-08-31 01:52:26 | 50.88480 | 10.04183 | 55° | 131km/h | 9923m | -14.4m/s | -45.7°C | 28% | 279hPa | 2.5V | 01:56:18 | 03:19:38 | 00:00:00 | |
| DF8AY | 2026-08-31 01:52:23 | 50.88422 | 10.04055 | 55° | 131km/h | 9966m | -14.7m/s | -46°C | 28.7% | 277.3hPa | 2.4V | 01:56:18 | 03:19:35 | 00:00:00 | |
| DL1XH-west | 2026-08-31 01:52:22 | 50.88403 | 10.04012 | 55° | 133km/h | 9980m | -14.8m/s | -46°C | 28.8% | 276.7hPa | 2.4V | 01:56:18 | 03:19:34 | 00:00:00 | |
| DM0DOS-11 | 2026-08-31 01:52:21 | 50.88364 | 10.03927 | 52° | 135km/h | 10009m | -14.1m/s | -46°C | 25% | 275.6hPa | 2.5V | 01:55:40 | 03:19:32 | 00:00:00 | |
| DK5PH-5 | 2026-08-31 01:52:21 | 50.88384 | 10.03969 | 54° | 142km/h | 9995m | -14.4m/s | -45.9°C | 24.7% | 276.1hPa | 2.4V | 00:00:00 | 03:19:33 | 00:00:00 | |
| DL1XH1-15 | 2026-08-31 01:52:20 | 50.88258 | 10.03710 | 53° | 137km/h | 10078m | -14.3m/s | -46.5°C | 27.5% | 272.6hPa | 2.4V | 01:55:45 | 03:19:27 | 00:00:00 | |
| HSKMA3-T | 2026-08-31 01:52:15 | 50.88258 | 10.03710 | 54° | 137km/h | 10078m | -14.3m/s | -46.5°C | 32.6% | 272.6hPa | 2.4V | 01:56:18 | 03:19:27 | 00:00:00 | |
| DF8AY | 2026-08-31 01:52:13 | 50.88216 | 10.03621 | 54° | 142km/h | 10106m | -13.7m/s | -46.7°C | 34% | 271.4hPa | 2.5V | 01:56:18 | 03:19:25 | 00:00:00 | |
| DL1XH-west | 2026-08-31 01:52:12 | 50.88195 | 10.03575 | 54° | 141km/h | 10120m | -15.1m/s | -46.8°C | 34.6% | 270.9hPa | 2.4V | 01:56:18 | 03:19:24 | 00:00:00 | |
| DO3MHA-11 | 2026-08-31 01:52:12 | 50.88195 | 10.03575 | 54° | 141km/h | 10120m | -15.0m/s | -46.8°C | 29.5% | 270.9hPa | 2.4V | 01:55:00 | 03:19:24 | 00:00:00 | |
| DL1XH1-15 | 2026-08-31 01:52:10 | 50.88046 | 10.03255 | 54° | 141km/h | 10220m | -14.1m/s | -47.5°C | 32.3% | 267hPa | 2.4V | 01:55:55 | 03:19:17 | 00:00:00 | |
| HSKMA3-T | 2026-08-31 01:52:04 | 50.88026 | 10.03209 | 55° | 141km/h | 10233m | -13.3m/s | -47.7°C | 37.6% | 266.5hPa | 2.4V | 01:56:18 | 03:19:16 | 00:00:00 | |
| DF8AY | 2026-08-31 01:52:03 | 50.88005 | 10.03164 | 54° | 141km/h | 10246m | -12.6m/s | -47.8°C | 37.7% | 266hPa | 2.4V | 01:56:18 | 03:19:15 | 00:00:00 | |
| DL1XH-west | 2026-08-31 01:52:02 | 50.87984 | 10.03118 | 53° | 142km/h | 10259m | -13.7m/s | -47.9°C | 37.7% | 265.5hPa | 2.4V | 01:56:18 | 03:19:14 | 00:00:00 | |
| DM0DOS-11 | 2026-08-31 01:52:01 | 50.87941 | 10.03026 | 54° | 142km/h | 10287m | -14.4m/s | -48°C | 32.7% | 264.3hPa | 2.5V | 01:56:00 | 03:19:12 | 00:00:00 | |
| BIOWL1-15 | 2026-08-31 01:51:57 | 50.87831 | 10.02794 | 52° | 148km/h | 10356m | -12.9m/s | 0°C | 0% | 0hPa | 2.4V | 18:12:15 | 03:19:07 | 00:00:00 | |
| HSKMA3-T | 2026-08-31 01:51:54 | 50.87809 | 10.02747 | 52° | 148km/h | 10369m | -13m/s | -48.6°C | 38.6% | 261hPa | 2.5V | 01:56:18 | 03:19:06 | 00:00:00 | |
| DF8AY | 2026-08-31 01:51:52 | 50.87763 | 10.02654 | 52° | 144km/h | 10394m | -13.3m/s | -48.8°C | 38.8% | 259.9hPa | 2.4V | 01:56:18 | 03:19:04 | 00:00:00 | |
| DL3AQ-11 | 2026-08-31 01:51:52 | 50.87740 | 10.02608 | 52° | 146km/h | 10407m | -13.5m/s | -49.0°C | 30.1% | 259.4hPa | 2.4V | 00:00:00 | 00:00:00 | 00:00:00 | |
| DM0DOS-11 | 2026-08-31 01:51:51 | 50.87717 | 10.02562 | 53° | 146km/h | 10422m | -14.4m/s | -49.1°C | 33.8% | 258.9hPa | 2.4V | 01:56:10 | 03:19:02 | 00:00:00 | |
| DL1XH-west | 2026-08-31 01:51:51 | 50.87740 | 10.02608 | 52° | 146km/h | 10408m | -13.5m/s | -49°C | 39% | 259.4hPa | 2.4V | 01:56:18 | 03:19:03 | 00:00:00 | |
| DF7PN | 2026-08-31 01:51:48 | 50.87650 | 10.02421 | 52° | 148km/h | 10464m | -15.3m/s | -49.5°C | 30.8% | 257.2hPa | 2.4V | 00:00:00 | 00:00:00 | 00:00:00 | |
| HSKMA3-T | 2026-08-31 01:51:44 | 50.87580 | 10.02278 | 51° | 151km/h | 10507m | -13.1m/s | -49.7°C | 39.7% | 255.6hPa | 2.4V | 01:56:18 | 03:18:56 | 00:00:00 | |
| DL1XH-15 | 2026-08-31 01:51:42 | 50.87439 | 10.01994 | 52° | 151km/h | 10584m | -15.3m/s | -50.3°C | 34.6% | 252.3hPa | 2.4V | 01:56:22 | 03:18:50 | 00:00:00 | |
| DM0DOS-11 | 2026-08-31 01:51:41 | 50.87486 | 10.02090 | 52° | 150km/h | 10557m | -14.2m/s | -50.1°C | 34.6% | 253.4hPa | 2.5V | 01:56:20 | 03:18:52 | 00:00:00 | |
| DF8AY | 2026-08-31 01:51:41 | 50.87509 | 10.02138 | 52° | 150km/h | 10544m | -14m/s | -50°C | 39.7% | 253.9hPa | 2.5V | 01:57:09 | 03:18:53 | 00:00:00 | |
| DJ2KF-10 | 2026-08-31 01:51:41 | 50.87509 | 10.02138 | 53° | 157km/h | 10544m | -14.0m/s | -50.0°C | 34.5% | 253.9hPa | 2.5V | 01:56:00 | 03:18:53 | 00:00:00 | |
| DL1XH1-15 | 2026-08-31 01:51:40 | 50.87370 | 10.01849 | 52° | 150km/h | 10628m | -13.1m/s | -50.8°C | 34.8% | 250.7hPa | 2.5V | 01:56:25 | 03:18:47 | 00:00:00 | |
| DL1XH-west | 2026-08-31 01:51:40 | 50.87486 | 10.02090 | 53° | 150km/h | 10557m | -14.2m/s | -50.1°C | 39.8% | 253.4hPa | 2.5V | 01:57:09 | 03:18:52 | 00:00:00 | |
| HSKMA3-T | 2026-08-31 01:51:33 | 50.87322 | 10.01752 | 53° | 155km/h | 10655m | -14m/s | -51°C | 39.8% | 249.5hPa | 2.4V | 01:57:09 | 03:18:45 | 00:00:00 | |
| DL1XH-15 | 2026-08-31 01:51:32 | 50.87204 | 10.01507 | 53° | 157km/h | 10729m | -16.2m/s | -51.4°C | 35.8% | 246.8hPa | 2.5V | 01:56:32 | 03:18:40 | 00:00:00 | |
| DL1NUX | 2026-08-31 01:51:32 | 50.87274 | 10.01655 | 52° | 155km/h | 10684m | -14.4m/s | -51°C | 34.6% | 248.4hPa | 2.4V | 01:56:29 | 03:18:43 | 00:00:00 | |
| DM0DOS-11 | 2026-08-31 01:51:31 | 50.87251 | 10.01606 | 53° | 151km/h | 10698m | -15.2m/s | -51.1°C | 35.1% | 247.8hPa | 2.4V | 01:56:30 | 03:18:42 | 00:00:00 | |
| DF8AY | 2026-08-31 01:51:31 | 50.87274 | 10.01655 | 52° | 155km/h | 10684m | -14.4m/s | -51°C | 39.9% | 248.4hPa | 2.4V | 01:57:09 | 03:18:43 | 00:00:00 | |
| DL1XH-west | 2026-08-31 01:51:30 | 50.87251 | 10.01606 | 53° | 151km/h | 10698m | -15.2m/s | -51.2°C | 40.3% | 247.8hPa | 2.4V | 01:57:09 | 03:18:42 | 00:00:00 | |
| DB0UT-7 | 2026-08-31 01:51:30 | 50.87251 | 10.01606 | 54° | 155km/h | 10698m | -15.1m/s | -51.1°C | 35.1% | 247.8hPa | 2.4V | 01:56:00 | 03:18:42 | 00:00:00 | |
| DL8DAS-14 | 2026-08-31 01:51:27 | 50.87157 | 10.01407 | 52° | 153km/h | 10760m | -15.1m/s | -51.6°C | 32.2% | 245.7hPa | 2.4V | 00:00:00 | 00:00:00 | 00:00:00 | |
| SONCRA | 2026-08-31 01:51:26 | 50.87157 | 10.01407 | 52° | 153km/h | 10760m | -15.1m/s | -51.6°C | 32.2% | 245.7hPa | 2.4V | 00:00:00 | 00:00:00 | 00:00:00 | |
| AM1SDL-15 | 2026-08-31 01:51:24 | 50.87110 | 10.01308 | 55° | 159km/h | 10791m | -15.7m/s | -51.8°C | 36.5% | 244.5hPa | 2.4V | 00:00:00 | 03:18:36 | 00:00:00 | |
| DL3AQ-11 | 2026-08-31 01:51:23 | 50.87064 | 10.01209 | 53° | 155km/h | 10821m | -16.1m/s | -52.1°C | 32.0% | 243.4hPa | 2.4V | 00:00:00 | 00:00:00 | 00:00:00 | |
| DL1NUX | 2026-08-31 01:51:22 | 50.86974 | 10.01004 | 56° | 159km/h | 10886m | -17.4m/s | -52.5°C | 34.9% | 241.1hPa | 2.4V | 01:56:42 | 03:18:30 | 00:00:00 | |
| HSKMA3-T | 2026-08-31 01:51:22 | 50.87064 | 10.01209 | 54° | 155km/h | 10821m | -16.1m/s | -52.1°C | 40.9% | 243.4hPa | 2.5V | 01:57:09 | 03:18:34 | 00:00:00 | |
| DM0DOS-11 | 2026-08-31 01:51:21 | 50.87019 | 10.01108 | 54° | 155km/h | 10853m | -16.3m/s | -52.3°C | 35.4% | 242.3hPa | 2.4V | 01:56:40 | 03:18:32 | 00:00:00 | |
| DF8AY | 2026-08-31 01:51:21 | 50.87042 | 10.01159 | 56° | 155km/h | 10837m | -15.3m/s | -52.2°C | 40.5% | 242.7hPa | 2.5V | 01:57:09 | 03:18:33 | 00:00:00 | |
| DL1XH-west | 2026-08-31 01:51:19 | 50.86997 | 10.01056 | 55° | 161km/h | 10869m | -14.9m/s | -52.4°C | 39.7% | 241.6hPa | 2.4V | 01:57:09 | 03:18:31 | 00:00:00 | |
| NBG1-10 | 2026-08-31 01:51:19 | 50.86997 | 10.01056 | 56° | 164km/h | 10870m | -14.9m/s | -52.4°C | 35.3% | 241.6hPa | 2.5V | 00:00:00 | 03:18:31 | 00:00:00 | |
| DF7PN | 2026-08-31 01:51:17 | 50.86928 | 10.00898 | 55° | 164km/h | 10919m | -15.2m/s | -52.7°C | 30.1% | 239.8hPa | 2.5V | 00:00:00 | 00:00:00 | 00:00:00 | |
| DB0NH | 2026-08-31 01:51:16 | 50.86928 | 10.00898 | 56° | 164km/h | 10919m | -15.2m/s | -52.7°C | 34.3% | 239.7hPa | 2.5V | 01:56:00 | 03:18:28 | 00:00:00 | |
| DC4HF-4 | 2026-08-31 01:51:15 | 50.86881 | 10.00789 | 56° | 166km/h | 10950m | -15.6m/s | -52.9°C | 29.8% | 238.6hPa | 2.5V | 00:00:00 | 00:00:00 | 00:00:00 | |
| DL1NUX | 2026-08-31 01:51:12 | 50.86743 | 10.00456 | 55° | 166km/h | 11045m | -14.7m/s | -53.4°C | 32.8% | 235.3hPa | 2.5V | 01:56:52 | 03:18:20 | 00:00:00 | |
| DM0DOS-11 | 2026-08-31 01:51:11 | 50.86789 | 10.00566 | 56° | 166km/h | 11015m | -15.7m/s | -53.3°C | 33.1% | 236.4hPa | 2.4V | 01:56:50 | 03:18:22 | 00:00:00 | |
| HSKMA3-T | 2026-08-31 01:51:11 | 50.86812 | 10.00621 | 57° | 166km/h | 10998m | -16.2m/s | -53.1°C | 37.3% | 237hPa | 2.4V | 01:57:09 | 03:18:23 | 00:00:00 | |
| DL1XH1-15 | 2026-08-31 01:51:10 | 50.86672 | 10.00294 | 54° | 162km/h | 11091m | -14.6m/s | -53.8°C | 32.5% | 233.6hPa | 2.4V | 01:56:55 | 03:18:17 | 00:00:00 | |
| DF8AY | 2026-08-31 01:51:10 | 50.86789 | 10.00566 | 57° | 166km/h | 11015m | -15.7m/s | -53.3°C | 37.1% | 236.4hPa | 2.4V | 01:57:09 | 03:18:22 | 00:00:00 | |
| DL1XH-west | 2026-08-31 01:51:08 | 50.86743 | 10.00456 | 56° | 166km/h | 11046m | -14.7m/s | -53.4°C | 36.7% | 235.3hPa | 2.5V | 01:57:09 | 03:18:20 | 00:00:00 | |
| DO9LL-15 | 2026-08-31 01:51:07 | 50.86719 | 10.00401 | 56° | 166km/h | 11061m | -14.5m/s | -53.5°C | 32.7% | 234.6hPa | 2.4V | 01:56:00 | 03:18:19 | 00:00:00 | |
| DO8TBO-1 | 2026-08-31 01:51:06 | 50.86696 | 10.00347 | 55° | 164km/h | 11076m | -15.1m/s | -53.7°C | 32.6% | 234.1hPa | 2.4V | 00:00:00 | 03:18:18 | 00:00:00 | |
| DL1XH-15 | 2026-08-31 01:51:02 | 50.86510 | 9.99929 | 57° | 161km/h | 11198m | -16m/s | -54.3°C | 30.8% | 229.9hPa | 2.4V | 01:57:02 | 03:18:10 | 00:00:00 | |
| DM0DOS-11 | 2026-08-31 01:51:01 | 50.86555 | 10.00034 | 55° | 157km/h | 11166m | -14.8m/s | -54.3°C | 31.5% | 230.9hPa | 2.4V | 01:57:00 | 03:18:12 | 00:00:00 | |
| DL1XH1-15 | 2026-08-31 01:51:00 | 50.86442 | 9.99764 | 56° | 168km/h | 11246m | -16.4m/s | -54.3°C | 29.8% | 228.3hPa | 2.4V | 01:57:05 | 03:18:07 | 00:00:00 | |
| HSKMA3-T | 2026-08-31 01:51:00 | 50.86555 | 10.00034 | 55° | 157km/h | 11166m | -14.8m/s | -54.3°C | 34.4% | 230.9hPa | 2.4V | 01:57:09 | 03:18:12 | 00:00:00 | |
| DF8AY | 2026-08-31 01:50:59 | 50.86532 | 9.99982 | 57° | 159km/h | 11182m | -15.3m/s | -54.3°C | 34.2% | 230.4hPa | 2.4V | 01:57:09 | 03:18:11 | 00:00:00 | |
| DL1XH-west | 2026-08-31 01:50:57 | 50.86488 | 9.99875 | 57° | 166km/h | 11214m | -16.5m/s | -54.4°C | 33.5% | 229.3hPa | 2.5V | 01:57:09 | 03:18:09 | 00:00:00 | |
| DL3AQ-11 | 2026-08-31 01:50:56 | 50.86442 | 9.99764 | 56° | 168km/h | 11246m | -16.4m/s | -54.3°C | 25.5% | 228.3hPa | 2.4V | 00:00:00 | 00:00:00 | 00:00:00 | |
| SONCRA | 2026-08-31 01:50:55 | 50.86442 | 9.99764 | 56° | 168km/h | 11246m | -16.4m/s | -54.3°C | 25.5% | 228.3hPa | 2.4V | 00:00:00 | 00:00:00 | 00:00:00 | |
| DJTTGO | 2026-08-31 01:50:54 | 50.86442 | 9.99764 | 57° | 168km/h | 11246m | -16.4m/s | -54.3°C | 25.5% | 228.3hPa | 2.4V | 00:00:00 | 00:00:00 | 00:00:00 | |
| DL1XH-15 | 2026-08-31 01:50:52 | 50.86255 | 9.99316 | 58° | 164km/h | 11365m | -15m/s | -54.9°C | 28.3% | 223.8hPa | 2.4V | 01:57:13 | 03:17:59 | 00:00:00 | |
| DM0DOS-11 | 2026-08-31 01:50:51 | 50.86323 | 9.99484 | 56° | 166km/h | 11321m | -14.5m/s | -54.6°C | 29.2% | 225.5hPa | 2.5V | 01:57:10 | 03:18:02 | 00:00:00 | |
| DK5PH-5 | 2026-08-31 01:50:51 | 50.86347 | 9.99540 | 56° | 170km/h | 11307m | -14.4m/s | -54.5°C | 29.4% | 226.0hPa | 2.4V | 01:57:00 | 03:18:03 | 00:00:00 | |
| DL1XH1-15 | 2026-08-31 01:50:50 | 50.86212 | 9.99203 | 59° | 168km/h | 11396m | -17.2m/s | -55.1°C | 27.6% | 222.7hPa | 2.4V | 01:57:15 | 03:17:57 | 00:00:00 | |
| HSKMA3-T | 2026-08-31 01:50:49 | 50.86300 | 9.99428 | 57° | 166km/h | 11336m | -15m/s | -54.7°C | 31.7% | 225hPa | 2.5V | 01:58:00 | 03:18:01 | 00:00:00 | |
| DL1XH-west | 2026-08-31 01:50:46 | 50.86233 | 9.99260 | 59° | 166km/h | 11380m | -17.4m/s | -55°C | 30.4% | 223.3hPa | 2.4V | 01:58:00 | 03:17:58 | 00:00:00 | |
| DB0NH | 2026-08-31 01:50:46 | 50.86233 | 9.99260 | 59° | 173km/h | 11380m | -17.3m/s | -54.9°C | 28.1% | 223.2hPa | 2.4V | 00:00:00 | 03:17:58 | 00:00:00 | |
| DL0LBS | 2026-08-31 01:50:45 | 50.86233 | 9.99260 | 60° | 166km/h | 11380m | -17.4m/s | -55.0°C | 23.8% | 223.3hPa | 2.5V | 01:58:00 | 00:00:00 | 00:00:00 | |
| DL3AQ-11 | 2026-08-31 01:50:43 | 50.86146 | 9.99030 | 58° | 170km/h | 11446m | -16.2m/s | -55.3°C | 21.6% | 221.1hPa | 2.5V | 00:00:00 | 00:00:00 | 00:00:00 | |
| DL1XH-15 | 2026-08-31 01:50:42 | 50.86034 | 9.98745 | 58° | 166km/h | 11522m | -15.3m/s | -55.5°C | 22.2% | 218.3hPa | 2.5V | 01:57:23 | 03:17:49 | 00:00:00 | |
| DL1NUX | 2026-08-31 01:50:42 | 50.86056 | 9.98801 | 58° | 166km/h | 11507m | -15.6m/s | -55.4°C | 22.7% | 218.9hPa | 2.4V | 01:57:22 | 03:17:50 | 00:00:00 | |
| DO3MHA-11 | 2026-08-31 01:50:42 | 50.86146 | 9.99030 | 59° | 168km/h | 11446m | -16.2m/s | -55.2°C | 25.9% | 221.0hPa | 2.4V | 00:00:00 | 03:17:54 | 00:00:00 | |
| DJ2KF-10 | 2026-08-31 01:50:41 | 50.86123 | 9.98972 | 58° | 173km/h | 11462m | -15.4m/s | -55.2°C | 25.0% | 220.5hPa | 2.4V | 01:57:00 | 03:17:53 | 00:00:00 | |
| DL1XH1-15 | 2026-08-31 01:50:40 | 50.85990 | 9.98631 | 59° | 168km/h | 11552m | -16.6m/s | -55.7°C | 21.3% | 217.2hPa | 2.4V | 01:57:25 | 03:17:47 | 00:00:00 | |
| DF8AY | 2026-08-31 01:50:40 | 50.86078 | 9.98858 | 58° | 166km/h | 11492m | -15.5m/s | -55.3°C | 25% | 219.5hPa | 2.4V | 01:58:00 | 03:17:51 | 00:00:00 | |
| HSKMA3-T | 2026-08-31 01:50:38 | 50.86056 | 9.98801 | 58° | 166km/h | 11507m | -15.6m/s | -55.4°C | 24.2% | 218.9hPa | 2.4V | 01:58:00 | 03:17:50 | 00:00:00 | |
| DL1XH-west | 2026-08-31 01:50:36 | 50.86012 | 9.98689 | 59° | 166km/h | 11537m | -16.1m/s | -55.6°C | 22.9% | 217.8hPa | 2.5V | 01:58:00 | 03:17:48 | 00:00:00 | |
| DL4BBY-15 | 2026-08-31 01:50:33 | 50.85945 | 9.98515 | 59° | 179km/h | 11584m | -16.0m/s | -56.7°C | 0% | 0hPa | 2.4V | 00:00:00 | 00:00:00 | 00:00:00 | |
| DL1XH-15 | 2026-08-31 01:50:32 | 50.85810 | 9.98166 | 58° | 173km/h | 11675m | -15.8m/s | -55.8°C | 16.9% | 213.1hPa | 2.4V | 01:57:33 | 03:17:39 | 00:00:00 | |
| DM0DOS-11 | 2026-08-31 01:50:31 | 50.85878 | 9.98341 | 58° | 170km/h | 11628m | -15.8m/s | -55.7°C | 18.2% | 214.7hPa | 2.5V | 01:57:30 | 03:17:42 | 00:00:00 | |
| DL1XH1-15 | 2026-08-31 01:50:30 | 50.85764 | 9.98047 | 57° | 177km/h | 11705m | -15m/s | -55.7°C | 15.9% | 211.9hPa | 2.5V | 01:57:35 | 03:17:37 | 00:00:00 | |
| DF8AY | 2026-08-31 01:50:29 | 50.85855 | 9.98283 | 59° | 172km/h | 11644m | -16.4m/s | -55.8°C | 18.2% | 214.1hPa | 2.4V | 01:58:00 | 03:17:41 | 00:00:00 | |
| HSKMA3-T | 2026-08-31 01:50:28 | 50.85833 | 9.98224 | 59° | 172km/h | 11660m | -15.1m/s | -55.8°C | 17.7% | 213.6hPa | 2.4V | 01:58:00 | 03:17:40 | 00:00:00 | |
| DL1XH-west | 2026-08-31 01:50:25 | 50.85763 | 9.98047 | 58° | 177km/h | 11705m | -15m/s | -55.7°C | 15.9% | 212hPa | 2.5V | 01:58:00 | 03:17:37 | 00:00:00 | |
| SONCRA | 2026-08-31 01:50:24 | 50.85740 | 9.97987 | 58° | 177km/h | 11720m | -16.3m/s | -55.7°C | 11.9% | 211.4hPa | 2.5V | 00:00:00 | 00:00:00 | 00:00:00 | |
| DL1XH-15 | 2026-08-31 01:50:22 | 50.85577 | 9.97553 | 59° | 184km/h | 11832m | -15.8m/s | -55.6°C | 13.2% | 207.8hPa | 2.5V | 01:57:43 | 03:17:29 | 00:00:00 | |
| DM0DOS-11 | 2026-08-31 01:50:21 | 50.85647 | 9.97742 | 58° | 183km/h | 11784m | -16.4m/s | -55.7°C | 14.1% | 209.4hPa | 2.4V | 01:57:40 | 03:17:32 | 00:00:00 | |
| DK5PH-5 | 2026-08-31 01:50:21 | 50.85671 | 9.97804 | 60° | 177km/h | 11768m | -15.7m/s | -55.7°C | 14.5% | 209.8hPa | 2.4V | 00:00:00 | 03:17:33 | 00:00:00 | |
| DL1XH1-15 | 2026-08-31 01:50:20 | 50.85529 | 9.97427 | 58° | 184km/h | 11863m | -15.1m/s | -55.5°C | 12.5% | 206.8hPa | 2.4V | 01:57:45 | 03:17:27 | 00:00:00 | |
| DF8AY | 2026-08-31 01:50:19 | 50.85624 | 9.97680 | 59° | 183km/h | 11800m | -16.2m/s | -55.6°C | 13.2% | 208.8hPa | 2.4V | 01:58:00 | 03:17:31 | 00:00:00 | |
| HSKMA3-T | 2026-08-31 01:50:17 | 50.85576 | 9.97553 | 60° | 184km/h | 11832m | -15.8m/s | -55.7°C | 12.5% | 207.8hPa | 2.5V | 01:58:00 | 03:17:29 | 00:00:00 | |
| DL1XH-west | 2026-08-31 01:50:14 | 50.85505 | 9.97364 | 59° | 183km/h | 11878m | -14.3m/s | -55.5°C | 11.3% | 206.3hPa | 2.4V | 01:58:00 | 03:17:26 | 00:00:00 | |
| NBG1-10 | 2026-08-31 01:50:13 | 50.85482 | 9.97300 | 59° | 170km/h | 11894m | -14.5m/s | -55.6°C | 12.1% | 205.8hPa | 2.4V | 00:00:00 | 03:17:25 | 00:00:00 | |
| DL1XH-15 | 2026-08-31 01:50:12 | 50.85342 | 9.96926 | 59° | 177km/h | 11983m | -14.6m/s | -55.6°C | 10.7% | 202.9hPa | 2.4V | 01:57:53 | 03:17:19 | 00:00:00 | |
| DM0DOS-11 | 2026-08-31 01:50:11 | 50.85410 | 9.97112 | 59° | 179km/h | 11937m | -14.4m/s | -55.6°C | 11.4% | 204.4hPa | 2.4V | 01:57:50 | 03:17:22 | 00:00:00 | |
| DL1XH1-15 | 2026-08-31 01:50:10 | 50.85297 | 9.96804 | 58° | 175km/h | 12012m | -15.7m/s | -55.6°C | 10.1% | 202hPa | 2.5V | 01:57:55 | 03:17:17 | 00:00:00 | |
| DF8AY | 2026-08-31 01:50:08 | 50.85365 | 9.96987 | 60° | 179km/h | 11968m | -14.8m/s | -55.5°C | 9.1% | 203.5hPa | 2.4V | 01:58:00 | 03:17:20 | 00:00:00 | |
| HSKMA3-T | 2026-08-31 01:50:07 | 50.85342 | 9.96926 | 59° | 177km/h | 11983m | -14.6m/s | -55.6°C | 8.8% | 202.9hPa | 2.4V | 01:58:00 | 03:17:19 | 00:00:00 | |
| DL1XH-west | 2026-08-31 01:50:03 | 50.85251 | 9.96683 | 59° | 175km/h | 12043m | -16m/s | -55.2°C | 7.3% | 201hPa | 2.4V | 01:58:00 | 03:17:15 | 00:00:00 | |
| DC4HF-4 | 2026-08-31 01:50:03 | 50.85229 | 9.96623 | 60° | 172km/h | 12059m | -16.5m/s | -55.2°C | 5.8% | 200.5hPa | 2.4V | 00:00:00 | 00:00:00 | 00:00:00 | |
| DL1XH-15 | 2026-08-31 01:50:02 | 50.85122 | 9.96324 | 61° | 170km/h | 12149m | -15.7m/s | -54.9°C | 8% | 197.7hPa | 2.4V | 01:58:03 | 03:17:09 | 00:00:00 | |
| DM0DOS-11 | 2026-08-31 01:50:01 | 50.85185 | 9.96502 | 60° | 173km/h | 12093m | -17m/s | -55.3°C | 8.6% | 199.5hPa | 2.4V | 01:58:00 | 03:17:12 | 00:00:00 | |
| DL1XH1-15 | 2026-08-31 01:50:00 | 50.85082 | 9.96205 | 61° | 170km/h | 12185m | -19.5m/s | -54.4°C | 7.3% | 196.8hPa | 2.4V | 01:58:05 | 03:17:07 | 00:00:00 | |
| HSKMA3-T | 2026-08-31 01:49:57 | 50.85122 | 9.96324 | 61° | 170km/h | 12149m | -15.7m/s | -54.9°C | 5.8% | 197.7hPa | 2.4V | 01:58:51 | 03:17:09 | 00:00:00 | |
| BIOWL1-15 | 2026-08-31 01:49:56 | 50.85102 | 9.96264 | 62° | 170km/h | 12165m | -17.7m/s | -54.6°C | 5.4% | 197.2hPa | 2.4V | 01:59:42 | 03:17:08 | 00:00:00 | |
| DL1XH-west | 2026-08-31 01:49:53 | 50.85040 | 9.96085 | 61° | 168km/h | 12218m | -22m/s | -54.4°C | 4.8% | 196hPa | 2.5V | 01:58:51 | 03:17:05 | 00:00:00 | |
| SONCRA | 2026-08-31 01:49:53 | 50.85040 | 9.96085 | 61° | 168km/h | 12218m | -22.0m/s | -54.4°C | 4.2% | 196.0hPa | 2.4V | 00:00:00 | 00:00:00 | 00:00:00 | |
| DM0DOS-11 | 2026-08-31 01:49:51 | 50.84981 | 9.95907 | 63° | 168km/h | 12270m | -19.9m/s | -54°C | 6.7% | 194.3hPa | 2.4V | 01:58:10 | 03:17:02 | 00:00:00 | |
| DK5PH-5 | 2026-08-31 01:49:51 | 50.85001 | 9.95966 | 63° | 161km/h | 12255m | -12.2m/s | -54.3°C | 7.0% | 194.5hPa | 2.4V | 01:58:00 | 03:17:03 | 00:00:00 | |
| DL1XH1-15 | 2026-08-31 01:49:50 | 50.84889 | 9.95618 | 64° | 159km/h | 12357m | -19.9m/s | -53.4°C | 6.1% | 191.5hPa | 2.4V | 01:58:15 | 03:16:57 | 00:00:00 | |
| HSKMA3-T | 2026-08-31 01:49:47 | 50.84925 | 9.95732 | 63° | 159km/h | 12321m | -17.5m/s | -53.7°C | 4.2% | 192.6hPa | 2.5V | 01:58:51 | 03:16:59 | 00:00:00 | |
| DJ2DS-15 | 2026-08-31 01:49:47 | 50.84925 | 9.95732 | 64° | 159km/h | 12322m | -17.4m/s | -53.6°C | 6.4% | 192.5hPa | 2.5V | 01:58:00 | 03:16:59 | 00:00:00 | |
| DB0NH | 2026-08-31 01:49:46 | 50.84907 | 9.95675 | 65° | 159km/h | 12339m | -19.3m/s | -53.5°C | 6.2% | 192.0hPa | 2.4V | 00:00:00 | 03:16:58 | 00:00:00 | |
| DO2KSM | 2026-08-31 01:49:45 | 50.84907 | 9.95675 | 65° | 162km/h | 12339m | -19.4m/s | -53.5°C | 3.6% | 192.1hPa | 2.4V | 01:58:00 | 00:00:00 | 00:00:00 | |
| DL0LBS | 2026-08-31 01:49:44 | 50.84889 | 9.95618 | 66° | 159km/h | 12357m | -19.9m/s | -53.4°C | 3.5% | 191.5hPa | 2.4V | 01:58:00 | 00:00:00 | 00:00:00 | |
| DF7PN | 2026-08-31 01:49:43 | 50.84855 | 9.95504 | 65° | 153km/h | 12394m | -18.3m/s | -53.2°C | 3.3% | 190.4hPa | 2.4V | 00:00:00 | 00:00:00 | 00:00:00 | |
| DL1XH-west | 2026-08-31 01:49:43 | 50.84855 | 9.95504 | 66° | 155km/h | 12394m | -18.3m/s | -53.2°C | 3.6% | 190.4hPa | 2.4V | 01:58:51 | 03:16:55 | 00:00:00 | |
| DL3OBA | 2026-08-31 01:49:42 | 50.84855 | 9.95504 | 67° | 155km/h | 12394m | -18.3m/s | -53.2°C | 3.3% | 190.4hPa | 2.4V | 01:58:00 | 00:00:00 | 00:00:00 | |
| SMARD9-10 | 2026-08-31 01:49:41 | 50.84839 | 9.95448 | 67° | 153km/h | 12411m | -17.4m/s | -53.2°C | 3.2% | 189.8hPa | 2.4V | 00:00:00 | 00:00:00 | 00:00:00 | |
| DL1XH1-15 | 2026-08-31 01:49:40 | 50.84724 | 9.95049 | 66° | 159km/h | 12539m | -17.4m/s | -53.5°C | 5.6% | 186.4hPa | 2.4V | 01:58:25 | 03:16:47 | 00:00:00 | |
| DF8AY | 2026-08-31 01:49:37 | 50.84757 | 9.95165 | 66° | 157km/h | 12502m | -18.1m/s | -53.6°C | 3.2% | 187.4hPa | 2.4V | 01:58:51 | 03:16:49 | 00:00:00 | |
| HSKMA3-T | 2026-08-31 01:49:36 | 50.84741 | 9.95107 | 66° | 159km/h | 12521m | -18m/s | -53.5°C | 3% | 186.9hPa | 2.4V | 01:58:51 | 03:16:48 | 00:00:00 | |
| DL1XH-west | 2026-08-31 01:49:32 | 50.84674 | 9.94874 | 65° | 161km/h | 12590m | -16.7m/s | -53.4°C | 2.7% | 185hPa | 2.4V | 01:58:51 | 03:16:44 | 00:00:00 | |
| DL1XH1-15 | 2026-08-31 01:49:30 | 50.84559 | 9.94461 | 66° | 161km/h | 12707m | -17.1m/s | -52.9°C | 5% | 181.6hPa | 2.4V | 01:58:35 | 03:16:37 | 00:00:00 | |
| DF8AY | 2026-08-31 01:49:26 | 50.84575 | 9.94520 | 67° | 162km/h | 12690m | -16.8m/s | -52.8°C | 2.2% | 182hPa | 2.4V | 01:58:51 | 03:16:38 | 00:00:00 | |
| HSKMA3-T | 2026-08-31 01:49:25 | 50.84559 | 9.94461 | 67° | 161km/h | 12707m | -17.1m/s | -52.9°C | 2.2% | 181.6hPa | 2.4V | 01:58:51 | 03:16:37 | 00:00:00 | |
| BIOWL1-15 | 2026-08-31 01:49:24 | 50.84543 | 9.94402 | 67° | 159km/h | 12723m | -16.5m/s | -52.9°C | 2.1% | 181.1hPa | 2.4V | 01:59:42 | 03:16:36 | 00:00:00 | |
| DL3AQ-11 | 2026-08-31 01:49:23 | 50.84512 | 9.94286 | 68° | 157km/h | 12756m | -18.5m/s | -52.5°C | 2.4% | 180.1hPa | 2.4V | 00:00:00 | 00:00:00 | 00:00:00 | |
| DL1XH-15 | 2026-08-31 01:49:22 | 50.84441 | 9.93998 | 69° | 151km/h | 12845m | -17.9m/s | -52.3°C | 4.8% | 177.7hPa | 2.4V | 01:58:43 | 03:16:29 | 00:00:00 | |
| DL1XH-west | 2026-08-31 01:49:22 | 50.84512 | 9.94286 | 69° | 159km/h | 12756m | -18.5m/s | -52.5°C | 2% | 180.1hPa | 2.4V | 01:58:51 | 03:16:34 | 00:00:00 | |
| DB0UT-7 | 2026-08-31 01:49:21 | 50.84498 | 9.94228 | 70° | 111km/h | 12774m | -18.8m/s | -52.4°C | 4.8% | 179.5hPa | 2.5V | 01:58:00 | 03:16:33 | 00:00:00 | |
| DO3MHA-11 | 2026-08-31 01:49:20 | 50.84484 | 9.94170 | 69° | 146km/h | 12792m | -19.0m/s | -52.4°C | 4.8% | 179.0hPa | 2.5V | 00:00:00 | 03:16:32 | 00:00:00 | |
| DL1NUX | 2026-08-31 01:49:19 | 50.84405 | 9.93833 | 71° | 142km/h | 12898m | -17.7m/s | -51.9°C | 4.6% | 176.2hPa | 2.5V | 01:58:46 | 03:16:26 | 00:00:00 | |
| HSKMA3-T | 2026-08-31 01:49:15 | 50.84416 | 9.93887 | 71° | 144km/h | 12880m | -17.9m/s | -52.1°C | 1.9% | 176.7hPa | 2.5V | 01:58:51 | 03:16:27 | 00:00:00 | |
| DB0UT-9 | 2026-08-31 01:49:14 | 50.84417 | 9.93887 | 72° | 144km/h | 12880m | -17.9m/s | -52.1°C | 2.3% | 176.7hPa | 2.5V | 00:00:00 | 00:00:00 | 00:00:00 | |
| DL1XH-15 | 2026-08-31 01:49:12 | 50.84332 | 9.93472 | 73° | 126km/h | 13029m | -18.5m/s | -52.1°C | 4.4% | 172.7hPa | 2.5V | 01:58:53 | 03:16:19 | 00:00:00 | |
| BIOWL1-15 | 2026-08-31 01:49:12 | 50.84383 | 9.93727 | 72° | 137km/h | 12934m | -18.7m/s | -51.9°C | 1.7% | 175.3hPa | 2.4V | 01:59:42 | 03:16:24 | 00:00:00 | |
| DL1XH-west | 2026-08-31 01:49:11 | 50.84372 | 9.93675 | 72° | 135km/h | 12952m | -18.6m/s | -51.8°C | 1.7% | 174.8hPa | 2.4V | 01:58:51 | 03:16:23 | 00:00:00 | |
| DL1XH1-15 | 2026-08-31 01:49:10 | 50.84314 | 9.93378 | 73° | 124km/h | 13065m | -20m/s | -52°C | 4.4% | 171.8hPa | 2.4V | 01:58:55 | 03:16:17 | 00:00:00 | |
| DO3MHA-11 | 2026-08-31 01:49:10 | 50.84362 | 9.93624 | 72° | 124km/h | 12970m | -18.6m/s | -51.9°C | 4.4% | 174.3hPa | 2.4V | 01:58:00 | 03:16:22 | 00:00:00 | |
| DM0DOS-11 | 2026-08-31 01:49:08 | 50.84298 | 9.93285 | 73° | 119km/h | 13103m | -18.6m/s | -50.4°C | 3.8% | 170.9hPa | 2.4V | 01:58:57 | 03:16:15 | 00:00:00 | |
| HSKMA3-T | 2026-08-31 01:49:05 | 50.84314 | 9.93378 | 74° | 124km/h | 13065m | -20m/s | -52°C | 1.5% | 171.9hPa | 2.4V | 01:59:42 | 03:16:17 | 00:00:00 | |
| DF8AY | 2026-08-31 01:49:04 | 50.84306 | 9.93331 | 74° | 120km/h | 13084m | -18.6m/s | -51.7°C | 1.4% | 171.3hPa | 2.4V | 01:59:42 | 03:16:16 | 00:00:00 | |
| DL4BBY-15 | 2026-08-31 01:49:03 | 50.84298 | 9.93285 | 74° | 102km/h | 13103m | -18.6m/s | -51.3°C | 0% | 0hPa | 2.5V | 00:00:00 | 00:00:00 | 00:00:00 | |
| DJ2DS-15 | 2026-08-31 01:49:02 | 50.84290 | 9.93240 | 73° | 115km/h | 13122m | -18.7m/s | -50.0°C | 1.6% | 170.4hPa | 2.5V | 00:00:00 | 00:00:00 | 00:00:00 | |
| DL1XH1-15 | 2026-08-31 01:49:00 | 50.84233 | 9.92946 | 72° | 104km/h | 13251m | -19.8m/s | -49.9°C | 3.6% | 166.9hPa | 2.5V | 01:59:05 | 03:16:07 | 00:00:00 | |
| DL1XH-west | 2026-08-31 01:49:00 | 50.84274 | 9.93152 | 73° | 111km/h | 13159m | -18m/s | -50.4°C | 1% | 169.5hPa | 2.4V | 01:59:42 | 03:16:12 | 00:00:00 | |
| DO3MHA-11 | 2026-08-31 01:49:00 | 50.84273 | 9.93152 | 74° | 106km/h | 13159m | -17.9m/s | 0°C | 0% | 0hPa | 2.5V | 00:00:00 | 03:16:12 | 00:00:00 | |
| DL1NUX | 2026-08-31 01:48:59 | 50.84225 | 9.92907 | 73° | 102km/h | 13271m | -19.9m/s | -50°C | 3.6% | 166.4hPa | 2.5V | 01:59:06 | 03:16:06 | 00:00:00 | |
| EDDB2-12 | 2026-08-31 01:48:58 | 50.84258 | 9.93068 | 72° | 108km/h | 13195m | -18.9m/s | -50.4°C | 1.7% | 168.4hPa | 2.4V | 00:00:00 | 00:00:00 | 00:00:00 | |
| DM0DOS-11 | 2026-08-31 01:48:57 | 50.84210 | 9.92829 | 72° | 100km/h | 13308m | -20m/s | -50.3°C | 3.7% | 165.4hPa | 2.4V | 01:59:08 | 03:16:04 | 00:00:00 | |
| AA1-15 | 2026-08-31 01:48:56 | 50.84241 | 9.92986 | 73° | 104km/h | 13232m | -19.5m/s | -49.9°C | 0.9% | 167.4hPa | 2.4V | 02:02:15 | 03:16:08 | 00:00:00 | |
| HSKMA3-T | 2026-08-31 01:48:54 | 50.84226 | 9.92907 | 73° | 102km/h | 13271m | -19.9m/s | -50°C | 1% | 166.4hPa | 2.5V | 01:59:42 | 03:16:06 | 00:00:00 | |
| DL1XH-15 | 2026-08-31 01:48:52 | 50.84173 | 9.92637 | 74° | 100km/h | 13395m | -16m/s | -51°C | 3.9% | 163.2hPa | 2.4V | 01:59:13 | 03:15:59 | 00:00:00 | |
| DC4HF-4 | 2026-08-31 01:48:51 | 50.84195 | 9.92751 | 73° | 100km/h | 13345m | -18.4m/s | -50.6°C | 1.6% | 164.6hPa | 2.4V | 00:00:00 | 00:00:00 | 00:00:00 | |
| DL1XH1-15 | 2026-08-31 01:48:50 | 50.84160 | 9.92561 | 76° | 97km/h | 13428m | -16.9m/s | -51.2°C | 3.8% | 162.4hPa | 2.4V | 01:59:15 | 03:15:57 | 00:00:00 | |
| DO3MHA-11 | 2026-08-31 01:48:50 | 50.84195 | 9.92751 | 74° | 97km/h | 13345m | -18.3m/s | -50.6°C | 3.7% | 164.5hPa | 2.4V | 01:59:00 | 03:16:02 | 00:00:00 | |
| DL1NUX | 2026-08-31 01:48:49 | 50.84154 | 9.92523 | 74° | 99km/h | 13445m | -16.5m/s | -51.2°C | 3.8% | 162hPa | 2.4V | 01:59:16 | 03:15:56 | 00:00:00 | |
| DL1XH-west | 2026-08-31 01:48:49 | 50.84188 | 9.92713 | 73° | 100km/h | 13363m | -16.9m/s | -50.8°C | 1% | 164.1hPa | 2.5V | 01:59:42 | 03:16:01 | 00:00:00 | |
| SONDE2-11 | 2026-08-31 01:48:48 | 50.84180 | 9.92675 | 73° | 99km/h | 13380m | -15.6m/s | -50.9°C | 1.7% | 163.7hPa | 2.4V | 00:00:00 | 00:00:00 | 00:00:00 | |
| DB0ND-19 | 2026-08-31 01:48:47 | 50.84166 | 9.92599 | 73° | 97km/h | 13412m | -16.4m/s | -51.1°C | 1.7% | 162.8hPa | 2.4V | 00:00:00 | 00:00:00 | 00:00:00 | |
| DL1ZP-14 | 2026-08-31 01:48:45 | 50.84160 | 9.92561 | 76° | 97km/h | 13428m | -16.9m/s | -51.2°C | 1.7% | 162.4hPa | 2.4V | 00:00:00 | 00:00:00 | 00:00:00 | |
| HSKMA3-T | 2026-08-31 01:48:44 | 50.84154 | 9.92523 | 75° | 99km/h | 13445m | -16.5m/s | -51.2°C | 1% | 162hPa | 2.4V | 01:59:42 | 03:15:56 | 00:00:00 | |
| BIOWL1-15 | 2026-08-31 01:48:44 | 50.84141 | 9.92450 | 74° | 93km/h | 13478m | -16.6m/s | -51°C | 0.9% | 161.1hPa | 2.5V | 01:59:42 | 03:15:54 | 00:00:00 | |
| DL3AQ-11 | 2026-08-31 01:48:43 | 50.84141 | 9.92450 | 74° | 93km/h | 13478m | -16.6m/s | -51.0°C | 1.6% | 161.1hPa | 2.4V | 00:00:00 | 00:00:00 | 00:00:00 | |
| DL1XH-15 | 2026-08-31 01:48:42 | 50.84105 | 9.92272 | 69° | 99km/h | 13559m | -16m/s | -51.1°C | 3.7% | 159.1hPa | 2.4V | 01:59:23 | 03:15:49 | 00:00:00 | |
| DF7PN | 2026-08-31 01:48:41 | 50.84135 | 9.92414 | 74° | 91km/h | 13495m | -18.0m/s | -51.1°C | 1.6% | 160.8hPa | 2.4V | 00:00:00 | 00:00:00 | 00:00:00 | |
| DO3MHA-11 | 2026-08-31 01:48:40 | 50.84128 | 9.92378 | 74° | 97km/h | 13512m | -17.6m/s | -51.1°C | 3.7% | 160.3hPa | 2.4V | 00:00:00 | 03:15:52 | 00:00:00 | |
| DL1NUX | 2026-08-31 01:48:39 | 50.84077 | 9.92161 | 67° | 99km/h | 13591m | -7.8m/s | -51.1°C | 3.8% | 158.2hPa | 2.4V | 01:59:26 | 03:15:46 | 00:00:00 | |
| DL1XH-west | 2026-08-31 01:48:38 | 50.84113 | 9.92308 | 71° | 93km/h | 13545m | -12.8m/s | -51.1°C | 0.9% | 159.4hPa | 2.4V | 01:59:42 | 03:15:50 | 00:00:00 | |
| DM0DOS-11 | 2026-08-31 01:48:37 | 50.84058 | 9.92088 | 67° | 99km/h | 13607m | -8.5m/s | -51.1°C | 3.9% | 157.8hPa | 2.4V | 01:59:28 | 03:15:44 | 00:00:00 | |
| HSKMA3-T | 2026-08-31 01:48:34 | 50.84077 | 9.92161 | 67° | 99km/h | 13591m | -7.8m/s | -51.1°C | 1% | 158.2hPa | 2.4V | 01:59:42 | 03:15:46 | 00:00:00 | |
| BIOWL1-15 | 2026-08-31 01:48:31 | 50.84049 | 9.92051 | 68° | 97km/h | 13615m | -6.5m/s | -51.2°C | 1% | 157.5hPa | 2.4V | 01:59:42 | 03:15:43 | 00:00:00 | |
| DO3MHA-11 | 2026-08-31 01:48:30 | 50.84040 | 9.92016 | 68° | 82km/h | 13622m | -7.2m/s | -51.2°C | 3.9% | 157.3hPa | 2.5V | 01:59:00 | 03:15:42 | 00:00:00 | |
| DM0DOS-11 | 2026-08-31 01:48:27 | 50.83968 | 9.91778 | 60° | 80km/h | 13688m | -10.7m/s | -51.2°C | 3.8% | 155.9hPa | 2.5V | 01:59:38 | 03:15:34 | 00:00:00 | |
| DL1XH-west | 2026-08-31 01:48:27 | 50.84014 | 9.91919 | 66° | 84km/h | 13645m | -7.3m/s | -51.2°C | 1% | 156.9hPa | 2.4V | 01:59:42 | 03:15:39 | 00:00:00 | |
| HSKMA3-T | 2026-08-31 01:48:23 | 50.83978 | 9.91805 | 59° | 78km/h | 13678m | -8.4m/s | -51.1°C | 0.9% | 156hPa | 2.5V | 01:59:42 | 03:15:35 | 00:00:00 | |
| BIOWL1-15 | 2026-08-31 01:48:22 | 50.83948 | 9.91725 | 58° | 75km/h | 13709m | -7.1m/s | -51.4°C | 1% | 155.4hPa | 2.4V | 01:59:42 | 03:15:32 | 00:00:00 | |
| DK5PH-5 | 2026-08-31 01:48:21 | 50.83958 | 9.91751 | 61° | 77km/h | 13699m | -12.2m/s | -51.2°C | 3.8% | 155.6hPa | 2.4V | 00:00:00 | 03:15:33 | 00:00:00 | |
| DO3MHA-11 | 2026-08-31 01:48:20 | 50.83948 | 9.91725 | 59° | 77km/h | 13709m | -7.0m/s | -51.4°C | 3.9% | 155.3hPa | 2.4V | 00:00:00 | 03:15:32 | 00:00:00 | |
| DM0DOS-11 | 2026-08-31 01:48:17 | 50.83857 | 9.91526 | 50° | 73km/h | 13789m | -6.6m/s | -50.6°C | 3.7% | 153.4hPa | 2.4V | 01:59:48 | 03:15:24 | 00:00:00 | |
| DL1XH-west | 2026-08-31 01:48:16 | 50.83904 | 9.91622 | 54° | 78km/h | 13746m | -10.8m/s | -50.7°C | 0.9% | 154.5hPa | 2.5V | 02:00:33 | 03:15:28 | 00:00:00 | |
| DF8AY | 2026-08-31 01:48:13 | 50.83869 | 9.91549 | 52° | 77km/h | 13781m | -8.8m/s | -50.8°C | 1% | 153.7hPa | 2.4V | 02:00:33 | 03:15:25 | 00:00:00 | |
| DL1XH-15 | 2026-08-31 01:48:13 | 50.83799 | 9.91414 | 52° | 69km/h | 13842m | -12.8m/s | -50.9°C | 3.6% | 152.2hPa | 2.4V | 01:59:53 | 03:15:19 | 00:00:00 | |
| BIOWL1-15 | 2026-08-31 01:48:12 | 50.83833 | 9.91481 | 50° | 73km/h | 13808m | -5.6m/s | -50.8°C | 1% | 152.9hPa | 2.5V | 02:00:33 | 03:15:22 | 00:00:00 | |
| HSKMA3-T | 2026-08-31 01:48:12 | 50.83857 | 9.91526 | 50° | 73km/h | 13789m | -6.6m/s | -50.6°C | 0.9% | 153.4hPa | 2.4V | 02:00:33 | 03:15:24 | 00:00:00 | |
| AM1SDL-15 | 2026-08-31 01:48:11 | 50.83845 | 9.91503 | 50° | 73km/h | 13799m | -12.8m/s | -50.6°C | 3.7% | 153.4hPa | 2.4V | 00:00:00 | 03:15:23 | 00:00:00 | |
| DO3MHA-11 | 2026-08-31 01:48:10 | 50.83833 | 9.91481 | 50° | 73km/h | 13808m | -5.6m/s | -50.8°C | 3.8% | 152.9hPa | 2.5V | 01:59:00 | 03:15:22 | 00:00:00 | |
| DM0DOS-11 | 2026-08-31 01:48:07 | 50.83740 | 9.91300 | 47° | 75km/h | 13911m | -11.2m/s | -50.9°C | 3.7% | 150.7hPa | 2.5V | 01:59:58 | 03:15:14 | 00:00:00 | |
| DL1XH-west | 2026-08-31 01:48:05 | 50.83777 | 9.91368 | 51° | 75km/h | 13872m | -18.2m/s | -50.9°C | 0.8% | 151.8hPa | 2.4V | 02:00:33 | 03:15:17 | 00:00:00 | |
| DL3AQ-11 | 2026-08-31 01:48:03 | 50.83740 | 9.91301 | 47° | 75km/h | 13912m | -11.2m/s | -50.9°C | 1.6% | 150.7hPa | 2.5V | 00:00:00 | 00:00:00 | 00:00:00 | |
| DL1XH-15 | 2026-08-31 01:48:02 | 50.83672 | 9.91191 | 46° | 78km/h | 13960m | -10.7m/s | -51.2°C | 3.7% | 149.6hPa | 2.5V | 02:00:03 | 03:15:09 | 00:00:00 | |
| BIOWL1-15 | 2026-08-31 01:48:02 | 50.83713 | 9.91257 | 45° | 77km/h | 13932m | -11.8m/s | -51.1°C | 1% | 150.2hPa | 2.4V | 02:00:33 | 03:15:12 | 00:00:00 | |
| HSKMA3-T | 2026-08-31 01:48:02 | 50.83740 | 9.91301 | 48° | 75km/h | 13912m | -11.2m/s | -50.9°C | 0.9% | 150.7hPa | 2.5V | 02:00:33 | 03:15:14 | 00:00:00 | |
| NBG1-10 | 2026-08-31 01:48:01 | 50.83727 | 9.91279 | 47° | 77km/h | 13922m | -8.8m/s | -51.0°C | 3.7% | 150.3hPa | 2.4V | 00:00:00 | 03:15:13 | 00:00:00 | |
| DO3MHA-11 | 2026-08-31 01:48:00 | 50.83713 | 9.91257 | 45° | 78km/h | 13932m | -11.7m/s | -51.0°C | 3.7% | 150.2hPa | 2.4V | 00:00:00 | 03:15:12 | 00:00:00 | |
| AM1SDL-15 | 2026-08-31 01:47:59 | 50.83699 | 9.91235 | 45° | 78km/h | 13942m | -7.4m/s | -51.1°C | 3.7% | 149.8hPa | 2.4V | 00:00:00 | 03:15:11 | 00:00:00 | |
| DJ2KF-10 | 2026-08-31 01:47:58 | 50.83685 | 9.91214 | 45° | 86km/h | 13950m | -8.9m/s | -51.1°C | 3.7% | 149.7hPa | 2.4V | 00:00:00 | 03:15:10 | 00:00:00 | |
| DM0DOS-11 | 2026-08-31 01:47:57 | 50.83602 | 9.91079 | 42° | 80km/h | 13998m | -9.4m/s | -51.5°C | 3.7% | 148.6hPa | 2.4V | 02:00:08 | 03:15:04 | 00:00:00 | |
| DL1XH-west | 2026-08-31 01:47:55 | 50.83644 | 9.91146 | 46° | 78km/h | 13977m | -6.3m/s | -51.4°C | 1% | 149.1hPa | 2.4V | 02:00:33 | 03:15:07 | 00:00:00 | |
| D01LWL | 2026-08-31 01:47:55 | 50.83631 | 9.91124 | 45° | 78km/h | 13983m | -6.1m/s | -51.4°C | 1.7% | 148.9hPa | 2.4V | 00:00:00 | 00:00:00 | 00:00:00 | |
| DD1CC8 | 2026-08-31 01:47:53 | 50.83616 | 9.91101 | 44° | 80km/h | 13990m | -7.4m/s | -51.5°C | 1.6% | 148.8hPa | 2.4V | 00:00:00 | 00:00:00 | 00:00:00 | |
| DL1XH-15 | 2026-08-31 01:47:52 | 50.83523 | 9.90983 | 34° | 75km/h | 14042m | -9.1m/s | -51.9°C | 3.8% | 147.6hPa | 2.4V | 02:00:13 | 03:14:59 | 00:00:00 | |
| DF8AY | 2026-08-31 01:47:51 | 50.83587 | 9.91058 | 40° | 78km/h | 14008m | -11.2m/s | -51.6°C | 0.9% | 148.4hPa | 2.4V | 02:00:33 | 03:15:03 | 00:00:00 | |
| BIOWL1-15 | 2026-08-31 01:47:50 | 50.83571 | 9.91038 | 39° | 80km/h | 14018m | -7.3m/s | -51.7°C | 1% | 148.2hPa | 2.5V | 02:00:33 | 03:15:02 | 00:00:00 | |
| SONCRA | 2026-08-31 01:47:49 | 50.83539 | 9.91000 | 35° | 77km/h | 14034m | -9.0m/s | -51.8°C | 1.7% | 147.7hPa | 2.4V | 00:00:00 | 00:00:00 | 00:00:00 | |
| DM0DOS-11 | 2026-08-31 01:47:47 | 50.83442 | 9.90881 | 44° | 68km/h | 14092m | -14.1m/s | -52.3°C | 3.9% | 146.5hPa | 2.4V | 02:00:19 | 03:14:53 | 00:00:00 | |
| SONDE2-11 | 2026-08-31 01:47:46 | 50.83507 | 9.90966 | 35° | 73km/h | 14052m | -10.0m/s | -52.0°C | 1.6% | 147.4hPa | 2.4V | 00:00:00 | 00:00:00 | 00:00:00 | |
| DF8AY | 2026-08-31 01:47:45 | 50.83429 | 9.90863 | 44° | 68km/h | 14102m | -6.3m/s | -52.4°C | 1.2% | 146.2hPa | 2.4V | 02:00:33 | 03:14:52 | 00:00:00 | |
| DL1XH-west | 2026-08-31 01:47:44 | 50.83479 | 9.90932 | 39° | 68km/h | 14068m | -6.8m/s | -52.1°C | 1.2% | 146.9hPa | 2.5V | 02:00:33 | 03:14:56 | 00:00:00 | |
| DL1ZP-14 | 2026-08-31 01:47:43 | 50.83466 | 9.90916 | 40° | 64km/h | 14075m | -7.2m/s | -52.2°C | 1.7% | 146.8hPa | 2.5V | 00:00:00 | 00:00:00 | 00:00:00 | |
| DL1XH-15 | 2026-08-31 01:47:42 | 50.83389 | 9.90801 | 44° | 78km/h | 14126m | -8.7m/s | -52.6°C | 4% | 145.7hPa | 2.5V | 02:00:23 | 03:14:49 | 00:00:00 | |
| BIOWL1-15 | 2026-08-31 01:47:41 | 50.83416 | 9.90843 | 45° | 73km/h | 14110m | -10.4m/s | -52.5°C | 1.2% | 146.1hPa | 2.4V | 02:00:33 | 03:14:51 | 00:00:00 | |
| HSKMA3-T | 2026-08-31 01:47:41 | 50.83441 | 9.90881 | 44° | 68km/h | 14092m | -14.1m/s | -52.3°C | 1.1% | 146.5hPa | 2.4V | 02:00:33 | 03:14:53 | 00:00:00 | |
| DO3MHA-11 | 2026-08-31 01:47:40 | 50.83429 | 9.90862 | 44° | 78km/h | 14102m | -6.2m/s | -52.4°C | 4.0% | 146.1hPa | 2.4V | 02:00:00 | 03:14:52 | 00:00:00 | |
| DF7PN | 2026-08-31 01:47:39 | 50.83416 | 9.90843 | 44° | 73km/h | 14110m | -10.4m/s | -52.5°C | 1.7% | 146.1hPa | 2.5V | 00:00:00 | 00:00:00 | 00:00:00 | |
| DL1CLM-18 | 2026-08-31 01:47:38 | 50.83416 | 9.90843 | 46° | 73km/h | 14110m | -10.4m/s | -52.5°C | 1.7% | 146.1hPa | 2.5V | 02:00:00 | 00:00:00 | 00:00:00 | |
| DM0DOS-11 | 2026-08-31 01:47:36 | 50.83294 | 9.90674 | 36° | 82km/h | 14178m | -8.9m/s | -53°C | 4.2% | 144.6hPa | 2.5V | 02:00:29 | 03:14:43 | 00:00:00 | |
| DL1XH-west | 2026-08-31 01:47:33 | 50.83327 | 9.90714 | 38° | 82km/h | 14158m | -6.8m/s | -52.9°C | 1.2% | 145hPa | 2.4V | 02:00:33 | 03:14:45 | 00:00:00 | |
| DL4BBY-15 | 2026-08-31 01:47:33 | 50.83327 | 9.90714 | 39° | 78km/h | 14158m | -6.7m/s | -53.8°C | 0% | 0hPa | 2.4V | 00:00:00 | 00:00:00 | 00:00:00 | |
| DL1NUX | 2026-08-31 01:47:32 | 50.83245 | 9.90615 | 39° | 78km/h | 14202m | -11.6m/s | 0°C | 0% | 0hPa | 2.4V | 02:00:32 | 03:14:40 | 00:00:00 | |
| DL1XH1-15 | 2026-08-31 01:47:30 | 50.83202 | 9.90555 | 42° | 73km/h | 14228m | -9.6m/s | -53.3°C | 4.4% | 143.5hPa | 2.4V | 02:00:35 | 03:14:37 | 00:00:00 | |
| HSKMA3-T | 2026-08-31 01:47:30 | 50.83277 | 9.90655 | 37° | 82km/h | 14186m | -7.6m/s | -53.1°C | 1.3% | 144.3hPa | 2.5V | 02:00:33 | 03:14:42 | 00:00:00 | |
| DF8AY | 2026-08-31 01:47:29 | 50.83261 | 9.90635 | 38° | 80km/h | 14193m | -5.6m/s | -53.2°C | 1.5% | 144.2hPa | 2.4V | 02:00:33 | 03:14:41 | 00:00:00 | |
| BIOWL1-15 | 2026-08-31 01:47:28 | 50.83245 | 9.90615 | 40° | 78km/h | 14202m | -11.6m/s | -53.2°C | 1.4% | 144.1hPa | 2.4V | 02:00:33 | 03:14:40 | 00:00:00 | |
| DL1XH-west | 2026-08-31 01:47:23 | 50.83175 | 9.90515 | 45° | 73km/h | 14250m | -13.7m/s | -53.3°C | 1.3% | 143.1hPa | 2.5V | 02:01:24 | 03:14:35 | 00:00:00 | |
| DL3AQ-11 | 2026-08-31 01:47:23 | 50.83162 | 9.90494 | 46° | 71km/h | 14263m | -10.3m/s | -53.4°C | 1.9% | 142.7hPa | 2.5V | 00:00:00 | 00:00:00 | 00:00:00 | |
| DL1XH-15 | 2026-08-31 01:47:22 | 50.83101 | 9.90375 | 55° | 82km/h | 14313m | -8m/s | -53.6°C | 4.5% | 141.6hPa | 2.5V | 02:00:43 | 03:14:29 | 00:00:00 | |
| DL1NUX | 2026-08-31 01:47:22 | 50.83113 | 9.90402 | 52° | 80km/h | 14302m | -11.8m/s | 0°C | 0% | 0hPa | 2.5V | 02:00:42 | 03:14:30 | 00:00:00 | |
| DM0DOS-11 | 2026-08-31 01:47:21 | 50.83150 | 9.90472 | 47° | 73km/h | 14273m | -10.1m/s | -53.5°C | 4.4% | 142.5hPa | 2.4V | 02:00:39 | 03:14:33 | 00:00:00 | |
| DK5PH-5 | 2026-08-31 01:47:21 | 50.83150 | 9.90472 | 48° | 77km/h | 14273m | -10.1m/s | -53.4°C | 4.4% | 142.5hPa | 2.4V | 02:00:00 | 03:14:33 | 00:00:00 | |
| DL1XH1-15 | 2026-08-31 01:47:20 | 50.83078 | 9.90319 | 59° | 86km/h | 14334m | -7m/s | -53.4°C | 4.5% | 141.1hPa | 2.4V | 02:00:45 | 03:14:27 | 00:00:00 | |
| HSKMA3-T | 2026-08-31 01:47:20 | 50.83137 | 9.90450 | 49° | 77km/h | 14283m | -9.3m/s | -53.6°C | 1.5% | 142.2hPa | 2.4V | 02:01:24 | 03:14:32 | 00:00:00 | |
| DF8AY | 2026-08-31 01:47:18 | 50.83113 | 9.90402 | 53° | 80km/h | 14302m | -11.8m/s | -53.7°C | 1.5% | 141.9hPa | 2.5V | 02:01:24 | 03:14:30 | 00:00:00 | |
| BIOWL1-15 | 2026-08-31 01:47:17 | 50.83101 | 9.90375 | 56° | 82km/h | 14313m | -8m/s | -53.6°C | 1.5% | 141.6hPa | 2.5V | 02:01:24 | 03:14:29 | 00:00:00 | |
| DB0NH | 2026-08-31 01:47:16 | 50.83089 | 9.90348 | 58° | 77km/h | 14324m | -12.1m/s | -53.4°C | 4.5% | 141.4hPa | 2.4V | 00:00:00 | 03:14:28 | 00:00:00 | |
| DJ2DS-15 | 2026-08-31 01:47:15 | 50.83077 | 9.90319 | 60° | 78km/h | 14334m | -7.0m/s | -53.4°C | 4.5% | 141.0hPa | 2.4V | 00:00:00 | 03:14:27 | 00:00:00 | |
| DB0ND-19 | 2026-08-31 01:47:14 | 50.83056 | 9.90259 | 61° | 84km/h | 14351m | -8.2m/s | -53.2°C | 1.9% | 140.7hPa | 2.4V | 00:00:00 | 00:00:00 | 00:00:00 | |
| DL1XH-15 | 2026-08-31 01:47:12 | 50.82995 | 9.90091 | 56° | 75km/h | 14408m | -7.2m/s | -52.9°C | 4.3% | 139.5hPa | 2.4V | 02:00:53 | 03:14:19 | 00:00:00 | |
| DL1NUX | 2026-08-31 01:47:12 | 50.83006 | 9.90116 | 56° | 77km/h | 14398m | -11.4m/s | 0°C | 0% | 0hPa | 2.4V | 02:00:52 | 03:14:20 | 00:00:00 | |
| DL1XH-west | 2026-08-31 01:47:12 | 50.83046 | 9.90229 | 62° | 84km/h | 14360m | -8.3m/s | -53°C | 1.4% | 140.5hPa | 2.4V | 02:01:24 | 03:14:24 | 00:00:00 | |
| HSKMA3-T | 2026-08-31 01:47:09 | 50.83016 | 9.90143 | 60° | 80km/h | 14387m | -8.9m/s | -53.2°C | 1.5% | 140hPa | 2.4V | 02:01:24 | 03:14:21 | 00:00:00 | |
| BIOWL1-15 | 2026-08-31 01:47:07 | 50.82995 | 9.90091 | 56° | 75km/h | 14408m | -7.2m/s | -52.9°C | 1.4% | 139.5hPa | 2.4V | 02:01:24 | 03:14:19 | 00:00:00 | |
| DM0DOS-11 | 2026-08-31 01:47:06 | 50.82927 | 9.89952 | 47° | 75km/h | 14463m | -12.1m/s | -52.4°C | 4.1% | 138.3hPa | 2.4V | 02:00:59 | 03:14:13 | 00:00:00 | |
| DO8TBO-1 | 2026-08-31 01:47:05 | 50.82974 | 9.90042 | 54° | 78km/h | 14424m | -8.4m/s | -52.5°C | 4.1% | 139.1hPa | 2.5V | 00:00:00 | 03:14:17 | 00:00:00 | |
| DL4BBY-15 | 2026-08-31 01:47:03 | 50.82951 | 9.89997 | 51° | 82km/h | 14440m | -9.3m/s | -53.5°C | 0% | 0hPa | 2.5V | 00:00:00 | 00:00:00 | 00:00:00 | |
| DL1XH-15 | 2026-08-31 01:47:02 | 50.82878 | 9.89866 | 51° | 71km/h | 14495m | -9.2m/s | -52.6°C | 4.1% | 137.5hPa | 2.5V | 02:01:03 | 03:14:09 | 00:00:00 | |
| DL1NUX | 2026-08-31 01:47:02 | 50.82889 | 9.89888 | 50° | 71km/h | 14486m | -9.6m/s | 0°C | 0% | 0hPa | 2.5V | 02:01:02 | 03:14:10 | 00:00:00 | |
| DL1XH-west | 2026-08-31 01:47:01 | 50.82927 | 9.89952 | 48° | 75km/h | 14463m | -12.1m/s | -52.4°C | 1.4% | 138.3hPa | 2.4V | 02:01:24 | 03:14:13 | 00:00:00 | |
| HSKMA3-T | 2026-08-31 01:46:58 | 50.82889 | 9.89888 | 50° | 71km/h | 14487m | -9.6m/s | -52.6°C | 1.3% | 137.7hPa | 2.5V | 02:01:24 | 03:14:10 | 00:00:00 | |
| DM0DOS-11 | 2026-08-31 01:46:56 | 50.82806 | 9.89721 | 50° | 78km/h | 14553m | -8.2m/s | -53.1°C | 4.3% | 136.4hPa | 2.5V | 02:01:09 | 03:14:03 | 00:00:00 | |
| BIOWL1-15 | 2026-08-31 01:46:56 | 50.82867 | 9.89843 | 52° | 75km/h | 14504m | -7.8m/s | -52.7°C | 1.3% | 137.4hPa | 2.4V | 02:01:24 | 03:14:08 | 00:00:00 | |
| NBG1-10 | 2026-08-31 01:46:55 | 50.82855 | 9.89819 | 52° | 84km/h | 14512m | -7.8m/s | -52.7°C | 4.2% | 137.1hPa | 2.4V | 02:01:00 | 03:14:07 | 00:00:00 | |
| DJ2DS-15 | 2026-08-31 01:46:54 | 50.82843 | 9.89795 | 53° | 78km/h | 14523m | -14.1m/s | -52.8°C | 4.1% | 137.1hPa | 2.4V | 00:00:00 | 03:14:06 | 00:00:00 | |
| DL8OAI-8 | 2026-08-31 01:46:53 | 50.82842 | 9.89795 | 53° | 78km/h | 14523m | -14.1m/s | -52.8°C | 1.8% | 137.2hPa | 2.4V | 02:01:00 | 00:00:00 | 00:00:00 | |
| DL1XH-15 | 2026-08-31 01:46:52 | 50.82756 | 9.89626 | 48° | 78km/h | 14592m | -10.5m/s | -53.5°C | 4.4% | 135.6hPa | 2.4V | 02:01:13 | 03:13:59 | 00:00:00 | |
| DL1NUX | 2026-08-31 01:46:52 | 50.82769 | 9.89650 | 48° | 78km/h | 14582m | -9.4m/s | 0°C | 0% | 0hPa | 2.4V | 02:01:12 | 03:14:00 | 00:00:00 | |
| DL1XH-west | 2026-08-31 01:46:50 | 50.82794 | 9.89697 | 50° | 78km/h | 14562m | -10.2m/s | -53.2°C | 1.4% | 136.2hPa | 2.4V | 02:01:24 | 03:14:02 | 00:00:00 | |
| HSKMA3-T | 2026-08-31 01:46:48 | 50.82769 | 9.89650 | 49° | 78km/h | 14582m | -9.4m/s | -53.4°C | 1.5% | 135.8hPa | 2.4V | 02:01:24 | 03:14:00 | 00:00:00 | |
| DF8AY | 2026-08-31 01:46:45 | 50.82729 | 9.89579 | 49° | 77km/h | 14610m | -8.9m/s | -53.6°C | 1.4% | 135.2hPa | 2.5V | 02:01:24 | 03:13:57 | 00:00:00 | |
| EDDB2-11 | 2026-08-31 01:46:45 | 50.82717 | 9.89556 | 49° | 77km/h | 14622m | -12.0m/s | -53.7°C | 1.9% | 135.1hPa | 2.4V | 00:00:00 | 00:00:00 | 00:00:00 | |
| SONDE2-11 | 2026-08-31 01:46:44 | 50.82704 | 9.89532 | 48° | 77km/h | 14630m | -4.2m/s | -53.7°C | 1.9% | 134.8hPa | 2.4V | 00:00:00 | 00:00:00 | 00:00:00 | |
| DL3AQ-11 | 2026-08-31 01:46:43 | 50.82691 | 9.89509 | 49° | 80km/h | 14636m | -7.9m/s | -53.8°C | 1.9% | 134.6hPa | 2.4V | 00:00:00 | 00:00:00 | 00:00:00 | |
| DL1XH-15 | 2026-08-31 01:46:42 | 50.82627 | 9.89370 | 58° | 91km/h | 14679m | -11.9m/s | -53.9°C | 4.4% | 133.8hPa | 2.4V | 02:01:23 | 03:13:49 | 00:00:00 | |
| DM0DOS-11 | 2026-08-31 01:46:41 | 50.82677 | 9.89484 | 49° | 82km/h | 14644m | -6.2m/s | -53.8°C | 4.4% | 134.4hPa | 2.4V | 02:01:19 | 03:13:53 | 00:00:00 | |
| DL1ZP-14 | 2026-08-31 01:46:41 | 50.82677 | 9.89484 | 49° | 82km/h | 14644m | -6.2m/s | -53.8°C | 1.8% | 134.4hPa | 2.4V | 00:00:00 | 00:00:00 | 00:00:00 | |
| DL1XH1-15 | 2026-08-31 01:46:40 | 50.82604 | 9.89306 | 61° | 95km/h | 14695m | -6.9m/s | -53.8°C | 4.3% | 133.3hPa | 2.4V | 02:01:25 | 03:13:47 | 00:00:00 | |
| DL1XH-west | 2026-08-31 01:46:40 | 50.82664 | 9.89458 | 54° | 86km/h | 14653m | -11.3m/s | -53.9°C | 1.5% | 134.4hPa | 2.4V | 02:01:24 | 03:13:52 | 00:00:00 | |
| HSKMA3-T | 2026-08-31 01:46:38 | 50.82639 | 9.89400 | 56° | 88km/h | 14671m | -5.6m/s | -54°C | 1.5% | 133.9hPa | 2.5V | 02:01:24 | 03:13:50 | 00:00:00 | |
| BIOWL1-15 | 2026-08-31 01:46:37 | 50.82604 | 9.89306 | 61° | 95km/h | 14695m | -6.9m/s | -53.8°C | 1.4% | 133.3hPa | 2.4V | 02:02:15 | 03:13:47 | 00:00:00 | |
| DF8AY | 2026-08-31 01:46:34 | 50.82593 | 9.89272 | 63° | 95km/h | 14702m | -7.5m/s | -53.8°C | 1.4% | 133.2hPa | 2.4V | 02:02:15 | 03:13:46 | 00:00:00 | |
| AM1SDL-15 | 2026-08-31 01:46:34 | 50.82592 | 9.89272 | 63° | 89km/h | 14702m | -7.4m/s | -53.7°C | 4.3% | 133.1hPa | 2.4V | 00:00:00 | 03:13:46 | 00:00:00 | |
| DJ2DS-15 | 2026-08-31 01:46:33 | 50.82582 | 9.89239 | 64° | 89km/h | 14711m | -10.2m/s | -53.7°C | 4.3% | 133.0hPa | 2.4V | 02:01:00 | 03:13:45 | 00:00:00 | |
| DL1XH-15 | 2026-08-31 01:46:32 | 50.82517 | 9.89057 | 55° | 88km/h | 14760m | -7.2m/s | -53.8°C | 4.2% | 132hPa | 2.4V | 02:01:33 | 03:13:39 | 00:00:00 | |
| DM0DOS-11 | 2026-08-31 01:46:31 | 50.82563 | 9.89175 | 63° | 88km/h | 14726m | -6m/s | -53.6°C | 4.2% | 132.7hPa | 2.5V | 02:01:29 | 03:13:43 | 00:00:00 | |
| DL1XH1-15 | 2026-08-31 01:46:30 | 50.82491 | 9.88998 | 55° | 91km/h | 14777m | -9.5m/s | -53.9°C | 4.3% | 131.7hPa | 2.5V | 02:01:35 | 03:13:37 | 00:00:00 | |
| DL1XH-west | 2026-08-31 01:46:30 | 50.82552 | 9.89145 | 61° | 86km/h | 14734m | -8.9m/s | -53.6°C | 1.2% | 132.6hPa | 2.4V | 02:02:15 | 03:13:42 | 00:00:00 | |
| HSKMA3-T | 2026-08-31 01:46:27 | 50.82517 | 9.89057 | 55° | 88km/h | 14760m | -7.2m/s | -53.8°C | 1.2% | 132hPa | 2.4V | 02:02:15 | 03:13:39 | 00:00:00 | |
| DF8AY | 2026-08-31 01:46:24 | 50.82478 | 9.88968 | 56° | 91km/h | 14786m | -8.5m/s | -53.9°C | 1.3% | 131.5hPa | 2.4V | 02:02:15 | 03:13:36 | 00:00:00 | |
| DM0DOS-11 | 2026-08-31 01:46:21 | 50.82428 | 9.88843 | 59° | 95km/h | 14819m | -8m/s | -54.1°C | 4.3% | 130.8hPa | 2.4V | 02:01:40 | 03:13:32 | 00:00:00 | |
| DK5PH-5 | 2026-08-31 01:46:21 | 50.82440 | 9.88875 | 59° | 89km/h | 14812m | -8.0m/s | -54.0°C | 4.3% | 130.9hPa | 2.4V | 00:00:00 | 03:13:33 | 00:00:00 | |
| DL1XH1-15 | 2026-08-31 01:46:20 | 50.82375 | 9.88673 | 65° | 95km/h | 14864m | -9.2m/s | -54.3°C | 4.3% | 129.8hPa | 2.4V | 02:01:45 | 03:13:27 | 00:00:00 | |
| DL1XH-west | 2026-08-31 01:46:19 | 50.82416 | 9.88810 | 62° | 95km/h | 14828m | -8.7m/s | -54.1°C | 1.1% | 130.6hPa | 2.5V | 02:02:15 | 03:13:31 | 00:00:00 | |
| HSKMA3-T | 2026-08-31 01:46:17 | 50.82395 | 9.88743 | 66° | 95km/h | 14847m | -10.4m/s | -54.2°C | 1.2% | 130.2hPa | 2.4V | 02:02:15 | 03:13:29 | 00:00:00 | |
| DF8AY | 2026-08-31 01:46:13 | 50.82355 | 9.88605 | 61° | 91km/h | 14883m | -12.6m/s | -54.3°C | 1.2% | 129.5hPa | 2.5V | 02:02:15 | 03:13:25 | 00:00:00 | |
| SONDE2-11 | 2026-08-31 01:46:13 | 50.82343 | 9.88574 | 59° | 89km/h | 14894m | -9.4m/s | -54.3°C | 1.7% | 129.2hPa | 2.5V | 00:00:00 | 00:00:00 | 00:00:00 | |
| DB0ND-19 | 2026-08-31 01:46:12 | 50.82331 | 9.88543 | 58° | 89km/h | 14903m | -9.6m/s | -54.3°C | 1.7% | 129.1hPa | 2.5V | 00:00:00 | 00:00:00 | 00:00:00 | |
| DL1XH1-15 | 2026-08-31 01:46:10 | 50.82266 | 9.88363 | 64° | 84km/h | 14958m | -12.2m/s | -53.8°C | 4.1% | 128.1hPa | 2.5V | 02:01:55 | 03:13:17 | 00:00:00 | |
| DL1XH-west | 2026-08-31 01:46:08 | 50.82296 | 9.88452 | 59° | 86km/h | 14928m | -7.4m/s | -54.1°C | 1.2% | 128.5hPa | 2.4V | 02:02:15 | 03:13:20 | 00:00:00 | |
| HSKMA3-T | 2026-08-31 01:46:07 | 50.82285 | 9.88423 | 62° | 84km/h | 14936m | -10.1m/s | -53.9°C | 1% | 128.4hPa | 2.4V | 02:02:15 | 03:13:19 | 00:00:00 | |
| DF8AY | 2026-08-31 01:46:03 | 50.82248 | 9.88302 | 65° | 84km/h | 14978m | -10.5m/s | -53.9°C | 1.1% | 127.6hPa | 2.4V | 02:02:15 | 03:13:15 | 00:00:00 | |
| DL3AQ-11 | 2026-08-31 01:46:03 | 50.82238 | 9.88271 | 63° | 86km/h | 14989m | -10.0m/s | -53.9°C | 1.6% | 127.4hPa | 2.4V | 00:00:00 | 00:00:00 | 00:00:00 | |
| DL1XH-15 | 2026-08-31 01:46:02 | 50.82180 | 9.88115 | 57° | 91km/h | 15029m | -6.8m/s | -53.6°C | 4.3% | 126.5hPa | 2.4V | 02:02:03 | 03:13:09 | 00:00:00 | |
| BIOWL1-15 | 2026-08-31 01:46:02 | 50.82238 | 9.88271 | 64° | 88km/h | 14989m | -10m/s | -53.9°C | 1.1% | 127.4hPa | 2.4V | 02:02:15 | 03:13:14 | 00:00:00 | |
| DL1XH1-15 | 2026-08-31 01:46:00 | 50.82157 | 9.88054 | 59° | 88km/h | 15044m | -8.7m/s | -53.1°C | 4.1% | 126.2hPa | 2.4V | 02:02:05 | 03:13:07 | 00:00:00 | |
| DL1XH-west | 2026-08-31 01:45:58 | 50.82193 | 9.88145 | 57° | 93km/h | 15022m | -9.2m/s | -53.7°C | 1.1% | 126.7hPa | 2.4V | 02:02:15 | 03:13:10 | 00:00:00 | |
| HSKMA3-T | 2026-08-31 01:45:56 | 50.82168 | 9.88084 | 59° | 89km/h | 15036m | -8.1m/s | -53.4°C | 1.1% | 126.4hPa | 2.4V | 02:02:15 | 03:13:08 | 00:00:00 | |
| DL0LBS | 2026-08-31 01:45:55 | 50.82168 | 9.88084 | 60° | 89km/h | 15037m | -8.1m/s | -53.4°C | 1.7% | 126.4hPa | 2.5V | 00:00:00 | 00:00:00 | 00:00:00 | |
| DO2KSM | 2026-08-31 01:45:54 | 50.82157 | 9.88054 | 61° | 88km/h | 15044m | -8.7m/s | -53.1°C | 1.6% | 126.2hPa | 2.5V | 02:02:00 | 00:00:00 | 00:00:00 | |
| DL1XH-15 | 2026-08-31 01:45:52 | 50.82071 | 9.87809 | 60° | 91km/h | 15121m | -10.3m/s | -53°C | 4% | 124.8hPa | 2.5V | 02:02:13 | 03:12:59 | 00:00:00 | |
| DF8AY | 2026-08-31 01:45:52 | 50.82125 | 9.87964 | 61° | 86km/h | 15075m | -10m/s | -53°C | 1% | 125.7hPa | 2.5V | 02:02:15 | 03:13:04 | 00:00:00 | |
| BIOWL1-15 | 2026-08-31 01:45:51 | 50.82115 | 9.87934 | 62° | 86km/h | 15084m | -7.8m/s | -52.9°C | 1% | 125.5hPa | 2.4V | 02:02:15 | 03:13:03 | 00:00:00 | |
| DL1XH-west | 2026-08-31 01:45:48 | 50.82082 | 9.87841 | 60° | 91km/h | 15111m | -9.3m/s | -52.9°C | 1% | 125hPa | 2.4V | 02:02:15 | 03:13:00 | 00:00:00 | |
| AA1-15 | 2026-08-31 01:45:46 | 50.82059 | 9.87777 | 60° | 91km/h | 15129m | -5.9m/s | -53°C | 1.1% | 124.6hPa | 2.5V | 02:02:15 | 03:12:58 | 00:00:00 | |
| HSKMA3-T | 2026-08-31 01:45:45 | 50.82048 | 9.87745 | 61° | 93km/h | 15137m | -10.3m/s | -53.1°C | 1.1% | 124.5hPa | 2.4V | 02:02:15 | 03:12:57 | 00:00:00 | |
| DJ2DS-15 | 2026-08-31 01:45:44 | 50.82036 | 9.87713 | 62° | 95km/h | 15147m | -10.3m/s | -53.0°C | 4.1% | 124.2hPa | 2.4V | 00:00:00 | 03:12:56 | 00:00:00 | |
| DL1XH-15 | 2026-08-31 01:45:43 | 50.81959 | 9.87474 | 60° | 99km/h | 15210m | -8.3m/s | -52.9°C | 4.1% | 123.1hPa | 2.4V | 02:02:23 | 03:12:49 | 00:00:00 | |
| DL1NUX | 2026-08-31 01:45:43 | 50.81994 | 9.87578 | 63° | 97km/h | 15186m | -8.1m/s | 0°C | 0% | 0hPa | 2.5V | 00:00:00 | 03:12:52 | 00:00:00 | |
| BIOWL1-15 | 2026-08-31 01:45:41 | 50.82004 | 9.87612 | 65° | 95km/h | 15177m | -9.5m/s | -53.2°C | 1.1% | 123.7hPa | 2.4V | 02:03:06 | 03:12:53 | 00:00:00 | |
| DL1XH-west | 2026-08-31 01:45:37 | 50.81959 | 9.87474 | 60° | 99km/h | 15210m | -8.3m/s | -52.9°C | 1.2% | 123.1hPa | 2.4V | 02:03:06 | 03:12:49 | 00:00:00 | |
| AA1-15 | 2026-08-31 01:45:35 | 50.81935 | 9.87410 | 58° | 89km/h | 15228m | -8.3m/s | -52.7°C | 1% | 122.7hPa | 2.4V | 02:03:06 | 03:12:47 | 00:00:00 | |
| HSKMA3-T | 2026-08-31 01:45:34 | 50.81923 | 9.87380 | 59° | 88km/h | 15234m | -5.1m/s | -52.7°C | 1.1% | 122.6hPa | 2.5V | 02:03:06 | 03:12:46 | 00:00:00 | |
| AM1SDL-15 | 2026-08-31 01:45:34 | 50.81923 | 9.87380 | 60° | 95km/h | 15234m | -5.0m/s | 0°C | 0% | 0hPa | 2.5V | 00:00:00 | 03:12:46 | 00:00:00 | |
| DL4BBY-15 | 2026-08-31 01:45:33 | 50.81912 | 9.87351 | 61° | 93km/h | 15241m | -9.9m/s | -53.7°C | 0% | 0hPa | 2.5V | 00:00:00 | 00:00:00 | 00:00:00 | |
| DL1XH-15 | 2026-08-31 01:45:32 | 50.81852 | 9.87156 | 63° | 100km/h | 15301m | -9.8m/s | -52.9°C | 4% | 121.3hPa | 2.5V | 02:02:33 | 03:12:39 | 00:00:00 | |
| DL1NUX | 2026-08-31 01:45:32 | 50.81883 | 9.87258 | 65° | 89km/h | 15271m | -9.5m/s | 0°C | 0% | 0hPa | 2.4V | 00:00:00 | 03:12:42 | 00:00:00 | |
| BIOWL1-15 | 2026-08-31 01:45:30 | 50.81883 | 9.87258 | 66° | 89km/h | 15271m | -9.5m/s | -52.8°C | 1.1% | 121.8hPa | 2.4V | 02:03:06 | 03:12:42 | 00:00:00 | |
| DL1XH-west | 2026-08-31 01:45:27 | 50.81852 | 9.87156 | 64° | 100km/h | 15301m | -9.8m/s | -52.9°C | 1% | 121.3hPa | 2.5V | 02:03:06 | 03:12:39 | 00:00:00 | |
| HSKMA3-T | 2026-08-31 01:45:24 | 50.81817 | 9.87044 | 64° | 108km/h | 15326m | -8.4m/s | -52.8°C | 1% | 120.8hPa | 2.4V | 02:03:06 | 03:12:36 | 00:00:00 | |
| DJ2DS-15 | 2026-08-31 01:45:24 | 50.81817 | 9.87044 | 64° | 93km/h | 15326m | -8.3m/s | -52.8°C | 4.0% | 120.8hPa | 2.4V | 02:02:00 | 03:12:36 | 00:00:00 | |
| DL8DAS-15 | 2026-08-31 01:45:23 | 50.81817 | 9.87044 | 65° | 108km/h | 15326m | -8.4m/s | -52.8°C | 1.6% | 120.8hPa | 2.5V | 02:03:00 | 00:00:00 | 00:00:00 | |
| DL1NUX | 2026-08-31 01:45:22 | 50.81769 | 9.86891 | 62° | 104km/h | 15364m | -9.6m/s | 0°C | 0% | 0hPa | 2.5V | 00:00:00 | 03:12:32 | 00:00:00 | |
| DK5PH-5 | 2026-08-31 01:45:21 | 50.81781 | 9.86928 | 64° | 78km/h | 15354m | -10.3m/s | -52.9°C | 4.0% | 120.3hPa | 2.4V | 00:00:00 | 03:12:33 | 00:00:00 | |
| DM0DOS-11 | 2026-08-31 01:45:20 | 50.81713 | 9.86725 | 62° | 88km/h | 15406m | -6.7m/s | -53.1°C | 4.1% | 119.4hPa | 2.4V | 02:02:45 | 03:12:27 | 00:00:00 | |
| DF8AY | 2026-08-31 01:45:20 | 50.81769 | 9.86891 | 63° | 104km/h | 15364m | -9.6m/s | -53°C | 1% | 120.2hPa | 2.5V | 02:03:06 | 03:12:32 | 00:00:00 | |
| BIOWL1-15 | 2026-08-31 01:45:19 | 50.81757 | 9.86855 | 63° | 100km/h | 15373m | -8.3m/s | -53.1°C | 1% | 120hPa | 2.4V | 02:03:06 | 03:12:31 | 00:00:00 | |
| DL1XH-west | 2026-08-31 01:45:17 | 50.81734 | 9.86788 | 61° | 93km/h | 15389m | -6.6m/s | -53.2°C | 1% | 119.6hPa | 2.4V | 02:03:06 | 03:12:29 | 00:00:00 | |
| HSKMA3-T | 2026-08-31 01:45:13 | 50.81695 | 9.86661 | 68° | 88km/h | 15421m | -7.4m/s | -53.1°C | 0.9% | 119.1hPa | 2.5V | 02:03:06 | 03:12:25 | 00:00:00 | |
| DO2KSM | 2026-08-31 01:45:12 | 50.81695 | 9.86661 | 69° | 88km/h | 15422m | -7.4m/s | -53.1°C | 1.5% | 119.1hPa | 2.4V | 02:03:00 | 00:00:00 | 00:00:00 | |
| SONDE2-11 | 2026-08-31 01:45:11 | 50.81672 | 9.86564 | 70° | 84km/h | 15448m | -10.1m/s | -53.0°C | 1.4% | 118.6hPa | 2.4V | 00:00:00 | 00:00:00 | 00:00:00 | |
| DM0DOS-11 | 2026-08-31 01:45:10 | 50.81635 | 9.86404 | 67° | 84km/h | 15495m | -9.2m/s | -52.8°C | 3.9% | 117.8hPa | 2.4V | 02:02:55 | 03:12:17 | 00:00:00 | |
| DF8AY | 2026-08-31 01:45:10 | 50.81672 | 9.86564 | 71° | 86km/h | 15448m | -10.1m/s | -53°C | 0.8% | 118.6hPa | 2.4V | 02:03:06 | 03:12:22 | 00:00:00 | |
| BIOWL1-15 | 2026-08-31 01:45:09 | 50.81665 | 9.86532 | 71° | 86km/h | 15458m | -8.9m/s | -53°C | 0.8% | 118.4hPa | 2.4V | 02:03:06 | 03:12:21 | 00:00:00 | |
| DL1XH-west | 2026-08-31 01:45:06 | 50.81643 | 9.86435 | 69° | 86km/h | 15486m | -8.4m/s | -52.9°C | 0.8% | 117.9hPa | 2.4V | 02:03:06 | 03:12:18 | 00:00:00 | |
| HSKMA3-T | 2026-08-31 01:45:02 | 50.81611 | 9.86317 | 67° | 75km/h | 15524m | -6.9m/s | -52.6°C | 0.7% | 117.2hPa | 2.4V | 02:03:06 | 03:12:14 | 00:00:00 | |
| DF8AY | 2026-08-31 01:44:59 | 50.81590 | 9.86240 | 66° | 64km/h | 15548m | -10.7m/s | -52.5°C | 0.7% | 116.8hPa | 2.4V | 02:03:06 | 03:12:11 | 00:00:00 | |
| BIOWL1-15 | 2026-08-31 01:44:58 | 50.81583 | 9.86217 | 67° | 60km/h | 15559m | -11m/s | -52.5°C | 0.7% | 116.6hPa | 2.4V | 02:03:06 | 03:12:10 | 00:00:00 | |
| DL1XH-west | 2026-08-31 01:44:55 | 50.81567 | 9.86153 | 70° | 57km/h | 15586m | -11.4m/s | -52.7°C | 0.7% | 116.1hPa | 2.5V | 02:03:06 | 03:12:07 | 00:00:00 | |
| BUE01 | 2026-08-31 01:44:55 | 50.81563 | 9.86132 | 69° | 55km/h | 15596m | -9.3m/s | -52.7°C | 1.4% | 116.0hPa | 2.5V | 00:00:00 | 00:00:00 | 00:00:00 | |
| DL1XH-15 | 2026-08-31 01:44:52 | 50.81533 | 9.86000 | 65° | 47km/h | 15662m | -6.5m/s | -53.1°C | 3.8% | 114.7hPa | 2.5V | 02:03:13 | 03:11:59 | 00:00:00 | |
| HSKMA3-T | 2026-08-31 01:44:52 | 50.81554 | 9.86092 | 74° | 49km/h | 15618m | -11.3m/s | -52.9°C | 0.7% | 115.7hPa | 2.4V | 02:03:57 | 03:12:04 | 00:00:00 | |
| AA1-15 | 2026-08-31 01:44:51 | 50.81551 | 9.86073 | 72° | 49km/h | 15626m | -6.4m/s | -53°C | 0.7% | 115.3hPa | 2.4V | 02:03:57 | 03:12:03 | 00:00:00 | |
| DK5PH-5 | 2026-08-31 01:44:51 | 50.81551 | 9.86073 | 73° | 58km/h | 15626m | -6.4m/s | -52.9°C | 3.8% | 115.3hPa | 2.4V | 00:00:00 | 03:12:03 | 00:00:00 | |
| DL1XH1-15 | 2026-08-31 01:44:50 | 50.81523 | 9.85966 | 62° | 47km/h | 15679m | -8.4m/s | -53.3°C | 3.8% | 114.3hPa | 2.4V | 02:03:15 | 03:11:57 | 00:00:00 | |
| BIOWL1-15 | 2026-08-31 01:44:49 | 50.81533 | 9.86000 | 65° | 47km/h | 15662m | -6.5m/s | -53.1°C | 0.7% | 114.7hPa | 2.5V | 02:03:57 | 03:11:59 | 00:00:00 | |
| DF8AY | 2026-08-31 01:44:48 | 50.81538 | 9.86018 | 68° | 47km/h | 15654m | -10.7m/s | -53.1°C | 0.7% | 114.9hPa | 2.5V | 02:03:57 | 03:12:00 | 00:00:00 | |
| DL1XH-west | 2026-08-31 01:44:45 | 50.81523 | 9.85966 | 62° | 47km/h | 15679m | -8.4m/s | -53.3°C | 0.7% | 114.3hPa | 2.4V | 02:03:57 | 03:11:57 | 00:00:00 | |
| DL8DAS-14 | 2026-08-31 01:44:44 | 50.81512 | 9.85929 | 66° | 51km/h | 15697m | -6.5m/s | -53.4°C | 1.4% | 114.0hPa | 2.4V | 00:00:00 | 00:00:00 | 00:00:00 | |
| DL3AQ-11 | 2026-08-31 01:44:43 | 50.81507 | 9.85909 | 69° | 55km/h | 15704m | -8.2m/s | -53.3°C | 1.3% | 113.9hPa | 2.4V | 00:00:00 | 00:00:00 | 00:00:00 | |
| DL1XH-15 | 2026-08-31 01:44:42 | 50.81487 | 9.85801 | 72° | 60km/h | 15754m | -15.7m/s | -52.9°C | 3.6% | 113.1hPa | 2.4V | 02:03:23 | 03:11:49 | 00:00:00 | |
| HSKMA3-T | 2026-08-31 01:44:42 | 50.81507 | 9.85909 | 69° | 57km/h | 15704m | -8.2m/s | -53.3°C | 0.6% | 113.9hPa | 2.5V | 02:03:57 | 03:11:54 | 00:00:00 | |
| DB0UT-9 | 2026-08-31 01:44:41 | 50.81507 | 9.85909 | 70° | 57km/h | 15704m | -8.2m/s | -53.3°C | 1.3% | 113.9hPa | 2.5V | 00:00:00 | 00:00:00 | 00:00:00 | |
| DM0DOS-11 | 2026-08-31 01:44:40 | 50.81478 | 9.85755 | 68° | 60km/h | 15775m | -10.9m/s | -53°C | 3.7% | 112.7hPa | 2.5V | 02:03:25 | 03:11:47 | 00:00:00 | |
| AA1-15 | 2026-08-31 01:44:40 | 50.81498 | 9.85866 | 75° | 57km/h | 15722m | -9.7m/s | -53.3°C | 0.6% | 113.6hPa | 2.4V | 02:03:57 | 03:11:52 | 00:00:00 | |
| BIOWL1-15 | 2026-08-31 01:44:39 | 50.81487 | 9.85801 | 73° | 60km/h | 15754m | -15.7m/s | -52.9°C | 0.5% | 113.1hPa | 2.4V | 02:03:57 | 03:11:49 | 00:00:00 | |
| DF8AY | 2026-08-31 01:44:38 | 50.81491 | 9.85823 | 75° | 57km/h | 15743m | -8.4m/s | -53°C | 0.5% | 113.2hPa | 2.4V | 02:03:57 | 03:11:50 | 00:00:00 | |
| DL1XH-west | 2026-08-31 01:44:34 | 50.81472 | 9.85733 | 66° | 60km/h | 15784m | -8.1m/s | -53.1°C | 0.5% | 112.5hPa | 2.5V | 02:03:57 | 03:11:46 | 00:00:00 | |
| DL1XH-15 | 2026-08-31 01:44:33 | 50.81419 | 9.85572 | 64° | 71km/h | 15849m | -12.6m/s | -53.4°C | 4% | 111.4hPa | 2.4V | 02:03:33 | 03:11:39 | 00:00:00 | |
| HSKMA3-T | 2026-08-31 01:44:33 | 50.81450 | 9.85667 | 60° | 64km/h | 15810m | -10.5m/s | -53.2°C | 0.6% | 112hPa | 2.4V | 02:03:57 | 03:11:43 | 00:00:00 | |
| DF8AY | 2026-08-31 01:44:29 | 50.81418 | 9.85572 | 65° | 71km/h | 15849m | -12.6m/s | -53.4°C | 0.7% | 111.4hPa | 2.4V | 02:03:57 | 03:11:39 | 00:00:00 | |
| BIOWL1-15 | 2026-08-31 01:44:27 | 50.81411 | 9.85546 | 65° | 71km/h | 15858m | -6.8m/s | -53.4°C | 0.7% | 111.2hPa | 2.4V | 02:03:57 | 03:11:38 | 00:00:00 | |
| DL1XH-west | 2026-08-31 01:44:24 | 50.81398 | 9.85496 | 69° | 64km/h | 15874m | -10.5m/s | -53.5°C | 0.6% | 110.9hPa | 2.4V | 02:03:57 | 03:11:36 | 00:00:00 | |
| HSKMA3-T | 2026-08-31 01:44:21 | 50.81383 | 9.85424 | 74° | 62km/h | 15918m | -24m/s | -53.6°C | 0.5% | 110.5hPa | 2.5V | 02:03:57 | 03:11:33 | 00:00:00 | |
| DK5PH-5 | 2026-08-31 01:44:21 | 50.81383 | 9.85424 | 74° | 62km/h | 15919m | -23.9m/s | -53.6°C | 3.8% | 110.5hPa | 2.5V | 02:03:00 | 03:11:33 | 00:00:00 | |
| DL1XH1-15 | 2026-08-31 01:44:20 | 50.81358 | 9.85287 | 74° | 58km/h | 16022m | -11.4m/s | -53.4°C | 3.8% | 108.6hPa | 2.5V | 02:03:45 | 03:11:27 | 00:00:00 | |
| DO3MHA-11 | 2026-08-31 01:44:20 | 50.81378 | 9.85400 | 73° | 57km/h | 15941m | -19.7m/s | -53.7°C | 3.8% | 110.1hPa | 2.4V | 00:00:00 | 03:11:32 | 00:00:00 | |
| DL1XH-15 | 2026-08-31 01:44:19 | 50.81366 | 9.85331 | 73° | 58km/h | 15990m | -18.3m/s | -53.4°C | 3.7% | 109.2hPa | 2.4V | 02:03:43 | 03:11:29 | 00:00:00 | |
| AA1-15 | 2026-08-31 01:44:18 | 50.81370 | 9.85354 | 73° | 60km/h | 15973m | -16.8m/s | -53.6°C | 0.5% | 109.5hPa | 2.4V | 02:03:57 | 03:11:30 | 00:00:00 | |
| DF8AY | 2026-08-31 01:44:17 | 50.81366 | 9.85331 | 74° | 58km/h | 15990m | -18.3m/s | -53.4°C | 0.5% | 109.2hPa | 2.4V | 02:03:57 | 03:11:29 | 00:00:00 | |
| BIOWL1-15 | 2026-08-31 01:44:16 | 50.81362 | 9.85309 | 74° | 58km/h | 16007m | -15.9m/s | -53.4°C | 0.5% | 108.8hPa | 2.5V | 02:03:57 | 03:11:28 | 00:00:00 | |
| DL1XH-west | 2026-08-31 01:44:13 | 50.81350 | 9.85244 | 71° | 55km/h | 16046m | -11.8m/s | -53.4°C | 0.5% | 108.2hPa | 2.4V | 02:03:57 | 03:11:25 | 00:00:00 | |
| DL8DAS-14 | 2026-08-31 01:44:13 | 50.81345 | 9.85224 | 71° | 53km/h | 16057m | -8.4m/s | -53.4°C | 1.3% | 108.0hPa | 2.4V | 00:00:00 | 00:00:00 | 00:00:00 | |
| SONCRA | 2026-08-31 01:44:11 | 50.81341 | 9.85204 | 67° | 49km/h | 16066m | -9.1m/s | -53.5°C | 1.3% | 107.8hPa | 2.4V | 00:00:00 | 00:00:00 | 00:00:00 | |
| DL1XH1-15 | 2026-08-31 01:44:10 | 50.81301 | 9.85085 | 60° | 60km/h | 16119m | -10.1m/s | -53°C | 3.8% | 106.8hPa | 2.4V | 02:03:55 | 03:11:17 | 00:00:00 | |
| HSKMA3-T | 2026-08-31 01:44:10 | 50.81336 | 9.85185 | 63° | 53km/h | 16075m | -8.9m/s | -53.5°C | 0.6% | 107.6hPa | 2.4V | 02:03:57 | 03:11:22 | 00:00:00 | |
| DF8AY | 2026-08-31 01:44:07 | 50.81315 | 9.85127 | 61° | 60km/h | 16104m | -10.2m/s | -53.2°C | 0.6% | 107.1hPa | 2.4V | 02:03:57 | 03:11:19 | 00:00:00 | |
| BIOWL1-15 | 2026-08-31 01:44:05 | 50.81301 | 9.85085 | 61° | 60km/h | 16119m | -10.1m/s | -53.1°C | 0.5% | 106.8hPa | 2.4V | 02:03:57 | 03:11:17 | 00:00:00 | |
| DL1XH-west | 2026-08-31 01:44:03 | 50.81285 | 9.85041 | 59° | 64km/h | 16140m | -10.4m/s | -53°C | 0.4% | 106.5hPa | 2.5V | 02:03:57 | 03:11:15 | 00:00:00 | |
| DL4BBY-15 | 2026-08-31 01:44:03 | 50.81284 | 9.85041 | 59° | 55km/h | 16141m | -10.3m/s | -53.9°C | 0% | 0hPa | 2.4V | 00:00:00 | 00:00:00 | 00:00:00 | |
| DL1XH-15 | 2026-08-31 01:44:02 | 50.81240 | 9.84900 | 72° | 68km/h | 16219m | -12.4m/s | -53°C | 3.8% | 105.2hPa | 2.4V | 02:04:03 | 03:11:09 | 00:00:00 | |
| DF7PN | 2026-08-31 01:44:02 | 50.81267 | 9.84995 | 58° | 68km/h | 16165m | -11.0m/s | -53.0°C | 1.2% | 106.1hPa | 2.5V | 00:00:00 | 00:00:00 | 00:00:00 | |
| DL1XH1-15 | 2026-08-31 01:44:00 | 50.81232 | 9.84847 | 79° | 69km/h | 16241m | -8.3m/s | -52.9°C | 3.8% | 104.8hPa | 2.5V | 02:04:05 | 03:11:07 | 00:00:00 | |
| HSKMA3-T | 2026-08-31 01:43:59 | 50.81252 | 9.84949 | 68° | 66km/h | 16193m | -18.4m/s | -53°C | 0.4% | 105.8hPa | 2.4V | 02:04:48 | 03:11:11 | 00:00:00 | |
| DF8AY | 2026-08-31 01:43:57 | 50.81240 | 9.84900 | 73° | 68km/h | 16220m | -12.4m/s | -53.1°C | 0.4% | 105.3hPa | 2.4V | 02:04:48 | 03:11:09 | 00:00:00 | |
| AA1-15 | 2026-08-31 01:43:56 | 50.81235 | 9.84874 | 76° | 68km/h | 16232m | -12m/s | -53°C | 0.5% | 105hPa | 2.5V | 02:04:48 | 03:11:08 | 00:00:00 | |
| BIOWL1-15 | 2026-08-31 01:43:54 | 50.81229 | 9.84821 | 82° | 68km/h | 16250m | -9m/s | -52.9°C | 0.5% | 104.6hPa | 2.4V | 02:04:48 | 03:11:06 | 00:00:00 | |
| DL1XH-west | 2026-08-31 01:43:52 | 50.81225 | 9.84769 | 84° | 60km/h | 16267m | -10.7m/s | -52.7°C | 0.6% | 104.3hPa | 2.4V | 02:04:48 | 03:11:04 | 00:00:00 | |
| HSKMA3-T | 2026-08-31 01:43:48 | 50.81217 | 9.84677 | 74° | 58km/h | 16299m | -7m/s | -52.4°C | 0.5% | 103.8hPa | 2.4V | 02:04:48 | 03:11:00 | 00:00:00 | |
| AA1-15 | 2026-08-31 01:43:47 | 50.81206 | 9.84636 | 61° | 55km/h | 16313m | -6.1m/s | -52.2°C | 0.4% | 103.6hPa | 2.4V | 02:04:48 | 03:10:58 | 00:00:00 | |
| BIOWL9-15 | 2026-08-31 01:43:45 | 50.81199 | 9.84618 | 55° | 47km/h | 16324m | -15.8m/s | -52.0°C | 1.1% | 103.5hPa | 2.4V | 00:00:00 | 00:00:00 | 00:00:00 | |
| BIOWL1-15 | 2026-08-31 01:43:43 | 50.81162 | 9.84515 | 74° | 40km/h | 16425m | -14m/s | -50.8°C | 0.1% | 101.9hPa | 2.4V | 02:04:48 | 03:10:50 | 00:00:00 | |
| DL1XH-west | 2026-08-31 01:43:41 | 50.81174 | 9.84559 | 64° | 40km/h | 16380m | -17.9m/s | -51°C | 0.1% | 102.7hPa | 2.4V | 02:04:48 | 03:10:53 | 00:00:00 | |
| HSKMA3-T | 2026-08-31 01:43:37 | 50.81160 | 9.84499 | 78° | 40km/h | 16438m | -14m/s | -50.9°C | 0.1% | 101.7hPa | 2.4V | 02:04:48 | 03:10:49 | 00:00:00 | |
| DF8AY | 2026-08-31 01:43:36 | 50.81158 | 9.84484 | 81° | 38km/h | 16452m | -13.9m/s | -51°C | 0.1% | 101.5hPa | 2.5V | 02:04:48 | 03:10:48 | 00:00:00 | |
| AA1-15 | 2026-08-31 01:43:35 | 50.81156 | 9.84469 | 80° | 38km/h | 16464m | -11.6m/s | -51.2°C | 0.2% | 101.3hPa | 2.5V | 02:04:48 | 03:10:47 | 00:00:00 | |
| DL1ZP-14 | 2026-08-31 01:43:35 | 50.81154 | 9.84454 | 74° | 38km/h | 16477m | -13.7m/s | -51.3°C | 1.1% | 101.1hPa | 2.4V | 00:00:00 | 00:00:00 | 00:00:00 | |
| DL4BBY-15 | 2026-08-31 01:43:33 | 50.81151 | 9.84439 | 74° | 38km/h | 16489m | -10.1m/s | -52.3°C | 0% | 0hPa | 2.4V | 00:00:00 | 00:00:00 | 00:00:00 | |
| DL1XH-15 | 2026-08-31 01:43:32 | 50.81124 | 9.84340 | 66° | 49km/h | 16550m | -10.8m/s | -51.8°C | 3.5% | 99.9hPa | 2.4V | 02:04:33 | 03:10:39 | 00:00:00 | |
| BIOWL1-15 | 2026-08-31 01:43:32 | 50.81148 | 9.84425 | 67° | 40km/h | 16499m | -11.9m/s | -51.4°C | 0.3% | 100.7hPa | 2.4V | 02:04:48 | 03:10:44 | 00:00:00 | |
| DL1XH-west | 2026-08-31 01:43:30 | 50.81139 | 9.84393 | 65° | 47km/h | 16520m | -11.2m/s | -51.6°C | 0.3% | 100.4hPa | 2.5V | 02:04:48 | 03:10:42 | 00:00:00 | |
| HSKMA3-T | 2026-08-31 01:43:27 | 50.81124 | 9.84340 | 66° | 49km/h | 16550m | -10.8m/s | -51.8°C | 0.3% | 99.9hPa | 2.4V | 02:04:48 | 03:10:39 | 00:00:00 | |
| DF8AY | 2026-08-31 01:43:26 | 50.81119 | 9.84322 | 62° | 49km/h | 16561m | -12.3m/s | -51.9°C | 0.3% | 99.8hPa | 2.4V | 02:04:48 | 03:10:38 | 00:00:00 | |
| AA1-15 | 2026-08-31 01:43:24 | 50.81107 | 9.84290 | 58° | 46km/h | 16588m | -14m/s | -51.9°C | 0.3% | 99.4hPa | 2.4V | 02:04:48 | 03:10:36 | 00:00:00 | |
| BIOWL1-15 | 2026-08-31 01:43:24 | 50.81096 | 9.84261 | 59° | 40km/h | 16612m | -9.1m/s | -51.7°C | 0.4% | 98.9hPa | 2.5V | 02:04:48 | 03:10:34 | 00:00:00 | |
| DJ2DS-15 | 2026-08-31 01:43:24 | 50.81107 | 9.84290 | 59° | 35km/h | 16588m | -14.0m/s | -51.9°C | 3.6% | 99.3hPa | 2.4V | 02:04:00 | 03:10:36 | 00:00:00 | |
| DL3AQ-11 | 2026-08-31 01:43:23 | 50.81102 | 9.84275 | 57° | 40km/h | 16601m | -13.4m/s | -51.9°C | 1.1% | 99.1hPa | 2.4V | 00:00:00 | 00:00:00 | 00:00:00 | |
| BUE01 | 2026-08-31 01:43:22 | 50.81091 | 9.84249 | 57° | 33km/h | 16620m | -6.9m/s | -51.5°C | 1.1% | 98.8hPa | 2.4V | 00:00:00 | 00:00:00 | 00:00:00 | |
| DK5PH-5 | 2026-08-31 01:43:21 | 50.81091 | 9.84249 | 58° | 42km/h | 16620m | -6.8m/s | -51.4°C | 3.5% | 98.7hPa | 2.4V | 00:00:00 | 03:10:33 | 00:00:00 | |
| DL1XH1-15 | 2026-08-31 01:43:20 | 50.81062 | 9.84199 | 39° | 35km/h | 16674m | -8.5m/s | -50.3°C | 3.1% | 98hPa | 2.4V | 02:04:45 | 03:10:27 | 00:00:00 | |
| DL1XH-west | 2026-08-31 01:43:20 | 50.81087 | 9.84238 | 55° | 29km/h | 16626m | -7m/s | -51.3°C | 0.2% | 98.7hPa | 2.4V | 02:04:48 | 03:10:32 | 00:00:00 | |
| HSKMA3-T | 2026-08-31 01:43:17 | 50.81074 | 9.84215 | 43° | 27km/h | 16654m | -11.9m/s | -50.7°C | 0.1% | 98.3hPa | 2.5V | 02:04:48 | 03:10:29 | 00:00:00 | |
| DF8AY | 2026-08-31 01:43:16 | 50.81069 | 9.84207 | 40° | 31km/h | 16665m | -10.3m/s | -50.4°C | 0.1% | 98.2hPa | 2.5V | 02:04:48 | 03:10:28 | 00:00:00 | |
| AA1-15 | 2026-08-31 01:43:13 | 50.81048 | 9.84181 | 41° | 38km/h | 16693m | -11.4m/s | -50.3°C | 0% | 97.7hPa | 2.4V | 02:04:48 | 03:10:25 | 00:00:00 | |
| BIOWL1-15 | 2026-08-31 01:43:13 | 50.81032 | 9.84161 | 40° | 42km/h | 16715m | -10.2m/s | -50.4°C | 0.1% | 97.4hPa | 2.4V | 02:05:39 | 03:10:23 | 00:00:00 | |
| DL1XH-15 | 2026-08-31 01:43:12 | 50.81001 | 9.84124 | 36° | 37km/h | 16751m | -10m/s | -50.7°C | 3.2% | 96.8hPa | 2.4V | 02:04:53 | 03:10:19 | 00:00:00 | |
| DL1XH-west | 2026-08-31 01:43:10 | 50.81024 | 9.84151 | 40° | 40km/h | 16724m | -8.7m/s | -50.5°C | 0.1% | 97.2hPa | 2.5V | 02:05:39 | 03:10:22 | 00:00:00 | |
| HSKMA3-T | 2026-08-31 01:43:06 | 50.80994 | 9.84115 | 35° | 35km/h | 16761m | -10.5m/s | -50.8°C | 0.2% | 96.7hPa | 2.4V | 02:05:39 | 03:10:18 | 00:00:00 | |
| DF8AY | 2026-08-31 01:43:05 | 50.80986 | 9.84108 | 28° | 35km/h | 16771m | -11.4m/s | -50.9°C | 0.2% | 96.5hPa | 2.4V | 02:05:39 | 03:10:17 | 00:00:00 | |
| BIOWL1-15 | 2026-08-31 01:43:03 | 50.80945 | 9.84090 | 12° | 49km/h | 16821m | -10.8m/s | -50.9°C | 0.1% | 95.9hPa | 2.4V | 02:05:39 | 03:10:13 | 00:00:00 | |
| DL4BBY-15 | 2026-08-31 01:43:03 | 50.80968 | 9.84098 | 16° | 55km/h | 16795m | -11.6m/s | -51.9°C | 0% | 0hPa | 2.5V | 00:00:00 | 00:00:00 | 00:00:00 | |
| DL1XH-15 | 2026-08-31 01:43:02 | 50.80891 | 9.84069 | 20° | 58km/h | 16868m | -11.4m/s | -51.2°C | 3.2% | 95.2hPa | 2.5V | 02:05:03 | 03:10:09 | 00:00:00 | |
| AA1-15 | 2026-08-31 01:43:02 | 50.80957 | 9.84094 | 13° | 47km/h | 16809m | -14.6m/s | -50.8°C | 0.1% | 96.1hPa | 2.5V | 02:05:39 | 03:10:14 | 00:00:00 | |
| DJ2DS-15 | 2026-08-31 01:43:01 | 50.80945 | 9.84090 | 11° | 47km/h | 16821m | -10.8m/s | -50.9°C | 1.0% | 95.9hPa | 2.4V | 00:00:00 | 00:00:00 | 00:00:00 | |
| DL1XH1-15 | 2026-08-31 01:43:00 | 50.80865 | 9.84051 | 24° | 58km/h | 16893m | -11.3m/s | -51.3°C | 3.3% | 94.8hPa | 2.4V | 02:05:05 | 03:10:07 | 00:00:00 | |
| DL1XH-west | 2026-08-31 01:42:59 | 50.80919 | 9.84082 | 12° | 55km/h | 16843m | -8.4m/s | -51°C | 0.1% | 95.5hPa | 2.4V | 02:05:39 | 03:10:11 | 00:00:00 | |
| HSKMA3-T | 2026-08-31 01:42:56 | 50.80878 | 9.84060 | 22° | 57km/h | 16881m | -14.2m/s | -51.2°C | 0.2% | 95.1hPa | 2.5V | 02:05:39 | 03:10:08 | 00:00:00 | |
| DF8AY | 2026-08-31 01:42:54 | 50.80851 | 9.84041 | 27° | 57km/h | 16904m | -9m/s | -51.4°C | 0.2% | 94.6hPa | 2.4V | 02:05:39 | 03:10:06 | 00:00:00 | |
| DL1XH-15 | 2026-08-31 01:42:52 | 50.80755 | 9.83970 | 18° | 64km/h | 16990m | -9.4m/s | -52°C | 3.4% | 93.5hPa | 2.4V | 02:05:13 | 03:09:59 | 00:00:00 | |
| BIOWL1-15 | 2026-08-31 01:42:52 | 50.80799 | 9.83998 | 27° | 60km/h | 16951m | -12.2m/s | -51.8°C | 0.2% | 94hPa | 2.5V | 02:05:39 | 03:10:02 | 00:00:00 | |
| BUE01 | 2026-08-31 01:42:51 | 50.80799 | 9.83998 | 26° | 60km/h | 16951m | -12.2m/s | -51.8°C | 1.0% | 94.0hPa | 2.4V | 00:00:00 | 00:00:00 | 00:00:00 | |
| DL1XH1-15 | 2026-08-31 01:42:50 | 50.80726 | 9.83954 | 20° | 58km/h | 17012m | -10.7m/s | -52.1°C | 3.4% | 93.2hPa | 2.4V | 02:05:15 | 03:09:57 | 00:00:00 | |
| DL1XH-west | 2026-08-31 01:42:49 | 50.80785 | 9.83988 | 24° | 62km/h | 16963m | -11.8m/s | -51.8°C | 0.2% | 93.8hPa | 2.5V | 02:05:39 | 03:10:01 | 00:00:00 | |
| HSKMA3-T | 2026-08-31 01:42:46 | 50.80740 | 9.83962 | 19° | 60km/h | 17001m | -12.2m/s | -52.1°C | 0.3% | 93.3hPa | 2.4V | 02:05:39 | 03:09:58 | 00:00:00 | |
| DF8AY | 2026-08-31 01:42:44 | 50.80713 | 9.83946 | 22° | 57km/h | 17022m | -7m/s | -52.2°C | 0.2% | 93hPa | 2.5V | 02:05:39 | 03:09:56 | 00:00:00 | |
| DJ2DS-15 | 2026-08-31 01:42:44 | 50.80712 | 9.83945 | 23° | 49km/h | 17022m | -7.0m/s | -52.1°C | 3.4% | 93.0hPa | 2.5V | 00:00:00 | 03:09:56 | 00:00:00 | |
| DL3AQ-11 | 2026-08-31 01:42:43 | 50.80700 | 9.83937 | 26° | 47km/h | 17031m | -11.6m/s | -52.2°C | 1.1% | 92.9hPa | 2.5V | 00:00:00 | 00:00:00 | 00:00:00 | |
| DL1XH-15 | 2026-08-31 01:42:42 | 50.80642 | 9.83865 | 42° | 57km/h | 17090m | -8.8m/s | -52.7°C | 3.6% | 92hPa | 2.5V | 02:05:23 | 03:09:49 | 00:00:00 | |
| BIOWL1-15 | 2026-08-31 01:42:39 | 50.80662 | 9.83895 | 44° | 49km/h | 17073m | -9.1m/s | -52.5°C | 0.4% | 92.3hPa | 2.4V | 02:05:39 | 03:09:51 | 00:00:00 | |
| DL1XH-west | 2026-08-31 01:42:38 | 50.80653 | 9.83880 | 44° | 53km/h | 17081m | -7.6m/s | -52.6°C | 0.4% | 92.1hPa | 2.4V | 02:05:39 | 03:09:50 | 00:00:00 | |
| DL1XH1-15 | 2026-08-31 01:42:36 | 50.80620 | 9.83835 | 41° | 58km/h | 17108m | -6.9m/s | -52.8°C | 3.7% | 91.7hPa | 2.4V | 02:05:25 | 03:09:47 | 00:00:00 | |
| HSKMA3-T | 2026-08-31 01:42:35 | 50.80620 | 9.83835 | 41° | 58km/h | 17108m | -6.9m/s | -52.8°C | 0.5% | 91.7hPa | 2.4V | 02:05:39 | 03:09:47 | 00:00:00 | |
| DF8AY | 2026-08-31 01:42:34 | 50.80599 | 9.83805 | 44° | 51km/h | 17122m | -9.3m/s | -52.8°C | 0.4% | 91.5hPa | 2.4V | 02:05:39 | 03:09:45 | 00:00:00 | |
| DL1XH-west | 2026-08-31 01:42:28 | 50.80557 | 9.83738 | 40° | 42km/h | 17196m | -17.1m/s | -53°C | 0.4% | 90.6hPa | 2.4V | 02:05:39 | 03:09:40 | 00:00:00 | |
| DM0DOS-11 | 2026-08-31 01:42:27 | 50.80532 | 9.83707 | 35° | 46km/h | 17246m | -15.2m/s | -53.2°C | 3.6% | 89.8hPa | 2.4V | 02:05:35 | 03:09:37 | 00:00:00 | |
| HSKMA3-T | 2026-08-31 01:42:25 | 50.80532 | 9.83707 | 36° | 46km/h | 17246m | -15.2m/s | -53.2°C | 0.4% | 89.8hPa | 2.4V | 02:05:39 | 03:09:37 | 00:00:00 | |
| AA1-15 | 2026-08-31 01:42:24 | 50.80522 | 9.83696 | 35° | 46km/h | 17260m | -14.6m/s | -53.3°C | 0.4% | 89.7hPa | 2.5V | 02:05:39 | 03:09:36 | 00:00:00 | |
| DF8AY | 2026-08-31 01:42:23 | 50.80513 | 9.83685 | 37° | 47km/h | 17275m | -13.9m/s | -53.3°C | 0.4% | 89.5hPa | 2.5V | 02:05:39 | 03:09:35 | 00:00:00 | |
| DL1XH-15 | 2026-08-31 01:42:23 | 50.80445 | 9.83606 | 40° | 58km/h | 17361m | -10.9m/s | -53.5°C | 3.6% | 88.2hPa | 2.5V | 02:05:43 | 03:09:29 | 00:00:00 | |
| DL1XH-west | 2026-08-31 01:42:18 | 50.80456 | 9.83621 | 40° | 58km/h | 17348m | -14.7m/s | -53.4°C | 0.4% | 88.5hPa | 2.4V | 02:06:30 | 03:09:30 | 00:00:00 | |
| BIOWL1-15 | 2026-08-31 01:42:17 | 50.80445 | 9.83606 | 40° | 58km/h | 17361m | -10.9m/s | -53.5°C | 0.4% | 88.2hPa | 2.5V | 02:06:30 | 03:09:29 | 00:00:00 | |
| DM0DOS-11 | 2026-08-31 01:42:16 | 50.80424 | 9.83577 | 40° | 51km/h | 17382m | -12m/s | -53.6°C | 3.6% | 87.9hPa | 2.4V | 02:05:45 | 03:09:27 | 00:00:00 | |
| HSKMA3-T | 2026-08-31 01:42:14 | 50.80415 | 9.83565 | 39° | 47km/h | 17392m | -8.4m/s | -53.6°C | 0.5% | 87.8hPa | 2.4V | 02:06:30 | 03:09:26 | 00:00:00 | |
| DF8AY | 2026-08-31 01:42:12 | 50.80397 | 9.83547 | 26° | 38km/h | 17410m | -10m/s | -53.7°C | 0.4% | 87.5hPa | 2.4V | 02:06:30 | 03:09:24 | 00:00:00 | |
| DO9LL-15 | 2026-08-31 01:42:12 | 50.80397 | 9.83547 | 26° | 37km/h | 17410m | -10.0m/s | -53.7°C | 3.7% | 87.5hPa | 2.4V | 02:05:00 | 03:09:24 | 00:00:00 | |
| DD1CC8 | 2026-08-31 01:42:11 | 50.80388 | 9.83541 | 22° | 35km/h | 17421m | -11.6m/s | -53.8°C | 1.2% | 87.4hPa | 2.5V | 00:00:00 | 00:00:00 | 00:00:00 | |
| DO3MHA-11 | 2026-08-31 01:42:10 | 50.80380 | 9.83536 | 26° | 42km/h | 17432m | -11.3m/s | -53.8°C | 3.7% | 87.2hPa | 2.5V | 02:05:00 | 03:09:22 | 00:00:00 | |
| DL1XH-15 | 2026-08-31 01:42:08 | 50.80355 | 9.83515 | 34° | 38km/h | 17465m | -11.7m/s | -54.2°C | 3.9% | 86.8hPa | 2.4V | 02:05:53 | 03:09:19 | 00:00:00 | |
| DL1XH-west | 2026-08-31 01:42:07 | 50.80356 | 9.83515 | 35° | 38km/h | 17465m | -11.7m/s | -54.2°C | 0.6% | 86.8hPa | 2.4V | 02:06:30 | 03:09:19 | 00:00:00 | |
| BIOWL1-15 | 2026-08-31 01:42:06 | 50.80347 | 9.83505 | 39° | 44km/h | 17477m | -11.9m/s | -54.3°C | 0.6% | 86.7hPa | 2.4V | 02:06:30 | 03:09:18 | 00:00:00 | |
| HSKMA3-T | 2026-08-31 01:42:03 | 50.80321 | 9.83466 | 48° | 49km/h | 17510m | -11.7m/s | -54.5°C | 0.6% | 86.2hPa | 2.5V | 02:06:30 | 03:09:15 | 00:00:00 | |
| DF8AY | 2026-08-31 01:42:01 | 50.80306 | 9.83438 | 53° | 42km/h | 17539m | -13.7m/s | -54.3°C | 0.6% | 85.9hPa | 2.4V | 02:06:30 | 03:09:13 | 00:00:00 | |
| DF7PN | 2026-08-31 01:41:57 | 50.80290 | 9.83393 | 67° | 27km/h | 17588m | -8.7m/s | -54.6°C | 1.2% | 85.2hPa | 2.4V | 00:00:00 | 00:00:00 | 00:00:00 | |
| DL1XH1-15 | 2026-08-31 01:41:56 | 50.80285 | 9.83371 | 72° | 29km/h | 17612m | -11.6m/s | -54.8°C | 4.1% | 84.9hPa | 2.4V | 02:06:05 | 03:09:07 | 00:00:00 | |
| BIOWL1-15 | 2026-08-31 01:41:56 | 50.80287 | 9.83382 | 73° | 27km/h | 17599m | -12.9m/s | -54.7°C | 0.7% | 85.1hPa | 2.5V | 02:06:30 | 03:09:08 | 00:00:00 | |
| HSKMA3-T | 2026-08-31 01:41:53 | 50.80281 | 9.83347 | 77° | 33km/h | 17636m | -8.6m/s | -54.9°C | 0.8% | 84.5hPa | 2.4V | 02:06:30 | 03:09:05 | 00:00:00 | |
| DF8AY | 2026-08-31 01:41:50 | 50.80266 | 9.83308 | 44° | 46km/h | 17661m | -11.4m/s | -54.6°C | 0.6% | 84.2hPa | 2.5V | 02:06:30 | 03:09:02 | 00:00:00 | |
| DL1XH-west | 2026-08-31 01:41:45 | 50.80223 | 9.83256 | 46° | 37km/h | 17714m | -15.9m/s | -54.1°C | 0.7% | 83.5hPa | 2.4V | 02:06:30 | 03:08:57 | 00:00:00 | |
| HSKMA3-T | 2026-08-31 01:41:42 | 50.80206 | 9.83220 | 59° | 44km/h | 17747m | -9.2m/s | -53.9°C | 0.5% | 83hPa | 2.4V | 02:06:30 | 03:08:54 | 00:00:00 | |
| DF8AY | 2026-08-31 01:41:39 | 50.80123 | 9.83002 | 65° | 44km/h | 17886m | -9.6m/s | -53.7°C | 0.6% | 81.2hPa | 2.5V | 02:06:30 | 03:08:42 | 00:00:00 | |
| SP3BTT-10 | 2026-08-31 01:41:38 | 50.80177 | 9.83150 | 54° | 35km/h | 17794m | -7.9m/s | -53.7°C | 4.0% | 82.3hPa | 2.4V | 00:00:00 | 00:00:00 | 00:00:00 | |
| AA1-15 | 2026-08-31 01:41:38 | 50.80177 | 9.83150 | 54° | 60km/h | 17793m | -7.9m/s | -53.7°C | 0.6% | 82.4hPa | 2.5V | 02:07:21 | 03:08:50 | 00:00:00 | |
| DM0DOS-11 | 2026-08-31 01:41:37 | 50.80151 | 9.83094 | 56° | 55km/h | 17826m | -12.4m/s | -53.6°C | 3.9% | 82.1hPa | 2.4V | 02:06:25 | 03:08:47 | 00:00:00 | |
| DL1XH-west | 2026-08-31 01:41:35 | 50.80151 | 9.83094 | 56° | 57km/h | 17826m | -12.4m/s | -53.7°C | 0.5% | 82.1hPa | 2.4V | 02:06:30 | 03:08:47 | 00:00:00 | |
| HSKMA3-T | 2026-08-31 01:41:32 | 50.80132 | 9.83037 | 66° | 53km/h | 17866m | -11.7m/s | -53.7°C | 0.6% | 81.5hPa | 2.4V | 02:06:30 | 03:08:44 | 00:00:00 | |
| DL1XH-15 | 2026-08-31 01:41:30 | 50.80106 | 9.82955 | 62° | 47km/h | 17912m | -10.5m/s | -53.3°C | 3.9% | 80.9hPa | 2.4V | 02:06:33 | 03:08:39 | 00:00:00 | |
| DO3MHA-11 | 2026-08-31 01:41:30 | 50.80123 | 9.83002 | 66° | 51km/h | 17886m | -9.5m/s | -53.6°C | 4.0% | 81.2hPa | 2.4V | 00:00:00 | 03:08:42 | 00:00:00 | |
| DB0UT-9 | 2026-08-31 01:41:29 | 50.80123 | 9.83002 | 66° | 44km/h | 17886m | -9.6m/s | -53.7°C | 1.2% | 81.2hPa | 2.4V | 02:06:00 | 00:00:00 | 00:00:00 | |
| DL8DAS-15 | 2026-08-31 01:41:28 | 50.80118 | 9.82986 | 63° | 44km/h | 17894m | -10.0m/s | -53.5°C | 1.2% | 81.1hPa | 2.4V | 00:00:00 | 00:00:00 | 00:00:00 | |
| DL1XH1-15 | 2026-08-31 01:41:27 | 50.80094 | 9.82920 | 65° | 51km/h | 17939m | -11.8m/s | -53°C | 3.8% | 80.6hPa | 2.4V | 02:06:35 | 03:08:37 | 00:00:00 | |
| DL1XH-west | 2026-08-31 01:41:24 | 50.80089 | 9.82901 | 67° | 53km/h | 17950m | -10m/s | -53°C | 0.5% | 80.4hPa | 2.5V | 02:07:21 | 03:08:36 | 00:00:00 | |
| HSKMA3-T | 2026-08-31 01:41:22 | 50.80078 | 9.82860 | 67° | 58km/h | 17968m | -7.3m/s | -52.7°C | 0.3% | 80.2hPa | 2.4V | 02:07:21 | 03:08:34 | 00:00:00 | |
| DK5PH-5 | 2026-08-31 01:41:21 | 50.80071 | 9.82839 | 65° | 38km/h | 17980m | -16.1m/s | -52.3°C | 3.5% | 80.1hPa | 2.4V | 02:06:00 | 03:08:33 | 00:00:00 | |
| DL1XH-15 | 2026-08-31 01:41:20 | 50.80047 | 9.82760 | 61° | 51km/h | 18037m | -16.7m/s | -51.9°C | 3.4% | 79.5hPa | 2.5V | 02:06:43 | 03:08:29 | 00:00:00 | |
| DF8AY | 2026-08-31 01:41:19 | 50.80059 | 9.82798 | 65° | 53km/h | 18006m | -13.6m/s | -52.1°C | 0.2% | 79.8hPa | 2.4V | 02:07:21 | 03:08:31 | 00:00:00 | |
| DL1XH1-15 | 2026-08-31 01:41:17 | 50.80035 | 9.82726 | 56° | 47km/h | 18059m | -12.2m/s | -51.8°C | 3.4% | 79.1hPa | 2.4V | 02:06:45 | 03:08:27 | 00:00:00 | |
| DL1XH-west | 2026-08-31 01:41:14 | 50.80029 | 9.82710 | 59° | 46km/h | 18069m | -9.1m/s | -51.9°C | 0.3% | 79hPa | 2.4V | 02:07:21 | 03:08:26 | 00:00:00 | |
| HSKMA3-T | 2026-08-31 01:41:11 | 50.80014 | 9.82667 | 61° | 42km/h | 18104m | -16.2m/s | -52°C | 0.3% | 78.7hPa | 2.5V | 02:07:21 | 03:08:23 | 00:00:00 | |
| AA1-15 | 2026-08-31 01:41:09 | 50.80005 | 9.82637 | 67° | 40km/h | 18129m | -15.5m/s | -51.9°C | 0.2% | 78.3hPa | 2.4V | 02:07:21 | 03:08:21 | 00:00:00 | |
| DF8AY | 2026-08-31 01:41:08 | 50.80001 | 9.82622 | 68° | 42km/h | 18143m | -11.7m/s | -52°C | 0.2% | 78.1hPa | 2.4V | 02:07:21 | 03:08:20 | 00:00:00 | |
| DM0DOS-11 | 2026-08-31 01:41:06 | 50.79989 | 9.82577 | 66° | 42km/h | 18176m | -16.4m/s | -52°C | 3.3% | 77.8hPa | 2.4V | 02:06:55 | 03:08:17 | 00:00:00 | |
| BIOWL1-15 | 2026-08-31 01:41:03 | 50.79982 | 9.82548 | 67° | 37km/h | 18209m | -15.1m/s | -52.1°C | 0.2% | 77.3hPa | 2.5V | 02:07:21 | 03:08:15 | 00:00:00 | |
| DL1XH-15 | 2026-08-31 01:41:03 | 50.79966 | 9.82494 | 57° | 20km/h | 18297m | -14.8m/s | -52.4°C | 3.3% | 76.3hPa | 2.5V | 02:07:03 | 03:08:09 | 00:00:00 | |
| HSKMA3-T | 2026-08-31 01:41:01 | 50.79977 | 9.82525 | 66° | 27km/h | 18242m | -17.6m/s | -52.1°C | 0.1% | 77hPa | 2.4V | 02:07:21 | 03:08:13 | 00:00:00 | |
| DF8AY | 2026-08-31 01:40:58 | 50.79969 | 9.82500 | 55° | 18km/h | 18284m | -12.6m/s | -52.3°C | 0.1% | 76.4hPa | 2.5V | 02:07:21 | 03:08:10 | 00:00:00 | |
| DL1XH-west | 2026-08-31 01:40:53 | 50.79946 | 9.82467 | 23° | 33km/h | 18350m | -13.7m/s | -52.7°C | 0.2% | 75.7hPa | 2.4V | 02:07:21 | 03:08:05 | 00:00:00 | |
| BIOWL1-15 | 2026-08-31 01:40:52 | 50.79939 | 9.82462 | 23° | 31km/h | 18363m | -12.9m/s | -52.8°C | 0.3% | 75.5hPa | 2.4V | 02:07:21 | 03:08:04 | 00:00:00 | |
| HSKMA3-T | 2026-08-31 01:40:51 | 50.79932 | 9.82457 | 25° | 31km/h | 18376m | -13.6m/s | -52.9°C | 0.4% | 75.4hPa | 2.5V | 02:07:21 | 03:08:03 | 00:00:00 | |
| AA1-15 | 2026-08-31 01:40:47 | 50.79907 | 9.82429 | 42° | 35km/h | 18423m | -12.8m/s | -53.3°C | 0.4% | 74.8hPa | 2.4V | 02:07:21 | 03:07:59 | 00:00:00 | |
| BUE01 | 2026-08-31 01:40:46 | 50.79900 | 9.82419 | 43° | 38km/h | 18435m | -12.5m/s | -53.4°C | 1.1% | 74.7hPa | 2.4V | 00:00:00 | 00:00:00 | 00:00:00 | |
| DL1XH-west | 2026-08-31 01:40:43 | 50.79876 | 9.82381 | 40° | 49km/h | 18473m | -16.3m/s | -53.6°C | 0.4% | 74.3hPa | 2.4V | 02:07:21 | 03:07:55 | 00:00:00 | |
| BIOWL1-15 | 2026-08-31 01:40:41 | 50.79857 | 9.82358 | 34° | 46km/h | 18508m | -19.6m/s | -53.9°C | 0.4% | 73.9hPa | 2.4V | 02:07:21 | 03:07:53 | 00:00:00 | |
| HSKMA3-T | 2026-08-31 01:40:40 | 50.79847 | 9.82348 | 33° | 46km/h | 18527m | -16.9m/s | -54°C | 0.5% | 73.7hPa | 2.4V | 02:07:21 | 03:07:52 | 00:00:00 | |
| AA1-15 | 2026-08-31 01:40:36 | 50.79814 | 9.82315 | 34° | 27km/h | 18578m | -11.1m/s | -54.1°C | 0.6% | 73hPa | 2.4V | 02:08:12 | 03:07:48 | 00:00:00 | |
| DL1XH-west | 2026-08-31 01:40:32 | 50.79794 | 9.82291 | 42° | 26km/h | 18625m | -13.3m/s | -53.7°C | 0.5% | 72.5hPa | 2.4V | 02:08:12 | 03:07:44 | 00:00:00 | |
| HSKMA3-T | 2026-08-31 01:40:30 | 50.79783 | 9.82275 | 48° | 33km/h | 18648m | -10.6m/s | -53.8°C | 0.5% | 72.2hPa | 2.5V | 02:08:12 | 03:07:42 | 00:00:00 | |
| DO3MHA-11 | 2026-08-31 01:40:30 | 50.79783 | 9.82275 | 48° | 27km/h | 18649m | -10.5m/s | -53.7°C | 3.8% | 72.1hPa | 2.4V | 00:00:00 | 03:07:42 | 00:00:00 | |
| DL1XH-15 | 2026-08-31 01:40:29 | 50.79768 | 9.82241 | 65° | 35km/h | 18681m | -13.6m/s | -53.6°C | 3.8% | 71.9hPa | 2.4V | 02:07:33 | 03:07:39 | 00:00:00 | |
| AA1-15 | 2026-08-31 01:40:25 | 50.79763 | 9.82217 | 79° | 26km/h | 18706m | -16.8m/s | -53.6°C | 0.5% | 71.6hPa | 2.5V | 02:08:12 | 03:07:37 | 00:00:00 | |
| DF8AY | 2026-08-31 01:40:22 | 50.79762 | 9.82192 | 78° | 13km/h | 18742m | -14.4m/s | -53.6°C | 0.5% | 71.2hPa | 2.4V | 02:08:12 | 03:07:34 | 00:00:00 | |
| DL1XH-west | 2026-08-31 01:40:21 | 50.79761 | 9.82187 | 80° | 13km/h | 18754m | -10m/s | -53.6°C | 0.5% | 71hPa | 2.4V | 02:08:12 | 03:07:33 | 00:00:00 | |
| BIOWL1-15 | 2026-08-31 01:40:20 | 50.79760 | 9.82183 | 57° | 9km/h | 18764m | -9.8m/s | -53.7°C | 0.6% | 70.9hPa | 2.4V | 02:08:12 | 03:07:32 | 00:00:00 | |
| DO3MHA-11 | 2026-08-31 01:40:20 | 50.79760 | 9.82183 | 57° | 13km/h | 18764m | -9.8m/s | -53.6°C | 3.9% | 70.9hPa | 2.5V | 00:00:00 | 03:07:32 | 00:00:00 | |
| DL1XH-15 | 2026-08-31 01:40:19 | 50.79753 | 9.82175 | 37° | 16km/h | 18791m | -10.7m/s | -53.7°C | 3.9% | 70.6hPa | 2.5V | 02:07:43 | 03:07:29 | 00:00:00 | |
| HSKMA3-T | 2026-08-31 01:40:19 | 50.79759 | 9.82181 | 35° | 9km/h | 18773m | -6.4m/s | -53.7°C | 0.5% | 70.8hPa | 2.4V | 02:08:12 | 03:07:31 | 00:00:00 | |
| AA1-15 | 2026-08-31 01:40:14 | 50.79746 | 9.82162 | 56° | 11km/h | 18831m | -13.3m/s | -53.8°C | 0.5% | 70.2hPa | 2.4V | 02:08:12 | 03:07:26 | 00:00:00 | |
| DF8AY | 2026-08-31 01:40:11 | 50.79742 | 9.82149 | 67° | 13km/h | 18874m | -16.9m/s | -53.1°C | 0.4% | 69.8hPa | 2.5V | 02:08:12 | 03:07:23 | 00:00:00 | |
| BIOWL1-15 | 2026-08-31 01:40:10 | 50.79741 | 9.82144 | 59° | 15km/h | 18889m | -11.2m/s | -52.9°C | 0.4% | 69.6hPa | 2.5V | 02:08:12 | 03:07:22 | 00:00:00 | |
| HSKMA3-T | 2026-08-31 01:40:09 | 50.79738 | 9.82140 | 47° | 15km/h | 18902m | -13.1m/s | -52.8°C | 0.2% | 69.5hPa | 2.4V | 02:08:12 | 03:07:21 | 00:00:00 | |
| AA1-15 | 2026-08-31 01:40:03 | 50.79714 | 9.82109 | 34° | 27km/h | 18963m | -9.4m/s | -52.9°C | 0.2% | 68.7hPa | 2.4V | 02:08:12 | 03:07:15 | 00:00:00 | |
| DL1XH-west | 2026-08-31 01:40:00 | 50.79696 | 9.82084 | 59° | 31km/h | 18997m | -15.1m/s | -53.1°C | 0.2% | 68.4hPa | 2.4V | 02:08:12 | 03:07:12 | 00:00:00 | |
| DO3MHA-11 | 2026-08-31 01:40:00 | 50.79696 | 9.82084 | 59° | 26km/h | 18997m | -15.0m/s | -53.0°C | 3.4% | 68.3hPa | 2.5V | 00:00:00 | 03:07:12 | 00:00:00 | |
| DL1XH-15 | 2026-08-31 01:39:59 | 50.79685 | 9.82054 | 62° | 26km/h | 19038m | -10.9m/s | -53.3°C | 3.5% | 67.9hPa | 2.5V | 02:08:03 | 03:07:09 | 00:00:00 | |
| BIOWL1-15 | 2026-08-31 01:39:59 | 50.79692 | 9.82074 | 57° | 31km/h | 19013m | -18.7m/s | -53.1°C | 0.3% | 68.2hPa | 2.4V | 02:08:12 | 03:07:11 | 00:00:00 | |
| HSKMA3-T | 2026-08-31 01:39:58 | 50.79688 | 9.82064 | 60° | 29km/h | 19028m | -11.3m/s | -53.2°C | 0.4% | 68hPa | 2.5V | 02:08:12 | 03:07:10 | 00:00:00 | |
| AA1-15 | 2026-08-31 01:39:52 | 50.79666 | 9.82030 | 20° | 29km/h | 19094m | -10.3m/s | -53.8°C | 0.4% | 67.4hPa | 2.4V | 02:08:12 | 03:07:04 | 00:00:00 | |
| DL1XH-west | 2026-08-31 01:39:50 | 50.79651 | 9.82024 | 10° | 35km/h | 19114m | -12.3m/s | -53.9°C | 0.4% | 67.2hPa | 2.5V | 02:08:12 | 03:07:02 | 00:00:00 | |
| DC4HF-4 | 2026-08-31 01:39:50 | 50.79642 | 9.82021 | 9° | 37km/h | 19127m | -13.4m/s | -54.0°C | 1.1% | 67.1hPa | 2.4V | 00:00:00 | 00:00:00 | 00:00:00 | |
| DL1XH-15 | 2026-08-31 01:39:49 | 50.79624 | 9.82016 | 11° | 33km/h | 19150m | -13.5m/s | -54.2°C | 3.8% | 66.8hPa | 2.4V | 02:08:13 | 03:06:59 | 00:00:00 | |
| BIOWL1-15 | 2026-08-31 01:39:48 | 50.79633 | 9.82019 | 9° | 38km/h | 19138m | -10.2m/s | -54.1°C | 0.5% | 67hPa | 2.4V | 02:08:12 | 03:07:00 | 00:00:00 | |
| HSKMA3-T | 2026-08-31 01:39:47 | 50.79624 | 9.82016 | 11° | 33km/h | 19150m | -13.5m/s | -54.2°C | 0.4% | 66.8hPa | 2.4V | 02:09:03 | 03:06:59 | 00:00:00 | |
| AA1-15 | 2026-08-31 01:39:41 | 50.79589 | 9.81991 | 49° | 31km/h | 19212m | -15.1m/s | -54.8°C | 0.5% | 66.1hPa | 2.4V | 02:09:03 | 03:06:53 | 00:00:00 | |
| DL1XH-west | 2026-08-31 01:39:40 | 50.79583 | 9.81980 | 51° | 35km/h | 19226m | -13.2m/s | -54.9°C | 0.6% | 66hPa | 2.4V | 02:09:03 | 03:06:52 | 00:00:00 | |
| DL1XH-15 | 2026-08-31 01:39:39 | 50.79563 | 9.81944 | 50° | 44km/h | 19266m | -16.8m/s | -55.1°C | 4.1% | 65.7hPa | 2.5V | 02:08:23 | 03:06:49 | 00:00:00 | |
| HSKMA3-T | 2026-08-31 01:39:37 | 50.79563 | 9.81944 | 50° | 44km/h | 19266m | -16.8m/s | -55.1°C | 0.7% | 65.7hPa | 2.5V | 02:09:03 | 03:06:49 | 00:00:00 | |
| DM0DOS-11 | 2026-08-31 01:39:35 | 50.79549 | 9.81917 | 46° | 42km/h | 19292m | -14.7m/s | -55.2°C | 4.2% | 65.4hPa | 2.4V | 02:08:25 | 03:06:47 | 00:00:00 | |
| AA1-15 | 2026-08-31 01:39:30 | 50.79523 | 9.81869 | 61° | 20km/h | 19351m | -12.1m/s | -54.9°C | 0.7% | 64.7hPa | 2.4V | 02:09:03 | 03:06:42 | 00:00:00 | |
| DO3MHA-11 | 2026-08-31 01:39:30 | 50.79523 | 9.81869 | 61° | 26km/h | 19351m | -12.0m/s | -54.9°C | 4.1% | 64.7hPa | 2.4V | 00:00:00 | 03:06:42 | 00:00:00 | |
| DL1XH-15 | 2026-08-31 01:39:29 | 50.79522 | 9.81847 | 99° | 20km/h | 19382m | -9.9m/s | -54.9°C | 4.1% | 64.4hPa | 2.4V | 02:08:33 | 03:06:39 | 00:00:00 | |
| DL1XH-west | 2026-08-31 01:39:29 | 50.79522 | 9.81862 | 79° | 18km/h | 19362m | -11m/s | -55°C | 0.7% | 64.6hPa | 2.4V | 02:09:03 | 03:06:41 | 00:00:00 | |
| BIOWL1-15 | 2026-08-31 01:39:27 | 50.79522 | 9.81847 | 100° | 20km/h | 19382m | -10m/s | -54.9°C | 0.7% | 64.4hPa | 2.4V | 02:09:03 | 03:06:39 | 00:00:00 | |
| HSKMA3-T | 2026-08-31 01:39:26 | 50.79523 | 9.81838 | 90° | 24km/h | 19393m | -11.7m/s | -54.9°C | 0.7% | 64.3hPa | 2.4V | 02:09:03 | 03:06:38 | 00:00:00 | |
| DM0DOS-11 | 2026-08-31 01:39:25 | 50.79522 | 9.81828 | 85° | 26km/h | 19404m | -12.8m/s | -54.9°C | 4.1% | 64.2hPa | 2.5V | 02:08:35 | 03:06:37 | 00:00:00 | |
| DJ2DS-15 | 2026-08-31 01:39:24 | 50.79521 | 9.81818 | 77° | 26km/h | 19415m | -9.9m/s | -54.8°C | 4.2% | 64.0hPa | 2.5V | 02:08:00 | 03:06:36 | 00:00:00 | |
| DL3AQ-11 | 2026-08-31 01:39:23 | 50.79516 | 9.81794 | 58° | 35km/h | 19433m | -11.4m/s | -54.6°C | 1.1% | 63.9hPa | 2.5V | 00:00:00 | 00:00:00 | 00:00:00 | |
| DF7PN | 2026-08-31 01:39:22 | 50.79516 | 9.81794 | 58° | 35km/h | 19433m | -11.4m/s | -54.6°C | 1.1% | 63.9hPa | 2.5V | 00:00:00 | 00:00:00 | 00:00:00 | |
| DK5PH-5 | 2026-08-31 01:39:21 | 50.79511 | 9.81782 | 52° | 26km/h | 19441m | -7.6m/s | -54.5°C | 4.0% | 63.7hPa | 2.5V | 00:00:00 | 03:06:33 | 00:00:00 | |
| DO3MHA-11 | 2026-08-31 01:39:20 | 50.79504 | 9.81770 | 49° | 24km/h | 19450m | -10.8m/s | -54.4°C | 3.9% | 63.6hPa | 2.5V | 00:00:00 | 03:06:32 | 00:00:00 | |
| DL1XH-15 | 2026-08-31 01:39:19 | 50.79486 | 9.81735 | 49° | 33km/h | 19487m | -13.1m/s | -54.3°C | 3.9% | 63.4hPa | 2.5V | 02:08:43 | 03:06:29 | 00:00:00 | |
| DF8AY | 2026-08-31 01:39:19 | 50.79498 | 9.81758 | 48° | 40km/h | 19460m | -10.6m/s | -54.4°C | 0.6% | 63.6hPa | 2.4V | 02:09:03 | 03:06:31 | 00:00:00 | |
| DL1XH-west | 2026-08-31 01:39:18 | 50.79491 | 9.81746 | 54° | 37km/h | 19473m | -15.8m/s | -54.4°C | 0.6% | 63.5hPa | 2.5V | 02:09:03 | 03:06:30 | 00:00:00 | |
| HSKMA3-T | 2026-08-31 01:39:16 | 50.79481 | 9.81726 | 55° | 24km/h | 19500m | -15.1m/s | -54.1°C | 0.5% | 63.2hPa | 2.4V | 02:09:03 | 03:06:28 | 00:00:00 | |
| DM0DOS-11 | 2026-08-31 01:39:15 | 50.79478 | 9.81719 | 56° | 22km/h | 19511m | -8.1m/s | -54°C | 3.8% | 63.1hPa | 2.4V | 02:08:45 | 03:06:27 | 00:00:00 | |
| DB0UT-7 | 2026-08-31 01:39:13 | 50.79474 | 9.81709 | 61° | 24km/h | 19529m | -14.1m/s | -53.8°C | 3.7% | 62.9hPa | 2.4V | 00:00:00 | 00:00:00 | 00:00:00 | |
| DL3AQ-11 | 2026-08-31 01:39:12 | 50.79472 | 9.81705 | 38° | 7km/h | 19554m | -16.7m/s | -54.0°C | 1.1% | 62.8hPa | 2.4V | 00:00:00 | 00:00:00 | 00:00:00 | |
| DO3MHA-11 | 2026-08-31 01:39:10 | 50.79470 | 9.81702 | 47° | 29km/h | 19568m | -10.2m/s | -54.0°C | 3.9% | 62.5hPa | 2.4V | 02:08:00 | 03:06:22 | 00:00:00 | |
| DL1XH-15 | 2026-08-31 01:39:09 | 50.79457 | 9.81686 | 34° | 31km/h | 19602m | -11.8m/s | -54.1°C | 3.8% | 62.2hPa | 2.4V | 02:08:53 | 03:06:19 | 00:00:00 | |
| AA1-15 | 2026-08-31 01:39:09 | 50.79467 | 9.81698 | 41° | 20km/h | 19580m | -14.7m/s | -54.1°C | 0.5% | 62.5hPa | 2.4V | 02:09:03 | 03:06:21 | 00:00:00 | |
| DL1XH-west | 2026-08-31 01:39:07 | 50.79458 | 9.81686 | 34° | 31km/h | 19602m | -11.8m/s | -54.1°C | 0.5% | 62.2hPa | 2.4V | 02:09:03 | 03:06:19 | 00:00:00 | |
| DM0DOS-11 | 2026-08-31 01:39:05 | 50.79443 | 9.81673 | 25° | 37km/h | 19621m | -9.8m/s | -54.1°C | 3.8% | 62.1hPa | 2.5V | 02:08:55 | 03:06:17 | 00:00:00 | |
| HSKMA3-T | 2026-08-31 01:39:05 | 50.79443 | 9.81673 | 26° | 37km/h | 19621m | -9.8m/s | -54.1°C | 0.5% | 62.1hPa | 2.5V | 02:09:03 | 03:06:17 | 00:00:00 | |
| GOEST3-10 | 2026-08-31 01:39:05 | 50.79443 | 9.81673 | 26° | 27km/h | 19621m | -9.7m/s | -54.1°C | 3.8% | 62.0hPa | 2.5V | 00:00:00 | 03:06:17 | 00:00:00 | |
| DJ2DS-15 | 2026-08-31 01:39:04 | 50.79434 | 9.81667 | 24° | 29km/h | 19633m | -13.6m/s | -54.1°C | 3.8% | 61.9hPa | 2.5V | 00:00:00 | 03:06:16 | 00:00:00 | |
| DL4BBY-15 | 2026-08-31 01:39:03 | 50.79426 | 9.81662 | 20° | 22km/h | 19648m | -15.6m/s | -55.1°C | 0% | 0hPa | 2.5V | 00:00:00 | 00:00:00 | 00:00:00 | |
| DJTTGO | 2026-08-31 01:39:02 | 50.79426 | 9.81662 | 21° | 33km/h | 19647m | -15.7m/s | -54.2°C | 1.1% | 61.8hPa | 2.5V | 00:00:00 | 00:00:00 | 00:00:00 | |
| SONCRA | 2026-08-31 01:39:01 | 50.79411 | 9.81656 | 7° | 24km/h | 19669m | -11.8m/s | -54.3°C | 1.1% | 61.6hPa | 2.5V | 00:00:00 | 00:00:00 | 00:00:00 | |
| DO3MHA-11 | 2026-08-31 01:39:00 | 50.79406 | 9.81656 | 355° | 22km/h | 19681m | -10.7m/s | -54.4°C | 4.1% | 61.4hPa | 2.5V | 00:00:00 | 03:06:12 | 00:00:00 | |
| DL1XH-15 | 2026-08-31 01:38:59 | 50.79394 | 9.81662 | 339° | 18km/h | 19709m | -11.1m/s | -54.4°C | 4.1% | 61.2hPa | 2.5V | 02:09:03 | 03:06:09 | 00:00:00 | |
| DL1XH1-15 | 2026-08-31 01:38:59 | 50.79384 | 9.81666 | 355° | 20km/h | 19732m | -13.5m/s | -53.9°C | 3.9% | 61hPa | 2.4V | 02:09:05 | 03:06:07 | 00:00:00 | |
| AA1-15 | 2026-08-31 01:38:58 | 50.79397 | 9.81659 | 335° | 15km/h | 19698m | -11.6m/s | -54.5°C | 0.7% | 61.3hPa | 2.5V | 02:09:03 | 03:06:10 | 00:00:00 | |
| DL1XH-west | 2026-08-31 01:38:56 | 50.79389 | 9.81664 | 341° | 20km/h | 19720m | -10.8m/s | -54.2°C | 0.7% | 61.1hPa | 2.4V | 02:09:54 | 03:06:08 | 00:00:00 | |
| BIOWL1-15 | 2026-08-31 01:38:55 | 50.79384 | 9.81666 | 356° | 20km/h | 19732m | -13.5m/s | -53.9°C | 0.5% | 61hPa | 2.4V | 02:09:54 | 03:06:07 | 00:00:00 | |
| HSKMA3-T | 2026-08-31 01:38:54 | 50.79379 | 9.81666 | 8° | 20km/h | 19744m | -12.4m/s | -53.9°C | 0.6% | 60.9hPa | 2.4V | 02:09:54 | 03:06:06 | 00:00:00 | |
| SFWM-10 | 2026-08-31 01:38:52 | 50.79369 | 9.81657 | 44° | 27km/h | 19767m | -11.1m/s | -53.8°C | 1.1% | 60.7hPa | 2.4V | 02:09:00 | 00:00:00 | 00:00:00 | |
| DK5PH-5 | 2026-08-31 01:38:51 | 50.79363 | 9.81649 | 45° | 22km/h | 19776m | -8.4m/s | -53.7°C | 3.8% | 60.5hPa | 2.4V | 00:00:00 | 03:06:03 | 00:00:00 | |
| DO3MHA-11 | 2026-08-31 01:38:50 | 50.79357 | 9.81640 | 46° | 26km/h | 19786m | -11.5m/s | -53.8°C | 3.8% | 60.5hPa | 2.4V | 00:00:00 | 03:06:02 | 00:00:00 | |
| DL1XH-15 | 2026-08-31 01:38:49 | 50.79336 | 9.81609 | 37° | 37km/h | 19828m | -13.9m/s | -53.8°C | 3.8% | 60.1hPa | 2.4V | 02:09:13 | 03:05:59 | 00:00:00 | |
| DF8AY | 2026-08-31 01:38:48 | 50.79343 | 9.81619 | 39° | 40km/h | 19814m | -16.6m/s | -53.9°C | 0.6% | 60.3hPa | 2.4V | 02:09:54 | 03:06:00 | 00:00:00 | |
| AA1-15 | 2026-08-31 01:38:47 | 50.79336 | 9.81609 | 38° | 37km/h | 19828m | -13.9m/s | -53.9°C | 0.5% | 60.1hPa | 2.4V | 02:09:54 | 03:05:59 | 00:00:00 | |
| BIOWL1-15 | 2026-08-31 01:38:46 | 50.79317 | 9.81587 | 33° | 20km/h | 19870m | -11.2m/s | -53.8°C | 0.5% | 59.7hPa | 2.5V | 02:09:54 | 03:05:56 | 00:00:00 | |
| DM0DOS-11 | 2026-08-31 01:38:45 | 50.79322 | 9.81593 | 35° | 27km/h | 19857m | -14.3m/s | -53.7°C | 3.8% | 59.8hPa | 2.5V | 02:09:15 | 03:05:57 | 00:00:00 | |
| DL1XH-west | 2026-08-31 01:38:45 | 50.79322 | 9.81593 | 36° | 27km/h | 19857m | -14.3m/s | -53.7°C | 0.5% | 59.8hPa | 2.5V | 02:09:54 | 03:05:57 | 00:00:00 | |
| HSKMA3-T | 2026-08-31 01:38:43 | 50.79314 | 9.81584 | 37° | 11km/h | 19881m | -11.3m/s | -53.8°C | 0.6% | 59.6hPa | 2.4V | 02:09:54 | 03:05:55 | 00:00:00 | |
| DF8AY | 2026-08-31 01:38:37 | 50.79318 | 9.81559 | 116° | 13km/h | 19940m | -8.6m/s | -53.7°C | 0.5% | 59.1hPa | 2.4V | 02:09:54 | 03:05:49 | 00:00:00 | |
| AA1-15 | 2026-08-31 01:38:36 | 50.79319 | 9.81555 | 101° | 9km/h | 19949m | -11.1m/s | -53.7°C | 0.5% | 59hPa | 2.4V | 02:09:54 | 03:05:48 | 00:00:00 | |
| DM0DOS-11 | 2026-08-31 01:38:35 | 50.79319 | 9.81551 | 80° | 7km/h | 19960m | -10.4m/s | -53.8°C | 3.9% | 58.9hPa | 2.4V | 02:09:25 | 03:05:47 | 00:00:00 | |
| DL1XH-west | 2026-08-31 01:38:35 | 50.79319 | 9.81551 | 81° | 7km/h | 19960m | -10.4m/s | -53.8°C | 0.6% | 58.9hPa | 2.4V | 02:09:54 | 03:05:47 | 00:00:00 | |
| BIOWL1-15 | 2026-08-31 01:38:34 | 50.79319 | 9.81548 | 66° | 9km/h | 19971m | -11m/s | -53.8°C | 0.6% | 58.8hPa | 2.4V | 02:09:54 | 03:05:46 | 00:00:00 | |
| HSKMA3-T | 2026-08-31 01:38:33 | 50.79317 | 9.81543 | 54° | 18km/h | 19983m | -12.9m/s | -53.8°C | 0.6% | 58.7hPa | 2.4V | 02:09:54 | 03:05:45 | 00:00:00 | |
| DF8AY | 2026-08-31 01:38:26 | 50.79287 | 9.81476 | 54° | 24km/h | 20052m | -7.5m/s | -52.9°C | 0.4% | 58hPa | 2.4V | 02:09:54 | 03:05:38 | 00:00:00 | |
| DM0DOS-11 | 2026-08-31 01:38:25 | 50.79284 | 9.81469 | 52° | 18km/h | 20061m | -9.2m/s | -52.8°C | 3.6% | 57.9hPa | 2.5V | 02:09:35 | 03:05:37 | 00:00:00 | |
| DL1XH-west | 2026-08-31 01:38:25 | 50.79284 | 9.81469 | 53° | 18km/h | 20061m | -9.2m/s | -52.8°C | 0.4% | 57.9hPa | 2.5V | 02:09:54 | 03:05:37 | 00:00:00 | |
| BIOWL1-15 | 2026-08-31 01:38:23 | 50.79281 | 9.81458 | 68° | 13km/h | 20084m | -11.7m/s | -52.8°C | 0.4% | 57.8hPa | 2.4V | 02:09:54 | 03:05:35 | 00:00:00 | |
| HSKMA3-T | 2026-08-31 01:38:22 | 50.79280 | 9.81454 | 87° | 11km/h | 20095m | -10.6m/s | -52.8°C | 0.4% | 57.6hPa | 2.4V | 02:09:54 | 03:05:34 | 00:00:00 | |
| DF8AY | 2026-08-31 01:38:16 | 50.79271 | 9.81434 | 47° | 16km/h | 20159m | -9.1m/s | -52.8°C | 0.4% | 57.1hPa | 2.4V | 02:09:54 | 03:05:28 | 00:00:00 | |
| DM0DOS-11 | 2026-08-31 01:38:15 | 50.79268 | 9.81429 | 59° | 20km/h | 20169m | -9.9m/s | -52.8°C | 3.6% | 57hPa | 2.4V | 02:09:45 | 03:05:27 | 00:00:00 | |
| DL1XH-west | 2026-08-31 01:38:14 | 50.79266 | 9.81422 | 66° | 20km/h | 20179m | -9.3m/s | -52.7°C | 0.4% | 56.9hPa | 2.4V | 02:09:54 | 03:05:26 | 00:00:00 | |
| HSKMA3-T | 2026-08-31 01:38:12 | 50.79264 | 9.81403 | 96° | 24km/h | 20198m | -9.8m/s | -52.8°C | 0.5% | 56.7hPa | 2.5V | 02:09:54 | 03:05:24 | 00:00:00 | |
| DF8AY | 2026-08-31 01:38:06 | 50.79275 | 9.81373 | 202° | 7km/h | 20257m | -9.1m/s | -52.5°C | 0.3% | 56.2hPa | 2.4V | 02:09:54 | 03:05:18 | 00:00:00 | |
| DM0DOS-11 | 2026-08-31 01:38:05 | 50.79276 | 9.81375 | 265° | 9km/h | 20266m | -9.4m/s | -52.5°C | 3.6% | 56.1hPa | 2.5V | 02:09:55 | 03:05:17 | 00:00:00 | |
| DL1XH-west | 2026-08-31 01:38:04 | 50.79275 | 9.81378 | 296° | 9km/h | 20275m | -10.8m/s | -52.5°C | 0.4% | 56hPa | 2.5V | 02:10:45 | 03:05:16 | 00:00:00 | |
| BIOWL1-15 | 2026-08-31 01:38:02 | 50.79272 | 9.81385 | 320° | 11km/h | 20297m | -9.9m/s | -52.6°C | 0.4% | 55.9hPa | 2.4V | 02:10:45 | 03:05:14 | 00:00:00 | |
| DC4HF-4 | 2026-08-31 01:38:01 | 50.79270 | 9.81387 | 345° | 7km/h | 20309m | -15.3m/s | -52.7°C | 1.0% | 55.8hPa | 2.4V | 00:00:00 | 00:00:00 | 00:00:00 | |
| DO3MHA-11 | 2026-08-31 01:38:00 | 50.79268 | 9.81388 | 347° | 13km/h | 20323m | -11.2m/s | -52.7°C | 3.6% | 55.6hPa | 2.4V | 00:00:00 | 03:05:12 | 00:00:00 | |
| DL1XH-15 | 2026-08-31 01:37:59 | 50.79263 | 9.81380 | 65° | 13km/h | 20351m | -9.4m/s | -52.8°C | 3.6% | 55.4hPa | 2.4V | 02:10:03 | 03:05:09 | 00:00:00 | |
| DF8AY | 2026-08-31 01:37:55 | 50.79262 | 9.81369 | 80° | 13km/h | 20370m | -9.3m/s | -52.8°C | 0.5% | 55.2hPa | 2.4V | 02:10:45 | 03:05:07 | 00:00:00 | |
| DL1XH-west | 2026-08-31 01:37:53 | 50.79260 | 9.81362 | 26° | 9km/h | 20388m | -9.9m/s | -52.7°C | 0.3% | 55hPa | 2.4V | 02:10:45 | 03:05:05 | 00:00:00 | |
| BIOWL1-15 | 2026-08-31 01:37:52 | 50.79257 | 9.81361 | 1° | 16km/h | 20398m | -9.6m/s | -52.7°C | 0.4% | 55hPa | 2.5V | 02:10:45 | 03:05:04 | 00:00:00 | |
| HSKMA3-T | 2026-08-31 01:37:51 | 50.79253 | 9.81361 | 351° | 16km/h | 20408m | -10.6m/s | -52.7°C | 0.4% | 54.9hPa | 2.5V | 02:10:45 | 03:05:03 | 00:00:00 | |
| DF7PN | 2026-08-31 01:37:49 | 50.79243 | 9.81365 | 341° | 20km/h | 20431m | -10.7m/s | -52.6°C | 1.0% | 54.7hPa | 2.5V | 00:00:00 | 00:00:00 | 00:00:00 | |
| DL3JIN-12 | 2026-08-31 01:37:47 | 50.79239 | 9.81368 | 335° | 16km/h | 20441m | -10.9m/s | -52.5°C | 1.0% | 54.6hPa | 2.5V | 02:10:00 | 00:00:00 | 00:00:00 | |
| DM0DOS-11 | 2026-08-31 01:37:45 | 50.79232 | 9.81366 | 73° | 11km/h | 20471m | -9.8m/s | -52.5°C | 3.5% | 54.4hPa | 2.5V | 02:10:15 | 03:04:57 | 00:00:00 | |
| DF8AY | 2026-08-31 01:37:45 | 50.79232 | 9.81366 | 74° | 11km/h | 20471m | -9.8m/s | -52.5°C | 0.3% | 54.4hPa | 2.5V | 02:10:45 | 03:04:57 | 00:00:00 | |
| DL1XH-west | 2026-08-31 01:37:43 | 50.79233 | 9.81356 | 100° | 16km/h | 20489m | -10.3m/s | -52.6°C | 0.3% | 54.2hPa | 2.4V | 02:10:45 | 03:04:55 | 00:00:00 | |
| BIOWL1-15 | 2026-08-31 01:37:41 | 50.79233 | 9.81342 | 89° | 18km/h | 20508m | -10.6m/s | -52.6°C | 0.3% | 54.1hPa | 2.4V | 02:10:45 | 03:04:53 | 00:00:00 | |
| HSKMA3-T | 2026-08-31 01:37:40 | 50.79233 | 9.81335 | 72° | 20km/h | 20520m | -13.8m/s | -52.6°C | 0.3% | 54hPa | 2.4V | 02:10:45 | 03:04:52 | 00:00:00 | |
| DO3MHA-11 | 2026-08-31 01:37:40 | 50.79232 | 9.81335 | 72° | 15km/h | 20520m | -13.8m/s | -52.6°C | 3.5% | 53.9hPa | 2.4V | 02:10:00 | 03:04:52 | 00:00:00 | |
| SMARD9-10 | 2026-08-31 01:37:39 | 50.79233 | 9.81335 | 73° | 20km/h | 20520m | -13.8m/s | -52.6°C | 1.0% | 54.0hPa | 2.4V | 00:00:00 | 00:00:00 | 00:00:00 | |
| DL1XH-15 | 2026-08-31 01:37:38 | 50.79226 | 9.81317 | 54° | 15km/h | 20547m | -11.2m/s | -52.9°C | 3.5% | 53.7hPa | 2.4V | 02:10:23 | 03:04:49 | 00:00:00 | |
| DF8AY | 2026-08-31 01:37:34 | 50.79219 | 9.81305 | 30° | 15km/h | 20576m | -8m/s | -53.1°C | 0.4% | 53.5hPa | 2.4V | 02:10:45 | 03:04:46 | 00:00:00 | |
| DL1XH-west | 2026-08-31 01:37:32 | 50.79214 | 9.81299 | 46° | 13km/h | 20594m | -10.6m/s | -53.2°C | 0.5% | 53.3hPa | 2.5V | 02:10:45 | 03:04:44 | 00:00:00 | |
| BIOWL1-15 | 2026-08-31 01:37:31 | 50.79212 | 9.81295 | 45° | 15km/h | 20605m | -11m/s | -53.3°C | 0.5% | 53.2hPa | 2.5V | 02:10:45 | 03:04:43 | 00:00:00 | |
| HSKMA3-T | 2026-08-31 01:37:29 | 50.79208 | 9.81285 | 71° | 18km/h | 20625m | -9.7m/s | -53.4°C | 0.5% | 53.1hPa | 2.4V | 02:10:45 | 03:04:41 | 00:00:00 | |
| DO2JMG | 2026-08-31 01:37:25 | 50.79206 | 9.81245 | 98° | 27km/h | 20662m | -11.1m/s | 0°C | 0% | 0hPa | 2.5V | 18:12:15 | 03:04:37 | 00:00:00 | |
| DF8AY | 2026-08-31 01:37:23 | 50.79209 | 9.81227 | 97° | 20km/h | 20683m | -10.3m/s | -53.6°C | 0.5% | 52.6hPa | 2.4V | 02:10:45 | 03:04:35 | 00:00:00 | |
| DL3AQ-11 | 2026-08-31 01:37:23 | 50.79209 | 9.81220 | 97° | 13km/h | 20693m | -12.1m/s | -53.6°C | 1.0% | 52.5hPa | 2.4V | 00:00:00 | 00:00:00 | 00:00:00 | |
| DL1XH-15 | 2026-08-31 01:37:22 | 50.79206 | 9.81207 | 23° | 11km/h | 20748m | -11.9m/s | -53.7°C | 3.8% | 52.1hPa | 2.4V | 02:10:43 | 03:04:29 | 00:00:00 | |
| DL1XH-west | 2026-08-31 01:37:21 | 50.79210 | 9.81215 | 96° | 9km/h | 20704m | -11.4m/s | -53.6°C | 0.5% | 52.4hPa | 2.4V | 02:10:45 | 03:04:33 | 00:00:00 | |
| BIOWL1-15 | 2026-08-31 01:37:20 | 50.79210 | 9.81212 | 89° | 5km/h | 20715m | -12m/s | -53.6°C | 0.5% | 52.3hPa | 2.4V | 02:10:45 | 03:04:32 | 00:00:00 | |
| DO3MHA-11 | 2026-08-31 01:37:20 | 50.79210 | 9.81212 | 90° | 11km/h | 20716m | -11.9m/s | -53.6°C | 3.8% | 52.3hPa | 2.4V | 00:00:00 | 03:04:32 | 00:00:00 | |
| GOEST3-10 | 2026-08-31 01:37:19 | 50.79209 | 9.81210 | 55° | 9km/h | 20727m | -10.8m/s | -53.6°C | 3.8% | 52.2hPa | 2.4V | 00:00:00 | 00:00:00 | 00:00:00 | |
| HSKMA3-T | 2026-08-31 01:37:19 | 50.79209 | 9.81210 | 55° | 5km/h | 20726m | -10.9m/s | -53.7°C | 0.6% | 52.2hPa | 2.5V | 02:10:45 | 03:04:31 | 00:00:00 | |
| DF7PN | 2026-08-31 01:37:18 | 50.79208 | 9.81208 | 29° | 5km/h | 20737m | -10.6m/s | -53.7°C | 1.1% | 52.1hPa | 2.4V | 00:00:00 | 00:00:00 | 00:00:00 | |
| DM0DOS-11 | 2026-08-31 01:37:15 | 50.79200 | 9.81204 | 19° | 13km/h | 20769m | -10.9m/s | -53.7°C | 3.8% | 51.9hPa | 2.4V | 02:10:45 | 03:04:27 | 00:00:00 | |
| GOEST3-10 | 2026-08-31 01:37:14 | 50.79197 | 9.81201 | 36° | 15km/h | 20781m | -13.2m/s | -53.7°C | 3.8% | 51.8hPa | 2.4V | 02:10:00 | 03:04:26 | 00:00:00 | |
| DB0UT-7 | 2026-08-31 01:37:13 | 50.79195 | 9.81198 | 40° | 15km/h | 20793m | -10.0m/s | -53.8°C | 3.9% | 51.7hPa | 2.4V | 02:10:00 | 00:00:00 | 00:00:00 | |
| DL1XH-15 | 2026-08-31 01:37:12 | 50.79186 | 9.81169 | 43° | 11km/h | 20855m | -10.9m/s | -53.9°C | 3.9% | 51.2hPa | 2.4V | 02:10:53 | 03:04:19 | 00:00:00 | |
| DF8AY | 2026-08-31 01:37:12 | 50.79193 | 9.81195 | 49° | 13km/h | 20801m | -8.3m/s | -54°C | 0.6% | 51.6hPa | 2.5V | 02:11:36 | 03:04:24 | 00:00:00 | |
| BIOWL1-15 | 2026-08-31 01:37:10 | 50.79190 | 9.81185 | 76° | 18km/h | 20823m | -10.1m/s | -54°C | 0.6% | 51.5hPa | 2.4V | 02:11:36 | 03:04:22 | 00:00:00 | |
| HSKMA3-T | 2026-08-31 01:37:09 | 50.79189 | 9.81179 | 62° | 13km/h | 20833m | -11.5m/s | -53.9°C | 0.5% | 51.4hPa | 2.4V | 02:11:36 | 03:04:21 | 00:00:00 | |
| DO2JMG | 2026-08-31 01:37:07 | 50.79186 | 9.81169 | 44° | 13km/h | 20855m | -10.9m/s | 0°C | 0% | 0hPa | 2.4V | 18:12:15 | 03:04:19 | 00:00:00 | |
| DM0DOS-11 | 2026-08-31 01:37:05 | 50.79181 | 9.81166 | 9° | 13km/h | 20877m | -7.6m/s | -53.8°C | 3.9% | 51hPa | 2.5V | 02:10:55 | 03:04:17 | 00:00:00 | |
| DJ2DS-15 | 2026-08-31 01:37:04 | 50.79177 | 9.81167 | 333° | 16km/h | 20886m | -9.7m/s | -53.7°C | 3.8% | 50.9hPa | 2.4V | 00:00:00 | 03:04:16 | 00:00:00 | |
| D01LWL | 2026-08-31 01:37:03 | 50.79169 | 9.81175 | 324° | 20km/h | 20905m | -8.9m/s | -53.4°C | 1.1% | 50.8hPa | 2.4V | 00:00:00 | 00:00:00 | 00:00:00 | |
| DL1XH-15 | 2026-08-31 01:37:02 | 50.79146 | 9.81178 | 31° | 22km/h | 20956m | -10.2m/s | -53.4°C | 3.7% | 50.4hPa | 2.4V | 02:11:03 | 03:04:09 | 00:00:00 | |
| DF8AY | 2026-08-31 01:37:01 | 50.79165 | 9.81179 | 332° | 20km/h | 20915m | -11.4m/s | -53.4°C | 0.5% | 50.7hPa | 2.4V | 02:11:36 | 03:04:13 | 00:00:00 | |
| DL1XH-west | 2026-08-31 01:36:59 | 50.79155 | 9.81183 | 8° | 18km/h | 20937m | -11.3m/s | -53.4°C | 0.5% | 50.6hPa | 2.5V | 02:11:36 | 03:04:11 | 00:00:00 | |
| SONCRA | 2026-08-31 01:36:57 | 50.79146 | 9.81178 | 31° | 20km/h | 20957m | -10.2m/s | -53.4°C | 1.0% | 50.4hPa | 2.4V | 00:00:00 | 00:00:00 | 00:00:00 | |
| DL3AQ-11 | 2026-08-31 01:36:56 | 50.79138 | 9.81167 | 52° | 18km/h | 20978m | -10.8m/s | -53.6°C | 1.1% | 50.2hPa | 2.4V | 00:00:00 | 00:00:00 | 00:00:00 | |
| SONDE2-11 | 2026-08-31 01:36:54 | 50.79131 | 9.81158 | 32° | 16km/h | 21001m | -11.8m/s | -53.7°C | 1.1% | 50.1hPa | 2.4V | 00:00:00 | 00:00:00 | 00:00:00 | |
| DO9LL-15 | 2026-08-31 01:36:53 | 50.79131 | 9.81158 | 33° | 13km/h | 21001m | -11.7m/s | -53.6°C | 3.8% | 50.0hPa | 2.4V | 02:11:00 | 03:04:05 | 00:00:00 | |
| DL1XH-15 | 2026-08-31 01:36:52 | 50.79116 | 9.81151 | 346° | 7km/h | 21069m | -12m/s | -53.6°C | 3.8% | 49.5hPa | 2.4V | 02:11:13 | 03:03:59 | 00:00:00 | |
| DO2JMG | 2026-08-31 01:36:51 | 50.79125 | 9.81152 | 28° | 13km/h | 21024m | -12.5m/s | 0°C | 0% | 0hPa | 2.5V | 18:12:15 | 03:04:03 | 00:00:00 | |
| AA1-15 | 2026-08-31 01:36:49 | 50.79120 | 9.81150 | 15° | 7km/h | 21045m | -11.5m/s | -53.6°C | 0.6% | 49.7hPa | 2.4V | 02:11:36 | 03:04:01 | 00:00:00 | |
| DL1XH-west | 2026-08-31 01:36:48 | 50.79118 | 9.81150 | 340° | 7km/h | 21056m | -11.9m/s | -53.6°C | 0.5% | 49.6hPa | 2.4V | 02:11:36 | 03:04:00 | 00:00:00 | |
| DJ2KF-10 | 2026-08-31 01:36:47 | 50.79116 | 9.81151 | 347° | 15km/h | 21069m | -12.0m/s | -53.6°C | 3.8% | 49.5hPa | 2.4V | 02:11:00 | 03:03:59 | 00:00:00 | |
| DB0NH | 2026-08-31 01:36:46 | 50.79114 | 9.81151 | 349° | 15km/h | 21081m | -12.7m/s | -53.6°C | 3.8% | 49.4hPa | 2.4V | 00:00:00 | 03:03:58 | 00:00:00 | |
| DL3JIN-12 | 2026-08-31 01:36:45 | 50.79113 | 9.81151 | 350° | 9km/h | 21081m | -12.7m/s | -53.7°C | 1.1% | 49.5hPa | 2.4V | 00:00:00 | 00:00:00 | 00:00:00 | |
| DJ2DS-15 | 2026-08-31 01:36:43 | 50.79104 | 9.81149 | 36° | 15km/h | 21115m | -12.5m/s | -53.5°C | 3.8% | 49.2hPa | 2.4V | 00:00:00 | 03:03:55 | 00:00:00 | |
| DL1XH-15 | 2026-08-31 01:36:42 | 50.79092 | 9.81105 | 95° | 20km/h | 21193m | -12.1m/s | -53.7°C | 3.9% | 48.6hPa | 2.4V | 02:11:23 | 03:03:49 | 00:00:00 | |
| DF8AY | 2026-08-31 01:36:41 | 50.79098 | 9.81139 | 62° | 20km/h | 21140m | -13m/s | -53.6°C | 0.6% | 49hPa | 2.4V | 02:11:36 | 03:03:53 | 00:00:00 | |
| DO2JMG | 2026-08-31 01:36:40 | 50.79095 | 9.81131 | 67° | 24km/h | 21153m | -14m/s | 0°C | 0% | 0hPa | 2.4V | 18:12:15 | 03:03:52 | 00:00:00 | |
| AA1-15 | 2026-08-31 01:36:38 | 50.79092 | 9.81113 | 86° | 24km/h | 21180m | -14m/s | -53.7°C | 0.6% | 48.7hPa | 2.5V | 02:11:36 | 03:03:50 | 00:00:00 | |
| DL1XH-west | 2026-08-31 01:36:37 | 50.79092 | 9.81105 | 96° | 20km/h | 21193m | -12.1m/s | -53.7°C | 0.6% | 48.6hPa | 2.4V | 02:11:36 | 03:03:49 | 00:00:00 | |
| DF8AY | 2026-08-31 01:36:31 | 50.79101 | 9.81093 | 310° | 7km/h | 21273m | -16.7m/s | -53.7°C | 0.7% | 48.1hPa | 2.5V | 02:11:36 | 03:03:43 | 00:00:00 | |
| DO2JMG | 2026-08-31 01:36:30 | 50.79099 | 9.81097 | 307° | 13km/h | 21288m | -13.4m/s | 0°C | 0% | 0hPa | 2.4V | 18:12:15 | 03:03:42 | 00:00:00 | |
| BIOWL1-15 | 2026-08-31 01:36:28 | 50.79094 | 9.81103 | 346° | 13km/h | 21319m | -15.1m/s | -53.7°C | 0.5% | 47.7hPa | 2.4V | 02:11:36 | 03:03:40 | 00:00:00 | |
| AA1-15 | 2026-08-31 01:36:27 | 50.79091 | 9.81104 | 354° | 13km/h | 21334m | -14m/s | -53.8°C | 0.5% | 47.6hPa | 2.4V | 02:11:36 | 03:03:39 | 00:00:00 | |
| DL1XH-15 | 2026-08-31 01:36:27 | 50.79091 | 9.81104 | 354° | 13km/h | 21334m | -14m/s | -53.8°C | 3.8% | 47.6hPa | 2.4V | 02:11:33 | 03:03:39 | 00:00:00 | |
| DL1XH-west | 2026-08-31 01:36:26 | 50.79088 | 9.81104 | 15° | 7km/h | 21349m | -16.8m/s | -53.8°C | 0.6% | 47.5hPa | 2.5V | 02:11:36 | 03:03:38 | 00:00:00 | |
| DM0DOS-11 | 2026-08-31 01:36:25 | 50.79087 | 9.81103 | 60° | 7km/h | 21364m | -12m/s | -53.9°C | 3.9% | 47.3hPa | 2.5V | 02:11:35 | 03:03:37 | 00:00:00 | |
| SONDE2-11 | 2026-08-31 01:36:23 | 50.79090 | 9.81094 | 158° | 11km/h | 21407m | -14.9m/s | -53.8°C | 1.1% | 47.0hPa | 2.4V | 00:00:00 | 00:00:00 | 00:00:00 | |
| DL1XH-15 | 2026-08-31 01:36:22 | 50.79111 | 9.81119 | 241° | 33km/h | 21486m | -17.7m/s | -54°C | 3.9% | 46.5hPa | 2.4V | 02:11:43 | 03:03:29 | 00:00:00 | |
| DF8AY | 2026-08-31 01:36:20 | 50.79097 | 9.81096 | 213° | 18km/h | 21438m | -17.5m/s | -53.8°C | 0.6% | 46.8hPa | 2.4V | 02:12:27 | 03:03:32 | 00:00:00 | |
| BIOWL1-15 | 2026-08-31 01:36:17 | 50.79111 | 9.81119 | 242° | 33km/h | 21486m | -17.7m/s | -54°C | 0.7% | 46.5hPa | 2.4V | 02:12:27 | 03:03:29 | 00:00:00 | |
| DL1XH-west | 2026-08-31 01:36:16 | 50.79114 | 9.81131 | 256° | 35km/h | 21504m | -18.3m/s | -53.9°C | 0.6% | 46.3hPa | 2.4V | 02:12:27 | 03:03:28 | 00:00:00 | |
| DM0DOS-11 | 2026-08-31 01:36:15 | 50.79115 | 9.81145 | 270° | 31km/h | 21522m | -18.6m/s | -53.9°C | 3.9% | 46.2hPa | 2.4V | 02:11:45 | 03:03:27 | 00:00:00 | |
| GOEST3-10 | 2026-08-31 01:36:14 | 50.79115 | 9.81157 | 277° | 37km/h | 21538m | -14.7m/s | -53.8°C | 3.8% | 46.0hPa | 2.4V | 00:00:00 | 03:03:26 | 00:00:00 | |
| DB0UT-7 | 2026-08-31 01:36:13 | 50.79113 | 9.81168 | 296° | 27km/h | 21552m | -12.6m/s | -53.9°C | 3.9% | 45.9hPa | 2.4V | 00:00:00 | 00:00:00 | 00:00:00 | |
| DL1XH-15 | 2026-08-31 01:36:12 | 50.79065 | 9.81181 | 21° | 38km/h | 21626m | -11.8m/s | -54.2°C | 4% | 45.4hPa | 2.4V | 02:11:53 | 03:03:19 | 00:00:00 | |
| DF8AY | 2026-08-31 01:36:09 | 50.79084 | 9.81188 | 7° | 38km/h | 21603m | -11.7m/s | -54.1°C | 0.7% | 45.6hPa | 2.4V | 02:12:27 | 03:03:21 | 00:00:00 | |
| BIOWL1-15 | 2026-08-31 01:36:06 | 50.79057 | 9.81174 | 39° | 31km/h | 21638m | -12.8m/s | -54.2°C | 0.8% | 45.3hPa | 2.5V | 02:12:27 | 03:03:18 | 00:00:00 | |
| DM0DOS-11 | 2026-08-31 01:36:05 | 50.79052 | 9.81166 | 48° | 31km/h | 21650m | -10.4m/s | -54.3°C | 4% | 45.2hPa | 2.5V | 02:11:55 | 03:03:17 | 00:00:00 | |
| DL1XH-west | 2026-08-31 01:36:05 | 50.79051 | 9.81166 | 49° | 31km/h | 21650m | -10.4m/s | -54.3°C | 0.7% | 45.2hPa | 2.5V | 02:12:27 | 03:03:17 | 00:00:00 | |
| DL3AQ-11 | 2026-08-31 01:36:03 | 50.79044 | 9.81149 | 79° | 4km/h | 21677m | -9.3m/s | -54.4°C | 1.2% | 45.0hPa | 2.4V | 00:00:00 | 00:00:00 | 00:00:00 | |
| DL1XH-15 | 2026-08-31 01:36:02 | 50.79033 | 9.81179 | 324° | 37km/h | 21728m | -13.6m/s | -54.3°C | 4% | 44.7hPa | 2.4V | 02:12:03 | 03:03:09 | 00:00:00 | |
| DF8AY | 2026-08-31 01:35:58 | 50.79039 | 9.81171 | 312° | 27km/h | 21716m | -10.2m/s | -54.3°C | 0.7% | 44.8hPa | 2.5V | 02:12:27 | 03:03:10 | 00:00:00 | |
| DL8DAS-14 | 2026-08-31 01:35:56 | 50.78990 | 9.81205 | 353° | 31km/h | 21779m | -8.9m/s | -54.3°C | 1.1% | 44.4hPa | 2.4V | 00:00:00 | 00:00:00 | 00:00:00 | |
| DM0DOS-11 | 2026-08-31 01:35:55 | 50.79016 | 9.81194 | 336° | 40km/h | 21749m | -8.1m/s | -54.3°C | 4.1% | 44.5hPa | 2.4V | 02:12:05 | 03:03:07 | 00:00:00 | |
| HSKMA3-T | 2026-08-31 01:35:55 | 50.79017 | 9.81194 | 336° | 40km/h | 21749m | -8.1m/s | -54.3°C | 0.8% | 44.5hPa | 2.4V | 02:12:27 | 03:03:07 | 00:00:00 | |
| DL1XH-west | 2026-08-31 01:35:54 | 50.79007 | 9.81200 | 345° | 38km/h | 21758m | -10.9m/s | -54.3°C | 0.7% | 44.5hPa | 2.4V | 02:12:27 | 03:03:06 | 00:00:00 | |
| EDDB2-11 | 2026-08-31 01:35:53 | 50.78990 | 9.81205 | 353° | 31km/h | 21779m | -8.9m/s | -54.3°C | 1.1% | 44.4hPa | 2.4V | 00:00:00 | 00:00:00 | 00:00:00 | |
| DL1XH-15 | 2026-08-31 01:35:52 | 50.78963 | 9.81200 | 353° | 15km/h | 21829m | -10.7m/s | -54.1°C | 3.9% | 44hPa | 2.4V | 02:12:13 | 03:02:59 | 00:00:00 | |
| DF8AY | 2026-08-31 01:35:47 | 50.78964 | 9.81200 | 354° | 15km/h | 21829m | -10.7m/s | -54.2°C | 0.6% | 44hPa | 2.4V | 02:12:27 | 03:02:59 | 00:00:00 | |
| DM0DOS-11 | 2026-08-31 01:35:45 | 50.78956 | 9.81205 | 325° | 22km/h | 21850m | -9.4m/s | -54.1°C | 3.9% | 43.9hPa | 2.5V | 02:12:15 | 03:02:57 | 00:00:00 | |
| BIOWL1-15 | 2026-08-31 01:35:45 | 50.78956 | 9.81205 | 326° | 22km/h | 21850m | -9.4m/s | -54.1°C | 0.7% | 43.9hPa | 2.5V | 02:12:27 | 03:02:57 | 00:00:00 | |
| DL1XH-west | 2026-08-31 01:35:44 | 50.78951 | 9.81211 | 321° | 27km/h | 21858m | -7.7m/s | -54.1°C | 0.7% | 43.8hPa | 2.4V | 02:12:27 | 03:02:56 | 00:00:00 | |
| DJ2DS-15 | 2026-08-31 01:35:43 | 50.78944 | 9.81219 | 325° | 27km/h | 21869m | -13.3m/s | -54.0°C | 3.9% | 43.7hPa | 2.4V | 00:00:00 | 03:02:55 | 00:00:00 | |
| GOEST3-10 | 2026-08-31 01:35:42 | 50.78936 | 9.81227 | 327° | 33km/h | 21881m | -11.5m/s | -54.0°C | 3.9% | 43.6hPa | 2.4V | 00:00:00 | 03:02:54 | 00:00:00 | |
| DL3JIN-12 | 2026-08-31 01:35:41 | 50.78936 | 9.81227 | 328° | 37km/h | 21881m | -11.5m/s | -54.0°C | 1.1% | 43.7hPa | 2.4V | 02:12:00 | 00:00:00 | 00:00:00 | |
| DL1XH1-15 | 2026-08-31 01:35:40 | 50.78888 | 9.81237 | 30° | 20km/h | 21945m | -6.1m/s | -54°C | 3.9% | 43.2hPa | 2.4V | 02:12:25 | 03:02:47 | 00:00:00 | |
| DF8AY | 2026-08-31 01:35:36 | 50.78893 | 9.81241 | 24° | 20km/h | 21936m | -10.9m/s | -53.9°C | 0.7% | 43.3hPa | 2.4V | 02:12:27 | 03:02:48 | 00:00:00 | |
| DL1XH-west | 2026-08-31 01:35:34 | 50.78884 | 9.81233 | 39° | 15km/h | 21954m | -11.6m/s | -53.9°C | 0.7% | 43.2hPa | 2.4V | 02:12:27 | 03:02:46 | 00:00:00 | |
| AA1-15 | 2026-08-31 01:35:33 | 50.78881 | 9.81230 | 26° | 15km/h | 21964m | -10.2m/s | -54°C | 0.6% | 43.1hPa | 2.5V | 02:12:27 | 03:02:45 | 00:00:00 | |
| DL4BBY-15 | 2026-08-31 01:35:33 | 50.78881 | 9.81230 | 27° | 22km/h | 21964m | -10.2m/s | -54.9°C | 0% | 0hPa | 2.4V | 00:00:00 | 00:00:00 | 00:00:00 | |
| DL1XH-15 | 2026-08-31 01:35:32 | 50.78848 | 9.81218 | 8° | 33km/h | 22021m | -11.1m/s | -54°C | 4% | 42.7hPa | 2.4V | 02:12:33 | 03:02:39 | 00:00:00 | |
| GOEST3-10 | 2026-08-31 01:35:32 | 50.78878 | 9.81227 | 18° | 26km/h | 21974m | -8.3m/s | -53.9°C | 3.9% | 43.0hPa | 2.5V | 02:12:00 | 03:02:44 | 00:00:00 | |
| EDDB2-12 | 2026-08-31 01:35:31 | 50.78874 | 9.81226 | 15° | 18km/h | 21983m | -11.6m/s | -53.9°C | 1.1% | 43.0hPa | 2.5V | 00:00:00 | 00:00:00 | 00:00:00 | |
| DL1XH1-15 | 2026-08-31 01:35:30 | 50.78831 | 9.81214 | 9° | 33km/h | 22039m | -8.9m/s | -54°C | 4% | 42.6hPa | 2.5V | 02:12:35 | 03:02:37 | 00:00:00 | |
| DF8AY | 2026-08-31 01:35:26 | 50.78840 | 9.81216 | 9° | 31km/h | 22030m | -8.7m/s | -54°C | 0.7% | 42.6hPa | 2.5V | 02:13:18 | 03:02:38 | 00:00:00 | |
| DL1XH-west | 2026-08-31 01:35:24 | 50.78824 | 9.81213 | 8° | 29km/h | 22048m | -10.2m/s | -54.1°C | 0.7% | 42.5hPa | 2.4V | 02:13:18 | 03:02:36 | 00:00:00 | |
| HSKMA3-T | 2026-08-31 01:35:23 | 50.78817 | 9.81211 | 12° | 26km/h | 22058m | -9.4m/s | -54.1°C | 0.7% | 42.5hPa | 2.4V | 02:13:18 | 03:02:35 | 00:00:00 | |
| AA1-15 | 2026-08-31 01:35:22 | 50.78811 | 9.81208 | 21° | 24km/h | 22068m | -9.7m/s | -54.1°C | 0.8% | 42.4hPa | 2.4V | 02:13:18 | 03:02:34 | 00:00:00 | |
| DF8AY | 2026-08-31 01:35:16 | 50.78789 | 9.81181 | 48° | 18km/h | 22121m | -9m/s | -54.1°C | 0.8% | 42.1hPa | 2.4V | 02:13:18 | 03:02:28 | 00:00:00 | |
| BIOWL1-15 | 2026-08-31 01:35:14 | 50.78782 | 9.81172 | 30° | 18km/h | 22141m | -10.7m/s | -54°C | 0.8% | 41.9hPa | 2.4V | 02:13:18 | 03:02:26 | 00:00:00 | |
| DL1XH-west | 2026-08-31 01:35:13 | 50.78778 | 9.81168 | 32° | 20km/h | 22152m | -10.2m/s | -54°C | 0.7% | 41.9hPa | 2.4V | 02:13:18 | 03:02:25 | 00:00:00 | |
| AA1-15 | 2026-08-31 01:35:11 | 50.78769 | 9.81161 | 21° | 22km/h | 22170m | -8.5m/s | -53.9°C | 0.8% | 41.7hPa | 2.5V | 02:13:18 | 03:02:23 | 00:00:00 | |
| GOEST3-10 | 2026-08-31 01:35:11 | 50.78769 | 9.81161 | 22° | 20km/h | 22171m | -8.4m/s | -53.9°C | 4.0% | 41.7hPa | 2.5V | 00:00:00 | 03:02:23 | 00:00:00 | |
| DL1XH1-15 | 2026-08-31 01:35:10 | 50.78740 | 9.81146 | 8° | 13km/h | 22217m | -7.8m/s | -54°C | 4% | 41.4hPa | 2.5V | 02:12:55 | 03:02:17 | 00:00:00 | |
| DF8AY | 2026-08-31 01:35:05 | 50.78740 | 9.81146 | 9° | 13km/h | 22217m | -7.8m/s | -54°C | 0.9% | 41.4hPa | 2.5V | 02:13:18 | 03:02:17 | 00:00:00 | |
| HSKMA3-T | 2026-08-31 01:35:03 | 50.78736 | 9.81146 | 349° | 5km/h | 22231m | -6.2m/s | -54.1°C | 0.9% | 41.3hPa | 2.4V | 02:13:18 | 03:02:15 | 00:00:00 | |
| DL1XH-west | 2026-08-31 01:35:02 | 50.78735 | 9.81147 | 334° | 4km/h | 22238m | -8.1m/s | -54.1°C | 0.9% | 41.3hPa | 2.4V | 02:13:18 | 03:02:14 | 00:00:00 | |
| AA1-15 | 2026-08-31 01:35:00 | 50.78734 | 9.81148 | 221° | 0km/h | 22253m | -7.6m/s | -54.1°C | 0.9% | 41.2hPa | 2.5V | 02:13:18 | 03:02:12 | 00:00:00 | |
| DF8AY | 2026-08-31 01:34:55 | 50.78737 | 9.81132 | 74° | 16km/h | 22291m | -6.5m/s | -54.1°C | 1.1% | 40.9hPa | 2.4V | 02:13:18 | 03:02:07 | 00:00:00 | |
| BIOWL1-15 | 2026-08-31 01:34:53 | 50.78732 | 9.81119 | 47° | 24km/h | 22301m | -6.2m/s | -54.1°C | 0.9% | 40.9hPa | 2.4V | 02:13:18 | 03:02:05 | 00:00:00 | |
| SONCRA | 2026-08-31 01:34:53 | 50.78728 | 9.81112 | 43° | 27km/h | 22308m | -6.6m/s | -54.1°C | 1.3% | 40.9hPa | 2.5V | 00:00:00 | 00:00:00 | 00:00:00 | |
| DL1XH-15 | 2026-08-31 01:34:52 | 50.78704 | 9.81077 | 46° | 15km/h | 22340m | -6m/s | -54°C | 4.1% | 40.6hPa | 2.5V | 02:13:13 | 03:01:59 | 00:00:00 | |
| HSKMA3-T | 2026-08-31 01:34:52 | 50.78728 | 9.81112 | 44° | 29km/h | 22308m | -6.6m/s | -54.1°C | 1% | 40.9hPa | 2.5V | 02:13:18 | 03:02:04 | 00:00:00 | |
| DL1XH-west | 2026-08-31 01:34:51 | 50.78722 | 9.81103 | 43° | 31km/h | 22313m | -5.1m/s | -54.1°C | 1% | 40.8hPa | 2.5V | 02:13:18 | 03:02:03 | 00:00:00 | |
| DK5PH-5 | 2026-08-31 01:34:51 | 50.78722 | 9.81103 | 44° | 13km/h | 22314m | -5.0m/s | -54.0°C | 4.1% | 40.8hPa | 2.5V | 00:00:00 | 03:02:03 | 00:00:00 | |
| DM0DOS-11 | 2026-08-31 01:34:50 | 50.78702 | 9.81072 | 61° | 4km/h | 22354m | -7.3m/s | -54°C | 4.1% | 40.5hPa | 2.5V | 02:13:15 | 03:01:57 | 00:00:00 | |
| AA1-15 | 2026-08-31 01:34:49 | 50.78711 | 9.81088 | 42° | 26km/h | 22326m | -8.3m/s | -54.1°C | 0.9% | 40.7hPa | 2.4V | 02:13:18 | 03:02:01 | 00:00:00 | |
| DL1ZP-14 | 2026-08-31 01:34:47 | 50.78702 | 9.81074 | 58° | 7km/h | 22347m | -7.5m/s | -54.1°C | 1.3% | 40.6hPa | 2.5V | 00:00:00 | 00:00:00 | 00:00:00 | |
| DF8AY | 2026-08-31 01:34:44 | 50.78702 | 9.81072 | 127° | 2km/h | 22360m | -5.2m/s | -54.1°C | 1% | 40.5hPa | 2.4V | 02:13:18 | 03:01:56 | 00:00:00 | |
| BIOWL1-15 | 2026-08-31 01:34:42 | 50.78702 | 9.81073 | 270° | 4km/h | 22371m | -6.3m/s | -54.1°C | 1.1% | 40.4hPa | 2.4V | 02:13:18 | 03:01:54 | 00:00:00 | |
| DL1XH-west | 2026-08-31 01:34:40 | 50.78701 | 9.81077 | 321° | 9km/h | 22382m | -6m/s | -54.1°C | 1% | 40.3hPa | 2.5V | 02:14:09 | 03:01:52 | 00:00:00 | |
| AA1-15 | 2026-08-31 01:34:38 | 50.78696 | 9.81081 | 342° | 15km/h | 22397m | -7.9m/s | -54°C | 1% | 40.3hPa | 2.5V | 02:14:09 | 03:01:50 | 00:00:00 | |
| DF8AY | 2026-08-31 01:34:33 | 50.78672 | 9.81085 | 2° | 16km/h | 22427m | -3.8m/s | -54°C | 1.1% | 40.1hPa | 2.5V | 02:14:09 | 03:01:45 | 00:00:00 | |
| DL4BBY-15 | 2026-08-31 01:34:33 | 50.78671 | 9.81085 | 3° | 11km/h | 22428m | -3.7m/s | -55.0°C | 0% | 0hPa | 2.5V | 00:00:00 | 00:00:00 | 00:00:00 | |
| DL1XH-15 | 2026-08-31 01:34:32 | 50.78662 | 9.81094 | 261° | 11km/h | 22461m | -2.5m/s | -54.2°C | 4.2% | 39.9hPa | 2.5V | 02:13:33 | 03:01:39 | 00:00:00 | |
| BIOWL1-15 | 2026-08-31 01:34:31 | 50.78663 | 9.81099 | 254° | 11km/h | 22464m | -4.3m/s | -54.2°C | 1.1% | 39.9hPa | 2.5V | 02:14:09 | 03:01:38 | 00:00:00 | |
| HSKMA3-T | 2026-08-31 01:34:31 | 50.78665 | 9.81085 | 358° | 9km/h | 22438m | -7.3m/s | -54.1°C | 1% | 40hPa | 2.5V | 02:14:09 | 03:01:43 | 00:00:00 | |
| DL1XH-west | 2026-08-31 01:34:29 | 50.78663 | 9.81087 | 297° | 7km/h | 22452m | -6.4m/s | -54.2°C | 1.1% | 39.9hPa | 2.4V | 02:14:09 | 03:01:41 | 00:00:00 | |
| AA1-15 | 2026-08-31 01:34:27 | 50.78662 | 9.81094 | 261° | 11km/h | 22461m | -2.5m/s | -54.2°C | 1.1% | 39.9hPa | 2.5V | 02:14:09 | 03:01:39 | 00:00:00 | |
| DF8AY | 2026-08-31 01:34:27 | 50.78665 | 9.81113 | 263° | 9km/h | 22489m | -6.5m/s | -54.1°C | 1.1% | 39.7hPa | 2.4V | 02:14:09 | 03:01:34 | 00:00:00 | |
| DM0DOS-11 | 2026-08-31 01:34:25 | 50.78664 | 9.81103 | 255° | 9km/h | 22469m | -5.8m/s | -54.2°C | 4.2% | 39.8hPa | 2.5V | 02:13:35 | 03:01:37 | 00:00:00 | |
| GOEST3-10 | 2026-08-31 01:34:24 | 50.78664 | 9.81106 | 258° | 9km/h | 22475m | -5.9m/s | -54.1°C | 4.3% | 39.8hPa | 2.5V | 00:00:00 | 00:00:00 | 00:00:00 | |
| DO9LL-15 | 2026-08-31 01:34:23 | 50.78665 | 9.81110 | 260° | 13km/h | 22482m | -7.4m/s | -54.1°C | 4.2% | 39.7hPa | 2.5V | 00:00:00 | 03:01:35 | 00:00:00 | |
| SONCRA | 2026-08-31 01:34:22 | 50.78665 | 9.81117 | 267° | 9km/h | 22494m | -3.5m/s | -54.1°C | 1.4% | 39.7hPa | 2.5V | 00:00:00 | 00:00:00 | 00:00:00 | |
| DK5PH-5 | 2026-08-31 01:34:21 | 50.78665 | 9.81117 | 268° | 15km/h | 22494m | -3.4m/s | -54.1°C | 4.3% | 39.6hPa | 2.5V | 00:00:00 | 03:01:33 | 00:00:00 | |
| DL1XH1-15 | 2026-08-31 01:34:20 | 50.78662 | 9.81137 | 294° | 11km/h | 22521m | -5m/s | -53.9°C | 4.3% | 39.5hPa | 2.5V | 02:13:45 | 03:01:27 | 00:00:00 | |
| HSKMA3-T | 2026-08-31 01:34:20 | 50.78665 | 9.81121 | 274° | 9km/h | 22496m | -2m/s | -54.1°C | 1.2% | 39.7hPa | 2.5V | 02:14:09 | 03:01:32 | 00:00:00 | |
| BIOWL1-15 | 2026-08-31 01:34:18 | 50.78663 | 9.81133 | 294° | 9km/h | 22516m | -6.3m/s | -54°C | 1.1% | 39.6hPa | 2.4V | 02:14:09 | 03:01:28 | 00:00:00 | |
| DL1XH-west | 2026-08-31 01:34:18 | 50.78664 | 9.81127 | 291° | 7km/h | 22504m | -5.1m/s | -54.1°C | 1.1% | 39.6hPa | 2.5V | 02:14:09 | 03:01:30 | 00:00:00 | |
| DJ2KF-10 | 2026-08-31 01:34:17 | 50.78664 | 9.81130 | 298° | 16km/h | 22510m | -5.6m/s | -54.0°C | 4.3% | 39.5hPa | 2.5V | 00:00:00 | 03:01:29 | 00:00:00 | |
| AA1-15 | 2026-08-31 01:34:17 | 50.78664 | 9.81130 | 298° | 7km/h | 22510m | -5.6m/s | -54°C | 1.1% | 39.6hPa | 2.4V | 02:14:09 | 03:01:29 | 00:00:00 | |
| DL1ZP-14 | 2026-08-31 01:34:16 | 50.78662 | 9.81136 | 294° | 9km/h | 22521m | -5.0m/s | -53.9°C | 1.3% | 39.5hPa | 2.5V | 00:00:00 | 00:00:00 | 00:00:00 | |
| DL3AQ-11 | 2026-08-31 01:34:15 | 50.78662 | 9.81136 | 294° | 9km/h | 22521m | -5.0m/s | -53.9°C | 1.3% | 39.5hPa | 2.5V | 00:00:00 | 00:00:00 | 00:00:00 | |
| GOEST3-10 | 2026-08-31 01:34:14 | 50.78660 | 9.81141 | 292° | 15km/h | 22526m | -3.2m/s | -53.8°C | 4.3% | 39.4hPa | 2.5V | 02:13:00 | 00:00:00 | 00:00:00 | |
| DB0UT-7 | 2026-08-31 01:34:13 | 50.78659 | 9.81146 | 283° | 18km/h | 22529m | -2.9m/s | -53.7°C | 4.2% | 39.4hPa | 2.5V | 02:13:00 | 00:00:00 | 00:00:00 | |
| DL1XH-15 | 2026-08-31 01:34:12 | 50.78656 | 9.81182 | 286° | 15km/h | 22558m | -2.5m/s | -53.4°C | 4.3% | 39.3hPa | 2.5V | 02:13:53 | 03:01:19 | 00:00:00 | |
| DF8AY | 2026-08-31 01:34:11 | 50.78659 | 9.81158 | 274° | 16km/h | 22537m | -5.8m/s | -53.5°C | 1.1% | 39.4hPa | 2.5V | 02:14:09 | 03:01:23 | 00:00:00 | |
| HSKMA3-T | 2026-08-31 01:34:09 | 50.78658 | 9.81170 | 279° | 15km/h | 22549m | -5.6m/s | -53.4°C | 1.1% | 39.3hPa | 2.5V | 02:14:09 | 03:01:21 | 00:00:00 | |
| DL1XH-west | 2026-08-31 01:34:07 | 50.78656 | 9.81182 | 287° | 15km/h | 22558m | -2.5m/s | -53.4°C | 1.3% | 39.3hPa | 2.5V | 02:14:09 | 03:01:19 | 00:00:00 | |
| AA1-15 | 2026-08-31 01:34:06 | 50.78655 | 9.81188 | 287° | 15km/h | 22560m | -2.9m/s | -53.4°C | 1% | 39.2hPa | 2.5V | 02:14:09 | 03:01:18 | 00:00:00 | |
| BIOWL1-15 | 2026-08-31 01:34:05 | 50.78652 | 9.81210 | 284° | 15km/h | 22579m | -4.8m/s | -53.3°C | 1.1% | 39.1hPa | 2.5V | 02:14:09 | 03:01:14 | 00:00:00 | |
| DO8TBO-1 | 2026-08-31 01:34:05 | 50.78653 | 9.81199 | 281° | 18km/h | 22569m | -5.2m/s | -53.3°C | 4.1% | 39.2hPa | 2.4V | 02:13:00 | 03:01:16 | 00:00:00 | |
| DL3AQ-11 | 2026-08-31 01:34:03 | 50.78652 | 9.81210 | 284° | 13km/h | 22579m | -4.8m/s | -53.3°C | 1.3% | 39.1hPa | 2.4V | 00:00:00 | 00:00:00 | 00:00:00 | |
| DL1XH-15 | 2026-08-31 01:34:02 | 50.78644 | 9.81236 | 304° | 16km/h | 22597m | -4.8m/s | -53.4°C | 4.1% | 39hPa | 2.4V | 02:14:03 | 03:01:09 | 00:00:00 | |
| DF8AY | 2026-08-31 01:34:01 | 50.78651 | 9.81216 | 289° | 15km/h | 22583m | -3m/s | -53.3°C | 1.2% | 39.1hPa | 2.5V | 02:14:09 | 03:01:13 | 00:00:00 | |
| HSKMA3-T | 2026-08-31 01:33:59 | 50.78648 | 9.81226 | 298° | 15km/h | 22588m | -3.6m/s | -53.3°C | 1.1% | 39.1hPa | 2.5V | 02:14:09 | 03:01:11 | 00:00:00 | |
| DL1XH-west | 2026-08-31 01:33:57 | 50.78644 | 9.81236 | 305° | 16km/h | 22597m | -4.8m/s | -53.4°C | 1.2% | 39hPa | 2.4V | 02:14:09 | 03:01:09 | 00:00:00 | |
| AA1-15 | 2026-08-31 01:33:55 | 50.78638 | 9.81247 | 310° | 20km/h | 22606m | -4m/s | -53.4°C | 1.3% | 39hPa | 2.5V | 02:14:09 | 03:01:07 | 00:00:00 | |
| DM0DOS-11 | 2026-08-31 01:33:55 | 50.78635 | 9.81253 | 308° | 20km/h | 22609m | -3.2m/s | -53.4°C | 4.3% | 39hPa | 2.5V | 02:14:06 | 03:01:06 | 00:00:00 | |
| BIOWL1-15 | 2026-08-31 01:33:52 | 50.78623 | 9.81285 | 291° | 26km/h | 22625m | -4.2m/s | -53.4°C | 1.2% | 38.9hPa | 2.5V | 02:15:00 | 03:01:02 | 00:00:00 | |
| DL1XH-15 | 2026-08-31 01:33:52 | 50.78617 | 9.81312 | 290° | 22km/h | 22636m | -3.9m/s | -53.5°C | 4.3% | 38.8hPa | 2.5V | 02:14:13 | 03:00:59 | 00:00:00 | |
| DF8AY | 2026-08-31 01:33:51 | 50.78626 | 9.81276 | 296° | 24km/h | 22620m | -4.2m/s | -53.4°C | 1.1% | 38.9hPa | 2.5V | 02:14:09 | 03:01:03 | 00:00:00 | |
| HSKMA3-T | 2026-08-31 01:33:49 | 50.78621 | 9.81294 | 289° | 26km/h | 22629m | -3.7m/s | -53.5°C | 1.3% | 38.9hPa | 2.5V | 02:15:00 | 03:01:01 | 00:00:00 | |
| EDDB2-11 | 2026-08-31 01:33:48 | 50.78619 | 9.81304 | 289° | 24km/h | 22633m | -3.7m/s | -53.5°C | 1.5% | 38.8hPa | 2.5V | 00:00:00 | 00:00:00 | 00:00:00 | |
| DJ2KF-10 | 2026-08-31 01:33:47 | 50.78617 | 9.81312 | 291° | 18km/h | 22637m | -3.9m/s | -53.4°C | 4.3% | 38.8hPa | 2.5V | 02:14:00 | 03:00:59 | 00:00:00 | |
| DL1XH-west | 2026-08-31 01:33:47 | 50.78617 | 9.81312 | 291° | 22km/h | 22636m | -3.9m/s | -53.5°C | 1.4% | 38.8hPa | 2.5V | 02:15:00 | 03:00:59 | 00:00:00 | |
| DM0DOS-11 | 2026-08-31 01:33:45 | 50.78611 | 9.81332 | 302° | 15km/h | 22647m | -3.5m/s | -53.5°C | 4.3% | 38.7hPa | 2.4V | 02:14:16 | 03:00:56 | 00:00:00 | |
| AA1-15 | 2026-08-31 01:33:45 | 50.78613 | 9.81326 | 297° | 16km/h | 22644m | -3.5m/s | -53.5°C | 1.2% | 38.7hPa | 2.5V | 02:15:00 | 03:00:57 | 00:00:00 | |
| DL1ZP-14 | 2026-08-31 01:33:44 | 50.78612 | 9.81332 | 302° | 15km/h | 22647m | -3.5m/s | -53.6°C | 1.5% | 38.8hPa | 2.4V | 00:00:00 | 00:00:00 | 00:00:00 | |
| DJ2DS-15 | 2026-08-31 01:33:43 | 50.78609 | 9.81336 | 310° | 18km/h | 22651m | -3.1m/s | -53.5°C | 4.3% | 38.7hPa | 2.5V | 00:00:00 | 03:00:55 | 00:00:00 | |
| BIOWL1-15 | 2026-08-31 01:33:43 | 50.78604 | 9.81345 | 314° | 15km/h | 22657m | -3.3m/s | -53.6°C | 1.3% | 38.7hPa | 2.5V | 02:15:00 | 03:00:53 | 00:00:00 | |
| DL1XH-15 | 2026-08-31 01:33:42 | 50.78592 | 9.81364 | 315° | 18km/h | 22669m | -2.7m/s | -53.6°C | 4.4% | 38.6hPa | 2.5V | 02:14:23 | 03:00:49 | 00:00:00 | |
| DF8AY | 2026-08-31 01:33:40 | 50.78602 | 9.81350 | 315° | 16km/h | 22660m | -3.4m/s | -53.6°C | 1.5% | 38.7hPa | 2.5V | 02:15:00 | 03:00:52 | 00:00:00 | |
| HSKMA3-T | 2026-08-31 01:33:38 | 50.78596 | 9.81359 | 315° | 18km/h | 22667m | -2.9m/s | -53.6°C | 1.6% | 38.6hPa | 2.5V | 02:15:00 | 03:00:50 | 00:00:00 | |
| DL1XH-west | 2026-08-31 01:33:36 | 50.78589 | 9.81370 | 317° | 18km/h | 22672m | -2.6m/s | -53.6°C | 1.2% | 38.6hPa | 2.5V | 02:15:00 | 03:00:48 | 00:00:00 | |
| DM0DOS-11 | 2026-08-31 01:33:35 | 50.78582 | 9.81379 | 322° | 18km/h | 22678m | -2.9m/s | -53.6°C | 4.1% | 38.5hPa | 2.5V | 02:14:26 | 03:00:46 | 00:00:00 | |
| AA1-15 | 2026-08-31 01:33:34 | 50.78582 | 9.81379 | 322° | 18km/h | 22678m | -2.9m/s | -53.6°C | 1.1% | 38.5hPa | 2.5V | 02:15:00 | 03:00:46 | 00:00:00 | |
| DO8TBO-1 | 2026-08-31 01:33:34 | 50.78582 | 9.81379 | 323° | 20km/h | 22678m | -2.9m/s | -53.6°C | 4.1% | 38.5hPa | 2.5V | 00:00:00 | 03:00:46 | 00:00:00 | |
| DL4BBY-15 | 2026-08-31 01:33:33 | 50.78578 | 9.81383 | 325° | 20km/h | 22681m | -2.8m/s | -54.6°C | 0% | 0hPa | 2.5V | 00:00:00 | 00:00:00 | 00:00:00 | |
| DL1XH-15 | 2026-08-31 01:33:32 | 50.78553 | 9.81408 | 327° | 20km/h | 22694m | -1.4m/s | -53.6°C | 4.1% | 38.5hPa | 2.5V | 02:14:33 | 03:00:39 | 00:00:00 | |
| DF8AY | 2026-08-31 01:33:30 | 50.78566 | 9.81396 | 329° | 20km/h | 22688m | -2.4m/s | -53.7°C | 1.3% | 38.5hPa | 2.5V | 02:15:00 | 03:00:42 | 00:00:00 | |
| HSKMA3-T | 2026-08-31 01:33:27 | 50.78553 | 9.81408 | 327° | 22km/h | 22694m | -1.4m/s | -53.6°C | 1% | 38.5hPa | 2.5V | 02:15:00 | 03:00:39 | 00:00:00 | |
| GOEST3-10 | 2026-08-31 01:33:27 | 50.78553 | 9.81408 | 328° | 22km/h | 22694m | -1.3m/s | -53.5°C | 4.1% | 38.4hPa | 2.5V | 02:14:00 | 03:00:39 | 00:00:00 | |
| DL8OAI-8 | 2026-08-31 01:33:26 | 50.78553 | 9.81408 | 328° | 20km/h | 22694m | -1.4m/s | -53.6°C | 1.3% | 38.5hPa | 2.5V | 02:15:00 | 00:00:00 | 00:00:00 | |
| DM0DOS-11 | 2026-08-31 01:33:25 | 50.78540 | 9.81423 | 323° | 22km/h | 22698m | -1m/s | -53.7°C | 3.9% | 38.4hPa | 2.5V | 02:14:36 | 03:00:36 | 00:00:00 | |
| DF8AY | 2026-08-31 01:33:25 | 50.78524 | 9.81443 | 322° | 20km/h | 22698m | 0.5m/s | -53.7°C | 0.7% | 38.4hPa | 2.5V | 02:15:00 | 03:00:32 | 00:00:00 | |
| DL1XH-west | 2026-08-31 01:33:25 | 50.78544 | 9.81418 | 325° | 22km/h | 22697m | -1.3m/s | -53.7°C | 0.6% | 38.4hPa | 2.5V | 02:15:00 | 03:00:37 | 00:00:00 | |
| AA1-15 | 2026-08-31 01:33:24 | 50.78540 | 9.81423 | 324° | 22km/h | 22698m | -1m/s | -53.7°C | 0.6% | 38.4hPa | 2.5V | 02:15:00 | 03:00:36 | 00:00:00 | |
| DD1CC8 | 2026-08-31 01:33:24 | 50.78536 | 9.81428 | 323° | 20km/h | 22699m | -0.6m/s | -53.7°C | 1.0% | 38.4hPa | 2.5V | 00:00:00 | 00:00:00 | 00:00:00 | |
| DJ2DS-15 | 2026-08-31 01:33:23 | 50.78536 | 9.81428 | 324° | 20km/h | 22699m | -0.5m/s | -53.6°C | 3.9% | 38.4hPa | 2.5V | 02:14:00 | 03:00:35 | 00:00:00 | |
| DL1XH-15 | 2026-08-31 01:33:22 | 50.78512 | 9.81456 | 324° | 18km/h | 22697m | 0.4m/s | -53.7°C | 3.9% | 38.4hPa | 2.5V | 02:14:43 | 03:00:29 | 00:00:00 | |
| GOEST3-10 | 2026-08-31 01:33:22 | 50.78532 | 9.81433 | 323° | 20km/h | 22699m | 0.0m/s | -53.7°C | 3.9% | 38.4hPa | 2.5V | 00:00:00 | 00:00:00 | 00:00:00 | |
| DK5PH-5 | 2026-08-31 01:33:21 | 50.78527 | 9.81438 | 322° | 20km/h | 22699m | 0.3m/s | -53.7°C | 3.9% | 38.4hPa | 2.5V | 00:00:00 | 03:00:33 | 00:00:00 | |
| DL1XH1-15 | 2026-08-31 01:33:20 | 50.78504 | 9.81465 | 323° | 20km/h | 22695m | 1.3m/s | -53.7°C | 3.8% | 38.4hPa | 2.5V | 02:14:45 | 03:00:27 | 00:00:00 | |
| BIOWL1-15 | 2026-08-31 01:33:19 | 50.78508 | 9.81461 | 325° | 20km/h | 22696m | 0.7m/s | -53.7°C | 0.5% | 38.4hPa | 2.5V | 02:15:00 | 03:00:28 | 00:00:00 | |
| HSKMA3-T | 2026-08-31 01:33:17 | 50.78512 | 9.81456 | 324° | 18km/h | 22697m | 0.4m/s | -53.7°C | 0.7% | 38.4hPa | 2.5V | 02:15:00 | 03:00:29 | 00:00:00 | |
| DL1XH-west | 2026-08-31 01:33:15 | 50.78504 | 9.81465 | 324° | 20km/h | 22695m | 1.3m/s | -53.7°C | 0.5% | 38.4hPa | 2.5V | 02:15:00 | 03:00:27 | 00:00:00 | |
| AA1-15 | 2026-08-31 01:33:14 | 50.78500 | 9.81470 | 323° | 20km/h | 22694m | 1.6m/s | -53.7°C | 0.5% | 38.5hPa | 2.5V | 02:15:00 | 03:00:26 | 00:00:00 | |
| DF8AY | 2026-08-31 01:33:11 | 50.78484 | 9.81492 | 314° | 22km/h | 22688m | 1.2m/s | -53.7°C | 0.5% | 38.5hPa | 2.5V | 02:15:00 | 03:00:22 | 00:00:00 | |
| DL1XH1-15 | 2026-08-31 01:33:10 | 50.78468 | 9.81524 | 305° | 18km/h | 22679m | 2m/s | -53.7°C | 3.8% | 38.5hPa | 2.5V | 02:14:55 | 03:00:17 | 00:00:00 | |
| BIOWL1-15 | 2026-08-31 01:33:07 | 50.78473 | 9.81512 | 308° | 20km/h | 22684m | 2.1m/s | -53.7°C | 0.5% | 38.5hPa | 2.5V | 02:15:00 | 03:00:19 | 00:00:00 | |
| SP3BTT-10 | 2026-08-31 01:33:07 | 50.78473 | 9.81512 | 308° | 20km/h | 22684m | 2.1m/s | -53.6°C | 3.8% | 38.5hPa | 2.5V | 00:00:00 | 00:00:00 | 00:00:00 | |
| DL8OAI-8 | 2026-08-31 01:33:06 | 50.78473 | 9.81512 | 309° | 20km/h | 22684m | 2.1m/s | -53.7°C | 1.0% | 38.5hPa | 2.5V | 02:15:00 | 00:00:00 | 00:00:00 | |
| DM0DOS-11 | 2026-08-31 01:33:05 | 50.78465 | 9.81530 | 306° | 16km/h | 22677m | 1.7m/s | -53.6°C | 3.9% | 38.5hPa | 2.5V | 02:14:56 | 03:00:16 | 00:00:00 | |
| DL1XH-west | 2026-08-31 01:33:04 | 50.78465 | 9.81530 | 306° | 18km/h | 22677m | 1.7m/s | -53.7°C | 0.6% | 38.5hPa | 2.5V | 02:15:00 | 03:00:16 | 00:00:00 | |
| AA1-15 | 2026-08-31 01:33:03 | 50.78462 | 9.81535 | 308° | 16km/h | 22676m | 1.6m/s | -53.7°C | 0.5% | 38.6hPa | 2.5V | 02:15:00 | 03:00:15 | 00:00:00 | |
| DJ2DS-15 | 2026-08-31 01:33:03 | 50.78462 | 9.81535 | 309° | 18km/h | 22676m | 1.5m/s | -53.6°C | 3.8% | 38.5hPa | 2.5V | 00:00:00 | 03:00:15 | 00:00:00 | |
| DL1XH-15 | 2026-08-31 01:33:02 | 50.78445 | 9.81565 | 313° | 18km/h | 22665m | 2.1m/s | -53.6°C | 3.8% | 38.6hPa | 2.5V | 02:15:03 | 03:00:09 | 00:00:00 | |
| BUE01 | 2026-08-31 01:33:01 | 50.78454 | 9.81550 | 312° | 16km/h | 22671m | 1.7m/s | -53.6°C | 1.0% | 38.6hPa | 2.5V | 00:00:00 | 00:00:00 | 00:00:00 | |
| DL1XH1-15 | 2026-08-31 01:33:00 | 50.78438 | 9.81577 | 311° | 20km/h | 22662m | 1.6m/s | -53.6°C | 3.8% | 38.6hPa | 2.5V | 02:15:05 | 03:00:07 | 00:00:00 | |
| DF8AY | 2026-08-31 01:32:59 | 50.78451 | 9.81555 | 314° | 16km/h | 22670m | 2.1m/s | -53.6°C | 0.5% | 38.6hPa | 2.5V | 02:15:51 | 03:00:11 | 00:00:00 | |
| HSKMA3-T | 2026-08-31 01:32:56 | 50.78442 | 9.81571 | 313° | 20km/h | 22663m | 1.9m/s | -53.6°C | 0.6% | 38.6hPa | 2.5V | 02:15:51 | 03:00:08 | 00:00:00 | |
| DM0DOS-11 | 2026-08-31 01:32:55 | 50.78435 | 9.81583 | 310° | 22km/h | 22660m | 1.4m/s | -53.6°C | 3.8% | 38.6hPa | 2.5V | 02:15:06 | 03:00:06 | 00:00:00 | |
| DL1XH-west | 2026-08-31 01:32:53 | 50.78431 | 9.81590 | 309° | 20km/h | 22659m | 1.4m/s | -53.6°C | 0.6% | 38.7hPa | 2.5V | 02:15:51 | 03:00:05 | 00:00:00 | |
| AA1-15 | 2026-08-31 01:32:52 | 50.78428 | 9.81596 | 308° | 20km/h | 22657m | 1.6m/s | -53.6°C | 0.5% | 38.7hPa | 2.5V | 02:15:51 | 03:00:04 | 00:00:00 | |
| DF8AY | 2026-08-31 01:32:48 | 50.78417 | 9.81619 | 305° | 16km/h | 22648m | 2.2m/s | -53.5°C | 0.6% | 38.7hPa | 2.5V | 02:15:51 | 03:00:00 | 00:00:00 | |
| HSKMA3-T | 2026-08-31 01:32:46 | 50.78413 | 9.81629 | 304° | 16km/h | 22644m | 1.8m/s | -53.5°C | 0.6% | 38.7hPa | 2.5V | 02:15:51 | 02:59:58 | 00:00:00 | |
| DM0DOS-11 | 2026-08-31 01:32:45 | 50.78409 | 9.81641 | 300° | 16km/h | 22641m | 1.8m/s | -53.5°C | 3.8% | 38.8hPa | 2.5V | 02:15:16 | 02:59:56 | 00:00:00 | |
| DL1XH-west | 2026-08-31 01:32:43 | 50.78406 | 9.81647 | 299° | 18km/h | 22639m | 2m/s | -53.5°C | 0.5% | 38.8hPa | 2.5V | 02:15:51 | 02:59:55 | 00:00:00 | |
| AA1-15 | 2026-08-31 01:32:41 | 50.78402 | 9.81660 | 297° | 20km/h | 22634m | 2.5m/s | -53.5°C | 0.6% | 38.8hPa | 2.5V | 02:15:51 | 02:59:53 | 00:00:00 | |
| DL1XH1-15 | 2026-08-31 01:32:40 | 50.78387 | 9.81705 | 296° | 18km/h | 22622m | 1.9m/s | -53.4°C | 3.8% | 38.9hPa | 2.5V | 02:15:25 | 02:59:47 | 00:00:00 | |
| DF8AY | 2026-08-31 01:32:37 | 50.78391 | 9.81691 | 298° | 22km/h | 22626m | 1.8m/s | -53.4°C | 0.6% | 38.9hPa | 2.5V | 02:15:51 | 02:59:49 | 00:00:00 | |
| BIOWL1-15 | 2026-08-31 01:32:36 | 50.78389 | 9.81698 | 297° | 20km/h | 22624m | 1.8m/s | -53.4°C | 0.5% | 38.9hPa | 2.5V | 02:15:51 | 02:59:48 | 00:00:00 | |
| HSKMA3-T | 2026-08-31 01:32:35 | 50.78387 | 9.81705 | 297° | 18km/h | 22622m | 1.9m/s | -53.4°C | 0.6% | 38.9hPa | 2.5V | 02:15:51 | 02:59:47 | 00:00:00 | |
| SP3BTT-10 | 2026-08-31 01:32:34 | 50.78385 | 9.81711 | 297° | 16km/h | 22620m | 2.0m/s | -53.4°C | 3.8% | 38.8hPa | 2.5V | 02:15:00 | 00:00:00 | 00:00:00 | |
| DL4BBY-15 | 2026-08-31 01:32:33 | 50.78382 | 9.81717 | 296° | 16km/h | 22618m | 2.3m/s | -54.3°C | 0% | 0hPa | 2.5V | 00:00:00 | 00:00:00 | 00:00:00 | |
| DL1XH-15 | 2026-08-31 01:32:32 | 50.78375 | 9.81751 | 287° | 16km/h | 22605m | 1.9m/s | -53.4°C | 3.8% | 39hPa | 2.5V | 02:15:33 | 02:59:39 | 00:00:00 | |
| DL1XH-west | 2026-08-31 01:32:32 | 50.78381 | 9.81723 | 293° | 15km/h | 22616m | 2.3m/s | -53.4°C | 0.5% | 38.9hPa | 2.6V | 02:15:51 | 02:59:44 | 00:00:00 | |
| AA1-15 | 2026-08-31 01:32:30 | 50.78379 | 9.81734 | 291° | 15km/h | 22611m | 2.2m/s | -53.4°C | 0.6% | 38.9hPa | 2.5V | 02:15:51 | 02:59:42 | 00:00:00 | |
| DF8AY | 2026-08-31 01:32:27 | 50.78375 | 9.81751 | 288° | 16km/h | 22605m | 2m/s | -53.4°C | 0.6% | 39hPa | 2.5V | 02:15:51 | 02:59:39 | 00:00:00 | |
| BIOWL1-15 | 2026-08-31 01:32:26 | 50.78374 | 9.81757 | 287° | 16km/h | 22603m | 2.1m/s | -53.4°C | 0.5% | 39hPa | 2.6V | 02:15:51 | 02:59:38 | 00:00:00 | |
| DM0DOS-11 | 2026-08-31 01:32:25 | 50.78371 | 9.81770 | 286° | 16km/h | 22598m | 2.3m/s | -53.4°C | 3.7% | 39hPa | 2.4V | 02:15:36 | 02:59:36 | 00:00:00 | |
| DL1XH1-15 | 2026-08-31 01:32:25 | 50.78373 | 9.81764 | 287° | 16km/h | 22601m | 2.2m/s | -53.4°C | 3.8% | 39hPa | 2.5V | 02:15:35 | 02:59:37 | 00:00:00 | |
| HSKMA3-T | 2026-08-31 01:32:24 | 50.78371 | 9.81770 | 287° | 16km/h | 22599m | 2.3m/s | -53.4°C | 0.5% | 39hPa | 2.4V | 02:15:51 | 02:59:36 | 00:00:00 | |
| DL1XH-west | 2026-08-31 01:32:22 | 50.78369 | 9.81782 | 286° | 16km/h | 22594m | 2.2m/s | -53.4°C | 0.5% | 39hPa | 2.5V | 02:15:51 | 02:59:34 | 00:00:00 | |
| AA1-15 | 2026-08-31 01:32:19 | 50.78366 | 9.81800 | 286° | 16km/h | 22588m | 2m/s | -53.4°C | 0.5% | 39.1hPa | 2.5V | 02:15:51 | 02:59:31 | 00:00:00 | |
| DF8AY | 2026-08-31 01:32:16 | 50.78362 | 9.81820 | 286° | 18km/h | 22582m | 2.2m/s | -53.4°C | 0.6% | 39.1hPa | 2.5V | 02:15:51 | 02:59:28 | 00:00:00 | |
| DM0DOS-11 | 2026-08-31 01:32:15 | 50.78360 | 9.81833 | 286° | 18km/h | 22577m | 2.3m/s | -53.4°C | 3.8% | 39.1hPa | 2.5V | 02:15:46 | 02:59:26 | 00:00:00 | |
| BIOWL1-15 | 2026-08-31 01:32:15 | 50.78361 | 9.81826 | 286° | 18km/h | 22579m | 2.2m/s | -53.4°C | 0.5% | 39.1hPa | 2.5V | 02:15:51 | 02:59:27 | 00:00:00 | |
| HSKMA3-T | 2026-08-31 01:32:13 | 50.78358 | 9.81840 | 288° | 18km/h | 22575m | 2.2m/s | -53.4°C | 0.5% | 39.1hPa | 2.5V | 02:15:51 | 02:59:25 | 00:00:00 | |
| DJ2DS-15 | 2026-08-31 01:32:13 | 50.78357 | 9.81847 | 289° | 16km/h | 22573m | 2.1m/s | -53.4°C | 1.0% | 39.2hPa | 2.5V | 00:00:00 | 00:00:00 | 00:00:00 | |
| DL1XH-15 | 2026-08-31 01:32:12 | 50.78349 | 9.81875 | 292° | 15km/h | 22563m | 2.1m/s | -53.5°C | 3.8% | 39.2hPa | 2.5V | 02:15:53 | 02:59:19 | 00:00:00 | |
| DL1XH-west | 2026-08-31 01:32:11 | 50.78355 | 9.81853 | 291° | 16km/h | 22571m | 1.9m/s | -53.4°C | 0.6% | 39.2hPa | 2.5V | 02:15:51 | 02:59:23 | 00:00:00 | |
| AA1-15 | 2026-08-31 01:32:08 | 50.78351 | 9.81870 | 294° | 15km/h | 22565m | 1.9m/s | -53.5°C | 0.5% | 39.2hPa | 2.5V | 02:16:42 | 02:59:20 | 00:00:00 | |
| BIOWL1-15 | 2026-08-31 01:32:06 | 50.78346 | 9.81891 | 282° | 15km/h | 22556m | 2.3m/s | -53.5°C | 0.5% | 39.3hPa | 2.4V | 02:16:42 | 02:59:16 | 00:00:00 | |
| DM0DOS-11 | 2026-08-31 01:32:05 | 50.78346 | 9.81891 | 281° | 13km/h | 22556m | 2.3m/s | -53.5°C | 3.7% | 39.3hPa | 2.4V | 02:15:56 | 02:59:16 | 00:00:00 | |
| DF8AY | 2026-08-31 01:32:05 | 50.78347 | 9.81886 | 285° | 15km/h | 22559m | 2.2m/s | -53.5°C | 0.5% | 39.2hPa | 2.5V | 02:16:42 | 02:59:17 | 00:00:00 | |
| DF5WG-10 | 2026-08-31 01:32:05 | 50.78347 | 9.81886 | 286° | 13km/h | 22559m | 2.2m/s | -53.4°C | 3.7% | 39.2hPa | 2.5V | 02:15:00 | 02:59:17 | 00:00:00 | |
| SP3BTT-10 | 2026-08-31 01:32:04 | 50.78346 | 9.81891 | 282° | 11km/h | 22557m | 2.3m/s | -53.4°C | 3.7% | 39.2hPa | 2.4V | 00:00:00 | 00:00:00 | 00:00:00 | |
| DL3AQ-11 | 2026-08-31 01:32:03 | 50.78345 | 9.81902 | 276° | 13km/h | 22552m | 2.0m/s | -53.5°C | 1.1% | 39.3hPa | 2.4V | 00:00:00 | 00:00:00 | 00:00:00 | |
| DL1XH-15 | 2026-08-31 01:32:02 | 50.78342 | 9.81927 | 287° | 13km/h | 22542m | 2.5m/s | -53.7°C | 3.8% | 39.4hPa | 2.4V | 02:16:03 | 02:59:09 | 00:00:00 | |
| HSKMA3-T | 2026-08-31 01:32:02 | 50.78345 | 9.81902 | 277° | 13km/h | 22552m | 2m/s | -53.5°C | 0.6% | 39.3hPa | 2.5V | 02:16:42 | 02:59:14 | 00:00:00 | |
| DL1XH-west | 2026-08-31 01:32:00 | 50.78344 | 9.81912 | 278° | 13km/h | 22548m | 1.7m/s | -53.6°C | 0.6% | 39.3hPa | 2.5V | 02:16:42 | 02:59:12 | 00:00:00 | |
| AA1-15 | 2026-08-31 01:31:57 | 50.78342 | 9.81927 | 287° | 13km/h | 22542m | 2.5m/s | -53.7°C | 0.6% | 39.4hPa | 2.4V | 02:16:42 | 02:59:09 | 00:00:00 | |
| GOEST3-10 | 2026-08-31 01:31:57 | 50.78342 | 9.81927 | 288° | 13km/h | 22543m | 2.5m/s | -53.7°C | 3.8% | 39.3hPa | 2.4V | 02:16:00 | 02:59:09 | 00:00:00 | |
| DM0DOS-11 | 2026-08-31 01:31:55 | 50.78339 | 9.81941 | 286° | 11km/h | 22535m | 2.1m/s | -53.9°C | 3.9% | 39.4hPa | 2.5V | 02:16:06 | 02:59:06 | 00:00:00 | |
| BIOWL1-15 | 2026-08-31 01:31:55 | 50.78338 | 9.81946 | 281° | 11km/h | 22533m | 1.8m/s | -54°C | 0.7% | 39.4hPa | 2.5V | 02:16:42 | 02:59:05 | 00:00:00 | |
| DF8AY | 2026-08-31 01:31:54 | 50.78339 | 9.81941 | 287° | 11km/h | 22535m | 2.1m/s | -53.9°C | 0.7% | 39.4hPa | 2.5V | 02:16:42 | 02:59:06 | 00:00:00 | |
| DO9LL-15 | 2026-08-31 01:31:53 | 50.78338 | 9.81945 | 281° | 11km/h | 22534m | 1.8m/s | -53.9°C | 3.9% | 39.4hPa | 2.5V | 00:00:00 | 02:59:05 | 00:00:00 | |
| DL1XH-15 | 2026-08-31 01:31:52 | 50.78341 | 9.81970 | 250° | 11km/h | 22520m | 2.6m/s | -54.1°C | 4% | 39.5hPa | 2.5V | 02:16:13 | 02:58:59 | 00:00:00 | |
| HSKMA3-T | 2026-08-31 01:31:51 | 50.78338 | 9.81954 | 265° | 11km/h | 22530m | 1.7m/s | -54.1°C | 0.7% | 39.5hPa | 2.5V | 02:16:42 | 02:59:03 | 00:00:00 | |
| DL1XH-west | 2026-08-31 01:31:50 | 50.78339 | 9.81958 | 259° | 11km/h | 22528m | 2.1m/s | -54.1°C | 0.7% | 39.5hPa | 2.5V | 02:16:42 | 02:59:02 | 00:00:00 | |
| AA1-15 | 2026-08-31 01:31:47 | 50.78341 | 9.81970 | 251° | 11km/h | 22520m | 2.6m/s | -54.1°C | 0.8% | 39.5hPa | 2.5V | 02:16:42 | 02:58:59 | 00:00:00 | |
| BIOWL1-15 | 2026-08-31 01:31:47 | 50.78344 | 9.81987 | 260° | 11km/h | 22513m | 1.8m/s | -54.1°C | 0.8% | 39.5hPa | 2.4V | 02:16:42 | 02:58:55 | 00:00:00 | |
| GOEST3-10 | 2026-08-31 01:31:47 | 50.78341 | 9.81970 | 251° | 11km/h | 22521m | 2.5m/s | -54.0°C | 4.0% | 39.5hPa | 2.5V | 00:00:00 | 02:58:59 | 00:00:00 | |
| DO2KSM | 2026-08-31 01:31:46 | 50.78341 | 9.81970 | 252° | 11km/h | 22521m | 2.6m/s | -54.1°C | 1.2% | 39.5hPa | 2.5V | 00:00:00 | 00:00:00 | 00:00:00 | |
| DM0DOS-11 | 2026-08-31 01:31:45 | 50.78343 | 9.81982 | 256° | 11km/h | 22515m | 1.6m/s | -54.1°C | 4% | 39.5hPa | 2.5V | 02:16:16 | 02:58:56 | 00:00:00 | |
| DF8AY | 2026-08-31 01:31:44 | 50.78343 | 9.81982 | 257° | 11km/h | 22515m | 1.7m/s | -54.1°C | 0.8% | 39.5hPa | 2.5V | 02:16:42 | 02:58:56 | 00:00:00 | |
| DB0ND-19 | 2026-08-31 01:31:43 | 50.78344 | 9.81995 | 261° | 9km/h | 22509m | 2.5m/s | -54.1°C | 1.2% | 39.6hPa | 2.5V | 00:00:00 | 00:00:00 | 00:00:00 | |
| DL1XH-15 | 2026-08-31 01:31:42 | 50.78347 | 9.82012 | 255° | 13km/h | 22499m | 2m/s | -54.1°C | 4% | 39.6hPa | 2.5V | 02:16:23 | 02:58:49 | 00:00:00 | |
| HSKMA3-T | 2026-08-31 01:31:41 | 50.78344 | 9.81995 | 261° | 11km/h | 22509m | 2.5m/s | -54.1°C | 0.8% | 39.6hPa | 2.5V | 02:16:42 | 02:58:53 | 00:00:00 | |
| DL1XH-west | 2026-08-31 01:31:40 | 50.78345 | 9.81999 | 262° | 11km/h | 22506m | 2.4m/s | -54.1°C | 0.8% | 39.6hPa | 2.5V | 02:16:42 | 02:58:52 | 00:00:00 | |
| AA1-15 | 2026-08-31 01:31:36 | 50.78347 | 9.82017 | 253° | 13km/h | 22497m | 1.8m/s | -54.2°C | 0.8% | 39.6hPa | 2.4V | 02:16:42 | 02:58:48 | 00:00:00 | |
| DF8AY | 2026-08-31 01:31:34 | 50.78350 | 9.82027 | 249° | 13km/h | 22493m | 1.9m/s | -54.1°C | 0.7% | 39.7hPa | 2.5V | 02:16:42 | 02:58:46 | 00:00:00 | |
| HSKMA3-T | 2026-08-31 01:31:31 | 50.78352 | 9.82039 | 252° | 9km/h | 22486m | 2.7m/s | -54.1°C | 0.7% | 39.7hPa | 2.5V | 02:16:42 | 02:58:43 | 00:00:00 | |
| DL1XH-west | 2026-08-31 01:31:30 | 50.78353 | 9.82042 | 258° | 7km/h | 22483m | 2.4m/s | -54.1°C | 0.7% | 39.7hPa | 2.4V | 02:16:42 | 02:58:42 | 00:00:00 | |
| AA1-15 | 2026-08-31 01:31:25 | 50.78352 | 9.82057 | 283° | 9km/h | 22474m | 2.2m/s | -54.2°C | 0.6% | 39.8hPa | 2.5V | 02:16:42 | 02:58:37 | 00:00:00 | |
| DF8AY | 2026-08-31 01:31:23 | 50.78351 | 9.82066 | 278° | 13km/h | 22469m | 2.8m/s | -54.2°C | 0.7% | 39.8hPa | 2.4V | 02:16:42 | 02:58:35 | 00:00:00 | |
| BIOWL1-15 | 2026-08-31 01:31:22 | 50.78348 | 9.82090 | 286° | 11km/h | 22459m | 1.4m/s | -54.2°C | 0.7% | 39.9hPa | 2.5V | 02:16:42 | 02:58:30 | 00:00:00 | |
| HSKMA3-T | 2026-08-31 01:31:20 | 50.78349 | 9.82081 | 278° | 13km/h | 22462m | 1.5m/s | -54.2°C | 0.7% | 39.9hPa | 2.5V | 02:16:42 | 02:58:32 | 00:00:00 | |
| DD1CC8 | 2026-08-31 01:31:20 | 50.78349 | 9.82086 | 280° | 11km/h | 22461m | 1.3m/s | -54.2°C | 1.1% | 39.9hPa | 2.5V | 00:00:00 | 00:00:00 | 00:00:00 | |
| DM0DOS-11 | 2026-08-31 01:31:19 | 50.78344 | 9.82101 | 321° | 7km/h | 22449m | 2.7m/s | -54.1°C | 4% | 39.9hPa | 2.5V | 02:16:46 | 02:58:26 | 00:00:00 | |
| DL1XH-west | 2026-08-31 01:31:19 | 50.78349 | 9.82086 | 281° | 11km/h | 22461m | 1.3m/s | -54.2°C | 0.7% | 39.9hPa | 2.5V | 02:16:42 | 02:58:31 | 00:00:00 | |
| AA1-15 | 2026-08-31 01:31:14 | 50.78344 | 9.82101 | 322° | 7km/h | 22449m | 2.7m/s | -54.1°C | 0.7% | 39.9hPa | 2.5V | 02:17:33 | 02:58:26 | 00:00:00 | |
| BIOWL1-15 | 2026-08-31 01:31:13 | 50.78338 | 9.82108 | 318° | 9km/h | 22441m | 1.5m/s | -54.1°C | 0.7% | 40hPa | 2.5V | 02:17:33 | 02:58:22 | 00:00:00 | |
| DF8AY | 2026-08-31 01:31:12 | 50.78341 | 9.82104 | 328° | 7km/h | 22445m | 2m/s | -54.1°C | 0.7% | 40hPa | 2.5V | 02:17:33 | 02:58:24 | 00:00:00 | |
| DL3AQ-11 | 2026-08-31 01:31:12 | 50.78340 | 9.82106 | 323° | 7km/h | 22443m | 1.7m/s | -54.1°C | 1.1% | 40.0hPa | 2.5V | 00:00:00 | 00:00:00 | 00:00:00 | |
| DO3MHA-11 | 2026-08-31 01:31:10 | 50.78338 | 9.82108 | 318° | 9km/h | 22442m | 1.5m/s | -54.0°C | 4.0% | 39.9hPa | 2.5V | 02:16:00 | 02:58:22 | 00:00:00 | |
| DL1XH1-15 | 2026-08-31 01:31:09 | 50.78331 | 9.82125 | 293° | 9km/h | 22430m | 1.9m/s | -54°C | 3.9% | 40hPa | 2.6V | 02:16:55 | 02:58:17 | 00:00:00 | |
| HSKMA3-T | 2026-08-31 01:31:09 | 50.78336 | 9.82111 | 310° | 9km/h | 22440m | 1.9m/s | -54.1°C | 0.7% | 40hPa | 2.5V | 02:17:33 | 02:58:21 | 00:00:00 | |
| DL1XH-west | 2026-08-31 01:31:08 | 50.78335 | 9.82114 | 303° | 11km/h | 22438m | 2.4m/s | -54°C | 0.7% | 40hPa | 2.5V | 02:17:33 | 02:58:20 | 00:00:00 | |
| DM0DOS-11 | 2026-08-31 01:31:05 | 50.78330 | 9.82129 | 294° | 9km/h | 22428m | 1.5m/s | -54°C | 3.9% | 40hPa | 2.5V | 02:16:56 | 02:58:16 | 00:00:00 | |
| AA1-15 | 2026-08-31 01:31:03 | 50.78329 | 9.82131 | 302° | 7km/h | 22427m | 1.4m/s | -54°C | 0.7% | 40.1hPa | 2.4V | 02:17:33 | 02:58:15 | 00:00:00 | |
| DJ2DS-15 | 2026-08-31 01:31:03 | 50.78329 | 9.82131 | 303° | 9km/h | 22427m | 1.3m/s | -54.0°C | 3.9% | 40.0hPa | 2.5V | 00:00:00 | 02:58:15 | 00:00:00 | |
| DL1XH-15 | 2026-08-31 01:31:02 | 50.78320 | 9.82138 | 353° | 9km/h | 22413m | 2.4m/s | -54°C | 3.9% | 40.2hPa | 2.5V | 02:17:03 | 02:58:09 | 00:00:00 | |
| DF8AY | 2026-08-31 01:31:02 | 50.78328 | 9.82134 | 312° | 7km/h | 22426m | 1.5m/s | -54°C | 0.6% | 40.1hPa | 2.5V | 02:17:33 | 02:58:14 | 00:00:00 | |
| BIOWL1-15 | 2026-08-31 01:31:00 | 50.78326 | 9.82136 | 339° | 7km/h | 22422m | 2.5m/s | -54°C | 0.6% | 40.1hPa | 2.5V | 02:17:33 | 02:58:12 | 00:00:00 | |
| DL1XH-west | 2026-08-31 01:30:58 | 50.78322 | 9.82138 | 353° | 9km/h | 22416m | 2.8m/s | -54°C | 0.6% | 40.1hPa | 2.5V | 02:17:33 | 02:58:10 | 00:00:00 | |
| BUE01 | 2026-08-31 01:30:56 | 50.78317 | 9.82139 | 351° | 9km/h | 22411m | 2.1m/s | -54.0°C | 1.1% | 40.2hPa | 2.5V | 00:00:00 | 00:00:00 | 00:00:00 | |
| DM0DOS-11 | 2026-08-31 01:30:55 | 50.78312 | 9.82140 | 338° | 9km/h | 22408m | 1.6m/s | -54°C | 3.9% | 40.2hPa | 2.5V | 02:17:06 | 02:58:06 | 00:00:00 | |
| DO9LL-15 | 2026-08-31 01:30:53 | 50.78310 | 9.82142 | 333° | 9km/h | 22406m | 1.8m/s | -53.9°C | 3.8% | 40.2hPa | 2.5V | 02:17:00 | 02:58:05 | 00:00:00 | |
| DL1XH-15 | 2026-08-31 01:30:52 | 50.78299 | 9.82151 | 354° | 7km/h | 22392m | 1.4m/s | -54°C | 3.9% | 40.3hPa | 2.5V | 02:17:13 | 02:57:59 | 00:00:00 | |
| AA1-15 | 2026-08-31 01:30:52 | 50.78308 | 9.82144 | 328° | 9km/h | 22404m | 2.5m/s | -54°C | 0.5% | 40.2hPa | 2.5V | 02:17:33 | 02:58:04 | 00:00:00 | |
| DF8AY | 2026-08-31 01:30:51 | 50.78306 | 9.82146 | 325° | 9km/h | 22401m | 2.8m/s | -54°C | 0.6% | 40.2hPa | 2.5V | 02:17:33 | 02:58:03 | 00:00:00 | |
| BIOWL1-15 | 2026-08-31 01:30:49 | 50.78297 | 9.82151 | 2° | 7km/h | 22391m | 1.3m/s | -54°C | 0.6% | 40.3hPa | 2.5V | 02:17:33 | 02:57:58 | 00:00:00 | |
| DL1XH-west | 2026-08-31 01:30:47 | 50.78299 | 9.82151 | 354° | 7km/h | 22392m | 1.4m/s | -54°C | 0.6% | 40.3hPa | 2.5V | 02:17:33 | 02:57:59 | 00:00:00 | |
| DJ2KF-10 | 2026-08-31 01:30:47 | 50.78299 | 9.82151 | 355° | 9km/h | 22392m | 1.4m/s | -54.0°C | 3.9% | 40.2hPa | 2.5V | 02:17:00 | 02:57:59 | 00:00:00 | |
| DM0DOS-11 | 2026-08-31 01:30:46 | 50.78293 | 9.82151 | 7° | 9km/h | 22387m | 2.4m/s | -54°C | 3.9% | 40.3hPa | 2.5V | 02:17:16 | 02:57:56 | 00:00:00 | |
| AA1-15 | 2026-08-31 01:30:41 | 50.78286 | 9.82150 | 1° | 9km/h | 22379m | 2.7m/s | -54.1°C | 0.6% | 40.4hPa | 2.5V | 02:17:33 | 02:57:53 | 00:00:00 | |
| DF8AY | 2026-08-31 01:30:40 | 50.78284 | 9.82150 | 358° | 9km/h | 22376m | 2.4m/s | -54.1°C | 0.6% | 40.4hPa | 2.5V | 02:17:33 | 02:57:52 | 00:00:00 | |
| BIOWL1-15 | 2026-08-31 01:30:40 | 50.78280 | 9.82150 | 360° | 7km/h | 22372m | 1.6m/s | -54°C | 0.6% | 40.4hPa | 2.5V | 02:17:33 | 02:57:50 | 00:00:00 | |
| DL1XH-west | 2026-08-31 01:30:36 | 50.78277 | 9.82150 | 17° | 5km/h | 22369m | 2m/s | -54°C | 0.6% | 40.5hPa | 2.5V | 02:17:33 | 02:57:48 | 00:00:00 | |
| DM0DOS-11 | 2026-08-31 01:30:35 | 50.78275 | 9.82148 | 37° | 7km/h | 22364m | 2.8m/s | -54°C | 3.9% | 40.5hPa | 2.5V | 02:17:26 | 02:57:46 | 00:00:00 | |
| DF7PN | 2026-08-31 01:30:34 | 50.78275 | 9.82147 | 37° | 5km/h | 22364m | 2.8m/s | -54.0°C | 1.0% | 40.5hPa | 2.5V | 00:00:00 | 00:00:00 | 00:00:00 | |
| DL4BBY-15 | 2026-08-31 01:30:33 | 50.78273 | 9.82145 | 41° | 13km/h | 22361m | 2.3m/s | -54.9°C | 0% | 0hPa | 2.5V | 00:00:00 | 00:00:00 | 00:00:00 | |
| DL1XH-15 | 2026-08-31 01:30:32 | 50.78259 | 9.82131 | 23° | 11km/h | 22351m | 2.5m/s | -54°C | 3.8% | 40.5hPa | 2.5V | 02:17:33 | 02:57:39 | 00:00:00 | |
| AA1-15 | 2026-08-31 01:30:31 | 50.78269 | 9.82140 | 38° | 11km/h | 22357m | 1.6m/s | -54°C | 0.6% | 40.5hPa | 2.5V | 02:17:33 | 02:57:43 | 00:00:00 | |
| DF8AY | 2026-08-31 01:30:30 | 50.78267 | 9.82138 | 35° | 13km/h | 22356m | 1.4m/s | -54°C | 0.5% | 40.5hPa | 2.4V | 02:17:33 | 02:57:42 | 00:00:00 | |
| DO3MHA-11 | 2026-08-31 01:30:30 | 50.78267 | 9.82138 | 35° | 9km/h | 22356m | 1.4m/s | -53.9°C | 3.8% | 40.4hPa | 2.6V | 00:00:00 | 02:57:42 | 00:00:00 | |
| DL1XH1-15 | 2026-08-31 01:30:29 | 50.78255 | 9.82128 | 20° | 7km/h | 22345m | 3m/s | -54°C | 3.8% | 40.6hPa | 2.6V | 02:17:35 | 02:57:37 | 00:00:00 | |
| BIOWL1-15 | 2026-08-31 01:30:28 | 50.78249 | 9.82123 | 36° | 9km/h | 22338m | 1.3m/s | -54°C | 0.6% | 40.6hPa | 2.5V | 02:18:24 | 02:57:34 | 00:00:00 | |
| GOEST3-10 | 2026-08-31 01:30:26 | 50.78257 | 9.82129 | 22° | 9km/h | 22348m | 2.7m/s | -53.9°C | 3.8% | 40.5hPa | 2.5V | 02:17:00 | 02:57:38 | 00:00:00 | |
| DL1XH-west | 2026-08-31 01:30:26 | 50.78257 | 9.82129 | 22° | 9km/h | 22348m | 2.8m/s | -54°C | 0.5% | 40.6hPa | 2.5V | 02:18:24 | 02:57:38 | 00:00:00 | |
| NBG1-10 | 2026-08-31 01:30:25 | 50.78255 | 9.82128 | 21° | 15km/h | 22345m | 2.9m/s | -53.9°C | 3.8% | 40.5hPa | 2.6V | 02:17:00 | 02:57:37 | 00:00:00 | |
| DB0UT-9 | 2026-08-31 01:30:24 | 50.78253 | 9.82127 | 25° | 7km/h | 22343m | 2.5m/s | -54.0°C | 1.1% | 40.6hPa | 2.5V | 02:18:00 | 00:00:00 | 00:00:00 | |
| DO9LL-15 | 2026-08-31 01:30:23 | 50.78251 | 9.82125 | 31° | 15km/h | 22340m | 1.9m/s | -53.9°C | 3.8% | 40.6hPa | 2.5V | 00:00:00 | 02:57:35 | 00:00:00 | |
| DL1XH-15 | 2026-08-31 01:30:22 | 50.78236 | 9.82104 | 43° | 18km/h | 22328m | 2.6m/s | -54°C | 3.9% | 40.7hPa | 2.5V | 02:17:43 | 02:57:29 | 00:00:00 | |
| DF8AY | 2026-08-31 01:30:20 | 50.78245 | 9.82117 | 44° | 13km/h | 22335m | 2m/s | -54°C | 0.6% | 40.6hPa | 2.5V | 02:18:24 | 02:57:32 | 00:00:00 | |
| DO3MHA-11 | 2026-08-31 01:30:20 | 50.78245 | 9.82117 | 44° | 15km/h | 22336m | 2.0m/s | -54.0°C | 3.8% | 40.6hPa | 2.5V | 00:00:00 | 02:57:32 | 00:00:00 | |
| DL1XH1-15 | 2026-08-31 01:30:19 | 50.78229 | 9.82094 | 41° | 18km/h | 22323m | 1.8m/s | -54°C | 3.9% | 40.7hPa | 2.5V | 02:17:45 | 02:57:27 | 00:00:00 | |
| BIOWL1-15 | 2026-08-31 01:30:19 | 50.78236 | 9.82104 | 44° | 18km/h | 22328m | 2.6m/s | -54°C | 0.6% | 40.7hPa | 2.5V | 02:18:24 | 02:57:29 | 00:00:00 | |
| DL1XH-west | 2026-08-31 01:30:16 | 50.78233 | 9.82098 | 43° | 18km/h | 22325m | 2.2m/s | -54°C | 0.6% | 40.7hPa | 2.5V | 02:18:24 | 02:57:28 | 00:00:00 | |
| DM0DOS-11 | 2026-08-31 01:30:16 | 50.78226 | 9.82089 | 41° | 16km/h | 22321m | 1.7m/s | -54°C | 3.9% | 40.8hPa | 2.5V | 02:17:46 | 02:57:26 | 00:00:00 | |
| DL3AQ-11 | 2026-08-31 01:30:16 | 50.78229 | 9.82094 | 41° | 16km/h | 22324m | 1.8m/s | -54.0°C | 1.1% | 40.7hPa | 2.5V | 00:00:00 | 00:00:00 | 00:00:00 | |
| DL8DAS-14 | 2026-08-31 01:30:15 | 50.78226 | 9.82089 | 41° | 15km/h | 22322m | 1.7m/s | -54.0°C | 1.1% | 40.8hPa | 2.5V | 00:00:00 | 00:00:00 | 00:00:00 | |
| DC4HF-4 | 2026-08-31 01:30:13 | 50.78221 | 9.82081 | 43° | 11km/h | 22318m | 1.8m/s | -54.0°C | 1.0% | 40.8hPa | 2.5V | 00:00:00 | 00:00:00 | 00:00:00 | |
| DL1XH-15 | 2026-08-31 01:30:12 | 50.78213 | 9.82067 | 53° | 11km/h | 22306m | 1.8m/s | -54°C | 3.8% | 40.8hPa | 2.5V | 02:17:53 | 02:57:19 | 00:00:00 | |
| DF5WG-10 | 2026-08-31 01:30:11 | 50.78219 | 9.82078 | 48° | 13km/h | 22317m | 2.3m/s | -53.9°C | 3.8% | 40.7hPa | 2.5V | 00:00:00 | 02:57:23 | 00:00:00 | |
| DO3MHA-11 | 2026-08-31 01:30:10 | 50.78217 | 9.82075 | 50° | 15km/h | 22314m | 2.6m/s | -53.9°C | 3.9% | 40.7hPa | 2.5V | 02:17:00 | 02:57:22 | 00:00:00 | |
| DM0DOS-11 | 2026-08-31 01:30:09 | 50.78207 | 9.82054 | 48° | 16km/h | 22302m | 1.8m/s | -54°C | 3.8% | 40.9hPa | 2.5V | 02:17:56 | 02:57:16 | 00:00:00 | |
| DL1XH1-15 | 2026-08-31 01:30:09 | 50.78209 | 9.82059 | 49° | 15km/h | 22303m | 1.5m/s | -54°C | 3.8% | 40.9hPa | 2.5V | 02:17:55 | 02:57:17 | 00:00:00 | |
| AA1-15 | 2026-08-31 01:30:09 | 50.78216 | 9.82073 | 53° | 9km/h | 22311m | 2.7m/s | -54°C | 0.5% | 40.8hPa | 2.5V | 02:18:24 | 02:57:21 | 00:00:00 | |
| BIOWL1-15 | 2026-08-31 01:30:08 | 50.78211 | 9.82063 | 52° | 13km/h | 22305m | 1.4m/s | -54°C | 0.5% | 40.9hPa | 2.5V | 02:18:24 | 02:57:18 | 00:00:00 | |
| DL1XH-west | 2026-08-31 01:30:05 | 50.78209 | 9.82059 | 50° | 15km/h | 22303m | 1.5m/s | -54°C | 0.5% | 40.9hPa | 2.5V | 02:18:24 | 02:57:17 | 00:00:00 | |
| DO8TBO-1 | 2026-08-31 01:30:04 | 50.78206 | 9.82054 | 49° | 15km/h | 22302m | 1.8m/s | -53.9°C | 3.8% | 40.8hPa | 2.5V | 00:00:00 | 02:57:16 | 00:00:00 | |
| DB0UT-9 | 2026-08-31 01:30:03 | 50.78206 | 9.82054 | 50° | 16km/h | 22302m | 1.8m/s | -54.0°C | 1.1% | 40.9hPa | 2.5V | 02:18:00 | 00:00:00 | 00:00:00 | |
| DL1XH-15 | 2026-08-31 01:30:02 | 50.78183 | 9.82015 | 46° | 16km/h | 22287m | 1.4m/s | -54°C | 3.9% | 41hPa | 2.5V | 02:18:03 | 02:57:09 | 00:00:00 | |
| GOEST3-10 | 2026-08-31 01:30:01 | 50.78196 | 9.82037 | 47° | 18km/h | 22295m | 2.5m/s | -53.9°C | 3.8% | 40.9hPa | 2.5V | 00:00:00 | 00:00:00 | 00:00:00 | |
| DO3MHA-11 | 2026-08-31 01:30:00 | 50.78193 | 9.82031 | 46° | 15km/h | 22292m | 2.2m/s | -53.9°C | 3.8% | 40.9hPa | 2.5V | 00:00:00 | 02:57:12 | 00:00:00 | |
| BIOWL1-15 | 2026-08-31 01:29:59 | 50.78137 | 9.81923 | 57° | 11km/h | 22245m | 2.3m/s | -54°C | 0.6% | 41.2hPa | 2.5V | 02:18:24 | 02:56:48 | 00:00:00 | |
| DM0DOS-11 | 2026-08-31 01:29:59 | 50.78155 | 9.81964 | 46° | 18km/h | 22262m | 2.4m/s | -54°C | 3.8% | 41.1hPa | 2.5V | 02:18:15 | 02:56:57 | 00:00:00 | |
| DL1XH1-15 | 2026-08-31 01:29:59 | 50.78178 | 9.82007 | 52° | 13km/h | 22283m | 2.4m/s | -54°C | 3.9% | 41hPa | 2.5V | 02:18:05 | 02:57:07 | 00:00:00 | |
| DF8AY | 2026-08-31 01:29:58 | 50.78158 | 9.81969 | 45° | 18km/h | 22264m | 2.4m/s | -54.1°C | 0.5% | 41.1hPa | 2.5V | 02:18:24 | 02:56:58 | 00:00:00 | |
| HSKMA3-T | 2026-08-31 01:29:58 | 50.78176 | 9.82003 | 54° | 11km/h | 22281m | 2.8m/s | -54°C | 0.5% | 41hPa | 2.5V | 02:18:24 | 02:57:06 | 00:00:00 | |
| GOEST3-10 | 2026-08-31 01:29:56 | 50.78180 | 9.82010 | 50° | 13km/h | 22285m | 1.8m/s | -53.9°C | 3.9% | 40.9hPa | 2.5V | 02:18:00 | 02:57:08 | 00:00:00 | |
| DL1XH-15 | 2026-08-31 01:29:54 | 50.78147 | 9.81949 | 52° | 15km/h | 22257m | 1.2m/s | -54°C | 3.9% | 41.1hPa | 2.5V | 02:18:18 | 02:56:54 | 00:00:00 | |
| DL1XH1-15 | 2026-08-31 01:29:54 | 50.78155 | 9.81964 | 46° | 18km/h | 22262m | 2.4m/s | -54°C | 3.8% | 41.1hPa | 2.5V | 02:18:15 | 02:56:57 | 00:00:00 | |
| DM0DOS-11 | 2026-08-31 01:29:54 | 50.78147 | 9.81949 | 52° | 15km/h | 22257m | 1.2m/s | -54°C | 3.9% | 41.1hPa | 2.5V | 02:18:18 | 02:56:54 | 00:00:00 | |
| DF8AY | 2026-08-31 01:29:53 | 50.78155 | 9.81964 | 46° | 18km/h | 22262m | 2.4m/s | -54.1°C | 0.5% | 41.1hPa | 2.5V | 02:18:24 | 02:56:57 | 00:00:00 | |
| DL3AQ-11 | 2026-08-31 01:29:52 | 50.78172 | 9.81992 | 52° | 11km/h | 22273m | 2.0m/s | -54.0°C | 1.1% | 41.1hPa | 2.5V | 00:00:00 | 00:00:00 | 00:00:00 | |
| DL1XH-west | 2026-08-31 01:29:51 | 50.78152 | 9.81958 | 47° | 18km/h | 22260m | 2.1m/s | -54.1°C | 0.5% | 41.1hPa | 2.5V | 02:18:24 | 02:56:56 | 00:00:00 | |
| EDDB2-12 | 2026-08-31 01:29:50 | 50.78167 | 9.81983 | 47° | 15km/h | 22270m | 1.4m/s | -54.0°C | 1.0% | 41.1hPa | 2.5V | 00:00:00 | 00:00:00 | 00:00:00 | |
| D01LWL | 2026-08-31 01:29:48 | 50.78161 | 9.81974 | 45° | 16km/h | 22267m | 1.9m/s | -54.0°C | 1.1% | 41.1hPa | 2.5V | 00:00:00 | 00:00:00 | 00:00:00 | |
| DL1XH-15 | 2026-08-31 01:29:47 | 50.78139 | 9.81927 | 62° | 11km/h | 22247m | 2.6m/s | -54°C | 3.9% | 41.2hPa | 2.5V | 02:18:23 | 02:56:49 | 00:00:00 | |
| DD1CC8 | 2026-08-31 01:29:47 | 50.78158 | 9.81969 | 45° | 16km/h | 22265m | 2.4m/s | -54.1°C | 1.0% | 41.1hPa | 2.5V | 00:00:00 | 00:00:00 | 00:00:00 | |
| BIOWL1-15 | 2026-08-31 01:29:40 | 50.78136 | 9.81919 | 49° | 13km/h | 22242m | 2.1m/s | -54°C | 0.5% | 41.2hPa | 2.5V | 02:19:15 | 02:56:47 | 00:00:00 | |
| DB0UT-7 | 2026-08-31 01:29:40 | 50.78143 | 9.81940 | 61° | 13km/h | 22254m | 1.5m/s | -54.0°C | 3.8% | 41.1hPa | 2.5V | 02:18:00 | 02:56:52 | 00:00:00 | |
| DL1XH1-15 | 2026-08-31 01:29:39 | 50.78136 | 9.81919 | 48° | 13km/h | 22242m | 2.1m/s | -54°C | 3.9% | 41.2hPa | 2.5V | 02:18:25 | 02:56:47 | 00:00:00 | |
| SONDE2-11 | 2026-08-31 01:29:39 | 50.78141 | 9.81935 | 63° | 11km/h | 22253m | 2.2m/s | -54.0°C | 1.0% | 41.2hPa | 2.6V | 00:00:00 | 00:00:00 | 00:00:00 | |
| DL0LBS | 2026-08-31 01:29:38 | 50.78141 | 9.81935 | 64° | 11km/h | 22253m | 2.2m/s | -54.0°C | 1.1% | 41.2hPa | 2.6V | 02:18:00 | 00:00:00 | 00:00:00 | |
| DC4HF-4 | 2026-08-31 01:29:37 | 50.78137 | 9.81923 | 57° | 11km/h | 22245m | 2.3m/s | -54.0°C | 1.1% | 41.2hPa | 2.6V | 00:00:00 | 00:00:00 | 00:00:00 | |
| DL3AQ-11 | 2026-08-31 01:29:36 | 50.78136 | 9.81919 | 48° | 11km/h | 22243m | 2.1m/s | -54.0°C | 1.0% | 41.2hPa | 2.6V | 00:00:00 | 00:00:00 | 00:00:00 | |
| DM0DOS-11 | 2026-08-31 01:29:35 | 50.78127 | 9.81909 | 29° | 15km/h | 22238m | 1.7m/s | -54°C | 3.9% | 41.3hPa | 2.6V | 02:18:28 | 02:56:44 | 00:00:00 | |
| AA1-15 | 2026-08-31 01:29:34 | 50.78133 | 9.81916 | 41° | 13km/h | 22241m | 1.6m/s | -54°C | 0.6% | 41.3hPa | 2.5V | 02:19:15 | 02:56:46 | 00:00:00 | |
| DL1XH-west | 2026-08-31 01:29:33 | 50.78131 | 9.81912 | 34° | 15km/h | 22239m | 1.1m/s | -54°C | 0.6% | 41.3hPa | 2.5V | 02:19:15 | 02:56:45 | 00:00:00 | |
| DL4BBY-15 | 2026-08-31 01:29:33 | 50.78130 | 9.81912 | 35° | 13km/h | 22240m | 1.1m/s | -54.9°C | 0% | 0hPa | 2.5V | 00:00:00 | 00:00:00 | 00:00:00 | |
| GOEST3-10 | 2026-08-31 01:29:32 | 50.78124 | 9.81906 | 28° | 15km/h | 22236m | 2.5m/s | -53.9°C | 3.8% | 41.2hPa | 2.5V | 00:00:00 | 00:00:00 | 00:00:00 | |
| DF5WG-10 | 2026-08-31 01:29:31 | 50.78124 | 9.81906 | 28° | 13km/h | 22236m | 2.5m/s | -53.9°C | 3.8% | 41.2hPa | 2.5V | 02:18:00 | 02:56:43 | 00:00:00 | |
| DO3MHA-11 | 2026-08-31 01:29:30 | 50.78120 | 9.81903 | 25° | 13km/h | 22234m | 2.5m/s | -53.9°C | 3.8% | 41.3hPa | 2.5V | 00:00:00 | 02:56:42 | 00:00:00 | |
| DL3JIN-12 | 2026-08-31 01:29:29 | 50.78120 | 9.81903 | 26° | 16km/h | 22234m | 2.6m/s | -54.0°C | 0% | 41.3hPa | 2.5V | 00:00:00 | 00:00:00 | 00:00:00 | |
| DL1XH1-15 | 2026-08-31 01:29:26 | 50.78106 | 9.81891 | 48° | 11km/h | 22224m | 1.2m/s | -54°C | 3.8% | 41.4hPa | 2.5V | 02:18:35 | 02:56:37 | 00:00:00 | |
| GOEST3-10 | 2026-08-31 01:29:26 | 50.78108 | 9.81893 | 39° | 11km/h | 22226m | 1.1m/s | -53.9°C | 3.8% | 41.3hPa | 2.5V | 02:18:00 | 02:56:38 | 00:00:00 | |
| DM0DOS-11 | 2026-08-31 01:29:25 | 50.78102 | 9.81880 | 58° | 11km/h | 22218m | 3m/s | -53.9°C | 3.8% | 41.4hPa | 2.5V | 02:18:38 | 02:56:34 | 00:00:00 | |
| AA1-15 | 2026-08-31 01:29:24 | 50.78105 | 9.81887 | 55° | 11km/h | 22223m | 1.9m/s | -54°C | 0.5% | 41.4hPa | 2.5V | 02:19:15 | 02:56:36 | 00:00:00 | |
| DL1XH-west | 2026-08-31 01:29:23 | 50.78103 | 9.81884 | 59° | 11km/h | 22221m | 2.8m/s | -53.9°C | 0.5% | 41.4hPa | 2.5V | 02:19:15 | 02:56:35 | 00:00:00 | |
| DO9LL-15 | 2026-08-31 01:29:23 | 50.78103 | 9.81884 | 59° | 15km/h | 22221m | 2.7m/s | -53.9°C | 3.8% | 41.3hPa | 2.5V | 02:18:00 | 02:56:35 | 00:00:00 | |
| DB0UT-9 | 2026-08-31 01:29:22 | 50.78103 | 9.81884 | 60° | 11km/h | 22221m | 2.8m/s | -53.9°C | 1.1% | 41.4hPa | 2.5V | 02:19:00 | 00:00:00 | 00:00:00 | |
| GOEST3-10 | 2026-08-31 01:29:21 | 50.78100 | 9.81877 | 54° | 11km/h | 22215m | 2.5m/s | -53.9°C | 3.8% | 41.4hPa | 2.5V | 00:00:00 | 00:00:00 | 00:00:00 | |
| DO3MHA-11 | 2026-08-31 01:29:20 | 50.78098 | 9.81873 | 47° | 13km/h | 22213m | 2.0m/s | -53.9°C | 3.9% | 41.4hPa | 2.5V | 00:00:00 | 02:56:32 | 00:00:00 | |
| DF5WG-10 | 2026-08-31 01:29:19 | 50.78096 | 9.81870 | 39° | 13km/h | 22211m | 1.5m/s | -53.9°C | 3.9% | 41.4hPa | 2.5V | 00:00:00 | 02:56:31 | 00:00:00 | |
| DL0LBS | 2026-08-31 01:29:18 | 50.78096 | 9.81870 | 39° | 11km/h | 22211m | 1.5m/s | -53.9°C | 1.1% | 41.5hPa | 2.5V | 02:19:00 | 00:00:00 | 00:00:00 | |
| DO2KSM | 2026-08-31 01:29:17 | 50.78094 | 9.81867 | 32° | 13km/h | 22210m | 1.2m/s | -53.9°C | 1.0% | 41.5hPa | 2.5V | 02:19:00 | 00:00:00 | 00:00:00 | |
| DL1XH1-15 | 2026-08-31 01:29:16 | 50.78085 | 9.81862 | 16° | 13km/h | 22203m | 2.9m/s | -53.9°C | 3.8% | 41.5hPa | 2.5V | 02:18:45 | 02:56:27 | 00:00:00 | |
| DB0NH | 2026-08-31 01:29:16 | 50.78088 | 9.81863 | 20° | 15km/h | 22207m | 2.3m/s | -53.8°C | 3.9% | 41.4hPa | 2.5V | 00:00:00 | 02:56:28 | 00:00:00 | |
| DM0DOS-11 | 2026-08-31 01:29:15 | 50.78076 | 9.81857 | 24° | 13km/h | 22196m | 2.1m/s | -53.9°C | 3.8% | 41.5hPa | 2.5V | 02:18:48 | 02:56:24 | 00:00:00 | |
| DF8AY | 2026-08-31 01:29:14 | 50.78082 | 9.81860 | 17° | 13km/h | 22201m | 2.8m/s | -53.9°C | 0.5% | 41.5hPa | 2.5V | 02:19:15 | 02:56:26 | 00:00:00 | |
| BIOWL1-15 | 2026-08-31 01:29:13 | 50.78079 | 9.81859 | 19° | 13km/h | 22198m | 2.6m/s | -53.9°C | 0.5% | 41.5hPa | 2.5V | 02:19:15 | 02:56:25 | 00:00:00 | |
| DL1XH-west | 2026-08-31 01:29:12 | 50.78076 | 9.81857 | 24° | 13km/h | 22196m | 2.1m/s | -53.9°C | 0.5% | 41.6hPa | 2.5V | 02:19:15 | 02:56:24 | 00:00:00 | |
| SONCRA | 2026-08-31 01:29:11 | 50.78073 | 9.81855 | 29° | 13km/h | 22194m | 1.6m/s | -53.9°C | 1.0% | 41.6hPa | 2.5V | 00:00:00 | 00:00:00 | 00:00:00 | |
| DB0UT-7 | 2026-08-31 01:29:10 | 50.78070 | 9.81852 | 38° | 16km/h | 22192m | 1.3m/s | -53.8°C | 3.8% | 41.5hPa | 2.5V | 00:00:00 | 00:00:00 | 00:00:00 | |
| DF5WG-10 | 2026-08-31 01:29:09 | 50.78068 | 9.81848 | 43° | 15km/h | 22191m | 1.5m/s | -53.8°C | 3.8% | 41.5hPa | 2.5V | 00:00:00 | 02:56:21 | 00:00:00 | |
| DB0ND-19 | 2026-08-31 01:29:08 | 50.78062 | 9.81840 | 46° | 15km/h | 22187m | 2.8m/s | -53.9°C | 1.0% | 41.6hPa | 2.5V | 00:00:00 | 00:00:00 | 00:00:00 | |
| DM0DOS-11 | 2026-08-31 01:29:06 | 50.78047 | 9.81819 | 32° | 15km/h | 22176m | 1.3m/s | -53.9°C | 3.8% | 41.7hPa | 2.5V | 02:18:58 | 02:56:14 | 00:00:00 | |
| DF8AY | 2026-08-31 01:29:03 | 50.78050 | 9.81823 | 35° | 16km/h | 22177m | 1.5m/s | -53.9°C | 0.5% | 41.7hPa | 2.5V | 02:19:15 | 02:56:15 | 00:00:00 | |
| DJ2DS-15 | 2026-08-31 01:29:03 | 50.78050 | 9.81823 | 36° | 16km/h | 22178m | 1.4m/s | -53.9°C | 3.8% | 41.6hPa | 2.5V | 00:00:00 | 02:56:15 | 00:00:00 | |
| DL1XH-15 | 2026-08-31 01:29:02 | 50.78031 | 9.81804 | 33° | 15km/h | 22166m | 2.3m/s | -54°C | 3.8% | 41.7hPa | 2.5V | 02:19:03 | 02:56:09 | 00:00:00 | |
| HSKMA3-T | 2026-08-31 01:29:02 | 50.78047 | 9.81819 | 33° | 15km/h | 22176m | 1.3m/s | -53.9°C | 0.5% | 41.7hPa | 2.5V | 02:19:15 | 02:56:14 | 00:00:00 | |
| DL1XH-west | 2026-08-31 01:29:01 | 50.78044 | 9.81816 | 30° | 15km/h | 22175m | 1.3m/s | -53.9°C | 0.5% | 41.7hPa | 2.5V | 02:19:15 | 02:56:13 | 00:00:00 | |
| DC4HF-4 | 2026-08-31 01:29:00 | 50.78040 | 9.81813 | 30° | 15km/h | 22173m | 1.9m/s | -54.0°C | 1.0% | 41.7hPa | 2.5V | 00:00:00 | 00:00:00 | 00:00:00 | |
| DL3AQ-11 | 2026-08-31 01:28:56 | 50.78024 | 9.81797 | 34° | 15km/h | 22162m | 1.7m/s | -54.0°C | 1.0% | 41.8hPa | 2.5V | 00:00:00 | 00:00:00 | 00:00:00 | |
| DM0DOS-11 | 2026-08-31 01:28:55 | 50.78014 | 9.81786 | 31° | 18km/h | 22157m | 2.3m/s | -54°C | 3.8% | 41.8hPa | 2.5V | 02:19:08 | 02:56:04 | 00:00:00 | |
| DL1XH-15 | 2026-08-31 01:28:53 | 50.77994 | 9.81767 | 33° | 18km/h | 22146m | 1.3m/s | -54°C | 3.8% | 41.9hPa | 2.5V | 02:19:13 | 02:55:59 | 00:00:00 | |
| DF8AY | 2026-08-31 01:28:52 | 50.78014 | 9.81786 | 31° | 18km/h | 22157m | 2.3m/s | -54°C | 0.5% | 41.8hPa | 2.5V | 02:19:15 | 02:56:04 | 00:00:00 | |
| HSKMA3-T | 2026-08-31 01:28:51 | 50.78010 | 9.81782 | 31° | 18km/h | 22154m | 2.6m/s | -54°C | 0.5% | 41.8hPa | 2.6V | 02:19:15 | 02:56:03 | 00:00:00 | |
| DL1XH-west | 2026-08-31 01:28:50 | 50.78006 | 9.81778 | 30° | 18km/h | 22152m | 2.7m/s | -54°C | 0.6% | 41.8hPa | 2.5V | 02:19:15 | 02:56:02 | 00:00:00 | |
| EDDB2-12 | 2026-08-31 01:28:48 | 50.77994 | 9.81767 | 33° | 16km/h | 22146m | 1.3m/s | -54.1°C | 1.0% | 41.9hPa | 2.5V | 00:00:00 | 00:00:00 | 00:00:00 | |
| DL1XH1-15 | 2026-08-31 01:28:46 | 50.77987 | 9.81759 | 38° | 18km/h | 22143m | 1.4m/s | -54.1°C | 3.8% | 41.9hPa | 2.5V | 02:19:15 | 02:55:57 | 00:00:00 | |
| D01LWL | 2026-08-31 01:28:46 | 50.77987 | 9.81759 | 38° | 16km/h | 22143m | 1.5m/s | -54.1°C | 1.0% | 41.9hPa | 2.5V | 00:00:00 | 00:00:00 | 00:00:00 | |
| DM0DOS-11 | 2026-08-31 01:28:45 | 50.77977 | 9.81745 | 43° | 18km/h | 22135m | 2.7m/s | -54.1°C | 3.8% | 41.9hPa | 2.5V | 02:19:18 | 02:55:54 | 00:00:00 | |
| BIOWL9-15 | 2026-08-31 01:28:45 | 50.77987 | 9.81759 | 38° | 16km/h | 22143m | 1.5m/s | -54.1°C | 1.0% | 41.9hPa | 2.5V | 00:00:00 | 00:00:00 | 00:00:00 | |
| DD1CC8 | 2026-08-31 01:28:44 | 50.77980 | 9.81750 | 42° | 16km/h | 22139m | 2.9m/s | -54.1°C | 1.0% | 42.0hPa | 2.5V | 00:00:00 | 00:00:00 | 00:00:00 | |
| DL3AQ-11 | 2026-08-31 01:28:43 | 50.77977 | 9.81745 | 43° | 16km/h | 22136m | 2.7m/s | -54.1°C | 1.0% | 41.9hPa | 2.5V | 00:00:00 | 00:00:00 | 00:00:00 | |
| DL1XH-15 | 2026-08-31 01:28:42 | 50.77959 | 9.81720 | 38° | 22km/h | 22126m | 1.8m/s | -54.2°C | 3.8% | 42hPa | 2.5V | 02:19:23 | 02:55:49 | 00:00:00 | |
| BIOWL1-15 | 2026-08-31 01:28:41 | 50.77973 | 9.81741 | 44° | 18km/h | 22133m | 2.5m/s | -54.2°C | 0.5% | 42hPa | 2.5V | 02:20:06 | 02:55:53 | 00:00:00 | |
| DL1XH-west | 2026-08-31 01:28:40 | 50.77970 | 9.81736 | 43° | 18km/h | 22131m | 2m/s | -54.2°C | 0.5% | 42hPa | 2.5V | 02:20:06 | 02:55:52 | 00:00:00 | |
| DO3MHA-11 | 2026-08-31 01:28:40 | 50.77970 | 9.81736 | 43° | 22km/h | 22131m | 2.0m/s | -54.1°C | 3.8% | 41.9hPa | 2.5V | 02:19:00 | 02:55:52 | 00:00:00 | |
| DJ2KF-10 | 2026-08-31 01:28:39 | 50.77967 | 9.81731 | 42° | 24km/h | 22129m | 1.3m/s | -54.2°C | 3.8% | 41.9hPa | 2.5V | 00:00:00 | 02:55:51 | 00:00:00 | |
| EDDB2-11 | 2026-08-31 01:28:38 | 50.77963 | 9.81726 | 40° | 20km/h | 22128m | 1.4m/s | -54.2°C | 1.0% | 42.0hPa | 2.5V | 00:00:00 | 00:00:00 | 00:00:00 | |
| SONDE2-11 | 2026-08-31 01:28:37 | 50.77954 | 9.81715 | 37° | 22km/h | 22124m | 2.5m/s | -54.3°C | 1.1% | 42.0hPa | 2.5V | 00:00:00 | 00:00:00 | 00:00:00 | |
| GOEST3-10 | 2026-08-31 01:28:36 | 50.77954 | 9.81715 | 38° | 24km/h | 22124m | 2.5m/s | -54.2°C | 3.9% | 42.0hPa | 2.5V | 00:00:00 | 02:55:48 | 00:00:00 | |
| DM0DOS-11 | 2026-08-31 01:28:35 | 50.77935 | 9.81692 | 36° | 24km/h | 22114m | 1.9m/s | -54.2°C | 3.9% | 42.1hPa | 2.5V | 02:19:28 | 02:55:44 | 00:00:00 | |
| HSKMA3-T | 2026-08-31 01:28:31 | 50.77930 | 9.81686 | 37° | 24km/h | 22112m | 1.4m/s | -54.2°C | 0.6% | 42.1hPa | 2.6V | 02:20:06 | 02:55:43 | 00:00:00 | |
| BIOWL1-15 | 2026-08-31 01:28:30 | 50.77899 | 9.81649 | 35° | 22km/h | 22098m | 1.8m/s | -54.2°C | 0.6% | 42.2hPa | 2.6V | 02:20:06 | 02:55:36 | 00:00:00 | |
| DO3MHA-11 | 2026-08-31 01:28:30 | 50.77925 | 9.81680 | 39° | 22km/h | 22111m | 1.1m/s | -54.2°C | 3.8% | 42.1hPa | 2.5V | 00:00:00 | 02:55:42 | 00:00:00 | |
| DL1XH-15 | 2026-08-31 01:28:29 | 50.77912 | 9.81664 | 39° | 22km/h | 22105m | 2.9m/s | -54.2°C | 3.9% | 42.2hPa | 2.5V | 02:19:33 | 02:55:39 | 00:00:00 | |
| DL1XH-west | 2026-08-31 01:28:29 | 50.77921 | 9.81675 | 39° | 24km/h | 22110m | 1.5m/s | -54.2°C | 0.5% | 42.1hPa | 2.5V | 02:20:06 | 02:55:41 | 00:00:00 | |
| DF5WG-10 | 2026-08-31 01:28:29 | 50.77921 | 9.81675 | 40° | 22km/h | 22110m | 1.5m/s | -54.2°C | 3.8% | 42.1hPa | 2.5V | 02:19:00 | 02:55:41 | 00:00:00 | |
| DL8DAS-15 | 2026-08-31 01:28:27 | 50.77916 | 9.81669 | 40° | 22km/h | 22108m | 2.5m/s | -54.2°C | 1.1% | 42.1hPa | 2.5V | 00:00:00 | 00:00:00 | 00:00:00 | |
| GOEST3-10 | 2026-08-31 01:28:26 | 50.77908 | 9.81658 | 38° | 22km/h | 22103m | 2.7m/s | -54.1°C | 3.9% | 42.1hPa | 2.5V | 02:19:00 | 02:55:38 | 00:00:00 | |
| DL3JIN-12 | 2026-08-31 01:28:25 | 50.77908 | 9.81658 | 39° | 20km/h | 22103m | 2.7m/s | -54.2°C | 0% | 42.2hPa | 2.5V | 02:20:00 | 00:00:00 | 00:00:00 | |
| DC4HF-4 | 2026-08-31 01:28:24 | 50.77899 | 9.81649 | 35° | 20km/h | 22098m | 1.8m/s | -54.2°C | 1.1% | 42.2hPa | 2.5V | 00:00:00 | 00:00:00 | 00:00:00 | |
| DO9LL-15 | 2026-08-31 01:28:23 | 50.77895 | 9.81643 | 34° | 24km/h | 22096m | 1.3m/s | -54.1°C | 4.0% | 42.2hPa | 2.5V | 00:00:00 | 02:55:35 | 00:00:00 | |
| DL1XH-15 | 2026-08-31 01:28:22 | 50.77862 | 9.81611 | 33° | 27km/h | 22084m | 2.2m/s | -54.1°C | 3.9% | 42.3hPa | 2.5V | 02:19:43 | 02:55:29 | 00:00:00 | |
| DF8AY | 2026-08-31 01:28:21 | 50.77885 | 9.81634 | 32° | 26km/h | 22093m | 1.7m/s | -54.2°C | 0.6% | 42.2hPa | 2.5V | 02:20:06 | 02:55:33 | 00:00:00 | |
| HSKMA3-T | 2026-08-31 01:28:20 | 50.77879 | 9.81628 | 31° | 26km/h | 22091m | 2.4m/s | -54.2°C | 0.5% | 42.2hPa | 2.5V | 02:20:06 | 02:55:32 | 00:00:00 | |
| DL1XH-west | 2026-08-31 01:28:18 | 50.77868 | 9.81617 | 32° | 27km/h | 22086m | 2.5m/s | -54.2°C | 0.5% | 42.3hPa | 2.5V | 02:20:06 | 02:55:30 | 00:00:00 | |
| EDDB2-12 | 2026-08-31 01:28:17 | 50.77856 | 9.81605 | 35° | 26km/h | 22082m | 1.7m/s | -54.2°C | 1.0% | 42.3hPa | 2.5V | 00:00:00 | 00:00:00 | 00:00:00 | |
| DL3AQ-11 | 2026-08-31 01:28:16 | 50.77851 | 9.81599 | 36° | 24km/h | 22081m | 1.2m/s | -54.1°C | 1.1% | 42.3hPa | 2.5V | 00:00:00 | 00:00:00 | 00:00:00 | |
| D01LWL | 2026-08-31 01:28:15 | 50.77846 | 9.81593 | 38° | 24km/h | 22079m | 1.1m/s | -54.1°C | 1.0% | 42.3hPa | 2.5V | 00:00:00 | 00:00:00 | 00:00:00 | |
| BIOWL9-15 | 2026-08-31 01:28:14 | 50.77846 | 9.81593 | 38° | 24km/h | 22079m | 1.1m/s | -54.1°C | 1.0% | 42.3hPa | 2.5V | 00:00:00 | 00:00:00 | 00:00:00 | |
| NBG1-10 | 2026-08-31 01:28:13 | 50.77841 | 9.81587 | 41° | 22km/h | 22078m | 1.5m/s | -54.1°C | 3.8% | 42.3hPa | 2.5V | 00:00:00 | 02:55:25 | 00:00:00 | |
| DL1XH-15 | 2026-08-31 01:28:12 | 50.77814 | 9.81550 | 36° | 24km/h | 22064m | 1.3m/s | -54.1°C | 3.9% | 42.4hPa | 2.5V | 02:19:53 | 02:55:19 | 00:00:00 | |
| DF8AY | 2026-08-31 01:28:11 | 50.77832 | 9.81574 | 42° | 24km/h | 22074m | 2.8m/s | -54.1°C | 0.5% | 42.4hPa | 2.6V | 02:20:06 | 02:55:23 | 00:00:00 | |
| BIOWL1-15 | 2026-08-31 01:28:10 | 50.77828 | 9.81568 | 41° | 24km/h | 22071m | 2.8m/s | -54.1°C | 0.5% | 42.4hPa | 2.5V | 02:20:06 | 02:55:22 | 00:00:00 | |
| HSKMA3-T | 2026-08-31 01:28:09 | 50.77823 | 9.81562 | 40° | 24km/h | 22068m | 2.4m/s | -54.1°C | 0.5% | 42.4hPa | 2.5V | 02:20:06 | 02:55:21 | 00:00:00 | |
| DJ2KF-10 | 2026-08-31 01:28:09 | 50.77823 | 9.81562 | 41° | 22km/h | 22068m | 2.3m/s | -54.1°C | 3.8% | 42.3hPa | 2.5V | 00:00:00 | 02:55:21 | 00:00:00 | |
| SFWM-10 | 2026-08-31 01:28:08 | 50.77823 | 9.81562 | 41° | 24km/h | 22068m | 2.4m/s | -54.1°C | 1.0% | 42.4hPa | 2.5V | 02:20:00 | 00:00:00 | 00:00:00 | |
| EDDB2-11 | 2026-08-31 01:28:07 | 50.77809 | 9.81544 | 34° | 24km/h | 22063m | 1.3m/s | -54.1°C | 1.0% | 42.4hPa | 2.5V | 00:00:00 | 00:00:00 | 00:00:00 | |
| DL1XH-west | 2026-08-31 01:28:07 | 50.77814 | 9.81550 | 37° | 24km/h | 22064m | 1.3m/s | -54.1°C | 0.5% | 42.4hPa | 2.5V | 02:20:06 | 02:55:19 | 00:00:00 | |
| GOEST3-10 | 2026-08-31 01:28:06 | 50.77809 | 9.81544 | 35° | 24km/h | 22063m | 1.2m/s | -54.1°C | 3.8% | 42.4hPa | 2.5V | 00:00:00 | 02:55:18 | 00:00:00 | |
| DB0ND-19 | 2026-08-31 01:28:05 | 50.77804 | 9.81539 | 33° | 24km/h | 22062m | 1.6m/s | -54.1°C | 1.0% | 42.4hPa | 2.5V | 00:00:00 | 00:00:00 | 00:00:00 | |
| BIOWL7-15 | 2026-08-31 01:28:04 | 50.77804 | 9.81539 | 35° | 24km/h | 22062m | 1.6m/s | -54.1°C | 1.0% | 42.4hPa | 2.5V | 00:00:00 | 00:00:00 | 00:00:00 | |
| DL3AQ-11 | 2026-08-31 01:28:03 | 50.77789 | 9.81524 | 31° | 22km/h | 22055m | 2.4m/s | -54.1°C | 1.1% | 42.5hPa | 2.5V | 00:00:00 | 00:00:00 | 00:00:00 | |
| DL1XH-15 | 2026-08-31 01:28:02 | 50.77764 | 9.81499 | 35° | 24km/h | 22047m | 1.9m/s | -54.1°C | 3.9% | 42.5hPa | 2.5V | 02:20:03 | 02:55:09 | 00:00:00 | |
| DF8AY | 2026-08-31 01:28:00 | 50.77779 | 9.81514 | 32° | 22km/h | 22051m | 1.4m/s | -54.1°C | 0.5% | 42.5hPa | 2.5V | 02:20:06 | 02:55:12 | 00:00:00 | |
| BIOWL1-15 | 2026-08-31 01:27:59 | 50.77774 | 9.81509 | 33° | 22km/h | 22050m | 1m/s | -54.1°C | 0.5% | 42.5hPa | 2.5V | 02:20:06 | 02:55:11 | 00:00:00 | |
| HSKMA3-T | 2026-08-31 01:27:58 | 50.77769 | 9.81504 | 34° | 24km/h | 22049m | 1.2m/s | -54.1°C | 0.6% | 42.5hPa | 2.5V | 02:20:06 | 02:55:10 | 00:00:00 | |
| DL1XH-west | 2026-08-31 01:27:57 | 50.77764 | 9.81499 | 36° | 24km/h | 22047m | 1.9m/s | -54.1°C | 0.6% | 42.5hPa | 2.5V | 02:20:06 | 02:55:09 | 00:00:00 | |
| AA1-15 | 2026-08-31 01:27:56 | 50.77759 | 9.81494 | 36° | 24km/h | 22045m | 2.6m/s | -54.1°C | 0.5% | 42.5hPa | 2.5V | 02:20:06 | 02:55:08 | 00:00:00 | |
| DL1XH1-15 | 2026-08-31 01:27:56 | 50.77755 | 9.81488 | 36° | 24km/h | 22042m | 2.9m/s | -54.1°C | 3.9% | 42.6hPa | 2.5V | 02:20:05 | 02:55:07 | 00:00:00 | |
| GOEST3-10 | 2026-08-31 01:27:56 | 50.77759 | 9.81493 | 36° | 22km/h | 22045m | 2.6m/s | -54.0°C | 3.9% | 42.5hPa | 2.5V | 02:20:00 | 02:55:08 | 00:00:00 | |
| DO9LL-15 | 2026-08-31 01:27:53 | 50.77745 | 9.81477 | 36° | 20km/h | 22037m | 1.9m/s | -54.0°C | 3.9% | 42.6hPa | 2.5V | 02:20:00 | 02:55:05 | 00:00:00 | |
| DL1XH-15 | 2026-08-31 01:27:52 | 50.77721 | 9.81451 | 31° | 18km/h | 22025m | 2.8m/s | -54°C | 3.8% | 42.7hPa | 2.5V | 02:20:13 | 02:54:59 | 00:00:00 | |
| DF8AY | 2026-08-31 01:27:50 | 50.77733 | 9.81463 | 34° | 18km/h | 22032m | 1.6m/s | -54.1°C | 0.5% | 42.6hPa | 2.5V | 02:20:57 | 02:55:02 | 00:00:00 | |
| BIOWL1-15 | 2026-08-31 01:27:48 | 50.77725 | 9.81455 | 33° | 18km/h | 22028m | 2.7m/s | -54°C | 0.5% | 42.7hPa | 2.5V | 02:20:57 | 02:55:00 | 00:00:00 | |
| HSKMA3-T | 2026-08-31 01:27:47 | 50.77721 | 9.81451 | 32° | 18km/h | 22025m | 2.8m/s | -54°C | 0.6% | 42.7hPa | 2.5V | 02:20:57 | 02:54:59 | 00:00:00 | |
| DL1XH1-15 | 2026-08-31 01:27:46 | 50.77713 | 9.81444 | 30° | 20km/h | 22020m | 2.1m/s | -54°C | 3.8% | 42.7hPa | 2.5V | 02:20:15 | 02:54:57 | 00:00:00 | |
| DL1XH-west | 2026-08-31 01:27:46 | 50.77717 | 9.81448 | 31° | 18km/h | 22022m | 2.5m/s | -54°C | 0.5% | 42.7hPa | 2.5V | 02:20:57 | 02:54:58 | 00:00:00 | |
| EDDB2-12 | 2026-08-31 01:27:46 | 50.77713 | 9.81444 | 30° | 18km/h | 22020m | 2.1m/s | -54.0°C | 1.0% | 42.7hPa | 2.5V | 00:00:00 | 00:00:00 | 00:00:00 | |
| DM0DOS-11 | 2026-08-31 01:27:45 | 50.77699 | 9.81432 | 28° | 22km/h | 22015m | 1.5m/s | -54°C | 3.8% | 42.7hPa | 2.5V | 02:20:18 | 02:54:54 | 00:00:00 | |
| AA1-15 | 2026-08-31 01:27:45 | 50.77713 | 9.81444 | 30° | 20km/h | 22020m | 2.1m/s | -54°C | 0.5% | 42.7hPa | 2.5V | 02:20:57 | 02:54:57 | 00:00:00 | |
| D01LWL | 2026-08-31 01:27:44 | 50.77704 | 9.81436 | 28° | 20km/h | 22017m | 1.2m/s | -54.0°C | 1.0% | 42.7hPa | 2.5V | 00:00:00 | 00:00:00 | 00:00:00 | |
| DJ2DS-15 | 2026-08-31 01:27:43 | 50.77704 | 9.81436 | 29° | 20km/h | 22017m | 1.2m/s | -54.0°C | 3.8% | 42.7hPa | 2.5V | 00:00:00 | 02:54:55 | 00:00:00 | |
| DL1XH-15 | 2026-08-31 01:27:42 | 50.77675 | 9.81411 | 29° | 18km/h | 22005m | 1.4m/s | -54°C | 3.8% | 42.8hPa | 2.5V | 02:20:23 | 02:54:49 | 00:00:00 | |
| BIOWL1-15 | 2026-08-31 01:27:41 | 50.77675 | 9.81411 | 30° | 18km/h | 22005m | 1.4m/s | -54°C | 0.5% | 42.8hPa | 2.5V | 02:20:57 | 02:54:49 | 00:00:00 | |
| DF8AY | 2026-08-31 01:27:39 | 50.77684 | 9.81419 | 29° | 22km/h | 22009m | 2.4m/s | -54°C | 0.5% | 42.8hPa | 2.5V | 02:20:57 | 02:54:51 | 00:00:00 | |
| DJ2KF-10 | 2026-08-31 01:27:39 | 50.77684 | 9.81419 | 30° | 18km/h | 22009m | 2.3m/s | -54.0°C | 3.8% | 42.7hPa | 2.5V | 02:20:00 | 02:54:51 | 00:00:00 | |
| DF5WG-10 | 2026-08-31 01:27:38 | 50.77680 | 9.81415 | 30° | 18km/h | 22007m | 1.9m/s | -54.0°C | 3.8% | 42.8hPa | 2.5V | 00:00:00 | 02:54:50 | 00:00:00 | |
| DL8OAI-8 | 2026-08-31 01:27:37 | 50.77680 | 9.81415 | 30° | 20km/h | 22007m | 1.9m/s | -54.0°C | 1.1% | 42.8hPa | 2.5V | 02:20:00 | 00:00:00 | 00:00:00 | |
| DL1XH1-15 | 2026-08-31 01:27:36 | 50.77668 | 9.81404 | 29° | 16km/h | 22003m | 1.2m/s | -54°C | 3.8% | 42.8hPa | 2.5V | 02:20:25 | 02:54:47 | 00:00:00 | |
| HSKMA3-T | 2026-08-31 01:27:36 | 50.77671 | 9.81408 | 29° | 18km/h | 22004m | 1.1m/s | -54°C | 0.5% | 42.8hPa | 2.5V | 02:20:57 | 02:54:48 | 00:00:00 | |
| DL1XH-west | 2026-08-31 01:27:35 | 50.77668 | 9.81404 | 30° | 16km/h | 22003m | 1.3m/s | -54°C | 0.5% | 42.8hPa | 2.5V | 02:20:57 | 02:54:47 | 00:00:00 | |
| DM0DOS-11 | 2026-08-31 01:27:35 | 50.77657 | 9.81395 | 26° | 16km/h | 21996m | 2.9m/s | -54°C | 3.8% | 42.9hPa | 2.5V | 02:20:28 | 02:54:44 | 00:00:00 | |
| AA1-15 | 2026-08-31 01:27:34 | 50.77664 | 9.81401 | 30° | 16km/h | 22001m | 1.8m/s | -54°C | 0.5% | 42.9hPa | 2.5V | 02:20:57 | 02:54:46 | 00:00:00 | |
| DF8AY | 2026-08-31 01:27:29 | 50.77644 | 9.81386 | 18° | 20km/h | 21989m | 1.5m/s | -54°C | 0.6% | 42.9hPa | 2.5V | 02:20:57 | 02:54:41 | 00:00:00 | |
| BIOWL1-15 | 2026-08-31 01:27:26 | 50.77628 | 9.81380 | 13° | 22km/h | 21985m | 2.3m/s | -54.1°C | 0.6% | 42.9hPa | 2.5V | 02:20:57 | 02:54:38 | 00:00:00 | |
| DL1XH1-15 | 2026-08-31 01:27:26 | 50.77623 | 9.81378 | 12° | 22km/h | 21982m | 2.7m/s | -54.1°C | 3.8% | 43hPa | 2.5V | 02:20:35 | 02:54:37 | 00:00:00 | |
| GOEST3-10 | 2026-08-31 01:27:26 | 50.77628 | 9.81380 | 13° | 20km/h | 21985m | 2.3m/s | -54.0°C | 3.9% | 42.9hPa | 2.5V | 02:20:00 | 02:54:38 | 00:00:00 | |
| DM0DOS-11 | 2026-08-31 01:27:25 | 50.77608 | 9.81373 | 13° | 18km/h | 21975m | 1.7m/s | -54°C | 3.9% | 43hPa | 2.5V | 02:20:38 | 02:54:34 | 00:00:00 | |
| HSKMA3-T | 2026-08-31 01:27:25 | 50.77623 | 9.81378 | 13° | 22km/h | 21982m | 2.7m/s | -54.1°C | 0.5% | 43hPa | 2.5V | 02:20:57 | 02:54:37 | 00:00:00 | |
| DL1XH-west | 2026-08-31 01:27:24 | 50.77618 | 9.81376 | 12° | 20km/h | 21979m | 2.6m/s | -54.1°C | 0.5% | 43hPa | 2.5V | 02:20:57 | 02:54:36 | 00:00:00 | |
| AA1-15 | 2026-08-31 01:27:23 | 50.77613 | 9.81374 | 13° | 18km/h | 21977m | 2.2m/s | -54.1°C | 0.6% | 43hPa | 2.5V | 02:20:57 | 02:54:35 | 00:00:00 | |
| DL3AQ-11 | 2026-08-31 01:27:23 | 50.77608 | 9.81373 | 13° | 16km/h | 21975m | 1.7m/s | -54.1°C | 1.1% | 43.0hPa | 2.5V | 00:00:00 | 00:00:00 | 00:00:00 | |
| DL1XH-15 | 2026-08-31 01:27:22 | 50.77588 | 9.81363 | 19° | 16km/h | 21966m | 2.9m/s | -54°C | 3.9% | 43.1hPa | 2.5V | 02:20:43 | 02:54:29 | 00:00:00 | |
| DF8AY | 2026-08-31 01:27:18 | 50.77592 | 9.81365 | 19° | 16km/h | 21968m | 2.6m/s | -54°C | 0.5% | 43.1hPa | 2.5V | 02:20:57 | 02:54:30 | 00:00:00 | |
| BIOWL1-15 | 2026-08-31 01:27:18 | 50.77584 | 9.81361 | 19° | 18km/h | 21963m | 2.6m/s | -54°C | 0.5% | 43.1hPa | 2.5V | 02:20:57 | 02:54:28 | 00:00:00 | |
| DL1XH1-15 | 2026-08-31 01:27:16 | 50.77580 | 9.81359 | 17° | 18km/h | 21961m | 1.9m/s | -54°C | 3.9% | 43.1hPa | 2.5V | 02:20:45 | 02:54:27 | 00:00:00 | |
| GOEST3-10 | 2026-08-31 01:27:16 | 50.77584 | 9.81361 | 19° | 18km/h | 21963m | 2.5m/s | -54.0°C | 3.9% | 43.1hPa | 2.5V | 00:00:00 | 02:54:28 | 00:00:00 | |
| DM0DOS-11 | 2026-08-31 01:27:15 | 50.77566 | 9.81353 | 13° | 18km/h | 21957m | 1.3m/s | -54°C | 3.9% | 43.1hPa | 2.5V | 02:20:48 | 02:54:24 | 00:00:00 | |
| HSKMA3-T | 2026-08-31 01:27:15 | 50.77580 | 9.81359 | 17° | 18km/h | 21961m | 1.9m/s | -54°C | 0.6% | 43.1hPa | 2.5V | 02:20:57 | 02:54:27 | 00:00:00 | |
| DL1XH-west | 2026-08-31 01:27:14 | 50.77575 | 9.81356 | 15° | 18km/h | 21959m | 1.4m/s | -54°C | 0.6% | 43.1hPa | 2.5V | 02:20:57 | 02:54:26 | 00:00:00 | |
| DL1XH-15 | 2026-08-31 01:27:12 | 50.77544 | 9.81346 | 7° | 16km/h | 21944m | 2.2m/s | -54°C | 3.9% | 43.2hPa | 2.5V | 02:20:53 | 02:54:19 | 00:00:00 | |
| AA1-15 | 2026-08-31 01:27:12 | 50.77566 | 9.81353 | 14° | 20km/h | 21957m | 1.3m/s | -54°C | 0.6% | 43.1hPa | 2.5V | 02:20:57 | 02:54:24 | 00:00:00 | |
| DF8AY | 2026-08-31 01:27:08 | 50.77548 | 9.81347 | 9° | 18km/h | 21947m | 2.6m/s | -54°C | 0.6% | 43.2hPa | 2.5V | 02:20:57 | 02:54:20 | 00:00:00 | |
| DM0DOS-11 | 2026-08-31 01:27:07 | 50.77521 | 9.81343 | 5° | 18km/h | 21935m | 3m/s | -54°C | 3.8% | 43.3hPa | 2.5V | 02:20:58 | 02:54:14 | 00:00:00 | |
| BIOWL1-15 | 2026-08-31 01:27:06 | 50.77539 | 9.81345 | 5° | 16km/h | 21942m | 1.7m/s | -54°C | 0.5% | 43.2hPa | 2.5V | 02:20:57 | 02:54:18 | 00:00:00 | |
| HSKMA3-T | 2026-08-31 01:27:04 | 50.77530 | 9.81344 | 4° | 18km/h | 21939m | 1.5m/s | -54°C | 0.5% | 43.3hPa | 2.6V | 02:20:57 | 02:54:16 | 00:00:00 | |
| DL1XH-west | 2026-08-31 01:27:03 | 50.77526 | 9.81343 | 5° | 18km/h | 21938m | 2.3m/s | -54°C | 0.5% | 43.3hPa | 2.5V | 02:20:57 | 02:54:15 | 00:00:00 | |
| DF8AY | 2026-08-31 01:27:03 | 50.77502 | 9.81340 | 4° | 18km/h | 21926m | 1.4m/s | -54°C | 0.5% | 43.4hPa | 2.5V | 02:21:48 | 02:54:10 | 00:00:00 | |
| DJ2DS-15 | 2026-08-31 01:27:03 | 50.77526 | 9.81343 | 5° | 20km/h | 21938m | 2.3m/s | -54.0°C | 3.8% | 43.2hPa | 2.6V | 00:00:00 | 02:54:15 | 00:00:00 | |
| DL1XH-15 | 2026-08-31 01:27:02 | 50.77497 | 9.81340 | 4° | 18km/h | 21925m | 1.3m/s | -54°C | 3.8% | 43.4hPa | 2.6V | 02:21:03 | 02:54:09 | 00:00:00 | |
| AA1-15 | 2026-08-31 01:27:01 | 50.77517 | 9.81342 | 5° | 18km/h | 21932m | 2.8m/s | -54°C | 0.5% | 43.3hPa | 2.5V | 02:21:48 | 02:54:13 | 00:00:00 | |
| BIOWL1-15 | 2026-08-31 01:26:56 | 50.77493 | 9.81339 | 4° | 18km/h | 21923m | 1.8m/s | -54.1°C | 0.5% | 43.4hPa | 2.5V | 02:21:48 | 02:54:08 | 00:00:00 | |
| DL3AQ-11 | 2026-08-31 01:26:56 | 50.77488 | 9.81339 | 2° | 16km/h | 21921m | 2.5m/s | -54.1°C | 1.1% | 43.4hPa | 2.5V | 00:00:00 | 00:00:00 | 00:00:00 | |
| DM0DOS-11 | 2026-08-31 01:26:55 | 50.77475 | 9.81340 | 352° | 18km/h | 21913m | 2.3m/s | -54.1°C | 3.9% | 43.4hPa | 2.5V | 02:21:08 | 02:54:04 | 00:00:00 | |
| HSKMA3-T | 2026-08-31 01:26:54 | 50.77484 | 9.81339 | 360° | 18km/h | 21918m | 2.8m/s | -54.1°C | 0.5% | 43.4hPa | 2.5V | 02:21:48 | 02:54:06 | 00:00:00 | |
| DL1XH-west | 2026-08-31 01:26:53 | 50.77479 | 9.81339 | 357° | 18km/h | 21915m | 2.6m/s | -54.1°C | 0.5% | 43.5hPa | 2.5V | 02:21:48 | 02:54:05 | 00:00:00 | |
| AA1-15 | 2026-08-31 01:26:50 | 50.77466 | 9.81342 | 348° | 20km/h | 21909m | 1.7m/s | -54.1°C | 0.6% | 43.5hPa | 2.5V | 02:21:48 | 02:54:02 | 00:00:00 | |
| BUE01 | 2026-08-31 01:26:48 | 50.77456 | 9.81346 | 346° | 20km/h | 21906m | 1.9m/s | -54.1°C | 1.1% | 43.5hPa | 2.5V | 00:00:00 | 00:00:00 | 00:00:00 | |
| DF8AY | 2026-08-31 01:26:48 | 50.77456 | 9.81346 | 347° | 22km/h | 21906m | 1.9m/s | -54.1°C | 0.6% | 43.5hPa | 2.5V | 02:21:48 | 02:54:00 | 00:00:00 | |
| SFWM-10 | 2026-08-31 01:26:47 | 50.77456 | 9.81346 | 348° | 22km/h | 21906m | 1.9m/s | -54.1°C | 1.1% | 43.5hPa | 2.5V | 02:21:00 | 00:00:00 | 00:00:00 | |
| DL1XH1-15 | 2026-08-31 01:26:46 | 50.77440 | 9.81351 | 350° | 22km/h | 21899m | 2.5m/s | -54.2°C | 3.9% | 43.5hPa | 2.5V | 02:21:15 | 02:53:57 | 00:00:00 | |
| BIOWL1-15 | 2026-08-31 01:26:45 | 50.77440 | 9.81351 | 350° | 22km/h | 21899m | 2.5m/s | -54.2°C | 0.6% | 43.5hPa | 2.5V | 02:21:48 | 02:53:57 | 00:00:00 | |
| HSKMA3-T | 2026-08-31 01:26:44 | 50.77435 | 9.81352 | 351° | 20km/h | 21896m | 2.1m/s | -54.2°C | 0.6% | 43.6hPa | 2.6V | 02:21:48 | 02:53:56 | 00:00:00 | |
| DL1XH-west | 2026-08-31 01:26:43 | 50.77430 | 9.81354 | 352° | 18km/h | 21894m | 1.7m/s | -54.2°C | 0.6% | 43.6hPa | 2.5V | 02:21:48 | 02:53:55 | 00:00:00 | |
| AA1-15 | 2026-08-31 01:26:40 | 50.77417 | 9.81356 | 351° | 15km/h | 21890m | 2.3m/s | -54.2°C | 0.6% | 43.6hPa | 2.5V | 02:21:48 | 02:53:52 | 00:00:00 | |
| DF8AY | 2026-08-31 01:26:38 | 50.77409 | 9.81358 | 347° | 15km/h | 21884m | 2.9m/s | -54.2°C | 0.5% | 43.7hPa | 2.5V | 02:21:48 | 02:53:50 | 00:00:00 | |
| DL1XH1-15 | 2026-08-31 01:26:36 | 50.77398 | 9.81363 | 344° | 16km/h | 21878m | 1.5m/s | -54.2°C | 3.9% | 43.7hPa | 2.5V | 02:21:25 | 02:53:47 | 00:00:00 | |
| HSKMA3-T | 2026-08-31 01:26:33 | 50.77389 | 9.81367 | 348° | 20km/h | 21875m | 1.8m/s | -54.2°C | 0.6% | 43.7hPa | 2.5V | 02:21:48 | 02:53:45 | 00:00:00 | |
| DL1XH-west | 2026-08-31 01:26:32 | 50.77384 | 9.81368 | 350° | 22km/h | 21872m | 2.5m/s | -54.2°C | 0.6% | 43.7hPa | 2.5V | 02:21:48 | 02:53:44 | 00:00:00 | |
| AA1-15 | 2026-08-31 01:26:29 | 50.77367 | 9.81373 | 351° | 22km/h | 21865m | 2.2m/s | -54.2°C | 0.6% | 43.8hPa | 2.5V | 02:21:48 | 02:53:41 | 00:00:00 | |
| DF8AY | 2026-08-31 01:26:27 | 50.77356 | 9.81376 | 346° | 20km/h | 21861m | 1.5m/s | -54.2°C | 0.6% | 43.8hPa | 2.5V | 02:21:48 | 02:53:39 | 00:00:00 | |
| DL1XH1-15 | 2026-08-31 01:26:26 | 50.77347 | 9.81381 | 336° | 18km/h | 21858m | 2.2m/s | -54.2°C | 3.9% | 43.9hPa | 2.5V | 02:21:35 | 02:53:37 | 00:00:00 | |
| BIOWL1-15 | 2026-08-31 01:26:24 | 50.77343 | 9.81384 | 332° | 18km/h | 21855m | 2.7m/s | -54.2°C | 0.5% | 43.9hPa | 2.6V | 02:21:48 | 02:53:36 | 00:00:00 | |
| DL1XH-west | 2026-08-31 01:26:22 | 50.77335 | 9.81392 | 326° | 18km/h | 21850m | 2.5m/s | -54.2°C | 0.5% | 43.9hPa | 2.5V | 02:21:48 | 02:53:34 | 00:00:00 | |
| AA1-15 | 2026-08-31 01:26:18 | 50.77318 | 9.81408 | 334° | 22km/h | 21843m | 1.6m/s | -54.2°C | 0.6% | 43.9hPa | 2.5V | 02:21:48 | 02:53:30 | 00:00:00 | |
| DF8AY | 2026-08-31 01:26:17 | 50.77313 | 9.81412 | 337° | 22km/h | 21840m | 2.4m/s | -54.2°C | 0.6% | 43.9hPa | 2.5V | 02:21:48 | 02:53:29 | 00:00:00 | |
| DL1XH1-15 | 2026-08-31 01:26:16 | 50.77303 | 9.81419 | 337° | 22km/h | 21835m | 2.6m/s | -54.2°C | 3.9% | 44hPa | 2.5V | 02:21:45 | 02:53:27 | 00:00:00 | |
| DL8OAI-8 | 2026-08-31 01:26:15 | 50.77308 | 9.81415 | 338° | 22km/h | 21838m | 2.8m/s | -54.2°C | 1.1% | 44.0hPa | 2.5V | 02:21:00 | 00:00:00 | 00:00:00 | |
| DM0DOS-11 | 2026-08-31 01:26:14 | 50.77288 | 9.81430 | 328° | 20km/h | 21829m | 1.7m/s | -54.2°C | 3.9% | 44hPa | 2.5V | 02:21:48 | 02:53:24 | 00:00:00 | |
| BIOWL1-15 | 2026-08-31 01:26:13 | 50.77293 | 9.81426 | 333° | 20km/h | 21831m | 1.9m/s | -54.2°C | 0.5% | 44hPa | 2.5V | 02:21:48 | 02:53:25 | 00:00:00 | |
| HSKMA3-T | 2026-08-31 01:26:12 | 50.77288 | 9.81430 | 329° | 20km/h | 21829m | 1.7m/s | -54.2°C | 0.6% | 44hPa | 2.5V | 02:21:48 | 02:53:24 | 00:00:00 | |
| DL1XH-west | 2026-08-31 01:26:11 | 50.77284 | 9.81434 | 324° | 18km/h | 21827m | 1.4m/s | -54.2°C | 0.6% | 44hPa | 2.6V | 02:22:39 | 02:53:23 | 00:00:00 | |
| DF8AY | 2026-08-31 01:26:11 | 50.77266 | 9.81458 | 324° | 18km/h | 21816m | 2m/s | -54.2°C | 0.6% | 44.1hPa | 2.5V | 02:22:39 | 02:53:18 | 00:00:00 | |
| AA1-15 | 2026-08-31 01:26:07 | 50.77270 | 9.81454 | 320° | 18km/h | 21818m | 2.4m/s | -54.2°C | 0.5% | 44.1hPa | 2.5V | 02:22:39 | 02:53:19 | 00:00:00 | |
| DL1XH1-15 | 2026-08-31 01:26:06 | 50.77262 | 9.81462 | 330° | 18km/h | 21814m | 1.7m/s | -54.2°C | 3.9% | 44.1hPa | 2.5V | 02:21:55 | 02:53:17 | 00:00:00 | |
| DM0DOS-11 | 2026-08-31 01:26:05 | 50.77248 | 9.81470 | 347° | 20km/h | 21808m | 2.3m/s | -54.2°C | 3.8% | 44.1hPa | 2.5V | 02:21:58 | 02:53:14 | 00:00:00 | |
| HSKMA3-T | 2026-08-31 01:26:02 | 50.77248 | 9.81470 | 347° | 20km/h | 21809m | 2.3m/s | -54.2°C | 0.5% | 44.1hPa | 2.5V | 02:22:39 | 02:53:14 | 00:00:00 | |
| SONDE2-11 | 2026-08-31 01:26:02 | 50.77243 | 9.81472 | 349° | 20km/h | 21806m | 2.8m/s | -54.2°C | 1.1% | 44.2hPa | 2.6V | 00:00:00 | 00:00:00 | 00:00:00 | |
| DL1XH-15 | 2026-08-31 01:26:01 | 50.77225 | 9.81479 | 339° | 16km/h | 21797m | 1.9m/s | -54.2°C | 3.9% | 44.2hPa | 2.6V | 02:22:03 | 02:53:09 | 00:00:00 | |
| DL1XH-west | 2026-08-31 01:26:01 | 50.77243 | 9.81472 | 349° | 20km/h | 21806m | 2.8m/s | -54.2°C | 0.6% | 44.2hPa | 2.5V | 02:22:39 | 02:53:13 | 00:00:00 | |
| DC4HF-4 | 2026-08-31 01:26:00 | 50.77238 | 9.81473 | 350° | 20km/h | 21804m | 2.8m/s | -54.2°C | 1.1% | 44.2hPa | 2.5V | 00:00:00 | 00:00:00 | 00:00:00 | |
| DL1ZP-14 | 2026-08-31 01:25:59 | 50.77229 | 9.81476 | 344° | 16km/h | 21799m | 2.1m/s | -54.2°C | 1.1% | 44.2hPa | 2.5V | 00:00:00 | 00:00:00 | 00:00:00 | |
| DF5WG-10 | 2026-08-31 01:25:57 | 50.77225 | 9.81478 | 340° | 15km/h | 21797m | 1.8m/s | -54.2°C | 3.9% | 44.2hPa | 2.6V | 02:22:00 | 02:53:09 | 00:00:00 | |
| GOEST3-10 | 2026-08-31 01:25:56 | 50.77221 | 9.81481 | 333° | 13km/h | 21795m | 1.7m/s | -54.2°C | 3.9% | 44.2hPa | 2.5V | 02:22:00 | 02:53:08 | 00:00:00 | |
| AA1-15 | 2026-08-31 01:25:56 | 50.77221 | 9.81481 | 332° | 15km/h | 21795m | 1.7m/s | -54.2°C | 0.6% | 44.2hPa | 2.5V | 02:22:39 | 02:53:08 | 00:00:00 | |
| DM0DOS-11 | 2026-08-31 01:25:55 | 50.77211 | 9.81493 | 322° | 13km/h | 21785m | 2.7m/s | -54.2°C | 3.9% | 44.3hPa | 2.5V | 02:22:08 | 02:53:04 | 00:00:00 | |
| DF8AY | 2026-08-31 01:25:55 | 50.77218 | 9.81484 | 327° | 13km/h | 21793m | 2m/s | -54.2°C | 0.6% | 44.3hPa | 2.5V | 02:22:39 | 02:53:07 | 00:00:00 | |
| BIOWL1-15 | 2026-08-31 01:25:52 | 50.77211 | 9.81493 | 323° | 13km/h | 21786m | 2.7m/s | -54.3°C | 0.6% | 44.3hPa | 2.5V | 02:22:39 | 02:53:04 | 00:00:00 | |
| DL3AQ-11 | 2026-08-31 01:25:52 | 50.77208 | 9.81496 | 326° | 13km/h | 21783m | 2.4m/s | -54.3°C | 1.1% | 44.3hPa | 2.5V | 00:00:00 | 00:00:00 | 00:00:00 | |
| DL1XH-15 | 2026-08-31 01:25:51 | 50.77192 | 9.81505 | 346° | 20km/h | 21776m | 2m/s | -54.3°C | 3.9% | 44.4hPa | 2.5V | 02:22:13 | 02:52:59 | 00:00:00 | |
| DL1XH-west | 2026-08-31 01:25:51 | 50.77208 | 9.81496 | 327° | 13km/h | 21783m | 2.4m/s | -54.3°C | 0.6% | 44.3hPa | 2.5V | 02:22:39 | 02:53:03 | 00:00:00 | |
| DK5PH-5 | 2026-08-31 01:25:51 | 50.77208 | 9.81496 | 327° | 16km/h | 21783m | 2.4m/s | -54.2°C | 3.9% | 44.3hPa | 2.5V | 00:00:00 | 02:53:03 | 00:00:00 | |
| DO3MHA-11 | 2026-08-31 01:25:50 | 50.77205 | 9.81499 | 334° | 18km/h | 21781m | 1.9m/s | -54.2°C | 3.9% | 44.3hPa | 2.5V | 00:00:00 | 02:53:02 | 00:00:00 | |
| BIOWL7-15 | 2026-08-31 01:25:47 | 50.77197 | 9.81503 | 345° | 18km/h | 21778m | 1.6m/s | -54.3°C | 1.1% | 44.4hPa | 2.5V | 00:00:00 | 00:00:00 | 00:00:00 | |
| DL1XH1-15 | 2026-08-31 01:25:46 | 50.77182 | 9.81509 | 346° | 22km/h | 21771m | 2.5m/s | -54.3°C | 3.9% | 44.4hPa | 2.5V | 02:22:15 | 02:52:57 | 00:00:00 | |
| AA1-15 | 2026-08-31 01:25:46 | 50.77187 | 9.81507 | 347° | 22km/h | 21773m | 2.4m/s | -54.3°C | 0.6% | 44.4hPa | 2.5V | 02:22:39 | 02:52:58 | 00:00:00 | |
| BUE01 | 2026-08-31 01:25:46 | 50.77182 | 9.81509 | 346° | 22km/h | 21771m | 2.5m/s | -54.3°C | 1.1% | 44.4hPa | 2.5V | 00:00:00 | 00:00:00 | 00:00:00 | |
| DM0DOS-11 | 2026-08-31 01:25:45 | 50.77167 | 9.81517 | 338° | 18km/h | 21765m | 1.3m/s | -54.3°C | 3.9% | 44.5hPa | 2.5V | 02:22:18 | 02:52:54 | 00:00:00 | |
| DF8AY | 2026-08-31 01:25:44 | 50.77176 | 9.81512 | 345° | 22km/h | 21769m | 2.1m/s | -54.3°C | 0.6% | 44.4hPa | 2.6V | 02:22:39 | 02:52:56 | 00:00:00 | |
| HSKMA3-T | 2026-08-31 01:25:41 | 50.77163 | 9.81519 | 334° | 16km/h | 21764m | 1.5m/s | -54.3°C | 0.6% | 44.5hPa | 2.5V | 02:22:39 | 02:52:53 | 00:00:00 | |
| DL1XH-west | 2026-08-31 01:25:40 | 50.77159 | 9.81522 | 333° | 15km/h | 21762m | 2m/s | -54.3°C | 0.5% | 44.5hPa | 2.5V | 02:22:39 | 02:52:52 | 00:00:00 | |
| DF8AY | 2026-08-31 01:25:38 | 50.77135 | 9.81535 | 354° | 18km/h | 21746m | 1.6m/s | -54.3°C | 0.6% | 44.6hPa | 2.5V | 02:22:39 | 02:52:45 | 00:00:00 | |
| DB0UT-7 | 2026-08-31 01:25:38 | 50.77153 | 9.81527 | 334° | 18km/h | 21758m | 2.9m/s | -54.2°C | 3.9% | 44.5hPa | 2.5V | 00:00:00 | 02:52:50 | 00:00:00 | |
| DL1XH1-15 | 2026-08-31 01:25:36 | 50.77143 | 9.81533 | 347° | 15km/h | 21750m | 2m/s | -54.3°C | 3.9% | 44.5hPa | 2.5V | 02:22:25 | 02:52:47 | 00:00:00 | |
| DL8DAS-14 | 2026-08-31 01:25:36 | 50.77143 | 9.81533 | 347° | 15km/h | 21750m | 2.0m/s | -54.3°C | 1.1% | 44.5hPa | 2.5V | 00:00:00 | 00:00:00 | 00:00:00 | |
| DM0DOS-11 | 2026-08-31 01:25:35 | 50.77130 | 9.81536 | 354° | 20km/h | 21744m | 2.2m/s | -54.3°C | 3.9% | 44.6hPa | 2.5V | 02:22:28 | 02:52:44 | 00:00:00 | |
| AA1-15 | 2026-08-31 01:25:35 | 50.77143 | 9.81533 | 347° | 15km/h | 21750m | 2m/s | -54.3°C | 0.6% | 44.5hPa | 2.5V | 02:22:39 | 02:52:47 | 00:00:00 | |
| HSKMA3-T | 2026-08-31 01:25:31 | 50.77125 | 9.81537 | 354° | 20km/h | 21742m | 2.7m/s | -54.4°C | 0.6% | 44.6hPa | 2.5V | 02:22:39 | 02:52:43 | 00:00:00 | |
| BIOWL1-15 | 2026-08-31 01:25:30 | 50.77111 | 9.81540 | 345° | 18km/h | 21734m | 2.1m/s | -54.4°C | 0.7% | 44.7hPa | 2.5V | 02:22:39 | 02:52:40 | 00:00:00 | |
| DL1XH-west | 2026-08-31 01:25:29 | 50.77115 | 9.81539 | 349° | 18km/h | 21736m | 2.6m/s | -54.4°C | 0.7% | 44.6hPa | 2.5V | 02:22:39 | 02:52:41 | 00:00:00 | |
| NBG1-10 | 2026-08-31 01:25:28 | 50.77110 | 9.81540 | 345° | 16km/h | 21734m | 2.1m/s | -54.3°C | 4.0% | 44.6hPa | 2.5V | 02:22:00 | 02:52:40 | 00:00:00 | |
| DF5WG-10 | 2026-08-31 01:25:27 | 50.77106 | 9.81542 | 343° | 16km/h | 21732m | 1.7m/s | -54.3°C | 4.0% | 44.6hPa | 2.5V | 02:22:00 | 02:52:39 | 00:00:00 | |
| GOEST3-10 | 2026-08-31 01:25:26 | 50.77102 | 9.81545 | 340° | 15km/h | 21731m | 1.4m/s | -54.3°C | 4.0% | 44.7hPa | 2.5V | 02:22:00 | 02:52:38 | 00:00:00 | |
| DM0DOS-11 | 2026-08-31 01:25:25 | 50.77088 | 9.81552 | 349° | 15km/h | 21721m | 3m/s | -54.4°C | 4% | 44.8hPa | 2.5V | 02:22:38 | 02:52:34 | 00:00:00 | |
| AA1-15 | 2026-08-31 01:25:24 | 50.77095 | 9.81549 | 341° | 15km/h | 21727m | 2.4m/s | -54.4°C | 0.7% | 44.7hPa | 2.6V | 02:22:39 | 02:52:36 | 00:00:00 | |
| DF8AY | 2026-08-31 01:25:22 | 50.77088 | 9.81552 | 350° | 15km/h | 21721m | 3m/s | -54.4°C | 0.7% | 44.8hPa | 2.5V | 02:22:39 | 02:52:34 | 00:00:00 | |
| DL1XH-15 | 2026-08-31 01:25:21 | 50.77066 | 9.81553 | 0° | 20km/h | 21710m | 1.9m/s | -54.3°C | 4% | 44.8hPa | 2.6V | 02:22:43 | 02:52:29 | 00:00:00 | |
| HSKMA3-T | 2026-08-31 01:25:21 | 50.77084 | 9.81552 | 355° | 15km/h | 21718m | 2.6m/s | -54.4°C | 0.7% | 44.8hPa | 2.5V | 02:22:39 | 02:52:33 | 00:00:00 | |
| DL1XH-west | 2026-08-31 01:25:19 | 50.77076 | 9.81553 | 0° | 18km/h | 21714m | 1.9m/s | -54.4°C | 0.7% | 44.8hPa | 2.5V | 02:23:30 | 02:52:31 | 00:00:00 | |
| BIOWL1-15 | 2026-08-31 01:25:18 | 50.77071 | 9.81553 | 1° | 18km/h | 21712m | 1.7m/s | -54.3°C | 0.6% | 44.8hPa | 2.5V | 02:23:30 | 02:52:30 | 00:00:00 | |
| DL1XH1-15 | 2026-08-31 01:25:16 | 50.77056 | 9.81553 | 356° | 22km/h | 21705m | 2.8m/s | -54.3°C | 4% | 44.9hPa | 2.4V | 02:22:45 | 02:52:27 | 00:00:00 | |
| AA1-15 | 2026-08-31 01:25:13 | 50.77045 | 9.81555 | 349° | 20km/h | 21700m | 2.3m/s | -54.3°C | 0.7% | 44.9hPa | 2.5V | 02:23:30 | 02:52:25 | 00:00:00 | |
| DF8AY | 2026-08-31 01:25:12 | 50.77040 | 9.81556 | 346° | 20km/h | 21698m | 1.8m/s | -54.3°C | 0.6% | 44.9hPa | 2.5V | 02:23:30 | 02:52:24 | 00:00:00 | |
| HSKMA3-T | 2026-08-31 01:25:10 | 50.77031 | 9.81560 | 344° | 18km/h | 21695m | 1.7m/s | -54.3°C | 0.6% | 44.9hPa | 2.6V | 02:23:30 | 02:52:22 | 00:00:00 | |
| BIOWL1-15 | 2026-08-31 01:25:08 | 50.77023 | 9.81564 | 348° | 16km/h | 21691m | 2.7m/s | -54.3°C | 0.6% | 45hPa | 2.5V | 02:23:30 | 02:52:20 | 00:00:00 | |
| DB0UT-7 | 2026-08-31 01:25:08 | 50.77023 | 9.81564 | 349° | 13km/h | 21691m | 2.6m/s | -54.3°C | 3.9% | 44.9hPa | 2.5V | 02:22:00 | 00:00:00 | 00:00:00 | |
| DL1XH1-15 | 2026-08-31 01:25:06 | 50.77010 | 9.81566 | 359° | 16km/h | 21683m | 2.2m/s | -54.3°C | 3.9% | 45hPa | 2.5V | 02:22:55 | 02:52:17 | 00:00:00 | |
| AA1-15 | 2026-08-31 01:25:03 | 50.77002 | 9.81566 | 1° | 18km/h | 21679m | 1.7m/s | -54.3°C | 0.6% | 45.1hPa | 2.5V | 02:23:30 | 02:52:15 | 00:00:00 | |
| DF8AY | 2026-08-31 01:25:01 | 50.76993 | 9.81566 | 358° | 16km/h | 21676m | 2.4m/s | -54.3°C | 0.6% | 45.1hPa | 2.5V | 02:23:30 | 02:52:13 | 00:00:00 | |
| HSKMA3-T | 2026-08-31 01:24:59 | 50.76985 | 9.81567 | 353° | 15km/h | 21670m | 2.8m/s | -54.3°C | 0.5% | 45.1hPa | 2.5V | 02:23:30 | 02:52:11 | 00:00:00 | |
| BIOWL1-15 | 2026-08-31 01:24:58 | 50.76981 | 9.81568 | 350° | 15km/h | 21668m | 2.3m/s | -54.3°C | 0.6% | 45.1hPa | 2.5V | 02:23:30 | 02:52:10 | 00:00:00 | |
| DL1XH-west | 2026-08-31 01:24:57 | 50.76977 | 9.81569 | 348° | 13km/h | 21665m | 1.9m/s | -54.3°C | 0.6% | 45.1hPa | 2.6V | 02:23:30 | 02:52:09 | 00:00:00 | |
| DF8AY | 2026-08-31 01:24:56 | 50.76957 | 9.81574 | 354° | 15km/h | 21652m | 2.5m/s | -54.2°C | 0.5% | 45.2hPa | 2.5V | 02:23:30 | 02:52:03 | 00:00:00 | |
| AA1-15 | 2026-08-31 01:24:52 | 50.76961 | 9.81573 | 354° | 15km/h | 21655m | 2.8m/s | -54.2°C | 0.6% | 45.2hPa | 2.5V | 02:23:30 | 02:52:04 | 00:00:00 | |
| DL1XH-15 | 2026-08-31 01:24:52 | 50.76945 | 9.81578 | 337° | 11km/h | 21644m | 2m/s | -54.2°C | 3.9% | 45.3hPa | 2.5V | 02:23:13 | 02:51:59 | 00:00:00 | |
| BIOWL1-15 | 2026-08-31 01:24:49 | 50.76945 | 9.81578 | 338° | 11km/h | 21644m | 2m/s | -54.2°C | 0.5% | 45.3hPa | 2.5V | 02:23:30 | 02:51:59 | 00:00:00 | |
| HSKMA3-T | 2026-08-31 01:24:48 | 50.76947 | 9.81577 | 345° | 13km/h | 21646m | 1.7m/s | -54.2°C | 0.6% | 45.3hPa | 2.5V | 02:23:30 | 02:52:00 | 00:00:00 | |
| DL1XH1-15 | 2026-08-31 01:24:46 | 50.76940 | 9.81582 | 321° | 9km/h | 21639m | 2.9m/s | -54.2°C | 3.9% | 45.4hPa | 2.5V | 02:23:15 | 02:51:57 | 00:00:00 | |
| DL1XH-west | 2026-08-31 01:24:46 | 50.76942 | 9.81580 | 329° | 11km/h | 21642m | 2.6m/s | -54.2°C | 0.5% | 45.3hPa | 2.5V | 02:23:30 | 02:51:58 | 00:00:00 | |
| AA1-15 | 2026-08-31 01:24:42 | 50.76934 | 9.81590 | 322° | 11km/h | 21632m | 1.9m/s | -54.2°C | 0.6% | 45.4hPa | 2.5V | 02:23:30 | 02:51:54 | 00:00:00 | |
| DL1XH-15 | 2026-08-31 01:24:42 | 50.76920 | 9.81601 | 341° | 15km/h | 21621m | 2.8m/s | -54.2°C | 3.9% | 45.5hPa | 2.6V | 02:23:23 | 02:51:49 | 00:00:00 | |
| DF8AY | 2026-08-31 01:24:40 | 50.76929 | 9.81595 | 333° | 13km/h | 21629m | 1.9m/s | -54.2°C | 0.5% | 45.4hPa | 2.5V | 02:23:30 | 02:51:52 | 00:00:00 | |
| HSKMA3-T | 2026-08-31 01:24:37 | 50.76919 | 9.81601 | 341° | 15km/h | 21621m | 2.8m/s | -54.2°C | 0.6% | 45.5hPa | 2.6V | 02:23:30 | 02:51:49 | 00:00:00 | |
| BIOWL1-15 | 2026-08-31 01:24:37 | 50.76909 | 9.81607 | 330° | 13km/h | 21614m | 1.7m/s | -54.1°C | 0.6% | 45.5hPa | 2.5V | 02:23:30 | 02:51:46 | 00:00:00 | |
| DL1XH-west | 2026-08-31 01:24:35 | 50.76912 | 9.81605 | 337° | 15km/h | 21616m | 2.1m/s | -54.1°C | 0.6% | 45.5hPa | 2.5V | 02:23:30 | 02:51:47 | 00:00:00 | |
| DB0UT-7 | 2026-08-31 01:24:34 | 50.76909 | 9.81607 | 331° | 15km/h | 21615m | 1.7m/s | -54.1°C | 3.9% | 45.5hPa | 2.5V | 00:00:00 | 02:51:46 | 00:00:00 | |
| DL4BBY-15 | 2026-08-31 01:24:33 | 50.76906 | 9.81610 | 322° | 15km/h | 21613m | 1.7m/s | -55.1°C | 0% | 0hPa | 2.5V | 00:00:00 | 00:00:00 | 00:00:00 | |
| DL1XH-15 | 2026-08-31 01:24:32 | 50.76896 | 9.81634 | 308° | 13km/h | 21598m | 1.8m/s | -54.1°C | 3.8% | 45.6hPa | 2.5V | 02:23:33 | 02:51:39 | 00:00:00 | |
| AA1-15 | 2026-08-31 01:24:31 | 50.76902 | 9.81617 | 305° | 13km/h | 21608m | 2.8m/s | -54.1°C | 0.6% | 45.6hPa | 2.5V | 02:23:30 | 02:51:43 | 00:00:00 | |
| DF8AY | 2026-08-31 01:24:29 | 50.76899 | 9.81626 | 300° | 13km/h | 21602m | 2.7m/s | -54.1°C | 0.6% | 45.6hPa | 2.5V | 02:24:21 | 02:51:41 | 00:00:00 | |
| HSKMA3-T | 2026-08-31 01:24:27 | 50.76896 | 9.81634 | 308° | 13km/h | 21598m | 1.8m/s | -54.1°C | 0.5% | 45.6hPa | 2.5V | 02:24:21 | 02:51:39 | 00:00:00 | |
| BIOWL1-15 | 2026-08-31 01:24:26 | 50.76885 | 9.81648 | 326° | 15km/h | 21589m | 3.1m/s | -54.1°C | 0.6% | 45.7hPa | 2.5V | 02:24:21 | 02:51:35 | 00:00:00 | |
| DL1XH-west | 2026-08-31 01:24:25 | 50.76891 | 9.81641 | 320° | 13km/h | 21594m | 2.2m/s | -54.1°C | 0.5% | 45.7hPa | 2.5V | 02:24:21 | 02:51:37 | 00:00:00 | |
| GOEST3-10 | 2026-08-31 01:24:25 | 50.76891 | 9.81641 | 320° | 15km/h | 21594m | 2.1m/s | -54.0°C | 3.8% | 45.6hPa | 2.5V | 02:23:00 | 02:51:37 | 00:00:00 | |
| DJ2DS-15 | 2026-08-31 01:24:24 | 50.76888 | 9.81644 | 324° | 13km/h | 21592m | 2.9m/s | -54.1°C | 1.0% | 45.7hPa | 2.6V | 00:00:00 | 00:00:00 | 00:00:00 | |
| DO9LL-15 | 2026-08-31 01:24:23 | 50.76885 | 9.81647 | 326° | 15km/h | 21589m | 3.0m/s | -54.0°C | 3.8% | 45.6hPa | 2.6V | 00:00:00 | 02:51:35 | 00:00:00 | |
| DL1XH-15 | 2026-08-31 01:24:22 | 50.76871 | 9.81673 | 289° | 15km/h | 21575m | 2.1m/s | -54°C | 3.9% | 45.8hPa | 2.6V | 02:23:43 | 02:51:29 | 00:00:00 | |
| AA1-15 | 2026-08-31 01:24:20 | 50.76876 | 9.81658 | 316° | 15km/h | 21581m | 2.1m/s | -54°C | 0.6% | 45.8hPa | 2.5V | 02:24:21 | 02:51:32 | 00:00:00 | |
| DF8AY | 2026-08-31 01:24:18 | 50.76872 | 9.81667 | 296° | 15km/h | 21577m | 1.7m/s | -54°C | 0.5% | 45.8hPa | 2.5V | 02:24:21 | 02:51:30 | 00:00:00 | |
| HSKMA3-T | 2026-08-31 01:24:17 | 50.76871 | 9.81673 | 289° | 15km/h | 21575m | 2.1m/s | -54°C | 0.6% | 45.8hPa | 2.6V | 02:24:21 | 02:51:29 | 00:00:00 | |
| DL1XH1-15 | 2026-08-31 01:24:16 | 50.76869 | 9.81685 | 280° | 16km/h | 21570m | 2.9m/s | -54°C | 3.9% | 45.8hPa | 2.4V | 02:23:45 | 02:51:27 | 00:00:00 | |
| DB0NH | 2026-08-31 01:24:16 | 50.76870 | 9.81678 | 284° | 15km/h | 21573m | 2.7m/s | -54.0°C | 3.9% | 45.8hPa | 2.5V | 00:00:00 | 02:51:28 | 00:00:00 | |
| DM0DOS-11 | 2026-08-31 01:24:15 | 50.76866 | 9.81703 | 290° | 15km/h | 21563m | 1.7m/s | -54°C | 3.8% | 45.9hPa | 2.5V | 02:23:48 | 02:51:24 | 00:00:00 | |
| DL1XH-west | 2026-08-31 01:24:15 | 50.76869 | 9.81685 | 281° | 16km/h | 21570m | 2.9m/s | -54°C | 0.6% | 45.8hPa | 2.4V | 02:24:21 | 02:51:27 | 00:00:00 | |
| BIOWL1-15 | 2026-08-31 01:24:14 | 50.76868 | 9.81691 | 282° | 16km/h | 21567m | 2.6m/s | -54°C | 0.6% | 45.8hPa | 2.5V | 02:24:21 | 02:51:26 | 00:00:00 | |
| BUE01 | 2026-08-31 01:24:13 | 50.76866 | 9.81703 | 290° | 13km/h | 21563m | 1.7m/s | -54.0°C | 1.0% | 45.9hPa | 2.5V | 00:00:00 | 00:00:00 | 00:00:00 | |
| DL1XH-15 | 2026-08-31 01:24:12 | 50.76856 | 9.81726 | 309° | 13km/h | 21552m | 2.8m/s | -54.1°C | 3.8% | 46hPa | 2.5V | 02:23:53 | 02:51:19 | 00:00:00 | |
| AA1-15 | 2026-08-31 01:24:10 | 50.76863 | 9.81713 | 304° | 15km/h | 21560m | 1.8m/s | -54°C | 0.5% | 45.9hPa | 2.6V | 02:24:21 | 02:51:22 | 00:00:00 | |
| DF8AY | 2026-08-31 01:24:08 | 50.76858 | 9.81721 | 311° | 15km/h | 21555m | 2.9m/s | -54.1°C | 0.5% | 45.9hPa | 2.5V | 02:24:21 | 02:51:20 | 00:00:00 | |
| HSKMA3-T | 2026-08-31 01:24:07 | 50.76856 | 9.81726 | 310° | 13km/h | 21552m | 2.8m/s | -54.1°C | 0.5% | 46hPa | 2.5V | 02:24:21 | 02:51:19 | 00:00:00 | |
| DL1XH1-15 | 2026-08-31 01:24:06 | 50.76852 | 9.81734 | 302° | 13km/h | 21548m | 1.7m/s | -54.1°C | 3.8% | 46hPa | 2.5V | 02:23:55 | 02:51:17 | 00:00:00 | |
| BIOWL1-15 | 2026-08-31 01:24:04 | 50.76850 | 9.81739 | 298° | 13km/h | 21547m | 1.3m/s | -54.1°C | 0.5% | 46hPa | 2.5V | 02:24:21 | 02:51:16 | 00:00:00 | |
| AA1-15 | 2026-08-31 01:23:59 | 50.76845 | 9.81765 | 282° | 13km/h | 21535m | 2.5m/s | -54.2°C | 0.6% | 46.1hPa | 2.5V | 02:24:21 | 02:51:11 | 00:00:00 | |
| DF8AY | 2026-08-31 01:23:58 | 50.76844 | 9.81770 | 283° | 13km/h | 21533m | 2m/s | -54.2°C | 0.6% | 46.1hPa | 2.5V | 02:24:21 | 02:51:10 | 00:00:00 | |
| DB0ND-19 | 2026-08-31 01:23:57 | 50.76844 | 9.81775 | 283° | 11km/h | 21531m | 1.6m/s | -54.2°C | 1.1% | 46.1hPa | 2.5V | 00:00:00 | 00:00:00 | 00:00:00 | |
| DL1XH1-15 | 2026-08-31 01:23:56 | 50.76842 | 9.81784 | 285° | 13km/h | 21527m | 2.3m/s | -54.2°C | 3.9% | 46.1hPa | 2.5V | 02:24:05 | 02:51:07 | 00:00:00 | |
| HSKMA3-T | 2026-08-31 01:23:56 | 50.76843 | 9.81780 | 284° | 13km/h | 21530m | 1.6m/s | -54.2°C | 0.6% | 46.1hPa | 2.5V | 02:24:21 | 02:51:08 | 00:00:00 | |
| DL1XH-west | 2026-08-31 01:23:53 | 50.76841 | 9.81794 | 286° | 13km/h | 21522m | 3.1m/s | -54.2°C | 0.6% | 46.2hPa | 2.5V | 02:24:21 | 02:51:05 | 00:00:00 | |
| AA1-15 | 2026-08-31 01:23:48 | 50.76836 | 9.81824 | 278° | 18km/h | 21511m | 1.6m/s | -54.1°C | 0.6% | 46.2hPa | 2.5V | 02:24:21 | 02:51:00 | 00:00:00 | |
| DF8AY | 2026-08-31 01:23:47 | 50.76836 | 9.81832 | 276° | 18km/h | 21509m | 2.4m/s | -54.1°C | 0.7% | 46.3hPa | 2.5V | 02:24:21 | 02:50:59 | 00:00:00 | |
| DL1XH1-15 | 2026-08-31 01:23:46 | 50.76835 | 9.81847 | 273° | 18km/h | 21503m | 2.6m/s | -54.1°C | 3.9% | 46.3hPa | 2.5V | 02:24:15 | 02:50:57 | 00:00:00 | |
| DB0NH | 2026-08-31 01:23:46 | 50.76835 | 9.81839 | 276° | 15km/h | 21506m | 2.8m/s | -54.0°C | 3.9% | 46.2hPa | 2.5V | 02:24:00 | 02:50:58 | 00:00:00 | |
| DM0DOS-11 | 2026-08-31 01:23:45 | 50.76834 | 9.81866 | 272° | 15km/h | 21498m | 1.6m/s | -54°C | 3.9% | 46.3hPa | 2.5V | 02:24:18 | 02:50:54 | 00:00:00 | |
| HSKMA3-T | 2026-08-31 01:23:45 | 50.76835 | 9.81847 | 274° | 18km/h | 21503m | 2.6m/s | -54.1°C | 0.6% | 46.3hPa | 2.5V | 02:24:21 | 02:50:57 | 00:00:00 | |
| BIOWL1-15 | 2026-08-31 01:23:43 | 50.76835 | 9.81860 | 272° | 15km/h | 21499m | 1.6m/s | -54.1°C | 0.6% | 46.3hPa | 2.5V | 02:24:21 | 02:50:55 | 00:00:00 | |
| DL1XH-west | 2026-08-31 01:23:42 | 50.76834 | 9.81866 | 272° | 15km/h | 21498m | 1.6m/s | -54°C | 0.6% | 46.4hPa | 2.5V | 02:24:21 | 02:50:54 | 00:00:00 | |
| AA1-15 | 2026-08-31 01:23:37 | 50.76835 | 9.81892 | 264° | 15km/h | 21486m | 2.6m/s | -54°C | 0.6% | 46.5hPa | 2.5V | 02:25:12 | 02:50:49 | 00:00:00 | |
| DL1XH1-15 | 2026-08-31 01:23:36 | 50.76836 | 9.81903 | 262° | 16km/h | 21481m | 2m/s | -53.9°C | 3.8% | 46.5hPa | 2.5V | 02:24:25 | 02:50:47 | 00:00:00 | |
| DF8AY | 2026-08-31 01:23:36 | 50.76835 | 9.81897 | 263° | 15km/h | 21483m | 2.3m/s | -54°C | 0.5% | 46.5hPa | 2.5V | 02:25:12 | 02:50:48 | 00:00:00 | |
| DL3AQ-11 | 2026-08-31 01:23:36 | 50.76836 | 9.81903 | 262° | 15km/h | 21481m | 2.0m/s | -53.9°C | 1.1% | 46.5hPa | 2.5V | 00:00:00 | 00:00:00 | 00:00:00 | |
| DM0DOS-11 | 2026-08-31 01:23:35 | 50.76837 | 9.81922 | 262° | 15km/h | 21475m | 2.3m/s | -53.9°C | 3.8% | 46.5hPa | 2.5V | 02:24:28 | 02:50:44 | 00:00:00 | |
| HSKMA3-T | 2026-08-31 01:23:34 | 50.76836 | 9.81909 | 263° | 16km/h | 21479m | 1.6m/s | -53.9°C | 0.5% | 46.5hPa | 2.5V | 02:25:12 | 02:50:46 | 00:00:00 | |
| DL1XH-west | 2026-08-31 01:23:32 | 50.76837 | 9.81922 | 263° | 16km/h | 21475m | 2.3m/s | -53.9°C | 0.5% | 46.5hPa | 2.5V | 02:25:12 | 02:50:44 | 00:00:00 | |
| DF8AY | 2026-08-31 01:23:26 | 50.76839 | 9.81951 | 269° | 11km/h | 21463m | 2.1m/s | -53.9°C | 0.5% | 46.6hPa | 2.5V | 02:25:12 | 02:50:38 | 00:00:00 | |
| DM0DOS-11 | 2026-08-31 01:23:25 | 50.76839 | 9.81971 | 267° | 13km/h | 21452m | 2.4m/s | -53.8°C | 3.8% | 46.7hPa | 2.5V | 02:24:38 | 02:50:34 | 00:00:00 | |
| HSKMA3-T | 2026-08-31 01:23:23 | 50.76839 | 9.81966 | 267° | 13km/h | 21455m | 2.6m/s | -53.8°C | 0.6% | 46.7hPa | 2.6V | 02:25:12 | 02:50:35 | 00:00:00 | |
| DL1XH-west | 2026-08-31 01:23:22 | 50.76839 | 9.81971 | 267° | 13km/h | 21452m | 2.4m/s | -53.8°C | 0.5% | 46.7hPa | 2.5V | 02:25:12 | 02:50:34 | 00:00:00 | |
| DK5PH-5 | 2026-08-31 01:23:21 | 50.76839 | 9.81976 | 267° | 9km/h | 21451m | 2.0m/s | -53.8°C | 3.8% | 46.6hPa | 2.5V | 02:24:00 | 02:50:33 | 00:00:00 | |
| DO3MHA-11 | 2026-08-31 01:23:20 | 50.76840 | 9.81982 | 266° | 11km/h | 21448m | 1.9m/s | -53.8°C | 3.9% | 46.6hPa | 2.5V | 00:00:00 | 02:50:32 | 00:00:00 | |
| AM1SDL-15 | 2026-08-31 01:23:19 | 50.76840 | 9.81987 | 264° | 7km/h | 21447m | 1.8m/s | 0°C | 0% | 0hPa | 2.5V | 00:00:00 | 02:50:31 | 00:00:00 | |
| GOEST3-10 | 2026-08-31 01:23:18 | 50.76840 | 9.81992 | 263° | 11km/h | 21445m | 2.2m/s | -53.8°C | 3.8% | 46.7hPa | 2.5V | 00:00:00 | 00:00:00 | 00:00:00 | |
| DF5WG-10 | 2026-08-31 01:23:17 | 50.76841 | 9.81996 | 262° | 11km/h | 21442m | 2.2m/s | -53.8°C | 3.8% | 46.7hPa | 2.5V | 00:00:00 | 02:50:29 | 00:00:00 | |
| DB0NH | 2026-08-31 01:23:16 | 50.76841 | 9.82001 | 260° | 9km/h | 21440m | 2.3m/s | -53.7°C | 3.9% | 46.7hPa | 2.5V | 00:00:00 | 02:50:28 | 00:00:00 | |
| DM0DOS-11 | 2026-08-31 01:23:15 | 50.76842 | 9.82016 | 271° | 9km/h | 21432m | 1.9m/s | -53.8°C | 3.8% | 46.8hPa | 2.5V | 02:24:48 | 02:50:24 | 00:00:00 | |
| AA1-15 | 2026-08-31 01:23:15 | 50.76842 | 9.82004 | 262° | 9km/h | 21437m | 2.1m/s | -53.8°C | 0.6% | 46.8hPa | 2.5V | 02:25:12 | 02:50:27 | 00:00:00 | |
| HSKMA3-T | 2026-08-31 01:23:12 | 50.76842 | 9.82016 | 271° | 9km/h | 21432m | 1.9m/s | -53.8°C | 0.5% | 46.8hPa | 2.5V | 02:25:12 | 02:50:24 | 00:00:00 | |
| BIOWL1-15 | 2026-08-31 01:23:11 | 50.76842 | 9.82024 | 279° | 11km/h | 21428m | 2.3m/s | -53.8°C | 0.5% | 46.8hPa | 2.6V | 02:25:12 | 02:50:22 | 00:00:00 | |
| DL1XH-west | 2026-08-31 01:23:11 | 50.76842 | 9.82020 | 275° | 11km/h | 21430m | 2.2m/s | -53.8°C | 0.5% | 46.8hPa | 2.5V | 02:25:12 | 02:50:23 | 00:00:00 | |
| BUE01 | 2026-08-31 01:23:11 | 50.76842 | 9.82024 | 278° | 11km/h | 21428m | 2.3m/s | -53.8°C | 1.1% | 46.8hPa | 2.6V | 00:00:00 | 00:00:00 | 00:00:00 | |
| DO3MHA-11 | 2026-08-31 01:23:10 | 50.76842 | 9.82024 | 279° | 9km/h | 21428m | 2.2m/s | -53.7°C | 0% | 46.8hPa | 2.6V | 02:24:00 | 02:50:22 | 00:00:00 | |
| DJ2KF-10 | 2026-08-31 01:23:09 | 50.76841 | 9.82028 | 280° | 9km/h | 21426m | 2.5m/s | -53.7°C | 3.8% | 46.8hPa | 2.5V | 02:24:00 | 02:50:21 | 00:00:00 | |
| GOEST3-10 | 2026-08-31 01:23:08 | 50.76841 | 9.82033 | 280° | 9km/h | 21423m | 2.4m/s | -53.7°C | 3.7% | 46.8hPa | 2.5V | 00:00:00 | 00:00:00 | 00:00:00 | |
| DJTTGO | 2026-08-31 01:23:07 | 50.76841 | 9.82033 | 280° | 11km/h | 21423m | 2.5m/s | -53.8°C | 1.0% | 46.9hPa | 2.5V | 00:00:00 | 00:00:00 | 00:00:00 | |
| DL1XH1-15 | 2026-08-31 01:23:06 | 50.76840 | 9.82045 | 273° | 9km/h | 21417m | 1.9m/s | -53.8°C | 3.8% | 47hPa | 2.5V | 02:24:55 | 02:50:17 | 00:00:00 | |
| DM0DOS-11 | 2026-08-31 01:23:05 | 50.76840 | 9.82053 | 253° | 5km/h | 21410m | 2.6m/s | -53.8°C | 3.8% | 47hPa | 2.5V | 02:24:58 | 02:50:14 | 00:00:00 | |
| DF8AY | 2026-08-31 01:23:05 | 50.76840 | 9.82045 | 273° | 9km/h | 21417m | 1.9m/s | -53.8°C | 0.5% | 47hPa | 2.5V | 02:25:12 | 02:50:17 | 00:00:00 | |
| AA1-15 | 2026-08-31 01:23:04 | 50.76840 | 9.82048 | 268° | 7km/h | 21415m | 2m/s | -53.8°C | 0.5% | 47hPa | 2.5V | 02:25:12 | 02:50:16 | 00:00:00 | |
| BIOWL1-15 | 2026-08-31 01:23:01 | 50.76841 | 9.82056 | 247° | 5km/h | 21408m | 2.5m/s | -53.9°C | 0.5% | 47hPa | 2.5V | 02:25:12 | 02:50:13 | 00:00:00 | |
| DL1XH-west | 2026-08-31 01:23:00 | 50.76841 | 9.82058 | 243° | 5km/h | 21405m | 2.2m/s | -53.9°C | 0.5% | 47hPa | 2.5V | 02:25:12 | 02:50:12 | 00:00:00 | |
| DO3MHA-11 | 2026-08-31 01:23:00 | 50.76841 | 9.82058 | 243° | 7km/h | 21405m | 2.1m/s | 0°C | 0% | 0hPa | 2.5V | 00:00:00 | 02:50:12 | 00:00:00 | |
| GOEST3-10 | 2026-08-31 01:22:58 | 50.76842 | 9.82062 | 249° | 7km/h | 21402m | 1.7m/s | -53.9°C | 3.8% | 47.0hPa | 2.5V | 02:25:00 | 00:00:00 | 00:00:00 | |
| DL1XH1-15 | 2026-08-31 01:22:56 | 50.76843 | 9.82070 | 266° | 7km/h | 21395m | 2.5m/s | -53.9°C | 3.9% | 47.1hPa | 2.5V | 02:25:05 | 02:50:07 | 00:00:00 | |
| DL3AQ-11 | 2026-08-31 01:22:56 | 50.76843 | 9.82070 | 266° | 7km/h | 21395m | 2.5m/s | -53.9°C | 1.1% | 47.1hPa | 2.5V | 00:00:00 | 00:00:00 | 00:00:00 | |
| DM0DOS-11 | 2026-08-31 01:22:55 | 50.76844 | 9.82079 | 254° | 7km/h | 21388m | 2m/s | -53.9°C | 3.8% | 47.2hPa | 2.5V | 02:25:08 | 02:50:04 | 00:00:00 | |
| DF8AY | 2026-08-31 01:22:55 | 50.76843 | 9.82070 | 267° | 7km/h | 21395m | 2.5m/s | -53.9°C | 0.6% | 47.1hPa | 2.5V | 02:25:12 | 02:50:07 | 00:00:00 | |
| AA1-15 | 2026-08-31 01:22:53 | 50.76844 | 9.82076 | 263° | 7km/h | 21390m | 2.4m/s | -53.9°C | 0.6% | 47.1hPa | 2.5V | 02:25:12 | 02:50:05 | 00:00:00 | |
| HSKMA3-T | 2026-08-31 01:22:51 | 50.76845 | 9.82082 | 246° | 9km/h | 21386m | 1.8m/s | -53.9°C | 0.6% | 47.1hPa | 2.5V | 02:25:12 | 02:50:03 | 00:00:00 | |
| DL1XH-west | 2026-08-31 01:22:49 | 50.76847 | 9.82088 | 226° | 9km/h | 21382m | 2m/s | -53.9°C | 0.6% | 47.2hPa | 2.5V | 02:25:12 | 02:50:01 | 00:00:00 | |
| DF7PN | 2026-08-31 01:22:48 | 50.76849 | 9.82090 | 219° | 9km/h | 21380m | 2.3m/s | -53.9°C | 1.1% | 47.2hPa | 2.5V | 00:00:00 | 00:00:00 | 00:00:00 | |
| DL1XH1-15 | 2026-08-31 01:22:46 | 50.76855 | 9.82098 | 219° | 11km/h | 21372m | 2.2m/s | -53.8°C | 3.9% | 47.3hPa | 2.5V | 02:25:15 | 02:49:57 | 00:00:00 | |
| DF8AY | 2026-08-31 01:22:45 | 50.76855 | 9.82098 | 219° | 11km/h | 21372m | 2.2m/s | -53.8°C | 0.6% | 47.3hPa | 2.5V | 02:26:03 | 02:49:57 | 00:00:00 | |
| AA1-15 | 2026-08-31 01:22:42 | 50.76861 | 9.82107 | 233° | 11km/h | 21367m | 1.9m/s | -53.8°C | 0.6% | 47.3hPa | 2.5V | 02:26:03 | 02:49:54 | 00:00:00 | |
| NBG1-10 | 2026-08-31 01:22:42 | 50.76860 | 9.82107 | 234° | 5km/h | 21367m | 1.8m/s | 0°C | 0% | 0hPa | 2.6V | 00:00:00 | 02:49:54 | 00:00:00 | |
| DL1XH-15 | 2026-08-31 01:22:41 | 50.76867 | 9.82126 | 246° | 7km/h | 21354m | 1.7m/s | -53.8°C | 3.8% | 47.4hPa | 2.6V | 02:25:24 | 02:49:48 | 00:00:00 | |
| HSKMA3-T | 2026-08-31 01:22:41 | 50.76862 | 9.82110 | 238° | 11km/h | 21365m | 2.2m/s | -53.8°C | 0.5% | 47.3hPa | 2.5V | 02:26:03 | 02:49:53 | 00:00:00 | |
| BIOWL1-15 | 2026-08-31 01:22:39 | 50.76865 | 9.82120 | 247° | 9km/h | 21358m | 2.2m/s | -53.8°C | 0.5% | 47.4hPa | 2.5V | 02:26:03 | 02:49:50 | 00:00:00 | |
| DL1XH-west | 2026-08-31 01:22:39 | 50.76864 | 9.82117 | 245° | 9km/h | 21360m | 2.4m/s | -53.8°C | 0.5% | 47.4hPa | 2.5V | 02:26:03 | 02:49:51 | 00:00:00 | |
| DF8AY | 2026-08-31 01:22:34 | 50.76868 | 9.82131 | 240° | 7km/h | 21350m | 2.1m/s | -53.7°C | 0.5% | 47.4hPa | 2.5V | 02:26:03 | 02:49:46 | 00:00:00 | |
| DB0UT-7 | 2026-08-31 01:22:34 | 50.76868 | 9.82131 | 240° | 4km/h | 21351m | 2.0m/s | -53.7°C | 3.8% | 47.4hPa | 2.5V | 00:00:00 | 02:49:46 | 00:00:00 | |
| DL4BBY-15 | 2026-08-31 01:22:33 | 50.76869 | 9.82133 | 236° | 4km/h | 21348m | 2.2m/s | -54.7°C | 0% | 0hPa | 2.5V | 00:00:00 | 00:00:00 | 00:00:00 | |
| BIOWL9-15 | 2026-08-31 01:22:32 | 50.76870 | 9.82135 | 231° | 5km/h | 21346m | 2.3m/s | -53.7°C | 1.0% | 47.5hPa | 2.5V | 00:00:00 | 00:00:00 | 00:00:00 | |
| DL1XH-15 | 2026-08-31 01:22:31 | 50.76873 | 9.82139 | 93° | 2km/h | 21334m | 2.2m/s | -53.7°C | 3.9% | 47.6hPa | 2.5V | 02:25:34 | 02:49:38 | 00:00:00 | |
| HSKMA3-T | 2026-08-31 01:22:31 | 50.76871 | 9.82137 | 229° | 5km/h | 21344m | 2.4m/s | -53.7°C | 0.5% | 47.5hPa | 2.5V | 02:26:03 | 02:49:43 | 00:00:00 | |
| BIOWL1-15 | 2026-08-31 01:22:31 | 50.76873 | 9.82139 | 147° | 2km/h | 21335m | 2m/s | -53.7°C | 0.5% | 47.6hPa | 2.5V | 02:26:03 | 02:49:39 | 00:00:00 | |
| DL1XH-west | 2026-08-31 01:22:28 | 50.76873 | 9.82139 | 196° | 2km/h | 21338m | 2m/s | -53.7°C | 0.6% | 47.5hPa | 2.5V | 02:26:03 | 02:49:40 | 00:00:00 | |
| DF8AY | 2026-08-31 01:22:24 | 50.76873 | 9.82137 | 96° | 2km/h | 21329m | 2.5m/s | -53.7°C | 0.6% | 47.6hPa | 2.5V | 02:26:03 | 02:49:36 | 00:00:00 | |
| DC4HF-4 | 2026-08-31 01:22:24 | 50.76873 | 9.82136 | 109° | 2km/h | 21327m | 2.2m/s | -53.7°C | 1.1% | 47.6hPa | 2.6V | 00:00:00 | 00:00:00 | 00:00:00 | |
| GOEST3-10 | 2026-08-31 01:22:23 | 50.76873 | 9.82136 | 110° | 4km/h | 21327m | 2.2m/s | -53.7°C | 3.8% | 47.6hPa | 2.6V | 02:25:00 | 00:00:00 | 00:00:00 | |
| SMARD9-10 | 2026-08-31 01:22:22 | 50.76873 | 9.82136 | 110° | 2km/h | 21327m | 2.2m/s | -53.7°C | 1.1% | 47.6hPa | 2.6V | 00:00:00 | 00:00:00 | 00:00:00 | |
| DL1XH-15 | 2026-08-31 01:22:21 | 50.76881 | 9.82132 | 175° | 7km/h | 21312m | 2.3m/s | -53.8°C | 3.8% | 47.7hPa | 2.6V | 02:25:44 | 02:49:28 | 00:00:00 | |
| HSKMA3-T | 2026-08-31 01:22:20 | 50.76875 | 9.82134 | 156° | 5km/h | 21321m | 1.7m/s | -53.8°C | 0.6% | 47.6hPa | 2.5V | 02:26:03 | 02:49:32 | 00:00:00 | |
| DF8AY | 2026-08-31 01:22:18 | 50.76886 | 9.82131 | 180° | 5km/h | 21306m | 1.8m/s | -53.9°C | 0.6% | 47.8hPa | 2.5V | 02:26:03 | 02:49:25 | 00:00:00 | |
| DL1XH-west | 2026-08-31 01:22:18 | 50.76878 | 9.82132 | 168° | 5km/h | 21317m | 2.4m/s | -53.8°C | 0.6% | 47.7hPa | 2.5V | 02:26:03 | 02:49:30 | 00:00:00 | |
| BIOWL1-15 | 2026-08-31 01:22:17 | 50.76879 | 9.82132 | 173° | 7km/h | 21314m | 2.5m/s | -53.8°C | 0.5% | 47.7hPa | 2.5V | 02:26:03 | 02:49:29 | 00:00:00 | |
| DL1XH1-15 | 2026-08-31 01:22:16 | 50.76883 | 9.82131 | 176° | 7km/h | 21310m | 2m/s | -53.8°C | 3.8% | 47.7hPa | 2.5V | 02:25:45 | 02:49:27 | 00:00:00 | |
| DB0NH | 2026-08-31 01:22:16 | 50.76881 | 9.82132 | 176° | 5km/h | 21312m | 2.3m/s | -53.8°C | 3.8% | 47.7hPa | 2.6V | 02:25:00 | 02:49:28 | 00:00:00 | |
| DO8TBO-1 | 2026-08-31 01:22:15 | 50.76883 | 9.82131 | 177° | 4km/h | 21310m | 2.0m/s | -53.8°C | 3.8% | 47.7hPa | 2.5V | 00:00:00 | 02:49:27 | 00:00:00 | |
| DF5WG-10 | 2026-08-31 01:22:14 | 50.76884 | 9.82131 | 178° | 4km/h | 21308m | 1.8m/s | 0°C | 0% | 0hPa | 2.5V | 00:00:00 | 02:49:26 | 00:00:00 | |
| DL1XH-15 | 2026-08-31 01:22:11 | 50.76889 | 9.82132 | 321° | 4km/h | 21292m | 1.7m/s | -53.9°C | 3.8% | 47.9hPa | 2.5V | 02:25:54 | 02:49:18 | 00:00:00 | |
| DL1XH1-15 | 2026-08-31 01:22:10 | 50.76889 | 9.82133 | 328° | 4km/h | 21291m | 1.6m/s | -53.9°C | 3.9% | 47.9hPa | 2.5V | 02:25:55 | 02:49:17 | 00:00:00 | |
| HSKMA3-T | 2026-08-31 01:22:10 | 50.76889 | 9.82131 | 174° | 4km/h | 21300m | 2.2m/s | -53.9°C | 0.5% | 47.8hPa | 2.5V | 02:26:03 | 02:49:22 | 00:00:00 | |
| AA1-15 | 2026-08-31 01:22:09 | 50.76890 | 9.82131 | 181° | 2km/h | 21298m | 2.3m/s | -53.9°C | 0.6% | 47.8hPa | 2.6V | 02:26:03 | 02:49:21 | 00:00:00 | |
| BIOWL1-15 | 2026-08-31 01:22:07 | 50.76890 | 9.82131 | 311° | 2km/h | 21294m | 2m/s | -53.9°C | 0.6% | 47.9hPa | 2.5V | 02:26:03 | 02:49:19 | 00:00:00 | |
| DF8AY | 2026-08-31 01:22:03 | 50.76886 | 9.82134 | 8° | 4km/h | 21284m | 2.4m/s | -53.9°C | 0.6% | 47.9hPa | 2.5V | 02:26:03 | 02:49:14 | 00:00:00 | |
| HSKMA3-T | 2026-08-31 01:21:59 | 50.76883 | 9.82129 | 73° | 7km/h | 21278m | 1.8m/s | -53.8°C | 0.5% | 48hPa | 2.5V | 02:26:03 | 02:49:11 | 00:00:00 | |
| AA1-15 | 2026-08-31 01:21:58 | 50.76883 | 9.82126 | 82° | 9km/h | 21276m | 1.8m/s | -53.8°C | 0.5% | 48hPa | 2.5V | 02:26:03 | 02:49:10 | 00:00:00 | |
| DL1XH1-15 | 2026-08-31 01:21:58 | 50.76882 | 9.82115 | 91° | 7km/h | 21270m | 2.2m/s | -53.8°C | 3.8% | 48hPa | 2.5V | 02:26:05 | 02:49:07 | 00:00:00 | |
| BIOWL1-15 | 2026-08-31 01:21:57 | 50.76882 | 9.82122 | 86° | 9km/h | 21274m | 1.9m/s | -53.8°C | 0.6% | 48hPa | 2.5V | 02:26:03 | 02:49:09 | 00:00:00 | |
| DL1XH-west | 2026-08-31 01:21:56 | 50.76882 | 9.82119 | 89° | 9km/h | 21272m | 2.1m/s | -53.8°C | 0.6% | 48hPa | 2.6V | 02:26:54 | 02:49:08 | 00:00:00 | |
| DF8AY | 2026-08-31 01:21:52 | 50.76883 | 9.82109 | 106° | 2km/h | 21264m | 1.8m/s | -53.8°C | 0.6% | 48.1hPa | 2.5V | 02:26:54 | 02:49:04 | 00:00:00 | |
| DL3AQ-11 | 2026-08-31 01:21:52 | 50.76883 | 9.82108 | 137° | 0km/h | 21262m | 1.8m/s | -53.8°C | 1.1% | 48.1hPa | 2.5V | 00:00:00 | 00:00:00 | 00:00:00 | |
| DL1XH-15 | 2026-08-31 01:21:51 | 50.76882 | 9.82109 | 358° | 4km/h | 21253m | 2m/s | -53.9°C | 3.8% | 48.1hPa | 2.5V | 02:26:14 | 02:48:58 | 00:00:00 | |
| HSKMA3-T | 2026-08-31 01:21:48 | 50.76883 | 9.82108 | 313° | 2km/h | 21256m | 2m/s | -53.9°C | 0.5% | 48.1hPa | 2.5V | 02:26:54 | 02:49:00 | 00:00:00 | |
| AA1-15 | 2026-08-31 01:21:47 | 50.76882 | 9.82109 | 340° | 2km/h | 21255m | 1.9m/s | -53.9°C | 0.6% | 48.2hPa | 2.5V | 02:26:54 | 02:48:59 | 00:00:00 | |
| DB0NH | 2026-08-31 01:21:46 | 50.76882 | 9.82109 | 359° | 11km/h | 21253m | 2.0m/s | -53.8°C | 3.8% | 48.1hPa | 2.6V | 00:00:00 | 02:48:58 | 00:00:00 | |
| DM0DOS-11 | 2026-08-31 01:21:45 | 50.76875 | 9.82106 | 21° | 11km/h | 21245m | 1.8m/s | -53.9°C | 3.9% | 48.2hPa | 2.6V | 02:26:18 | 02:48:54 | 00:00:00 | |
| DL1XH-west | 2026-08-31 01:21:45 | 50.76881 | 9.82109 | 10° | 5km/h | 21251m | 2.1m/s | -53.9°C | 0.6% | 48.2hPa | 2.5V | 02:26:54 | 02:48:57 | 00:00:00 | |
| DJ2DS-15 | 2026-08-31 01:21:44 | 50.76879 | 9.82108 | 15° | 9km/h | 21249m | 1.7m/s | -53.9°C | 3.9% | 48.2hPa | 2.6V | 00:00:00 | 02:48:56 | 00:00:00 | |
| DL1XH-15 | 2026-08-31 01:21:41 | 50.76859 | 9.82090 | 51° | 13km/h | 21233m | 1.6m/s | -53.9°C | 3.9% | 48.3hPa | 2.6V | 02:26:24 | 02:48:48 | 00:00:00 | |
| DF8AY | 2026-08-31 01:21:41 | 50.76872 | 9.82104 | 23° | 11km/h | 21243m | 2.1m/s | -53.9°C | 0.6% | 48.2hPa | 2.5V | 02:26:54 | 02:48:53 | 00:00:00 | |
| DL1XH1-15 | 2026-08-31 01:21:40 | 50.76857 | 9.82087 | 56° | 11km/h | 21231m | 1.6m/s | -53.9°C | 3.9% | 48.3hPa | 2.5V | 02:26:25 | 02:48:47 | 00:00:00 | |
| HSKMA3-T | 2026-08-31 01:21:38 | 50.76864 | 9.82097 | 36° | 13km/h | 21237m | 2.2m/s | -53.9°C | 0.7% | 48.3hPa | 2.5V | 02:26:54 | 02:48:50 | 00:00:00 | |
| BIOWL1-15 | 2026-08-31 01:21:37 | 50.76861 | 9.82094 | 44° | 13km/h | 21235m | 1.9m/s | -53.9°C | 0.6% | 48.3hPa | 2.5V | 02:26:54 | 02:48:49 | 00:00:00 | |
| DL1XH-west | 2026-08-31 01:21:35 | 50.76858 | 9.82087 | 57° | 11km/h | 21231m | 1.6m/s | -53.9°C | 0.6% | 48.3hPa | 2.5V | 02:26:54 | 02:48:47 | 00:00:00 | |
| DB0UT-7 | 2026-08-31 01:21:34 | 50.76856 | 9.82083 | 64° | 11km/h | 21230m | 1.6m/s | -53.9°C | 3.9% | 48.3hPa | 2.5V | 00:00:00 | 02:48:46 | 00:00:00 | |
| DL4BBY-15 | 2026-08-31 01:21:33 | 50.76855 | 9.82079 | 68° | 11km/h | 21228m | 1.9m/s | -54.9°C | 0% | 0hPa | 2.5V | 00:00:00 | 00:00:00 | 00:00:00 | |
| DL1XH-15 | 2026-08-31 01:21:31 | 50.76850 | 9.82074 | 332° | 5km/h | 21215m | 1.9m/s | -53.9°C | 3.9% | 48.5hPa | 2.5V | 02:26:34 | 02:48:38 | 00:00:00 | |
| DF8AY | 2026-08-31 01:21:30 | 50.76853 | 9.82073 | 51° | 4km/h | 21222m | 1.9m/s | -53.9°C | 0.6% | 48.4hPa | 2.5V | 02:26:54 | 02:48:42 | 00:00:00 | |
| DL1XH1-15 | 2026-08-31 01:21:28 | 50.76848 | 9.82075 | 344° | 7km/h | 21213m | 2.3m/s | -53.9°C | 3.9% | 48.5hPa | 2.5V | 02:26:35 | 02:48:37 | 00:00:00 | |
| HSKMA3-T | 2026-08-31 01:21:28 | 50.76852 | 9.82072 | 334° | 4km/h | 21218m | 1.7m/s | -53.9°C | 0.6% | 48.4hPa | 2.5V | 02:26:54 | 02:48:40 | 00:00:00 | |
| BIOWL1-15 | 2026-08-31 01:21:26 | 50.76850 | 9.82074 | 333° | 5km/h | 21215m | 1.9m/s | -53.9°C | 0.6% | 48.5hPa | 2.5V | 02:26:54 | 02:48:38 | 00:00:00 | |
| DL1XH-west | 2026-08-31 01:21:24 | 50.76846 | 9.82076 | 353° | 11km/h | 21210m | 2.1m/s | -53.9°C | 0.7% | 48.5hPa | 2.5V | 02:26:54 | 02:48:36 | 00:00:00 | |
| DJ2DS-15 | 2026-08-31 01:21:24 | 50.76843 | 9.82076 | 3° | 11km/h | 21208m | 2.0m/s | -53.9°C | 1.1% | 48.5hPa | 2.5V | 00:00:00 | 00:00:00 | 00:00:00 | |
| DL3AQ-11 | 2026-08-31 01:21:23 | 50.76840 | 9.82075 | 10° | 13km/h | 21206m | 1.8m/s | -53.9°C | 1.1% | 48.5hPa | 2.5V | 00:00:00 | 00:00:00 | 00:00:00 | |
| SONDE2-11 | 2026-08-31 01:21:22 | 50.76840 | 9.82075 | 10° | 13km/h | 21206m | 1.8m/s | -53.9°C | 1.1% | 48.5hPa | 2.5V | 00:00:00 | 00:00:00 | 00:00:00 | |
| DL1XH-15 | 2026-08-31 01:21:21 | 50.76818 | 9.82058 | 44° | 15km/h | 21195m | 2.1m/s | -53.8°C | 3.9% | 48.6hPa | 2.5V | 02:26:44 | 02:48:28 | 00:00:00 | |
| DF8AY | 2026-08-31 01:21:19 | 50.76828 | 9.82069 | 27° | 18km/h | 21201m | 2m/s | -53.8°C | 0.7% | 48.5hPa | 2.5V | 02:26:54 | 02:48:31 | 00:00:00 | |
| HSKMA3-T | 2026-08-31 01:21:17 | 50.76821 | 9.82062 | 37° | 16km/h | 21197m | 2.2m/s | -53.8°C | 0.7% | 48.6hPa | 2.5V | 02:26:54 | 02:48:29 | 00:00:00 | |
| DL1XH1-15 | 2026-08-31 01:21:16 | 50.76815 | 9.82053 | 50° | 15km/h | 21193m | 1.9m/s | -53.8°C | 3.9% | 48.6hPa | 2.5V | 02:26:45 | 02:48:27 | 00:00:00 | |
| BIOWL1-15 | 2026-08-31 01:21:16 | 50.76818 | 9.82058 | 44° | 15km/h | 21195m | 2.1m/s | -53.8°C | 0.6% | 48.6hPa | 2.5V | 02:26:54 | 02:48:28 | 00:00:00 | |
| AA1-15 | 2026-08-31 01:21:15 | 50.76815 | 9.82053 | 50° | 15km/h | 21193m | 1.9m/s | -53.8°C | 0.6% | 48.6hPa | 2.5V | 02:26:54 | 02:48:27 | 00:00:00 | |
| DL1XH-west | 2026-08-31 01:21:14 | 50.76813 | 9.82049 | 57° | 13km/h | 21191m | 1.8m/s | -53.8°C | 0.7% | 48.6hPa | 2.4V | 02:26:54 | 02:48:26 | 00:00:00 | |
| DC4HF-4 | 2026-08-31 01:21:12 | 50.76809 | 9.82039 | 58° | 7km/h | 21185m | 2.2m/s | -53.8°C | 1.1% | 48.7hPa | 2.5V | 00:00:00 | 00:00:00 | 00:00:00 | |
| DL1XH-15 | 2026-08-31 01:21:11 | 50.76801 | 9.82036 | 345° | 11km/h | 21175m | 1.8m/s | -53.8°C | 3.8% | 48.7hPa | 2.5V | 02:26:54 | 02:48:18 | 00:00:00 | |
| DL1XH1-15 | 2026-08-31 01:21:10 | 50.76798 | 9.82037 | 346° | 13km/h | 21174m | 2.1m/s | -53.8°C | 3.8% | 48.7hPa | 2.5V | 02:26:55 | 02:48:17 | 00:00:00 | |
| DF8AY | 2026-08-31 01:21:09 | 50.76807 | 9.82035 | 25° | 5km/h | 21181m | 1.9m/s | -53.8°C | 0.6% | 48.7hPa | 2.5V | 02:26:54 | 02:48:21 | 00:00:00 | |
| HSKMA3-T | 2026-08-31 01:21:07 | 50.76804 | 9.82035 | 349° | 9km/h | 21177m | 1.8m/s | -53.8°C | 0.6% | 48.7hPa | 2.5V | 02:26:54 | 02:48:19 | 00:00:00 | |
| BIOWL1-15 | 2026-08-31 01:21:06 | 50.76801 | 9.82036 | 346° | 11km/h | 21176m | 1.8m/s | -53.8°C | 0.6% | 48.7hPa | 2.5V | 02:26:54 | 02:48:18 | 00:00:00 | |
| DM0DOS-11 | 2026-08-31 01:21:05 | 50.76786 | 9.82038 | 5° | 20km/h | 21167m | 2.1m/s | -53.8°C | 3.8% | 48.8hPa | 2.6V | 02:26:58 | 02:48:14 | 00:00:00 | |
| AA1-15 | 2026-08-31 01:21:04 | 50.76795 | 9.82038 | 351° | 16km/h | 21171m | 2m/s | -53.7°C | 0.6% | 48.8hPa | 2.5V | 02:27:45 | 02:48:16 | 00:00:00 | |
| DL1XH-west | 2026-08-31 01:21:03 | 50.76791 | 9.82039 | 358° | 18km/h | 21169m | 2.2m/s | -53.7°C | 0.6% | 48.8hPa | 2.5V | 02:27:45 | 02:48:15 | 00:00:00 | |
| DL4BBY-15 | 2026-08-31 01:21:03 | 50.76791 | 9.82038 | 358° | 16km/h | 21170m | 2.1m/s | -54.7°C | 0% | 0hPa | 2.5V | 00:00:00 | 00:00:00 | 00:00:00 | |
| DL6DJ-15 | 2026-08-31 01:21:02 | 50.76776 | 9.82034 | 22° | 20km/h | 21163m | 1.8m/s | 0°C | -1.0% | 48.8hPa | 2.5V | 00:00:00 | 00:00:00 | 00:00:00 | |
| DL1XH-15 | 2026-08-31 01:21:01 | 50.76760 | 9.82016 | 48° | 18km/h | 21156m | 2.1m/s | -53.8°C | 3.9% | 48.9hPa | 2.5V | 02:27:04 | 02:48:08 | 00:00:00 | |
| D01LWL | 2026-08-31 01:21:00 | 50.76771 | 9.82031 | 29° | 20km/h | 21162m | 1.7m/s | -53.8°C | 1.1% | 48.8hPa | 2.6V | 00:00:00 | 00:00:00 | 00:00:00 | |
| BIOWL9-15 | 2026-08-31 01:20:59 | 50.76771 | 9.82031 | 29° | 20km/h | 21162m | 1.7m/s | -53.8°C | 1.1% | 48.8hPa | 2.6V | 00:00:00 | 00:00:00 | 00:00:00 | |
| DL1XH1-15 | 2026-08-31 01:20:58 | 50.76757 | 9.82011 | 52° | 15km/h | 21153m | 2m/s | -53.8°C | 3.9% | 48.9hPa | 2.6V | 02:27:05 | 02:48:07 | 00:00:00 | |
| DF8AY | 2026-08-31 01:20:58 | 50.76767 | 9.82026 | 37° | 20km/h | 21160m | 1.9m/s | -53.8°C | 0.6% | 48.8hPa | 2.5V | 02:27:45 | 02:48:10 | 00:00:00 | |
| HSKMA3-T | 2026-08-31 01:20:57 | 50.76763 | 9.82021 | 42° | 20km/h | 21158m | 2.1m/s | -53.8°C | 0.6% | 48.9hPa | 2.5V | 02:27:45 | 02:48:09 | 00:00:00 | |
| BIOWL1-15 | 2026-08-31 01:20:55 | 50.76752 | 9.81999 | 51° | 9km/h | 21148m | 1.7m/s | -53.8°C | 0.7% | 48.9hPa | 2.5V | 02:27:45 | 02:48:04 | 00:00:00 | |
| DM0DOS-11 | 2026-08-31 01:20:55 | 50.76752 | 9.81999 | 50° | 7km/h | 21148m | 1.7m/s | -53.8°C | 3.9% | 48.9hPa | 2.5V | 02:27:08 | 02:48:04 | 00:00:00 | |
| DL1XH-west | 2026-08-31 01:20:53 | 50.76753 | 9.82002 | 56° | 11km/h | 21150m | 1.7m/s | -53.8°C | 0.7% | 48.9hPa | 2.5V | 02:27:45 | 02:48:05 | 00:00:00 | |
| DF8AY | 2026-08-31 01:20:48 | 50.76745 | 9.81995 | 359° | 11km/h | 21140m | 2m/s | -53.9°C | 0.7% | 49hPa | 2.5V | 02:27:45 | 02:48:00 | 00:00:00 | |
| DJ2DS-15 | 2026-08-31 01:20:48 | 50.76742 | 9.81995 | 355° | 11km/h | 21138m | 1.9m/s | -53.9°C | 1.2% | 49.0hPa | 2.5V | 00:00:00 | 00:00:00 | 00:00:00 | |
| DL1XH1-15 | 2026-08-31 01:20:46 | 50.76734 | 9.81996 | 358° | 16km/h | 21135m | 1.6m/s | -53.9°C | 4.1% | 49hPa | 2.5V | 02:27:15 | 02:47:57 | 00:00:00 | |
| HSKMA3-T | 2026-08-31 01:20:46 | 50.76738 | 9.81995 | 357° | 15km/h | 21137m | 1.8m/s | -53.9°C | 0.8% | 49hPa | 2.5V | 02:27:45 | 02:47:58 | 00:00:00 | |
| BIOWL1-15 | 2026-08-31 01:20:44 | 50.76730 | 9.81996 | 1° | 18km/h | 21133m | 1.8m/s | -53.9°C | 0.8% | 49.1hPa | 2.5V | 02:27:45 | 02:47:56 | 00:00:00 | |
| DL1XH-west | 2026-08-31 01:20:42 | 50.76720 | 9.81994 | 12° | 20km/h | 21129m | 1.9m/s | -54°C | 0.8% | 49.1hPa | 2.5V | 02:27:45 | 02:47:54 | 00:00:00 | |
| DF8AY | 2026-08-31 01:20:38 | 50.76701 | 9.81980 | 40° | 22km/h | 21122m | 1.8m/s | -54°C | 0.8% | 49.1hPa | 2.5V | 02:27:45 | 02:47:50 | 00:00:00 | |
| DC4HF-4 | 2026-08-31 01:20:36 | 50.76691 | 9.81962 | 53° | 16km/h | 21117m | 2.0m/s | -53.9°C | 1.2% | 49.2hPa | 2.5V | 00:00:00 | 00:00:00 | 00:00:00 | |
| DM0DOS-11 | 2026-08-31 01:20:35 | 50.76684 | 9.81949 | 40° | 11km/h | 21110m | 2m/s | -53.9°C | 4% | 49.2hPa | 2.5V | 02:27:28 | 02:47:44 | 00:00:00 | |
| HSKMA3-T | 2026-08-31 01:20:35 | 50.76691 | 9.81962 | 54° | 18km/h | 21116m | 2m/s | -53.9°C | 0.8% | 49.2hPa | 2.6V | 02:27:45 | 02:47:47 | 00:00:00 | |
| DL1XH-west | 2026-08-31 01:20:32 | 50.76684 | 9.81949 | 40° | 11km/h | 21110m | 2m/s | -53.9°C | 0.8% | 49.2hPa | 2.5V | 02:27:45 | 02:47:44 | 00:00:00 | |
| AA1-15 | 2026-08-31 01:20:31 | 50.76682 | 9.81947 | 23° | 9km/h | 21108m | 1.8m/s | -53.9°C | 0.8% | 49.3hPa | 2.5V | 02:27:45 | 02:47:43 | 00:00:00 | |
| DF8AY | 2026-08-31 01:20:27 | 50.76671 | 9.81947 | 355° | 15km/h | 21101m | 2.1m/s | -53.8°C | 0.9% | 49.3hPa | 2.4V | 02:27:45 | 02:47:39 | 00:00:00 | |
| DM0DOS-11 | 2026-08-31 01:20:25 | 50.76649 | 9.81942 | 20° | 22km/h | 21092m | 2m/s | -53.8°C | 4% | 49.4hPa | 2.6V | 02:27:38 | 02:47:34 | 00:00:00 | |
| HSKMA3-T | 2026-08-31 01:20:25 | 50.76663 | 9.81947 | 5° | 18km/h | 21097m | 1.7m/s | -53.8°C | 0.9% | 49.4hPa | 2.5V | 02:27:45 | 02:47:37 | 00:00:00 | |
| DL1XH-west | 2026-08-31 01:20:21 | 50.76643 | 9.81938 | 24° | 24km/h | 21090m | 2.2m/s | -53.8°C | 0.9% | 49.4hPa | 2.5V | 02:27:45 | 02:47:33 | 00:00:00 | |
| DL1XH-15 | 2026-08-31 01:20:21 | 50.76620 | 9.81915 | 38° | 20km/h | 21080m | 1.8m/s | -53.9°C | 4% | 49.5hPa | 2.5V | 02:27:44 | 02:47:28 | 00:00:00 | |
| BIOWL1-15 | 2026-08-31 01:20:20 | 50.76604 | 9.81901 | 7° | 11km/h | 21070m | 1.9m/s | -54°C | 0.7% | 49.5hPa | 2.5V | 02:28:36 | 02:47:23 | 00:00:00 | |
| AA1-15 | 2026-08-31 01:20:20 | 50.76638 | 9.81934 | 28° | 24km/h | 21088m | 2.3m/s | -53.8°C | 0.9% | 49.4hPa | 2.5V | 02:27:45 | 02:47:32 | 00:00:00 | |
| DF8AY | 2026-08-31 01:20:16 | 50.76620 | 9.81915 | 38° | 20km/h | 21080m | 1.8m/s | -53.9°C | 0.8% | 49.5hPa | 2.5V | 02:27:45 | 02:47:28 | 00:00:00 | |
| DB0NH | 2026-08-31 01:20:16 | 50.76620 | 9.81915 | 39° | 24km/h | 21080m | 1.7m/s | -53.9°C | 4.0% | 49.4hPa | 2.5V | 00:00:00 | 02:47:28 | 00:00:00 | |
| DM0DOS-11 | 2026-08-31 01:20:15 | 50.76607 | 9.81902 | 20° | 11km/h | 21072m | 2.1m/s | -54°C | 4% | 49.5hPa | 2.5V | 02:27:48 | 02:47:24 | 00:00:00 | |
| HSKMA3-T | 2026-08-31 01:20:14 | 50.76613 | 9.81907 | 35° | 15km/h | 21076m | 1.9m/s | -53.9°C | 0.8% | 49.5hPa | 2.5V | 02:28:36 | 02:47:26 | 00:00:00 | |
| DF7PN | 2026-08-31 01:20:13 | 50.76610 | 9.81904 | 30° | 13km/h | 21074m | 2.0m/s | -54.0°C | 1.3% | 49.5hPa | 2.5V | 00:00:00 | 00:00:00 | 00:00:00 | |
| DL1ZP-14 | 2026-08-31 01:20:12 | 50.76607 | 9.81902 | 20° | 11km/h | 21072m | 2.1m/s | -54.0°C | 1.2% | 49.5hPa | 2.5V | 00:00:00 | 00:00:00 | 00:00:00 | |
| DL1XH-15 | 2026-08-31 01:20:11 | 50.76585 | 9.81906 | 353° | 22km/h | 21060m | 2.2m/s | -54°C | 4% | 49.6hPa | 2.5V | 02:27:54 | 02:47:18 | 00:00:00 | |
| DL1XH1-15 | 2026-08-31 01:20:10 | 50.76579 | 9.81906 | 358° | 24km/h | 21058m | 2.1m/s | -54°C | 3.9% | 49.6hPa | 2.5V | 02:27:55 | 02:47:17 | 00:00:00 | |
| BIOWL1-15 | 2026-08-31 01:20:10 | 50.76601 | 9.81901 | 355° | 13km/h | 21068m | 1.9m/s | -54°C | 0.7% | 49.6hPa | 2.5V | 02:28:36 | 02:47:22 | 00:00:00 | |
| AA1-15 | 2026-08-31 01:20:09 | 50.76598 | 9.81901 | 348° | 15km/h | 21066m | 1.8m/s | -54°C | 0.7% | 49.6hPa | 2.5V | 02:28:36 | 02:47:21 | 00:00:00 | |
| DF8AY | 2026-08-31 01:20:06 | 50.76584 | 9.81906 | 353° | 22km/h | 21060m | 2.2m/s | -54°C | 0.7% | 49.6hPa | 2.5V | 02:28:36 | 02:47:18 | 00:00:00 | |
| HSKMA3-T | 2026-08-31 01:20:03 | 50.76566 | 9.81905 | 9° | 27km/h | 21054m | 1.9m/s | -54°C | 0.6% | 49.7hPa | 2.5V | 02:28:36 | 02:47:15 | 00:00:00 | |
| DL1XH-west | 2026-08-31 01:20:00 | 50.76546 | 9.81896 | 23° | 26km/h | 21049m | 1.9m/s | -53.9°C | 0.6% | 49.7hPa | 2.4V | 02:28:36 | 02:47:12 | 00:00:00 | |
| BIOWL1-15 | 2026-08-31 01:19:59 | 50.76541 | 9.81892 | 26° | 24km/h | 21047m | 2m/s | -53.9°C | 0.6% | 49.7hPa | 2.5V | 02:28:36 | 02:47:11 | 00:00:00 | |
| DL1XH1-15 | 2026-08-31 01:19:58 | 50.76524 | 9.81878 | 25° | 15km/h | 21039m | 1.9m/s | -53.9°C | 3.9% | 49.8hPa | 2.6V | 02:28:05 | 02:47:07 | 00:00:00 | |
| AA1-15 | 2026-08-31 01:19:58 | 50.76536 | 9.81888 | 29° | 22km/h | 21045m | 2m/s | -53.9°C | 0.6% | 49.8hPa | 2.5V | 02:28:36 | 02:47:10 | 00:00:00 | |
| DF8AY | 2026-08-31 01:19:56 | 50.76527 | 9.81881 | 29° | 16km/h | 21041m | 1.9m/s | -53.9°C | 0.6% | 49.8hPa | 2.5V | 02:28:36 | 02:47:08 | 00:00:00 | |
| HSKMA3-T | 2026-08-31 01:19:52 | 50.76515 | 9.81874 | 2° | 13km/h | 21034m | 1.8m/s | -53.9°C | 0.7% | 49.8hPa | 2.5V | 02:28:36 | 02:47:04 | 00:00:00 | |
| DL1XH-15 | 2026-08-31 01:19:51 | 50.76486 | 9.81881 | 351° | 26km/h | 21022m | 2.1m/s | -53.8°C | 3.9% | 49.9hPa | 2.5V | 02:28:14 | 02:46:58 | 00:00:00 | |
| DL1XH-west | 2026-08-31 01:19:49 | 50.76503 | 9.81876 | 349° | 18km/h | 21028m | 2m/s | -53.8°C | 0.6% | 49.8hPa | 2.5V | 02:28:36 | 02:47:01 | 00:00:00 | |
| BIOWL1-15 | 2026-08-31 01:19:48 | 50.76498 | 9.81878 | 349° | 22km/h | 21026m | 2m/s | -53.8°C | 0.6% | 49.9hPa | 2.5V | 02:28:36 | 02:47:00 | 00:00:00 | |
| DM0DOS-11 | 2026-08-31 01:19:47 | 50.76458 | 9.81883 | 5° | 27km/h | 21014m | 1.9m/s | -53.8°C | 3.8% | 50hPa | 2.5V | 02:28:18 | 02:46:54 | 00:00:00 | |
| AA1-15 | 2026-08-31 01:19:47 | 50.76492 | 9.81880 | 349° | 24km/h | 21024m | 1.9m/s | -53.8°C | 0.7% | 49.9hPa | 2.5V | 02:28:36 | 02:46:59 | 00:00:00 | |
| DF8AY | 2026-08-31 01:19:46 | 50.76479 | 9.81883 | 353° | 27km/h | 21020m | 2.1m/s | -53.8°C | 0.6% | 49.9hPa | 2.5V | 02:28:36 | 02:46:57 | 00:00:00 | |
| GOEST3-10 | 2026-08-31 01:19:46 | 50.76486 | 9.81881 | 352° | 27km/h | 21022m | 2.0m/s | 0°C | 0% | 0hPa | 2.5V | 00:00:00 | 02:46:58 | 00:00:00 | |
| DO8TBO-1 | 2026-08-31 01:19:44 | 50.76472 | 9.81884 | 357° | 20km/h | 21018m | 2.1m/s | -53.7°C | 3.9% | 49.9hPa | 2.5V | 00:00:00 | 02:46:56 | 00:00:00 | |
| AM1SDL-15 | 2026-08-31 01:19:43 | 50.76465 | 9.81884 | 1° | 18km/h | 21016m | 1.9m/s | 0°C | 0% | 0hPa | 2.5V | 00:00:00 | 02:46:55 | 00:00:00 | |
| DF5WG-10 | 2026-08-31 01:19:42 | 50.76458 | 9.81883 | 6° | 24km/h | 21014m | 1.8m/s | 0°C | 0% | 0hPa | 2.5V | 00:00:00 | 02:46:54 | 00:00:00 | |
| DL1XH-15 | 2026-08-31 01:19:41 | 50.76427 | 9.81867 | 24° | 15km/h | 21003m | 2m/s | -53.7°C | 3.9% | 50.1hPa | 2.5V | 02:28:24 | 02:46:48 | 00:00:00 | |
| HSKMA3-T | 2026-08-31 01:19:41 | 50.76452 | 9.81882 | 11° | 26km/h | 21012m | 1.8m/s | -53.8°C | 0.6% | 50hPa | 2.6V | 02:28:36 | 02:46:53 | 00:00:00 | |
| BIOWL1-15 | 2026-08-31 01:19:38 | 50.76435 | 9.81873 | 24° | 20km/h | 21006m | 2m/s | -53.7°C | 0.6% | 50hPa | 2.5V | 02:28:36 | 02:46:50 | 00:00:00 | |
| AA1-15 | 2026-08-31 01:19:37 | 50.76430 | 9.81870 | 26° | 16km/h | 21004m | 1.9m/s | -53.7°C | 0.6% | 50.1hPa | 2.5V | 02:28:36 | 02:46:49 | 00:00:00 | |
| DL3AQ-11 | 2026-08-31 01:19:36 | 50.76424 | 9.81865 | 17° | 11km/h | 21001m | 1.9m/s | -53.7°C | 1.1% | 50.1hPa | 2.5V | 00:00:00 | 00:00:00 | 00:00:00 | |
| DM0DOS-11 | 2026-08-31 01:19:35 | 50.76411 | 9.81868 | 335° | 16km/h | 20993m | 2m/s | -53.7°C | 3.9% | 50.1hPa | 2.5V | 02:28:29 | 02:46:43 | 00:00:00 | |
| DF8AY | 2026-08-31 01:19:34 | 50.76421 | 9.81864 | 3° | 11km/h | 20999m | 1.9m/s | -53.7°C | 0.6% | 50.1hPa | 2.5V | 02:28:36 | 02:46:46 | 00:00:00 | |
| DB0UT-7 | 2026-08-31 01:19:34 | 50.76421 | 9.81864 | 4° | 18km/h | 20999m | 1.8m/s | -53.7°C | 3.9% | 50.0hPa | 2.4V | 00:00:00 | 02:46:46 | 00:00:00 | |
| DL4BBY-15 | 2026-08-31 01:19:33 | 50.76418 | 9.81864 | 349° | 18km/h | 20997m | 2.0m/s | -54.6°C | 0% | 0hPa | 2.4V | 00:00:00 | 00:00:00 | 00:00:00 | |
| DL1XH-15 | 2026-08-31 01:19:31 | 50.76387 | 9.81883 | 347° | 24km/h | 20982m | 2m/s | -53.6°C | 3.8% | 50.2hPa | 2.4V | 02:28:34 | 02:46:38 | 00:00:00 | |
| HSKMA3-T | 2026-08-31 01:19:30 | 50.76408 | 9.81871 | 334° | 18km/h | 20991m | 2m/s | -53.7°C | 0.6% | 50.2hPa | 2.5V | 02:28:36 | 02:46:42 | 00:00:00 | |
| EDDB2-12 | 2026-08-31 01:19:29 | 50.76403 | 9.81874 | 336° | 20km/h | 20989m | 2.2m/s | -53.7°C | 1.1% | 50.2hPa | 2.5V | 00:00:00 | 00:00:00 | 00:00:00 | |
| DL1XH1-15 | 2026-08-31 01:19:28 | 50.76381 | 9.81884 | 351° | 24km/h | 20980m | 2m/s | -53.6°C | 3.8% | 50.2hPa | 2.5V | 02:28:35 | 02:46:37 | 00:00:00 | |
| DL1XH-west | 2026-08-31 01:19:28 | 50.76398 | 9.81877 | 340° | 22km/h | 20986m | 2.2m/s | -53.7°C | 0.6% | 50.2hPa | 2.6V | 02:28:36 | 02:46:40 | 00:00:00 | |
| AA1-15 | 2026-08-31 01:19:26 | 50.76387 | 9.81883 | 347° | 24km/h | 20982m | 2m/s | -53.7°C | 0.6% | 50.2hPa | 2.4V | 02:28:36 | 02:46:38 | 00:00:00 | |
| DF8AY | 2026-08-31 01:19:23 | 50.76369 | 9.81886 | 0° | 24km/h | 20976m | 2m/s | -53.6°C | 0.6% | 50.3hPa | 2.5V | 02:29:27 | 02:46:35 | 00:00:00 | |
| DL3AQ-11 | 2026-08-31 01:19:23 | 50.76363 | 9.81885 | 5° | 20km/h | 20974m | 2.0m/s | -53.6°C | 1.1% | 50.3hPa | 2.5V | 00:00:00 | 00:00:00 | 00:00:00 | |
| DL1XH-15 | 2026-08-31 01:19:21 | 50.76339 | 9.81875 | 17° | 11km/h | 20962m | 2.2m/s | -53.7°C | 3.8% | 50.4hPa | 2.5V | 02:28:44 | 02:46:28 | 00:00:00 | |
| HSKMA3-T | 2026-08-31 01:19:20 | 50.76353 | 9.81883 | 15° | 18km/h | 20970m | 1.9m/s | -53.6°C | 0.6% | 50.3hPa | 2.5V | 02:29:27 | 02:46:32 | 00:00:00 | |
| BIOWL1-15 | 2026-08-31 01:19:17 | 50.76342 | 9.81876 | 22° | 13km/h | 20964m | 2.2m/s | -53.7°C | 0.6% | 50.4hPa | 2.5V | 02:29:27 | 02:46:29 | 00:00:00 | |
| DL1XH1-15 | 2026-08-31 01:19:16 | 50.76337 | 9.81874 | 6° | 9km/h | 20960m | 2.1m/s | -53.7°C | 3.8% | 50.4hPa | 2.5V | 02:28:45 | 02:46:27 | 00:00:00 | |
| AA1-15 | 2026-08-31 01:19:15 | 50.76337 | 9.81874 | 7° | 9km/h | 20960m | 2.1m/s | -53.7°C | 0.5% | 50.4hPa | 2.5V | 02:29:27 | 02:46:27 | 00:00:00 | |
| DF8AY | 2026-08-31 01:19:13 | 50.76332 | 9.81875 | 337° | 11km/h | 20956m | 1.7m/s | -53.7°C | 0.6% | 50.4hPa | 2.5V | 02:29:27 | 02:46:25 | 00:00:00 | |
| DL3AQ-11 | 2026-08-31 01:19:12 | 50.76327 | 9.81880 | 327° | 15km/h | 20952m | 2.1m/s | -53.8°C | 1.1% | 50.5hPa | 2.5V | 00:00:00 | 00:00:00 | 00:00:00 | |
| DJ2DS-15 | 2026-08-31 01:19:11 | 50.76327 | 9.81880 | 328° | 16km/h | 20953m | 2.1m/s | -53.7°C | 3.8% | 50.4hPa | 2.5V | 02:28:00 | 02:46:23 | 00:00:00 | |
| DL1XH1-15 | 2026-08-31 01:19:10 | 50.76299 | 9.81898 | 353° | 22km/h | 20940m | 1.9m/s | -54.1°C | 3.9% | 50.6hPa | 2.4V | 02:28:55 | 02:46:17 | 00:00:00 | |
| HSKMA3-T | 2026-08-31 01:19:09 | 50.76319 | 9.81887 | 331° | 20km/h | 20948m | 2.2m/s | -53.9°C | 0.6% | 50.5hPa | 2.5V | 02:29:27 | 02:46:21 | 00:00:00 | |
| DL1XH-west | 2026-08-31 01:19:07 | 50.76310 | 9.81894 | 342° | 22km/h | 20943m | 1.9m/s | -54°C | 0.7% | 50.5hPa | 2.5V | 02:29:27 | 02:46:19 | 00:00:00 | |
| BIOWL1-15 | 2026-08-31 01:19:06 | 50.76304 | 9.81897 | 347° | 22km/h | 20942m | 1.8m/s | -54.1°C | 0.7% | 50.5hPa | 2.5V | 02:29:27 | 02:46:18 | 00:00:00 | |
| DM0DOS-11 | 2026-08-31 01:19:06 | 50.76279 | 9.81895 | 19° | 16km/h | 20931m | 2m/s | -54.1°C | 4% | 50.6hPa | 2.6V | 02:28:59 | 02:46:13 | 00:00:00 | |
| AA1-15 | 2026-08-31 01:19:04 | 50.76293 | 9.81899 | 360° | 22km/h | 20938m | 2.1m/s | -54.1°C | 0.8% | 50.6hPa | 2.5V | 02:29:27 | 02:46:16 | 00:00:00 | |
| DF8AY | 2026-08-31 01:19:02 | 50.76283 | 9.81897 | 13° | 18km/h | 20934m | 2.2m/s | -54.1°C | 0.8% | 50.6hPa | 2.5V | 02:29:27 | 02:46:14 | 00:00:00 | |
| DL1XH-15 | 2026-08-31 01:19:01 | 50.76266 | 9.81887 | 0° | 9km/h | 20921m | 2.2m/s | -54.1°C | 4% | 50.7hPa | 2.5V | 02:29:04 | 02:46:08 | 00:00:00 | |
| HSKMA3-T | 2026-08-31 01:18:58 | 50.76270 | 9.81889 | 23° | 9km/h | 20925m | 2m/s | -54.1°C | 0.7% | 50.7hPa | 2.5V | 02:29:27 | 02:46:10 | 00:00:00 | |
| DL1XH-west | 2026-08-31 01:18:56 | 50.76266 | 9.81887 | 1° | 9km/h | 20921m | 2.2m/s | -54.1°C | 0.7% | 50.7hPa | 2.5V | 02:29:27 | 02:46:08 | 00:00:00 | |
| BIOWL1-15 | 2026-08-31 01:18:55 | 50.76261 | 9.81889 | 335° | 11km/h | 20917m | 2.2m/s | -54.1°C | 0.8% | 50.7hPa | 2.5V | 02:29:27 | 02:46:06 | 00:00:00 | |
| AA1-15 | 2026-08-31 01:18:53 | 50.76259 | 9.81891 | 329° | 13km/h | 20915m | 2m/s | -54.1°C | 0.8% | 50.8hPa | 2.5V | 02:29:27 | 02:46:05 | 00:00:00 | |
| DF8AY | 2026-08-31 01:18:51 | 50.76253 | 9.81897 | 324° | 15km/h | 20911m | 2m/s | -54.1°C | 0.8% | 50.8hPa | 2.5V | 02:29:27 | 02:46:03 | 00:00:00 | |
| HSKMA3-T | 2026-08-31 01:18:47 | 50.76240 | 9.81910 | 339° | 16km/h | 20902m | 2.2m/s | -54.2°C | 0.7% | 50.9hPa | 2.6V | 02:29:27 | 02:45:59 | 00:00:00 | |
| DM0DOS-11 | 2026-08-31 01:18:46 | 50.76212 | 9.81911 | 12° | 18km/h | 20890m | 2.4m/s | -54.2°C | 4.1% | 51hPa | 2.6V | 02:29:19 | 02:45:53 | 00:00:00 | |
| DL1XH1-15 | 2026-08-31 01:18:46 | 50.76231 | 9.81913 | 352° | 18km/h | 20898m | 1.8m/s | -54.2°C | 4.1% | 50.9hPa | 2.5V | 02:29:15 | 02:45:57 | 00:00:00 | |
| DL1XH-west | 2026-08-31 01:18:45 | 50.76231 | 9.81913 | 353° | 18km/h | 20898m | 1.8m/s | -54.3°C | 0.9% | 50.9hPa | 2.5V | 02:29:27 | 02:45:57 | 00:00:00 | |
| BIOWL1-15 | 2026-08-31 01:18:44 | 50.76221 | 9.81913 | 5° | 20km/h | 20895m | 2m/s | -54.3°C | 0.8% | 50.9hPa | 2.5V | 02:29:27 | 02:45:55 | 00:00:00 | |
| AA1-15 | 2026-08-31 01:18:42 | 50.76217 | 9.81912 | 9° | 20km/h | 20892m | 2.4m/s | -54.3°C | 0.8% | 50.9hPa | 2.5V | 02:29:27 | 02:45:54 | 00:00:00 | |
| DF8AY | 2026-08-31 01:18:40 | 50.76207 | 9.81909 | 15° | 16km/h | 20888m | 2.3m/s | -54.3°C | 0.8% | 51hPa | 2.5V | 02:29:27 | 02:45:52 | 00:00:00 | |
| HSKMA3-T | 2026-08-31 01:18:36 | 50.76197 | 9.81906 | 352° | 5km/h | 20879m | 2.2m/s | -54.2°C | 0.9% | 51hPa | 2.5V | 02:29:27 | 02:45:48 | 00:00:00 | |
| DM0DOS-11 | 2026-08-31 01:18:35 | 50.76189 | 9.81913 | 332° | 11km/h | 20868m | 2m/s | -54.1°C | 4.1% | 51.1hPa | 2.5V | 02:29:29 | 02:45:43 | 00:00:00 | |
| DL1XH1-15 | 2026-08-31 01:18:35 | 50.76196 | 9.81907 | 335° | 5km/h | 20877m | 2.5m/s | -54.2°C | 4.1% | 51hPa | 2.5V | 02:29:25 | 02:45:47 | 00:00:00 | |
| DL1XH-west | 2026-08-31 01:18:35 | 50.76196 | 9.81906 | 336° | 5km/h | 20877m | 2.5m/s | -54.2°C | 0.9% | 51.1hPa | 2.5V | 02:29:27 | 02:45:47 | 00:00:00 | |
| BIOWL1-15 | 2026-08-31 01:18:34 | 50.76194 | 9.81908 | 324° | 7km/h | 20875m | 2.4m/s | -54.2°C | 0.9% | 51.1hPa | 2.5V | 02:29:27 | 02:45:46 | 00:00:00 | |
| AA1-15 | 2026-08-31 01:18:31 | 50.76189 | 9.81913 | 333° | 11km/h | 20868m | 2m/s | -54.2°C | 0.9% | 51.1hPa | 2.5V | 02:30:18 | 02:45:43 | 00:00:00 | |
| DJ2DS-15 | 2026-08-31 01:18:31 | 50.76189 | 9.81913 | 333° | 13km/h | 20868m | 1.9m/s | -54.1°C | 4.1% | 51.1hPa | 2.5V | 00:00:00 | 02:45:43 | 00:00:00 | |
| DL1XH1-15 | 2026-08-31 01:18:30 | 50.76170 | 9.81918 | 359° | 15km/h | 20855m | 1.9m/s | -54.2°C | 3.9% | 51.2hPa | 2.5V | 02:29:35 | 02:45:37 | 00:00:00 | |
| DF8AY | 2026-08-31 01:18:29 | 50.76183 | 9.81917 | 347° | 13km/h | 20864m | 2.2m/s | -54.1°C | 0.7% | 51.1hPa | 2.5V | 02:30:18 | 02:45:41 | 00:00:00 | |
| HSKMA3-T | 2026-08-31 01:18:25 | 50.76169 | 9.81918 | 360° | 15km/h | 20855m | 1.9m/s | -54.2°C | 0.7% | 51.2hPa | 2.5V | 02:30:18 | 02:45:37 | 00:00:00 | |
| DL1XH-west | 2026-08-31 01:18:24 | 50.76166 | 9.81918 | 1° | 15km/h | 20854m | 2m/s | -54.2°C | 0.7% | 51.2hPa | 2.5V | 02:30:18 | 02:45:36 | 00:00:00 | |
| DF8AY | 2026-08-31 01:18:24 | 50.76149 | 9.81917 | 16° | 13km/h | 20843m | 2.2m/s | -54.2°C | 0.6% | 51.3hPa | 2.5V | 02:30:18 | 02:45:31 | 00:00:00 | |
| DM0DOS-11 | 2026-08-31 01:18:22 | 50.76155 | 9.81918 | 2° | 13km/h | 20847m | 2.1m/s | -54.2°C | 4% | 51.3hPa | 2.5V | 02:29:39 | 02:45:33 | 00:00:00 | |
| AA1-15 | 2026-08-31 01:18:21 | 50.76155 | 9.81918 | 3° | 13km/h | 20847m | 2.1m/s | -54.2°C | 0.7% | 51.3hPa | 2.5V | 02:30:18 | 02:45:33 | 00:00:00 | |
| DK5PH-5 | 2026-08-31 01:18:21 | 50.76155 | 9.81918 | 3° | 11km/h | 20848m | 2.1m/s | -54.2°C | 4.0% | 51.2hPa | 2.5V | 00:00:00 | 02:45:33 | 00:00:00 | |
| DL0LBS | 2026-08-31 01:18:18 | 50.76149 | 9.81917 | 17° | 13km/h | 20843m | 2.2m/s | -54.2°C | 1.2% | 51.3hPa | 2.5V | 02:30:00 | 00:00:00 | 00:00:00 | |
| SONDE2-11 | 2026-08-31 01:18:17 | 50.76139 | 9.81905 | 53° | 11km/h | 20835m | 2.1m/s | -54.2°C | 1.1% | 51.4hPa | 2.5V | 00:00:00 | 00:00:00 | 00:00:00 | |
| DL3AQ-11 | 2026-08-31 01:18:16 | 50.76139 | 9.81905 | 53° | 11km/h | 20835m | 2.1m/s | -54.2°C | 1.1% | 51.4hPa | 2.5V | 00:00:00 | 00:00:00 | 00:00:00 | |
| DM0DOS-11 | 2026-08-31 01:18:15 | 50.76133 | 9.81891 | 53° | 7km/h | 20826m | 2.1m/s | -54.1°C | 3.9% | 51.5hPa | 2.5V | 02:29:49 | 02:45:23 | 00:00:00 | |
| DL1XH1-15 | 2026-08-31 01:18:15 | 50.76139 | 9.81905 | 53° | 13km/h | 20835m | 2.1m/s | -54.2°C | 4% | 51.4hPa | 2.5V | 02:29:45 | 02:45:27 | 00:00:00 | |
| DL1XH-west | 2026-08-31 01:18:14 | 50.76137 | 9.81901 | 58° | 13km/h | 20833m | 2.4m/s | -54.2°C | 0.6% | 51.4hPa | 2.5V | 02:30:18 | 02:45:26 | 00:00:00 | |
| BIOWL1-15 | 2026-08-31 01:18:12 | 50.76134 | 9.81894 | 60° | 9km/h | 20828m | 2.3m/s | -54.2°C | 0.6% | 51.4hPa | 2.5V | 02:30:18 | 02:45:24 | 00:00:00 | |
| GOEST3-10 | 2026-08-31 01:18:12 | 50.76134 | 9.81894 | 60° | 7km/h | 20828m | 2.3m/s | 0°C | 0% | 0hPa | 2.5V | 02:29:00 | 02:45:24 | 00:00:00 | |
| DL1XH-15 | 2026-08-31 01:18:11 | 50.76128 | 9.81892 | 334° | 7km/h | 20815m | 2m/s | -54.1°C | 3.8% | 51.5hPa | 2.5V | 02:29:54 | 02:45:18 | 00:00:00 | |
| AA1-15 | 2026-08-31 01:18:11 | 50.76133 | 9.81891 | 53° | 7km/h | 20826m | 2.1m/s | -54.1°C | 0.7% | 51.5hPa | 2.5V | 02:30:18 | 02:45:23 | 00:00:00 | |
| DF8AY | 2026-08-31 01:18:09 | 50.76131 | 9.81889 | 357° | 4km/h | 20821m | 2m/s | -54.1°C | 0.5% | 51.5hPa | 2.5V | 02:30:18 | 02:45:21 | 00:00:00 | |
| DF7PN | 2026-08-31 01:18:09 | 50.76130 | 9.81890 | 336° | 4km/h | 20819m | 2.0m/s | -54.1°C | 1.1% | 51.5hPa | 2.5V | 00:00:00 | 00:00:00 | 00:00:00 | |
| DB0NH | 2026-08-31 01:18:08 | 50.76130 | 9.81890 | 337° | 15km/h | 20820m | 2.0m/s | -54.1°C | 3.8% | 51.5hPa | 2.5V | 00:00:00 | 02:45:20 | 00:00:00 | |
| DO2KSM | 2026-08-31 01:18:07 | 50.76130 | 9.81890 | 338° | 5km/h | 20820m | 2.0m/s | -54.1°C | 1.1% | 51.5hPa | 2.5V | 02:30:00 | 00:00:00 | 00:00:00 | |
| DM0DOS-11 | 2026-08-31 01:18:06 | 50.76115 | 9.81888 | 33° | 15km/h | 20806m | 1.8m/s | -54.1°C | 3.9% | 51.6hPa | 2.5V | 02:29:59 | 02:45:13 | 00:00:00 | |
| HSKMA3-T | 2026-08-31 01:18:03 | 50.76121 | 9.81893 | 13° | 11km/h | 20810m | 1.8m/s | -54.1°C | 0.6% | 51.6hPa | 2.5V | 02:30:18 | 02:45:15 | 00:00:00 | |
| AA1-15 | 2026-08-31 01:18:01 | 50.76115 | 9.81888 | 33° | 15km/h | 20806m | 1.8m/s | -54.1°C | 0.7% | 51.6hPa | 2.5V | 02:30:18 | 02:45:13 | 00:00:00 | |
| DL1XH1-15 | 2026-08-31 01:18:00 | 50.76097 | 9.81865 | 39° | 13km/h | 20795m | 1.8m/s | -54.1°C | 3.9% | 51.7hPa | 2.5V | 02:30:05 | 02:45:07 | 00:00:00 | |
| DF8AY | 2026-08-31 01:17:59 | 50.76106 | 9.81877 | 42° | 16km/h | 20800m | 2.1m/s | -54.1°C | 0.6% | 51.7hPa | 2.5V | 02:30:18 | 02:45:10 | 00:00:00 | |
| HSKMA3-T | 2026-08-31 01:17:52 | 50.76091 | 9.81856 | 52° | 11km/h | 20788m | 2.3m/s | -54.1°C | 0.6% | 51.8hPa | 2.5V | 02:30:18 | 02:45:04 | 00:00:00 | |
| DL1XH-15 | 2026-08-31 01:17:51 | 50.76088 | 9.81827 | 92° | 15km/h | 20777m | 2.1m/s | -54°C | 3.9% | 51.9hPa | 2.5V | 02:30:14 | 02:44:58 | 00:00:00 | |
| BIOWL1-15 | 2026-08-31 01:17:50 | 50.76088 | 9.81838 | 93° | 15km/h | 20781m | 1.6m/s | -54°C | 0.6% | 51.8hPa | 2.5V | 02:30:18 | 02:45:00 | 00:00:00 | |
| AA1-15 | 2026-08-31 01:17:50 | 50.76089 | 9.81849 | 79° | 11km/h | 20784m | 1.9m/s | -54.1°C | 0.6% | 51.8hPa | 2.5V | 02:30:18 | 02:45:02 | 00:00:00 | |
| DF8AY | 2026-08-31 01:17:47 | 50.76088 | 9.81832 | 93° | 15km/h | 20779m | 1.9m/s | -54°C | 0.6% | 51.9hPa | 2.6V | 02:30:18 | 02:44:59 | 00:00:00 | |
| EDDB2-11 | 2026-08-31 01:17:46 | 50.76089 | 9.81827 | 92° | 13km/h | 20777m | 2.1m/s | -54.0°C | 1.1% | 51.9hPa | 2.5V | 00:00:00 | 00:00:00 | 00:00:00 | |
| DB0ND-19 | 2026-08-31 01:17:45 | 50.76088 | 9.81821 | 86° | 13km/h | 20775m | 2.3m/s | -54.0°C | 1.1% | 51.9hPa | 2.5V | 00:00:00 | 00:00:00 | 00:00:00 | |
| DL1XH-west | 2026-08-31 01:17:42 | 50.76086 | 9.81810 | 48° | 9km/h | 20769m | 1.7m/s | -54°C | 0.5% | 52hPa | 2.5V | 02:30:18 | 02:44:54 | 00:00:00 | |
| HSKMA3-T | 2026-08-31 01:17:41 | 50.76084 | 9.81807 | 37° | 9km/h | 20767m | 1.5m/s | -54°C | 0.5% | 52hPa | 2.5V | 02:31:09 | 02:44:53 | 00:00:00 | |
| BIOWL1-15 | 2026-08-31 01:17:39 | 50.76080 | 9.81803 | 37° | 9km/h | 20764m | 2m/s | -54°C | 0.5% | 52hPa | 2.5V | 02:31:09 | 02:44:51 | 00:00:00 | |
| DJ2KF-10 | 2026-08-31 01:17:39 | 50.76080 | 9.81803 | 38° | 15km/h | 20764m | 1.9m/s | -54.0°C | 3.8% | 51.9hPa | 2.5V | 00:00:00 | 02:44:51 | 00:00:00 | |
| DF5WG-10 | 2026-08-31 01:17:38 | 50.76078 | 9.81800 | 47° | 13km/h | 20762m | 2.3m/s | 0°C | 0% | 0hPa | 2.5V | 00:00:00 | 02:44:50 | 00:00:00 | |
| DL0LBS | 2026-08-31 01:17:37 | 50.76078 | 9.81800 | 47° | 9km/h | 20762m | 2.3m/s | -54.0°C | 1.1% | 52.0hPa | 2.5V | 02:31:00 | 00:00:00 | 00:00:00 | |
| DM0DOS-11 | 2026-08-31 01:17:36 | 50.76070 | 9.81765 | 68° | 15km/h | 20748m | 2.5m/s | -53.9°C | 3.8% | 52.1hPa | 2.5V | 02:30:29 | 02:44:43 | 00:00:00 | |
| DF8AY | 2026-08-31 01:17:36 | 50.76076 | 9.81793 | 68° | 13km/h | 20757m | 1.8m/s | -54°C | 0.6% | 52hPa | 2.5V | 02:31:09 | 02:44:48 | 00:00:00 | |
| DL1XH1-15 | 2026-08-31 01:17:35 | 50.76075 | 9.81788 | 74° | 15km/h | 20755m | 1.6m/s | -54°C | 3.8% | 52hPa | 2.5V | 02:30:25 | 02:44:47 | 00:00:00 | |
| DL1XH-west | 2026-08-31 01:17:32 | 50.76072 | 9.81771 | 74° | 15km/h | 20750m | 2.2m/s | -53.9°C | 0.6% | 52.1hPa | 2.5V | 02:31:09 | 02:44:44 | 00:00:00 | |
| HSKMA3-T | 2026-08-31 01:17:30 | 50.76069 | 9.81760 | 61° | 15km/h | 20746m | 2.3m/s | -53.9°C | 0.5% | 52.1hPa | 2.5V | 02:31:09 | 02:44:42 | 00:00:00 | |
| BIOWL1-15 | 2026-08-31 01:17:28 | 50.76065 | 9.81750 | 52° | 15km/h | 20742m | 1.6m/s | -54°C | 0.5% | 52.1hPa | 2.5V | 02:31:09 | 02:44:40 | 00:00:00 | |
| DF8AY | 2026-08-31 01:17:26 | 50.76060 | 9.81740 | 54° | 15km/h | 20738m | 2.1m/s | -54°C | 0.5% | 52.2hPa | 2.6V | 02:31:09 | 02:44:38 | 00:00:00 | |
| DL1XH1-15 | 2026-08-31 01:17:25 | 50.76058 | 9.81736 | 59° | 15km/h | 20736m | 2.3m/s | -54°C | 3.8% | 52.2hPa | 2.5V | 02:30:35 | 02:44:37 | 00:00:00 | |
| DL1XH-west | 2026-08-31 01:17:21 | 50.76054 | 9.81712 | 90° | 16km/h | 20728m | 1.5m/s | -54.1°C | 0.5% | 52.3hPa | 2.5V | 02:31:09 | 02:44:33 | 00:00:00 | |
| DL1XH-15 | 2026-08-31 01:17:21 | 50.76052 | 9.81679 | 72° | 16km/h | 20718m | 1.9m/s | -54.1°C | 4% | 52.3hPa | 2.5V | 02:30:44 | 02:44:28 | 00:00:00 | |
| HSKMA3-T | 2026-08-31 01:17:19 | 50.76054 | 9.81699 | 90° | 16km/h | 20725m | 1.9m/s | -54.1°C | 0.5% | 52.3hPa | 2.5V | 02:31:09 | 02:44:31 | 00:00:00 | |
| BIOWL1-15 | 2026-08-31 01:17:17 | 50.76054 | 9.81685 | 80° | 16km/h | 20720m | 2.3m/s | -54.1°C | 0.6% | 52.3hPa | 2.5V | 02:31:09 | 02:44:29 | 00:00:00 | |
| DF8AY | 2026-08-31 01:17:15 | 50.76051 | 9.81673 | 68° | 16km/h | 20716m | 1.5m/s | -54.1°C | 0.6% | 52.4hPa | 2.5V | 02:31:09 | 02:44:27 | 00:00:00 | |
| DL1XH-west | 2026-08-31 01:17:11 | 50.76045 | 9.81649 | 72° | 16km/h | 20709m | 2.4m/s | -54.1°C | 0.6% | 52.4hPa | 2.5V | 02:31:09 | 02:44:23 | 00:00:00 | |
| DL1XH-15 | 2026-08-31 01:17:11 | 50.76043 | 9.81620 | 93° | 15km/h | 20699m | 2m/s | -54°C | 3.8% | 52.5hPa | 2.6V | 02:30:54 | 02:44:18 | 00:00:00 | |
| HSKMA3-T | 2026-08-31 01:17:08 | 50.76043 | 9.81631 | 92° | 15km/h | 20702m | 1.8m/s | -54°C | 0.6% | 52.5hPa | 2.5V | 02:31:09 | 02:44:20 | 00:00:00 | |
| AA1-15 | 2026-08-31 01:17:06 | 50.76043 | 9.81620 | 93° | 15km/h | 20699m | 2m/s | -54°C | 0.5% | 52.5hPa | 2.6V | 02:31:09 | 02:44:18 | 00:00:00 | |
| DL1XH1-15 | 2026-08-31 01:17:05 | 50.76043 | 9.81614 | 87° | 15km/h | 20697m | 2.4m/s | -54°C | 3.8% | 52.5hPa | 2.5V | 02:30:55 | 02:44:17 | 00:00:00 | |
| DF8AY | 2026-08-31 01:17:04 | 50.76043 | 9.81608 | 80° | 15km/h | 20694m | 2.4m/s | -54°C | 0.6% | 52.5hPa | 2.5V | 02:31:09 | 02:44:16 | 00:00:00 | |
| DB0UT-7 | 2026-08-31 01:17:04 | 50.76043 | 9.81608 | 80° | 15km/h | 20694m | 2.3m/s | -53.9°C | 3.9% | 52.5hPa | 2.5V | 00:00:00 | 00:00:00 | 00:00:00 | |
| DM0DOS-11 | 2026-08-31 01:17:03 | 50.76038 | 9.81591 | 60° | 18km/h | 20688m | 1.5m/s | -54°C | 3.9% | 52.6hPa | 2.5V | 02:30:59 | 02:44:13 | 00:00:00 | |
| DL4BBY-15 | 2026-08-31 01:17:03 | 50.76042 | 9.81603 | 71° | 16km/h | 20693m | 2.0m/s | -54.9°C | 0% | 0hPa | 2.5V | 00:00:00 | 00:00:00 | 00:00:00 | |
| DL1XH-15 | 2026-08-31 01:17:01 | 50.76028 | 9.81558 | 70° | 16km/h | 20677m | 2m/s | -53.9°C | 3.9% | 52.7hPa | 2.5V | 02:31:04 | 02:44:08 | 00:00:00 | |
| DL1XH-west | 2026-08-31 01:17:00 | 50.76036 | 9.81584 | 60° | 18km/h | 20687m | 1.6m/s | -54°C | 0.6% | 52.6hPa | 2.5V | 02:31:09 | 02:44:12 | 00:00:00 | |
| HSKMA3-T | 2026-08-31 01:16:58 | 50.76031 | 9.81571 | 64° | 18km/h | 20682m | 2.6m/s | -54°C | 0.6% | 52.6hPa | 2.5V | 02:31:09 | 02:44:10 | 00:00:00 | |
| BIOWL1-15 | 2026-08-31 01:16:56 | 50.76028 | 9.81558 | 71° | 16km/h | 20677m | 2.1m/s | -53.9°C | 0.6% | 52.7hPa | 2.5V | 02:31:09 | 02:44:08 | 00:00:00 | |
| DL1XH1-15 | 2026-08-31 01:16:55 | 50.76027 | 9.81553 | 72° | 13km/h | 20675m | 1.8m/s | -53.9°C | 3.9% | 52.7hPa | 2.5V | 02:31:05 | 02:44:07 | 00:00:00 | |
| DF8AY | 2026-08-31 01:16:54 | 50.76026 | 9.81548 | 72° | 11km/h | 20674m | 1.8m/s | -53.9°C | 0.6% | 52.7hPa | 2.5V | 02:31:09 | 02:44:06 | 00:00:00 | |
| EDDB2-12 | 2026-08-31 01:16:54 | 50.76025 | 9.81544 | 65° | 9km/h | 20672m | 2.0m/s | -53.9°C | 1.1% | 52.7hPa | 2.5V | 00:00:00 | 00:00:00 | 00:00:00 | |
| GOEST3-10 | 2026-08-31 01:16:53 | 50.76025 | 9.81544 | 66° | 11km/h | 20672m | 2.0m/s | 0°C | 0% | 0hPa | 2.5V | 02:31:00 | 02:44:05 | 00:00:00 | |
| DM0DOS-11 | 2026-08-31 01:16:52 | 50.76020 | 9.81534 | 42° | 11km/h | 20664m | 2.4m/s | -53.9°C | 3.9% | 52.8hPa | 2.5V | 02:31:10 | 02:44:02 | 00:00:00 | |
| DL1XH-15 | 2026-08-31 01:16:51 | 50.76009 | 9.81518 | 47° | 18km/h | 20657m | 2.1m/s | -53.8°C | 3.9% | 52.8hPa | 2.6V | 02:31:14 | 02:43:58 | 00:00:00 | |
| SFWM-10 | 2026-08-31 01:16:51 | 50.76022 | 9.81537 | 49° | 11km/h | 20667m | 2.6m/s | -53.9°C | 1.1% | 52.7hPa | 2.5V | 02:31:00 | 00:00:00 | 00:00:00 | |
| DL1XH1-15 | 2026-08-31 01:16:50 | 50.76006 | 9.81512 | 51° | 18km/h | 20654m | 2.6m/s | -53.8°C | 3.9% | 52.9hPa | 2.5V | 02:31:15 | 02:43:57 | 00:00:00 | |
| DL1XH-west | 2026-08-31 01:16:49 | 50.76018 | 9.81531 | 40° | 15km/h | 20662m | 2m/s | -53.8°C | 0.6% | 52.8hPa | 2.5V | 02:32:00 | 02:44:01 | 00:00:00 | |
| HSKMA3-T | 2026-08-31 01:16:48 | 50.76015 | 9.81527 | 41° | 15km/h | 20660m | 1.7m/s | -53.8°C | 0.6% | 52.8hPa | 2.5V | 02:32:00 | 02:44:00 | 00:00:00 | |
| AA1-15 | 2026-08-31 01:16:45 | 50.76006 | 9.81512 | 51° | 18km/h | 20654m | 2.6m/s | -53.8°C | 0.6% | 52.9hPa | 2.5V | 02:32:00 | 02:43:57 | 00:00:00 | |
| DF8AY | 2026-08-31 01:16:43 | 50.76001 | 9.81501 | 60° | 16km/h | 20650m | 2.2m/s | -53.7°C | 0.5% | 52.9hPa | 2.5V | 02:32:00 | 02:43:55 | 00:00:00 | |
| DM0DOS-11 | 2026-08-31 01:16:41 | 50.75996 | 9.81485 | 61° | 15km/h | 20644m | 1.5m/s | -53.7°C | 3.8% | 52.9hPa | 2.5V | 02:31:20 | 02:43:52 | 00:00:00 | |
| DL1XH1-15 | 2026-08-31 01:16:40 | 50.75984 | 9.81460 | 48° | 18km/h | 20634m | 1.7m/s | -53.6°C | 3.8% | 53hPa | 2.5V | 02:31:25 | 02:43:47 | 00:00:00 | |
| DO2JMG | 2026-08-31 01:16:38 | 50.75992 | 9.81475 | 53° | 15km/h | 20640m | 2.2m/s | -53.7°C | 0.5% | 53hPa | 2.5V | 02:32:51 | 02:43:50 | 00:00:00 | |
| HSKMA3-T | 2026-08-31 01:16:37 | 50.75990 | 9.81470 | 50° | 16km/h | 20638m | 2.3m/s | -53.6°C | 0.5% | 53hPa | 2.5V | 02:32:00 | 02:43:49 | 00:00:00 | |
| AA1-15 | 2026-08-31 01:16:34 | 50.75981 | 9.81455 | 49° | 18km/h | 20632m | 1.4m/s | -53.6°C | 0.5% | 53hPa | 2.5V | 02:32:00 | 02:43:46 | 00:00:00 | |
| BIOWL1-15 | 2026-08-31 01:16:32 | 50.75975 | 9.81443 | 51° | 20km/h | 20629m | 2m/s | -53.6°C | 0.5% | 53.1hPa | 2.6V | 02:32:00 | 02:43:44 | 00:00:00 | |
| DL3AQ-11 | 2026-08-31 01:16:32 | 50.75975 | 9.81443 | 51° | 18km/h | 20629m | 2.0m/s | -53.6°C | 1.0% | 53.1hPa | 2.6V | 00:00:00 | 00:00:00 | 00:00:00 | |
| DJ2DS-15 | 2026-08-31 01:16:31 | 50.75971 | 9.81437 | 53° | 15km/h | 20627m | 2.2m/s | -53.5°C | 3.8% | 53.1hPa | 2.6V | 00:00:00 | 02:43:43 | 00:00:00 | |
| DL1XH1-15 | 2026-08-31 01:16:30 | 50.75957 | 9.81409 | 42° | 13km/h | 20616m | 2.1m/s | -53.4°C | 3.8% | 53.2hPa | 2.6V | 02:31:35 | 02:43:37 | 00:00:00 | |
| DL1XH-west | 2026-08-31 01:16:28 | 50.75964 | 9.81421 | 53° | 15km/h | 20621m | 1.5m/s | -53.5°C | 0.6% | 53.1hPa | 2.5V | 02:32:00 | 02:43:40 | 00:00:00 | |
| HSKMA3-T | 2026-08-31 01:16:27 | 50.75962 | 9.81417 | 51° | 13km/h | 20619m | 1.5m/s | -53.5°C | 0.5% | 53.1hPa | 2.5V | 02:32:00 | 02:43:39 | 00:00:00 | |
| DO2JMG | 2026-08-31 01:16:26 | 50.75960 | 9.81413 | 47° | 13km/h | 20618m | 1.8m/s | -53.5°C | 0.6% | 53.2hPa | 2.5V | 02:32:51 | 02:43:38 | 00:00:00 | |
| DM0DOS-11 | 2026-08-31 01:16:24 | 50.75941 | 9.81384 | 54° | 16km/h | 20603m | 1.9m/s | -53.3°C | 3.8% | 53.3hPa | 2.6V | 02:31:41 | 02:43:31 | 00:00:00 | |
| AA1-15 | 2026-08-31 01:16:23 | 50.75952 | 9.81401 | 40° | 15km/h | 20611m | 2.2m/s | -53.4°C | 0.5% | 53.2hPa | 2.5V | 02:32:00 | 02:43:35 | 00:00:00 | |
| DF8AY | 2026-08-31 01:16:21 | 50.75947 | 9.81393 | 46° | 16km/h | 20607m | 1.8m/s | -53.4°C | 0.5% | 53.3hPa | 2.5V | 02:32:00 | 02:43:33 | 00:00:00 | |
| DL1XH-west | 2026-08-31 01:16:17 | 50.75937 | 9.81373 | 63° | 15km/h | 20599m | 2.2m/s | -53.3°C | 0.5% | 53.3hPa | 2.5V | 02:32:00 | 02:43:29 | 00:00:00 | |
| HSKMA3-T | 2026-08-31 01:16:16 | 50.75936 | 9.81368 | 65° | 15km/h | 20597m | 2m/s | -53.3°C | 0.4% | 53.3hPa | 2.5V | 02:32:00 | 02:43:28 | 00:00:00 | |
| DO2JMG | 2026-08-31 01:16:15 | 50.75934 | 9.81363 | 67° | 13km/h | 20595m | 1.8m/s | -53.3°C | 0.5% | 53.4hPa | 2.5V | 02:32:51 | 02:43:27 | 00:00:00 | |
| SONCRA | 2026-08-31 01:16:15 | 50.75933 | 9.81359 | 63° | 11km/h | 20594m | 1.7m/s | -53.3°C | 1.0% | 53.4hPa | 2.5V | 00:00:00 | 00:00:00 | 00:00:00 | |
| DO8TBO-1 | 2026-08-31 01:16:14 | 50.75933 | 9.81359 | 64° | 13km/h | 20594m | 1.6m/s | -53.2°C | 3.7% | 53.3hPa | 2.5V | 00:00:00 | 02:43:26 | 00:00:00 | |
| DM0DOS-11 | 2026-08-31 01:16:13 | 50.75921 | 9.81339 | 39° | 15km/h | 20582m | 1.7m/s | -53.2°C | 3.7% | 53.4hPa | 2.5V | 02:31:52 | 02:43:20 | 00:00:00 | |
| DF8AY | 2026-08-31 01:16:12 | 50.75929 | 9.81348 | 45° | 11km/h | 20589m | 2m/s | -53.2°C | 0.5% | 53.4hPa | 2.5V | 02:32:00 | 02:43:23 | 00:00:00 | |
| BIOWL1-15 | 2026-08-31 01:16:12 | 50.75930 | 9.81352 | 53° | 11km/h | 20590m | 1.8m/s | -53.2°C | 0.5% | 53.4hPa | 2.6V | 02:32:00 | 02:43:24 | 00:00:00 | |
| DL1XH-west | 2026-08-31 01:16:07 | 50.75919 | 9.81335 | 42° | 15km/h | 20581m | 1.7m/s | -53.2°C | 0.5% | 53.5hPa | 2.5V | 02:32:00 | 02:43:19 | 00:00:00 | |
| HSKMA3-T | 2026-08-31 01:16:05 | 50.75913 | 9.81327 | 49° | 15km/h | 20577m | 1.8m/s | -53.2°C | 0.5% | 53.5hPa | 2.6V | 02:32:00 | 02:43:17 | 00:00:00 | |
| DO2JMG | 2026-08-31 01:16:02 | 50.75908 | 9.81314 | 57° | 11km/h | 20571m | 2.2m/s | -53.1°C | 0.5% | 53.5hPa | 2.5V | 02:32:51 | 02:43:14 | 00:00:00 | |
| AA1-15 | 2026-08-31 01:16:01 | 50.75907 | 9.81311 | 53° | 9km/h | 20569m | 1.9m/s | -53.1°C | 0.5% | 53.5hPa | 2.5V | 02:32:00 | 02:43:13 | 00:00:00 | |
| DF8AY | 2026-08-31 01:16:00 | 50.75905 | 9.81309 | 45° | 7km/h | 20568m | 1.6m/s | -53°C | 0.4% | 53.6hPa | 2.5V | 02:32:00 | 02:43:12 | 00:00:00 | |
| DL1XH1-15 | 2026-08-31 01:16:00 | 50.75893 | 9.81300 | 22° | 15km/h | 20558m | 1.9m/s | -53°C | 3.7% | 53.6hPa | 2.5V | 02:32:05 | 02:43:07 | 00:00:00 | |
| HSKMA3-T | 2026-08-31 01:15:55 | 50.75890 | 9.81298 | 27° | 16km/h | 20557m | 1.8m/s | -53°C | 0.5% | 53.7hPa | 2.5V | 02:32:51 | 02:43:06 | 00:00:00 | |
| DO2JMG | 2026-08-31 01:15:51 | 50.75879 | 9.81286 | 39° | 18km/h | 20551m | 2.1m/s | -52.9°C | 0.5% | 53.7hPa | 2.6V | 02:32:51 | 02:43:03 | 00:00:00 | |
| BIOWL1-15 | 2026-08-31 01:15:51 | 50.75838 | 9.81241 | 33° | 18km/h | 20525m | 1.8m/s | -52.9°C | 0.4% | 53.9hPa | 2.6V | 02:32:51 | 02:42:50 | 00:00:00 | |
| DM0DOS-11 | 2026-08-31 01:15:50 | 50.75870 | 9.81273 | 44° | 15km/h | 20545m | 2.1m/s | -52.9°C | 3.7% | 53.8hPa | 2.5V | 02:32:12 | 02:43:00 | 00:00:00 | |
| DF8AY | 2026-08-31 01:15:50 | 50.75876 | 9.81282 | 42° | 16km/h | 20549m | 2.3m/s | -52.9°C | 0.4% | 53.7hPa | 2.5V | 02:32:51 | 02:43:02 | 00:00:00 | |
| BIOWL9-15 | 2026-08-31 01:15:49 | 50.75873 | 9.81277 | 44° | 15km/h | 20547m | 2.3m/s | -52.9°C | 1.0% | 53.8hPa | 2.6V | 00:00:00 | 00:00:00 | 00:00:00 | |
| DC4HF-4 | 2026-08-31 01:15:47 | 50.75867 | 9.81269 | 43° | 13km/h | 20543m | 1.9m/s | -52.9°C | 1.0% | 53.8hPa | 2.6V | 00:00:00 | 00:00:00 | 00:00:00 | |
| DL1XH1-15 | 2026-08-31 01:15:45 | 50.75862 | 9.81262 | 35° | 13km/h | 20539m | 1.9m/s | -52.9°C | 3.7% | 53.8hPa | 2.6V | 02:32:15 | 02:42:57 | 00:00:00 | |
| DL1XH-west | 2026-08-31 01:15:45 | 50.75862 | 9.81262 | 36° | 13km/h | 20539m | 1.9m/s | -52.9°C | 0.4% | 53.8hPa | 2.6V | 02:32:51 | 02:42:57 | 00:00:00 | |
| HSKMA3-T | 2026-08-31 01:15:43 | 50.75856 | 9.81256 | 27° | 15km/h | 20535m | 2.1m/s | -52.9°C | 0.4% | 53.9hPa | 2.5V | 02:32:51 | 02:42:55 | 00:00:00 | |
| DO2JMG | 2026-08-31 01:15:41 | 50.75849 | 9.81251 | 26° | 16km/h | 20531m | 1.9m/s | -52.9°C | 0.4% | 53.9hPa | 2.5V | 02:32:51 | 02:42:53 | 00:00:00 | |
| DM0DOS-11 | 2026-08-31 01:15:40 | 50.75838 | 9.81241 | 32° | 18km/h | 20525m | 1.8m/s | -52.9°C | 3.6% | 53.9hPa | 2.6V | 02:32:22 | 02:42:50 | 00:00:00 | |
| BIOWL1-15 | 2026-08-31 01:15:40 | 50.75825 | 9.81224 | 46° | 16km/h | 20517m | 1.8m/s | -52.9°C | 0.5% | 54hPa | 2.5V | 02:32:51 | 02:42:46 | 00:00:00 | |
| AA1-15 | 2026-08-31 01:15:39 | 50.75842 | 9.81245 | 30° | 18km/h | 20527m | 1.7m/s | -52.9°C | 0.5% | 53.9hPa | 2.5V | 02:32:51 | 02:42:51 | 00:00:00 | |
| DJ2KF-10 | 2026-08-31 01:15:39 | 50.75842 | 9.81245 | 30° | 13km/h | 20527m | 1.6m/s | -52.9°C | 3.7% | 53.9hPa | 2.5V | 02:32:00 | 02:42:51 | 00:00:00 | |
| DL8OAI-8 | 2026-08-31 01:15:37 | 50.75838 | 9.81241 | 34° | 18km/h | 20526m | 1.8m/s | -52.9°C | 1.1% | 53.9hPa | 2.5V | 00:00:00 | 00:00:00 | 00:00:00 | |
| DL1XH1-15 | 2026-08-31 01:15:35 | 50.75827 | 9.81228 | 43° | 16km/h | 20519m | 2m/s | -52.9°C | 3.7% | 54hPa | 2.5V | 02:32:25 | 02:42:47 | 00:00:00 | |
| DL1XH-west | 2026-08-31 01:15:35 | 50.75827 | 9.81228 | 43° | 16km/h | 20519m | 2m/s | -52.9°C | 0.5% | 54hPa | 2.5V | 02:32:51 | 02:42:47 | 00:00:00 | |
| HSKMA3-T | 2026-08-31 01:15:32 | 50.75819 | 9.81215 | 48° | 15km/h | 20514m | 1.8m/s | -52.9°C | 0.4% | 54hPa | 2.5V | 02:32:51 | 02:42:44 | 00:00:00 | |
| DO2JMG | 2026-08-31 01:15:31 | 50.75817 | 9.81211 | 45° | 15km/h | 20512m | 1.9m/s | -52.9°C | 0.4% | 54hPa | 2.6V | 02:32:51 | 02:42:43 | 00:00:00 | |
| DF8AY | 2026-08-31 01:15:29 | 50.75812 | 9.81204 | 40° | 15km/h | 20508m | 2.1m/s | -52.9°C | 0.4% | 54.1hPa | 2.5V | 02:32:51 | 02:42:41 | 00:00:00 | |
| AA1-15 | 2026-08-31 01:15:28 | 50.75809 | 9.81200 | 38° | 15km/h | 20506m | 2m/s | -52.9°C | 0.4% | 54.1hPa | 2.5V | 02:32:51 | 02:42:40 | 00:00:00 | |
| BIOWL1-15 | 2026-08-31 01:15:27 | 50.75760 | 9.81132 | 44° | 11km/h | 20465m | 1.8m/s | -53.2°C | 0.5% | 54.5hPa | 2.5V | 02:33:42 | 02:42:18 | 00:00:00 | |
| DL1XH1-15 | 2026-08-31 01:15:25 | 50.75801 | 9.81190 | 39° | 13km/h | 20501m | 1.9m/s | -52.9°C | 3.6% | 54.1hPa | 2.5V | 02:32:35 | 02:42:37 | 00:00:00 | |
| DL1XH-west | 2026-08-31 01:15:24 | 50.75798 | 9.81187 | 41° | 13km/h | 20499m | 2m/s | -52.9°C | 0.4% | 54.1hPa | 2.6V | 02:32:51 | 02:42:36 | 00:00:00 | |
| DM0DOS-11 | 2026-08-31 01:15:23 | 50.75778 | 9.81151 | 42° | 11km/h | 20482m | 1.9m/s | -53.2°C | 3.7% | 54.3hPa | 2.5V | 02:32:45 | 02:42:27 | 00:00:00 | |
| HSKMA3-T | 2026-08-31 01:15:22 | 50.75791 | 9.81175 | 49° | 13km/h | 20493m | 1.8m/s | -53°C | 0.4% | 54.2hPa | 2.5V | 02:32:51 | 02:42:33 | 00:00:00 | |
| DO2JMG | 2026-08-31 01:15:22 | 50.75780 | 9.81155 | 46° | 13km/h | 20484m | 1.9m/s | -53.2°C | 0.5% | 54.3hPa | 2.5V | 02:32:51 | 02:42:28 | 00:00:00 | |
| DF8AY | 2026-08-31 01:15:20 | 50.75783 | 9.81159 | 50° | 13km/h | 20486m | 2.1m/s | -53.1°C | 0.4% | 54.3hPa | 2.6V | 02:32:51 | 02:42:29 | 00:00:00 | |
| AA1-15 | 2026-08-31 01:15:19 | 50.75778 | 9.81151 | 42° | 11km/h | 20482m | 2m/s | -53.2°C | 0.5% | 54.3hPa | 2.5V | 02:32:51 | 02:42:27 | 00:00:00 | |
| DL1XH1-15 | 2026-08-31 01:15:19 | 50.75778 | 9.81151 | 42° | 11km/h | 20482m | 1.9m/s | -53.2°C | 3.7% | 54.3hPa | 2.5V | 02:32:45 | 02:42:27 | 00:00:00 | |
| DL1XH-west | 2026-08-31 01:15:15 | 50.75774 | 9.81146 | 33° | 11km/h | 20479m | 1.9m/s | -53.2°C | 0.5% | 54.3hPa | 2.5V | 02:32:51 | 02:42:25 | 00:00:00 | |
| SONCRA | 2026-08-31 01:15:13 | 50.75772 | 9.81144 | 28° | 9km/h | 20477m | 1.8m/s | -53.2°C | 1.1% | 54.3hPa | 2.5V | 00:00:00 | 00:00:00 | 00:00:00 | |
| DL1XH-15 | 2026-08-31 01:15:12 | 50.75760 | 9.81132 | 43° | 11km/h | 20465m | 1.8m/s | -53.2°C | 3.7% | 54.4hPa | 2.5V | 02:32:54 | 02:42:18 | 00:00:00 | |
| HSKMA3-T | 2026-08-31 01:15:11 | 50.75770 | 9.81142 | 26° | 9km/h | 20475m | 2m/s | -53.2°C | 0.5% | 54.4hPa | 2.6V | 02:32:51 | 02:42:23 | 00:00:00 | |
| DO2JMG | 2026-08-31 01:15:08 | 50.75764 | 9.81137 | 34° | 9km/h | 20469m | 1.9m/s | 0°C | 0% | 54.4hPa | 2.5V | 02:33:42 | 02:42:20 | 00:00:00 | |
| AA1-15 | 2026-08-31 01:15:04 | 50.75756 | 9.81126 | 44° | 11km/h | 20462m | 1.9m/s | -53.2°C | 0.5% | 54.5hPa | 2.6V | 02:33:42 | 02:42:16 | 00:00:00 | |
| DL1XH-west | 2026-08-31 01:15:03 | 50.75751 | 9.81120 | 40° | 13km/h | 20458m | 1.8m/s | -53.2°C | 0.5% | 54.5hPa | 2.5V | 02:33:42 | 02:42:14 | 00:00:00 | |
| HSKMA3-T | 2026-08-31 01:15:01 | 50.75749 | 9.81117 | 34° | 13km/h | 20457m | 1.6m/s | -53.2°C | 0.5% | 54.5hPa | 2.5V | 02:33:42 | 02:42:13 | 00:00:00 | |
| DF8AY | 2026-08-31 01:14:57 | 50.75739 | 9.81110 | 11° | 11km/h | 20449m | 2m/s | -53.2°C | 0.5% | 54.5hPa | 2.6V | 02:33:42 | 02:42:09 | 00:00:00 | |
| BIOWL1-15 | 2026-08-31 01:14:55 | 50.75734 | 9.81109 | 4° | 9km/h | 20446m | 1.9m/s | -53.2°C | 0.5% | 54.6hPa | 2.5V | 02:33:42 | 02:42:07 | 00:00:00 | |
| AA1-15 | 2026-08-31 01:14:53 | 50.75729 | 9.81108 | 8° | 9km/h | 20442m | 2m/s | -53.2°C | 0.5% | 54.6hPa | 2.5V | 02:33:42 | 02:42:05 | 00:00:00 | |
| DL1XH-west | 2026-08-31 01:14:52 | 50.75727 | 9.81108 | 17° | 7km/h | 20440m | 2.1m/s | -53.2°C | 0.4% | 54.6hPa | 2.5V | 02:33:42 | 02:42:04 | 00:00:00 | |
| HSKMA3-T | 2026-08-31 01:14:50 | 50.75724 | 9.81105 | 37° | 7km/h | 20435m | 2.1m/s | -53.3°C | 0.5% | 54.7hPa | 2.6V | 02:33:42 | 02:42:02 | 00:00:00 | |
| DM0DOS-11 | 2026-08-31 01:14:50 | 50.75718 | 9.81095 | 35° | 5km/h | 20426m | 1.9m/s | -53.3°C | 3.7% | 54.8hPa | 2.5V | 02:33:15 | 02:41:57 | 00:00:00 | |
| DO2JMG | 2026-08-31 01:14:47 | 50.75720 | 9.81099 | 49° | 7km/h | 20430m | 1.8m/s | 0°C | 0% | 54.7hPa | 2.5V | 02:33:42 | 02:41:59 | 00:00:00 | |
| DF8AY | 2026-08-31 01:14:47 | 50.75718 | 9.81097 | 43° | 5km/h | 20428m | 1.7m/s | -53.3°C | 0.6% | 54.8hPa | 2.5V | 02:33:42 | 02:41:58 | 00:00:00 | |
| BIOWL1-15 | 2026-08-31 01:14:45 | 50.75717 | 9.81095 | 36° | 5km/h | 20426m | 1.9m/s | -53.3°C | 0.5% | 54.8hPa | 2.5V | 02:33:42 | 02:41:57 | 00:00:00 | |
| AA1-15 | 2026-08-31 01:14:42 | 50.75714 | 9.81095 | 342° | 5km/h | 20420m | 2m/s | -53.3°C | 0.6% | 54.8hPa | 2.5V | 02:33:42 | 02:41:54 | 00:00:00 | |
| DL1XH-west | 2026-08-31 01:14:41 | 50.75712 | 9.81096 | 334° | 7km/h | 20418m | 2m/s | -53.3°C | 0.6% | 54.9hPa | 2.5V | 02:33:42 | 02:41:53 | 00:00:00 | |
| DL1XH-15 | 2026-08-31 01:14:41 | 50.75702 | 9.81101 | 354° | 9km/h | 20408m | 2m/s | -53.3°C | 3.8% | 54.9hPa | 2.6V | 02:33:24 | 02:41:48 | 00:00:00 | |
| HSKMA3-T | 2026-08-31 01:14:40 | 50.75710 | 9.81097 | 336° | 7km/h | 20416m | 2m/s | -53.3°C | 0.5% | 54.9hPa | 2.5V | 02:33:42 | 02:41:52 | 00:00:00 | |
| DO2JMG | 2026-08-31 01:14:37 | 50.75704 | 9.81101 | 347° | 9km/h | 20410m | 2.1m/s | 0°C | 0% | 54.9hPa | 2.6V | 02:33:42 | 02:41:49 | 00:00:00 | |
| BIOWL1-15 | 2026-08-31 01:14:36 | 50.75697 | 9.81101 | 8° | 9km/h | 20404m | 2m/s | -53.3°C | 0.7% | 55hPa | 2.5V | 02:33:42 | 02:41:46 | 00:00:00 | |
| DF8AY | 2026-08-31 01:14:36 | 50.75702 | 9.81101 | 355° | 9km/h | 20408m | 2m/s | -53.3°C | 0.6% | 54.9hPa | 2.6V | 02:33:42 | 02:41:48 | 00:00:00 | |
| AA1-15 | 2026-08-31 01:14:31 | 50.75691 | 9.81098 | 16° | 9km/h | 20397m | 2.1m/s | -53.4°C | 0.6% | 55hPa | 2.5V | 02:33:42 | 02:41:43 | 00:00:00 | |
| HSKMA3-T | 2026-08-31 01:14:29 | 50.75687 | 9.81097 | 8° | 7km/h | 20393m | 1.9m/s | -53.4°C | 0.6% | 55hPa | 2.6V | 02:33:42 | 02:41:41 | 00:00:00 | |
| DL1XH1-15 | 2026-08-31 01:14:26 | 50.75679 | 9.81097 | 349° | 7km/h | 20386m | 2.3m/s | -53.3°C | 3.8% | 55.1hPa | 2.5V | 02:33:35 | 02:41:37 | 00:00:00 | |
| DF8AY | 2026-08-31 01:14:26 | 50.75681 | 9.81097 | 354° | 7km/h | 20388m | 2m/s | -53.3°C | 0.6% | 55.1hPa | 2.5V | 02:33:42 | 02:41:38 | 00:00:00 | |
| BIOWL1-15 | 2026-08-31 01:14:24 | 50.75673 | 9.81099 | 346° | 7km/h | 20380m | 1.8m/s | -53.3°C | 0.5% | 55.2hPa | 2.5V | 02:33:42 | 02:41:34 | 00:00:00 | |
| AA1-15 | 2026-08-31 01:14:20 | 50.75669 | 9.81101 | 350° | 7km/h | 20376m | 1.7m/s | -53.3°C | 0.5% | 55.2hPa | 2.5V | 02:33:42 | 02:41:32 | 00:00:00 | |
| HSKMA3-T | 2026-08-31 01:14:18 | 50.75666 | 9.81101 | 359° | 7km/h | 20372m | 1.9m/s | -53.2°C | 0.5% | 55.2hPa | 2.5V | 02:33:42 | 02:41:30 | 00:00:00 | |
| DL1XH1-15 | 2026-08-31 01:14:16 | 50.75661 | 9.81101 | 3° | 5km/h | 20366m | 1.9m/s | -53.2°C | 3.7% | 55.3hPa | 2.6V | 02:33:45 | 02:41:27 | 00:00:00 | |
| DL1XH-west | 2026-08-31 01:14:15 | 50.75661 | 9.81101 | 4° | 5km/h | 20366m | 1.9m/s | -53.2°C | 0.5% | 55.3hPa | 2.6V | 02:34:33 | 02:41:27 | 00:00:00 | |
| DO2JMG | 2026-08-31 01:14:14 | 50.75660 | 9.81101 | 5° | 5km/h | 20365m | 2.2m/s | 0°C | 0% | 55.3hPa | 2.5V | 02:34:33 | 02:41:26 | 00:00:00 | |
| BIOWL1-15 | 2026-08-31 01:14:13 | 50.75656 | 9.81100 | 19° | 5km/h | 20358m | 2.3m/s | -53.2°C | 0.5% | 55.4hPa | 2.5V | 02:34:33 | 02:41:23 | 00:00:00 | |
| DO8TBO-1 | 2026-08-31 01:14:13 | 50.75659 | 9.81101 | 12° | 4km/h | 20362m | 2.2m/s | -53.1°C | 3.7% | 55.3hPa | 2.5V | 02:33:00 | 02:41:25 | 00:00:00 | |
| DL1XH-15 | 2026-08-31 01:14:11 | 50.75650 | 9.81093 | 58° | 5km/h | 20346m | 2.4m/s | -53.2°C | 3.8% | 55.5hPa | 2.5V | 02:33:54 | 02:41:18 | 00:00:00 | |
| AA1-15 | 2026-08-31 01:14:09 | 50.75653 | 9.81098 | 30° | 5km/h | 20353m | 2.2m/s | -53.2°C | 0.5% | 55.4hPa | 2.6V | 02:34:33 | 02:41:21 | 00:00:00 | |
| EDDB2-11 | 2026-08-31 01:14:09 | 50.75652 | 9.81097 | 38° | 5km/h | 20351m | 2.2m/s | -53.2°C | 1.1% | 55.4hPa | 2.5V | 00:00:00 | 00:00:00 | 00:00:00 | |
| DM0DOS-11 | 2026-08-31 01:14:07 | 50.75650 | 9.81091 | 66° | 5km/h | 20344m | 2.3m/s | -53.2°C | 3.8% | 55.5hPa | 2.5V | 02:33:55 | 02:41:17 | 00:00:00 | |
| HSKMA3-T | 2026-08-31 01:14:07 | 50.75651 | 9.81095 | 51° | 5km/h | 20349m | 2.3m/s | -53.2°C | 0.5% | 55.4hPa | 2.5V | 02:34:33 | 02:41:19 | 00:00:00 | |
| DL1XH-west | 2026-08-31 01:14:05 | 50.75650 | 9.81091 | 67° | 5km/h | 20344m | 2.3m/s | -53.2°C | 0.5% | 55.5hPa | 2.5V | 02:34:33 | 02:41:17 | 00:00:00 | |
| DO2JMG | 2026-08-31 01:14:03 | 50.75649 | 9.81088 | 82° | 4km/h | 20340m | 2.2m/s | 0°C | 0% | 0hPa | 2.6V | 02:34:33 | 02:41:15 | 00:00:00 | |
| BIOWL1-15 | 2026-08-31 01:14:02 | 50.75649 | 9.81085 | 85° | 4km/h | 20335m | 2.4m/s | -53.1°C | 0.5% | 55.5hPa | 2.5V | 02:34:33 | 02:41:13 | 00:00:00 | |
| DL1XH-15 | 2026-08-31 01:14:01 | 50.75648 | 9.81080 | 72° | 4km/h | 20323m | 2.2m/s | -53.1°C | 3.6% | 55.6hPa | 2.6V | 02:34:04 | 02:41:08 | 00:00:00 | |
| AA1-15 | 2026-08-31 01:13:58 | 50.75649 | 9.81082 | 70° | 4km/h | 20328m | 2.2m/s | -53.1°C | 0.4% | 55.6hPa | 2.5V | 02:34:33 | 02:41:10 | 00:00:00 | |
| DL1XH1-15 | 2026-08-31 01:13:56 | 50.75648 | 9.81078 | 78° | 4km/h | 20321m | 2.2m/s | -53.1°C | 3.6% | 55.7hPa | 2.6V | 02:34:05 | 02:41:07 | 00:00:00 | |
| HSKMA3-T | 2026-08-31 01:13:56 | 50.75648 | 9.81080 | 72° | 4km/h | 20323m | 2.2m/s | -53.1°C | 0.4% | 55.6hPa | 2.6V | 02:34:33 | 02:41:08 | 00:00:00 | |
| DL1XH-west | 2026-08-31 01:13:54 | 50.75648 | 9.81077 | 81° | 4km/h | 20319m | 2.3m/s | -53.1°C | 0.4% | 55.7hPa | 2.5V | 02:34:33 | 02:41:06 | 00:00:00 | |
| DO2JMG | 2026-08-31 01:13:53 | 50.75647 | 9.81075 | 88° | 4km/h | 20317m | 2.3m/s | 0°C | 0% | 0hPa | 2.5V | 02:34:33 | 02:41:05 | 00:00:00 | |
| BIOWL1-15 | 2026-08-31 01:13:51 | 50.75648 | 9.81068 | 95° | 4km/h | 20307m | 2m/s | -53.4°C | 0.5% | 55.8hPa | 2.6V | 02:34:33 | 02:41:00 | 00:00:00 | |
| DL1XH1-15 | 2026-08-31 01:13:50 | 50.75648 | 9.81064 | 74° | 4km/h | 20301m | 2.1m/s | -53.4°C | 3.7% | 55.8hPa | 2.5V | 02:34:15 | 02:40:57 | 00:00:00 | |
| AA1-15 | 2026-08-31 01:13:47 | 50.75648 | 9.81067 | 89° | 4km/h | 20305m | 2.1m/s | -53.4°C | 0.5% | 55.8hPa | 2.5V | 02:34:33 | 02:40:59 | 00:00:00 | |
| HSKMA3-T | 2026-08-31 01:13:46 | 50.75648 | 9.81065 | 82° | 4km/h | 20303m | 2m/s | -53.4°C | 0.5% | 55.8hPa | 2.5V | 02:34:33 | 02:40:58 | 00:00:00 | |
| DL1XH-west | 2026-08-31 01:13:44 | 50.75647 | 9.81062 | 70° | 5km/h | 20299m | 1.9m/s | -53.4°C | 0.5% | 55.9hPa | 2.5V | 02:34:33 | 02:40:56 | 00:00:00 | |
| DF8AY | 2026-08-31 01:13:43 | 50.75647 | 9.81060 | 67° | 5km/h | 20297m | 1.9m/s | -53.4°C | 0.5% | 55.9hPa | 2.5V | 02:34:33 | 02:40:55 | 00:00:00 | |
| DO2JMG | 2026-08-31 01:13:42 | 50.75646 | 9.81058 | 69° | 5km/h | 20295m | 2m/s | 0°C | 0% | 0hPa | 2.6V | 02:34:33 | 02:40:54 | 00:00:00 | |
| DL1XH-15 | 2026-08-31 01:13:41 | 50.75644 | 9.81038 | 88° | 9km/h | 20282m | 2m/s | -53.3°C | 3.7% | 56hPa | 2.5V | 02:34:24 | 02:40:48 | 00:00:00 | |
| BIOWL1-15 | 2026-08-31 01:13:39 | 50.75645 | 9.81049 | 79° | 9km/h | 20289m | 2m/s | -53.4°C | 0.5% | 56hPa | 2.5V | 02:34:33 | 02:40:51 | 00:00:00 | |
| AA1-15 | 2026-08-31 01:13:36 | 50.75644 | 9.81038 | 89° | 9km/h | 20283m | 2m/s | -53.3°C | 0.5% | 56hPa | 2.5V | 02:34:33 | 02:40:48 | 00:00:00 | |
| HSKMA3-T | 2026-08-31 01:13:35 | 50.75644 | 9.81034 | 91° | 9km/h | 20280m | 2.3m/s | -53.3°C | 0.5% | 56hPa | 2.6V | 02:34:33 | 02:40:47 | 00:00:00 | |
| DL1XH-west | 2026-08-31 01:13:33 | 50.75644 | 9.81027 | 95° | 9km/h | 20276m | 2.2m/s | -53.3°C | 0.5% | 56.1hPa | 2.5V | 02:34:33 | 02:40:45 | 00:00:00 | |
| DF8AY | 2026-08-31 01:13:32 | 50.75645 | 9.81023 | 96° | 9km/h | 20274m | 2m/s | -53.4°C | 0.5% | 56.1hPa | 2.5V | 02:34:33 | 02:40:44 | 00:00:00 | |
| DL1XH-15 | 2026-08-31 01:13:31 | 50.75647 | 9.81001 | 100° | 9km/h | 20261m | 1.8m/s | -53.4°C | 3.7% | 56.2hPa | 2.5V | 02:34:34 | 02:40:38 | 00:00:00 | |
| DO2JMG | 2026-08-31 01:13:31 | 50.75645 | 9.81019 | 99° | 9km/h | 20272m | 2.1m/s | 0°C | 0% | 0hPa | 2.5V | 02:34:33 | 02:40:43 | 00:00:00 | |
| DJ2DS-15 | 2026-08-31 01:13:31 | 50.75645 | 9.81019 | 100° | 13km/h | 20272m | 2.0m/s | -53.3°C | 3.8% | 56.0hPa | 2.5V | 00:00:00 | 02:40:43 | 00:00:00 | |
| DL0LBS | 2026-08-31 01:13:30 | 50.75645 | 9.81015 | 101° | 9km/h | 20270m | 2.2m/s | -53.4°C | 1.1% | 56.1hPa | 2.5V | 02:34:00 | 00:00:00 | 00:00:00 | |
| DM0DOS-11 | 2026-08-31 01:13:29 | 50.75647 | 9.80997 | 97° | 9km/h | 20259m | 1.9m/s | -53.4°C | 3.8% | 56.2hPa | 2.5V | 02:34:35 | 02:40:37 | 00:00:00 | |
| BIOWL1-15 | 2026-08-31 01:13:28 | 50.75646 | 9.81008 | 101° | 9km/h | 20265m | 2.1m/s | -53.4°C | 0.5% | 56.1hPa | 2.6V | 02:34:33 | 02:40:40 | 00:00:00 | |
| AA1-15 | 2026-08-31 01:13:25 | 50.75647 | 9.80997 | 98° | 9km/h | 20259m | 1.9m/s | -53.4°C | 0.5% | 56.2hPa | 2.5V | 02:35:24 | 02:40:37 | 00:00:00 | |
| HSKMA3-T | 2026-08-31 01:13:24 | 50.75648 | 9.80993 | 95° | 11km/h | 20258m | 2.1m/s | -53.5°C | 0.5% | 56.2hPa | 2.5V | 02:35:24 | 02:40:36 | 00:00:00 | |
| DL1XH-west | 2026-08-31 01:13:23 | 50.75648 | 9.80989 | 95° | 11km/h | 20255m | 2.1m/s | -53.5°C | 0.4% | 56.2hPa | 2.5V | 02:35:24 | 02:40:35 | 00:00:00 | |
| DF8AY | 2026-08-31 01:13:22 | 50.75648 | 9.80985 | 95° | 11km/h | 20253m | 2.3m/s | -53.5°C | 0.5% | 56.3hPa | 2.6V | 02:35:24 | 02:40:34 | 00:00:00 | |
| DO2JMG | 2026-08-31 01:13:20 | 50.75649 | 9.80975 | 98° | 13km/h | 20248m | 2.5m/s | 0°C | 0% | 0hPa | 2.5V | 18:12:15 | 02:40:32 | 00:00:00 | |
| BIOWL1-15 | 2026-08-31 01:13:17 | 50.75651 | 9.80957 | 104° | 16km/h | 20241m | 2.3m/s | -53.5°C | 0.5% | 56.4hPa | 2.5V | 02:35:24 | 02:40:29 | 00:00:00 | |
| DL1XH1-15 | 2026-08-31 01:13:16 | 50.75653 | 9.80945 | 101° | 16km/h | 20237m | 2.2m/s | -53.5°C | 3.7% | 56.4hPa | 2.6V | 02:34:45 | 02:40:27 | 00:00:00 | |
| HSKMA3-T | 2026-08-31 01:13:14 | 50.75654 | 9.80939 | 99° | 15km/h | 20235m | 2.3m/s | -53.5°C | 0.5% | 56.4hPa | 2.5V | 02:35:24 | 02:40:26 | 00:00:00 | |
| DL1XH-west | 2026-08-31 01:13:13 | 50.75654 | 9.80933 | 96° | 15km/h | 20232m | 2.3m/s | -53.6°C | 0.5% | 56.5hPa | 2.5V | 02:35:24 | 02:40:25 | 00:00:00 | |
| DF8AY | 2026-08-31 01:13:12 | 50.75654 | 9.80927 | 93° | 15km/h | 20230m | 2.4m/s | -53.6°C | 0.6% | 56.5hPa | 2.5V | 02:35:24 | 02:40:24 | 00:00:00 | |
| BIOWL1-15 | 2026-08-31 01:13:06 | 50.75655 | 9.80893 | 94° | 16km/h | 20216m | 2.2m/s | -53.7°C | 0.5% | 56.6hPa | 2.5V | 02:35:24 | 02:40:18 | 00:00:00 | |
| HSKMA3-T | 2026-08-31 01:13:04 | 50.75656 | 9.80880 | 97° | 16km/h | 20212m | 2.3m/s | -53.7°C | 0.5% | 56.6hPa | 2.5V | 02:35:24 | 02:40:16 | 00:00:00 | |
| DL1XH-west | 2026-08-31 01:13:03 | 50.75657 | 9.80866 | 96° | 18km/h | 20208m | 2.1m/s | -53.7°C | 0.6% | 56.7hPa | 2.5V | 02:35:24 | 02:40:14 | 00:00:00 | |
| DF8AY | 2026-08-31 01:13:01 | 50.75657 | 9.80859 | 95° | 16km/h | 20205m | 2m/s | -53.7°C | 0.5% | 56.7hPa | 2.6V | 02:35:24 | 02:40:13 | 00:00:00 | |
| DO2KSM | 2026-08-31 01:12:59 | 50.75658 | 9.80846 | 90° | 16km/h | 20202m | 2.3m/s | -53.7°C | 1.1% | 56.7hPa | 2.5V | 02:35:00 | 00:00:00 | 00:00:00 | |
| DM0DOS-11 | 2026-08-31 01:12:58 | 50.75655 | 9.80823 | 71° | 15km/h | 20193m | 2m/s | -53.7°C | 3.8% | 56.8hPa | 2.5V | 02:35:05 | 02:40:07 | 00:00:00 | |
| HSKMA3-T | 2026-08-31 01:12:54 | 50.75654 | 9.80818 | 71° | 15km/h | 20191m | 2m/s | -53.7°C | 0.5% | 56.8hPa | 2.6V | 02:35:24 | 02:40:06 | 00:00:00 | |
| AA1-15 | 2026-08-31 01:12:53 | 50.75653 | 9.80812 | 72° | 15km/h | 20188m | 2.2m/s | -53.7°C | 0.5% | 56.8hPa | 2.6V | 02:35:24 | 02:40:05 | 00:00:00 | |
| DL1XH-west | 2026-08-31 01:12:51 | 50.75651 | 9.80800 | 80° | 16km/h | 20184m | 2.1m/s | -53.7°C | 0.6% | 56.9hPa | 2.5V | 02:35:24 | 02:40:03 | 00:00:00 | |
| DF8AY | 2026-08-31 01:12:50 | 50.75650 | 9.80794 | 83° | 16km/h | 20182m | 1.9m/s | -53.7°C | 0.6% | 56.9hPa | 2.5V | 02:35:24 | 02:40:02 | 00:00:00 | |
| BUE01 | 2026-08-31 01:12:50 | 50.75650 | 9.80787 | 85° | 16km/h | 20180m | 2.0m/s | -53.6°C | 1.1% | 56.9hPa | 2.5V | 00:00:00 | 00:00:00 | 00:00:00 | |
| BIOWL1-15 | 2026-08-31 01:12:48 | 50.75650 | 9.80753 | 90° | 18km/h | 20170m | 2m/s | -53.6°C | 0.5% | 57hPa | 2.5V | 02:35:24 | 02:39:56 | 00:00:00 | |
| DL1XH1-15 | 2026-08-31 01:12:46 | 50.75650 | 9.80760 | 91° | 18km/h | 20172m | 2.1m/s | -53.6°C | 3.9% | 57hPa | 2.5V | 02:35:15 | 02:39:57 | 00:00:00 | |
| EDDB2-12 | 2026-08-31 01:12:45 | 50.75650 | 9.80760 | 91° | 16km/h | 20172m | 2.1m/s | -53.6°C | 1.2% | 57.0hPa | 2.5V | 00:00:00 | 00:00:00 | 00:00:00 | |
| HSKMA3-T | 2026-08-31 01:12:43 | 50.75650 | 9.80746 | 88° | 18km/h | 20168m | 1.8m/s | -53.6°C | 0.6% | 57hPa | 2.5V | 02:35:24 | 02:39:55 | 00:00:00 | |
| AA1-15 | 2026-08-31 01:12:42 | 50.75650 | 9.80739 | 85° | 18km/h | 20166m | 1.9m/s | -53.6°C | 0.6% | 57hPa | 2.5V | 02:35:24 | 02:39:54 | 00:00:00 | |
| DL1XH-west | 2026-08-31 01:12:41 | 50.75649 | 9.80732 | 81° | 18km/h | 20164m | 2.1m/s | -53.6°C | 0.6% | 57hPa | 2.6V | 02:35:24 | 02:39:53 | 00:00:00 | |
| DF8AY | 2026-08-31 01:12:39 | 50.75647 | 9.80718 | 77° | 16km/h | 20160m | 2.1m/s | -53.6°C | 0.6% | 57.1hPa | 2.5V | 02:35:24 | 02:39:51 | 00:00:00 | |
| BIOWL1-15 | 2026-08-31 01:12:36 | 50.75641 | 9.80687 | 70° | 15km/h | 20149m | 2.3m/s | -53.5°C | 0.6% | 57.2hPa | 2.6V | 02:36:15 | 02:39:46 | 00:00:00 | |
| HSKMA3-T | 2026-08-31 01:12:33 | 50.75640 | 9.80681 | 70° | 15km/h | 20147m | 2.4m/s | -53.5°C | 0.6% | 57.2hPa | 2.6V | 02:36:15 | 02:39:45 | 00:00:00 | |
| AA1-15 | 2026-08-31 01:12:32 | 50.75638 | 9.80676 | 67° | 16km/h | 20145m | 2.1m/s | -53.5°C | 0.6% | 57.2hPa | 2.5V | 02:36:15 | 02:39:44 | 00:00:00 | |
| DL1XH-west | 2026-08-31 01:12:31 | 50.75637 | 9.80670 | 65° | 16km/h | 20143m | 2.1m/s | -53.5°C | 0.6% | 57.2hPa | 2.5V | 02:36:15 | 02:39:43 | 00:00:00 | |
| DF8AY | 2026-08-31 01:12:29 | 50.75633 | 9.80658 | 64° | 18km/h | 20139m | 2m/s | -53.5°C | 0.5% | 57.3hPa | 2.5V | 02:36:15 | 02:39:41 | 00:00:00 | |
| BIOWL1-15 | 2026-08-31 01:12:25 | 50.75621 | 9.80615 | 74° | 20km/h | 20127m | 1.8m/s | -53.7°C | 0.6% | 57.4hPa | 2.5V | 02:36:15 | 02:39:35 | 00:00:00 | |
| HSKMA3-T | 2026-08-31 01:12:22 | 50.75620 | 9.80607 | 77° | 18km/h | 20125m | 2m/s | -53.7°C | 0.6% | 57.4hPa | 2.5V | 02:36:15 | 02:39:34 | 00:00:00 | |
| AA1-15 | 2026-08-31 01:12:21 | 50.75619 | 9.80600 | 79° | 18km/h | 20123m | 2.1m/s | -53.7°C | 0.6% | 57.4hPa | 2.5V | 02:36:15 | 02:39:33 | 00:00:00 | |
| DL1XH-west | 2026-08-31 01:12:20 | 50.75618 | 9.80593 | 78° | 18km/h | 20121m | 2.2m/s | -53.8°C | 0.6% | 57.4hPa | 2.6V | 02:36:15 | 02:39:32 | 00:00:00 | |
| DF8AY | 2026-08-31 01:12:18 | 50.75616 | 9.80578 | 78° | 20km/h | 20117m | 1.9m/s | -53.8°C | 0.6% | 57.5hPa | 2.5V | 02:36:15 | 02:39:30 | 00:00:00 | |
| BIOWL1-15 | 2026-08-31 01:12:15 | 50.75611 | 9.80536 | 80° | 24km/h | 20107m | 2.1m/s | -54°C | 0.7% | 57.5hPa | 2.6V | 02:36:15 | 02:39:25 | 00:00:00 | |
| HSKMA3-T | 2026-08-31 01:12:11 | 50.75610 | 9.80518 | 86° | 24km/h | 20103m | 1.8m/s | -54°C | 0.7% | 57.6hPa | 2.5V | 02:36:15 | 02:39:23 | 00:00:00 | |
| DL1XH-west | 2026-08-31 01:12:10 | 50.75609 | 9.80509 | 88° | 22km/h | 20101m | 1.9m/s | -54°C | 0.6% | 57.6hPa | 2.5V | 02:36:15 | 02:39:22 | 00:00:00 | |
| DF8AY | 2026-08-31 01:12:07 | 50.75610 | 9.80484 | 97° | 20km/h | 20095m | 2.1m/s | -54°C | 0.7% | 57.7hPa | 2.6V | 02:36:15 | 02:39:19 | 00:00:00 | |
| BIOWL1-15 | 2026-08-31 01:12:02 | 50.75613 | 9.80446 | 93° | 20km/h | 20085m | 2.2m/s | -54°C | 0.8% | 57.8hPa | 2.5V | 02:36:15 | 02:39:14 | 00:00:00 | |
| DL1XH-15 | 2026-08-31 01:12:01 | 50.75616 | 9.80394 | 102° | 24km/h | 20073m | 2.2m/s | -54°C | 3.9% | 57.9hPa | 2.5V | 02:36:04 | 02:39:08 | 00:00:00 | |
| HSKMA3-T | 2026-08-31 01:12:01 | 50.75613 | 9.80438 | 93° | 20km/h | 20083m | 2m/s | -54°C | 0.8% | 57.8hPa | 2.5V | 02:36:15 | 02:39:13 | 00:00:00 | |
| DL1XH-west | 2026-08-31 01:12:00 | 50.75613 | 9.80429 | 93° | 22km/h | 20081m | 1.9m/s | -54°C | 0.8% | 57.8hPa | 2.6V | 02:36:15 | 02:39:12 | 00:00:00 | |
| AA1-15 | 2026-08-31 01:11:59 | 50.75614 | 9.80421 | 95° | 22km/h | 20079m | 1.9m/s | -54°C | 0.8% | 57.8hPa | 2.5V | 02:36:15 | 02:39:11 | 00:00:00 | |
| DF8AY | 2026-08-31 01:11:57 | 50.75615 | 9.80403 | 100° | 24km/h | 20075m | 2.1m/s | -54°C | 0.8% | 57.9hPa | 2.5V | 02:36:15 | 02:39:09 | 00:00:00 | |
| BIOWL1-15 | 2026-08-31 01:11:53 | 50.75624 | 9.80348 | 104° | 24km/h | 20063m | 1.8m/s | -54°C | 0.7% | 58hPa | 2.5V | 02:36:15 | 02:39:03 | 00:00:00 | |
| HSKMA3-T | 2026-08-31 01:11:50 | 50.75625 | 9.80339 | 102° | 26km/h | 20061m | 1.9m/s | -54°C | 0.7% | 58hPa | 2.5V | 02:36:15 | 02:39:02 | 00:00:00 | |
| DL1XH-15 | 2026-08-31 01:11:49 | 50.75629 | 9.80300 | 94° | 24km/h | 20053m | 1.7m/s | -54°C | 3.9% | 58hPa | 2.6V | 02:36:14 | 02:38:58 | 00:00:00 | |
| DL1XH-west | 2026-08-31 01:11:49 | 50.75626 | 9.80329 | 100° | 26km/h | 20059m | 2.1m/s | -54°C | 0.6% | 58hPa | 2.5V | 02:36:15 | 02:39:01 | 00:00:00 | |
| AA1-15 | 2026-08-31 01:11:48 | 50.75627 | 9.80320 | 99° | 26km/h | 20057m | 1.9m/s | -54°C | 0.7% | 58hPa | 2.5V | 02:36:15 | 02:39:00 | 00:00:00 | |
| DF8AY | 2026-08-31 01:11:46 | 50.75629 | 9.80300 | 95° | 24km/h | 20053m | 1.7m/s | -54°C | 0.6% | 58hPa | 2.6V | 02:36:15 | 02:38:58 | 00:00:00 | |
| HSKMA3-T | 2026-08-31 01:11:40 | 50.75632 | 9.80249 | 95° | 20km/h | 20042m | 1.8m/s | -54.2°C | 0.7% | 58.1hPa | 2.5V | 02:37:06 | 02:38:52 | 00:00:00 | |
| DL1XH-15 | 2026-08-31 01:11:39 | 50.75633 | 9.80216 | 92° | 22km/h | 20034m | 2.2m/s | -54.2°C | 4% | 58.2hPa | 2.5V | 02:36:24 | 02:38:48 | 00:00:00 | |
| AA1-15 | 2026-08-31 01:11:38 | 50.75632 | 9.80233 | 94° | 22km/h | 20038m | 1.8m/s | -54.2°C | 0.7% | 58.2hPa | 2.6V | 02:37:06 | 02:38:50 | 00:00:00 | |
| DM0DOS-11 | 2026-08-31 01:11:37 | 50.75633 | 9.80207 | 89° | 24km/h | 20032m | 2.1m/s | -54.2°C | 4% | 58.2hPa | 2.5V | 02:36:25 | 02:38:47 | 00:00:00 | |
| DF8AY | 2026-08-31 01:11:36 | 50.75633 | 9.80216 | 92° | 22km/h | 20034m | 2.2m/s | -54.2°C | 0.7% | 58.2hPa | 2.5V | 02:37:06 | 02:38:48 | 00:00:00 | |
| HSKMA3-T | 2026-08-31 01:11:30 | 50.75630 | 9.80161 | 79° | 22km/h | 20022m | 2.4m/s | -54.2°C | 0.7% | 58.3hPa | 2.5V | 02:37:06 | 02:38:42 | 00:00:00 | |
| DB0UT-7 | 2026-08-31 01:11:29 | 50.75629 | 9.80152 | 78° | 24km/h | 20020m | 2.2m/s | -54.1°C | 4.0% | 58.3hPa | 2.6V | 00:00:00 | 00:00:00 | 00:00:00 | |
| DL1XH-15 | 2026-08-31 01:11:28 | 50.75625 | 9.80125 | 80° | 24km/h | 20014m | 2m/s | -54.1°C | 3.9% | 58.4hPa | 2.6V | 02:36:34 | 02:38:38 | 00:00:00 | |
| DL1XH-west | 2026-08-31 01:11:28 | 50.75628 | 9.80143 | 78° | 22km/h | 20018m | 2m/s | -54.1°C | 0.7% | 58.4hPa | 2.5V | 02:37:06 | 02:38:40 | 00:00:00 | |
| AA1-15 | 2026-08-31 01:11:27 | 50.75626 | 9.80134 | 79° | 24km/h | 20016m | 1.9m/s | -54.1°C | 0.7% | 58.4hPa | 2.5V | 02:37:06 | 02:38:39 | 00:00:00 | |
| DM0DOS-11 | 2026-08-31 01:11:26 | 50.75624 | 9.80116 | 81° | 24km/h | 20012m | 2m/s | -54.1°C | 3.9% | 58.4hPa | 2.6V | 02:36:35 | 02:38:37 | 00:00:00 | |
| DF8AY | 2026-08-31 01:11:26 | 50.75625 | 9.80125 | 80° | 24km/h | 20014m | 2m/s | -54.1°C | 0.6% | 58.4hPa | 2.6V | 02:37:06 | 02:38:38 | 00:00:00 | |
| DF7PN | 2026-08-31 01:11:25 | 50.75624 | 9.80107 | 82° | 24km/h | 20010m | 2.2m/s | -54.1°C | 1.1% | 58.4hPa | 2.5V | 00:00:00 | 00:00:00 | 00:00:00 | |
| DL1ZP-14 | 2026-08-31 01:11:24 | 50.75623 | 9.80097 | 84° | 24km/h | 20008m | 2.2m/s | -54.1°C | 1.2% | 58.5hPa | 2.5V | 00:00:00 | 00:00:00 | 00:00:00 | |
| DL3AQ-11 | 2026-08-31 01:11:22 | 50.75622 | 9.80087 | 84° | 24km/h | 20006m | 2.0m/s | -54.0°C | 1.2% | 58.5hPa | 2.5V | 00:00:00 | 00:00:00 | 00:00:00 | |
| SFWM-10 | 2026-08-31 01:11:21 | 50.75622 | 9.80078 | 86° | 24km/h | 20004m | 1.8m/s | -54.0°C | 1.2% | 58.5hPa | 2.5V | 02:37:00 | 00:00:00 | 00:00:00 | |
| DL1XH1-15 | 2026-08-31 01:11:20 | 50.75617 | 9.80027 | 73° | 20km/h | 19992m | 1.9m/s | -54°C | 3.8% | 58.6hPa | 2.5V | 02:36:45 | 02:38:27 | 00:00:00 | |
| HSKMA3-T | 2026-08-31 01:11:19 | 50.75621 | 9.80060 | 83° | 22km/h | 20000m | 1.9m/s | -54°C | 0.6% | 58.5hPa | 2.6V | 02:37:06 | 02:38:31 | 00:00:00 | |
| DL4BBY-15 | 2026-08-31 01:11:19 | 50.75621 | 9.80060 | 84° | 22km/h | 20001m | 1.8m/s | -55.0°C | 0% | 0hPa | 2.5V | 00:00:00 | 00:00:00 | 00:00:00 | |
| DL1XH-15 | 2026-08-31 01:11:18 | 50.75618 | 9.80035 | 76° | 20km/h | 19994m | 2m/s | -54°C | 3.9% | 58.6hPa | 2.5V | 02:36:44 | 02:38:28 | 00:00:00 | |
| DL1XH-west | 2026-08-31 01:11:18 | 50.75620 | 9.80051 | 82° | 22km/h | 19998m | 2m/s | -54°C | 0.6% | 58.5hPa | 2.6V | 02:37:06 | 02:38:30 | 00:00:00 | |
| AA1-15 | 2026-08-31 01:11:16 | 50.75618 | 9.80035 | 76° | 20km/h | 19994m | 2m/s | -54°C | 0.7% | 58.6hPa | 2.5V | 02:37:06 | 02:38:28 | 00:00:00 | |
| DF8AY | 2026-08-31 01:11:15 | 50.75617 | 9.80027 | 73° | 20km/h | 19992m | 1.9m/s | -54°C | 0.6% | 58.6hPa | 2.5V | 02:37:06 | 02:38:27 | 00:00:00 | |
| BIOWL1-15 | 2026-08-31 01:11:10 | 50.75605 | 9.79964 | 73° | 26km/h | 19978m | 1.9m/s | -54.1°C | 0.7% | 58.7hPa | 2.5V | 02:37:06 | 02:38:20 | 00:00:00 | |
| HSKMA3-T | 2026-08-31 01:11:09 | 50.75607 | 9.79973 | 74° | 26km/h | 19980m | 2m/s | -54.1°C | 0.7% | 58.7hPa | 2.5V | 02:37:06 | 02:38:21 | 00:00:00 | |
| DL1XH-15 | 2026-08-31 01:11:08 | 50.75601 | 9.79945 | 70° | 24km/h | 19974m | 1.9m/s | -54.1°C | 4% | 58.8hPa | 2.5V | 02:36:54 | 02:38:18 | 00:00:00 | |
| DL1XH1-15 | 2026-08-31 01:11:07 | 50.75599 | 9.79937 | 69° | 22km/h | 19972m | 2.1m/s | -54.1°C | 4% | 58.8hPa | 2.6V | 02:36:55 | 02:38:17 | 00:00:00 | |
| DL1XH-west | 2026-08-31 01:11:07 | 50.75603 | 9.79954 | 72° | 24km/h | 19976m | 1.9m/s | -54.1°C | 0.8% | 58.7hPa | 2.5V | 02:37:06 | 02:38:19 | 00:00:00 | |
| DF8AY | 2026-08-31 01:11:05 | 50.75599 | 9.79937 | 69° | 22km/h | 19972m | 2.1m/s | -54.1°C | 0.7% | 58.8hPa | 2.6V | 02:37:06 | 02:38:17 | 00:00:00 | |
| BIOWL1-15 | 2026-08-31 01:11:00 | 50.75587 | 9.79879 | 78° | 24km/h | 19959m | 2.2m/s | -54.4°C | 0.8% | 58.9hPa | 2.6V | 02:37:06 | 02:38:10 | 00:00:00 | |
| HSKMA3-T | 2026-08-31 01:10:59 | 50.75588 | 9.79887 | 76° | 22km/h | 19960m | 2m/s | -54.4°C | 0.7% | 58.9hPa | 2.5V | 02:37:06 | 02:38:11 | 00:00:00 | |
| DB0UT-7 | 2026-08-31 01:10:59 | 50.75588 | 9.79887 | 76° | 20km/h | 19961m | 1.9m/s | -54.3°C | 4.0% | 58.9hPa | 2.5V | 02:37:00 | 02:38:11 | 00:00:00 | |
| DL1XH-15 | 2026-08-31 01:10:58 | 50.75585 | 9.79860 | 80° | 22km/h | 19954m | 1.9m/s | -54.4°C | 4% | 59hPa | 2.5V | 02:37:04 | 02:38:08 | 00:00:00 | |
| DL1XH-west | 2026-08-31 01:10:57 | 50.75586 | 9.79869 | 79° | 24km/h | 19956m | 2.1m/s | -54.4°C | 0.7% | 58.9hPa | 2.6V | 02:37:06 | 02:38:09 | 00:00:00 | |
| DM0DOS-11 | 2026-08-31 01:10:55 | 50.75584 | 9.79852 | 80° | 22km/h | 19952m | 1.7m/s | -54.4°C | 4% | 59hPa | 2.5V | 02:37:05 | 02:38:07 | 00:00:00 | |
| DF8AY | 2026-08-31 01:10:55 | 50.75584 | 9.79852 | 80° | 22km/h | 19952m | 1.7m/s | -54.4°C | 0.8% | 59hPa | 2.5V | 02:37:06 | 02:38:07 | 00:00:00 | |
| AA1-15 | 2026-08-31 01:10:54 | 50.75583 | 9.79843 | 80° | 22km/h | 19951m | 1.7m/s | -54.4°C | 0.7% | 59hPa | 2.5V | 02:37:06 | 02:38:06 | 00:00:00 | |
| DF7PN | 2026-08-31 01:10:54 | 50.75582 | 9.79834 | 78° | 20km/h | 19949m | 1.7m/s | -54.4°C | 1.2% | 59.0hPa | 2.5V | 00:00:00 | 00:00:00 | 00:00:00 | |
| DL1ZP-14 | 2026-08-31 01:10:52 | 50.75581 | 9.79826 | 75° | 20km/h | 19947m | 1.8m/s | -54.4°C | 1.2% | 59.0hPa | 2.5V | 00:00:00 | 00:00:00 | 00:00:00 | |
| DJ2DS-15 | 2026-08-31 01:10:51 | 50.75579 | 9.79819 | 73° | 18km/h | 19946m | 1.9m/s | -54.3°C | 4.0% | 59.0hPa | 2.5V | 00:00:00 | 02:38:03 | 00:00:00 | |
| DL1XH1-15 | 2026-08-31 01:10:50 | 50.75568 | 9.79779 | 65° | 18km/h | 19934m | 2m/s | -54.3°C | 4% | 59.1hPa | 2.5V | 02:37:15 | 02:37:57 | 00:00:00 | |
| DL1XH-15 | 2026-08-31 01:10:48 | 50.75570 | 9.79785 | 63° | 18km/h | 19936m | 1.9m/s | -54.3°C | 4% | 59.1hPa | 2.5V | 02:37:14 | 02:37:58 | 00:00:00 | |
| HSKMA3-T | 2026-08-31 01:10:48 | 50.75574 | 9.79798 | 63° | 18km/h | 19939m | 1.8m/s | -54.3°C | 0.8% | 59.1hPa | 2.5V | 02:37:57 | 02:38:00 | 00:00:00 | |
| BIOWL1-15 | 2026-08-31 01:10:47 | 50.75572 | 9.79792 | 63° | 18km/h | 19938m | 1.9m/s | -54.3°C | 0.7% | 59.1hPa | 2.5V | 02:37:57 | 02:37:59 | 00:00:00 | |
| DL1XH-west | 2026-08-31 01:10:46 | 50.75570 | 9.79785 | 63° | 18km/h | 19936m | 2m/s | -54.3°C | 0.7% | 59.1hPa | 2.5V | 02:37:57 | 02:37:58 | 00:00:00 | |
| BUE01 | 2026-08-31 01:10:45 | 50.75568 | 9.79779 | 65° | 16km/h | 19934m | 2.1m/s | -54.3°C | 1.2% | 59.1hPa | 2.6V | 00:00:00 | 00:00:00 | 00:00:00 | |
| DF8AY | 2026-08-31 01:10:44 | 50.75566 | 9.79772 | 67° | 18km/h | 19932m | 1.9m/s | -54.3°C | 0.8% | 59.1hPa | 2.6V | 02:37:57 | 02:37:56 | 00:00:00 | |
| AA1-15 | 2026-08-31 01:10:43 | 50.75564 | 9.79766 | 69° | 18km/h | 19930m | 1.9m/s | -54.3°C | 0.7% | 59.2hPa | 2.6V | 02:37:57 | 02:37:55 | 00:00:00 | |
| DL0LBS | 2026-08-31 01:10:43 | 50.75564 | 9.79766 | 69° | 18km/h | 19930m | 1.9m/s | -54.3°C | 1.2% | 59.2hPa | 2.5V | 02:37:00 | 00:00:00 | 00:00:00 | |
| HTAHTA | 2026-08-31 01:10:42 | 50.75563 | 9.79759 | 69° | 16km/h | 19928m | 1.8m/s | -54.3°C | 1.2% | 59.2hPa | 2.5V | 00:00:00 | 00:00:00 | 00:00:00 | |
| EDDB2-12 | 2026-08-31 01:10:41 | 50.75561 | 9.79752 | 70° | 16km/h | 19926m | 1.7m/s | -54.2°C | 1.2% | 59.2hPa | 2.5V | 00:00:00 | 00:00:00 | 00:00:00 | |
| DJ2KF-10 | 2026-08-31 01:10:39 | 50.75558 | 9.79738 | 68° | 22km/h | 19923m | 1.7m/s | -54.2°C | 4.0% | 59.2hPa | 2.5V | 00:00:00 | 02:37:51 | 00:00:00 | |
| DL1XH-15 | 2026-08-31 01:10:37 | 50.75552 | 9.79717 | 64° | 20km/h | 19917m | 1.5m/s | -54.2°C | 4% | 59.3hPa | 2.5V | 02:37:24 | 02:37:48 | 00:00:00 | |
| HSKMA3-T | 2026-08-31 01:10:37 | 50.75554 | 9.79724 | 65° | 20km/h | 19919m | 1.7m/s | -54.3°C | 0.8% | 59.3hPa | 2.6V | 02:37:57 | 02:37:49 | 00:00:00 | |
| DL1XH-west | 2026-08-31 01:10:36 | 50.75552 | 9.79717 | 64° | 20km/h | 19917m | 1.5m/s | -54.3°C | 0.7% | 59.3hPa | 2.5V | 02:37:57 | 02:37:48 | 00:00:00 | |
| DL1XH1-15 | 2026-08-31 01:10:35 | 50.75549 | 9.79709 | 62° | 20km/h | 19916m | 1.7m/s | -54.2°C | 4% | 59.3hPa | 2.5V | 02:37:25 | 02:37:47 | 00:00:00 | |
| DF8AY | 2026-08-31 01:10:34 | 50.75547 | 9.79702 | 63° | 20km/h | 19914m | 1.8m/s | -54.3°C | 0.8% | 59.3hPa | 2.5V | 02:37:57 | 02:37:46 | 00:00:00 | |
| AA1-15 | 2026-08-31 01:10:33 | 50.75544 | 9.79694 | 63° | 20km/h | 19912m | 1.9m/s | -54.3°C | 0.7% | 59.4hPa | 2.5V | 02:37:57 | 02:37:45 | 00:00:00 | |
| SMARD9-10 | 2026-08-31 01:10:33 | 50.75544 | 9.79694 | 64° | 20km/h | 19913m | 1.9m/s | 0°C | 0% | 59.3hPa | 2.5V | 00:00:00 | 00:00:00 | 00:00:00 | |
| EDDB2-11 | 2026-08-31 01:10:32 | 50.75540 | 9.79680 | 62° | 20km/h | 19909m | 1.9m/s | -54.3°C | 1.2% | 59.4hPa | 2.5V | 00:00:00 | 00:00:00 | 00:00:00 | |
| DJ2DS-15 | 2026-08-31 01:10:31 | 50.75540 | 9.79680 | 63° | 22km/h | 19909m | 1.8m/s | -54.2°C | 4.0% | 59.3hPa | 2.5V | 00:00:00 | 02:37:43 | 00:00:00 | |
| SONDE2-11 | 2026-08-31 01:10:30 | 50.75537 | 9.79673 | 62° | 18km/h | 19907m | 1.9m/s | -54.3°C | 1.2% | 59.4hPa | 2.5V | 00:00:00 | 00:00:00 | 00:00:00 | |
| DB0UT-7 | 2026-08-31 01:10:29 | 50.75535 | 9.79666 | 61° | 22km/h | 19905m | 2.0m/s | -54.2°C | 4.0% | 59.4hPa | 2.5V | 00:00:00 | 00:00:00 | 00:00:00 | |
| DM0DOS-11 | 2026-08-31 01:10:28 | 50.75523 | 9.79639 | 50° | 22km/h | 19896m | 1.8m/s | -54.3°C | 4.1% | 59.5hPa | 2.5V | 02:37:35 | 02:37:37 | 00:00:00 | |
| DL1XH-west | 2026-08-31 01:10:26 | 50.75527 | 9.79646 | 53° | 20km/h | 19899m | 1.9m/s | -54.3°C | 0.9% | 59.5hPa | 2.5V | 02:37:57 | 02:37:38 | 00:00:00 | |
| BIOWL1-15 | 2026-08-31 01:10:25 | 50.75512 | 9.79619 | 49° | 22km/h | 19891m | 2.1m/s | -54.3°C | 0.9% | 59.5hPa | 2.5V | 02:37:57 | 02:37:34 | 00:00:00 | |
| DF8AY | 2026-08-31 01:10:24 | 50.75520 | 9.79633 | 48° | 22km/h | 19895m | 1.8m/s | -54.3°C | 0.9% | 59.5hPa | 2.6V | 02:37:57 | 02:37:36 | 00:00:00 | |
| AA1-15 | 2026-08-31 01:10:23 | 50.75516 | 9.79626 | 48° | 22km/h | 19893m | 2m/s | -54.3°C | 1% | 59.5hPa | 2.6V | 02:37:57 | 02:37:35 | 00:00:00 | |
| DL0LBS | 2026-08-31 01:10:23 | 50.75516 | 9.79626 | 49° | 22km/h | 19893m | 2.0m/s | -54.3°C | 1.4% | 59.5hPa | 2.5V | 02:37:00 | 00:00:00 | 00:00:00 | |
| DC4HF-4 | 2026-08-31 01:10:22 | 50.75512 | 9.79619 | 48° | 22km/h | 19891m | 2.1m/s | -54.3°C | 1.3% | 59.5hPa | 2.5V | 00:00:00 | 00:00:00 | 00:00:00 | |
| DK5PH-5 | 2026-08-31 01:10:21 | 50.75509 | 9.79612 | 51° | 22km/h | 19889m | 2.1m/s | -54.2°C | 4.2% | 59.5hPa | 2.5V | 00:00:00 | 02:37:33 | 00:00:00 | |
| DL4BBY-15 | 2026-08-31 01:10:19 | 50.75502 | 9.79598 | 57° | 22km/h | 19885m | 1.9m/s | -55.2°C | 0% | 0hPa | 2.5V | 00:00:00 | 00:00:00 | 00:00:00 | |
| SFWM-10 | 2026-08-31 01:10:18 | 50.75502 | 9.79598 | 58° | 22km/h | 19885m | 2.0m/s | -54.3°C | 1.3% | 59.6hPa | 2.5V | 02:37:00 | 00:00:00 | 00:00:00 | |
| DL1XH1-15 | 2026-08-31 01:10:17 | 50.75491 | 9.79568 | 61° | 22km/h | 19877m | 2.2m/s | -54.2°C | 4.1% | 59.7hPa | 2.5V | 02:37:45 | 02:37:27 | 00:00:00 | |
| HSKMA3-T | 2026-08-31 01:10:16 | 50.75494 | 9.79576 | 62° | 22km/h | 19879m | 2.1m/s | -54.2°C | 0.9% | 59.7hPa | 2.6V | 02:37:57 | 02:37:28 | 00:00:00 | |
| DL1XH-west | 2026-08-31 01:10:15 | 50.75491 | 9.79568 | 61° | 22km/h | 19877m | 2.2m/s | -54.2°C | 0.9% | 59.7hPa | 2.5V | 02:37:57 | 02:37:27 | 00:00:00 | |
| BIOWL1-15 | 2026-08-31 01:10:13 | 50.75479 | 9.79537 | 54° | 26km/h | 19868m | 1.9m/s | -54.2°C | 0.9% | 59.8hPa | 2.5V | 02:37:57 | 02:37:23 | 00:00:00 | |
| DF8AY | 2026-08-31 01:10:13 | 50.75486 | 9.79553 | 58° | 24km/h | 19872m | 2m/s | -54.2°C | 0.9% | 59.7hPa | 2.5V | 02:37:57 | 02:37:25 | 00:00:00 | |
| AA1-15 | 2026-08-31 01:10:12 | 50.75482 | 9.79545 | 56° | 24km/h | 19870m | 2m/s | -54.2°C | 0.9% | 59.7hPa | 2.5V | 02:37:57 | 02:37:24 | 00:00:00 | |
| DJ2DS-15 | 2026-08-31 01:10:11 | 50.75479 | 9.79537 | 55° | 24km/h | 19868m | 1.9m/s | -54.1°C | 4.1% | 59.7hPa | 2.5V | 02:37:00 | 02:37:23 | 00:00:00 | |
| DJ2KF-10 | 2026-08-31 01:10:09 | 50.75471 | 9.79520 | 55° | 22km/h | 19864m | 2.0m/s | -54.1°C | 4.0% | 59.7hPa | 2.5V | 00:00:00 | 02:37:21 | 00:00:00 | |
| DL1XH-15 | 2026-08-31 01:10:07 | 50.75460 | 9.79495 | 58° | 24km/h | 19858m | 1.6m/s | -54.2°C | 4.1% | 59.8hPa | 2.5V | 02:37:54 | 02:37:18 | 00:00:00 | |
| HSKMA3-T | 2026-08-31 01:10:05 | 50.75458 | 9.79487 | 62° | 22km/h | 19857m | 1.7m/s | -54.1°C | 0.9% | 59.8hPa | 2.5V | 02:37:57 | 02:37:17 | 00:00:00 | |
| DL1XH-west | 2026-08-31 01:10:04 | 50.75455 | 9.79479 | 62° | 22km/h | 19855m | 1.8m/s | -54.1°C | 0.9% | 59.9hPa | 2.6V | 02:37:57 | 02:37:16 | 00:00:00 | |
| DF8AY | 2026-08-31 01:10:03 | 50.75452 | 9.79472 | 62° | 20km/h | 19853m | 1.9m/s | -54.1°C | 0.9% | 59.9hPa | 2.6V | 02:37:57 | 02:37:15 | 00:00:00 | |
| AA1-15 | 2026-08-31 01:10:02 | 50.75447 | 9.79458 | 55° | 20km/h | 19849m | 1.8m/s | -54.1°C | 0.9% | 59.9hPa | 2.5V | 02:38:48 | 02:37:13 | 00:00:00 | |
| BIOWL1-15 | 2026-08-31 01:10:01 | 50.75428 | 9.79428 | 40° | 24km/h | 19839m | 2.2m/s | -54.2°C | 0.9% | 60hPa | 2.6V | 02:38:48 | 02:37:08 | 00:00:00 | |
| EDDB2-11 | 2026-08-31 01:10:00 | 50.75444 | 9.79452 | 50° | 18km/h | 19848m | 1.7m/s | -54.1°C | 1.3% | 59.9hPa | 2.5V | 00:00:00 | 00:00:00 | 00:00:00 | |
| DB0UT-7 | 2026-08-31 01:09:59 | 50.75441 | 9.79446 | 47° | 22km/h | 19846m | 1.8m/s | -54.1°C | 4.1% | 59.9hPa | 2.5V | 00:00:00 | 02:37:11 | 00:00:00 | |
| SFWM-10 | 2026-08-31 01:09:58 | 50.75441 | 9.79446 | 47° | 20km/h | 19846m | 1.8m/s | -54.1°C | 1.3% | 60.0hPa | 2.5V | 02:38:00 | 00:00:00 | 00:00:00 | |
| DL1XH1-15 | 2026-08-31 01:09:57 | 50.75424 | 9.79422 | 39° | 26km/h | 19837m | 2m/s | -54.2°C | 4.1% | 60hPa | 2.5V | 02:38:05 | 02:37:07 | 00:00:00 | |
| HSKMA3-T | 2026-08-31 01:09:55 | 50.75424 | 9.79422 | 40° | 26km/h | 19838m | 2m/s | -54.2°C | 0.9% | 60hPa | 2.5V | 02:38:48 | 02:37:07 | 00:00:00 | |
| DL1XH-west | 2026-08-31 01:09:53 | 50.75414 | 9.79409 | 40° | 24km/h | 19834m | 1.8m/s | -54.2°C | 1% | 60.1hPa | 2.5V | 02:38:48 | 02:37:05 | 00:00:00 | |
| DF8AY | 2026-08-31 01:09:52 | 50.75394 | 9.79382 | 41° | 18km/h | 19824m | 1.7m/s | -54.3°C | 1% | 60.1hPa | 2.5V | 02:38:48 | 02:37:00 | 00:00:00 | |
| AA1-15 | 2026-08-31 01:09:50 | 50.75401 | 9.79392 | 41° | 20km/h | 19828m | 2m/s | -54.2°C | 0.9% | 60.1hPa | 2.6V | 02:38:48 | 02:37:02 | 00:00:00 | |
| BIOWL1-15 | 2026-08-31 01:09:47 | 50.75379 | 9.79363 | 38° | 22km/h | 19816m | 2m/s | -54.2°C | 1% | 60.2hPa | 2.5V | 02:38:48 | 02:36:56 | 00:00:00 | |
| DL1XH1-15 | 2026-08-31 01:09:47 | 50.75383 | 9.79368 | 38° | 20km/h | 19818m | 2m/s | -54.2°C | 4.1% | 60.2hPa | 2.5V | 02:38:15 | 02:36:57 | 00:00:00 | |
| HSKMA3-T | 2026-08-31 01:09:45 | 50.75384 | 9.79368 | 39° | 20km/h | 19818m | 2m/s | -54.2°C | 1% | 60.2hPa | 2.5V | 02:38:48 | 02:36:57 | 00:00:00 | |
| DL1XH-west | 2026-08-31 01:09:43 | 50.75375 | 9.79358 | 37° | 22km/h | 19814m | 1.9m/s | -54.2°C | 0.9% | 60.2hPa | 2.6V | 02:38:48 | 02:36:55 | 00:00:00 | |
| DF8AY | 2026-08-31 01:09:41 | 50.75366 | 9.79347 | 37° | 24km/h | 19811m | 1.8m/s | -54.2°C | 0.9% | 60.3hPa | 2.5V | 02:38:48 | 02:36:53 | 00:00:00 | |
| AA1-15 | 2026-08-31 01:09:39 | 50.75356 | 9.79336 | 34° | 24km/h | 19807m | 2m/s | -54.2°C | 0.9% | 60.3hPa | 2.5V | 02:38:48 | 02:36:51 | 00:00:00 | |
| HSKMA3-T | 2026-08-31 01:09:35 | 50.75338 | 9.79318 | 30° | 20km/h | 19799m | 1.9m/s | -54.3°C | 1.1% | 60.4hPa | 2.6V | 02:38:48 | 02:36:47 | 00:00:00 | |
| DL1XH-west | 2026-08-31 01:09:32 | 50.75325 | 9.79306 | 31° | 22km/h | 19793m | 2m/s | -54.4°C | 1% | 60.5hPa | 2.5V | 02:38:48 | 02:36:44 | 00:00:00 | |
| DL1XH-15 | 2026-08-31 01:09:31 | 50.75295 | 9.79276 | 32° | 24km/h | 19782m | 2m/s | -54.5°C | 4.1% | 60.5hPa | 2.5V | 02:38:34 | 02:36:38 | 00:00:00 | |
| DF8AY | 2026-08-31 01:09:31 | 50.75320 | 9.79302 | 32° | 22km/h | 19791m | 2.1m/s | -54.4°C | 1% | 60.5hPa | 2.5V | 02:38:48 | 02:36:43 | 00:00:00 | |
| AA1-15 | 2026-08-31 01:09:29 | 50.75310 | 9.79291 | 34° | 24km/h | 19787m | 1.9m/s | -54.5°C | 1% | 60.5hPa | 2.6V | 02:38:48 | 02:36:41 | 00:00:00 | |
| HSKMA3-T | 2026-08-31 01:09:24 | 50.75285 | 9.79266 | 29° | 22km/h | 19778m | 1.8m/s | -54.5°C | 1% | 60.6hPa | 2.5V | 02:38:48 | 02:36:36 | 00:00:00 | |
| DJ2DS-15 | 2026-08-31 01:09:22 | 50.75275 | 9.79259 | 25° | 20km/h | 19774m | 1.8m/s | -54.6°C | 1.3% | 60.6hPa | 2.6V | 00:00:00 | 00:00:00 | 00:00:00 | |
| DL1XH-15 | 2026-08-31 01:09:21 | 50.75245 | 9.79236 | 29° | 22km/h | 19762m | 1.8m/s | -54.8°C | 4% | 60.7hPa | 2.6V | 02:38:44 | 02:36:28 | 00:00:00 | |
| DL1XH-west | 2026-08-31 01:09:21 | 50.75270 | 9.79255 | 24° | 22km/h | 19772m | 1.8m/s | -54.6°C | 0.9% | 60.6hPa | 2.5V | 02:38:48 | 02:36:33 | 00:00:00 | |
| BIOWL1-15 | 2026-08-31 01:09:21 | 50.75240 | 9.79232 | 29° | 22km/h | 19761m | 1.9m/s | -54.7°C | 0.8% | 60.8hPa | 2.6V | 02:38:48 | 02:36:27 | 00:00:00 | |
| DF8AY | 2026-08-31 01:09:20 | 50.75265 | 9.79252 | 23° | 22km/h | 19770m | 1.9m/s | -54.6°C | 0.8% | 60.6hPa | 2.5V | 02:38:48 | 02:36:32 | 00:00:00 | |
| AA1-15 | 2026-08-31 01:09:19 | 50.75255 | 9.79244 | 26° | 22km/h | 19766m | 1.9m/s | -54.7°C | 0.8% | 60.7hPa | 2.5V | 02:38:48 | 02:36:30 | 00:00:00 | |
| HSKMA3-T | 2026-08-31 01:09:13 | 50.75230 | 9.79223 | 28° | 22km/h | 19757m | 1.8m/s | -54.8°C | 0.8% | 60.8hPa | 2.5V | 02:38:48 | 02:36:25 | 00:00:00 | |
| DL1XH-west | 2026-08-31 01:09:10 | 50.75216 | 9.79213 | 19° | 20km/h | 19752m | 1.7m/s | -54.8°C | 0.8% | 60.8hPa | 2.5V | 02:39:39 | 02:36:22 | 00:00:00 | |
| DF8AY | 2026-08-31 01:09:09 | 50.75211 | 9.79211 | 16° | 20km/h | 19750m | 1.7m/s | -54.8°C | 0.8% | 60.9hPa | 2.6V | 02:39:39 | 02:36:21 | 00:00:00 | |
| AA1-15 | 2026-08-31 01:09:07 | 50.75202 | 9.79207 | 13° | 20km/h | 19746m | 1.7m/s | -54.9°C | 0.9% | 60.9hPa | 2.5V | 02:39:39 | 02:36:19 | 00:00:00 | |
| DL1XH1-15 | 2026-08-31 01:09:07 | 50.75191 | 9.79203 | 16° | 22km/h | 19743m | 1.8m/s | -55°C | 4.3% | 60.9hPa | 2.5V | 02:38:55 | 02:36:17 | 00:00:00 | |
| HSKMA3-T | 2026-08-31 01:09:02 | 50.75176 | 9.79195 | 18° | 22km/h | 19738m | 1.8m/s | -55°C | 1% | 61hPa | 2.6V | 02:39:39 | 02:36:14 | 00:00:00 | |
| DL1XH-15 | 2026-08-31 01:09:01 | 50.75147 | 9.79187 | 358° | 20km/h | 19727m | 2m/s | -54.9°C | 4.2% | 61hPa | 2.6V | 02:39:04 | 02:36:08 | 00:00:00 | |
| DL1XH-west | 2026-08-31 01:09:00 | 50.75166 | 9.79191 | 14° | 20km/h | 19734m | 1.7m/s | -55°C | 1% | 61hPa | 2.5V | 02:39:39 | 02:36:12 | 00:00:00 | |
| DF8AY | 2026-08-31 01:08:58 | 50.75157 | 9.79188 | 6° | 18km/h | 19731m | 1.9m/s | -55°C | 1% | 61hPa | 2.5V | 02:39:39 | 02:36:10 | 00:00:00 | |
| AA1-15 | 2026-08-31 01:08:57 | 50.75152 | 9.79187 | 2° | 20km/h | 19729m | 2m/s | -55°C | 1% | 61.1hPa | 2.5V | 02:39:39 | 02:36:09 | 00:00:00 | |
| DL3AQ-11 | 2026-08-31 01:08:55 | 50.75142 | 9.79187 | 355° | 20km/h | 19725m | 2.0m/s | -54.9°C | 1.2% | 61.1hPa | 2.5V | 00:00:00 | 00:00:00 | 00:00:00 | |
| SP3BTT-10 | 2026-08-31 01:08:53 | 50.75131 | 9.79189 | 356° | 22km/h | 19721m | 1.8m/s | 0°C | 0% | 0hPa | 2.5V | 00:00:00 | 00:00:00 | 00:00:00 | |
| DL1XH-15 | 2026-08-31 01:08:51 | 50.75096 | 9.79186 | 13° | 18km/h | 19708m | 1.7m/s | -54.8°C | 4% | 61.2hPa | 2.5V | 02:39:14 | 02:35:58 | 00:00:00 | |
| HSKMA3-T | 2026-08-31 01:08:51 | 50.75120 | 9.79190 | 358° | 22km/h | 19717m | 1.7m/s | -54.9°C | 0.7% | 61.2hPa | 2.5V | 02:39:39 | 02:36:03 | 00:00:00 | |
| DL1XH-west | 2026-08-31 01:08:49 | 50.75110 | 9.79190 | 4° | 20km/h | 19714m | 1.9m/s | -54.8°C | 0.6% | 61.2hPa | 2.6V | 02:39:39 | 02:36:01 | 00:00:00 | |
| DF8AY | 2026-08-31 01:08:48 | 50.75105 | 9.79189 | 7° | 18km/h | 19711m | 1.9m/s | -54.8°C | 0.6% | 61.2hPa | 2.6V | 02:39:39 | 02:36:00 | 00:00:00 | |
| BIOWL1-15 | 2026-08-31 01:08:47 | 50.75101 | 9.79188 | 11° | 18km/h | 19710m | 1.9m/s | -54.8°C | 0.6% | 61.2hPa | 2.5V | 02:39:39 | 02:35:59 | 00:00:00 | |
| DL1XH1-15 | 2026-08-31 01:08:46 | 50.75092 | 9.79185 | 13° | 18km/h | 19706m | 1.7m/s | -54.8°C | 3.9% | 61.2hPa | 2.5V | 02:39:15 | 02:35:57 | 00:00:00 | |
| AA1-15 | 2026-08-31 01:08:46 | 50.75096 | 9.79186 | 13° | 18km/h | 19708m | 1.7m/s | -54.8°C | 0.6% | 61.3hPa | 2.5V | 02:39:39 | 02:35:58 | 00:00:00 | |
| DL8OAI-8 | 2026-08-31 01:08:45 | 50.75096 | 9.79186 | 14° | 18km/h | 19708m | 1.7m/s | -54.8°C | 1.2% | 61.3hPa | 2.5V | 00:00:00 | 00:00:00 | 00:00:00 | |
| DB0UT-9 | 2026-08-31 01:08:44 | 50.75092 | 9.79184 | 14° | 18km/h | 19706m | 1.7m/s | -54.8°C | 1.1% | 61.3hPa | 2.5V | 00:00:00 | 00:00:00 | 00:00:00 | |
| DL3AQ-11 | 2026-08-31 01:08:43 | 50.75078 | 9.79179 | 12° | 18km/h | 19701m | 1.9m/s | -54.7°C | 1.1% | 61.3hPa | 2.5V | 00:00:00 | 00:00:00 | 00:00:00 | |
| DL1XH-15 | 2026-08-31 01:08:41 | 50.75050 | 9.79166 | 26° | 18km/h | 19689m | 1.9m/s | -54.6°C | 4% | 61.4hPa | 2.5V | 02:39:24 | 02:35:48 | 00:00:00 | |
| HSKMA3-T | 2026-08-31 01:08:41 | 50.75068 | 9.79176 | 13° | 20km/h | 19697m | 1.9m/s | -54.7°C | 0.6% | 61.4hPa | 2.5V | 02:39:39 | 02:35:52 | 00:00:00 | |
| DL1XH-west | 2026-08-31 01:08:38 | 50.75059 | 9.79172 | 19° | 20km/h | 19693m | 2.3m/s | -54.7°C | 0.6% | 61.4hPa | 2.5V | 02:39:39 | 02:35:50 | 00:00:00 | |
| DF8AY | 2026-08-31 01:08:37 | 50.75054 | 9.79169 | 23° | 18km/h | 19691m | 2.1m/s | -54.7°C | 0.7% | 61.4hPa | 2.5V | 02:39:39 | 02:35:49 | 00:00:00 | |
| BIOWL1-15 | 2026-08-31 01:08:36 | 50.75050 | 9.79166 | 27° | 18km/h | 19689m | 1.9m/s | -54.6°C | 0.6% | 61.4hPa | 2.5V | 02:39:39 | 02:35:48 | 00:00:00 | |
| DL1XH1-15 | 2026-08-31 01:08:35 | 50.75045 | 9.79162 | 29° | 18km/h | 19687m | 1.8m/s | -54.6°C | 4% | 61.5hPa | 2.6V | 02:39:25 | 02:35:47 | 00:00:00 | |
| AA1-15 | 2026-08-31 01:08:35 | 50.75046 | 9.79162 | 30° | 18km/h | 19687m | 1.8m/s | -54.6°C | 0.6% | 61.5hPa | 2.6V | 02:39:39 | 02:35:47 | 00:00:00 | |
| BIOWL9-15 | 2026-08-31 01:08:34 | 50.75041 | 9.79159 | 31° | 18km/h | 19685m | 1.8m/s | -54.6°C | 1.1% | 61.5hPa | 2.5V | 00:00:00 | 00:00:00 | 00:00:00 | |
| DD1CC8 | 2026-08-31 01:08:33 | 50.75037 | 9.79155 | 31° | 18km/h | 19683m | 1.8m/s | -54.6°C | 1.1% | 61.5hPa | 2.5V | 00:00:00 | 00:00:00 | 00:00:00 | |
| DL3AQ-11 | 2026-08-31 01:08:32 | 50.75029 | 9.79147 | 28° | 18km/h | 19679m | 2.1m/s | -54.6°C | 1.1% | 61.5hPa | 2.5V | 00:00:00 | 00:00:00 | 00:00:00 | |
| DL1XH-15 | 2026-08-31 01:08:31 | 50.75007 | 9.79131 | 21° | 18km/h | 19670m | 1.8m/s | -54.5°C | 3.9% | 61.6hPa | 2.5V | 02:39:34 | 02:35:38 | 00:00:00 | |
| DJ2DS-15 | 2026-08-31 01:08:31 | 50.75029 | 9.79147 | 29° | 18km/h | 19679m | 2.0m/s | -54.5°C | 3.9% | 61.5hPa | 2.5V | 00:00:00 | 02:35:43 | 00:00:00 | |
| DL1XH1-15 | 2026-08-31 01:08:30 | 50.75003 | 9.79129 | 23° | 16km/h | 19668m | 1.9m/s | -54.5°C | 3.9% | 61.6hPa | 2.5V | 02:39:35 | 02:35:37 | 00:00:00 | |
| HSKMA3-T | 2026-08-31 01:08:29 | 50.75020 | 9.79140 | 24° | 20km/h | 19675m | 1.8m/s | -54.5°C | 0.6% | 61.6hPa | 2.5V | 02:39:39 | 02:35:41 | 00:00:00 | |
| DL1XH-west | 2026-08-31 01:08:27 | 50.75011 | 9.79134 | 22° | 18km/h | 19671m | 1.8m/s | -54.5°C | 0.6% | 61.6hPa | 2.6V | 02:39:39 | 02:35:39 | 00:00:00 | |
| BIOWL1-15 | 2026-08-31 01:08:26 | 50.75007 | 9.79131 | 22° | 18km/h | 19670m | 1.8m/s | -54.5°C | 0.6% | 61.6hPa | 2.5V | 02:39:39 | 02:35:38 | 00:00:00 | |
| AA1-15 | 2026-08-31 01:08:24 | 50.74999 | 9.79126 | 25° | 16km/h | 19666m | 2.1m/s | -54.5°C | 0.6% | 61.7hPa | 2.5V | 02:39:39 | 02:35:36 | 00:00:00 | |
| DB0UT-9 | 2026-08-31 01:08:23 | 50.74999 | 9.79126 | 26° | 16km/h | 19666m | 2.1m/s | -54.5°C | 1.2% | 61.7hPa | 2.5V | 00:00:00 | 00:00:00 | 00:00:00 | |
| DL1XH-15 | 2026-08-31 01:08:21 | 50.74967 | 9.79107 | 14° | 18km/h | 19650m | 1.5m/s | -54.6°C | 4% | 61.8hPa | 2.5V | 02:39:44 | 02:35:28 | 00:00:00 | |
| DK5PH-5 | 2026-08-31 01:08:21 | 50.74988 | 9.79117 | 24° | 20km/h | 19660m | 1.8m/s | -54.5°C | 3.9% | 61.7hPa | 2.6V | 02:39:00 | 02:35:33 | 00:00:00 | |
| DL1XH1-15 | 2026-08-31 01:08:20 | 50.74963 | 9.79105 | 14° | 18km/h | 19649m | 1.5m/s | -54.6°C | 3.9% | 61.8hPa | 2.6V | 02:39:45 | 02:35:27 | 00:00:00 | |
| HSKMA3-T | 2026-08-31 01:08:18 | 50.74976 | 9.79111 | 16° | 18km/h | 19654m | 1.9m/s | -54.6°C | 0.6% | 61.8hPa | 2.5V | 02:40:30 | 02:35:30 | 00:00:00 | |
| BIOWL1-15 | 2026-08-31 01:08:17 | 50.74936 | 9.79089 | 27° | 20km/h | 19638m | 1.7m/s | -54.6°C | 0.6% | 61.9hPa | 2.5V | 02:40:30 | 02:35:21 | 00:00:00 | |
| DL1XH-west | 2026-08-31 01:08:16 | 50.74967 | 9.79107 | 15° | 18km/h | 19650m | 1.5m/s | -54.6°C | 0.6% | 61.8hPa | 2.5V | 02:40:30 | 02:35:28 | 00:00:00 | |
| DF8AY | 2026-08-31 01:08:15 | 50.74963 | 9.79105 | 15° | 18km/h | 19649m | 1.5m/s | -54.6°C | 0.6% | 61.8hPa | 2.6V | 02:40:30 | 02:35:27 | 00:00:00 | |
| AA1-15 | 2026-08-31 01:08:13 | 50.74954 | 9.79101 | 18° | 18km/h | 19645m | 1.8m/s | -54.6°C | 0.6% | 61.9hPa | 2.5V | 02:40:30 | 02:35:25 | 00:00:00 | |
| DJ2DS-15 | 2026-08-31 01:08:11 | 50.74945 | 9.79095 | 24° | 22km/h | 19642m | 1.8m/s | -54.5°C | 4.0% | 61.8hPa | 2.5V | 02:39:00 | 02:35:23 | 00:00:00 | |
| BUE01 | 2026-08-31 01:08:10 | 50.74940 | 9.79092 | 24° | 18km/h | 19640m | 1.7m/s | -54.6°C | 1.1% | 61.9hPa | 2.5V | 00:00:00 | 00:00:00 | 00:00:00 | |
| DJ2KF-10 | 2026-08-31 01:08:09 | 50.74936 | 9.79089 | 27° | 22km/h | 19639m | 1.7m/s | -54.5°C | 4.0% | 61.9hPa | 2.5V | 02:39:00 | 02:35:21 | 00:00:00 | |
| DM0DOS-11 | 2026-08-31 01:08:08 | 50.74911 | 9.79070 | 26° | 22km/h | 19629m | 2m/s | -54.5°C | 3.9% | 62hPa | 2.5V | 02:39:56 | 02:35:16 | 00:00:00 | |
| HSKMA3-T | 2026-08-31 01:08:07 | 50.74926 | 9.79081 | 26° | 22km/h | 19635m | 1.9m/s | -54.5°C | 0.6% | 62hPa | 2.6V | 02:40:30 | 02:35:19 | 00:00:00 | |
| DL1XH-west | 2026-08-31 01:08:06 | 50.74921 | 9.79077 | 26° | 22km/h | 19632m | 2m/s | -54.5°C | 0.6% | 62hPa | 2.5V | 02:40:30 | 02:35:18 | 00:00:00 | |
| DF8AY | 2026-08-31 01:08:04 | 50.74911 | 9.79070 | 26° | 22km/h | 19629m | 2.1m/s | -54.5°C | 0.6% | 62hPa | 2.5V | 02:40:30 | 02:35:16 | 00:00:00 | |
| BIOWL1-15 | 2026-08-31 01:08:03 | 50.74906 | 9.79066 | 27° | 22km/h | 19627m | 2m/s | -54.5°C | 0.5% | 62hPa | 2.5V | 02:40:30 | 02:35:15 | 00:00:00 | |
| AA1-15 | 2026-08-31 01:08:02 | 50.74901 | 9.79062 | 29° | 22km/h | 19625m | 1.9m/s | -54.5°C | 0.6% | 62hPa | 2.5V | 02:40:30 | 02:35:14 | 00:00:00 | |
| DL1XH-15 | 2026-08-31 01:08:02 | 50.74874 | 9.79032 | 40° | 22km/h | 19613m | 2m/s | -54.4°C | 3.8% | 62.2hPa | 2.5V | 02:40:04 | 02:35:08 | 00:00:00 | |
| DL8DAS-14 | 2026-08-31 01:08:01 | 50.74896 | 9.79057 | 31° | 20km/h | 19623m | 1.9m/s | -54.5°C | 1.1% | 62.1hPa | 2.6V | 00:00:00 | 00:00:00 | 00:00:00 | |
| DM0DOS-11 | 2026-08-31 01:07:58 | 50.74866 | 9.79021 | 40° | 22km/h | 19609m | 2m/s | -54.4°C | 3.9% | 62.2hPa | 2.6V | 02:40:06 | 02:35:06 | 00:00:00 | |
| HSKMA3-T | 2026-08-31 01:07:57 | 50.74879 | 9.79038 | 39° | 22km/h | 19615m | 1.8m/s | -54.4°C | 0.6% | 62.1hPa | 2.5V | 02:40:30 | 02:35:09 | 00:00:00 | |
| BIOWL1-15 | 2026-08-31 01:07:56 | 50.74848 | 9.78996 | 43° | 24km/h | 19602m | 1.8m/s | -54.4°C | 0.6% | 62.3hPa | 2.5V | 02:40:30 | 02:35:02 | 00:00:00 | |
| DL1XH-west | 2026-08-31 01:07:56 | 50.74874 | 9.79032 | 40° | 22km/h | 19613m | 2m/s | -54.4°C | 0.5% | 62.2hPa | 2.5V | 02:40:30 | 02:35:08 | 00:00:00 | |
| DF8AY | 2026-08-31 01:07:53 | 50.74861 | 9.79015 | 41° | 24km/h | 19607m | 1.9m/s | -54.4°C | 0.5% | 62.2hPa | 2.6V | 02:40:30 | 02:35:05 | 00:00:00 | |
| AA1-15 | 2026-08-31 01:07:51 | 50.74853 | 9.79002 | 42° | 24km/h | 19604m | 1.9m/s | -54.4°C | 0.6% | 62.3hPa | 2.5V | 02:40:30 | 02:35:03 | 00:00:00 | |
| DJ2DS-15 | 2026-08-31 01:07:51 | 50.74853 | 9.79002 | 43° | 22km/h | 19604m | 1.8m/s | -54.3°C | 3.9% | 62.2hPa | 2.5V | 00:00:00 | 02:35:03 | 00:00:00 | |
| DL1XH-15 | 2026-08-31 01:07:50 | 50.74833 | 9.78971 | 47° | 22km/h | 19594m | 1.9m/s | -54.3°C | 3.9% | 62.4hPa | 2.5V | 02:40:14 | 02:34:58 | 00:00:00 | |
| DL1XH1-15 | 2026-08-31 01:07:50 | 50.74829 | 9.78965 | 46° | 22km/h | 19592m | 1.9m/s | -54.4°C | 4% | 62.4hPa | 2.5V | 02:40:15 | 02:34:57 | 00:00:00 | |
| HSKMA3-T | 2026-08-31 01:07:46 | 50.74833 | 9.78971 | 48° | 22km/h | 19594m | 1.9m/s | -54.4°C | 0.6% | 62.4hPa | 2.5V | 02:40:30 | 02:34:58 | 00:00:00 | |
| DL1XH-west | 2026-08-31 01:07:45 | 50.74829 | 9.78965 | 46° | 22km/h | 19593m | 1.9m/s | -54.4°C | 0.6% | 62.4hPa | 2.5V | 02:40:30 | 02:34:57 | 00:00:00 | |
| DF8AY | 2026-08-31 01:07:43 | 50.74822 | 9.78954 | 42° | 20km/h | 19589m | 1.9m/s | -54.3°C | 0.6% | 62.4hPa | 2.5V | 02:40:30 | 02:34:55 | 00:00:00 | |
| BIOWL1-15 | 2026-08-31 01:07:42 | 50.74818 | 9.78949 | 38° | 20km/h | 19587m | 1.9m/s | -54.3°C | 0.5% | 62.4hPa | 2.5V | 02:40:30 | 02:34:54 | 00:00:00 | |
| AA1-15 | 2026-08-31 01:07:40 | 50.74810 | 9.78940 | 31° | 20km/h | 19583m | 1.9m/s | -54.3°C | 0.5% | 62.5hPa | 2.6V | 02:40:30 | 02:34:52 | 00:00:00 | |
| DJ2KF-10 | 2026-08-31 01:07:39 | 50.74805 | 9.78936 | 29° | 20km/h | 19582m | 1.9m/s | -54.2°C | 3.9% | 62.4hPa | 2.6V | 00:00:00 | 02:34:51 | 00:00:00 | |
| DO9LL-15 | 2026-08-31 01:07:38 | 50.74801 | 9.78932 | 28° | 20km/h | 19579m | 1.8m/s | -54.2°C | 3.9% | 62.5hPa | 2.6V | 00:00:00 | 02:34:50 | 00:00:00 | |
| DM0DOS-11 | 2026-08-31 01:07:37 | 50.74783 | 9.78915 | 35° | 22km/h | 19572m | 1.9m/s | -54.2°C | 3.8% | 62.6hPa | 2.6V | 02:40:26 | 02:34:46 | 00:00:00 | |
| HSKMA3-T | 2026-08-31 01:07:36 | 50.74792 | 9.78925 | 30° | 22km/h | 19576m | 1.7m/s | -54.2°C | 0.5% | 62.5hPa | 2.5V | 02:40:30 | 02:34:48 | 00:00:00 | |
| DL1XH1-15 | 2026-08-31 01:07:35 | 50.74787 | 9.78920 | 32° | 22km/h | 19574m | 1.8m/s | -54.2°C | 3.8% | 62.5hPa | 2.5V | 02:40:25 | 02:34:47 | 00:00:00 | |
| DL1XH-west | 2026-08-31 01:07:35 | 50.74787 | 9.78920 | 32° | 22km/h | 19574m | 1.8m/s | -54.2°C | 0.5% | 62.5hPa | 2.5V | 02:40:30 | 02:34:47 | 00:00:00 | |
| DF8AY | 2026-08-31 01:07:33 | 50.74778 | 9.78910 | 38° | 22km/h | 19571m | 1.8m/s | -54.2°C | 0.5% | 62.6hPa | 2.6V | 02:40:30 | 02:34:45 | 00:00:00 | |
| BIOWL9-15 | 2026-08-31 01:07:32 | 50.74769 | 9.78898 | 42° | 22km/h | 19567m | 1.7m/s | -54.2°C | 1.1% | 62.6hPa | 2.5V | 00:00:00 | 00:00:00 | 00:00:00 | |
| DJ2DS-15 | 2026-08-31 01:07:31 | 50.74769 | 9.78898 | 43° | 20km/h | 19567m | 1.6m/s | -54.1°C | 3.8% | 62.6hPa | 2.5V | 00:00:00 | 02:34:43 | 00:00:00 | |
| DL1XH1-15 | 2026-08-31 01:07:30 | 50.74741 | 9.78849 | 51° | 22km/h | 19554m | 1.7m/s | -54.2°C | 3.8% | 62.8hPa | 2.5V | 02:40:36 | 02:34:36 | 00:00:00 | |
| AA1-15 | 2026-08-31 01:07:29 | 50.74761 | 9.78885 | 46° | 24km/h | 19563m | 1.8m/s | -54.2°C | 0.5% | 62.7hPa | 2.5V | 02:41:21 | 02:34:41 | 00:00:00 | |
| DB0UT-7 | 2026-08-31 01:07:28 | 50.74756 | 9.78877 | 48° | 20km/h | 19562m | 1.8m/s | -54.1°C | 3.8% | 62.6hPa | 2.5V | 00:00:00 | 00:00:00 | 00:00:00 | |
| DM0DOS-11 | 2026-08-31 01:07:27 | 50.74738 | 9.78843 | 53° | 20km/h | 19552m | 1.8m/s | -54.3°C | 3.8% | 62.8hPa | 2.5V | 02:40:37 | 02:34:35 | 00:00:00 | |
| HSKMA3-T | 2026-08-31 01:07:25 | 50.74745 | 9.78856 | 50° | 22km/h | 19556m | 1.7m/s | -54.2°C | 0.5% | 62.8hPa | 2.5V | 02:41:21 | 02:34:37 | 00:00:00 | |
| DL1XH-west | 2026-08-31 01:07:25 | 50.74741 | 9.78849 | 52° | 22km/h | 19554m | 1.7m/s | -54.2°C | 0.5% | 62.8hPa | 2.5V | 02:41:21 | 02:34:36 | 00:00:00 | |
| BIOWL1-15 | 2026-08-31 01:07:23 | 50.74732 | 9.78831 | 56° | 18km/h | 19549m | 1.8m/s | -54.3°C | 0.5% | 62.8hPa | 2.5V | 02:41:21 | 02:34:33 | 00:00:00 | |
| DF8AY | 2026-08-31 01:07:23 | 50.74738 | 9.78843 | 53° | 20km/h | 19553m | 1.8m/s | -54.3°C | 0.5% | 62.8hPa | 2.5V | 02:41:21 | 02:34:35 | 00:00:00 | |
| DL3AQ-11 | 2026-08-31 01:07:23 | 50.74735 | 9.78837 | 54° | 18km/h | 19551m | 1.8m/s | -54.3°C | 1.1% | 62.8hPa | 2.5V | 00:00:00 | 00:00:00 | 00:00:00 | |
| DC4HF-4 | 2026-08-31 01:07:22 | 50.74735 | 9.78837 | 54° | 18km/h | 19551m | 1.8m/s | -54.3°C | 1.1% | 62.8hPa | 2.5V | 00:00:00 | 00:00:00 | 00:00:00 | |
| DK5PH-5 | 2026-08-31 01:07:21 | 50.74732 | 9.78830 | 57° | 20km/h | 19549m | 1.7m/s | -54.2°C | 3.8% | 62.8hPa | 2.5V | 00:00:00 | 02:34:33 | 00:00:00 | |
| DL1XH1-15 | 2026-08-31 01:07:19 | 50.74718 | 9.78799 | 52° | 16km/h | 19538m | 1.7m/s | -54.3°C | 3.8% | 62.9hPa | 2.5V | 02:40:45 | 02:34:27 | 00:00:00 | |
| AA1-15 | 2026-08-31 01:07:18 | 50.74725 | 9.78814 | 58° | 16km/h | 19543m | 1.8m/s | -54.3°C | 0.5% | 62.9hPa | 2.5V | 02:41:21 | 02:34:30 | 00:00:00 | |
| DM0DOS-11 | 2026-08-31 01:07:17 | 50.74713 | 9.78788 | 45° | 18km/h | 19534m | 1.8m/s | -54.3°C | 3.9% | 63hPa | 2.6V | 02:40:47 | 02:34:25 | 00:00:00 | |
| DL1XH-west | 2026-08-31 01:07:14 | 50.74716 | 9.78793 | 49° | 18km/h | 19536m | 1.9m/s | -54.3°C | 0.6% | 62.9hPa | 2.6V | 02:41:21 | 02:34:26 | 00:00:00 | |
| DF8AY | 2026-08-31 01:07:12 | 50.74709 | 9.78783 | 42° | 20km/h | 19533m | 1.8m/s | -54.3°C | 0.5% | 63hPa | 2.5V | 02:41:21 | 02:34:24 | 00:00:00 | |
| BIOWL1-15 | 2026-08-31 01:07:11 | 50.74705 | 9.78778 | 40° | 22km/h | 19531m | 1.8m/s | -54.3°C | 0.6% | 63hPa | 2.5V | 02:41:21 | 02:34:23 | 00:00:00 | |
| AA1-15 | 2026-08-31 01:07:07 | 50.74688 | 9.78755 | 41° | 24km/h | 19524m | 1.9m/s | -54.4°C | 0.5% | 63.1hPa | 2.6V | 02:41:21 | 02:34:19 | 00:00:00 | |
| DB0UT-9 | 2026-08-31 01:07:06 | 50.74688 | 9.78755 | 42° | 24km/h | 19524m | 1.9m/s | -54.4°C | 1.2% | 63.1hPa | 2.5V | 02:41:00 | 00:00:00 | 00:00:00 | |
| DM0DOS-11 | 2026-08-31 01:07:04 | 50.74672 | 9.78728 | 56° | 24km/h | 19516m | 1.9m/s | -54.5°C | 3.9% | 63.1hPa | 2.5V | 02:40:57 | 02:34:15 | 00:00:00 | |
| DL1XH-west | 2026-08-31 01:07:04 | 50.74676 | 9.78735 | 54° | 24km/h | 19518m | 1.8m/s | -54.5°C | 0.6% | 63.1hPa | 2.5V | 02:41:21 | 02:34:16 | 00:00:00 | |
| DF8AY | 2026-08-31 01:07:02 | 50.74669 | 9.78719 | 62° | 24km/h | 19515m | 2m/s | -54.5°C | 0.6% | 63.1hPa | 2.5V | 02:41:21 | 02:34:14 | 00:00:00 | |
| BIOWL1-15 | 2026-08-31 01:07:01 | 50.74667 | 9.78711 | 64° | 24km/h | 19512m | 1.9m/s | -54.4°C | 0.6% | 63.1hPa | 2.5V | 02:41:21 | 02:34:13 | 00:00:00 | |
| DD1CC8 | 2026-08-31 01:07:00 | 50.74664 | 9.78702 | 64° | 22km/h | 19511m | 1.8m/s | -54.4°C | 1.1% | 63.2hPa | 2.5V | 00:00:00 | 00:00:00 | 00:00:00 | |
| DL1XH-15 | 2026-08-31 01:06:59 | 50.74654 | 9.78670 | 59° | 22km/h | 19504m | 1.8m/s | -54.4°C | 3.9% | 63.2hPa | 2.5V | 02:41:04 | 02:34:08 | 00:00:00 | |
| AA1-15 | 2026-08-31 01:06:56 | 50.74654 | 9.78670 | 60° | 22km/h | 19504m | 1.8m/s | -54.4°C | 0.5% | 63.2hPa | 2.5V | 02:41:21 | 02:34:08 | 00:00:00 | |
| DL3AQ-11 | 2026-08-31 01:06:56 | 50.74651 | 9.78662 | 57° | 20km/h | 19502m | 1.9m/s | -54.4°C | 1.1% | 63.3hPa | 2.6V | 00:00:00 | 00:00:00 | 00:00:00 | |
| DL0LBS | 2026-08-31 01:06:55 | 50.74653 | 9.78669 | 61° | 22km/h | 19504m | 1.8m/s | -54.4°C | 1.1% | 63.3hPa | 2.6V | 00:00:00 | 00:00:00 | 00:00:00 | |
| DM0DOS-11 | 2026-08-31 01:06:54 | 50.74645 | 9.78648 | 53° | 20km/h | 19498m | 1.6m/s | -54.4°C | 3.9% | 63.3hPa | 2.6V | 02:41:07 | 02:34:05 | 00:00:00 | |
| DL1XH-west | 2026-08-31 01:06:53 | 50.74645 | 9.78648 | 54° | 20km/h | 19498m | 1.6m/s | -54.4°C | 0.5% | 63.3hPa | 2.6V | 02:41:21 | 02:34:05 | 00:00:00 | |
| SONDE2-11 | 2026-08-31 01:06:53 | 50.74642 | 9.78642 | 51° | 18km/h | 19497m | 1.7m/s | -54.4°C | 1.1% | 63.3hPa | 2.6V | 00:00:00 | 00:00:00 | 00:00:00 | |
| SFWM-10 | 2026-08-31 01:06:52 | 50.74645 | 9.78648 | 55° | 20km/h | 19498m | 1.6m/s | -54.4°C | 1.1% | 63.3hPa | 2.6V | 02:41:00 | 00:00:00 | 00:00:00 | |
| DL1XH-15 | 2026-08-31 01:06:51 | 50.74621 | 9.78609 | 42° | 22km/h | 19486m | 1.6m/s | -54.4°C | 3.9% | 63.4hPa | 2.6V | 02:41:14 | 02:33:58 | 00:00:00 | |
| DF8AY | 2026-08-31 01:06:51 | 50.74639 | 9.78636 | 50° | 20km/h | 19495m | 1.9m/s | -54.4°C | 0.5% | 63.4hPa | 2.5V | 02:41:21 | 02:34:03 | 00:00:00 | |
| BIOWL1-15 | 2026-08-31 01:06:50 | 50.74635 | 9.78631 | 48° | 18km/h | 19493m | 2m/s | -54.4°C | 0.6% | 63.4hPa | 2.5V | 02:41:21 | 02:34:02 | 00:00:00 | |
| AA1-15 | 2026-08-31 01:06:46 | 50.74621 | 9.78609 | 42° | 22km/h | 19486m | 1.6m/s | -54.4°C | 0.6% | 63.4hPa | 2.6V | 02:41:21 | 02:33:58 | 00:00:00 | |
| DF7PN | 2026-08-31 01:06:45 | 50.74617 | 9.78603 | 43° | 22km/h | 19484m | 1.8m/s | -54.4°C | 1.1% | 63.5hPa | 2.5V | 00:00:00 | 00:00:00 | 00:00:00 | |
| DM0DOS-11 | 2026-08-31 01:06:44 | 50.74608 | 9.78589 | 46° | 26km/h | 19481m | 1.8m/s | -54.4°C | 3.9% | 63.5hPa | 2.5V | 02:41:17 | 02:33:55 | 00:00:00 | |
| HSKMA3-T | 2026-08-31 01:06:43 | 50.74608 | 9.78589 | 46° | 26km/h | 19481m | 1.8m/s | -54.4°C | 0.6% | 63.5hPa | 2.5V | 02:41:21 | 02:33:55 | 00:00:00 | |
| DL1XH-west | 2026-08-31 01:06:42 | 50.74603 | 9.78581 | 48° | 27km/h | 19479m | 1.8m/s | -54.4°C | 0.6% | 63.5hPa | 2.5V | 02:41:21 | 02:33:54 | 00:00:00 | |
| DL1XH-15 | 2026-08-31 01:06:41 | 50.74580 | 9.78527 | 60° | 26km/h | 19468m | 1.8m/s | -54.4°C | 3.8% | 63.6hPa | 2.5V | 02:41:24 | 02:33:48 | 00:00:00 | |
| BIOWL1-15 | 2026-08-31 01:06:40 | 50.74594 | 9.78563 | 54° | 29km/h | 19476m | 1.7m/s | -54.4°C | 0.5% | 63.5hPa | 2.6V | 02:41:21 | 02:33:52 | 00:00:00 | |
| DM0DOS-11 | 2026-08-31 01:06:39 | 50.74571 | 9.78503 | 57° | 22km/h | 19463m | 1.8m/s | -54.4°C | 3.9% | 63.6hPa | 2.6V | 02:41:27 | 02:33:45 | 00:00:00 | |
| AA1-15 | 2026-08-31 01:06:35 | 50.74577 | 9.78518 | 61° | 24km/h | 19466m | 1.6m/s | -54.4°C | 0.5% | 63.6hPa | 2.5V | 02:42:12 | 02:33:47 | 00:00:00 | |
| HSKMA3-T | 2026-08-31 01:06:33 | 50.74571 | 9.78503 | 58° | 22km/h | 19463m | 1.8m/s | -54.4°C | 0.6% | 63.6hPa | 2.6V | 02:42:12 | 02:33:45 | 00:00:00 | |
| EDDB2-12 | 2026-08-31 01:06:33 | 50.74568 | 9.78496 | 55° | 20km/h | 19461m | 1.9m/s | 0°C | -1.0% | -1.0hPa | 2.6V | 00:00:00 | 00:00:00 | 00:00:00 | |
| DL3AQ-11 | 2026-08-31 01:06:32 | 50.74565 | 9.78489 | 52° | 20km/h | 19459m | 1.9m/s | -54.4°C | 1.1% | 63.7hPa | 2.6V | 00:00:00 | 00:00:00 | 00:00:00 | |
| DL1XH-west | 2026-08-31 01:06:32 | 50.74568 | 9.78496 | 56° | 22km/h | 19461m | 1.9m/s | -54.4°C | 0.5% | 63.7hPa | 2.6V | 02:42:12 | 02:33:44 | 00:00:00 | |
| DL1XH-15 | 2026-08-31 01:06:31 | 50.74547 | 9.78459 | 44° | 22km/h | 19451m | 1.9m/s | -54.4°C | 3.9% | 63.8hPa | 2.6V | 02:41:34 | 02:33:38 | 00:00:00 | |
| DF8AY | 2026-08-31 01:06:31 | 50.74562 | 9.78483 | 49° | 20km/h | 19457m | 1.8m/s | -54.4°C | 0.5% | 63.7hPa | 2.5V | 02:42:12 | 02:33:42 | 00:00:00 | |
| BIOWL1-15 | 2026-08-31 01:06:29 | 50.74551 | 9.78465 | 46° | 22km/h | 19452m | 1.6m/s | -54.4°C | 0.5% | 63.8hPa | 2.5V | 02:42:12 | 02:33:39 | 00:00:00 | |
| DM0DOS-11 | 2026-08-31 01:06:28 | 50.74529 | 9.78432 | 43° | 27km/h | 19443m | 1.5m/s | -54.4°C | 3.9% | 63.8hPa | 2.5V | 02:41:38 | 02:33:34 | 00:00:00 | |
| AA1-15 | 2026-08-31 01:06:24 | 50.74539 | 9.78446 | 43° | 24km/h | 19447m | 1.8m/s | -54.4°C | 0.6% | 63.8hPa | 2.5V | 02:42:12 | 02:33:36 | 00:00:00 | |
| DL1XH-west | 2026-08-31 01:06:22 | 50.74529 | 9.78432 | 44° | 27km/h | 19443m | 1.5m/s | -54.4°C | 0.6% | 63.8hPa | 2.5V | 02:42:12 | 02:33:34 | 00:00:00 | |
| DF8AY | 2026-08-31 01:06:20 | 50.74519 | 9.78416 | 45° | 29km/h | 19440m | 1.9m/s | -54.4°C | 0.5% | 63.9hPa | 2.5V | 02:42:12 | 02:33:32 | 00:00:00 | |
| BIOWL1-15 | 2026-08-31 01:06:16 | 50.74495 | 9.78370 | 57° | 29km/h | 19431m | 1.7m/s | -54.4°C | 0.6% | 64hPa | 2.5V | 02:42:12 | 02:33:27 | 00:00:00 | |
| DL1XH1-15 | 2026-08-31 01:06:16 | 50.74495 | 9.78370 | 57° | 29km/h | 19431m | 1.7m/s | -54.4°C | 3.9% | 64hPa | 2.5V | 02:41:45 | 02:33:27 | 00:00:00 | |
| DM0DOS-11 | 2026-08-31 01:06:13 | 50.74488 | 9.78351 | 60° | 27km/h | 19427m | 1.9m/s | -54.4°C | 3.9% | 64hPa | 2.5V | 02:41:47 | 02:33:25 | 00:00:00 | |
| AA1-15 | 2026-08-31 01:06:13 | 50.74488 | 9.78351 | 60° | 27km/h | 19427m | 1.9m/s | -54.4°C | 0.6% | 64hPa | 2.5V | 02:42:12 | 02:33:25 | 00:00:00 | |
| DL1XH-west | 2026-08-31 01:06:12 | 50.74484 | 9.78342 | 60° | 26km/h | 19425m | 2m/s | -54.4°C | 0.6% | 64hPa | 2.6V | 02:42:12 | 02:33:24 | 00:00:00 | |
| DF8AY | 2026-08-31 01:06:10 | 50.74478 | 9.78326 | 56° | 22km/h | 19422m | 1.7m/s | -54.5°C | 0.6% | 64.1hPa | 2.5V | 02:42:12 | 02:33:22 | 00:00:00 | |
| DF8AY | 2026-08-31 01:06:04 | 50.74428 | 9.78250 | 42° | 29km/h | 19402m | 1.7m/s | -54.6°C | 0.6% | 64.3hPa | 2.6V | 02:42:12 | 02:33:11 | 00:00:00 | |
| AA1-15 | 2026-08-31 01:06:02 | 50.74444 | 9.78273 | 42° | 27km/h | 19407m | 1.8m/s | -54.5°C | 0.6% | 64.2hPa | 2.5V | 02:42:12 | 02:33:14 | 00:00:00 | |
| DL1XH-15 | 2026-08-31 01:06:01 | 50.74411 | 9.78225 | 43° | 31km/h | 19397m | 1.8m/s | -54.6°C | 4% | 64.3hPa | 2.5V | 02:42:04 | 02:33:08 | 00:00:00 | |
| HSKMA3-T | 2026-08-31 01:06:01 | 50.74439 | 9.78265 | 42° | 29km/h | 19405m | 1.7m/s | -54.5°C | 0.6% | 64.2hPa | 2.5V | 02:42:12 | 02:33:13 | 00:00:00 | |
| BIOWL1-15 | 2026-08-31 01:05:54 | 50.74400 | 9.78207 | 49° | 31km/h | 19393m | 1.8m/s | -54.6°C | 0.7% | 64.4hPa | 2.5V | 02:42:12 | 02:33:06 | 00:00:00 | |
| SONCRA | 2026-08-31 01:05:54 | 50.74395 | 9.78197 | 51° | 31km/h | 19391m | 1.7m/s | -54.6°C | 1.2% | 64.4hPa | 2.5V | 00:00:00 | 00:00:00 | 00:00:00 | |
| DL3AQ-11 | 2026-08-31 01:05:52 | 50.74386 | 9.78177 | 58° | 29km/h | 19388m | 1.8m/s | -54.6°C | 1.2% | 64.4hPa | 2.5V | 00:00:00 | 00:00:00 | 00:00:00 | |
| DL1XH-15 | 2026-08-31 01:05:51 | 50.74370 | 9.78133 | 58° | 22km/h | 19379m | 1.6m/s | -54.7°C | 3.9% | 64.5hPa | 2.5V | 02:42:14 | 02:32:58 | 00:00:00 | |
| HSKMA3-T | 2026-08-31 01:05:51 | 50.74386 | 9.78177 | 58° | 29km/h | 19388m | 1.8m/s | -54.6°C | 0.6% | 64.4hPa | 2.6V | 02:42:12 | 02:33:03 | 00:00:00 | |
| DL1XH-west | 2026-08-31 01:05:50 | 50.74382 | 9.78167 | 61° | 27km/h | 19386m | 1.9m/s | -54.6°C | 0.7% | 64.4hPa | 2.5V | 02:42:12 | 02:33:02 | 00:00:00 | |
| DL1XH1-15 | 2026-08-31 01:05:50 | 50.74367 | 9.78125 | 53° | 22km/h | 19377m | 1.6m/s | -54.7°C | 3.9% | 64.5hPa | 2.6V | 02:42:15 | 02:32:57 | 00:00:00 | |
| DF8AY | 2026-08-31 01:05:48 | 50.74376 | 9.78149 | 64° | 24km/h | 19382m | 1.9m/s | -54.6°C | 0.6% | 64.5hPa | 2.5V | 02:42:12 | 02:33:00 | 00:00:00 | |
| DM0DOS-11 | 2026-08-31 01:05:47 | 50.74360 | 9.78112 | 45° | 24km/h | 19373m | 2.1m/s | -54.7°C | 3.9% | 64.5hPa | 2.5V | 02:42:17 | 02:32:55 | 00:00:00 | |
| DJ2DS-15 | 2026-08-31 01:05:46 | 50.74370 | 9.78133 | 58° | 20km/h | 19379m | 1.7m/s | -54.7°C | 1.1% | 64.5hPa | 2.5V | 00:00:00 | 00:00:00 | 00:00:00 | |
| BIOWL1-15 | 2026-08-31 01:05:44 | 50.74356 | 9.78106 | 42° | 24km/h | 19371m | 1.9m/s | -54.7°C | 0.6% | 64.6hPa | 2.5V | 02:43:03 | 02:32:54 | 00:00:00 | |
| DF7PN | 2026-08-31 01:05:43 | 50.74360 | 9.78112 | 45° | 22km/h | 19373m | 2.1m/s | -54.7°C | 1.1% | 64.5hPa | 2.5V | 00:00:00 | 00:00:00 | 00:00:00 | |
| DL1ZP-14 | 2026-08-31 01:05:42 | 50.74351 | 9.78099 | 40° | 26km/h | 19369m | 1.8m/s | -54.7°C | 1.2% | 64.6hPa | 2.5V | 00:00:00 | 00:00:00 | 00:00:00 | |
| DL1XH-15 | 2026-08-31 01:05:41 | 50.74326 | 9.78062 | 50° | 27km/h | 19361m | 1.9m/s | -54.7°C | 4.1% | 64.7hPa | 2.5V | 02:42:24 | 02:32:48 | 00:00:00 | |
| HSKMA3-T | 2026-08-31 01:05:40 | 50.74346 | 9.78092 | 41° | 27km/h | 19367m | 1.7m/s | -54.7°C | 0.6% | 64.6hPa | 2.5V | 02:43:03 | 02:32:52 | 00:00:00 | |
| DL1XH-west | 2026-08-31 01:05:39 | 50.74341 | 9.78085 | 42° | 27km/h | 19366m | 1.7m/s | -54.7°C | 0.7% | 64.6hPa | 2.6V | 02:43:03 | 02:32:51 | 00:00:00 | |
| DF8AY | 2026-08-31 01:05:38 | 50.74336 | 9.78078 | 44° | 27km/h | 19364m | 1.7m/s | -54.7°C | 0.6% | 64.6hPa | 2.6V | 02:43:03 | 02:32:50 | 00:00:00 | |
| DO9LL-15 | 2026-08-31 01:05:38 | 50.74336 | 9.78078 | 45° | 27km/h | 19364m | 1.7m/s | -54.6°C | 4.0% | 64.6hPa | 2.6V | 02:42:00 | 02:32:50 | 00:00:00 | |
| DM0DOS-11 | 2026-08-31 01:05:37 | 50.74314 | 9.78036 | 56° | 27km/h | 19355m | 1.6m/s | -54.6°C | 4% | 64.7hPa | 2.5V | 02:42:27 | 02:32:45 | 00:00:00 | |
| BIOWL1-15 | 2026-08-31 01:05:37 | 50.74314 | 9.78036 | 56° | 27km/h | 19355m | 1.6m/s | -54.7°C | 0.7% | 64.7hPa | 2.5V | 02:43:03 | 02:32:45 | 00:00:00 | |
| DL3AQ-11 | 2026-08-31 01:05:36 | 50.74322 | 9.78054 | 52° | 26km/h | 19359m | 1.8m/s | -54.7°C | 1.2% | 64.7hPa | 2.5V | 00:00:00 | 00:00:00 | 00:00:00 | |
| DL1XH1-15 | 2026-08-31 01:05:36 | 50.74322 | 9.78054 | 52° | 27km/h | 19358m | 1.8m/s | -54.7°C | 4% | 64.7hPa | 2.5V | 02:42:25 | 02:32:47 | 00:00:00 | |
| BUE01 | 2026-08-31 01:05:35 | 50.74322 | 9.78054 | 52° | 26km/h | 19359m | 1.8m/s | -54.7°C | 1.2% | 64.7hPa | 2.5V | 00:00:00 | 00:00:00 | 00:00:00 | |
| DJTTGO | 2026-08-31 01:05:33 | 50.74318 | 9.78045 | 56° | 27km/h | 19357m | 1.9m/s | -54.7°C | 1.2% | 64.7hPa | 2.5V | 00:00:00 | 00:00:00 | 00:00:00 | |
| HTAHTA | 2026-08-31 01:05:32 | 50.74307 | 9.78018 | 57° | 27km/h | 19351m | 2.1m/s | -54.6°C | 1.2% | 64.8hPa | 2.5V | 00:00:00 | 00:00:00 | 00:00:00 | |
| DL1XH-15 | 2026-08-31 01:05:31 | 50.74288 | 9.77970 | 62° | 27km/h | 19342m | 1.9m/s | -54.8°C | 3.9% | 64.8hPa | 2.5V | 02:42:34 | 02:32:38 | 00:00:00 | |
| DJ2DS-15 | 2026-08-31 01:05:31 | 50.74307 | 9.78018 | 58° | 27km/h | 19352m | 2.1m/s | -54.6°C | 4.0% | 64.7hPa | 2.6V | 00:00:00 | 02:32:43 | 00:00:00 | |
| DL1XH1-15 | 2026-08-31 01:05:30 | 50.74285 | 9.77960 | 64° | 27km/h | 19340m | 2m/s | -54.8°C | 3.9% | 64.9hPa | 2.6V | 02:42:35 | 02:32:37 | 00:00:00 | |
| DL1XH-west | 2026-08-31 01:05:29 | 50.74299 | 9.77999 | 58° | 29km/h | 19347m | 2m/s | -54.7°C | 0.6% | 64.8hPa | 2.5V | 02:43:03 | 02:32:41 | 00:00:00 | |
| DF8AY | 2026-08-31 01:05:27 | 50.74292 | 9.77980 | 61° | 29km/h | 19344m | 1.9m/s | -54.7°C | 0.6% | 64.8hPa | 2.5V | 02:43:03 | 02:32:39 | 00:00:00 | |
| BIOWL1-15 | 2026-08-31 01:05:25 | 50.74280 | 9.77941 | 65° | 26km/h | 19336m | 2m/s | -54.8°C | 0.6% | 64.9hPa | 2.5V | 02:43:03 | 02:32:35 | 00:00:00 | |
| DO2KSM | 2026-08-31 01:05:24 | 50.74285 | 9.77960 | 65° | 27km/h | 19340m | 2.1m/s | -54.8°C | 1.1% | 64.9hPa | 2.5V | 02:43:00 | 00:00:00 | 00:00:00 | |
| DL3AQ-11 | 2026-08-31 01:05:23 | 50.74277 | 9.77932 | 62° | 24km/h | 19334m | 1.8m/s | -54.8°C | 1.2% | 64.9hPa | 2.5V | 00:00:00 | 00:00:00 | 00:00:00 | |
| SONCRA | 2026-08-31 01:05:22 | 50.74277 | 9.77932 | 62° | 24km/h | 19334m | 1.8m/s | -54.8°C | 1.2% | 64.9hPa | 2.5V | 00:00:00 | 00:00:00 | 00:00:00 | |
| DL1XH-15 | 2026-08-31 01:05:21 | 50.74253 | 9.77886 | 42° | 29km/h | 19322m | 2m/s | -54.9°C | 4% | 65hPa | 2.5V | 02:42:44 | 02:32:28 | 00:00:00 | |
| DL1XH-west | 2026-08-31 01:05:19 | 50.74267 | 9.77909 | 51° | 24km/h | 19328m | 1.9m/s | -54.9°C | 0.6% | 65hPa | 2.5V | 02:43:03 | 02:32:31 | 00:00:00 | |
| DF8AY | 2026-08-31 01:05:17 | 50.74258 | 9.77894 | 44° | 27km/h | 19324m | 2m/s | -54.9°C | 0.7% | 65hPa | 2.6V | 02:43:03 | 02:32:29 | 00:00:00 | |
| BIOWL1-15 | 2026-08-31 01:05:15 | 50.74180 | 9.77771 | 51° | 33km/h | 19296m | 1.8m/s | -55.1°C | 0.6% | 65.3hPa | 2.5V | 02:43:03 | 02:32:15 | 00:00:00 | |
| DL3AQ-11 | 2026-08-31 01:05:12 | 50.74225 | 9.77845 | 44° | 29km/h | 19312m | 2.2m/s | -55.0°C | 1.2% | 65.2hPa | 2.5V | 00:00:00 | 00:00:00 | 00:00:00 | |
| DL1XH-15 | 2026-08-31 01:05:11 | 50.74197 | 9.77800 | 46° | 33km/h | 19302m | 2m/s | -55.1°C | 4% | 65.3hPa | 2.5V | 02:42:54 | 02:32:18 | 00:00:00 | |
| DL1ZP-14 | 2026-08-31 01:05:11 | 50.74219 | 9.77837 | 44° | 31km/h | 19310m | 2.1m/s | -55.1°C | 1.2% | 65.2hPa | 2.5V | 00:00:00 | 00:00:00 | 00:00:00 | |
| DL1XH1-15 | 2026-08-31 01:05:10 | 50.74191 | 9.77791 | 47° | 33km/h | 19300m | 1.9m/s | -55.1°C | 4% | 65.3hPa | 2.6V | 02:42:55 | 02:32:17 | 00:00:00 | |
| DJ2DS-15 | 2026-08-31 01:05:10 | 50.74214 | 9.77828 | 45° | 31km/h | 19308m | 1.9m/s | -55.1°C | 1.2% | 65.2hPa | 2.5V | 00:00:00 | 00:00:00 | 00:00:00 | |
| DJ2KF-10 | 2026-08-31 01:05:09 | 50.74214 | 9.77828 | 46° | 33km/h | 19308m | 1.8m/s | -55.0°C | 4.1% | 65.2hPa | 2.5V | 02:42:00 | 02:32:21 | 00:00:00 | |
| DM0DOS-11 | 2026-08-31 01:05:08 | 50.74180 | 9.77771 | 50° | 33km/h | 19296m | 1.8m/s | -55.1°C | 4% | 65.3hPa | 2.5V | 02:42:57 | 02:32:15 | 00:00:00 | |
| HSKMA3-T | 2026-08-31 01:05:08 | 50.74208 | 9.77819 | 46° | 31km/h | 19306m | 2m/s | -55.1°C | 0.6% | 65.2hPa | 2.5V | 02:43:03 | 02:32:20 | 00:00:00 | |
| DF8AY | 2026-08-31 01:05:06 | 50.74197 | 9.77800 | 46° | 33km/h | 19302m | 2.1m/s | -55.1°C | 0.7% | 65.3hPa | 2.5V | 02:43:03 | 02:32:18 | 00:00:00 | |
| DO2KSM | 2026-08-31 01:05:04 | 50.74186 | 9.77781 | 50° | 33km/h | 19298m | 1.9m/s | -55.1°C | 1.2% | 65.3hPa | 2.5V | 02:43:00 | 00:00:00 | 00:00:00 | |
| DL1XH-15 | 2026-08-31 01:05:01 | 50.74148 | 9.77705 | 41° | 26km/h | 19284m | 1.9m/s | -55.1°C | 4.1% | 65.5hPa | 2.5V | 02:43:04 | 02:32:08 | 00:00:00 | |
| BIOWL1-15 | 2026-08-31 01:05:00 | 50.74165 | 9.77740 | 56° | 31km/h | 19290m | 1.7m/s | -55.2°C | 0.7% | 65.4hPa | 2.5V | 02:43:03 | 02:32:12 | 00:00:00 | |
| DL8OAI-8 | 2026-08-31 01:04:59 | 50.74165 | 9.77740 | 57° | 31km/h | 19291m | 1.7m/s | -55.2°C | 1.2% | 65.4hPa | 2.5V | 02:43:00 | 00:00:00 | 00:00:00 | |
| DM0DOS-11 | 2026-08-31 01:04:58 | 50.74123 | 9.77680 | 28° | 33km/h | 19276m | 1.9m/s | -55.1°C | 4.1% | 65.5hPa | 2.5V | 02:43:08 | 02:32:04 | 00:00:00 | |
| DL1XH-west | 2026-08-31 01:04:58 | 50.74157 | 9.77721 | 53° | 27km/h | 19287m | 1.6m/s | -55.1°C | 0.7% | 65.4hPa | 2.6V | 02:43:03 | 02:32:10 | 00:00:00 | |
| BIOWL9-15 | 2026-08-31 01:04:57 | 50.74148 | 9.77705 | 41° | 26km/h | 19284m | 1.9m/s | -55.1°C | 1.2% | 65.5hPa | 2.5V | 00:00:00 | 00:00:00 | 00:00:00 | |
| DL1XH1-15 | 2026-08-31 01:04:56 | 50.74142 | 9.77699 | 36° | 27km/h | 19282m | 1.9m/s | -55.1°C | 4.1% | 65.5hPa | 2.5V | 02:43:05 | 02:32:07 | 00:00:00 | |
| DF8AY | 2026-08-31 01:04:56 | 50.74148 | 9.77705 | 42° | 26km/h | 19284m | 1.9m/s | -55.1°C | 0.7% | 65.5hPa | 2.5V | 02:43:54 | 02:32:08 | 00:00:00 | |
| DL3AQ-11 | 2026-08-31 01:04:56 | 50.74143 | 9.77699 | 36° | 26km/h | 19282m | 1.9m/s | -55.1°C | 1.2% | 65.5hPa | 2.5V | 00:00:00 | 00:00:00 | 00:00:00 | |
| SONCRA | 2026-08-31 01:04:52 | 50.74115 | 9.77674 | 29° | 35km/h | 19274m | 2.0m/s | -55.2°C | 1.2% | 65.5hPa | 2.5V | 00:00:00 | 00:00:00 | 00:00:00 | |
| DL1XH-15 | 2026-08-31 01:04:51 | 50.74079 | 9.77632 | 43° | 35km/h | 19265m | 1.7m/s | -55.2°C | 4.1% | 65.7hPa | 2.5V | 02:43:14 | 02:31:58 | 00:00:00 | |
| DB0UT-7 | 2026-08-31 01:04:51 | 50.74115 | 9.77674 | 30° | 33km/h | 19275m | 1.9m/s | -55.1°C | 4.1% | 65.5hPa | 2.6V | 02:43:00 | 02:32:03 | 00:00:00 | |
| DL1XH1-15 | 2026-08-31 01:04:50 | 50.74073 | 9.77622 | 43° | 35km/h | 19263m | 1.9m/s | -55.2°C | 4.1% | 65.7hPa | 2.6V | 02:43:15 | 02:31:57 | 00:00:00 | |
| BIOWL1-15 | 2026-08-31 01:04:49 | 50.74100 | 9.77659 | 35° | 37km/h | 19270m | 2m/s | -55.2°C | 0.7% | 65.6hPa | 2.5V | 02:43:54 | 02:32:01 | 00:00:00 | |
| SFWM-10 | 2026-08-31 01:04:49 | 50.74100 | 9.77659 | 36° | 37km/h | 19270m | 2.0m/s | -55.2°C | 1.2% | 65.6hPa | 2.5V | 02:43:00 | 00:00:00 | 00:00:00 | |
| DM0DOS-11 | 2026-08-31 01:04:47 | 50.74060 | 9.77604 | 39° | 33km/h | 19260m | 1.7m/s | -55.2°C | 4.1% | 65.7hPa | 2.5V | 02:43:17 | 02:31:55 | 00:00:00 | |
| HSKMA3-T | 2026-08-31 01:04:47 | 50.74086 | 9.77641 | 41° | 37km/h | 19267m | 1.8m/s | -55.2°C | 0.7% | 65.6hPa | 2.5V | 02:43:54 | 02:31:59 | 00:00:00 | |
| DF8AY | 2026-08-31 01:04:45 | 50.74073 | 9.77622 | 44° | 35km/h | 19263m | 1.9m/s | -55.2°C | 0.7% | 65.7hPa | 2.6V | 02:43:54 | 02:31:57 | 00:00:00 | |
| DL3AQ-11 | 2026-08-31 01:04:43 | 50.74054 | 9.77596 | 35° | 31km/h | 19258m | 1.7m/s | -55.2°C | 1.2% | 65.8hPa | 2.5V | 00:00:00 | 00:00:00 | 00:00:00 | |
| DL1XH-15 | 2026-08-31 01:04:41 | 50.74010 | 9.77557 | 31° | 33km/h | 19247m | 1.9m/s | -55.2°C | 4.1% | 65.9hPa | 2.5V | 02:43:24 | 02:31:48 | 00:00:00 | |
| BIOWL1-15 | 2026-08-31 01:04:41 | 50.74032 | 9.77576 | 27° | 33km/h | 19252m | 2m/s | -55.2°C | 0.7% | 65.8hPa | 2.5V | 02:43:54 | 02:31:51 | 00:00:00 | |
| DL8OAI-8 | 2026-08-31 01:04:40 | 50.74040 | 9.77582 | 30° | 33km/h | 19255m | 1.8m/s | -55.2°C | 1.2% | 65.8hPa | 2.5V | 02:43:00 | 00:00:00 | 00:00:00 | |
| DJ2KF-10 | 2026-08-31 01:04:39 | 50.74032 | 9.77576 | 28° | 31km/h | 19253m | 2.0m/s | -55.2°C | 4.1% | 65.8hPa | 2.5V | 00:00:00 | 02:31:51 | 00:00:00 | |
| DO9LL-15 | 2026-08-31 01:04:38 | 50.74025 | 9.77570 | 27° | 31km/h | 19251m | 2.1m/s | -55.2°C | 4.1% | 65.8hPa | 2.5V | 00:00:00 | 02:31:50 | 00:00:00 | |
| DM0DOS-11 | 2026-08-31 01:04:37 | 50.73990 | 9.77534 | 42° | 31km/h | 19241m | 2.1m/s | -55.2°C | 4% | 65.9hPa | 2.5V | 02:43:27 | 02:31:45 | 00:00:00 | |
| HSKMA3-T | 2026-08-31 01:04:37 | 50.74017 | 9.77564 | 29° | 35km/h | 19248m | 1.9m/s | -55.2°C | 0.6% | 65.8hPa | 2.6V | 02:43:54 | 02:31:49 | 00:00:00 | |
| AA1-15 | 2026-08-31 01:04:36 | 50.74010 | 9.77557 | 31° | 33km/h | 19247m | 1.9m/s | -55.2°C | 0.6% | 65.9hPa | 2.5V | 02:43:54 | 02:31:48 | 00:00:00 | |
| DF8AY | 2026-08-31 01:04:35 | 50.74003 | 9.77550 | 35° | 33km/h | 19245m | 2m/s | -55.2°C | 0.7% | 65.9hPa | 2.5V | 02:43:54 | 02:31:47 | 00:00:00 | |
| BUE01 | 2026-08-31 01:04:33 | 50.73990 | 9.77534 | 42° | 29km/h | 19241m | 2.1m/s | -55.2°C | 1.2% | 65.9hPa | 2.5V | 00:00:00 | 00:00:00 | 00:00:00 | |
| DL3AQ-11 | 2026-08-31 01:04:32 | 50.73979 | 9.77517 | 44° | 29km/h | 19237m | 1.9m/s | -55.1°C | 1.2% | 66.0hPa | 2.5V | 00:00:00 | 00:00:00 | 00:00:00 | |
| DL1XH-15 | 2026-08-31 01:04:31 | 50.73949 | 9.77480 | 31° | 31km/h | 19226m | 2.1m/s | -55.1°C | 4% | 66.1hPa | 2.5V | 02:43:34 | 02:31:38 | 00:00:00 | |
| DL1XH1-15 | 2026-08-31 01:04:30 | 50.73943 | 9.77474 | 30° | 33km/h | 19224m | 1.9m/s | -55°C | 4% | 66.1hPa | 2.5V | 02:43:35 | 02:31:37 | 00:00:00 | |
| BIOWL1-15 | 2026-08-31 01:04:29 | 50.73911 | 9.77439 | 39° | 27km/h | 19214m | 2.3m/s | -55°C | 0.7% | 66.2hPa | 2.5V | 02:43:54 | 02:31:32 | 00:00:00 | |
| HSKMA3-T | 2026-08-31 01:04:26 | 50.73949 | 9.77480 | 32° | 31km/h | 19226m | 2.1m/s | -55.1°C | 0.6% | 66.1hPa | 2.5V | 02:43:54 | 02:31:38 | 00:00:00 | |
| AA1-15 | 2026-08-31 01:04:25 | 50.73942 | 9.77474 | 31° | 33km/h | 19224m | 1.9m/s | -55.1°C | 0.6% | 66.1hPa | 2.5V | 02:43:54 | 02:31:37 | 00:00:00 | |
| DF8AY | 2026-08-31 01:04:24 | 50.73936 | 9.77467 | 32° | 33km/h | 19223m | 1.8m/s | -55.1°C | 0.6% | 66.1hPa | 2.6V | 02:43:54 | 02:31:36 | 00:00:00 | |
| DM0DOS-11 | 2026-08-31 01:04:24 | 50.73929 | 9.77460 | 33° | 31km/h | 19221m | 1.8m/s | -55°C | 4.1% | 66.1hPa | 2.6V | 02:43:37 | 02:31:35 | 00:00:00 | |
| BIOWL7-15 | 2026-08-31 01:04:24 | 50.73936 | 9.77467 | 33° | 33km/h | 19223m | 1.8m/s | -55.0°C | 1.2% | 66.1hPa | 2.5V | 00:00:00 | 00:00:00 | 00:00:00 | |
| DC4HF-4 | 2026-08-31 01:04:22 | 50.73916 | 9.77446 | 37° | 27km/h | 19217m | 2.3m/s | -55.0°C | 1.2% | 66.2hPa | 2.5V | 00:00:00 | 00:00:00 | 00:00:00 | |
| DL1XH-15 | 2026-08-31 01:04:21 | 50.73890 | 9.77417 | 25° | 24km/h | 19206m | 2.1m/s | -54.9°C | 4.1% | 66.3hPa | 2.5V | 02:43:44 | 02:31:28 | 00:00:00 | |
| DB0UT-7 | 2026-08-31 01:04:21 | 50.73916 | 9.77446 | 38° | 26km/h | 19217m | 2.2m/s | -55.0°C | 4.1% | 66.1hPa | 2.5V | 00:00:00 | 00:00:00 | 00:00:00 | |
| DB0UT-9 | 2026-08-31 01:04:20 | 50.73916 | 9.77446 | 39° | 29km/h | 19217m | 2.3m/s | -55.0°C | 1.2% | 66.2hPa | 2.5V | 00:00:00 | 00:00:00 | 00:00:00 | |
| DL4BBY-15 | 2026-08-31 01:04:19 | 50.73905 | 9.77432 | 40° | 27km/h | 19212m | 2.0m/s | -55.9°C | 0% | 0hPa | 2.5V | 00:00:00 | 00:00:00 | 00:00:00 | |
| DM0DOS-11 | 2026-08-31 01:04:18 | 50.73872 | 9.77406 | 18° | 29km/h | 19200m | 1.9m/s | -54.9°C | 4% | 66.3hPa | 2.5V | 02:43:47 | 02:31:25 | 00:00:00 | |
| DB0ND-19 | 2026-08-31 01:04:18 | 50.73901 | 9.77426 | 36° | 24km/h | 19210m | 1.9m/s | -55.0°C | 1.2% | 66.2hPa | 2.5V | 00:00:00 | 00:00:00 | 00:00:00 | |
| DL1XH1-15 | 2026-08-31 01:04:16 | 50.73885 | 9.77413 | 21° | 26km/h | 19204m | 2.1m/s | -54.9°C | 4.1% | 66.3hPa | 2.5V | 02:43:45 | 02:31:27 | 00:00:00 | |
| DL1XH-west | 2026-08-31 01:04:16 | 50.73890 | 9.77417 | 26° | 24km/h | 19206m | 2.1m/s | -54.9°C | 0.6% | 66.3hPa | 2.5V | 02:43:54 | 02:31:28 | 00:00:00 | |
| HSKMA3-T | 2026-08-31 01:04:15 | 50.73885 | 9.77413 | 21° | 26km/h | 19204m | 2.1m/s | -54.9°C | 0.7% | 66.3hPa | 2.5V | 02:43:54 | 02:31:27 | 00:00:00 | |
| AA1-15 | 2026-08-31 01:04:14 | 50.73879 | 9.77409 | 19° | 27km/h | 19202m | 2m/s | -54.9°C | 0.6% | 66.3hPa | 2.5V | 02:43:54 | 02:31:26 | 00:00:00 | |
| BIOWL1-15 | 2026-08-31 01:04:12 | 50.73865 | 9.77402 | 19° | 33km/h | 19198m | 1.8m/s | -54.9°C | 0.6% | 66.4hPa | 2.5V | 02:43:54 | 02:31:24 | 00:00:00 | |
| DL1XH-15 | 2026-08-31 01:04:11 | 50.73820 | 9.77358 | 44° | 33km/h | 19187m | 1.9m/s | -54.8°C | 4% | 66.5hPa | 2.5V | 02:43:54 | 02:31:18 | 00:00:00 | |
| DL1XH1-15 | 2026-08-31 01:04:10 | 50.73815 | 9.77349 | 47° | 31km/h | 19184m | 1.9m/s | -54.8°C | 4% | 66.5hPa | 2.5V | 02:43:55 | 02:31:17 | 00:00:00 | |
| DF7PN | 2026-08-31 01:04:10 | 50.73841 | 9.77384 | 31° | 35km/h | 19192m | 2.0m/s | -54.8°C | 1.2% | 66.4hPa | 2.6V | 00:00:00 | 00:00:00 | 00:00:00 | |
| DJ2KF-10 | 2026-08-31 01:04:09 | 50.73841 | 9.77384 | 32° | 27km/h | 19192m | 1.9m/s | -54.8°C | 4.0% | 66.4hPa | 2.6V | 00:00:00 | 02:31:21 | 00:00:00 | |
| DM0DOS-11 | 2026-08-31 01:04:08 | 50.73805 | 9.77333 | 46° | 26km/h | 19180m | 2.1m/s | -54.7°C | 4.1% | 66.5hPa | 2.6V | 02:43:57 | 02:31:15 | 00:00:00 | |
| DL1XH-west | 2026-08-31 01:04:05 | 50.73815 | 9.77349 | 47° | 31km/h | 19185m | 1.9m/s | -54.8°C | 0.7% | 66.5hPa | 2.5V | 02:44:45 | 02:31:17 | 00:00:00 | |
| HSKMA3-T | 2026-08-31 01:04:04 | 50.73810 | 9.77341 | 49° | 27km/h | 19183m | 2.1m/s | -54.8°C | 0.6% | 66.5hPa | 2.6V | 02:44:45 | 02:31:16 | 00:00:00 | |
| DF8AY | 2026-08-31 01:04:03 | 50.73805 | 9.77333 | 47° | 26km/h | 19181m | 2.1m/s | -54.7°C | 0.7% | 66.5hPa | 2.6V | 02:44:45 | 02:31:15 | 00:00:00 | |
| BIOWL1-15 | 2026-08-31 01:04:02 | 50.73787 | 9.77310 | 32° | 24km/h | 19173m | 1.8m/s | -54.7°C | 0.7% | 66.6hPa | 2.5V | 02:44:45 | 02:31:11 | 00:00:00 | |
| DL1XH-15 | 2026-08-31 01:04:01 | 50.73771 | 9.77294 | 33° | 26km/h | 19167m | 2m/s | -54.6°C | 4% | 66.7hPa | 2.6V | 02:44:04 | 02:31:08 | 00:00:00 | |
| DB0UT-9 | 2026-08-31 01:03:59 | 50.73792 | 9.77315 | 35° | 22km/h | 19175m | 1.7m/s | -54.7°C | 1.2% | 66.6hPa | 2.5V | 02:44:00 | 00:00:00 | 00:00:00 | |
| DL8OAI-8 | 2026-08-31 01:03:58 | 50.73787 | 9.77310 | 33° | 24km/h | 19173m | 1.8m/s | -54.7°C | 1.2% | 66.6hPa | 2.5V | 02:44:00 | 00:00:00 | 00:00:00 | |
| DL1XH1-15 | 2026-08-31 01:03:56 | 50.73766 | 9.77288 | 33° | 26km/h | 19165m | 1.9m/s | -54.6°C | 4% | 66.7hPa | 2.5V | 02:44:05 | 02:31:07 | 00:00:00 | |
| HSKMA3-T | 2026-08-31 01:03:54 | 50.73760 | 9.77283 | 33° | 26km/h | 19163m | 1.9m/s | -54.6°C | 0.6% | 66.7hPa | 2.5V | 02:44:45 | 02:31:06 | 00:00:00 | |
| DF8AY | 2026-08-31 01:03:53 | 50.73755 | 9.77277 | 32° | 26km/h | 19161m | 2.1m/s | -54.6°C | 0.6% | 66.7hPa | 2.5V | 02:44:45 | 02:31:05 | 00:00:00 | |
| AA1-15 | 2026-08-31 01:03:52 | 50.73749 | 9.77272 | 30° | 26km/h | 19159m | 2.2m/s | -54.6°C | 0.7% | 66.8hPa | 2.5V | 02:44:45 | 02:31:04 | 00:00:00 | |
| DL3AQ-11 | 2026-08-31 01:03:52 | 50.73744 | 9.77267 | 27° | 24km/h | 19157m | 2.3m/s | -54.6°C | 1.2% | 66.8hPa | 2.5V | 00:00:00 | 00:00:00 | 00:00:00 | |
| DL1XH-15 | 2026-08-31 01:03:51 | 50.73713 | 9.77242 | 31° | 29km/h | 19146m | 2m/s | -54.5°C | 4% | 66.9hPa | 2.5V | 02:44:14 | 02:30:58 | 00:00:00 | |
| BIOWL1-15 | 2026-08-31 01:03:51 | 50.73732 | 9.77258 | 25° | 27km/h | 19152m | 2.1m/s | -54.5°C | 0.6% | 66.8hPa | 2.5V | 02:44:45 | 02:31:01 | 00:00:00 | |
| DL1XH1-15 | 2026-08-31 01:03:50 | 50.73706 | 9.77236 | 34° | 31km/h | 19144m | 2.1m/s | -54.4°C | 4% | 66.9hPa | 2.5V | 02:44:15 | 02:30:57 | 00:00:00 | |
| DL4BBY-15 | 2026-08-31 01:03:49 | 50.73732 | 9.77258 | 25° | 24km/h | 19153m | 2.0m/s | -55.5°C | 0% | 0hPa | 2.6V | 00:00:00 | 00:00:00 | 00:00:00 | |
| DM0DOS-11 | 2026-08-31 01:03:48 | 50.73694 | 9.77221 | 41° | 29km/h | 19140m | 1.9m/s | -54.4°C | 4% | 67hPa | 2.6V | 02:44:17 | 02:30:55 | 00:00:00 | |
| EDDB2-11 | 2026-08-31 01:03:48 | 50.73726 | 9.77254 | 25° | 27km/h | 19150m | 2.1m/s | -54.5°C | 1.2% | 66.9hPa | 2.6V | 00:00:00 | 00:00:00 | 00:00:00 | |
| DB0ND-19 | 2026-08-31 01:03:47 | 50.73719 | 9.77248 | 28° | 29km/h | 19148m | 2.1m/s | -54.5°C | 1.2% | 66.9hPa | 2.6V | 00:00:00 | 00:00:00 | 00:00:00 | |
| DC4HF-4 | 2026-08-31 01:03:46 | 50.73706 | 9.77236 | 34° | 29km/h | 19144m | 2.2m/s | -54.5°C | 1.2% | 66.9hPa | 2.6V | 00:00:00 | 00:00:00 | 00:00:00 | |
| DL1XH-west | 2026-08-31 01:03:44 | 50.73700 | 9.77228 | 39° | 31km/h | 19142m | 2.2m/s | -54.4°C | 0.6% | 66.9hPa | 2.6V | 02:44:45 | 02:30:56 | 00:00:00 | |
| HSKMA3-T | 2026-08-31 01:03:43 | 50.73694 | 9.77221 | 42° | 29km/h | 19140m | 1.9m/s | -54.4°C | 0.7% | 67hPa | 2.6V | 02:44:45 | 02:30:55 | 00:00:00 | |
| AA1-15 | 2026-08-31 01:03:42 | 50.73689 | 9.77213 | 44° | 29km/h | 19138m | 1.7m/s | -54.4°C | 0.7% | 67hPa | 2.5V | 02:44:45 | 02:30:54 | 00:00:00 | |
| BIOWL1-15 | 2026-08-31 01:03:38 | 50.73670 | 9.77185 | 41° | 22km/h | 19130m | 2.3m/s | -54.3°C | 0.6% | 67.1hPa | 2.5V | 02:44:45 | 02:30:50 | 00:00:00 | |
| DM0DOS-11 | 2026-08-31 01:03:37 | 50.73648 | 9.77159 | 37° | 24km/h | 19119m | 2.4m/s | -54.2°C | 3.9% | 67.2hPa | 2.5V | 02:44:27 | 02:30:45 | 00:00:00 | |
| DL1XH1-15 | 2026-08-31 01:03:36 | 50.73657 | 9.77169 | 34° | 22km/h | 19124m | 1.9m/s | -54.3°C | 4% | 67.2hPa | 2.5V | 02:44:25 | 02:30:47 | 00:00:00 | |
| DL1XH-west | 2026-08-31 01:03:34 | 50.73653 | 9.77164 | 36° | 22km/h | 19122m | 2.2m/s | -54.3°C | 0.6% | 67.1hPa | 2.5V | 02:44:45 | 02:30:46 | 00:00:00 | |
| HSKMA3-T | 2026-08-31 01:03:33 | 50.73648 | 9.77159 | 38° | 24km/h | 19119m | 2.4m/s | -54.2°C | 0.6% | 67.2hPa | 2.5V | 02:44:45 | 02:30:45 | 00:00:00 | |
| DF8AY | 2026-08-31 01:03:32 | 50.73643 | 9.77153 | 38° | 24km/h | 19117m | 2.4m/s | -54.2°C | 0.6% | 67.2hPa | 2.5V | 02:44:45 | 02:30:44 | 00:00:00 | |
| DL1XH-west | 2026-08-31 01:03:24 | 50.73607 | 9.77111 | 27° | 20km/h | 19099m | 1.9m/s | -54.1°C | 0.6% | 67.4hPa | 2.6V | 02:44:45 | 02:30:36 | 00:00:00 | |
| DM0DOS-11 | 2026-08-31 01:03:23 | 50.73602 | 9.77107 | 28° | 22km/h | 19097m | 1.9m/s | -54°C | 3.9% | 67.4hPa | 2.6V | 02:44:37 | 02:30:35 | 00:00:00 | |
| AA1-15 | 2026-08-31 01:03:22 | 50.73597 | 9.77103 | 29° | 22km/h | 19095m | 2m/s | -54°C | 0.7% | 67.4hPa | 2.5V | 02:44:45 | 02:30:34 | 00:00:00 | |
| DF8AY | 2026-08-31 01:03:21 | 50.73592 | 9.77099 | 31° | 24km/h | 19093m | 2.2m/s | -54°C | 0.6% | 67.4hPa | 2.5V | 02:44:45 | 02:30:33 | 00:00:00 | |
| DK5PH-5 | 2026-08-31 01:03:21 | 50.73592 | 9.77099 | 31° | 24km/h | 19094m | 2.2m/s | -54.0°C | 3.9% | 67.4hPa | 2.5V | 00:00:00 | 02:30:33 | 00:00:00 | |
| DB0UT-9 | 2026-08-31 01:03:19 | 50.73587 | 9.77093 | 33° | 26km/h | 19091m | 2.1m/s | -54.0°C | 1.2% | 67.5hPa | 2.5V | 02:44:00 | 00:00:00 | 00:00:00 | |
| DM0DOS-11 | 2026-08-31 01:03:18 | 50.73548 | 9.77049 | 36° | 27km/h | 19077m | 1.9m/s | -53.9°C | 3.9% | 67.6hPa | 2.5V | 02:44:47 | 02:30:25 | 00:00:00 | |
| BIOWL1-15 | 2026-08-31 01:03:14 | 50.73553 | 9.77056 | 37° | 27km/h | 19079m | 2.2m/s | -53.9°C | 0.6% | 67.6hPa | 2.5V | 02:45:36 | 02:30:26 | 00:00:00 | |
| DL1XH-west | 2026-08-31 01:03:13 | 50.73548 | 9.77049 | 36° | 27km/h | 19077m | 1.9m/s | -53.9°C | 0.6% | 67.6hPa | 2.5V | 02:45:36 | 02:30:25 | 00:00:00 | |
| HSKMA3-T | 2026-08-31 01:03:11 | 50.73537 | 9.77036 | 36° | 26km/h | 19073m | 1.8m/s | -53.8°C | 0.5% | 67.7hPa | 2.5V | 02:45:36 | 02:30:23 | 00:00:00 | |
| DF8AY | 2026-08-31 01:03:10 | 50.73532 | 9.77030 | 37° | 26km/h | 19071m | 2.1m/s | -53.8°C | 0.6% | 67.7hPa | 2.6V | 02:45:36 | 02:30:22 | 00:00:00 | |
| DC4HF-4 | 2026-08-31 01:03:10 | 50.73527 | 9.77024 | 37° | 24km/h | 19069m | 2.3m/s | -53.8°C | 1.1% | 67.7hPa | 2.6V | 00:00:00 | 00:00:00 | 00:00:00 | |
| DB0UT-7 | 2026-08-31 01:03:09 | 50.73527 | 9.77024 | 38° | 22km/h | 19069m | 2.3m/s | -53.8°C | 3.8% | 67.7hPa | 2.6V | 00:00:00 | 02:30:21 | 00:00:00 | |
| DM0DOS-11 | 2026-08-31 01:03:08 | 50.73500 | 9.76987 | 44° | 22km/h | 19056m | 2.5m/s | -53.7°C | 3.8% | 67.9hPa | 2.6V | 02:44:57 | 02:30:15 | 00:00:00 | |
| DL1XH-west | 2026-08-31 01:03:02 | 50.73496 | 9.76981 | 44° | 22km/h | 19053m | 2.4m/s | -53.7°C | 0.5% | 67.9hPa | 2.6V | 02:45:36 | 02:30:14 | 00:00:00 | |
| AA1-15 | 2026-08-31 01:03:01 | 50.73492 | 9.76975 | 44° | 22km/h | 19051m | 2.2m/s | -53.6°C | 0.5% | 67.9hPa | 2.5V | 02:45:36 | 02:30:13 | 00:00:00 | |
| HSKMA3-T | 2026-08-31 01:03:00 | 50.73489 | 9.76969 | 44° | 20km/h | 19049m | 1.9m/s | -53.6°C | 0.5% | 67.9hPa | 2.5V | 02:45:36 | 02:30:12 | 00:00:00 | |
| BUE01 | 2026-08-31 01:03:00 | 50.73485 | 9.76963 | 44° | 20km/h | 19047m | 2.1m/s | -53.6°C | 1.1% | 67.9hPa | 2.5V | 00:00:00 | 00:00:00 | 00:00:00 | |
| DL3AQ-11 | 2026-08-31 01:02:56 | 50.73470 | 9.76940 | 43° | 20km/h | 19038m | 2.1m/s | -53.6°C | 1.2% | 68.0hPa | 2.5V | 00:00:00 | 00:00:00 | 00:00:00 | |
| DM0DOS-11 | 2026-08-31 01:02:55 | 50.73462 | 9.76929 | 40° | 20km/h | 19034m | 2.2m/s | -53.5°C | 3.8% | 68.1hPa | 2.5V | 02:45:07 | 02:30:05 | 00:00:00 | |
| BIOWL1-15 | 2026-08-31 01:02:53 | 50.73462 | 9.76929 | 40° | 20km/h | 19034m | 2.2m/s | -53.5°C | 0.5% | 68.1hPa | 2.5V | 02:45:36 | 02:30:05 | 00:00:00 | |
| DD1CC8 | 2026-08-31 01:02:52 | 50.73454 | 9.76919 | 37° | 20km/h | 19030m | 2.3m/s | -53.5°C | 1.1% | 68.1hPa | 2.5V | 00:00:00 | 00:00:00 | 00:00:00 | |
| DL1XH-15 | 2026-08-31 01:02:51 | 50.73434 | 9.76891 | 49° | 22km/h | 19019m | 2.1m/s | -53.4°C | 3.8% | 68.2hPa | 2.5V | 02:45:14 | 02:29:58 | 00:00:00 | |
| DL1XH-west | 2026-08-31 01:02:51 | 50.73454 | 9.76919 | 38° | 20km/h | 19030m | 2.3m/s | -53.5°C | 0.5% | 68.1hPa | 2.5V | 02:45:36 | 02:30:03 | 00:00:00 | |
| HSKMA3-T | 2026-08-31 01:02:50 | 50.73449 | 9.76914 | 39° | 20km/h | 19027m | 2m/s | -53.5°C | 0.5% | 68.2hPa | 2.6V | 02:45:36 | 02:30:02 | 00:00:00 | |
| DF8AY | 2026-08-31 01:02:49 | 50.73445 | 9.76908 | 40° | 20km/h | 19025m | 2m/s | -53.5°C | 0.6% | 68.2hPa | 2.6V | 02:45:36 | 02:30:01 | 00:00:00 | |
| BIOWL1-15 | 2026-08-31 01:02:42 | 50.73416 | 9.76859 | 43° | 20km/h | 19009m | 2.1m/s | -53.4°C | 0.5% | 68.4hPa | 2.5V | 02:45:36 | 02:29:53 | 00:00:00 | |
| DL1XH-west | 2026-08-31 01:02:40 | 50.73413 | 9.76853 | 41° | 20km/h | 19007m | 1.9m/s | -53.3°C | 0.5% | 68.4hPa | 2.5V | 02:45:36 | 02:29:52 | 00:00:00 | |
| DL1XH-15 | 2026-08-31 01:02:39 | 50.73397 | 9.76834 | 39° | 20km/h | 19000m | 1.8m/s | -53.2°C | 3.8% | 68.4hPa | 2.6V | 02:45:24 | 02:29:48 | 00:00:00 | |
| DF8AY | 2026-08-31 01:02:39 | 50.73409 | 9.76848 | 39° | 20km/h | 19005m | 1.9m/s | -53.3°C | 0.5% | 68.4hPa | 2.5V | 02:45:36 | 02:29:51 | 00:00:00 | |
| DL1XH-west | 2026-08-31 01:02:30 | 50.73373 | 9.76797 | 44° | 24km/h | 18990m | 1.8m/s | -53.2°C | 0.5% | 68.5hPa | 2.6V | 02:45:36 | 02:29:42 | 00:00:00 | |
| HSKMA3-T | 2026-08-31 01:02:29 | 50.73368 | 9.76791 | 43° | 24km/h | 18988m | 1.9m/s | -53.1°C | 0.5% | 68.6hPa | 2.6V | 02:45:36 | 02:29:41 | 00:00:00 | |
| DL1XH-15 | 2026-08-31 01:02:28 | 50.73355 | 9.76772 | 41° | 24km/h | 18982m | 1.7m/s | -53.1°C | 3.8% | 68.6hPa | 2.5V | 02:45:34 | 02:29:38 | 00:00:00 | |
| DF8AY | 2026-08-31 01:02:28 | 50.73364 | 9.76784 | 42° | 24km/h | 18986m | 1.9m/s | -53.1°C | 0.5% | 68.6hPa | 2.5V | 02:45:36 | 02:29:40 | 00:00:00 | |
| DL1XH1-15 | 2026-08-31 01:02:27 | 50.73351 | 9.76766 | 41° | 24km/h | 18981m | 1.6m/s | -53.1°C | 3.7% | 68.7hPa | 2.5V | 02:45:35 | 02:29:37 | 00:00:00 | |
| DL1XH-west | 2026-08-31 01:02:20 | 50.73330 | 9.76735 | 44° | 22km/h | 18972m | 1.6m/s | -53°C | 0.6% | 68.8hPa | 2.5V | 02:46:27 | 02:29:32 | 00:00:00 | |
| DL1XH1-15 | 2026-08-31 01:02:20 | 50.73310 | 9.76708 | 38° | 22km/h | 18963m | 1.9m/s | -52.9°C | 3.8% | 68.8hPa | 2.6V | 02:45:45 | 02:29:27 | 00:00:00 | |
| BIOWL1-15 | 2026-08-31 01:02:19 | 50.73326 | 9.76729 | 42° | 22km/h | 18970m | 1.5m/s | -53°C | 0.6% | 68.8hPa | 2.5V | 02:46:27 | 02:29:31 | 00:00:00 | |
| DL4BBY-15 | 2026-08-31 01:02:19 | 50.73326 | 9.76729 | 43° | 20km/h | 18970m | 1.5m/s | -53.9°C | 0% | 0hPa | 2.6V | 00:00:00 | 00:00:00 | 00:00:00 | |
| DL1XH-15 | 2026-08-31 01:02:18 | 50.73314 | 9.76713 | 37° | 20km/h | 18965m | 1.9m/s | -52.9°C | 3.8% | 68.8hPa | 2.6V | 02:45:44 | 02:29:28 | 00:00:00 | |
| DM0DOS-11 | 2026-08-31 01:02:18 | 50.73298 | 9.76690 | 46° | 22km/h | 18958m | 1.6m/s | -52.9°C | 3.8% | 68.9hPa | 2.5V | 02:45:48 | 02:29:24 | 00:00:00 | |
| HSKMA3-T | 2026-08-31 01:02:18 | 50.73322 | 9.76724 | 41° | 20km/h | 18969m | 1.7m/s | -53°C | 0.6% | 68.8hPa | 2.5V | 02:46:27 | 02:29:30 | 00:00:00 | |
| AA1-15 | 2026-08-31 01:02:17 | 50.73318 | 9.76718 | 39° | 22km/h | 18967m | 1.9m/s | -53°C | 0.5% | 68.8hPa | 2.5V | 02:46:27 | 02:29:29 | 00:00:00 | |
| DL1XH-west | 2026-08-31 01:02:09 | 50.73287 | 9.76669 | 54° | 24km/h | 18952m | 1.8m/s | -52.8°C | 0.6% | 69hPa | 2.6V | 02:46:27 | 02:29:21 | 00:00:00 | |
| HSKMA3-T | 2026-08-31 01:02:08 | 50.73283 | 9.76661 | 54° | 24km/h | 18951m | 1.6m/s | -52.8°C | 0.5% | 69hPa | 2.6V | 02:46:27 | 02:29:20 | 00:00:00 | |
| DL1XH-15 | 2026-08-31 01:02:07 | 50.73276 | 9.76647 | 51° | 22km/h | 18948m | 1.7m/s | -52.8°C | 3.7% | 69hPa | 2.5V | 02:45:54 | 02:29:18 | 00:00:00 | |
| DL1XH1-15 | 2026-08-31 01:02:07 | 50.73273 | 9.76640 | 50° | 20km/h | 18946m | 1.9m/s | -52.8°C | 3.7% | 69hPa | 2.5V | 02:45:55 | 02:29:17 | 00:00:00 | |
| AA1-15 | 2026-08-31 01:02:06 | 50.73276 | 9.76647 | 52° | 22km/h | 18948m | 1.7m/s | -52.8°C | 0.5% | 69hPa | 2.5V | 02:46:27 | 02:29:18 | 00:00:00 | |
| DF7PN | 2026-08-31 01:02:05 | 50.73273 | 9.76640 | 50° | 20km/h | 18946m | 1.9m/s | -52.8°C | 1.1% | 69.0hPa | 2.5V | 00:00:00 | 00:00:00 | 00:00:00 | |
| DL1ZP-14 | 2026-08-31 01:02:04 | 50.73269 | 9.76634 | 46° | 18km/h | 18944m | 1.9m/s | -52.8°C | 1.1% | 69.1hPa | 2.5V | 00:00:00 | 00:00:00 | 00:00:00 | |
| DL3AQ-11 | 2026-08-31 01:02:03 | 50.73266 | 9.76629 | 44° | 16km/h | 18942m | 1.9m/s | -52.8°C | 1.1% | 69.1hPa | 2.6V | 00:00:00 | 00:00:00 | 00:00:00 | |
| DL1XH-15 | 2026-08-31 01:02:01 | 50.73245 | 9.76595 | 55° | 18km/h | 18929m | 1.7m/s | -52.7°C | 3.8% | 69.2hPa | 2.6V | 02:46:04 | 02:29:08 | 00:00:00 | |
| DL1XH-west | 2026-08-31 01:01:59 | 50.73254 | 9.76611 | 45° | 16km/h | 18935m | 1.8m/s | -52.7°C | 0.5% | 69.2hPa | 2.5V | 02:46:27 | 02:29:11 | 00:00:00 | |
| DC4HF-4 | 2026-08-31 01:01:58 | 50.73248 | 9.76601 | 52° | 16km/h | 18931m | 1.8m/s | -52.7°C | 1.1% | 69.2hPa | 2.6V | 00:00:00 | 00:00:00 | 00:00:00 | |
| DL1XH1-15 | 2026-08-31 01:01:57 | 50.73243 | 9.76588 | 56° | 20km/h | 18927m | 1.7m/s | -52.7°C | 3.7% | 69.2hPa | 2.6V | 02:46:05 | 02:29:07 | 00:00:00 | |
| HSKMA3-T | 2026-08-31 01:01:57 | 50.73248 | 9.76601 | 53° | 18km/h | 18931m | 1.8m/s | -52.7°C | 0.5% | 69.2hPa | 2.5V | 02:46:27 | 02:29:09 | 00:00:00 | |
| DM0DOS-11 | 2026-08-31 01:01:56 | 50.73237 | 9.76575 | 56° | 20km/h | 18924m | 1.8m/s | -52.8°C | 3.7% | 69.3hPa | 2.5V | 02:46:07 | 02:29:05 | 00:00:00 | |
| AA1-15 | 2026-08-31 01:01:55 | 50.73243 | 9.76588 | 57° | 20km/h | 18928m | 1.7m/s | -52.7°C | 0.6% | 69.2hPa | 2.6V | 02:46:27 | 02:29:07 | 00:00:00 | |
| DL3AQ-11 | 2026-08-31 01:01:52 | 50.73231 | 9.76561 | 52° | 20km/h | 18920m | 1.7m/s | -52.8°C | 1.1% | 69.3hPa | 2.5V | 00:00:00 | 00:00:00 | 00:00:00 | |
| DD1CC8 | 2026-08-31 01:01:50 | 50.73224 | 9.76549 | 47° | 18km/h | 18917m | 1.6m/s | -52.8°C | 1.1% | 69.3hPa | 2.5V | 00:00:00 | 00:00:00 | 00:00:00 | |
| DL1XH-15 | 2026-08-31 01:01:49 | 50.73214 | 9.76533 | 45° | 18km/h | 18912m | 1.7m/s | -52.7°C | 3.7% | 69.4hPa | 2.5V | 02:46:14 | 02:28:58 | 00:00:00 | |
| DL1XH-west | 2026-08-31 01:01:48 | 50.73221 | 9.76544 | 45° | 20km/h | 18916m | 1.7m/s | -52.7°C | 0.6% | 69.3hPa | 2.6V | 02:46:27 | 02:29:00 | 00:00:00 | |
| DL1XH1-15 | 2026-08-31 01:01:47 | 50.73211 | 9.76528 | 45° | 18km/h | 18910m | 1.5m/s | -52.7°C | 3.7% | 69.4hPa | 2.5V | 02:46:15 | 02:28:57 | 00:00:00 | |
| HSKMA3-T | 2026-08-31 01:01:47 | 50.73217 | 9.76538 | 45° | 18km/h | 18914m | 1.7m/s | -52.7°C | 0.6% | 69.4hPa | 2.5V | 02:46:27 | 02:28:59 | 00:00:00 | |
| AA1-15 | 2026-08-31 01:01:45 | 50.73211 | 9.76528 | 45° | 18km/h | 18910m | 1.5m/s | -52.7°C | 0.6% | 69.4hPa | 2.5V | 02:46:27 | 02:28:57 | 00:00:00 | |
| EDDB2-11 | 2026-08-31 01:01:44 | 50.73205 | 9.76517 | 49° | 16km/h | 18908m | 1.4m/s | -52.7°C | 1.1% | 69.4hPa | 2.5V | 00:00:00 | 00:00:00 | 00:00:00 | |
| DB0ND-19 | 2026-08-31 01:01:43 | 50.73202 | 9.76512 | 50° | 18km/h | 18906m | 1.5m/s | -52.7°C | 1.1% | 69.5hPa | 2.5V | 00:00:00 | 00:00:00 | 00:00:00 | |
| SONCRA | 2026-08-31 01:01:40 | 50.73196 | 9.76500 | 52° | 18km/h | 18903m | 1.4m/s | -52.7°C | 1.2% | 69.5hPa | 2.5V | 00:00:00 | 00:00:00 | 00:00:00 | |
| DJ2KF-10 | 2026-08-31 01:01:39 | 50.73193 | 9.76494 | 52° | 22km/h | 18902m | 1.4m/s | -52.6°C | 3.7% | 69.5hPa | 2.5V | 00:00:00 | 02:28:51 | 00:00:00 | |
| DM0DOS-11 | 2026-08-31 01:01:38 | 50.73168 | 9.76451 | 48° | 22km/h | 18890m | 1.4m/s | -52.7°C | 3.7% | 69.6hPa | 2.5V | 02:46:28 | 02:28:44 | 00:00:00 | |
| DL1XH-15 | 2026-08-31 01:01:37 | 50.73183 | 9.76476 | 47° | 20km/h | 18897m | 1.5m/s | -52.6°C | 3.6% | 69.5hPa | 2.6V | 02:46:24 | 02:28:48 | 00:00:00 | |
| DL1XH1-15 | 2026-08-31 01:01:37 | 50.73180 | 9.76470 | 46° | 22km/h | 18895m | 1.6m/s | -52.6°C | 3.7% | 69.6hPa | 2.6V | 02:46:25 | 02:28:47 | 00:00:00 | |
| BIOWL1-15 | 2026-08-31 01:01:37 | 50.73187 | 9.76482 | 49° | 20km/h | 18898m | 1.7m/s | -52.6°C | 0.5% | 69.5hPa | 2.5V | 02:46:27 | 02:28:49 | 00:00:00 | |
| DF8AY | 2026-08-31 01:01:36 | 50.73183 | 9.76476 | 47° | 20km/h | 18897m | 1.5m/s | -52.6°C | 0.5% | 69.5hPa | 2.6V | 02:46:27 | 02:28:48 | 00:00:00 | |
| AA1-15 | 2026-08-31 01:01:35 | 50.73176 | 9.76464 | 47° | 22km/h | 18893m | 1.7m/s | -52.6°C | 0.5% | 69.6hPa | 2.5V | 02:46:27 | 02:28:46 | 00:00:00 | |
| DO2JMG | 2026-08-31 01:01:28 | 50.73154 | 9.76422 | 57° | 24km/h | 18884m | 1.6m/s | -52.9°C | 0.6% | 69.7hPa | 2.6V | 18:12:15 | 02:28:40 | 00:00:00 | |
| DL1XH-west | 2026-08-31 01:01:27 | 50.73151 | 9.76414 | 58° | 24km/h | 18883m | 1.4m/s | -53°C | 0.6% | 69.7hPa | 2.5V | 02:47:18 | 02:28:39 | 00:00:00 | |
| DL1XH-15 | 2026-08-31 01:01:27 | 50.73148 | 9.76406 | 59° | 24km/h | 18881m | 1.6m/s | -53.1°C | 3.8% | 69.7hPa | 2.5V | 02:46:34 | 02:28:38 | 00:00:00 | |
| DM0DOS-11 | 2026-08-31 01:01:26 | 50.73139 | 9.76382 | 60° | 24km/h | 18876m | 1.7m/s | -53.1°C | 3.8% | 69.8hPa | 2.5V | 02:46:37 | 02:28:35 | 00:00:00 | |
| DL1XH1-15 | 2026-08-31 01:01:26 | 50.73145 | 9.76398 | 59° | 24km/h | 18880m | 1.7m/s | -53.1°C | 3.9% | 69.8hPa | 2.5V | 02:46:35 | 02:28:37 | 00:00:00 | |
| DF8AY | 2026-08-31 01:01:26 | 50.73148 | 9.76406 | 59° | 24km/h | 18881m | 1.6m/s | -53.1°C | 0.7% | 69.7hPa | 2.5V | 02:47:18 | 02:28:38 | 00:00:00 | |
| AA1-15 | 2026-08-31 01:01:24 | 50.73142 | 9.76390 | 60° | 24km/h | 18878m | 1.7m/s | -53.1°C | 0.7% | 69.8hPa | 2.5V | 02:48:09 | 02:28:36 | 00:00:00 | |
| SFWM-10 | 2026-08-31 01:01:22 | 50.73139 | 9.76382 | 61° | 24km/h | 18876m | 1.7m/s | -53.1°C | 1.2% | 69.8hPa | 2.5V | 02:47:00 | 00:00:00 | 00:00:00 | |
| DL1XH-15 | 2026-08-31 01:01:21 | 50.73119 | 9.76322 | 66° | 24km/h | 18865m | 1.4m/s | -53°C | 3.8% | 69.9hPa | 2.5V | 02:46:44 | 02:28:28 | 00:00:00 | |
| DK5PH-5 | 2026-08-31 01:01:21 | 50.73133 | 9.76365 | 61° | 20km/h | 18873m | 1.7m/s | -53.0°C | 3.7% | 69.8hPa | 2.6V | 00:00:00 | 02:28:33 | 00:00:00 | |
| DL1XH1-15 | 2026-08-31 01:01:20 | 50.73117 | 9.76314 | 67° | 22km/h | 18863m | 1.6m/s | -53°C | 3.8% | 69.9hPa | 2.6V | 02:46:45 | 02:28:27 | 00:00:00 | |
| DO2JMG | 2026-08-31 01:01:17 | 50.73122 | 9.76331 | 66° | 24km/h | 18866m | 1.5m/s | -53.1°C | 0.7% | 69.9hPa | 2.5V | 18:12:15 | 02:28:29 | 00:00:00 | |
| BIOWL1-15 | 2026-08-31 01:01:16 | 50.73119 | 9.76322 | 67° | 24km/h | 18865m | 1.4m/s | -53.1°C | 0.7% | 69.9hPa | 2.5V | 02:47:18 | 02:28:28 | 00:00:00 | |
| DF8AY | 2026-08-31 01:01:15 | 50.73117 | 9.76314 | 68° | 22km/h | 18863m | 1.6m/s | -53.1°C | 0.7% | 69.9hPa | 2.6V | 02:47:18 | 02:28:27 | 00:00:00 | |
| AA1-15 | 2026-08-31 01:01:13 | 50.73113 | 9.76298 | 69° | 22km/h | 18860m | 1.5m/s | -53.1°C | 0.7% | 70hPa | 2.5V | 02:48:09 | 02:28:25 | 00:00:00 | |
| EDDB2-11 | 2026-08-31 01:01:13 | 50.73109 | 9.76282 | 67° | 20km/h | 18857m | 1.5m/s | -53.1°C | 1.3% | 70.0hPa | 2.5V | 00:00:00 | 00:00:00 | 00:00:00 | |
| DL3AQ-11 | 2026-08-31 01:01:12 | 50.73109 | 9.76282 | 67° | 20km/h | 18857m | 1.5m/s | -53.1°C | -1.0% | -1.0hPa | 2.5V | 00:00:00 | 00:00:00 | 00:00:00 | |
| DL1XH-15 | 2026-08-31 01:01:11 | 50.73099 | 9.76245 | 66° | 20km/h | 18849m | 1.7m/s | -53.3°C | 4% | 70.1hPa | 2.5V | 02:46:54 | 02:28:18 | 00:00:00 | |
| DL1XH1-15 | 2026-08-31 01:01:10 | 50.73097 | 9.76238 | 67° | 20km/h | 18847m | 1.6m/s | -53.4°C | 4% | 70.1hPa | 2.5V | 02:46:55 | 02:28:17 | 00:00:00 | |
| HSKMA3-T | 2026-08-31 01:01:06 | 50.73099 | 9.76245 | 66° | 20km/h | 18849m | 1.7m/s | -53.3°C | 0.9% | 70.1hPa | 2.5V | 02:47:18 | 02:28:18 | 00:00:00 | |
| DM0DOS-11 | 2026-08-31 01:01:05 | 50.73093 | 9.76224 | 66° | 18km/h | 18844m | 1.7m/s | -53.4°C | 4% | 70.1hPa | 2.5V | 02:46:57 | 02:28:15 | 00:00:00 | |
| DL1XH-west | 2026-08-31 01:01:05 | 50.73097 | 9.76238 | 68° | 20km/h | 18848m | 1.6m/s | -53.4°C | 0.9% | 70.1hPa | 2.5V | 02:47:18 | 02:28:17 | 00:00:00 | |
| DF8AY | 2026-08-31 01:01:04 | 50.73095 | 9.76231 | 67° | 20km/h | 18846m | 1.5m/s | -53.4°C | 1% | 70.1hPa | 2.5V | 02:47:18 | 02:28:16 | 00:00:00 | |
| AA1-15 | 2026-08-31 01:01:02 | 50.73091 | 9.76217 | 67° | 18km/h | 18842m | 1.7m/s | -53.4°C | 0.9% | 70.1hPa | 2.6V | 02:48:09 | 02:28:14 | 00:00:00 | |
| DL1ZP-14 | 2026-08-31 01:01:02 | 50.73091 | 9.76217 | 66° | 16km/h | 18843m | 1.7m/s | -53.4°C | 1.3% | 70.1hPa | 2.6V | 00:00:00 | 00:00:00 | 00:00:00 | |
| DL1XH-15 | 2026-08-31 01:01:01 | 50.73078 | 9.76186 | 47° | 16km/h | 18833m | 1.4m/s | -53.5°C | 3.9% | 70.2hPa | 2.5V | 02:47:04 | 02:28:08 | 00:00:00 | |
| DL1XH1-15 | 2026-08-31 01:01:00 | 50.73075 | 9.76181 | 49° | 18km/h | 18831m | 1.6m/s | -53.4°C | 3.9% | 70.2hPa | 2.6V | 02:47:05 | 02:28:07 | 00:00:00 | |
| DO2JMG | 2026-08-31 01:00:58 | 50.73083 | 9.76195 | 51° | 15km/h | 18836m | 1.6m/s | -53.5°C | 0.8% | 70.2hPa | 2.5V | 18:12:15 | 02:28:10 | 00:00:00 | |
| BIOWL1-15 | 2026-08-31 01:00:56 | 50.73078 | 9.76186 | 47° | 16km/h | 18833m | 1.4m/s | -53.5°C | 0.8% | 70.3hPa | 2.5V | 02:47:18 | 02:28:08 | 00:00:00 | |
| DL1XH-west | 2026-08-31 01:00:55 | 50.73075 | 9.76181 | 50° | 18km/h | 18831m | 1.6m/s | -53.4°C | 0.8% | 70.2hPa | 2.6V | 02:47:18 | 02:28:07 | 00:00:00 | |
| DM0DOS-11 | 2026-08-31 01:00:54 | 50.73069 | 9.76169 | 56° | 20km/h | 18828m | 1.6m/s | -53.4°C | 3.9% | 70.3hPa | 2.5V | 02:47:07 | 02:28:05 | 00:00:00 | |
| DF8AY | 2026-08-31 01:00:54 | 50.73072 | 9.76175 | 53° | 18km/h | 18830m | 1.5m/s | -53.4°C | 0.8% | 70.3hPa | 2.6V | 02:47:18 | 02:28:06 | 00:00:00 | |
| HTAHTA | 2026-08-31 01:00:53 | 50.73059 | 9.76135 | 68° | 24km/h | 18822m | 1.7m/s | -53.5°C | 1.3% | 70.4hPa | 2.5V | 00:00:00 | 00:00:00 | 00:00:00 | |
| DL1XH-15 | 2026-08-31 01:00:51 | 50.73052 | 9.76108 | 65° | 22km/h | 18817m | 1.6m/s | -53.5°C | 4% | 70.4hPa | 2.5V | 02:47:14 | 02:27:58 | 00:00:00 | |
| DK5PH-5 | 2026-08-31 01:00:51 | 50.73064 | 9.76153 | 65° | 24km/h | 18825m | 1.5m/s | -53.4°C | 4.0% | 70.3hPa | 2.5V | 02:47:00 | 02:28:03 | 00:00:00 | |
| DL1XH1-15 | 2026-08-31 01:00:50 | 50.73050 | 9.76100 | 62° | 22km/h | 18815m | 1.9m/s | -53.5°C | 4% | 70.5hPa | 2.5V | 02:47:15 | 02:27:57 | 00:00:00 | |
| DO2JMG | 2026-08-31 01:00:47 | 50.73054 | 9.76116 | 68° | 24km/h | 18818m | 1.6m/s | 0°C | 0% | 70.4hPa | 2.5V | 18:12:15 | 02:27:59 | 00:00:00 | |
| BIOWL1-15 | 2026-08-31 01:00:46 | 50.73042 | 9.76081 | 57° | 18km/h | 18810m | 1.6m/s | -53.5°C | 0.9% | 70.5hPa | 2.6V | 02:47:18 | 02:27:54 | 00:00:00 | |
| HSKMA3-T | 2026-08-31 01:00:45 | 50.73049 | 9.76100 | 63° | 22km/h | 18815m | 1.9m/s | -53.5°C | 0.9% | 70.5hPa | 2.5V | 02:47:18 | 02:27:57 | 00:00:00 | |
| DL1XH-west | 2026-08-31 01:00:44 | 50.73047 | 9.76093 | 60° | 20km/h | 18813m | 1.8m/s | -53.5°C | 0.8% | 70.5hPa | 2.5V | 02:47:18 | 02:27:56 | 00:00:00 | |
| DM0DOS-11 | 2026-08-31 01:00:44 | 50.73045 | 9.76087 | 57° | 18km/h | 18811m | 1.8m/s | -53.5°C | 4% | 70.5hPa | 2.5V | 02:47:17 | 02:27:55 | 00:00:00 | |
| DF8AY | 2026-08-31 01:00:43 | 50.73035 | 9.76060 | 69° | 22km/h | 18805m | 1.6m/s | -53.5°C | 0.9% | 70.6hPa | 2.5V | 02:48:09 | 02:27:51 | 00:00:00 | |
| EDDB2-11 | 2026-08-31 01:00:42 | 50.73040 | 9.76074 | 59° | 18km/h | 18808m | 1.5m/s | -53.5°C | 1.3% | 70.5hPa | 2.5V | 00:00:00 | 00:00:00 | 00:00:00 | |
| DL1XH-15 | 2026-08-31 01:00:41 | 50.73030 | 9.76033 | 77° | 26km/h | 18800m | 1.7m/s | -53.5°C | 4% | 70.6hPa | 2.5V | 02:47:24 | 02:27:48 | 00:00:00 | |
| DO2JMG | 2026-08-31 01:00:37 | 50.73032 | 9.76043 | 76° | 26km/h | 18802m | 1.8m/s | 0°C | 0% | 70.6hPa | 2.5V | 18:12:15 | 02:27:49 | 00:00:00 | |
| HSKMA3-T | 2026-08-31 01:00:34 | 50.73028 | 9.76011 | 77° | 27km/h | 18796m | 1.8m/s | -53.5°C | 0.9% | 70.7hPa | 2.6V | 02:48:09 | 02:27:46 | 00:00:00 | |
| DM0DOS-11 | 2026-08-31 01:00:34 | 50.73026 | 9.76001 | 75° | 27km/h | 18795m | 2.1m/s | -53.5°C | 4% | 70.7hPa | 2.5V | 02:47:27 | 02:27:45 | 00:00:00 | |
| DF8AY | 2026-08-31 01:00:33 | 50.73026 | 9.76001 | 76° | 27km/h | 18795m | 2.1m/s | -53.5°C | 1% | 70.7hPa | 2.5V | 02:48:09 | 02:27:45 | 00:00:00 | |
| DF7PN | 2026-08-31 01:00:32 | 50.73024 | 9.75990 | 73° | 26km/h | 18792m | 2.1m/s | -53.5°C | 1.4% | 70.7hPa | 2.5V | 00:00:00 | 00:00:00 | 00:00:00 | |
| DL1ZP-14 | 2026-08-31 01:00:31 | 50.73022 | 9.75981 | 70° | 24km/h | 18791m | 1.9m/s | -53.6°C | 1.4% | 70.7hPa | 2.5V | 00:00:00 | 00:00:00 | 00:00:00 | |
| DL1XH1-15 | 2026-08-31 01:00:30 | 50.73004 | 9.75916 | 68° | 27km/h | 18778m | 1.8m/s | -53.7°C | 4.2% | 70.8hPa | 2.5V | 02:47:36 | 02:27:36 | 00:00:00 | |
| DM0DOS-11 | 2026-08-31 01:00:28 | 50.73001 | 9.75906 | 69° | 27km/h | 18776m | 1.9m/s | -53.7°C | 4.3% | 70.9hPa | 2.5V | 02:47:37 | 02:27:35 | 00:00:00 | |
| DO2JMG | 2026-08-31 01:00:26 | 50.73009 | 9.75935 | 65° | 26km/h | 18781m | 1.9m/s | 0°C | 0% | 0hPa | 2.5V | 18:12:15 | 02:27:38 | 00:00:00 | |
| DL1XH-west | 2026-08-31 01:00:23 | 50.73001 | 9.75906 | 69° | 27km/h | 18776m | 1.9m/s | -53.7°C | 1.3% | 70.9hPa | 2.5V | 02:48:09 | 02:27:35 | 00:00:00 | |
| BIOWL1-15 | 2026-08-31 01:00:22 | 50.72994 | 9.75874 | 71° | 29km/h | 18770m | 2m/s | -53.7°C | 1.2% | 70.9hPa | 2.5V | 02:48:09 | 02:27:32 | 00:00:00 | |
| DF8AY | 2026-08-31 01:00:22 | 50.72999 | 9.75895 | 71° | 29km/h | 18774m | 2m/s | -53.7°C | 1.2% | 70.9hPa | 2.6V | 02:48:09 | 02:27:34 | 00:00:00 | |
| DL4BBY-15 | 2026-08-31 01:00:22 | 50.72999 | 9.75895 | 71° | 29km/h | 18774m | 2.0m/s | -54.6°C | 0% | 0hPa | 2.6V | 00:00:00 | 00:00:00 | 00:00:00 | |
| DK5PH-5 | 2026-08-31 01:00:21 | 50.72997 | 9.75884 | 72° | 29km/h | 18772m | 1.9m/s | -53.7°C | 4.2% | 70.9hPa | 2.6V | 00:00:00 | 02:27:33 | 00:00:00 | |
| DB0UT-9 | 2026-08-31 01:00:20 | 50.72997 | 9.75884 | 72° | 29km/h | 18772m | 2.0m/s | -53.7°C | 1.5% | 70.9hPa | 2.6V | 02:48:00 | 00:00:00 | 00:00:00 | |
| DL1XH1-15 | 2026-08-31 01:00:19 | 50.72983 | 9.75821 | 69° | 27km/h | 18760m | 1.9m/s | -53.8°C | 4.3% | 71hPa | 2.6V | 02:47:45 | 02:27:27 | 00:00:00 | |
| DO2JMG | 2026-08-31 01:00:15 | 50.72983 | 9.75821 | 69° | 27km/h | 18760m | 1.9m/s | 0°C | 0% | 0hPa | 2.6V | 18:12:15 | 02:27:27 | 00:00:00 | |
| DL1XH-west | 2026-08-31 01:00:13 | 50.72978 | 9.75800 | 68° | 29km/h | 18756m | 1.8m/s | -53.9°C | 1.2% | 71.1hPa | 2.5V | 02:48:09 | 02:27:25 | 00:00:00 | |
| DF8AY | 2026-08-31 01:00:12 | 50.72975 | 9.75789 | 68° | 29km/h | 18755m | 1.7m/s | -53.9°C | 1.3% | 71.1hPa | 2.5V | 02:48:09 | 02:27:24 | 00:00:00 | |
| BIOWL1-15 | 2026-08-31 01:00:11 | 50.72972 | 9.75778 | 68° | 29km/h | 18753m | 1.9m/s | -53.9°C | 1.2% | 71.1hPa | 2.5V | 02:48:09 | 02:27:23 | 00:00:00 | |
| DO2JMG | 2026-08-31 01:00:05 | 50.72957 | 9.75715 | 68° | 29km/h | 18742m | 1.9m/s | 0°C | 0% | 0hPa | 2.5V | 18:12:15 | 02:27:17 | 00:00:00 | |
| DL1XH-west | 2026-08-31 01:00:03 | 50.72951 | 9.75694 | 65° | 29km/h | 18738m | 1.9m/s | -53.9°C | 1.1% | 71.3hPa | 2.5V | 02:48:09 | 02:27:15 | 00:00:00 | |
| DF8AY | 2026-08-31 01:00:01 | 50.72944 | 9.75673 | 61° | 29km/h | 18734m | 1.8m/s | -54°C | 1.1% | 71.3hPa | 2.6V | 02:48:09 | 02:27:13 | 00:00:00 | |
| BIOWL1-15 | 2026-08-31 01:00:00 | 50.72933 | 9.75642 | 61° | 31km/h | 18729m | 1.8m/s | -54°C | 1.1% | 71.4hPa | 2.5V | 02:48:09 | 02:27:10 | 00:00:00 | |
| DL1ZP-14 | 2026-08-31 01:00:00 | 50.72941 | 9.75663 | 60° | 29km/h | 18733m | 1.8m/s | -54.0°C | 1.5% | 71.3hPa | 2.6V | 00:00:00 | 00:00:00 | 00:00:00 | |
| DL1XH1-15 | 2026-08-31 00:59:59 | 50.72922 | 9.75610 | 63° | 31km/h | 18724m | 1.8m/s | -54°C | 4.1% | 71.5hPa | 2.6V | 02:48:05 | 02:27:07 | 00:00:00 | |
| AA1-15 | 2026-08-31 00:59:59 | 50.72937 | 9.75653 | 61° | 31km/h | 18731m | 1.8m/s | -54°C | 1.1% | 71.4hPa | 2.5V | 02:48:09 | 02:27:11 | 00:00:00 | |
| DL0LBS | 2026-08-31 00:59:57 | 50.72933 | 9.75642 | 62° | 31km/h | 18729m | 1.8m/s | -54.0°C | 1.5% | 71.4hPa | 2.5V | 02:48:00 | 00:00:00 | 00:00:00 | |
| DM0DOS-11 | 2026-08-31 00:59:56 | 50.72915 | 9.75587 | 63° | 31km/h | 18720m | 1.7m/s | -54°C | 4.1% | 71.5hPa | 2.5V | 02:48:07 | 02:27:05 | 00:00:00 | |
| HSKMA3-T | 2026-08-31 00:59:53 | 50.72915 | 9.75587 | 64° | 31km/h | 18720m | 1.7m/s | -54°C | 0.9% | 71.5hPa | 2.5V | 02:48:09 | 02:27:05 | 00:00:00 | |
| DL1XH-west | 2026-08-31 00:59:52 | 50.72912 | 9.75576 | 64° | 31km/h | 18718m | 1.8m/s | -54°C | 1% | 71.5hPa | 2.5V | 02:48:09 | 02:27:04 | 00:00:00 | |
| DF8AY | 2026-08-31 00:59:50 | 50.72904 | 9.75555 | 58° | 31km/h | 18714m | 1.8m/s | -54°C | 1% | 71.5hPa | 2.5V | 02:49:00 | 02:27:02 | 00:00:00 | |
| AA1-15 | 2026-08-31 00:59:48 | 50.72895 | 9.75535 | 52° | 31km/h | 18711m | 1.9m/s | -54°C | 0.9% | 71.6hPa | 2.6V | 02:49:00 | 02:27:00 | 00:00:00 | |
| DM0DOS-11 | 2026-08-31 00:59:46 | 50.72869 | 9.75484 | 53° | 35km/h | 18701m | 1.9m/s | -54°C | 4.1% | 71.7hPa | 2.5V | 02:48:17 | 02:26:55 | 00:00:00 | |
| DJ2DS-15 | 2026-08-31 00:59:45 | 50.72880 | 9.75505 | 51° | 33km/h | 18705m | 2.1m/s | -54.0°C | 1.4% | 71.6hPa | 2.5V | 00:00:00 | 00:00:00 | 00:00:00 | |
| HSKMA3-T | 2026-08-31 00:59:42 | 50.72864 | 9.75472 | 55° | 35km/h | 18699m | 1.8m/s | -54°C | 1% | 71.7hPa | 2.5V | 02:49:00 | 02:26:54 | 00:00:00 | |
| DL1XH-west | 2026-08-31 00:59:41 | 50.72859 | 9.75461 | 57° | 35km/h | 18697m | 1.8m/s | -54°C | 1% | 71.7hPa | 2.6V | 02:49:00 | 02:26:53 | 00:00:00 | |
| DF8AY | 2026-08-31 00:59:39 | 50.72850 | 9.75439 | 58° | 33km/h | 18693m | 1.8m/s | -54°C | 1% | 71.8hPa | 2.5V | 02:49:00 | 02:26:51 | 00:00:00 | |
| DB0ND-19 | 2026-08-31 00:59:39 | 50.72846 | 9.75428 | 57° | 31km/h | 18692m | 1.8m/s | -54.0°C | 1.4% | 71.8hPa | 2.5V | 00:00:00 | 00:00:00 | 00:00:00 | |
| DM0DOS-11 | 2026-08-31 00:59:38 | 50.72823 | 9.75380 | 48° | 31km/h | 18683m | 1.9m/s | -54.1°C | 4.1% | 71.9hPa | 2.5V | 02:48:27 | 02:26:45 | 00:00:00 | |
| BIOWL1-15 | 2026-08-31 00:59:37 | 50.72842 | 9.75418 | 56° | 31km/h | 18690m | 1.8m/s | -54°C | 0.9% | 71.8hPa | 2.5V | 02:49:00 | 02:26:49 | 00:00:00 | |
| HSKMA3-T | 2026-08-31 00:59:31 | 50.72812 | 9.75361 | 48° | 31km/h | 18679m | 1.8m/s | -54.1°C | 1% | 72hPa | 2.5V | 02:49:00 | 02:26:43 | 00:00:00 | |
| DL1XH-west | 2026-08-31 00:59:30 | 50.72807 | 9.75352 | 48° | 31km/h | 18677m | 2m/s | -54.1°C | 1% | 72hPa | 2.5V | 02:49:00 | 02:26:42 | 00:00:00 | |
| DF8AY | 2026-08-31 00:59:29 | 50.72802 | 9.75343 | 50° | 31km/h | 18675m | 1.9m/s | -54.1°C | 0.9% | 72hPa | 2.5V | 02:49:00 | 02:26:41 | 00:00:00 | |
| DL1ZP-14 | 2026-08-31 00:59:29 | 50.72796 | 9.75333 | 50° | 31km/h | 18673m | 1.9m/s | -54.0°C | 1.4% | 72.0hPa | 2.6V | 00:00:00 | 00:00:00 | 00:00:00 | |
| DM0DOS-11 | 2026-08-31 00:59:28 | 50.72771 | 9.75283 | 50° | 33km/h | 18664m | 1.8m/s | -54°C | 4.1% | 72.1hPa | 2.5V | 02:48:37 | 02:26:35 | 00:00:00 | |
| AA1-15 | 2026-08-31 00:59:27 | 50.72791 | 9.75323 | 51° | 31km/h | 18671m | 2m/s | -54°C | 1% | 72hPa | 2.6V | 02:49:00 | 02:26:39 | 00:00:00 | |
| BIOWL1-15 | 2026-08-31 00:59:26 | 50.72786 | 9.75313 | 52° | 31km/h | 18670m | 1.9m/s | -54°C | 0.9% | 72hPa | 2.5V | 02:49:00 | 02:26:38 | 00:00:00 | |
| HSKMA3-T | 2026-08-31 00:59:21 | 50.72761 | 9.75264 | 47° | 33km/h | 18660m | 1.9m/s | -54°C | 0.9% | 72.2hPa | 2.6V | 02:49:00 | 02:26:33 | 00:00:00 | |
| DL1XH-west | 2026-08-31 00:59:20 | 50.72755 | 9.75254 | 46° | 33km/h | 18658m | 1.9m/s | -54°C | 1% | 72.2hPa | 2.6V | 02:49:00 | 02:26:32 | 00:00:00 | |
| DF8AY | 2026-08-31 00:59:19 | 50.72749 | 9.75245 | 45° | 33km/h | 18657m | 1.8m/s | -54.1°C | 1% | 72.2hPa | 2.5V | 02:49:00 | 02:26:31 | 00:00:00 | |
| DM0DOS-11 | 2026-08-31 00:59:18 | 50.72717 | 9.75195 | 46° | 27km/h | 18646m | 1.7m/s | -54.5°C | 4.1% | 72.3hPa | 2.6V | 02:48:47 | 02:26:25 | 00:00:00 | |
| AA1-15 | 2026-08-31 00:59:17 | 50.72738 | 9.75228 | 43° | 31km/h | 18653m | 1.7m/s | -54.2°C | 1% | 72.2hPa | 2.5V | 02:49:00 | 02:26:29 | 00:00:00 | |
| BIOWL1-15 | 2026-08-31 00:59:15 | 50.72727 | 9.75211 | 45° | 29km/h | 18649m | 1.9m/s | -54.4°C | 0.9% | 72.3hPa | 2.5V | 02:49:00 | 02:26:27 | 00:00:00 | |
| HSKMA3-T | 2026-08-31 00:59:11 | 50.72707 | 9.75178 | 47° | 29km/h | 18642m | 1.8m/s | -54.7°C | 0.9% | 72.4hPa | 2.5V | 02:49:00 | 02:26:23 | 00:00:00 | |
| DL1XH-west | 2026-08-31 00:59:10 | 50.72701 | 9.75169 | 47° | 31km/h | 18640m | 1.9m/s | -54.7°C | 0.8% | 72.4hPa | 2.5V | 02:49:00 | 02:26:22 | 00:00:00 | |
| DF8AY | 2026-08-31 00:59:09 | 50.72696 | 9.75161 | 45° | 33km/h | 18639m | 2m/s | -54.7°C | 0.8% | 72.4hPa | 2.5V | 02:49:00 | 02:26:21 | 00:00:00 | |
| AA1-15 | 2026-08-31 00:59:06 | 50.72677 | 9.75133 | 39° | 37km/h | 18633m | 2m/s | -54.8°C | 0.7% | 72.5hPa | 2.5V | 02:49:00 | 02:26:18 | 00:00:00 | |
| BIOWL1-15 | 2026-08-31 00:59:05 | 50.72669 | 9.75124 | 37° | 37km/h | 18631m | 2.2m/s | -54.8°C | 0.7% | 72.5hPa | 2.5V | 02:49:00 | 02:26:17 | 00:00:00 | |
| HSKMA3-T | 2026-08-31 00:59:01 | 50.72641 | 9.75091 | 35° | 33km/h | 18623m | 1.8m/s | -54.7°C | 0.8% | 72.6hPa | 2.6V | 02:49:00 | 02:26:13 | 00:00:00 | |
| DL1XH-west | 2026-08-31 00:59:00 | 50.72634 | 9.75084 | 35° | 31km/h | 18621m | 1.9m/s | -54.7°C | 0.8% | 72.6hPa | 2.6V | 02:49:00 | 02:26:12 | 00:00:00 | |
| DF8AY | 2026-08-31 00:58:59 | 50.72628 | 9.75077 | 35° | 31km/h | 18619m | 2.1m/s | -54.7°C | 0.8% | 72.7hPa | 2.5V | 02:49:51 | 02:26:11 | 00:00:00 | |
| AA1-15 | 2026-08-31 00:58:55 | 50.72601 | 9.75047 | 38° | 35km/h | 18611m | 1.6m/s | -54.7°C | 0.8% | 72.7hPa | 2.5V | 02:51:33 | 02:26:07 | 00:00:00 | |
| BIOWL1-15 | 2026-08-31 00:58:54 | 50.72595 | 9.75038 | 40° | 35km/h | 18610m | 1.9m/s | -54.7°C | 0.8% | 72.7hPa | 2.6V | 02:49:51 | 02:26:06 | 00:00:00 | |
| DL1XH-15 | 2026-08-31 00:58:51 | 50.72566 | 9.75000 | 39° | 37km/h | 18601m | 1.9m/s | 0°C | 0% | 0hPa | 2.5V | 02:49:10 | 02:26:02 | 00:00:00 | |
| HSKMA3-T | 2026-08-31 00:58:50 | 50.72566 | 9.75001 | 40° | 38km/h | 18602m | 1.9m/s | -54.7°C | 0.9% | 72.8hPa | 2.5V | 02:49:51 | 02:26:02 | 00:00:00 | |
| DL1XH-west | 2026-08-31 00:58:49 | 50.72559 | 9.74991 | 38° | 37km/h | 18600m | 1.9m/s | -54.7°C | 0.9% | 72.8hPa | 2.5V | 02:49:51 | 02:26:01 | 00:00:00 | |
| DF8AY | 2026-08-31 00:58:48 | 50.72552 | 9.74982 | 36° | 37km/h | 18598m | 2.2m/s | -54.6°C | 0.9% | 72.9hPa | 2.6V | 02:49:51 | 02:26:00 | 00:00:00 | |
| AA1-15 | 2026-08-31 00:58:44 | 50.72520 | 9.74951 | 29° | 37km/h | 18589m | 1.9m/s | -54.6°C | 0.9% | 73hPa | 2.5V | 02:51:33 | 02:25:56 | 00:00:00 | |
| BIOWL1-15 | 2026-08-31 00:58:44 | 50.72485 | 9.74922 | 29° | 40km/h | 18582m | 1.7m/s | -54.5°C | 0.8% | 73.1hPa | 2.6V | 02:49:51 | 02:25:52 | 00:00:00 | |
| DD1CC8 | 2026-08-31 00:58:43 | 50.72512 | 9.74944 | 28° | 37km/h | 18588m | 1.9m/s | -54.6°C | 1.3% | 73.0hPa | 2.6V | 00:00:00 | 00:00:00 | 00:00:00 | |
| DL1XH-15 | 2026-08-31 00:58:41 | 50.72485 | 9.74922 | 28° | 40km/h | 18582m | 1.7m/s | -54.5°C | 4% | 73.1hPa | 2.6V | 02:49:20 | 02:25:52 | 00:00:00 | |
| DL1XH1-15 | 2026-08-31 00:58:39 | 50.72442 | 9.74883 | 30° | 37km/h | 18573m | 2m/s | -54.4°C | 4% | 73.2hPa | 2.5V | 02:49:25 | 02:25:47 | 00:00:00 | |
| HSKMA3-T | 2026-08-31 00:58:39 | 50.72476 | 9.74914 | 29° | 40km/h | 18580m | 1.6m/s | -54.5°C | 0.8% | 73.1hPa | 2.5V | 02:49:51 | 02:25:51 | 00:00:00 | |
| DL1XH-west | 2026-08-31 00:58:38 | 50.72467 | 9.74906 | 29° | 40km/h | 18578m | 1.6m/s | -54.5°C | 0.7% | 73.1hPa | 2.5V | 02:49:51 | 02:25:50 | 00:00:00 | |
| AA1-15 | 2026-08-31 00:58:33 | 50.72428 | 9.74869 | 32° | 33km/h | 18569m | 1.9m/s | -54.4°C | 0.8% | 73.2hPa | 2.6V | 02:51:33 | 02:25:45 | 00:00:00 | |
| DO2KSM | 2026-08-31 00:58:32 | 50.72428 | 9.74869 | 33° | 33km/h | 18569m | 1.9m/s | -54.4°C | 1.3% | 73.2hPa | 2.5V | 02:49:00 | 00:00:00 | 00:00:00 | |
| DL1XH-15 | 2026-08-31 00:58:31 | 50.72407 | 9.74848 | 33° | 33km/h | 18563m | 2.4m/s | -54.4°C | 4% | 73.3hPa | 2.5V | 02:49:30 | 02:25:42 | 00:00:00 | |
| BIOWL1-15 | 2026-08-31 00:58:30 | 50.72407 | 9.74848 | 34° | 33km/h | 18563m | 2.4m/s | -54.4°C | 0.7% | 73.3hPa | 2.5V | 02:49:51 | 02:25:42 | 00:00:00 | |
| DJ2DS-15 | 2026-08-31 00:58:30 | 50.72407 | 9.74848 | 34° | 35km/h | 18563m | 2.3m/s | -54.3°C | 4.0% | 73.2hPa | 2.5V | 00:00:00 | 02:25:42 | 00:00:00 | |
| DL1XH1-15 | 2026-08-31 00:58:29 | 50.72371 | 9.74810 | 33° | 37km/h | 18552m | 2.2m/s | -54.3°C | 4.1% | 73.4hPa | 2.5V | 02:49:35 | 02:25:37 | 00:00:00 | |
| DL1XH-west | 2026-08-31 00:58:28 | 50.72393 | 9.74834 | 35° | 33km/h | 18558m | 2.1m/s | -54.3°C | 0.7% | 73.3hPa | 2.6V | 02:49:51 | 02:25:40 | 00:00:00 | |
| DL1ZP-14 | 2026-08-31 00:58:27 | 50.72379 | 9.74818 | 34° | 35km/h | 18554m | 2.1m/s | -54.3°C | 1.2% | 73.4hPa | 2.5V | 00:00:00 | 00:00:00 | 00:00:00 | |
| DM0DOS-11 | 2026-08-31 00:58:23 | 50.72356 | 9.74795 | 32° | 35km/h | 18547m | 2.3m/s | -54.3°C | 4% | 73.4hPa | 2.5V | 02:49:37 | 02:25:35 | 00:00:00 | |
| AA1-15 | 2026-08-31 00:58:22 | 50.72349 | 9.74787 | 32° | 35km/h | 18545m | 2.1m/s | -54.3°C | 0.7% | 73.5hPa | 2.5V | 02:51:33 | 02:25:34 | 00:00:00 | |
| DL1XH-15 | 2026-08-31 00:58:20 | 50.72335 | 9.74773 | 33° | 33km/h | 18541m | 2.1m/s | -54.2°C | 4% | 73.5hPa | 2.6V | 02:49:40 | 02:25:32 | 00:00:00 | |
| BIOWL1-15 | 2026-08-31 00:58:19 | 50.72328 | 9.74766 | 34° | 31km/h | 18539m | 2.2m/s | -54.2°C | 0.7% | 73.5hPa | 2.5V | 02:49:51 | 02:25:31 | 00:00:00 | |
| DL1XH-west | 2026-08-31 00:58:18 | 50.72321 | 9.74759 | 36° | 31km/h | 18537m | 2.2m/s | -54.2°C | 0.7% | 73.6hPa | 2.5V | 02:49:51 | 02:25:30 | 00:00:00 | |
| DL1XH1-15 | 2026-08-31 00:58:17 | 50.72302 | 9.74736 | 37° | 33km/h | 18531m | 1.9m/s | -54.2°C | 3.9% | 73.6hPa | 2.5V | 02:49:45 | 02:25:27 | 00:00:00 | |
| DF8AY | 2026-08-31 00:58:17 | 50.72315 | 9.74752 | 37° | 31km/h | 18535m | 2m/s | -54.2°C | 0.7% | 73.6hPa | 2.5V | 02:49:51 | 02:25:29 | 00:00:00 | |
| DL0LBS | 2026-08-31 00:58:15 | 50.72308 | 9.74744 | 38° | 33km/h | 18533m | 1.8m/s | -54.2°C | 1.3% | 73.6hPa | 2.6V | 02:49:00 | 00:00:00 | 00:00:00 | |
| DM0DOS-11 | 2026-08-31 00:58:13 | 50.72288 | 9.74719 | 37° | 35km/h | 18527m | 2.2m/s | -54.2°C | 4% | 73.7hPa | 2.6V | 02:49:47 | 02:25:25 | 00:00:00 | |
| AA1-15 | 2026-08-31 00:58:12 | 50.72281 | 9.74711 | 37° | 35km/h | 18525m | 2.2m/s | -54.2°C | 0.6% | 73.7hPa | 2.5V | 02:51:33 | 02:25:24 | 00:00:00 | |
| DB0UT-7 | 2026-08-31 00:58:12 | 50.72281 | 9.74711 | 38° | 31km/h | 18525m | 2.1m/s | -54.1°C | 3.9% | 73.7hPa | 2.5V | 00:00:00 | 02:25:24 | 00:00:00 | |
| DO2KSM | 2026-08-31 00:58:11 | 50.72281 | 9.74711 | 38° | 35km/h | 18525m | 2.2m/s | -54.2°C | 1.2% | 73.7hPa | 2.5V | 02:49:00 | 00:00:00 | 00:00:00 | |
| DL1XH1-15 | 2026-08-31 00:58:10 | 50.72236 | 9.74662 | 33° | 27km/h | 18511m | 1.9m/s | -54°C | 4% | 73.9hPa | 2.5V | 02:49:55 | 02:25:17 | 00:00:00 | |
| DJ2DS-15 | 2026-08-31 00:58:10 | 50.72267 | 9.74695 | 35° | 29km/h | 18521m | 1.7m/s | -54.1°C | 3.9% | 73.7hPa | 2.5V | 00:00:00 | 02:25:22 | 00:00:00 | |
| DJ2KF-10 | 2026-08-31 00:58:09 | 50.72260 | 9.74687 | 35° | 31km/h | 18519m | 1.8m/s | -54.1°C | 4.0% | 73.7hPa | 2.5V | 00:00:00 | 02:25:21 | 00:00:00 | |
| DM0DOS-11 | 2026-08-31 00:58:08 | 50.72224 | 9.74650 | 34° | 27km/h | 18507m | 2m/s | -54°C | 3.9% | 73.9hPa | 2.5V | 02:49:57 | 02:25:15 | 00:00:00 | |
| HSKMA3-T | 2026-08-31 00:58:07 | 50.72247 | 9.74674 | 33° | 29km/h | 18515m | 2.2m/s | -54.1°C | 0.6% | 73.9hPa | 2.6V | 02:50:42 | 02:25:19 | 00:00:00 | |
| DF8AY | 2026-08-31 00:58:06 | 50.72242 | 9.74668 | 33° | 27km/h | 18513m | 2.1m/s | -54.1°C | 0.6% | 73.8hPa | 2.5V | 02:50:42 | 02:25:18 | 00:00:00 | |
| BIOWL1-15 | 2026-08-31 00:57:59 | 50.72182 | 9.74608 | 27° | 35km/h | 18494m | 1.9m/s | -53.9°C | 0.6% | 74hPa | 2.5V | 02:50:42 | 02:25:09 | 00:00:00 | |
| DM0DOS-11 | 2026-08-31 00:57:58 | 50.72154 | 9.74587 | 25° | 27km/h | 18486m | 1.9m/s | -53.9°C | 4% | 74.2hPa | 2.6V | 02:50:07 | 02:25:05 | 00:00:00 | |
| DL1XH1-15 | 2026-08-31 00:57:57 | 50.72167 | 9.74597 | 25° | 31km/h | 18490m | 2.2m/s | -53.9°C | 4% | 74.1hPa | 2.5V | 02:50:05 | 02:25:07 | 00:00:00 | |
| HSKMA3-T | 2026-08-31 00:57:56 | 50.72174 | 9.74602 | 26° | 33km/h | 18493m | 2m/s | -53.9°C | 0.6% | 74.1hPa | 2.5V | 02:50:42 | 02:25:08 | 00:00:00 | |
| DF8AY | 2026-08-31 00:57:55 | 50.72167 | 9.74597 | 26° | 31km/h | 18490m | 2.2m/s | -53.9°C | 0.6% | 74.1hPa | 2.5V | 02:50:42 | 02:25:07 | 00:00:00 | |
| DL0LBS | 2026-08-31 00:57:54 | 50.72167 | 9.74597 | 27° | 31km/h | 18491m | 2.2m/s | -53.9°C | 1.2% | 74.1hPa | 2.5V | 02:50:00 | 00:00:00 | 00:00:00 | |
| DL4BBY-15 | 2026-08-31 00:57:52 | 50.72147 | 9.74582 | 28° | 27km/h | 18484m | 1.9m/s | -54.8°C | 0% | 0hPa | 2.5V | 00:00:00 | 00:00:00 | 00:00:00 | |
| DK5PH-5 | 2026-08-31 00:57:51 | 50.72142 | 9.74577 | 30° | 27km/h | 18482m | 2.1m/s | -53.8°C | 3.9% | 74.2hPa | 2.5V | 02:50:00 | 02:25:03 | 00:00:00 | |
| DL1XH1-15 | 2026-08-31 00:57:50 | 50.72105 | 9.74535 | 36° | 35km/h | 18469m | 2.2m/s | -53.7°C | 3.8% | 74.3hPa | 2.5V | 02:50:15 | 02:24:57 | 00:00:00 | |
| BIOWL1-15 | 2026-08-31 00:57:48 | 50.72111 | 9.74543 | 37° | 33km/h | 18471m | 2.1m/s | -53.7°C | 0.5% | 74.3hPa | 2.5V | 02:50:42 | 02:24:58 | 00:00:00 | |
| DM0DOS-11 | 2026-08-31 00:57:48 | 50.72084 | 9.74512 | 35° | 31km/h | 18463m | 2m/s | -53.6°C | 3.8% | 74.4hPa | 2.5V | 02:50:18 | 02:24:54 | 00:00:00 | |
| DC4HF-4 | 2026-08-31 00:57:45 | 50.72104 | 9.74535 | 36° | 33km/h | 18470m | 2.2m/s | -53.7°C | 1.1% | 74.4hPa | 2.5V | 00:00:00 | 00:00:00 | 00:00:00 | |
| DL1XH-west | 2026-08-31 00:57:45 | 50.72104 | 9.74535 | 37° | 35km/h | 18469m | 2.2m/s | -53.7°C | 0.5% | 74.4hPa | 2.5V | 02:50:42 | 02:24:57 | 00:00:00 | |
| DF8AY | 2026-08-31 00:57:44 | 50.72098 | 9.74527 | 36° | 33km/h | 18467m | 2.3m/s | -53.7°C | 0.5% | 74.4hPa | 2.5V | 02:50:42 | 02:24:56 | 00:00:00 | |
| BIOWL1-15 | 2026-08-31 00:57:38 | 50.72031 | 9.74440 | 39° | 29km/h | 18442m | 2.3m/s | -53.5°C | 0.6% | 74.7hPa | 2.5V | 02:50:42 | 02:24:44 | 00:00:00 | |
| DM0DOS-11 | 2026-08-31 00:57:37 | 50.72031 | 9.74440 | 39° | 29km/h | 18442m | 2.3m/s | -53.5°C | 3.8% | 74.7hPa | 2.5V | 02:50:28 | 02:24:44 | 00:00:00 | |
| DL1XH1-15 | 2026-08-31 00:57:37 | 50.72047 | 9.74462 | 43° | 27km/h | 18448m | 2.2m/s | -53.5°C | 3.8% | 74.6hPa | 2.5V | 02:50:25 | 02:24:47 | 00:00:00 | |
| DF8AY | 2026-08-31 00:57:34 | 50.72042 | 9.74455 | 41° | 27km/h | 18446m | 2.3m/s | -53.5°C | 0.6% | 74.6hPa | 2.6V | 02:50:42 | 02:24:46 | 00:00:00 | |
| DB0UT-7 | 2026-08-31 00:57:33 | 50.72036 | 9.74447 | 41° | 27km/h | 18444m | 2.2m/s | -53.4°C | 3.9% | 74.6hPa | 2.6V | 02:50:00 | 00:00:00 | 00:00:00 | |
| SONCRA | 2026-08-31 00:57:32 | 50.72025 | 9.74433 | 38° | 27km/h | 18439m | 2.3m/s | -53.4°C | 1.1% | 74.7hPa | 2.5V | 00:00:00 | 00:00:00 | 00:00:00 | |
| DJ2DS-15 | 2026-08-31 00:57:30 | 50.72019 | 9.74426 | 38° | 26km/h | 18437m | 2.1m/s | -53.4°C | 3.8% | 74.7hPa | 2.5V | 00:00:00 | 02:24:42 | 00:00:00 | |
| DO2KSM | 2026-08-31 00:57:29 | 50.72019 | 9.74426 | 39° | 27km/h | 18437m | 2.1m/s | -53.4°C | 1.1% | 74.7hPa | 2.5V | 02:50:00 | 00:00:00 | 00:00:00 | |
| DL8OAI-8 | 2026-08-31 00:57:28 | 50.72014 | 9.74419 | 38° | 27km/h | 18435m | 2.1m/s | -53.4°C | 1.2% | 74.8hPa | 2.5V | 02:50:00 | 00:00:00 | 00:00:00 | |
| DM0DOS-11 | 2026-08-31 00:57:27 | 50.71980 | 9.74377 | 37° | 26km/h | 18420m | 2.1m/s | -53.3°C | 3.8% | 74.9hPa | 2.5V | 02:50:38 | 02:24:34 | 00:00:00 | |
| DL1XH-west | 2026-08-31 00:57:24 | 50.71989 | 9.74389 | 40° | 24km/h | 18425m | 2.2m/s | -53.3°C | 0.5% | 74.9hPa | 2.5V | 02:50:42 | 02:24:36 | 00:00:00 | |
| DF8AY | 2026-08-31 00:57:23 | 50.71963 | 9.74358 | 34° | 27km/h | 18414m | 2.1m/s | -53.3°C | 0.5% | 75hPa | 2.5V | 02:50:42 | 02:24:31 | 00:00:00 | |
| DL4BBY-15 | 2026-08-31 00:57:22 | 50.71980 | 9.74377 | 38° | 27km/h | 18420m | 2.1m/s | -54.2°C | 0% | 0hPa | 2.5V | 00:00:00 | 00:00:00 | 00:00:00 | |
| DL1XH-15 | 2026-08-31 00:57:20 | 50.71964 | 9.74358 | 33° | 27km/h | 18414m | 2.1m/s | -53.3°C | 3.8% | 75hPa | 2.5V | 02:50:41 | 02:24:31 | 00:00:00 | |
| BIOWL1-15 | 2026-08-31 00:57:20 | 50.71936 | 9.74328 | 38° | 26km/h | 18404m | 2.3m/s | -53.2°C | 0.5% | 75.1hPa | 2.6V | 02:51:33 | 02:24:26 | 00:00:00 | |
| DB0UT-9 | 2026-08-31 00:57:19 | 50.71969 | 9.74364 | 36° | 27km/h | 18416m | 2.1m/s | -53.3°C | 1.2% | 75.0hPa | 2.5V | 02:50:00 | 00:00:00 | 00:00:00 | |
| DL1XH1-15 | 2026-08-31 00:57:18 | 50.71941 | 9.74334 | 37° | 26km/h | 18406m | 2.1m/s | -53.2°C | 3.8% | 75.1hPa | 2.5V | 02:50:45 | 02:24:27 | 00:00:00 | |
| DB0NH | 2026-08-31 00:57:18 | 50.71957 | 9.74352 | 34° | 26km/h | 18412m | 2.0m/s | 0°C | 0% | 0hPa | 2.5V | 00:00:00 | 02:24:30 | 00:00:00 | |
| DM0DOS-11 | 2026-08-31 00:57:17 | 50.71926 | 9.74315 | 40° | 24km/h | 18399m | 1.9m/s | -53.1°C | 3.8% | 75.2hPa | 2.5V | 02:50:48 | 02:24:24 | 00:00:00 | |
| HSKMA3-T | 2026-08-31 00:57:13 | 50.71931 | 9.74322 | 40° | 24km/h | 18401m | 2.1m/s | -53.1°C | 0.5% | 75.1hPa | 2.6V | 02:51:33 | 02:24:25 | 00:00:00 | |
| DF8AY | 2026-08-31 00:57:10 | 50.71917 | 9.74303 | 38° | 26km/h | 18396m | 1.9m/s | -53.1°C | 0.5% | 75.2hPa | 2.5V | 02:51:33 | 02:24:22 | 00:00:00 | |
| DJ2DS-15 | 2026-08-31 00:57:10 | 50.71917 | 9.74303 | 39° | 27km/h | 18396m | 1.9m/s | -53.0°C | 3.7% | 75.2hPa | 2.5V | 00:00:00 | 02:24:22 | 00:00:00 | |
| DJ2KF-10 | 2026-08-31 00:57:09 | 50.71912 | 9.74297 | 38° | 26km/h | 18394m | 2.1m/s | -53.0°C | 3.7% | 75.2hPa | 2.5V | 00:00:00 | 02:24:21 | 00:00:00 | |
| DL1XH1-15 | 2026-08-31 00:57:08 | 50.71889 | 9.74269 | 40° | 31km/h | 18385m | 1.9m/s | -53°C | 3.7% | 75.3hPa | 2.5V | 02:50:55 | 02:24:17 | 00:00:00 | |
| DM0DOS-11 | 2026-08-31 00:57:07 | 50.71872 | 9.74243 | 49° | 29km/h | 18379m | 2.1m/s | -52.9°C | 3.7% | 75.4hPa | 2.5V | 02:50:58 | 02:24:14 | 00:00:00 | |
| HSKMA3-T | 2026-08-31 00:57:03 | 50.71878 | 9.74252 | 46° | 31km/h | 18381m | 2.2m/s | -53°C | 0.5% | 75.4hPa | 2.5V | 02:51:33 | 02:24:15 | 00:00:00 | |
| DL1XH-west | 2026-08-31 00:57:02 | 50.71872 | 9.74243 | 49° | 29km/h | 18379m | 2.1m/s | -52.9°C | 0.5% | 75.4hPa | 2.5V | 02:51:33 | 02:24:14 | 00:00:00 | |
| SONCRA | 2026-08-31 00:57:01 | 50.71863 | 9.74225 | 52° | 26km/h | 18375m | 1.7m/s | -52.9°C | 1.1% | 75.5hPa | 2.5V | 00:00:00 | 00:00:00 | 00:00:00 | |
| DL1XH-15 | 2026-08-31 00:57:00 | 50.71859 | 9.74217 | 52° | 26km/h | 18373m | 1.8m/s | -52.9°C | 3.8% | 75.5hPa | 2.5V | 02:51:01 | 02:24:11 | 00:00:00 | |
| DF8AY | 2026-08-31 00:56:59 | 50.71859 | 9.74217 | 52° | 26km/h | 18373m | 1.8m/s | -52.9°C | 0.5% | 75.5hPa | 2.5V | 02:51:33 | 02:24:11 | 00:00:00 | |
| DL1XH1-15 | 2026-08-31 00:56:58 | 50.71844 | 9.74189 | 42° | 22km/h | 18366m | 1.8m/s | -52.9°C | 3.8% | 75.5hPa | 2.5V | 02:51:05 | 02:24:07 | 00:00:00 | |
| AA1-15 | 2026-08-31 00:56:54 | 50.71840 | 9.74183 | 41° | 24km/h | 18364m | 1.8m/s | -52.9°C | 0.6% | 75.6hPa | 2.6V | 02:51:33 | 02:24:06 | 00:00:00 | |
| DM0DOS-11 | 2026-08-31 00:56:53 | 50.71830 | 9.74171 | 40° | 24km/h | 18360m | 2.1m/s | -52.8°C | 3.8% | 75.6hPa | 2.5V | 02:51:08 | 02:24:04 | 00:00:00 | |
| DL1XH-west | 2026-08-31 00:56:52 | 50.71831 | 9.74171 | 41° | 24km/h | 18360m | 2.1m/s | -52.8°C | 0.6% | 75.6hPa | 2.5V | 02:51:33 | 02:24:04 | 00:00:00 | |
| BIOWL1-15 | 2026-08-31 00:56:51 | 50.71826 | 9.74165 | 42° | 26km/h | 18358m | 2.1m/s | -52.8°C | 0.5% | 75.6hPa | 2.5V | 02:51:33 | 02:24:03 | 00:00:00 | |
| DL1XH-15 | 2026-08-31 00:56:50 | 50.71817 | 9.74151 | 44° | 26km/h | 18354m | 1.9m/s | -52.8°C | 3.8% | 75.7hPa | 2.5V | 02:51:11 | 02:24:01 | 00:00:00 | |
| DF8AY | 2026-08-31 00:56:49 | 50.71817 | 9.74151 | 45° | 26km/h | 18354m | 1.9m/s | -52.8°C | 0.6% | 75.7hPa | 2.5V | 02:51:33 | 02:24:01 | 00:00:00 | |
| DM0DOS-11 | 2026-08-31 00:56:48 | 50.71788 | 9.74105 | 41° | 22km/h | 18340m | 1.7m/s | -52.7°C | 3.8% | 75.9hPa | 2.5V | 02:51:18 | 02:23:54 | 00:00:00 | |
| BUE01 | 2026-08-31 00:56:47 | 50.71808 | 9.74137 | 45° | 24km/h | 18350m | 2.0m/s | -52.8°C | 1.2% | 75.7hPa | 2.5V | 00:00:00 | 00:00:00 | 00:00:00 | |
| DL1XH-west | 2026-08-31 00:56:42 | 50.71788 | 9.74105 | 42° | 22km/h | 18340m | 1.7m/s | -52.7°C | 0.6% | 75.9hPa | 2.5V | 02:51:33 | 02:23:54 | 00:00:00 | |
| BIOWL1-15 | 2026-08-31 00:56:41 | 50.71784 | 9.74099 | 42° | 22km/h | 18338m | 1.9m/s | -52.7°C | 0.6% | 75.9hPa | 2.6V | 02:51:33 | 02:23:53 | 00:00:00 | |
| DL1XH-15 | 2026-08-31 00:56:40 | 50.71775 | 9.74088 | 41° | 22km/h | 18334m | 2m/s | -52.6°C | 3.8% | 75.9hPa | 2.5V | 02:51:21 | 02:23:51 | 00:00:00 | |
| DL1XH1-15 | 2026-08-31 00:56:40 | 50.71753 | 9.74052 | 48° | 27km/h | 18325m | 2.1m/s | -52.5°C | 3.8% | 76hPa | 2.6V | 02:51:26 | 02:23:46 | 00:00:00 | |
| DF8AY | 2026-08-31 00:56:39 | 50.71775 | 9.74088 | 42° | 22km/h | 18334m | 2m/s | -52.6°C | 0.6% | 75.9hPa | 2.5V | 02:51:33 | 02:23:51 | 00:00:00 | |
| DJ2KF-10 | 2026-08-31 00:56:39 | 50.71775 | 9.74088 | 42° | 26km/h | 18335m | 1.9m/s | -52.6°C | 3.8% | 75.9hPa | 2.5V | 00:00:00 | 02:23:51 | 00:00:00 | |
| DL8DAS-14 | 2026-08-31 00:56:38 | 50.71771 | 9.74081 | 43° | 22km/h | 18333m | 1.9m/s | -52.6°C | 1.2% | 76.0hPa | 2.5V | 00:00:00 | 00:00:00 | 00:00:00 | |
| DM0DOS-11 | 2026-08-31 00:56:37 | 50.71744 | 9.74035 | 48° | 29km/h | 18321m | 1.9m/s | -52.5°C | 3.7% | 76.1hPa | 2.5V | 02:51:28 | 02:23:44 | 00:00:00 | |
| AA1-15 | 2026-08-31 00:56:31 | 50.71729 | 9.74010 | 46° | 27km/h | 18315m | 1.9m/s | -52.4°C | 0.5% | 76.2hPa | 2.5V | 02:51:33 | 02:23:41 | 00:00:00 | |
| HSKMA3-T | 2026-08-31 00:56:31 | 50.71734 | 9.74018 | 47° | 27km/h | 18317m | 1.8m/s | -52.5°C | 0.5% | 76.1hPa | 2.5V | 02:51:33 | 02:23:42 | 00:00:00 | |
| DL1XH-15 | 2026-08-31 00:56:31 | 50.71729 | 9.74010 | 46° | 27km/h | 18315m | 1.9m/s | -52.4°C | 3.7% | 76.2hPa | 2.5V | 02:51:31 | 02:23:41 | 00:00:00 | |
| DF8AY | 2026-08-31 00:56:28 | 50.71725 | 9.74002 | 46° | 26km/h | 18313m | 2.1m/s | -52.4°C | 0.6% | 76.2hPa | 2.6V | 02:51:33 | 02:23:40 | 00:00:00 | |
| AA1-15 | 2026-08-31 00:56:21 | 50.71697 | 9.73945 | 60° | 27km/h | 18299m | 2.2m/s | -52.3°C | 0.6% | 76.3hPa | 2.6V | 02:52:24 | 02:23:33 | 00:00:00 | |
| DL1XH-15 | 2026-08-31 00:56:20 | 50.71690 | 9.73926 | 60° | 27km/h | 18295m | 1.8m/s | -52.3°C | 3.7% | 76.4hPa | 2.5V | 02:51:41 | 02:23:31 | 00:00:00 | |
| HSKMA3-T | 2026-08-31 00:56:19 | 50.71690 | 9.73926 | 60° | 27km/h | 18295m | 1.8m/s | -52.3°C | 0.6% | 76.4hPa | 2.5V | 02:52:24 | 02:23:31 | 00:00:00 | |
| DF8AY | 2026-08-31 00:56:18 | 50.71686 | 9.73917 | 59° | 26km/h | 18293m | 1.8m/s | -52.3°C | 0.7% | 76.4hPa | 2.5V | 02:52:24 | 02:23:30 | 00:00:00 | |
| DL1XH1-15 | 2026-08-31 00:56:17 | 50.71676 | 9.73893 | 51° | 22km/h | 18288m | 1.7m/s | -52.2°C | 3.8% | 76.5hPa | 2.5V | 02:51:45 | 02:23:27 | 00:00:00 | |
| DM0DOS-11 | 2026-08-31 00:56:16 | 50.71666 | 9.73873 | 49° | 20km/h | 18283m | 1.5m/s | -52.2°C | 3.8% | 76.5hPa | 2.5V | 02:51:48 | 02:23:24 | 00:00:00 | |
| DO9LL-15 | 2026-08-31 00:56:16 | 50.71680 | 9.73900 | 55° | 27km/h | 18290m | 1.9m/s | -52.2°C | 3.7% | 76.4hPa | 2.5V | 02:51:00 | 02:23:28 | 00:00:00 | |
| DB0UT-9 | 2026-08-31 00:56:14 | 50.71676 | 9.73893 | 53° | 22km/h | 18288m | 1.7m/s | -52.2°C | 1.3% | 76.5hPa | 2.5V | 00:00:00 | 00:00:00 | 00:00:00 | |
| SFWM-10 | 2026-08-31 00:56:11 | 50.71666 | 9.73873 | 51° | 20km/h | 18283m | 1.5m/s | -52.2°C | 1.2% | 76.5hPa | 2.5V | 02:52:00 | 00:00:00 | 00:00:00 | |
| DL1XH-15 | 2026-08-31 00:56:10 | 50.71655 | 9.73853 | 52° | 24km/h | 18278m | 1.5m/s | -52.2°C | 3.8% | 76.6hPa | 2.5V | 02:51:51 | 02:23:21 | 00:00:00 | |
| DL1XH1-15 | 2026-08-31 00:56:10 | 50.71639 | 9.73820 | 49° | 29km/h | 18272m | 1.7m/s | -52.2°C | 3.9% | 76.7hPa | 2.5V | 02:51:55 | 02:23:17 | 00:00:00 | |
| AA1-15 | 2026-08-31 00:56:10 | 50.71659 | 9.73860 | 52° | 22km/h | 18280m | 1.6m/s | -52.2°C | 0.8% | 76.6hPa | 2.5V | 02:52:24 | 02:23:22 | 00:00:00 | |
| DL1XH-west | 2026-08-31 00:56:09 | 50.71655 | 9.73853 | 53° | 24km/h | 18278m | 1.5m/s | -52.2°C | 0.7% | 76.6hPa | 2.5V | 02:52:24 | 02:23:21 | 00:00:00 | |
| HSKMA3-T | 2026-08-31 00:56:09 | 50.71652 | 9.73845 | 53° | 26km/h | 18277m | 1.4m/s | -52.2°C | 0.8% | 76.6hPa | 2.6V | 02:52:24 | 02:23:20 | 00:00:00 | |
| DF8AY | 2026-08-31 00:56:07 | 50.71648 | 9.73837 | 52° | 27km/h | 18275m | 1.5m/s | -52.2°C | 0.8% | 76.6hPa | 2.6V | 02:52:24 | 02:23:19 | 00:00:00 | |
| DL8DAS-14 | 2026-08-31 00:56:07 | 50.71648 | 9.73837 | 52° | 26km/h | 18275m | 1.5m/s | -52.2°C | 1.3% | 76.6hPa | 2.5V | 00:00:00 | 00:00:00 | 00:00:00 | |
| DL8OAI-8 | 2026-08-31 00:56:06 | 50.71643 | 9.73828 | 53° | 27km/h | 18274m | 1.6m/s | -52.2°C | 1.4% | 76.6hPa | 2.5V | 02:52:00 | 00:00:00 | 00:00:00 | |
| DL1XH-15 | 2026-08-31 00:56:01 | 50.71610 | 9.73773 | 45° | 26km/h | 18262m | 1.8m/s | -52.1°C | 3.9% | 76.8hPa | 2.5V | 02:52:01 | 02:23:11 | 00:00:00 | |
| BIOWL7-15 | 2026-08-31 00:56:00 | 50.71614 | 9.73780 | 45° | 26km/h | 18264m | 1.8m/s | -52.1°C | 1.3% | 76.8hPa | 2.5V | 00:00:00 | 00:00:00 | 00:00:00 | |
| DL1XH1-15 | 2026-08-31 00:55:59 | 50.71595 | 9.73740 | 59° | 27km/h | 18256m | 1.7m/s | -52.1°C | 4% | 76.8hPa | 2.5V | 02:52:05 | 02:23:07 | 00:00:00 | |
| HSKMA3-T | 2026-08-31 00:55:58 | 50.71606 | 9.73765 | 49° | 26km/h | 18261m | 1.5m/s | -52.1°C | 1% | 76.8hPa | 2.5V | 02:52:24 | 02:23:10 | 00:00:00 | |
| DF8AY | 2026-08-31 00:55:56 | 50.71598 | 9.73749 | 57° | 26km/h | 18258m | 1.3m/s | -52.1°C | 1.1% | 76.8hPa | 2.5V | 02:52:24 | 02:23:08 | 00:00:00 | |
| AA1-15 | 2026-08-31 00:55:48 | 50.71565 | 9.73670 | 49° | 31km/h | 18243m | 2.1m/s | -51.9°C | 1.3% | 77hPa | 2.6V | 02:52:24 | 02:23:00 | 00:00:00 | |
| DL1XH1-15 | 2026-08-31 00:55:48 | 50.71550 | 9.73643 | 47° | 29km/h | 18238m | 1.6m/s | -51.9°C | 4.1% | 77.1hPa | 2.5V | 02:52:15 | 02:22:57 | 00:00:00 | |
| HSKMA3-T | 2026-08-31 00:55:47 | 50.71560 | 9.73661 | 48° | 31km/h | 18241m | 2.1m/s | -51.9°C | 1.3% | 77hPa | 2.6V | 02:52:24 | 02:22:59 | 00:00:00 | |
| DF8AY | 2026-08-31 00:55:45 | 50.71549 | 9.73643 | 48° | 29km/h | 18238m | 1.7m/s | -51.9°C | 1.3% | 77.1hPa | 2.5V | 02:52:24 | 02:22:57 | 00:00:00 | |
| DL1XH-west | 2026-08-31 00:55:38 | 50.71520 | 9.73578 | 57° | 31km/h | 18224m | 1.9m/s | -51.9°C | 1.6% | 77.2hPa | 2.5V | 02:52:24 | 02:22:50 | 00:00:00 | |
| DL1XH1-15 | 2026-08-31 00:55:38 | 50.71507 | 9.73549 | 49° | 31km/h | 18217m | 2.1m/s | -51.9°C | 4.4% | 77.3hPa | 2.5V | 02:52:25 | 02:22:47 | 00:00:00 | |
| BIOWL9-15 | 2026-08-31 00:55:38 | 50.71516 | 9.73568 | 54° | 29km/h | 18222m | 2.4m/s | -51.9°C | 1.8% | 77.2hPa | 2.5V | 00:00:00 | 00:00:00 | 00:00:00 | |
| DM0DOS-11 | 2026-08-31 00:55:37 | 50.71490 | 9.73523 | 43° | 31km/h | 18212m | 1.7m/s | -52.1°C | 4.4% | 77.4hPa | 2.5V | 02:52:28 | 02:22:44 | 00:00:00 | |
| HSKMA3-T | 2026-08-31 00:55:37 | 50.71516 | 9.73568 | 55° | 31km/h | 18222m | 2.4m/s | -51.9°C | 1.7% | 77.2hPa | 2.5V | 02:52:24 | 02:22:49 | 00:00:00 | |
| DF8AY | 2026-08-31 00:55:34 | 50.71501 | 9.73540 | 47° | 31km/h | 18215m | 1.7m/s | -52°C | 1.8% | 77.3hPa | 2.6V | 02:53:15 | 02:22:46 | 00:00:00 | |
| DJ2DS-15 | 2026-08-31 00:55:33 | 50.71490 | 9.73523 | 43° | 29km/h | 18212m | 1.7m/s | -52.1°C | 1.8% | 77.4hPa | 2.5V | 00:00:00 | 00:00:00 | 00:00:00 | |
| EDDB2-11 | 2026-08-31 00:55:31 | 50.71485 | 9.73515 | 43° | 29km/h | 18210m | 1.9m/s | -52.1°C | -1.0% | 77.4hPa | 2.5V | 00:00:00 | 00:00:00 | 00:00:00 | |
| DB0ND-19 | 2026-08-31 00:55:30 | 50.71480 | 9.73507 | 44° | 27km/h | 18208m | 1.8m/s | -52.0°C | 1.7% | 77.4hPa | 2.5V | 00:00:00 | 00:00:00 | 00:00:00 | |
| DL1XH-15 | 2026-08-31 00:55:30 | 50.71474 | 9.73498 | 46° | 29km/h | 18207m | 1.5m/s | -52°C | 4.4% | 77.5hPa | 2.5V | 02:52:31 | 02:22:41 | 00:00:00 | |
| DL0LBS | 2026-08-31 00:55:29 | 50.71480 | 9.73506 | 46° | 29km/h | 18208m | 1.8m/s | -52.0°C | 1.8% | 77.4hPa | 2.5V | 02:53:00 | 00:00:00 | 00:00:00 | |
| DL1XH1-15 | 2026-08-31 00:55:28 | 50.71457 | 9.73462 | 59° | 27km/h | 18200m | 2.2m/s | -52°C | 4.2% | 77.5hPa | 2.5V | 02:52:35 | 02:22:37 | 00:00:00 | |
| HSKMA3-T | 2026-08-31 00:55:27 | 50.71465 | 9.73481 | 53° | 27km/h | 18204m | 1.7m/s | -52.1°C | 1.5% | 77.5hPa | 2.6V | 02:53:15 | 02:22:39 | 00:00:00 | |
| AA1-15 | 2026-08-31 00:55:26 | 50.71461 | 9.73472 | 56° | 29km/h | 18202m | 2.2m/s | -52°C | 1.5% | 77.5hPa | 2.5V | 02:53:15 | 02:22:38 | 00:00:00 | |
| DF8AY | 2026-08-31 00:55:24 | 50.71454 | 9.73453 | 62° | 29km/h | 18197m | 2m/s | -52°C | 1.5% | 77.5hPa | 2.5V | 02:53:15 | 02:22:36 | 00:00:00 | |
| DM0DOS-11 | 2026-08-31 00:55:23 | 50.71447 | 9.73433 | 63° | 27km/h | 18194m | 1.7m/s | -52°C | 4.1% | 77.6hPa | 2.5V | 02:52:38 | 02:22:34 | 00:00:00 | |
| DL4BBY-15 | 2026-08-31 00:55:22 | 50.71447 | 9.73433 | 64° | 35km/h | 18194m | 1.6m/s | -53.0°C | 0% | 0hPa | 2.6V | 00:00:00 | 00:00:00 | 00:00:00 | |
| DC4HF-4 | 2026-08-31 00:55:21 | 50.71444 | 9.73423 | 63° | 27km/h | 18192m | 2.0m/s | -52.1°C | 1.6% | 77.6hPa | 2.6V | 00:00:00 | 00:00:00 | 00:00:00 | |
| DL1ZP-14 | 2026-08-31 00:55:20 | 50.71441 | 9.73413 | 61° | 26km/h | 18190m | 2.1m/s | -52.1°C | 1.6% | 77.6hPa | 2.6V | 00:00:00 | 00:00:00 | 00:00:00 | |
| DL1XH-15 | 2026-08-31 00:55:20 | 50.71438 | 9.73404 | 59° | 27km/h | 18188m | 1.9m/s | -52.1°C | 4.1% | 77.6hPa | 2.5V | 02:52:41 | 02:22:31 | 00:00:00 | |
| DM0DOS-11 | 2026-08-31 00:55:17 | 50.71412 | 9.73333 | 65° | 33km/h | 18176m | 2m/s | -52.2°C | 4.1% | 77.8hPa | 2.5V | 02:52:48 | 02:22:24 | 00:00:00 | |
| DL1XH1-15 | 2026-08-31 00:55:16 | 50.71423 | 9.73366 | 59° | 29km/h | 18181m | 1.6m/s | -52.2°C | 4.1% | 77.8hPa | 2.5V | 02:52:45 | 02:22:27 | 00:00:00 | |
| AA1-15 | 2026-08-31 00:55:16 | 50.71427 | 9.73376 | 59° | 27km/h | 18183m | 1.6m/s | -52.2°C | 1.3% | 77.7hPa | 2.5V | 02:53:15 | 02:22:28 | 00:00:00 | |
| DF8AY | 2026-08-31 00:55:13 | 50.71416 | 9.73344 | 64° | 33km/h | 18177m | 1.9m/s | -52.2°C | 1.2% | 77.8hPa | 2.6V | 02:53:15 | 02:22:25 | 00:00:00 | |
| HTAHTA | 2026-08-31 00:55:11 | 50.71405 | 9.73307 | 65° | 35km/h | 18172m | 1.9m/s | -52.2°C | 1.5% | 77.8hPa | 2.5V | 00:00:00 | 00:00:00 | 00:00:00 | |
| DL1XH1-15 | 2026-08-31 00:55:10 | 50.71385 | 9.73240 | 64° | 38km/h | 18162m | 1.7m/s | -52.2°C | 4% | 78hPa | 2.5V | 02:52:55 | 02:22:17 | 00:00:00 | |
| DL1XH-west | 2026-08-31 00:55:05 | 50.71385 | 9.73240 | 65° | 38km/h | 18162m | 1.7m/s | -52.2°C | 1% | 78hPa | 2.5V | 02:53:15 | 02:22:17 | 00:00:00 | |
| DL8OAI-8 | 2026-08-31 00:55:05 | 50.71385 | 9.73240 | 66° | 38km/h | 18162m | 1.7m/s | -52.2°C | 1.5% | 78.0hPa | 2.5V | 02:53:00 | 00:00:00 | 00:00:00 | |
| DM0DOS-11 | 2026-08-31 00:55:03 | 50.71373 | 9.73199 | 64° | 38km/h | 18157m | 1.7m/s | -52.2°C | 3.9% | 78hPa | 2.5V | 02:52:58 | 02:22:14 | 00:00:00 | |
| DF8AY | 2026-08-31 00:55:02 | 50.71373 | 9.73199 | 65° | 38km/h | 18157m | 1.7m/s | -52.2°C | 1% | 78hPa | 2.5V | 02:53:15 | 02:22:14 | 00:00:00 | |
| EDDB2-11 | 2026-08-31 00:55:00 | 50.71365 | 9.73172 | 65° | 37km/h | 18154m | 1.7m/s | -52.2°C | -1.0% | -1.0hPa | 2.5V | 00:00:00 | 00:00:00 | 00:00:00 | |
| DB0ND-19 | 2026-08-31 00:54:59 | 50.71357 | 9.73145 | 66° | 37km/h | 18150m | 1.6m/s | -52.3°C | 1.3% | 78.1hPa | 2.5V | 00:00:00 | 00:00:00 | 00:00:00 | |
| SONDE2-11 | 2026-08-31 00:54:58 | 50.71357 | 9.73145 | 66° | 37km/h | 18150m | 1.6m/s | -52.3°C | -1.0% | -1.0hPa | 2.5V | 00:00:00 | 00:00:00 | 00:00:00 | |
| DM0DOS-11 | 2026-08-31 00:54:57 | 50.71333 | 9.73063 | 62° | 38km/h | 18141m | 1.3m/s | -52.5°C | 3.8% | 78.2hPa | 2.5V | 02:53:08 | 02:22:04 | 00:00:00 | |
| DL1XH1-15 | 2026-08-31 00:54:56 | 50.71346 | 9.73104 | 66° | 38km/h | 18145m | 1.5m/s | -52.5°C | 3.9% | 78.2hPa | 2.5V | 02:53:05 | 02:22:07 | 00:00:00 | |
| DL1XH-west | 2026-08-31 00:54:55 | 50.71346 | 9.73104 | 66° | 38km/h | 18145m | 1.5m/s | -52.5°C | 0.8% | 78.2hPa | 2.5V | 02:53:15 | 02:22:07 | 00:00:00 | |
| HSKMA3-T | 2026-08-31 00:54:54 | 50.71342 | 9.73090 | 64° | 38km/h | 18144m | 1.5m/s | -52.5°C | 0.8% | 78.2hPa | 2.6V | 02:53:15 | 02:22:06 | 00:00:00 | |
| DF8AY | 2026-08-31 00:54:52 | 50.71329 | 9.73049 | 61° | 38km/h | 18140m | 1.4m/s | -52.5°C | 0.7% | 78.3hPa | 2.5V | 02:53:15 | 02:22:03 | 00:00:00 | |
| DL4BBY-15 | 2026-08-31 00:54:52 | 50.71333 | 9.73063 | 63° | 44km/h | 18141m | 1.3m/s | -53.4°C | 0% | 0hPa | 2.5V | 00:00:00 | 00:00:00 | 00:00:00 | |
| DL1XH-15 | 2026-08-31 00:54:50 | 50.71319 | 9.73022 | 60° | 38km/h | 18137m | 1.4m/s | -52.5°C | 3.7% | 78.3hPa | 2.5V | 02:53:11 | 02:22:01 | 00:00:00 | |
| DL1ZP-14 | 2026-08-31 00:54:49 | 50.71319 | 9.73022 | 60° | 38km/h | 18137m | 1.4m/s | -52.5°C | 1.2% | 78.3hPa | 2.5V | 00:00:00 | 00:00:00 | 00:00:00 | |
| HSKMA3-T | 2026-08-31 00:54:44 | 50.71295 | 9.72955 | 61° | 40km/h | 18129m | 1.5m/s | -52.5°C | 0.5% | 78.4hPa | 2.5V | 02:54:06 | 02:21:56 | 00:00:00 | |
| DM0DOS-11 | 2026-08-31 00:54:43 | 50.71284 | 9.72926 | 61° | 44km/h | 18126m | 1.3m/s | -52.5°C | 3.6% | 78.4hPa | 2.5V | 02:53:18 | 02:21:54 | 00:00:00 | |
| BIOWL1-15 | 2026-08-31 00:54:43 | 50.71290 | 9.72940 | 61° | 42km/h | 18128m | 1.4m/s | -52.5°C | 0.4% | 78.4hPa | 2.5V | 02:54:06 | 02:21:55 | 00:00:00 | |
| DF8AY | 2026-08-31 00:54:41 | 50.71279 | 9.72910 | 61° | 46km/h | 18125m | 1.4m/s | -52.5°C | 0.4% | 78.4hPa | 2.6V | 02:54:06 | 02:21:53 | 00:00:00 | |
| DJ2KF-10 | 2026-08-31 00:54:39 | 50.71268 | 9.72877 | 62° | 49km/h | 18122m | 1.6m/s | -52.4°C | 3.6% | 78.4hPa | 2.5V | 02:53:00 | 02:21:51 | 00:00:00 | |
| DM0DOS-11 | 2026-08-31 00:54:37 | 50.71229 | 9.72764 | 61° | 46km/h | 18112m | 1.4m/s | -52.5°C | 3.6% | 78.6hPa | 2.5V | 02:53:28 | 02:21:44 | 00:00:00 | |
| DL1XH-west | 2026-08-31 00:54:33 | 50.71234 | 9.72779 | 62° | 46km/h | 18113m | 1.5m/s | -52.5°C | 0.4% | 78.6hPa | 2.6V | 02:54:06 | 02:21:45 | 00:00:00 | |
| DF8AY | 2026-08-31 00:54:30 | 50.71217 | 9.72732 | 59° | 46km/h | 18109m | 1.5m/s | -52.5°C | 0.5% | 78.6hPa | 2.5V | 02:54:06 | 02:21:42 | 00:00:00 | |
| DL1XH-15 | 2026-08-31 00:54:30 | 50.71211 | 9.72716 | 58° | 47km/h | 18107m | 1.6m/s | -52.5°C | 3.6% | 78.6hPa | 2.5V | 02:53:31 | 02:21:41 | 00:00:00 | |
| DL1XH1-15 | 2026-08-31 00:54:30 | 50.71185 | 9.72651 | 57° | 49km/h | 18101m | 1.4m/s | -52.5°C | 3.6% | 78.7hPa | 2.5V | 02:53:35 | 02:21:37 | 00:00:00 | |
| DB0ND-19 | 2026-08-31 00:54:28 | 50.71198 | 9.72684 | 57° | 47km/h | 18104m | 1.4m/s | -52.5°C | 1.1% | 78.7hPa | 2.5V | 00:00:00 | 00:00:00 | 00:00:00 | |
| DL0LBS | 2026-08-31 00:54:26 | 50.71198 | 9.72684 | 59° | 47km/h | 18105m | 1.4m/s | -52.5°C | 1.1% | 78.7hPa | 2.5V | 02:54:00 | 00:00:00 | 00:00:00 | |
| DM0DOS-11 | 2026-08-31 00:54:25 | 50.71166 | 9.72600 | 60° | 51km/h | 18097m | 1.5m/s | -52.5°C | 3.7% | 78.8hPa | 2.5V | 02:53:38 | 02:21:34 | 00:00:00 | |
| AA1-15 | 2026-08-31 00:54:24 | 50.71179 | 9.72634 | 59° | 49km/h | 18100m | 1.4m/s | -52.5°C | 0.5% | 78.7hPa | 2.5V | 02:54:06 | 02:21:36 | 00:00:00 | |
| DL1XH-west | 2026-08-31 00:54:23 | 50.71172 | 9.72617 | 60° | 49km/h | 18099m | 1.5m/s | -52.5°C | 0.5% | 78.7hPa | 2.5V | 02:54:06 | 02:21:35 | 00:00:00 | |
| DL4BBY-15 | 2026-08-31 00:54:22 | 50.71166 | 9.72600 | 61° | 47km/h | 18098m | 1.5m/s | -53.5°C | 0% | 0hPa | 2.5V | 00:00:00 | 00:00:00 | 00:00:00 | |
| DL1XH-15 | 2026-08-31 00:54:20 | 50.71148 | 9.72547 | 62° | 49km/h | 18093m | 1.6m/s | -52.5°C | 3.7% | 78.8hPa | 2.5V | 02:53:41 | 02:21:31 | 00:00:00 | |
| BIOWL1-15 | 2026-08-31 00:54:20 | 50.71130 | 9.72495 | 61° | 49km/h | 18088m | 1.5m/s | -52.5°C | 0.5% | 78.9hPa | 2.5V | 02:54:06 | 02:21:28 | 00:00:00 | |
| DF8AY | 2026-08-31 00:54:20 | 50.71154 | 9.72565 | 63° | 49km/h | 18094m | 1.5m/s | -52.5°C | 0.5% | 78.8hPa | 2.6V | 02:54:06 | 02:21:32 | 00:00:00 | |
| DF7PN | 2026-08-31 00:54:19 | 50.71148 | 9.72547 | 62° | 49km/h | 18093m | 1.6m/s | -52.5°C | 1.1% | 78.8hPa | 2.5V | 00:00:00 | 00:00:00 | 00:00:00 | |
| DL1ZP-14 | 2026-08-31 00:54:18 | 50.71142 | 9.72530 | 62° | 49km/h | 18091m | 1.4m/s | -52.5°C | 1.2% | 78.8hPa | 2.5V | 00:00:00 | 00:00:00 | 00:00:00 | |
| DL1XH1-15 | 2026-08-31 00:54:17 | 50.71124 | 9.72478 | 60° | 49km/h | 18087m | 1.4m/s | -52.5°C | 3.7% | 78.9hPa | 2.5V | 02:53:45 | 02:21:27 | 00:00:00 | |
| DF8AY | 2026-08-31 00:54:14 | 50.71086 | 9.72375 | 62° | 49km/h | 18079m | 1.4m/s | -52.4°C | 0.5% | 79hPa | 2.5V | 02:54:06 | 02:21:21 | 00:00:00 | |
| DM0DOS-11 | 2026-08-31 00:54:13 | 50.71105 | 9.72427 | 59° | 51km/h | 18083m | 1.5m/s | -52.4°C | 3.7% | 78.9hPa | 2.5V | 02:53:48 | 02:21:24 | 00:00:00 | |
| AA1-15 | 2026-08-31 00:54:13 | 50.71112 | 9.72444 | 59° | 51km/h | 18084m | 1.4m/s | -52.4°C | 0.5% | 78.9hPa | 2.6V | 02:54:06 | 02:21:25 | 00:00:00 | |
| DL1XH-west | 2026-08-31 00:54:12 | 50.71105 | 9.72427 | 59° | 51km/h | 18083m | 1.5m/s | -52.4°C | 0.5% | 78.9hPa | 2.5V | 02:54:06 | 02:21:24 | 00:00:00 | |
| DL1XH-15 | 2026-08-31 00:54:10 | 50.71086 | 9.72375 | 62° | 49km/h | 18079m | 1.4m/s | -52.4°C | 3.7% | 79hPa | 2.5V | 02:53:51 | 02:21:21 | 00:00:00 | |
| BIOWL1-15 | 2026-08-31 00:54:06 | 50.71070 | 9.72322 | 66° | 47km/h | 18074m | 1.6m/s | -52.4°C | 0.5% | 79hPa | 2.6V | 02:54:06 | 02:21:18 | 00:00:00 | |
| AA1-15 | 2026-08-31 00:54:02 | 50.71051 | 9.72254 | 66° | 46km/h | 18068m | 1.6m/s | -52.4°C | 0.6% | 79.1hPa | 2.5V | 02:54:06 | 02:21:14 | 00:00:00 | |
| DL1XH-15 | 2026-08-31 00:54:02 | 50.71036 | 9.72206 | 61° | 46km/h | 18064m | 1.6m/s | -52.3°C | 3.6% | 79.2hPa | 2.6V | 02:54:01 | 02:21:11 | 00:00:00 | |
| DL1XH-west | 2026-08-31 00:54:01 | 50.71047 | 9.72238 | 65° | 46km/h | 18067m | 1.5m/s | -52.3°C | 0.5% | 79.1hPa | 2.5V | 02:54:06 | 02:21:13 | 00:00:00 | |
| DL1XH1-15 | 2026-08-31 00:54:00 | 50.71012 | 9.72142 | 59° | 47km/h | 18058m | 1.6m/s | -52.4°C | 3.6% | 79.2hPa | 2.5V | 02:54:05 | 02:21:07 | 00:00:00 | |
| DF8AY | 2026-08-31 00:53:59 | 50.71030 | 9.72190 | 60° | 46km/h | 18062m | 1.5m/s | -52.4°C | 0.5% | 79.2hPa | 2.5V | 02:54:06 | 02:21:10 | 00:00:00 | |
| BIOWL1-15 | 2026-08-31 00:53:58 | 50.71018 | 9.72158 | 59° | 47km/h | 18059m | 1.5m/s | -52.4°C | 0.5% | 79.2hPa | 2.5V | 02:54:06 | 02:21:08 | 00:00:00 | |
| DM0DOS-11 | 2026-08-31 00:53:56 | 50.70984 | 9.72061 | 61° | 46km/h | 18049m | 1.6m/s | -52.5°C | 3.6% | 79.3hPa | 2.5V | 02:54:10 | 02:21:02 | 00:00:00 | |
| HSKMA3-T | 2026-08-31 00:53:51 | 50.70989 | 9.72077 | 62° | 46km/h | 18051m | 1.6m/s | -52.5°C | 0.5% | 79.3hPa | 2.5V | 02:54:57 | 02:21:03 | 00:00:00 | |
| DL1XH-15 | 2026-08-31 00:53:50 | 50.70978 | 9.72045 | 62° | 46km/h | 18048m | 1.5m/s | -52.5°C | 3.6% | 79.3hPa | 2.5V | 02:54:11 | 02:21:01 | 00:00:00 | |
| DL1XH-west | 2026-08-31 00:53:50 | 50.70983 | 9.72061 | 62° | 46km/h | 18050m | 1.6m/s | -52.5°C | 0.5% | 79.3hPa | 2.5V | 02:54:57 | 02:21:02 | 00:00:00 | |
| DF8AY | 2026-08-31 00:53:47 | 50.70967 | 9.72013 | 62° | 46km/h | 18045m | 1.7m/s | -52.5°C | 0.5% | 79.4hPa | 2.6V | 02:55:48 | 02:20:59 | 00:00:00 | |
| BIOWL1-15 | 2026-08-31 00:53:46 | 50.70962 | 9.71997 | 62° | 46km/h | 18043m | 1.5m/s | -52.6°C | 0.6% | 79.4hPa | 2.6V | 02:54:57 | 02:20:58 | 00:00:00 | |
| DL0LBS | 2026-08-31 00:53:45 | 50.70962 | 9.71997 | 63° | 46km/h | 18044m | 1.5m/s | -52.6°C | 1.3% | 79.4hPa | 2.6V | 02:54:00 | 00:00:00 | 00:00:00 | |
| DL1XH-15 | 2026-08-31 00:53:44 | 50.70922 | 9.71881 | 61° | 47km/h | 18032m | 1.7m/s | -52.9°C | 3.8% | 79.5hPa | 2.6V | 02:54:21 | 02:20:51 | 00:00:00 | |
| HSKMA3-T | 2026-08-31 00:53:41 | 50.70934 | 9.71914 | 62° | 47km/h | 18036m | 1.7m/s | -52.8°C | 0.7% | 79.5hPa | 2.5V | 02:54:57 | 02:20:53 | 00:00:00 | |
| DL1XH-west | 2026-08-31 00:53:39 | 50.70923 | 9.71881 | 61° | 47km/h | 18032m | 1.7m/s | -52.9°C | 0.7% | 79.6hPa | 2.6V | 02:54:57 | 02:20:51 | 00:00:00 | |
| DF8AY | 2026-08-31 00:53:37 | 50.70911 | 9.71847 | 60° | 49km/h | 18029m | 1.8m/s | -53.1°C | 0.8% | 79.6hPa | 2.5V | 02:55:48 | 02:20:49 | 00:00:00 | |
| BIOWL1-15 | 2026-08-31 00:53:35 | 50.70899 | 9.71814 | 60° | 49km/h | 18025m | 1.7m/s | -53.2°C | 0.8% | 79.6hPa | 2.5V | 02:54:57 | 02:20:47 | 00:00:00 | |
| AA1-15 | 2026-08-31 00:53:32 | 50.70874 | 9.71746 | 62° | 49km/h | 18019m | 1.7m/s | -53.3°C | 0.8% | 79.8hPa | 2.5V | 02:54:57 | 02:20:43 | 00:00:00 | |
| HSKMA3-T | 2026-08-31 00:53:30 | 50.70868 | 9.71728 | 62° | 51km/h | 18017m | 1.6m/s | -53.3°C | 0.8% | 79.8hPa | 2.5V | 02:54:57 | 02:20:42 | 00:00:00 | |
| DL1XH-west | 2026-08-31 00:53:29 | 50.70863 | 9.71711 | 63° | 49km/h | 18015m | 1.6m/s | -53.3°C | 0.8% | 79.8hPa | 2.5V | 02:54:57 | 02:20:41 | 00:00:00 | |
| BIOWL1-15 | 2026-08-31 00:53:27 | 50.70840 | 9.71642 | 63° | 47km/h | 18009m | 1.6m/s | -53.4°C | 0.9% | 79.8hPa | 2.5V | 02:54:57 | 02:20:37 | 00:00:00 | |
| DF8AY | 2026-08-31 00:53:27 | 50.70818 | 9.71577 | 61° | 46km/h | 18002m | 1.6m/s | -53.6°C | 0.9% | 79.9hPa | 2.5V | 02:55:48 | 02:20:33 | 00:00:00 | |
| DL0LBS | 2026-08-31 00:53:25 | 50.70845 | 9.71658 | 64° | 47km/h | 18011m | 1.7m/s | -53.4°C | 1.4% | 79.8hPa | 2.6V | 02:54:00 | 00:00:00 | 00:00:00 | |
| DL1XH-15 | 2026-08-31 00:53:24 | 50.70807 | 9.71545 | 61° | 47km/h | 17999m | 1.6m/s | -53.8°C | 4% | 80hPa | 2.6V | 02:54:41 | 02:20:31 | 00:00:00 | |
| HSKMA3-T | 2026-08-31 00:53:20 | 50.70813 | 9.71561 | 61° | 46km/h | 18001m | 1.5m/s | -53.8°C | 0.9% | 79.9hPa | 2.6V | 02:54:57 | 02:20:32 | 00:00:00 | |
| DL1XH1-15 | 2026-08-31 00:53:19 | 50.70782 | 9.71475 | 62° | 53km/h | 17992m | 1.8m/s | -53.9°C | 4% | 80hPa | 2.5V | 02:54:45 | 02:20:27 | 00:00:00 | |
| DL1XH-west | 2026-08-31 00:53:18 | 50.70801 | 9.71528 | 61° | 49km/h | 17998m | 1.6m/s | -53.9°C | 0.8% | 80hPa | 2.5V | 02:54:57 | 02:20:30 | 00:00:00 | |
| BIOWL1-15 | 2026-08-31 00:53:14 | 50.70752 | 9.71383 | 63° | 51km/h | 17984m | 1.6m/s | -53.9°C | 0.7% | 80.2hPa | 2.5V | 02:54:57 | 02:20:22 | 00:00:00 | |
| AA1-15 | 2026-08-31 00:53:14 | 50.70776 | 9.71456 | 62° | 53km/h | 17991m | 1.7m/s | -53.9°C | 0.8% | 80.1hPa | 2.6V | 02:54:57 | 02:20:26 | 00:00:00 | |
| DF8AY | 2026-08-31 00:53:13 | 50.70770 | 9.71438 | 62° | 53km/h | 17989m | 1.6m/s | -53.9°C | 0.7% | 80.1hPa | 2.6V | 02:55:48 | 02:20:25 | 00:00:00 | |
| SMARD9-10 | 2026-08-31 00:53:11 | 50.70764 | 9.71419 | 64° | 53km/h | 17987m | 1.7m/s | 0°C | 0% | 0hPa | 2.5V | 02:54:00 | 00:00:00 | 00:00:00 | |
| DL1XH-15 | 2026-08-31 00:53:10 | 50.70746 | 9.71365 | 62° | 49km/h | 17982m | 1.6m/s | -53.9°C | 3.9% | 80.2hPa | 2.5V | 02:54:51 | 02:20:21 | 00:00:00 | |
| DL1XH1-15 | 2026-08-31 00:53:10 | 50.70723 | 9.71299 | 60° | 47km/h | 17975m | 1.7m/s | -53.9°C | 3.9% | 80.2hPa | 2.5V | 02:54:55 | 02:20:17 | 00:00:00 | |
| HSKMA3-T | 2026-08-31 00:53:09 | 50.70746 | 9.71365 | 62° | 49km/h | 17982m | 1.6m/s | -53.9°C | 0.7% | 80.2hPa | 2.5V | 02:54:57 | 02:20:21 | 00:00:00 | |
| DL1XH-west | 2026-08-31 00:53:08 | 50.70740 | 9.71348 | 62° | 49km/h | 17980m | 1.6m/s | -53.9°C | 0.7% | 80.2hPa | 2.5V | 02:54:57 | 02:20:20 | 00:00:00 | |
| DL0LBS | 2026-08-31 00:53:05 | 50.70729 | 9.71315 | 62° | 47km/h | 17977m | 1.7m/s | -53.9°C | 1.3% | 80.3hPa | 2.6V | 02:54:00 | 00:00:00 | 00:00:00 | |
| DL1XH-15 | 2026-08-31 00:53:04 | 50.70688 | 9.71200 | 60° | 49km/h | 17966m | 1.5m/s | -53.9°C | 3.9% | 80.4hPa | 2.6V | 02:55:01 | 02:20:11 | 00:00:00 | |
| BIOWL1-15 | 2026-08-31 00:53:03 | 50.70682 | 9.71183 | 61° | 49km/h | 17964m | 1.6m/s | -53.9°C | 0.6% | 80.4hPa | 2.5V | 02:55:48 | 02:20:10 | 00:00:00 | |
| HSKMA3-T | 2026-08-31 00:52:59 | 50.70688 | 9.71200 | 60° | 49km/h | 17966m | 1.5m/s | -53.9°C | 0.6% | 80.4hPa | 2.6V | 02:55:48 | 02:20:11 | 00:00:00 | |
| DF8AY | 2026-08-31 00:52:59 | 50.70650 | 9.71096 | 59° | 51km/h | 17956m | 1.8m/s | -54.1°C | 0.7% | 80.5hPa | 2.6V | 02:55:48 | 02:20:05 | 00:00:00 | |
| DL1XH-west | 2026-08-31 00:52:57 | 50.70675 | 9.71165 | 60° | 49km/h | 17962m | 1.8m/s | -53.9°C | 0.7% | 80.4hPa | 2.5V | 02:55:48 | 02:20:09 | 00:00:00 | |
| DC4HF-4 | 2026-08-31 00:52:57 | 50.70669 | 9.71148 | 59° | 49km/h | 17961m | 1.7m/s | -53.9°C | 1.2% | 80.4hPa | 2.5V | 00:00:00 | 00:00:00 | 00:00:00 | |
| DL1XH1-15 | 2026-08-31 00:52:55 | 50.70663 | 9.71131 | 59° | 51km/h | 17959m | 1.8m/s | -54°C | 3.9% | 80.5hPa | 2.5V | 02:55:05 | 02:20:07 | 00:00:00 | |
| BIOWL1-15 | 2026-08-31 00:52:52 | 50.70636 | 9.71060 | 59° | 53km/h | 17952m | 1.8m/s | -54.1°C | 0.6% | 80.5hPa | 2.5V | 02:55:48 | 02:20:03 | 00:00:00 | |
| DL1XH1-15 | 2026-08-31 00:52:50 | 50.70592 | 9.70953 | 54° | 53km/h | 17941m | 1.9m/s | -54.2°C | 4% | 80.7hPa | 2.5V | 02:55:15 | 02:19:57 | 00:00:00 | |
| HSKMA3-T | 2026-08-31 00:52:49 | 50.70622 | 9.71024 | 58° | 53km/h | 17948m | 1.9m/s | -54.2°C | 0.6% | 80.6hPa | 2.5V | 02:55:48 | 02:20:01 | 00:00:00 | |
| DL1XH-west | 2026-08-31 00:52:46 | 50.70600 | 9.70970 | 56° | 53km/h | 17943m | 2m/s | -54.2°C | 0.6% | 80.6hPa | 2.6V | 02:55:48 | 02:19:58 | 00:00:00 | |
| DF8AY | 2026-08-31 00:52:43 | 50.70576 | 9.70919 | 52° | 53km/h | 17937m | 1.8m/s | -54.2°C | 0.7% | 0hPa | 2.5V | 02:55:48 | 02:19:55 | 00:00:00 | |
| BIOWL1-15 | 2026-08-31 00:52:41 | 50.70510 | 9.70774 | 60° | 49km/h | 17920m | 1.9m/s | -54.2°C | 0.6% | 81hPa | 2.6V | 02:55:48 | 02:19:46 | 00:00:00 | |
| HSKMA3-T | 2026-08-31 00:52:38 | 50.70537 | 9.70840 | 54° | 49km/h | 17927m | 1.8m/s | -54.2°C | 0.7% | 80.9hPa | 2.5V | 02:55:48 | 02:19:50 | 00:00:00 | |
| DL1XH1-15 | 2026-08-31 00:52:37 | 50.70517 | 9.70791 | 59° | 49km/h | 17922m | 2m/s | -54.2°C | 3.9% | 80.9hPa | 2.5V | 02:55:25 | 02:19:47 | 00:00:00 | |
| DL1XH-west | 2026-08-31 00:52:35 | 50.70516 | 9.70791 | 59° | 49km/h | 17922m | 2m/s | -54.2°C | 0.6% | 80.9hPa | 2.5V | 02:55:48 | 02:19:47 | 00:00:00 | |
| DF8AY | 2026-08-31 00:52:33 | 50.70504 | 9.70757 | 61° | 49km/h | 17918m | 1.6m/s | -54.2°C | 0.7% | 0hPa | 2.6V | 02:55:48 | 02:19:45 | 00:00:00 | |
| BIOWL1-15 | 2026-08-31 00:52:31 | 50.70457 | 9.70648 | 51° | 47km/h | 17906m | 1.9m/s | -54.2°C | 0.7% | 81.1hPa | 2.6V | 02:55:48 | 02:19:38 | 00:00:00 | |
| DD1CC8 | 2026-08-31 00:52:31 | 50.70492 | 9.70723 | 58° | 47km/h | 17915m | 1.7m/s | -54.2°C | 1.2% | 81.0hPa | 2.5V | 00:00:00 | 00:00:00 | 00:00:00 | |
| DL1XH1-15 | 2026-08-31 00:52:30 | 50.70449 | 9.70633 | 50° | 47km/h | 17904m | 1.8m/s | -54.2°C | 4% | 81.2hPa | 2.5V | 02:55:35 | 02:19:37 | 00:00:00 | |
| HSKMA3-T | 2026-08-31 00:52:27 | 50.70464 | 9.70662 | 51° | 47km/h | 17908m | 1.8m/s | -54.2°C | 0.7% | 81.1hPa | 2.6V | 02:55:48 | 02:19:39 | 00:00:00 | |
| DL1XH-west | 2026-08-31 00:52:24 | 50.70441 | 9.70618 | 51° | 49km/h | 17902m | 1.7m/s | -54.2°C | 0.7% | 81.2hPa | 2.5V | 02:55:48 | 02:19:36 | 00:00:00 | |
| DF8AY | 2026-08-31 00:52:23 | 50.70434 | 9.70603 | 53° | 49km/h | 17900m | 1.7m/s | -54.2°C | 0.6% | 0hPa | 2.5V | 02:55:48 | 02:19:35 | 00:00:00 | |
| BIOWL1-15 | 2026-08-31 00:52:18 | 50.70397 | 9.70519 | 58° | 51km/h | 17891m | 1.9m/s | -54.1°C | 0.7% | 81.3hPa | 2.5V | 02:55:48 | 02:19:30 | 00:00:00 | |
| DL1XH1-15 | 2026-08-31 00:52:17 | 50.70376 | 9.70469 | 52° | 49km/h | 17886m | 1.8m/s | -54.1°C | 4% | 81.4hPa | 2.5V | 02:55:45 | 02:19:27 | 00:00:00 | |
| HSKMA3-T | 2026-08-31 00:52:17 | 50.70390 | 9.70502 | 57° | 51km/h | 17889m | 1.7m/s | -54.1°C | 0.7% | 81.3hPa | 2.5V | 02:55:48 | 02:19:29 | 00:00:00 | |
| DL1XH-west | 2026-08-31 00:52:14 | 50.70368 | 9.70454 | 52° | 49km/h | 17884m | 1.8m/s | -54.2°C | 0.7% | 81.4hPa | 2.6V | 02:55:48 | 02:19:26 | 00:00:00 | |
| AA1-15 | 2026-08-31 00:52:13 | 50.70360 | 9.70438 | 50° | 49km/h | 17882m | 1.8m/s | -54.2°C | 0.7% | 81.4hPa | 2.6V | 02:55:48 | 02:19:25 | 00:00:00 | |
| DF8AY | 2026-08-31 00:52:12 | 50.70352 | 9.70423 | 50° | 49km/h | 17880m | 1.8m/s | 0°C | 0% | 0hPa | 2.5V | 02:55:48 | 02:19:24 | 00:00:00 | |
| DL1XH1-15 | 2026-08-31 00:52:10 | 50.70306 | 9.70311 | 64° | 46km/h | 17868m | 1.8m/s | -54.4°C | 4% | 81.6hPa | 2.5V | 02:55:55 | 02:19:17 | 00:00:00 | |
| BIOWL1-15 | 2026-08-31 00:52:08 | 50.70323 | 9.70361 | 58° | 49km/h | 17873m | 2m/s | -54.4°C | 0.7% | 81.5hPa | 2.5V | 02:56:39 | 02:19:20 | 00:00:00 | |
| HSKMA3-T | 2026-08-31 00:52:06 | 50.70311 | 9.70328 | 63° | 47km/h | 17870m | 2m/s | -54.4°C | 0.8% | 81.6hPa | 2.6V | 02:56:39 | 02:19:18 | 00:00:00 | |
| DL1XH-west | 2026-08-31 00:52:04 | 50.70301 | 9.70294 | 65° | 46km/h | 17866m | 1.6m/s | -54.4°C | 0.8% | 81.6hPa | 2.5V | 02:56:39 | 02:19:16 | 00:00:00 | |
| DL1XH-15 | 2026-08-31 00:52:03 | 50.70272 | 9.70217 | 51° | 46km/h | 17857m | 1.8m/s | -54.3°C | 4.1% | 81.7hPa | 2.6V | 02:56:01 | 02:19:11 | 00:00:00 | |
| AA1-15 | 2026-08-31 00:52:02 | 50.70291 | 9.70262 | 61° | 46km/h | 17862m | 1.8m/s | -54.3°C | 0.8% | 81.7hPa | 2.5V | 02:56:39 | 02:19:14 | 00:00:00 | |
| BIOWL1-15 | 2026-08-31 00:51:57 | 50.70257 | 9.70189 | 49° | 46km/h | 17854m | 2m/s | -54.3°C | 0.8% | 81.8hPa | 2.5V | 02:56:39 | 02:19:09 | 00:00:00 | |
| HSKMA3-T | 2026-08-31 00:51:56 | 50.70249 | 9.70175 | 50° | 46km/h | 17852m | 1.9m/s | -54.3°C | 0.7% | 81.8hPa | 2.5V | 02:56:39 | 02:19:08 | 00:00:00 | |
| DL1XH-west | 2026-08-31 00:51:54 | 50.70235 | 9.70147 | 54° | 44km/h | 17848m | 1.7m/s | -54.2°C | 0.8% | 81.9hPa | 2.6V | 02:56:39 | 02:19:06 | 00:00:00 | |
| DF8AY | 2026-08-31 00:51:52 | 50.70223 | 9.70118 | 60° | 42km/h | 17845m | 1.9m/s | 0°C | 0% | 0hPa | 2.5V | 18:12:15 | 02:19:04 | 00:00:00 | |
| AA1-15 | 2026-08-31 00:51:52 | 50.70218 | 9.70103 | 63° | 42km/h | 17843m | 2m/s | -54.2°C | 0.8% | 82hPa | 2.5V | 02:56:39 | 02:19:03 | 00:00:00 | |
| DL1XH-15 | 2026-08-31 00:51:50 | 50.70208 | 9.70073 | 63° | 42km/h | 17839m | 1.6m/s | -54.2°C | 4% | 82hPa | 2.5V | 02:56:11 | 02:19:01 | 00:00:00 | |
| DL1XH1-15 | 2026-08-31 00:51:50 | 50.70187 | 9.70014 | 54° | 46km/h | 17833m | 1.8m/s | -54.1°C | 3.9% | 82hPa | 2.5V | 02:56:15 | 02:18:57 | 00:00:00 | |
| BIOWL1-15 | 2026-08-31 00:51:46 | 50.70186 | 9.70014 | 54° | 46km/h | 17833m | 1.8m/s | -54.1°C | 0.7% | 82.1hPa | 2.5V | 02:56:39 | 02:18:57 | 00:00:00 | |
| HSKMA3-T | 2026-08-31 00:51:46 | 50.70193 | 9.70029 | 57° | 44km/h | 17835m | 1.7m/s | -54.1°C | 0.7% | 82hPa | 2.6V | 02:56:39 | 02:18:58 | 00:00:00 | |
| DL1XH-west | 2026-08-31 00:51:43 | 50.70172 | 9.69985 | 51° | 47km/h | 17830m | 1.6m/s | -54.1°C | 0.7% | 82.1hPa | 2.5V | 02:56:39 | 02:18:55 | 00:00:00 | |
| AA1-15 | 2026-08-31 00:51:41 | 50.70151 | 9.69943 | 53° | 44km/h | 17824m | 2m/s | -54.1°C | 0.7% | 82.2hPa | 2.6V | 02:56:39 | 02:18:52 | 00:00:00 | |
| DL8OAI-8 | 2026-08-31 00:51:40 | 50.70158 | 9.69956 | 53° | 46km/h | 17826m | 1.9m/s | -54.1°C | 1.3% | 82.1hPa | 2.6V | 02:56:00 | 00:00:00 | 00:00:00 | |
| DJ2KF-10 | 2026-08-31 00:51:39 | 50.70144 | 9.69929 | 56° | 38km/h | 17823m | 1.9m/s | -54.1°C | 3.9% | 82.1hPa | 2.6V | 02:56:00 | 02:18:51 | 00:00:00 | |
| DL1XH1-15 | 2026-08-31 00:51:37 | 50.70124 | 9.69877 | 59° | 37km/h | 17815m | 1.9m/s | -54.1°C | 3.9% | 82.3hPa | 2.5V | 02:56:25 | 02:18:47 | 00:00:00 | |
| DM0DOS-11 | 2026-08-31 00:51:36 | 50.70119 | 9.69865 | 56° | 37km/h | 17813m | 1.8m/s | -54.1°C | 3.9% | 82.3hPa | 2.6V | 02:56:26 | 02:18:46 | 00:00:00 | |
| HSKMA3-T | 2026-08-31 00:51:35 | 50.70124 | 9.69877 | 59° | 37km/h | 17815m | 1.9m/s | -54.1°C | 0.7% | 82.3hPa | 2.5V | 02:56:39 | 02:18:47 | 00:00:00 | |
| DL1XH-west | 2026-08-31 00:51:32 | 50.70109 | 9.69841 | 51° | 38km/h | 17809m | 1.6m/s | -54.2°C | 0.7% | 82.4hPa | 2.5V | 02:56:39 | 02:18:44 | 00:00:00 | |
| DL1XH1-15 | 2026-08-31 00:51:30 | 50.70065 | 9.69756 | 56° | 38km/h | 17797m | 1.9m/s | -54.3°C | 4.1% | 82.5hPa | 2.5V | 02:56:35 | 02:18:37 | 00:00:00 | |
| DM0DOS-11 | 2026-08-31 00:51:29 | 50.70060 | 9.69743 | 57° | 37km/h | 17795m | 1.9m/s | -54.3°C | 4.1% | 82.5hPa | 2.5V | 02:56:36 | 02:18:36 | 00:00:00 | |
| AA1-15 | 2026-08-31 00:51:29 | 50.70089 | 9.69805 | 49° | 40km/h | 17804m | 1.8m/s | -54.2°C | 0.7% | 82.5hPa | 2.5V | 02:56:39 | 02:18:41 | 00:00:00 | |
| BIOWL1-15 | 2026-08-31 00:51:24 | 50.70060 | 9.69743 | 58° | 37km/h | 17795m | 1.9m/s | -54.4°C | 0.8% | 82.5hPa | 2.5V | 02:56:39 | 02:18:36 | 00:00:00 | |
| DL1XH-west | 2026-08-31 00:51:21 | 50.70045 | 9.69707 | 54° | 37km/h | 17790m | 1.7m/s | -54.3°C | 0.8% | 82.6hPa | 2.5V | 02:56:39 | 02:18:33 | 00:00:00 | |
| AA1-15 | 2026-08-31 00:51:18 | 50.70027 | 9.69673 | 47° | 38km/h | 17784m | 1.8m/s | -54.3°C | 0.8% | 82.7hPa | 2.5V | 02:57:30 | 02:18:30 | 00:00:00 | |
| DL1XH1-15 | 2026-08-31 00:51:17 | 50.70007 | 9.69640 | 47° | 38km/h | 17779m | 1.6m/s | -54.4°C | 4% | 82.8hPa | 2.5V | 02:56:45 | 02:18:27 | 00:00:00 | |
| BIOWL1-15 | 2026-08-31 00:51:15 | 50.69969 | 9.69555 | 57° | 38km/h | 17767m | 1.7m/s | -54.6°C | 0.9% | 82.9hPa | 2.5V | 02:57:30 | 02:18:20 | 00:00:00 | |
| DM0DOS-11 | 2026-08-31 00:51:14 | 50.70001 | 9.69629 | 49° | 38km/h | 17778m | 1.8m/s | -54.4°C | 4.1% | 82.8hPa | 2.6V | 02:56:46 | 02:18:26 | 00:00:00 | |
| HSKMA3-T | 2026-08-31 00:51:14 | 50.70001 | 9.69629 | 50° | 38km/h | 17778m | 1.8m/s | -54.4°C | 0.9% | 82.8hPa | 2.6V | 02:57:30 | 02:18:26 | 00:00:00 | |
| DL1XH-west | 2026-08-31 00:51:11 | 50.69985 | 9.69593 | 57° | 37km/h | 17773m | 1.6m/s | -54.5°C | 0.9% | 82.9hPa | 2.5V | 02:57:30 | 02:18:23 | 00:00:00 | |
| DL1XH-15 | 2026-08-31 00:51:10 | 50.69975 | 9.69568 | 57° | 38km/h | 17769m | 1.8m/s | -54.6°C | 4.1% | 82.9hPa | 2.5V | 02:56:51 | 02:18:21 | 00:00:00 | |
| DM0DOS-11 | 2026-08-31 00:51:09 | 50.69945 | 9.69506 | 47° | 38km/h | 17760m | 1.7m/s | -54.6°C | 4.1% | 83hPa | 2.5V | 02:56:56 | 02:18:16 | 00:00:00 | |
| AA1-15 | 2026-08-31 00:51:07 | 50.69964 | 9.69542 | 54° | 38km/h | 17766m | 1.8m/s | -54.6°C | 0.9% | 0hPa | 2.6V | 02:57:30 | 02:18:19 | 00:00:00 | |
| DJ2DS-15 | 2026-08-31 00:51:07 | 50.69964 | 9.69542 | 55° | 38km/h | 17766m | 1.7m/s | -54.5°C | 4.1% | 82.9hPa | 2.6V | 00:00:00 | 02:18:19 | 00:00:00 | |
| DL1XH-15 | 2026-08-31 00:51:04 | 50.69913 | 9.69451 | 51° | 35km/h | 17752m | 1.5m/s | -54.8°C | 4.2% | 83.1hPa | 2.6V | 02:57:01 | 02:18:11 | 00:00:00 | |
| HSKMA3-T | 2026-08-31 00:51:04 | 50.69945 | 9.69506 | 47° | 38km/h | 17760m | 1.7m/s | -54.6°C | 0.9% | 83hPa | 2.5V | 02:57:30 | 02:18:16 | 00:00:00 | |
| BIOWL1-15 | 2026-08-31 00:51:03 | 50.69938 | 9.69495 | 46° | 38km/h | 17759m | 1.7m/s | -54.7°C | 0.8% | 83hPa | 2.5V | 02:57:30 | 02:18:15 | 00:00:00 | |
| DL1XH-west | 2026-08-31 00:51:01 | 50.69925 | 9.69473 | 47° | 37km/h | 17756m | 1.6m/s | -54.8°C | 0.8% | 83.1hPa | 2.5V | 02:57:30 | 02:18:13 | 00:00:00 | |
| AA1-15 | 2026-08-31 00:50:56 | 50.69897 | 9.69416 | 57° | 37km/h | 17748m | 1.4m/s | -54.9°C | 0.8% | 0hPa | 2.5V | 02:57:30 | 02:18:08 | 00:00:00 | |
| DM0DOS-11 | 2026-08-31 00:50:55 | 50.69887 | 9.69391 | 57° | 38km/h | 17745m | 1.6m/s | -54.8°C | 4.1% | 83.2hPa | 2.6V | 02:57:06 | 02:18:06 | 00:00:00 | |
| BIOWL1-15 | 2026-08-31 00:50:53 | 50.69882 | 9.69378 | 56° | 38km/h | 17743m | 1.8m/s | -54.8°C | 0.7% | 83.2hPa | 2.6V | 02:57:30 | 02:18:05 | 00:00:00 | |
| DL4BBY-15 | 2026-08-31 00:50:52 | 50.69876 | 9.69365 | 55° | 38km/h | 17741m | 1.8m/s | -55.8°C | 0% | 0hPa | 2.5V | 00:00:00 | 00:00:00 | 00:00:00 | |
| DB0UT-9 | 2026-08-31 00:50:51 | 50.69876 | 9.69365 | 56° | 40km/h | 17741m | 1.8m/s | -54.8°C | 1.3% | 83.2hPa | 2.5V | 00:00:00 | 00:00:00 | 00:00:00 | |
| DL1XH-15 | 2026-08-31 00:50:50 | 50.69858 | 9.69328 | 51° | 38km/h | 17736m | 1.6m/s | -54.8°C | 4% | 83.3hPa | 2.5V | 02:57:11 | 02:18:01 | 00:00:00 | |
| DL1XH1-15 | 2026-08-31 00:50:50 | 50.69835 | 9.69280 | 56° | 37km/h | 17730m | 1.7m/s | -54.8°C | 4% | 83.4hPa | 2.5V | 02:57:15 | 02:17:57 | 00:00:00 | |
| DL1XH-west | 2026-08-31 00:50:50 | 50.69864 | 9.69340 | 52° | 38km/h | 17738m | 1.6m/s | -54.8°C | 0.7% | 83.3hPa | 2.5V | 02:57:30 | 02:18:02 | 00:00:00 | |
| AA1-15 | 2026-08-31 00:50:46 | 50.69841 | 9.69292 | 54° | 37km/h | 17731m | 1.6m/s | -54.8°C | 0.7% | 0hPa | 2.6V | 02:57:30 | 02:17:58 | 00:00:00 | |
| BIOWL1-15 | 2026-08-31 00:50:43 | 50.69826 | 9.69255 | 61° | 37km/h | 17727m | 1.7m/s | -54.8°C | 0.8% | 83.4hPa | 2.5V | 02:57:30 | 02:17:55 | 00:00:00 | |
| DL1XH-west | 2026-08-31 00:50:40 | 50.69813 | 9.69214 | 64° | 38km/h | 17721m | 1.8m/s | -54.8°C | 0.8% | 83.5hPa | 2.6V | 02:57:30 | 02:17:52 | 00:00:00 | |
| DJ2KF-10 | 2026-08-31 00:50:39 | 50.69808 | 9.69200 | 63° | 38km/h | 17720m | 1.8m/s | -54.8°C | 4.0% | 83.5hPa | 2.5V | 00:00:00 | 02:17:51 | 00:00:00 | |
| DL8OAI-8 | 2026-08-31 00:50:38 | 50.69808 | 9.69200 | 64° | 40km/h | 17720m | 1.8m/s | -54.9°C | 1.3% | 83.5hPa | 2.5V | 02:57:00 | 00:00:00 | 00:00:00 | |
| DL1XH1-15 | 2026-08-31 00:50:37 | 50.69789 | 9.69145 | 59° | 40km/h | 17712m | 1.8m/s | -54.9°C | 4.1% | 83.6hPa | 2.5V | 02:57:25 | 02:17:47 | 00:00:00 | |
| DO2KSM | 2026-08-31 00:50:36 | 50.69799 | 9.69172 | 63° | 40km/h | 17716m | 1.9m/s | -54.9°C | 1.3% | 83.6hPa | 2.6V | 02:57:00 | 00:00:00 | 00:00:00 | |
| DM0DOS-11 | 2026-08-31 00:50:35 | 50.69784 | 9.69131 | 59° | 40km/h | 17710m | 1.9m/s | -55°C | 4.1% | 83.7hPa | 2.6V | 02:57:26 | 02:17:46 | 00:00:00 | |
| AA1-15 | 2026-08-31 00:50:35 | 50.69789 | 9.69145 | 60° | 40km/h | 17712m | 1.8m/s | 0°C | 0% | 0hPa | 2.5V | 02:57:30 | 02:17:47 | 00:00:00 | |
| BIOWL1-15 | 2026-08-31 00:50:32 | 50.69749 | 9.69037 | 59° | 40km/h | 17697m | 1.9m/s | -54.9°C | 0.8% | 83.8hPa | 2.6V | 02:58:21 | 02:17:39 | 00:00:00 | |
| HSKMA3-T | 2026-08-31 00:50:32 | 50.69774 | 9.69104 | 60° | 38km/h | 17706m | 1.9m/s | -55°C | 0.8% | 83.7hPa | 2.5V | 02:57:30 | 02:17:44 | 00:00:00 | |
| DB0UT-9 | 2026-08-31 00:50:31 | 50.69774 | 9.69104 | 61° | 38km/h | 17706m | 1.9m/s | -55.0°C | 1.4% | 83.7hPa | 2.5V | 00:00:00 | 00:00:00 | 00:00:00 | |
| DL1XH-15 | 2026-08-31 00:50:30 | 50.69759 | 9.69064 | 59° | 40km/h | 17700m | 1.9m/s | -55°C | 4.2% | 83.8hPa | 2.5V | 02:57:31 | 02:17:41 | 00:00:00 | |
| DL1XH1-15 | 2026-08-31 00:50:30 | 50.69738 | 9.69010 | 56° | 40km/h | 17693m | 1.9m/s | -54.9°C | 4.1% | 83.9hPa | 2.5V | 02:57:35 | 02:17:37 | 00:00:00 | |
| DM0DOS-11 | 2026-08-31 00:50:29 | 50.69732 | 9.68997 | 55° | 40km/h | 17691m | 2m/s | -54.9°C | 4.1% | 83.9hPa | 2.5V | 02:57:36 | 02:17:36 | 00:00:00 | |
| DL1XH-west | 2026-08-31 00:50:29 | 50.69759 | 9.69064 | 60° | 40km/h | 17701m | 1.9m/s | -55°C | 0.8% | 83.8hPa | 2.5V | 02:58:21 | 02:17:41 | 00:00:00 | |
| AA1-15 | 2026-08-31 00:50:24 | 50.69732 | 9.68997 | 56° | 40km/h | 17691m | 2m/s | 0°C | 0% | 0hPa | 2.5V | 18:12:15 | 02:17:36 | 00:00:00 | |
| HSKMA3-T | 2026-08-31 00:50:22 | 50.69721 | 9.68971 | 55° | 38km/h | 17688m | 1.8m/s | -54.9°C | 0.7% | 84hPa | 2.5V | 02:58:21 | 02:17:34 | 00:00:00 | |
| DL4BBY-15 | 2026-08-31 00:50:22 | 50.69721 | 9.68971 | 55° | 42km/h | 17687m | 1.8m/s | -55.8°C | 0% | 0hPa | 2.5V | 00:00:00 | 00:00:00 | 00:00:00 | |
| DL1XH-15 | 2026-08-31 00:50:20 | 50.69705 | 9.68934 | 56° | 37km/h | 17682m | 1.7m/s | -54.9°C | 4.1% | 84hPa | 2.5V | 02:57:41 | 02:17:31 | 00:00:00 | |
| DL1XH-west | 2026-08-31 00:50:18 | 50.69700 | 9.68922 | 58° | 37km/h | 17681m | 1.6m/s | -54.9°C | 0.7% | 84hPa | 2.5V | 02:58:21 | 02:17:30 | 00:00:00 | |
| BIOWL1-15 | 2026-08-31 00:50:18 | 50.69645 | 9.68775 | 55° | 42km/h | 17660m | 2m/s | -54.9°C | 0.7% | 84.3hPa | 2.6V | 02:58:21 | 02:17:19 | 00:00:00 | |
| DM0DOS-11 | 2026-08-31 00:50:17 | 50.69682 | 9.68871 | 62° | 38km/h | 17674m | 1.8m/s | -54.9°C | 4.1% | 84.1hPa | 2.6V | 02:57:46 | 02:17:26 | 00:00:00 | |
| DL1XH1-15 | 2026-08-31 00:50:17 | 50.69687 | 9.68884 | 62° | 37km/h | 17675m | 1.8m/s | -54.9°C | 4% | 84.1hPa | 2.5V | 02:57:45 | 02:17:27 | 00:00:00 | |
| AA1-15 | 2026-08-31 00:50:13 | 50.69678 | 9.68858 | 62° | 38km/h | 17672m | 2m/s | 0°C | 0% | 0hPa | 2.6V | 18:12:15 | 02:17:25 | 00:00:00 | |
| DL1XH-15 | 2026-08-31 00:50:11 | 50.69657 | 9.68803 | 56° | 42km/h | 17664m | 2m/s | -54.9°C | 4.1% | 84.3hPa | 2.5V | 02:57:51 | 02:17:21 | 00:00:00 | |
| HSKMA3-T | 2026-08-31 00:50:11 | 50.69668 | 9.68831 | 59° | 40km/h | 17668m | 1.8m/s | -54.9°C | 0.7% | 84.2hPa | 2.5V | 02:58:21 | 02:17:23 | 00:00:00 | |
| DL1XH-west | 2026-08-31 00:50:08 | 50.69651 | 9.68789 | 55° | 42km/h | 17662m | 2m/s | -54.9°C | 0.7% | 84.3hPa | 2.5V | 02:58:21 | 02:17:20 | 00:00:00 | |
| DM0DOS-11 | 2026-08-31 00:50:07 | 50.69627 | 9.68734 | 57° | 42km/h | 17655m | 1.7m/s | -54.9°C | 4.1% | 84.3hPa | 2.5V | 02:57:56 | 02:17:16 | 00:00:00 | |
| AA1-15 | 2026-08-31 00:50:02 | 50.69617 | 9.68706 | 62° | 40km/h | 17651m | 1.8m/s | 0°C | 0% | 0hPa | 2.5V | 18:12:15 | 02:17:14 | 00:00:00 | |
| HSKMA3-T | 2026-08-31 00:50:01 | 50.69612 | 9.68692 | 64° | 40km/h | 17650m | 1.7m/s | -54.8°C | 0.7% | 84.5hPa | 2.6V | 02:58:21 | 02:17:13 | 00:00:00 | |
| DL1XH-15 | 2026-08-31 00:50:00 | 50.69604 | 9.68664 | 64° | 38km/h | 17646m | 1.6m/s | -54.8°C | 4% | 84.5hPa | 2.5V | 02:58:01 | 02:17:11 | 00:00:00 | |
| DL1XH-west | 2026-08-31 00:49:58 | 50.69600 | 9.68650 | 64° | 38km/h | 17645m | 1.5m/s | -54.9°C | 0.7% | 84.5hPa | 2.5V | 02:58:21 | 02:17:10 | 00:00:00 | |
| DM0DOS-11 | 2026-08-31 00:49:57 | 50.69581 | 9.68595 | 58° | 40km/h | 17638m | 1.6m/s | -54.8°C | 4.1% | 84.6hPa | 2.6V | 02:58:06 | 02:17:06 | 00:00:00 | |
| BIOWL1-15 | 2026-08-31 00:49:56 | 50.69570 | 9.68568 | 57° | 42km/h | 17635m | 1.9m/s | -54.8°C | 0.7% | 84.7hPa | 2.5V | 02:58:21 | 02:17:04 | 00:00:00 | |
| DO2JMG | 2026-08-31 00:49:56 | 50.69591 | 9.68622 | 61° | 38km/h | 17642m | 1.6m/s | -54.9°C | 0% | 84.6hPa | 2.5V | 02:58:21 | 02:17:08 | 00:00:00 | |
| AA1-15 | 2026-08-31 00:49:51 | 50.69564 | 9.68554 | 57° | 42km/h | 17633m | 2.1m/s | 0°C | 0% | 0hPa | 2.5V | 18:12:15 | 02:17:03 | 00:00:00 | |
| DL1XH-15 | 2026-08-31 00:49:50 | 50.69552 | 9.68525 | 57° | 44km/h | 17629m | 1.9m/s | -54.8°C | 4% | 84.7hPa | 2.5V | 02:58:11 | 02:17:01 | 00:00:00 | |
| DL1XH1-15 | 2026-08-31 00:49:50 | 50.69529 | 9.68467 | 58° | 42km/h | 17621m | 2m/s | -54.8°C | 4% | 84.8hPa | 2.5V | 02:58:15 | 02:16:57 | 00:00:00 | |
| HSKMA3-T | 2026-08-31 00:49:50 | 50.69558 | 9.68540 | 57° | 42km/h | 17631m | 2.1m/s | -54.8°C | 0.7% | 84.7hPa | 2.5V | 02:58:21 | 02:17:02 | 00:00:00 | |
| DL1XH-west | 2026-08-31 00:49:47 | 50.69541 | 9.68496 | 59° | 44km/h | 17625m | 1.9m/s | -54.8°C | 0.7% | 84.8hPa | 2.6V | 02:58:21 | 02:16:59 | 00:00:00 | |
| SONCRA | 2026-08-31 00:49:46 | 50.69529 | 9.68467 | 58° | 42km/h | 17621m | 2.0m/s | -54.8°C | 1.3% | 84.8hPa | 2.5V | 00:00:00 | 00:00:00 | 00:00:00 | |
| BIOWL1-15 | 2026-08-31 00:49:43 | 50.69512 | 9.68424 | 58° | 42km/h | 17616m | 1.7m/s | -54.7°C | 0.7% | 84.9hPa | 2.5V | 02:58:21 | 02:16:54 | 00:00:00 | |
| DL1XH-15 | 2026-08-31 00:49:41 | 50.69496 | 9.68383 | 56° | 40km/h | 17611m | 1.7m/s | -54.7°C | 4% | 85hPa | 2.5V | 02:58:21 | 02:16:51 | 00:00:00 | |
| HSKMA3-T | 2026-08-31 00:49:40 | 50.69501 | 9.68396 | 57° | 40km/h | 17612m | 1.7m/s | -54.7°C | 0.7% | 85hPa | 2.6V | 02:58:21 | 02:16:52 | 00:00:00 | |
| DO2JMG | 2026-08-31 00:49:37 | 50.69485 | 9.68356 | 57° | 40km/h | 17607m | 1.6m/s | 0°C | 0% | 85hPa | 2.5V | 18:12:15 | 02:16:49 | 00:00:00 | |
| DL8OAI-8 | 2026-08-31 00:49:36 | 50.69485 | 9.68356 | 58° | 40km/h | 17608m | 1.6m/s | -54.7°C | 1.3% | 85.0hPa | 2.6V | 02:59:00 | 00:00:00 | 00:00:00 | |
| DM0DOS-11 | 2026-08-31 00:49:35 | 50.69468 | 9.68317 | 56° | 40km/h | 17603m | 1.6m/s | -54.7°C | 4.1% | 85.1hPa | 2.6V | 02:58:26 | 02:16:46 | 00:00:00 | |
| DO2KSM | 2026-08-31 00:49:35 | 50.69479 | 9.68343 | 58° | 38km/h | 17606m | 1.7m/s | -54.7°C | 1.3% | 85.0hPa | 2.5V | 02:59:00 | 00:00:00 | 00:00:00 | |
| DL1XH-15 | 2026-08-31 00:49:34 | 50.69438 | 9.68250 | 52° | 44km/h | 17594m | 2.1m/s | -54.7°C | 4% | 85.2hPa | 2.5V | 02:58:31 | 02:16:41 | 00:00:00 | |
| BIOWL1-15 | 2026-08-31 00:49:32 | 50.69457 | 9.68290 | 55° | 40km/h | 17599m | 1.6m/s | -54.7°C | 0.8% | 85.1hPa | 2.5V | 02:59:12 | 02:16:44 | 00:00:00 | |
| DL8DAS-15 | 2026-08-31 00:49:31 | 50.69456 | 9.68290 | 56° | 40km/h | 17599m | 1.6m/s | -54.7°C | 1.4% | 85.1hPa | 2.5V | 00:00:00 | 00:00:00 | 00:00:00 | |
| DM0DOS-11 | 2026-08-31 00:49:30 | 50.69404 | 9.68177 | 55° | 47km/h | 17584m | 1.9m/s | -54.6°C | 4% | 85.3hPa | 2.5V | 02:58:36 | 02:16:36 | 00:00:00 | |
| DL1XH1-15 | 2026-08-31 00:49:30 | 50.69411 | 9.68192 | 54° | 46km/h | 17586m | 2.1m/s | -54.7°C | 4% | 85.3hPa | 2.5V | 02:58:35 | 02:16:37 | 00:00:00 | |
| HSKMA3-T | 2026-08-31 00:49:29 | 50.69438 | 9.68250 | 53° | 44km/h | 17594m | 2.1m/s | -54.7°C | 0.7% | 85.2hPa | 2.5V | 02:59:12 | 02:16:41 | 00:00:00 | |
| DL1XH-west | 2026-08-31 00:49:27 | 50.69424 | 9.68222 | 53° | 46km/h | 17590m | 1.9m/s | -54.7°C | 0.7% | 85.2hPa | 2.6V | 02:59:12 | 02:16:39 | 00:00:00 | |
| DO2JMG | 2026-08-31 00:49:26 | 50.69417 | 9.68207 | 54° | 46km/h | 17588m | 2.1m/s | 0°C | 0% | 0hPa | 2.5V | 18:12:15 | 02:16:38 | 00:00:00 | |
| BIOWL1-15 | 2026-08-31 00:49:21 | 50.69379 | 9.68115 | 60° | 44km/h | 17576m | 1.8m/s | -54.6°C | 0.7% | 85.4hPa | 2.6V | 02:59:12 | 02:16:32 | 00:00:00 | |
| DL1XH-15 | 2026-08-31 00:49:21 | 50.69374 | 9.68100 | 60° | 44km/h | 17574m | 1.9m/s | -54.6°C | 4% | 85.5hPa | 2.5V | 02:58:41 | 02:16:31 | 00:00:00 | |
| HSKMA3-T | 2026-08-31 00:49:19 | 50.69368 | 9.68085 | 60° | 42km/h | 17572m | 1.9m/s | -54.6°C | 0.7% | 85.5hPa | 2.5V | 02:59:12 | 02:16:30 | 00:00:00 | |
| DL1XH1-15 | 2026-08-31 00:49:17 | 50.69352 | 9.68043 | 56° | 42km/h | 17567m | 1.9m/s | -54.5°C | 4.1% | 85.5hPa | 2.6V | 02:58:45 | 02:16:27 | 00:00:00 | |
| DO2JMG | 2026-08-31 00:49:16 | 50.69358 | 9.68057 | 58° | 42km/h | 17569m | 1.9m/s | 0°C | 0% | 0hPa | 2.5V | 18:12:15 | 02:16:28 | 00:00:00 | |
| DM0DOS-11 | 2026-08-31 00:49:15 | 50.69346 | 9.68029 | 55° | 42km/h | 17565m | 1.8m/s | -54.5°C | 4% | 85.6hPa | 2.6V | 02:58:46 | 02:16:26 | 00:00:00 | |
| DF8AY | 2026-08-31 00:49:12 | 50.69333 | 9.68001 | 54° | 44km/h | 17561m | 1.8m/s | 0°C | 0% | 0hPa | 2.5V | 18:12:15 | 02:16:24 | 00:00:00 | |
| DB0NH | 2026-08-31 00:49:12 | 50.69333 | 9.68001 | 55° | 46km/h | 17562m | 1.8m/s | 0°C | 0% | 0hPa | 2.5V | 02:58:00 | 02:16:24 | 00:00:00 | |
| SFWM-10 | 2026-08-31 00:49:11 | 50.69334 | 9.68001 | 55° | 44km/h | 17562m | 1.8m/s | -54.6°C | 1.3% | 85.6hPa | 2.5V | 02:59:00 | 00:00:00 | 00:00:00 | |
| DL1XH1-15 | 2026-08-31 00:49:10 | 50.69287 | 9.67895 | 55° | 46km/h | 17547m | 1.9m/s | -54.5°C | 4% | 85.8hPa | 2.5V | 02:58:55 | 02:16:17 | 00:00:00 | |
| HSKMA3-T | 2026-08-31 00:49:07 | 50.69300 | 9.67926 | 56° | 46km/h | 17552m | 2.1m/s | -54.5°C | 0.7% | 85.8hPa | 2.6V | 02:59:12 | 02:16:19 | 00:00:00 | |
| DO2JMG | 2026-08-31 00:49:05 | 50.69287 | 9.67895 | 56° | 46km/h | 17548m | 1.9m/s | 0°C | 0% | 0hPa | 2.5V | 18:12:15 | 02:16:17 | 00:00:00 | |
| DL1XH-15 | 2026-08-31 00:49:04 | 50.69247 | 9.67811 | 51° | 44km/h | 17536m | 2m/s | -54.4°C | 4% | 86hPa | 2.5V | 02:59:01 | 02:16:11 | 00:00:00 | |
| HSKMA3-T | 2026-08-31 00:48:57 | 50.69233 | 9.67783 | 52° | 44km/h | 17532m | 2.1m/s | -54.4°C | 0.7% | 86hPa | 2.5V | 02:59:12 | 02:16:09 | 00:00:00 | |
| DL1XH1-15 | 2026-08-31 00:48:57 | 50.69220 | 9.67755 | 53° | 46km/h | 17528m | 1.9m/s | -54.4°C | 4% | 86.1hPa | 2.6V | 02:59:05 | 02:16:07 | 00:00:00 | |
| DO2JMG | 2026-08-31 00:48:55 | 50.69219 | 9.67755 | 54° | 46km/h | 17528m | 1.9m/s | 0°C | 0% | 0hPa | 2.6V | 18:12:15 | 02:16:07 | 00:00:00 | |
| BIOWL9-15 | 2026-08-31 00:48:54 | 50.69213 | 9.67740 | 55° | 46km/h | 17526m | 1.9m/s | -54.4°C | 1.2% | 86.1hPa | 2.5V | 00:00:00 | 00:00:00 | 00:00:00 | |
| DL1XH-west | 2026-08-31 00:48:54 | 50.69213 | 9.67740 | 55° | 46km/h | 17526m | 1.9m/s | -54.4°C | 0.6% | 86.1hPa | 2.6V | 02:59:12 | 02:16:06 | 00:00:00 | |
| DD1CC8 | 2026-08-31 00:48:53 | 50.69206 | 9.67725 | 55° | 46km/h | 17524m | 1.9m/s | -54.4°C | 1.3% | 86.1hPa | 2.5V | 00:00:00 | 00:00:00 | 00:00:00 | |
| DL1XH1-15 | 2026-08-31 00:48:50 | 50.69148 | 9.67612 | 45° | 46km/h | 17508m | 2m/s | -54.2°C | 4.1% | 86.3hPa | 2.5V | 02:59:15 | 02:15:57 | 00:00:00 | |
| DL1XH-15 | 2026-08-31 00:48:50 | 50.69179 | 9.67666 | 51° | 46km/h | 17516m | 1.9m/s | -54.3°C | 4% | 86.2hPa | 2.5V | 02:59:11 | 02:16:01 | 00:00:00 | |
| BIOWL1-15 | 2026-08-31 00:48:49 | 50.69179 | 9.67666 | 51° | 46km/h | 17516m | 1.9m/s | -54.3°C | 0.7% | 86.2hPa | 2.5V | 02:59:12 | 02:16:01 | 00:00:00 | |
| HSKMA3-T | 2026-08-31 00:48:47 | 50.69156 | 9.67625 | 47° | 46km/h | 17510m | 2.1m/s | -54.3°C | 0.7% | 86.3hPa | 2.5V | 03:00:03 | 02:15:58 | 00:00:00 | |
| DO2JMG | 2026-08-31 00:48:45 | 50.69148 | 9.67612 | 46° | 46km/h | 17508m | 2m/s | 0°C | 0% | 0hPa | 2.5V | 18:12:15 | 02:15:57 | 00:00:00 | |
| DL1XH-west | 2026-08-31 00:48:43 | 50.69132 | 9.67586 | 47° | 46km/h | 17505m | 1.9m/s | -54.2°C | 0.7% | 86.4hPa | 2.5V | 03:00:03 | 02:15:55 | 00:00:00 | |
| DJ2DS-15 | 2026-08-31 00:48:42 | 50.69124 | 9.67573 | 48° | 46km/h | 17503m | 1.9m/s | -54.2°C | 4.0% | 86.4hPa | 2.6V | 02:59:00 | 02:15:54 | 00:00:00 | |
| DB0NH | 2026-08-31 00:48:41 | 50.69116 | 9.67559 | 49° | 115km/h | 17501m | 1.9m/s | 0°C | 0% | 0hPa | 2.6V | 00:00:00 | 02:15:53 | 00:00:00 | |
| DM0DOS-11 | 2026-08-31 00:48:39 | 50.69062 | 9.67460 | 47° | 46km/h | 17487m | 2m/s | -54.1°C | 4% | 86.6hPa | 2.6V | 02:59:26 | 02:15:46 | 00:00:00 | |
| BIOWL1-15 | 2026-08-31 00:48:39 | 50.69101 | 9.67530 | 50° | 47km/h | 17497m | 2m/s | -54.2°C | 0.7% | 86.5hPa | 2.5V | 03:00:03 | 02:15:51 | 00:00:00 | |
| DJ2KF-10 | 2026-08-31 00:48:39 | 50.69101 | 9.67530 | 51° | 47km/h | 17497m | 1.9m/s | -54.1°C | 4.0% | 86.4hPa | 2.5V | 02:59:00 | 02:15:51 | 00:00:00 | |
| DL1XH1-15 | 2026-08-31 00:48:37 | 50.69070 | 9.67473 | 48° | 46km/h | 17489m | 1.9m/s | -54.2°C | 4% | 86.6hPa | 2.6V | 02:59:25 | 02:15:47 | 00:00:00 | |
| HSKMA3-T | 2026-08-31 00:48:35 | 50.69070 | 9.67473 | 49° | 46km/h | 17489m | 1.9m/s | -54.2°C | 0.8% | 86.6hPa | 2.6V | 03:00:03 | 02:15:47 | 00:00:00 | |
| DL1XH-west | 2026-08-31 00:48:32 | 50.69047 | 9.67434 | 47° | 44km/h | 17484m | 1.8m/s | -54.1°C | 0.6% | 86.7hPa | 2.5V | 03:00:03 | 02:15:44 | 00:00:00 | |
| BIOWL1-15 | 2026-08-31 00:48:31 | 50.69025 | 9.67395 | 48° | 44km/h | 17478m | 2.1m/s | -54.1°C | 0.7% | 86.8hPa | 2.6V | 03:00:03 | 02:15:41 | 00:00:00 | |
| DL1XH1-15 | 2026-08-31 00:48:30 | 50.68995 | 9.67342 | 48° | 46km/h | 17470m | 2m/s | -54°C | 3.9% | 86.8hPa | 2.5V | 02:59:35 | 02:15:37 | 00:00:00 | |
| SFWM-10 | 2026-08-31 00:48:29 | 50.69032 | 9.67408 | 49° | 44km/h | 17480m | 2.1m/s | -54.1°C | 1.3% | 86.7hPa | 2.5V | 03:00:00 | 00:00:00 | 00:00:00 | |
| DB0UT-9 | 2026-08-31 00:48:28 | 50.69025 | 9.67395 | 49° | 44km/h | 17478m | 2.1m/s | -54.1°C | 1.3% | 86.8hPa | 2.5V | 03:00:00 | 00:00:00 | 00:00:00 | |
| DM0DOS-11 | 2026-08-31 00:48:26 | 50.68987 | 9.67328 | 47° | 46km/h | 17467m | 2.1m/s | -54°C | 3.9% | 86.9hPa | 2.5V | 02:59:36 | 02:15:36 | 00:00:00 | |
| DL1XH-15 | 2026-08-31 00:48:24 | 50.68941 | 9.67250 | 45° | 46km/h | 17456m | 2m/s | -54.1°C | 4% | 87hPa | 2.5V | 02:59:42 | 02:15:30 | 00:00:00 | |
| HSKMA3-T | 2026-08-31 00:48:24 | 50.68987 | 9.67328 | 48° | 46km/h | 17467m | 2.1m/s | -54°C | 0.7% | 86.9hPa | 2.5V | 03:00:03 | 02:15:36 | 00:00:00 | |
| DL1XH-west | 2026-08-31 00:48:22 | 50.68972 | 9.67302 | 47° | 46km/h | 17464m | 1.9m/s | -54°C | 0.7% | 86.9hPa | 2.6V | 03:00:03 | 02:15:34 | 00:00:00 | |
| DJ2DS-15 | 2026-08-31 00:48:22 | 50.68972 | 9.67302 | 48° | 46km/h | 17464m | 1.9m/s | -54.0°C | 4.0% | 86.9hPa | 2.5V | 00:00:00 | 02:15:34 | 00:00:00 | |
| DM0DOS-11 | 2026-08-31 00:48:19 | 50.68907 | 9.67197 | 44° | 49km/h | 17448m | 2m/s | -54°C | 4% | 87.1hPa | 2.5V | 02:59:46 | 02:15:26 | 00:00:00 | |
| BIOWL1-15 | 2026-08-31 00:48:19 | 50.68941 | 9.67250 | 46° | 46km/h | 17456m | 2.1m/s | -54.1°C | 0.7% | 87hPa | 2.5V | 03:00:03 | 02:15:30 | 00:00:00 | |
| HSKMA3-T | 2026-08-31 00:48:14 | 50.68907 | 9.67197 | 45° | 49km/h | 17448m | 2m/s | -54°C | 0.7% | 87.1hPa | 2.5V | 03:00:03 | 02:15:26 | 00:00:00 | |
| DL1XH-west | 2026-08-31 00:48:11 | 50.68880 | 9.67155 | 45° | 49km/h | 17442m | 1.8m/s | -54°C | 0.7% | 87.2hPa | 2.5V | 03:00:03 | 02:15:23 | 00:00:00 | |
| DL1XH1-15 | 2026-08-31 00:48:10 | 50.68833 | 9.67075 | 47° | 42km/h | 17431m | 1.9m/s | -53.9°C | 3.9% | 87.4hPa | 2.5V | 02:59:55 | 02:15:17 | 00:00:00 | |
| BIOWL1-15 | 2026-08-31 00:48:08 | 50.68855 | 9.67114 | 48° | 46km/h | 17436m | 1.9m/s | -53.9°C | 0.8% | 87.3hPa | 2.6V | 03:00:03 | 02:15:20 | 00:00:00 | |
| HSKMA3-T | 2026-08-31 00:48:03 | 50.68818 | 9.67050 | 46° | 42km/h | 17427m | 1.8m/s | -53.9°C | 0.7% | 87.4hPa | 2.5V | 03:00:03 | 02:15:15 | 00:00:00 | |
| DF8AY | 2026-08-31 00:48:02 | 50.68810 | 9.67038 | 45° | 44km/h | 17425m | 1.9m/s | 0°C | 0% | 0hPa | 2.6V | 18:12:15 | 02:15:14 | 00:00:00 | |
| DL1XH-west | 2026-08-31 00:48:00 | 50.68794 | 9.67014 | 43° | 46km/h | 17421m | 1.9m/s | -53.9°C | 0.6% | 87.5hPa | 2.5V | 03:00:03 | 02:15:12 | 00:00:00 | |
| DM0DOS-11 | 2026-08-31 00:47:59 | 50.68742 | 9.66936 | 44° | 47km/h | 17410m | 1.7m/s | -53.9°C | 3.9% | 87.7hPa | 2.5V | 03:00:06 | 02:15:06 | 00:00:00 | |
| BIOWL1-15 | 2026-08-31 00:47:57 | 50.68742 | 9.66936 | 45° | 47km/h | 17410m | 1.7m/s | -53.9°C | 0.7% | 87.7hPa | 2.5V | 03:00:54 | 02:15:06 | 00:00:00 | |
| DL1XH1-15 | 2026-08-31 00:47:57 | 50.68750 | 9.66949 | 44° | 47km/h | 17412m | 1.8m/s | -53.9°C | 4% | 87.6hPa | 2.6V | 03:00:05 | 02:15:07 | 00:00:00 | |
| AA1-15 | 2026-08-31 00:47:55 | 50.68750 | 9.66949 | 44° | 47km/h | 17412m | 1.8m/s | 0°C | 0% | 0hPa | 2.6V | 18:12:15 | 02:15:07 | 00:00:00 | |
| HSKMA3-T | 2026-08-31 00:47:53 | 50.68733 | 9.66922 | 46° | 47km/h | 17409m | 1.8m/s | -53.9°C | 0.7% | 87.7hPa | 2.5V | 03:00:54 | 02:15:05 | 00:00:00 | |
| BIOWL9-15 | 2026-08-31 00:47:52 | 50.68717 | 9.66896 | 46° | 46km/h | 17405m | 1.9m/s | -53.9°C | 1.3% | 87.8hPa | 2.6V | 00:00:00 | 00:00:00 | 00:00:00 | |
| DL1XH-15 | 2026-08-31 00:47:51 | 50.68701 | 9.66869 | 46° | 47km/h | 17401m | 1.8m/s | -53.8°C | 4% | 87.8hPa | 2.6V | 03:00:11 | 02:15:01 | 00:00:00 | |
| DL1XH-west | 2026-08-31 00:47:49 | 50.68701 | 9.66869 | 46° | 47km/h | 17401m | 1.8m/s | -53.8°C | 0.7% | 87.8hPa | 2.6V | 03:00:54 | 02:15:01 | 00:00:00 | |
| DO9LL-15 | 2026-08-31 00:47:49 | 50.68701 | 9.66869 | 47° | 49km/h | 17402m | 1.7m/s | -53.8°C | 4.0% | 87.7hPa | 2.6V | 00:00:00 | 02:15:01 | 00:00:00 | |
| DL4BBY-15 | 2026-08-31 00:47:48 | 50.68692 | 9.66856 | 47° | 49km/h | 17400m | 1.7m/s | -54.7°C | 0% | 0hPa | 2.5V | 00:00:00 | 00:00:00 | 00:00:00 | |
| DB0UT-9 | 2026-08-31 00:47:47 | 50.68692 | 9.66856 | 48° | 47km/h | 17400m | 1.8m/s | 0°C | 0% | 0hPa | 2.5V | 03:00:00 | 00:00:00 | 00:00:00 | |
| DM0DOS-11 | 2026-08-31 00:47:45 | 50.68659 | 9.66801 | 46° | 47km/h | 17392m | 1.9m/s | -53.8°C | 3.9% | 87.9hPa | 2.5V | 03:00:16 | 02:14:56 | 00:00:00 | |
| DB0UT-7 | 2026-08-31 00:47:45 | 50.68667 | 9.66814 | 47° | 49km/h | 17395m | 1.9m/s | -53.7°C | 3.9% | 87.8hPa | 2.5V | 00:00:00 | 00:00:00 | 00:00:00 | |
| DL1XH-15 | 2026-08-31 00:47:44 | 50.68610 | 9.66725 | 42° | 44km/h | 17382m | 1.6m/s | -53.7°C | 3.8% | 88.1hPa | 2.5V | 03:00:22 | 02:14:50 | 00:00:00 | |
| BIOWL1-15 | 2026-08-31 00:47:44 | 50.68659 | 9.66801 | 46° | 47km/h | 17392m | 1.9m/s | -53.8°C | 0.7% | 87.9hPa | 2.5V | 03:00:54 | 02:14:56 | 00:00:00 | |
| HSKMA3-T | 2026-08-31 00:47:43 | 50.68643 | 9.66774 | 46° | 46km/h | 17389m | 1.8m/s | -53.7°C | 0.7% | 88hPa | 2.6V | 03:00:54 | 02:14:54 | 00:00:00 | |
| DJ2DS-15 | 2026-08-31 00:47:42 | 50.68642 | 9.66774 | 46° | 49km/h | 17389m | 1.8m/s | -53.7°C | 3.9% | 87.9hPa | 2.6V | 00:00:00 | 02:14:54 | 00:00:00 | |
| SONCRA | 2026-08-31 00:47:41 | 50.68634 | 9.66761 | 45° | 44km/h | 17387m | 1.9m/s | 0°C | -1.0% | -1.0hPa | 2.5V | 00:00:00 | 00:00:00 | 00:00:00 | |
| DM0DOS-11 | 2026-08-31 00:47:39 | 50.68576 | 9.66677 | 41° | 47km/h | 17375m | 1.9m/s | -53.7°C | 3.8% | 88.2hPa | 2.5V | 03:00:26 | 02:14:46 | 00:00:00 | |
| DL1XH-west | 2026-08-31 00:47:38 | 50.68610 | 9.66725 | 42° | 44km/h | 17382m | 1.7m/s | -53.7°C | 0.6% | 88.1hPa | 2.5V | 03:00:54 | 02:14:50 | 00:00:00 | |
| BIOWL1-15 | 2026-08-31 00:47:33 | 50.68539 | 9.66623 | 44° | 51km/h | 17367m | 2.1m/s | -53.6°C | 0.6% | 88.3hPa | 2.6V | 03:00:54 | 02:14:42 | 00:00:00 | |
| HSKMA3-T | 2026-08-31 00:47:31 | 50.68548 | 9.66637 | 43° | 51km/h | 17369m | 2m/s | -53.6°C | 0.6% | 88.2hPa | 2.5V | 03:00:54 | 02:14:43 | 00:00:00 | |
| DL1XH-15 | 2026-08-31 00:47:30 | 50.68530 | 9.66609 | 44° | 51km/h | 17365m | 2.2m/s | -53.6°C | 3.9% | 88.3hPa | 2.6V | 03:00:31 | 02:14:41 | 00:00:00 | |
| DL1XH1-15 | 2026-08-31 00:47:30 | 50.68493 | 9.66551 | 45° | 51km/h | 17357m | 2m/s | -53.5°C | 3.9% | 88.4hPa | 2.5V | 03:00:35 | 02:14:37 | 00:00:00 | |
| DL0LBS | 2026-08-31 00:47:29 | 50.68538 | 9.66623 | 45° | 51km/h | 17367m | 2.1m/s | -53.6°C | 1.3% | 88.3hPa | 2.6V | 00:00:00 | 00:00:00 | 00:00:00 | |
| DM0DOS-11 | 2026-08-31 00:47:28 | 50.68475 | 9.66522 | 43° | 53km/h | 17353m | 2.1m/s | -53.5°C | 3.9% | 88.5hPa | 2.6V | 03:00:37 | 02:14:35 | 00:00:00 | |
| DL1XH-west | 2026-08-31 00:47:28 | 50.68520 | 9.66595 | 46° | 51km/h | 17363m | 2.1m/s | -53.6°C | 0.6% | 88.3hPa | 2.5V | 03:00:54 | 02:14:40 | 00:00:00 | |
| BIOWL1-15 | 2026-08-31 00:47:25 | 50.68474 | 9.66522 | 43° | 53km/h | 17353m | 2.1m/s | -53.5°C | 0.6% | 88.5hPa | 2.6V | 03:00:54 | 02:14:35 | 00:00:00 | |
| HTAHTA | 2026-08-31 00:47:25 | 50.68484 | 9.66537 | 44° | 51km/h | 17355m | 1.9m/s | -53.5°C | 1.2% | 88.4hPa | 2.5V | 00:00:00 | 00:00:00 | 00:00:00 | |
| DL1XH-15 | 2026-08-31 00:47:24 | 50.68434 | 9.66467 | 39° | 53km/h | 17345m | 2m/s | -53.5°C | 3.8% | 88.6hPa | 2.5V | 03:00:41 | 02:14:31 | 00:00:00 | |
| HSKMA3-T | 2026-08-31 00:47:21 | 50.68444 | 9.66480 | 40° | 53km/h | 17347m | 1.9m/s | -53.5°C | 0.6% | 88.5hPa | 2.5V | 03:00:54 | 02:14:32 | 00:00:00 | |
| DL1XH-west | 2026-08-31 00:47:18 | 50.68423 | 9.66454 | 39° | 53km/h | 17343m | 2m/s | -53.5°C | 0.6% | 88.6hPa | 2.5V | 03:00:54 | 02:14:30 | 00:00:00 | |
| DL1XH1-15 | 2026-08-31 00:47:17 | 50.68393 | 9.66413 | 41° | 51km/h | 17337m | 1.9m/s | -53.4°C | 3.9% | 88.7hPa | 2.5V | 03:00:45 | 02:14:27 | 00:00:00 | |
| AA1-15 | 2026-08-31 00:47:13 | 50.68375 | 9.66386 | 44° | 49km/h | 17334m | 1.9m/s | 0°C | 0% | 0hPa | 2.5V | 18:12:15 | 02:14:25 | 00:00:00 | |
| BIOWL1-15 | 2026-08-31 00:47:13 | 50.68279 | 9.66243 | 44° | 55km/h | 17315m | 1.9m/s | -53.3°C | 0.6% | 89hPa | 2.6V | 03:01:45 | 02:14:15 | 00:00:00 | |
| DL8OAI-8 | 2026-08-31 00:47:12 | 50.68365 | 9.66372 | 46° | 49km/h | 17332m | 1.8m/s | -53.4°C | 1.2% | 88.8hPa | 2.6V | 03:00:00 | 00:00:00 | 00:00:00 | |
| DL1XH-15 | 2026-08-31 00:47:10 | 50.68338 | 9.66330 | 43° | 51km/h | 17326m | 1.9m/s | -53.3°C | 3.8% | 88.8hPa | 2.6V | 03:00:51 | 02:14:21 | 00:00:00 | |
| DL1XH1-15 | 2026-08-31 00:47:10 | 50.68299 | 9.66272 | 42° | 55km/h | 17318m | 1.8m/s | -53.3°C | 3.8% | 88.9hPa | 2.5V | 03:00:55 | 02:14:17 | 00:00:00 | |
| HSKMA3-T | 2026-08-31 00:47:10 | 50.68338 | 9.66330 | 44° | 51km/h | 17326m | 1.9m/s | -53.3°C | 0.6% | 88.8hPa | 2.6V | 03:00:54 | 02:14:21 | 00:00:00 | |
| DL1XH-west | 2026-08-31 00:47:07 | 50.68319 | 9.66301 | 43° | 53km/h | 17322m | 2.1m/s | -53.3°C | 0.6% | 88.9hPa | 2.5V | 03:00:54 | 02:14:19 | 00:00:00 | |
| BIOWL1-15 | 2026-08-31 00:47:05 | 50.68269 | 9.66228 | 44° | 55km/h | 17313m | 2m/s | -53.2°C | 0.5% | 89hPa | 2.5V | 03:01:45 | 02:14:14 | 00:00:00 | |
| DL1XH-15 | 2026-08-31 00:47:04 | 50.68240 | 9.66183 | 44° | 53km/h | 17307m | 1.8m/s | -53.2°C | 3.8% | 89.1hPa | 2.5V | 03:01:01 | 02:14:11 | 00:00:00 | |
| HSKMA3-T | 2026-08-31 00:46:59 | 50.68240 | 9.66183 | 44° | 53km/h | 17307m | 1.8m/s | -53.2°C | 0.6% | 89.1hPa | 2.5V | 03:01:45 | 02:14:11 | 00:00:00 | |
| DL1XH1-15 | 2026-08-31 00:46:57 | 50.68200 | 9.66126 | 40° | 53km/h | 17300m | 1.8m/s | -53.2°C | 3.8% | 89.2hPa | 2.5V | 03:01:05 | 02:14:07 | 00:00:00 | |
| DL1XH-west | 2026-08-31 00:46:57 | 50.68220 | 9.66154 | 42° | 53km/h | 17303m | 1.9m/s | -53.2°C | 0.6% | 89.1hPa | 2.6V | 03:01:45 | 02:14:09 | 00:00:00 | |
| BIOWL1-15 | 2026-08-31 00:46:52 | 50.68160 | 9.66073 | 40° | 53km/h | 17293m | 1.8m/s | -53.1°C | 0.6% | 89.3hPa | 2.6V | 03:01:45 | 02:14:03 | 00:00:00 | |
| DL1XH-15 | 2026-08-31 00:46:50 | 50.68140 | 9.66045 | 41° | 53km/h | 17289m | 1.7m/s | -53.1°C | 3.8% | 89.3hPa | 2.5V | 03:01:11 | 02:14:01 | 00:00:00 | |
| DL1XH1-15 | 2026-08-31 00:46:50 | 50.68102 | 9.65990 | 43° | 49km/h | 17282m | 1.7m/s | -53.1°C | 3.7% | 89.4hPa | 2.5V | 03:01:15 | 02:13:57 | 00:00:00 | |
| HSKMA3-T | 2026-08-31 00:46:48 | 50.68130 | 9.66032 | 42° | 51km/h | 17288m | 1.6m/s | -53.1°C | 0.5% | 89.4hPa | 2.5V | 03:01:45 | 02:14:00 | 00:00:00 | |
| DL1XH-west | 2026-08-31 00:46:46 | 50.68111 | 9.66004 | 43° | 51km/h | 17284m | 1.7m/s | -53.1°C | 0.5% | 89.4hPa | 2.5V | 03:01:45 | 02:13:58 | 00:00:00 | |
| HSKMA3-T | 2026-08-31 00:46:38 | 50.68034 | 9.65903 | 34° | 51km/h | 17270m | 1.8m/s | -53.1°C | 0.6% | 89.6hPa | 2.6V | 03:01:45 | 02:13:50 | 00:00:00 | |
| DL1XH1-15 | 2026-08-31 00:46:37 | 50.68001 | 9.65868 | 34° | 53km/h | 17265m | 1.7m/s | -53°C | 3.7% | 89.7hPa | 2.5V | 03:01:25 | 02:13:47 | 00:00:00 | |
| DL1XH-west | 2026-08-31 00:46:35 | 50.68001 | 9.65868 | 35° | 53km/h | 17265m | 1.7m/s | -53°C | 0.5% | 89.7hPa | 2.5V | 03:01:45 | 02:13:47 | 00:00:00 | |
| DJ2DS-15 | 2026-08-31 00:46:35 | 50.68001 | 9.65868 | 35° | 53km/h | 17265m | 1.7m/s | -53.0°C | 3.7% | 89.6hPa | 2.5V | 00:00:00 | 02:13:47 | 00:00:00 | |
| DF7PN | 2026-08-31 00:46:33 | 50.67979 | 9.65843 | 36° | 53km/h | 17261m | 1.8m/s | -53.0°C | 1.2% | 89.7hPa | 2.5V | 00:00:00 | 00:00:00 | 00:00:00 | |
| DL1ZP-14 | 2026-08-31 00:46:32 | 50.67968 | 9.65830 | 38° | 53km/h | 17260m | 1.8m/s | -53.1°C | 1.2% | 89.8hPa | 2.5V | 00:00:00 | 00:00:00 | 00:00:00 | |
| DL1XH1-15 | 2026-08-31 00:46:30 | 50.67894 | 9.65733 | 38° | 55km/h | 17246m | 1.8m/s | -53°C | 3.8% | 89.9hPa | 2.6V | 03:01:35 | 02:13:37 | 00:00:00 | |
| BIOWL1-15 | 2026-08-31 00:46:29 | 50.67872 | 9.65707 | 36° | 55km/h | 17243m | 1.9m/s | -53°C | 0.5% | 90hPa | 2.5V | 03:01:45 | 02:13:35 | 00:00:00 | |
| HSKMA3-T | 2026-08-31 00:46:28 | 50.67915 | 9.65760 | 40° | 55km/h | 17250m | 1.9m/s | -53.1°C | 0.6% | 89.9hPa | 2.5V | 03:01:45 | 02:13:39 | 00:00:00 | |
| DL1XH-west | 2026-08-31 00:46:24 | 50.67883 | 9.65720 | 37° | 55km/h | 17245m | 1.8m/s | -53°C | 0.6% | 90hPa | 2.6V | 03:01:45 | 02:13:36 | 00:00:00 | |
| SFWM-10 | 2026-08-31 00:46:24 | 50.67882 | 9.65720 | 38° | 55km/h | 17245m | 1.8m/s | -53.0°C | 1.2% | 90.0hPa | 2.5V | 00:00:00 | 00:00:00 | 00:00:00 | |
| HTAHTA | 2026-08-31 00:46:23 | 50.67861 | 9.65694 | 35° | 53km/h | 17241m | 2.0m/s | -53.0°C | 1.2% | 90.0hPa | 2.5V | 00:00:00 | 00:00:00 | 00:00:00 | |
| DC4HF-4 | 2026-08-31 00:46:20 | 50.67839 | 9.65670 | 35° | 51km/h | 17237m | 1.8m/s | -53.0°C | 1.2% | 90.0hPa | 2.5V | 00:00:00 | 00:00:00 | 00:00:00 | |
| BIOWL9-15 | 2026-08-31 00:46:19 | 50.67817 | 9.65646 | 37° | 51km/h | 17233m | 2.0m/s | -53.0°C | 1.2% | 90.1hPa | 2.5V | 00:00:00 | 00:00:00 | 00:00:00 | |
| DL4BBY-15 | 2026-08-31 00:46:18 | 50.67817 | 9.65646 | 38° | 51km/h | 17233m | 1.9m/s | -53.9°C | 0% | 0hPa | 2.5V | 00:00:00 | 00:00:00 | 00:00:00 | |
| DL1XH1-15 | 2026-08-31 00:46:17 | 50.67787 | 9.65608 | 39° | 51km/h | 17227m | 1.9m/s | -52.9°C | 3.8% | 90.2hPa | 2.5V | 03:01:45 | 02:13:27 | 00:00:00 | |
| BIOWL1-15 | 2026-08-31 00:46:17 | 50.67807 | 9.65633 | 38° | 51km/h | 17231m | 1.9m/s | -53°C | 0.5% | 90.2hPa | 2.6V | 03:01:45 | 02:13:29 | 00:00:00 | |
| HSKMA3-T | 2026-08-31 00:46:16 | 50.67797 | 9.65621 | 39° | 51km/h | 17229m | 1.9m/s | -52.9°C | 0.6% | 90.2hPa | 2.5V | 03:01:45 | 02:13:28 | 00:00:00 | |
| DL1XH-west | 2026-08-31 00:46:14 | 50.67777 | 9.65595 | 40° | 51km/h | 17225m | 1.8m/s | -52.9°C | 0.6% | 90.2hPa | 2.5V | 03:02:36 | 02:13:26 | 00:00:00 | |
| DB0UT-7 | 2026-08-31 00:46:13 | 50.67767 | 9.65582 | 40° | 51km/h | 17224m | 1.7m/s | -52.8°C | 3.8% | 90.2hPa | 2.6V | 00:00:00 | 00:00:00 | 00:00:00 | |
| DB0ND-19 | 2026-08-31 00:46:12 | 50.67748 | 9.65557 | 38° | 49km/h | 17220m | 1.7m/s | -52.9°C | 1.2% | 90.3hPa | 2.6V | 00:00:00 | 00:00:00 | 00:00:00 | |
| SONDE2-11 | 2026-08-31 00:46:11 | 50.67738 | 9.65545 | 37° | 49km/h | 17218m | 1.6m/s | 0°C | -1.0% | -1.0hPa | 2.6V | 00:00:00 | 00:00:00 | 00:00:00 | |
| DL1XH1-15 | 2026-08-31 00:46:10 | 50.67688 | 9.65485 | 38° | 49km/h | 17210m | 1.6m/s | -52.8°C | 3.8% | 90.4hPa | 2.6V | 03:01:55 | 02:13:17 | 00:00:00 | |
| DL1XH-15 | 2026-08-31 00:46:10 | 50.67728 | 9.65533 | 37° | 49km/h | 17217m | 1.6m/s | -52.9°C | 3.8% | 90.3hPa | 2.5V | 03:01:51 | 02:13:21 | 00:00:00 | |
| BIOWL1-15 | 2026-08-31 00:46:06 | 50.67698 | 9.65497 | 38° | 49km/h | 17212m | 1.6m/s | -52.8°C | 0.6% | 90.4hPa | 2.5V | 03:02:36 | 02:13:18 | 00:00:00 | |
| HSKMA3-T | 2026-08-31 00:46:05 | 50.67688 | 9.65485 | 38° | 49km/h | 17210m | 1.6m/s | -52.8°C | 0.6% | 90.4hPa | 2.6V | 03:02:36 | 02:13:17 | 00:00:00 | |
| DL1XH-15 | 2026-08-31 00:46:04 | 50.67630 | 9.65409 | 39° | 51km/h | 17200m | 1.8m/s | -52.8°C | 3.7% | 90.6hPa | 2.6V | 03:02:01 | 02:13:11 | 00:00:00 | |
| DL1XH-west | 2026-08-31 00:46:04 | 50.67678 | 9.65473 | 39° | 49km/h | 17209m | 1.6m/s | -52.8°C | 0.6% | 90.5hPa | 2.6V | 03:02:36 | 02:13:16 | 00:00:00 | |
| HSKMA3-T | 2026-08-31 00:45:55 | 50.67588 | 9.65361 | 32° | 53km/h | 17193m | 1.8m/s | -52.7°C | 0.6% | 90.7hPa | 2.5V | 03:02:36 | 02:13:07 | 00:00:00 | |
| DL1XH-west | 2026-08-31 00:45:53 | 50.67565 | 9.65339 | 31° | 53km/h | 17189m | 1.8m/s | -52.7°C | 0.5% | 90.7hPa | 2.5V | 03:02:36 | 02:13:05 | 00:00:00 | |
| HTAHTA | 2026-08-31 00:45:51 | 50.67542 | 9.65317 | 31° | 53km/h | 17186m | 1.8m/s | -52.7°C | 1.2% | 90.8hPa | 2.6V | 00:00:00 | 00:00:00 | 00:00:00 | |
| DL1XH1-15 | 2026-08-31 00:45:50 | 50.67480 | 9.65242 | 41° | 49km/h | 17175m | 1.8m/s | -52.6°C | 3.7% | 91hPa | 2.6V | 03:02:15 | 02:12:57 | 00:00:00 | |
| HSKMA3-T | 2026-08-31 00:45:45 | 50.67480 | 9.65242 | 42° | 49km/h | 17175m | 1.8m/s | -52.6°C | 0.5% | 91hPa | 2.6V | 03:02:36 | 02:12:57 | 00:00:00 | |
| BIOWL1-15 | 2026-08-31 00:45:45 | 50.67431 | 9.65182 | 33° | 49km/h | 17167m | 1.7m/s | -52.5°C | 0.5% | 91hPa | 2.5V | 03:02:36 | 02:12:52 | 00:00:00 | |
| DL1XH-15 | 2026-08-31 00:45:44 | 50.67421 | 9.65171 | 31° | 49km/h | 17165m | 1.7m/s | -52.5°C | 3.7% | 91.1hPa | 2.6V | 03:02:21 | 02:12:51 | 00:00:00 | |
| DL1XH-west | 2026-08-31 00:45:42 | 50.67451 | 9.65204 | 38° | 49km/h | 17170m | 1.5m/s | -52.5°C | 0.6% | 91hPa | 2.5V | 03:02:36 | 02:12:54 | 00:00:00 | |
| HSKMA3-T | 2026-08-31 00:45:34 | 50.67365 | 9.65120 | 33° | 51km/h | 17157m | 1.9m/s | -52.5°C | 0.5% | 91.2hPa | 2.5V | 03:02:36 | 02:12:46 | 00:00:00 | |
| BIOWL1-15 | 2026-08-31 00:45:32 | 50.67312 | 9.65058 | 38° | 53km/h | 17147m | 1.9m/s | -52.4°C | 0.5% | 91.3hPa | 2.5V | 03:02:36 | 02:12:41 | 00:00:00 | |
| DL1XH-west | 2026-08-31 00:45:31 | 50.67333 | 9.65084 | 38° | 53km/h | 17151m | 1.9m/s | -52.5°C | 0.5% | 91.3hPa | 2.5V | 03:02:36 | 02:12:43 | 00:00:00 | |
| DL1XH-15 | 2026-08-31 00:45:30 | 50.67311 | 9.65058 | 38° | 53km/h | 17147m | 1.9m/s | -52.4°C | 3.7% | 91.3hPa | 2.5V | 03:02:31 | 02:12:41 | 00:00:00 | |
| DL1XH1-15 | 2026-08-31 00:45:30 | 50.67268 | 9.65009 | 33° | 53km/h | 17140m | 2m/s | -52.4°C | 3.8% | 91.4hPa | 2.6V | 03:02:35 | 02:12:37 | 00:00:00 | |
| HSKMA3-T | 2026-08-31 00:45:23 | 50.67245 | 9.64986 | 31° | 53km/h | 17135m | 2m/s | -52.4°C | 0.5% | 91.5hPa | 2.5V | 03:03:27 | 02:12:35 | 00:00:00 | |
| DL1XH-west | 2026-08-31 00:45:20 | 50.67210 | 9.64952 | 32° | 55km/h | 17129m | 2m/s | -52.4°C | 0.5% | 91.6hPa | 2.6V | 03:03:27 | 02:12:32 | 00:00:00 | |
| DO9LL-15 | 2026-08-31 00:45:19 | 50.67198 | 9.64941 | 33° | 53km/h | 17128m | 1.8m/s | -52.3°C | 3.7% | 91.5hPa | 2.5V | 03:02:00 | 02:12:31 | 00:00:00 | |
| DL4BBY-15 | 2026-08-31 00:45:18 | 50.67187 | 9.64929 | 34° | 53km/h | 17125m | 1.9m/s | -53.3°C | 0% | 0hPa | 2.5V | 00:00:00 | 00:00:00 | 00:00:00 | |
| DL1XH1-15 | 2026-08-31 00:45:17 | 50.67153 | 9.64893 | 35° | 55km/h | 17120m | 1.8m/s | -52.3°C | 3.7% | 91.7hPa | 2.5V | 03:02:45 | 02:12:27 | 00:00:00 | |
| HSKMA3-T | 2026-08-31 00:45:13 | 50.67131 | 9.64868 | 34° | 55km/h | 17117m | 1.9m/s | -52.3°C | 0.5% | 91.7hPa | 2.6V | 03:03:27 | 02:12:25 | 00:00:00 | |
| SFWM-10 | 2026-08-31 00:45:12 | 50.67130 | 9.64868 | 35° | 55km/h | 17117m | 1.9m/s | -52.3°C | 1.2% | 91.7hPa | 2.5V | 03:03:00 | 00:00:00 | 00:00:00 | |
| DL1XH1-15 | 2026-08-31 00:45:10 | 50.67027 | 9.64761 | 33° | 57km/h | 17100m | 1.8m/s | -52.2°C | 3.6% | 92hPa | 2.5V | 03:02:56 | 02:12:16 | 00:00:00 | |
| DL1XH-15 | 2026-08-31 00:45:10 | 50.67085 | 9.64821 | 32° | 53km/h | 17109m | 2m/s | -52.2°C | 3.6% | 91.9hPa | 2.5V | 03:02:51 | 02:12:21 | 00:00:00 | |
| DL1XH-west | 2026-08-31 00:45:09 | 50.67085 | 9.64821 | 33° | 53km/h | 17109m | 2m/s | -52.2°C | 0.5% | 91.9hPa | 2.5V | 03:03:27 | 02:12:21 | 00:00:00 | |
| BIOWL1-15 | 2026-08-31 00:45:06 | 50.67027 | 9.64761 | 33° | 57km/h | 17100m | 1.8m/s | -52.2°C | 0.5% | 92hPa | 2.5V | 03:03:27 | 02:12:16 | 00:00:00 | |
| SONCRA | 2026-08-31 00:45:06 | 50.67050 | 9.64785 | 33° | 55km/h | 17104m | 1.8m/s | -52.2°C | 1.2% | 91.9hPa | 2.5V | 00:00:00 | 00:00:00 | 00:00:00 | |
| DL1XH-15 | 2026-08-31 00:45:05 | 50.66957 | 9.64693 | 29° | 51km/h | 17089m | 1.9m/s | -52.1°C | 3.8% | 92.2hPa | 2.5V | 03:03:02 | 02:12:10 | 00:00:00 | |
| DM0DOS-11 | 2026-08-31 00:45:03 | 50.66980 | 9.64714 | 31° | 53km/h | 17093m | 1.8m/s | -52.2°C | 3.7% | 92.1hPa | 2.6V | 03:03:00 | 02:12:12 | 00:00:00 | |
| HSKMA3-T | 2026-08-31 00:45:02 | 50.67003 | 9.64737 | 33° | 55km/h | 17097m | 1.8m/s | -52.2°C | 0.6% | 92hPa | 2.5V | 03:03:27 | 02:12:14 | 00:00:00 | |
| DF7PN | 2026-08-31 00:45:00 | 50.66980 | 9.64714 | 31° | 53km/h | 17093m | 1.8m/s | -52.2°C | 1.2% | 92.1hPa | 2.6V | 00:00:00 | 00:00:00 | 00:00:00 | |
| DL1XH1-15 | 2026-08-31 00:44:59 | 50.66912 | 9.64654 | 28° | 51km/h | 17082m | 1.7m/s | -52.1°C | 3.7% | 92.2hPa | 2.6V | 03:03:06 | 02:12:06 | 00:00:00 | |
| BIOWL1-15 | 2026-08-31 00:44:58 | 50.66934 | 9.64673 | 29° | 49km/h | 17086m | 1.8m/s | -52.1°C | 0.6% | 92.2hPa | 2.5V | 03:03:27 | 02:12:08 | 00:00:00 | |
| DL1XH-west | 2026-08-31 00:44:58 | 50.66957 | 9.64693 | 30° | 51km/h | 17090m | 1.9m/s | -52.2°C | 0.6% | 92.2hPa | 2.5V | 03:03:27 | 02:12:10 | 00:00:00 | |
| HSKMA3-T | 2026-08-31 00:44:52 | 50.66878 | 9.64623 | 31° | 55km/h | 17077m | 1.7m/s | -52.1°C | 0.5% | 92.3hPa | 2.5V | 03:03:27 | 02:12:03 | 00:00:00 | |
| DL1XH-15 | 2026-08-31 00:44:51 | 50.66854 | 9.64601 | 31° | 55km/h | 17073m | 1.8m/s | -52°C | 3.6% | 92.4hPa | 2.5V | 03:03:11 | 02:12:01 | 00:00:00 | |
| DL1XH-west | 2026-08-31 00:44:47 | 50.66831 | 9.64577 | 33° | 55km/h | 17070m | 1.8m/s | -52.1°C | 0.5% | 92.4hPa | 2.6V | 03:03:27 | 02:11:59 | 00:00:00 | |
| BIOWL1-15 | 2026-08-31 00:44:46 | 50.66819 | 9.64566 | 33° | 53km/h | 17068m | 1.7m/s | -52°C | 0.5% | 92.5hPa | 2.6V | 03:03:27 | 02:11:58 | 00:00:00 | |
| DD1CC8 | 2026-08-31 00:44:45 | 50.66808 | 9.64555 | 32° | 51km/h | 17067m | 1.6m/s | -52.0°C | 1.2% | 92.5hPa | 2.6V | 00:00:00 | 00:00:00 | 00:00:00 | |
| HSKMA3-T | 2026-08-31 00:44:40 | 50.66754 | 9.64504 | 30° | 49km/h | 17058m | 1.7m/s | -52°C | 0.6% | 92.6hPa | 2.6V | 03:03:27 | 02:11:52 | 00:00:00 | |
| DL1XH-15 | 2026-08-31 00:44:40 | 50.66743 | 9.64494 | 29° | 49km/h | 17056m | 1.7m/s | -52°C | 3.6% | 92.6hPa | 2.5V | 03:03:21 | 02:11:51 | 00:00:00 | |
| DL1XH1-15 | 2026-08-31 00:44:39 | 50.66687 | 9.64443 | 30° | 53km/h | 17047m | 1.7m/s | -52°C | 3.6% | 92.7hPa | 2.6V | 03:03:26 | 02:11:46 | 00:00:00 | |
| DL1XH-west | 2026-08-31 00:44:37 | 50.66721 | 9.64474 | 30° | 51km/h | 17052m | 1.9m/s | -52°C | 0.5% | 92.7hPa | 2.5V | 03:03:27 | 02:11:49 | 00:00:00 | |
| BIOWL1-15 | 2026-08-31 00:44:36 | 50.66710 | 9.64464 | 30° | 53km/h | 17051m | 1.9m/s | -52°C | 0.5% | 92.7hPa | 2.5V | 03:03:27 | 02:11:48 | 00:00:00 | |
| DJ2DS-15 | 2026-08-31 00:44:35 | 50.66698 | 9.64453 | 31° | 49km/h | 17049m | 1.7m/s | -51.9°C | 3.6% | 92.7hPa | 2.5V | 03:03:00 | 02:11:47 | 00:00:00 | |
| DC4HF-4 | 2026-08-31 00:44:33 | 50.66664 | 9.64422 | 30° | 51km/h | 17044m | 1.7m/s | -52.0°C | 1.2% | 92.8hPa | 2.5V | 00:00:00 | 00:00:00 | 00:00:00 | |
| DL1XH1-15 | 2026-08-31 00:44:29 | 50.66578 | 9.64342 | 30° | 49km/h | 17030m | 1.7m/s | -52.2°C | 3.7% | 93hPa | 2.5V | 03:03:36 | 02:11:36 | 00:00:00 | |
| HSKMA3-T | 2026-08-31 00:44:29 | 50.66631 | 9.64391 | 31° | 49km/h | 17039m | 1.6m/s | -52.1°C | 0.5% | 92.9hPa | 2.5V | 03:04:18 | 02:11:41 | 00:00:00 | |
| DL1XH-west | 2026-08-31 00:44:27 | 50.66610 | 9.64372 | 31° | 47km/h | 17035m | 1.7m/s | -52.2°C | 0.5% | 92.9hPa | 2.6V | 03:04:18 | 02:11:39 | 00:00:00 | |
| BIOWL1-15 | 2026-08-31 00:44:25 | 50.66546 | 9.64313 | 30° | 49km/h | 17025m | 1.8m/s | -52.2°C | 0.5% | 93hPa | 2.6V | 03:04:18 | 02:11:33 | 00:00:00 | |
| DF8AY | 2026-08-31 00:44:24 | 50.66502 | 9.64275 | 28° | 49km/h | 17018m | 1.6m/s | -52.2°C | 0.6% | 93.2hPa | 2.5V | 03:04:18 | 02:11:29 | 00:00:00 | |
| DB0UT-9 | 2026-08-31 00:44:23 | 50.66578 | 9.64342 | 32° | 49km/h | 17030m | 1.7m/s | -52.2°C | 1.2% | 93.0hPa | 2.6V | 03:04:00 | 00:00:00 | 00:00:00 | |
| DM0DOS-11 | 2026-08-31 00:44:22 | 50.66535 | 9.64303 | 29° | 49km/h | 17023m | 1.8m/s | -52.2°C | 3.7% | 93hPa | 2.6V | 03:03:40 | 02:11:32 | 00:00:00 | |
| DL1XH-15 | 2026-08-31 00:44:20 | 50.66524 | 9.64294 | 28° | 49km/h | 17021m | 1.5m/s | -52.2°C | 3.7% | 93.1hPa | 2.5V | 03:03:41 | 02:11:31 | 00:00:00 | |
| HSKMA3-T | 2026-08-31 00:44:18 | 50.66513 | 9.64284 | 28° | 49km/h | 17019m | 1.6m/s | -52.2°C | 0.6% | 93.1hPa | 2.5V | 03:04:18 | 02:11:30 | 00:00:00 | |
| DL1XH-west | 2026-08-31 00:44:16 | 50.66491 | 9.64266 | 28° | 49km/h | 17016m | 1.6m/s | -52.2°C | 0.6% | 93.2hPa | 2.5V | 03:04:18 | 02:11:28 | 00:00:00 | |
| BIOWL1-15 | 2026-08-31 00:44:15 | 50.66469 | 9.64248 | 29° | 47km/h | 17013m | 1.5m/s | -52.2°C | 0.6% | 93.2hPa | 2.6V | 03:04:18 | 02:11:26 | 00:00:00 | |
| DF8AY | 2026-08-31 00:44:14 | 50.66342 | 9.64141 | 29° | 47km/h | 16992m | 1.8m/s | -52.1°C | 0.6% | 93.5hPa | 2.6V | 03:04:18 | 02:11:14 | 00:00:00 | |
| DJ2DS-15 | 2026-08-31 00:44:10 | 50.66427 | 9.64211 | 29° | 46km/h | 17006m | 1.8m/s | -52.2°C | 3.8% | 93.3hPa | 2.5V | 00:00:00 | 02:11:22 | 00:00:00 | |
| DL1XH1-15 | 2026-08-31 00:44:09 | 50.66363 | 9.64159 | 28° | 46km/h | 16995m | 1.8m/s | -52.1°C | 3.7% | 93.5hPa | 2.5V | 03:03:56 | 02:11:16 | 00:00:00 | |
| HSKMA3-T | 2026-08-31 00:44:08 | 50.66405 | 9.64193 | 27° | 47km/h | 17003m | 1.8m/s | -52.2°C | 0.6% | 93.4hPa | 2.6V | 03:04:18 | 02:11:20 | 00:00:00 | |
| DL1XH-west | 2026-08-31 00:44:06 | 50.66384 | 9.64176 | 27° | 47km/h | 16999m | 1.9m/s | -52.2°C | 0.7% | 93.4hPa | 2.5V | 03:04:18 | 02:11:18 | 00:00:00 | |
| BIOWL1-15 | 2026-08-31 00:44:05 | 50.66269 | 9.64083 | 23° | 44km/h | 16979m | 1.9m/s | -52°C | 0.6% | 93.8hPa | 2.6V | 03:04:18 | 02:11:07 | 00:00:00 | |
| DM0DOS-11 | 2026-08-31 00:44:04 | 50.66322 | 9.64123 | 28° | 47km/h | 16988m | 2.1m/s | -52.1°C | 3.6% | 93.6hPa | 2.5V | 03:04:00 | 02:11:12 | 00:00:00 | |
| SONCRA | 2026-08-31 00:44:04 | 50.66363 | 9.64159 | 28° | 46km/h | 16995m | 1.8m/s | -52.1°C | 1.2% | 93.5hPa | 2.5V | 00:00:00 | 00:00:00 | 00:00:00 | |
| DL1XH-15 | 2026-08-31 00:44:00 | 50.66311 | 9.64114 | 27° | 47km/h | 16986m | 1.9m/s | -52°C | 3.6% | 93.6hPa | 2.5V | 03:04:01 | 02:11:11 | 00:00:00 | |
| BIOWL1-15 | 2026-08-31 00:44:00 | 50.66259 | 9.64076 | 22° | 42km/h | 16977m | 1.9m/s | -52°C | 0.5% | 93.8hPa | 2.6V | 03:04:18 | 02:11:06 | 00:00:00 | |
| DF8AY | 2026-08-31 00:43:59 | 50.66311 | 9.64114 | 28° | 47km/h | 16986m | 1.9m/s | -52.1°C | 0.5% | 93.6hPa | 2.5V | 03:04:18 | 02:11:11 | 00:00:00 | |
| HSKMA3-T | 2026-08-31 00:43:58 | 50.66300 | 9.64105 | 27° | 47km/h | 16984m | 1.6m/s | -52.1°C | 0.6% | 93.7hPa | 2.5V | 03:04:18 | 02:11:10 | 00:00:00 | |
| DL1XH-west | 2026-08-31 00:43:56 | 50.66279 | 9.64089 | 24° | 46km/h | 16981m | 1.7m/s | -52°C | 0.6% | 93.7hPa | 2.5V | 03:04:18 | 02:11:08 | 00:00:00 | |
| DL1XH-15 | 2026-08-31 00:43:54 | 50.66204 | 9.64035 | 30° | 40km/h | 16967m | 1.8m/s | -52°C | 3.8% | 93.9hPa | 2.6V | 03:04:12 | 02:11:00 | 00:00:00 | |
| DJ2DS-15 | 2026-08-31 00:43:50 | 50.66221 | 9.64050 | 28° | 37km/h | 16971m | 1.7m/s | -52.0°C | 3.7% | 93.8hPa | 2.5V | 00:00:00 | 02:11:02 | 00:00:00 | |
| DL1XH1-15 | 2026-08-31 00:43:49 | 50.66168 | 9.64000 | 29° | 42km/h | 16960m | 2m/s | -51.9°C | 3.7% | 94hPa | 2.5V | 03:04:16 | 02:10:56 | 00:00:00 | |
| HSKMA3-T | 2026-08-31 00:43:48 | 50.66204 | 9.64035 | 31° | 40km/h | 16967m | 1.8m/s | -52°C | 0.7% | 93.9hPa | 2.6V | 03:04:18 | 02:11:00 | 00:00:00 | |
| DL1XH-west | 2026-08-31 00:43:46 | 50.66186 | 9.64018 | 32° | 42km/h | 16964m | 1.7m/s | -52°C | 0.6% | 94hPa | 2.5V | 03:04:18 | 02:10:58 | 00:00:00 | |
| BIOWL1-15 | 2026-08-31 00:43:45 | 50.66121 | 9.63962 | 27° | 40km/h | 16950m | 1.8m/s | -51.8°C | 0.5% | 94.2hPa | 2.5V | 03:05:09 | 02:10:51 | 00:00:00 | |
| DL8OAI-8 | 2026-08-31 00:43:44 | 50.66177 | 9.64009 | 32° | 42km/h | 16962m | 2.0m/s | -51.9°C | 1.2% | 94.0hPa | 2.5V | 03:04:00 | 00:00:00 | 00:00:00 | |
| DM0DOS-11 | 2026-08-31 00:43:43 | 50.66112 | 9.63954 | 28° | 40km/h | 16948m | 1.9m/s | -51.8°C | 3.7% | 94.2hPa | 2.5V | 03:04:22 | 02:10:50 | 00:00:00 | |
| DD1CC8 | 2026-08-31 00:43:43 | 50.66158 | 9.63992 | 28° | 42km/h | 16958m | 2.0m/s | -51.9°C | 1.2% | 94.1hPa | 2.5V | 00:00:00 | 00:00:00 | 00:00:00 | |
| SFWM-10 | 2026-08-31 00:43:42 | 50.66158 | 9.63992 | 30° | 42km/h | 16958m | 2.0m/s | -51.9°C | 1.2% | 94.1hPa | 2.5V | 03:04:00 | 00:00:00 | 00:00:00 | |
| DL1XH-15 | 2026-08-31 00:43:41 | 50.66121 | 9.63962 | 27° | 40km/h | 16950m | 1.8m/s | -51.8°C | 3.6% | 94.2hPa | 2.5V | 03:04:21 | 02:10:51 | 00:00:00 | |
| DL1XH1-15 | 2026-08-31 00:43:39 | 50.66077 | 9.63922 | 32° | 40km/h | 16941m | 1.9m/s | -51.8°C | 3.7% | 94.3hPa | 2.5V | 03:04:26 | 02:10:46 | 00:00:00 | |
| DF8AY | 2026-08-31 00:43:38 | 50.66112 | 9.63954 | 28° | 40km/h | 16948m | 1.9m/s | 0°C | 0% | 94.2hPa | 2.5V | 03:06:00 | 02:10:50 | 00:00:00 | |
| HSKMA3-T | 2026-08-31 00:43:37 | 50.66103 | 9.63947 | 29° | 40km/h | 16946m | 1.8m/s | -51.8°C | 0.6% | 94.2hPa | 2.5V | 03:05:09 | 02:10:49 | 00:00:00 | |
| DL1XH-west | 2026-08-31 00:43:36 | 50.66095 | 9.63939 | 31° | 40km/h | 16944m | 1.7m/s | -51.8°C | 0.5% | 94.2hPa | 2.6V | 03:05:09 | 02:10:48 | 00:00:00 | |
| BIOWL1-15 | 2026-08-31 00:43:35 | 50.66069 | 9.63913 | 33° | 42km/h | 16939m | 2m/s | -51.7°C | 0.5% | 94.3hPa | 2.5V | 03:05:09 | 02:10:45 | 00:00:00 | |
| DB0UT-9 | 2026-08-31 00:43:34 | 50.66086 | 9.63930 | 33° | 40km/h | 16943m | 1.7m/s | -51.8°C | 1.2% | 94.2hPa | 2.6V | 00:00:00 | 00:00:00 | 00:00:00 | |
| SONCRA | 2026-08-31 00:43:33 | 50.66060 | 9.63904 | 32° | 40km/h | 16937m | 1.8m/s | -51.7°C | 1.2% | 94.3hPa | 2.6V | 00:00:00 | 00:00:00 | 00:00:00 | |
| DM0DOS-11 | 2026-08-31 00:43:32 | 50.66025 | 9.63870 | 29° | 38km/h | 16930m | 1.9m/s | -51.7°C | 3.6% | 94.4hPa | 2.6V | 03:04:32 | 02:10:40 | 00:00:00 | |
| HSKMA3-T | 2026-08-31 00:43:27 | 50.66016 | 9.63863 | 29° | 38km/h | 16928m | 1.9m/s | -51.7°C | 0.6% | 94.5hPa | 2.5V | 03:05:09 | 02:10:39 | 00:00:00 | |
| DL1XH-west | 2026-08-31 00:43:25 | 50.66000 | 9.63848 | 29° | 37km/h | 16924m | 1.6m/s | -51.7°C | 0.6% | 94.5hPa | 2.5V | 03:05:09 | 02:10:37 | 00:00:00 | |
| BIOWL1-15 | 2026-08-31 00:43:22 | 50.65969 | 9.63820 | 32° | 37km/h | 16917m | 1.6m/s | -51.6°C | 0.6% | 94.6hPa | 2.5V | 03:05:09 | 02:10:33 | 00:00:00 | |
| DL1XH-15 | 2026-08-31 00:43:20 | 50.65953 | 9.63804 | 31° | 38km/h | 16914m | 1.5m/s | -51.6°C | 3.7% | 94.7hPa | 2.5V | 03:04:41 | 02:10:31 | 00:00:00 | |
| HSKMA3-T | 2026-08-31 00:43:17 | 50.65936 | 9.63789 | 30° | 40km/h | 16911m | 1.9m/s | -51.6°C | 0.6% | 94.7hPa | 2.5V | 03:05:09 | 02:10:29 | 00:00:00 | |
| EDDB2-12 | 2026-08-31 00:43:16 | 50.65919 | 9.63773 | 28° | 38km/h | 16907m | 1.6m/s | 0°C | -1.0% | -1.0hPa | 2.6V | 00:00:00 | 00:00:00 | 00:00:00 | |
| DL1XH-15 | 2026-08-31 00:43:14 | 50.65873 | 9.63725 | 41° | 35km/h | 16897m | 1.6m/s | -51.4°C | 3.7% | 94.9hPa | 2.6V | 03:04:51 | 02:10:21 | 00:00:00 | |
| DL1XH1-15 | 2026-08-31 00:43:14 | 50.65910 | 9.63765 | 29° | 40km/h | 16905m | 1.6m/s | -51.5°C | 3.7% | 94.8hPa | 2.5V | 03:04:46 | 02:10:26 | 00:00:00 | |
| DL1XH-west | 2026-08-31 00:43:14 | 50.65910 | 9.63765 | 30° | 40km/h | 16905m | 1.6m/s | -51.5°C | 0.6% | 94.8hPa | 2.5V | 03:05:09 | 02:10:26 | 00:00:00 | |
| BIOWL1-15 | 2026-08-31 00:43:13 | 50.65873 | 9.63724 | 41° | 35km/h | 16897m | 1.6m/s | -51.4°C | 0.7% | 94.9hPa | 2.6V | 03:05:09 | 02:10:21 | 00:00:00 | |
| DD1CC8 | 2026-08-31 00:43:12 | 50.65886 | 9.63742 | 36° | 35km/h | 16900m | 1.7m/s | -51.5°C | 1.3% | 94.9hPa | 2.5V | 00:00:00 | 00:00:00 | 00:00:00 | |
| DO8TBO-1 | 2026-08-31 00:43:11 | 50.65886 | 9.63742 | 37° | 35km/h | 16900m | 1.7m/s | 0°C | 0% | 0hPa | 2.5V | 00:00:00 | 02:10:23 | 00:00:00 | |
| DL1XH1-15 | 2026-08-31 00:43:09 | 50.65839 | 9.63680 | 35° | 37km/h | 16887m | 1.8m/s | -51.4°C | 3.7% | 95.1hPa | 2.5V | 03:04:56 | 02:10:16 | 00:00:00 | |
| HSKMA3-T | 2026-08-31 00:43:07 | 50.65853 | 9.63698 | 40° | 35km/h | 16891m | 2m/s | -51.4°C | 0.7% | 95hPa | 2.5V | 03:05:09 | 02:10:18 | 00:00:00 | |
| DL1XH-west | 2026-08-31 00:43:03 | 50.65831 | 9.63672 | 34° | 37km/h | 16885m | 1.8m/s | -51.4°C | 0.7% | 95.1hPa | 2.6V | 03:05:09 | 02:10:15 | 00:00:00 | |
| SONCRA | 2026-08-31 00:43:02 | 50.65816 | 9.63657 | 30° | 35km/h | 16882m | 1.6m/s | -51.3°C | 1.3% | 95.2hPa | 2.5V | 00:00:00 | 00:00:00 | 00:00:00 | |
| DB0UT-7 | 2026-08-31 00:43:01 | 50.65816 | 9.63656 | 31° | 33km/h | 16882m | 1.6m/s | -51.3°C | 3.7% | 95.1hPa | 2.5V | 00:00:00 | 02:10:13 | 00:00:00 | |
| DL1XH1-15 | 2026-08-31 00:42:59 | 50.65767 | 9.63606 | 39° | 31km/h | 16870m | 1.6m/s | -51.2°C | 3.8% | 95.3hPa | 2.5V | 03:05:06 | 02:10:06 | 00:00:00 | |
| BIOWL1-15 | 2026-08-31 00:42:58 | 50.65780 | 9.63621 | 36° | 31km/h | 16874m | 1.8m/s | -51.3°C | 0.8% | 95.3hPa | 2.6V | 03:05:09 | 02:10:08 | 00:00:00 | |
| HSKMA3-T | 2026-08-31 00:42:55 | 50.65774 | 9.63614 | 38° | 31km/h | 16872m | 1.8m/s | -51.3°C | 0.9% | 95.3hPa | 2.5V | 03:05:09 | 02:10:07 | 00:00:00 | |
| DL1XH-west | 2026-08-31 00:42:52 | 50.65755 | 9.63589 | 41° | 33km/h | 16867m | 1.3m/s | -51.2°C | 0.9% | 95.4hPa | 2.5V | 03:05:09 | 02:10:04 | 00:00:00 | |
| DL1XH1-15 | 2026-08-31 00:42:49 | 50.65700 | 9.63524 | 33° | 33km/h | 16855m | 1.5m/s | -51.1°C | 3.9% | 95.6hPa | 2.6V | 03:05:16 | 02:09:56 | 00:00:00 | |
| HTAHTA | 2026-08-31 00:42:45 | 50.65707 | 9.63531 | 33° | 33km/h | 16856m | 1.5m/s | -51.1°C | 1.4% | 95.5hPa | 2.6V | 00:00:00 | 00:00:00 | 00:00:00 | |
| HSKMA3-T | 2026-08-31 00:42:44 | 50.65700 | 9.63524 | 34° | 33km/h | 16855m | 1.5m/s | -51.1°C | 1% | 95.6hPa | 2.6V | 03:06:00 | 02:09:56 | 00:00:00 | |
| DL1XH-west | 2026-08-31 00:42:41 | 50.65679 | 9.63503 | 35° | 33km/h | 16851m | 1.4m/s | -51.1°C | 1% | 95.6hPa | 2.5V | 03:06:00 | 02:09:53 | 00:00:00 | |
| HSKMA3-T | 2026-08-31 00:42:34 | 50.65633 | 9.63447 | 38° | 33km/h | 16841m | 1.7m/s | -51°C | 1.1% | 95.8hPa | 2.5V | 03:06:00 | 02:09:46 | 00:00:00 | |
| DL1XH-15 | 2026-08-31 00:42:33 | 50.65594 | 9.63402 | 37° | 31km/h | 16832m | 1.6m/s | -51°C | 3.9% | 95.9hPa | 2.5V | 03:05:32 | 02:09:40 | 00:00:00 | |
| BIOWL1-15 | 2026-08-31 00:42:32 | 50.65620 | 9.63432 | 36° | 31km/h | 16837m | 1.4m/s | -51°C | 1% | 95.8hPa | 2.5V | 03:06:00 | 02:09:44 | 00:00:00 | |
| DF8AY | 2026-08-31 00:42:31 | 50.65614 | 9.63424 | 36° | 31km/h | 16836m | 1.3m/s | 0°C | 0% | 0hPa | 2.6V | 03:06:00 | 02:09:43 | 00:00:00 | |
| DL1XH-west | 2026-08-31 00:42:30 | 50.65607 | 9.63417 | 36° | 31km/h | 16835m | 1.4m/s | -51°C | 1.1% | 95.8hPa | 2.6V | 03:06:00 | 02:09:42 | 00:00:00 | |
| HSKMA3-T | 2026-08-31 00:42:23 | 50.65563 | 9.63359 | 43° | 35km/h | 16823m | 1.8m/s | -50.9°C | 1% | 96hPa | 2.6V | 03:06:00 | 02:09:35 | 00:00:00 | |
| DL1XH-15 | 2026-08-31 00:42:23 | 50.65533 | 9.63313 | 42° | 31km/h | 16815m | 1.7m/s | -50.9°C | 3.9% | 96.1hPa | 2.6V | 03:05:42 | 02:09:30 | 00:00:00 | |
| DF8AY | 2026-08-31 00:42:20 | 50.65545 | 9.63331 | 44° | 33km/h | 16818m | 1.5m/s | 0°C | 0% | 0hPa | 2.5V | 03:06:00 | 02:09:32 | 00:00:00 | |
| DL1XH-west | 2026-08-31 00:42:19 | 50.65539 | 9.63322 | 44° | 33km/h | 16817m | 1.5m/s | -50.9°C | 1.1% | 96.1hPa | 2.5V | 03:06:00 | 02:09:31 | 00:00:00 | |
| DO9LL-15 | 2026-08-31 00:42:18 | 50.65533 | 9.63313 | 43° | 42km/h | 16815m | 1.6m/s | -50.9°C | 3.9% | 96.1hPa | 2.5V | 00:00:00 | 02:09:30 | 00:00:00 | |
| DL0LBS | 2026-08-31 00:42:16 | 50.65527 | 9.63305 | 43° | 31km/h | 16814m | 1.8m/s | -50.9°C | 1.5% | 96.1hPa | 2.5V | 03:06:00 | 00:00:00 | 00:00:00 | |
| HTAHTA | 2026-08-31 00:42:14 | 50.65510 | 9.63282 | 41° | 27km/h | 16809m | 1.5m/s | -50.9°C | 1.5% | 96.2hPa | 2.5V | 00:00:00 | 00:00:00 | 00:00:00 | |
| DL1XH-15 | 2026-08-31 00:42:13 | 50.65478 | 9.63232 | 44° | 31km/h | 16799m | 1.4m/s | -50.8°C | 4% | 96.4hPa | 2.5V | 03:05:52 | 02:09:20 | 00:00:00 | |
| HSKMA3-T | 2026-08-31 00:42:12 | 50.65500 | 9.63266 | 43° | 29km/h | 16805m | 1.7m/s | -50.8°C | 1.2% | 96.3hPa | 2.5V | 03:06:00 | 02:09:24 | 00:00:00 | |
| BIOWL1-15 | 2026-08-31 00:42:10 | 50.65489 | 9.63250 | 44° | 31km/h | 16802m | 1.5m/s | -50.8°C | 1.3% | 96.3hPa | 2.6V | 03:06:00 | 02:09:22 | 00:00:00 | |
| DF8AY | 2026-08-31 00:42:09 | 50.65483 | 9.63241 | 45° | 31km/h | 16800m | 1.3m/s | 0°C | 0% | 0hPa | 2.5V | 03:06:00 | 02:09:21 | 00:00:00 | |
| DL1XH1-15 | 2026-08-31 00:42:09 | 50.65455 | 9.63200 | 39° | 29km/h | 16793m | 1.4m/s | -50.7°C | 4% | 96.5hPa | 2.6V | 03:05:56 | 02:09:16 | 00:00:00 | |
| DL1XH-west | 2026-08-31 00:42:08 | 50.65478 | 9.63232 | 44° | 31km/h | 16799m | 1.4m/s | -50.8°C | 1.3% | 96.4hPa | 2.5V | 03:06:00 | 02:09:20 | 00:00:00 | |
| DL1XH-15 | 2026-08-31 00:42:03 | 50.65424 | 9.63159 | 43° | 26km/h | 16785m | 1.2m/s | -50.7°C | 4.2% | 96.6hPa | 2.6V | 03:06:02 | 02:09:10 | 00:00:00 | |
| HSKMA3-T | 2026-08-31 00:42:02 | 50.65444 | 9.63186 | 38° | 27km/h | 16790m | 1.5m/s | -50.8°C | 1.4% | 96.5hPa | 2.5V | 03:06:00 | 02:09:14 | 00:00:00 | |
| DF8AY | 2026-08-31 00:41:59 | 50.65428 | 9.63166 | 42° | 26km/h | 16786m | 1.3m/s | 0°C | 0% | 0hPa | 2.5V | 03:06:51 | 02:09:11 | 00:00:00 | |
| DL1XH-west | 2026-08-31 00:41:58 | 50.65424 | 9.63159 | 43° | 26km/h | 16785m | 1.2m/s | -50.7°C | 1.6% | 96.6hPa | 2.6V | 03:06:51 | 02:09:10 | 00:00:00 | |
| DB0UT-7 | 2026-08-31 00:41:58 | 50.65424 | 9.63159 | 44° | 27km/h | 16785m | 1.2m/s | -50.7°C | 4.2% | 96.6hPa | 2.5V | 03:06:00 | 02:09:10 | 00:00:00 | |
| DL1XH1-15 | 2026-08-31 00:41:55 | 50.65405 | 9.63128 | 47° | 29km/h | 16779m | 1.5m/s | -50.7°C | 4.4% | 96.7hPa | 2.5V | 03:06:06 | 02:09:06 | 00:00:00 | |
| DF7PN | 2026-08-31 00:41:54 | 50.65399 | 9.63120 | 46° | 29km/h | 16778m | 1.4m/s | -50.8°C | 2.0% | 96.7hPa | 2.5V | 00:00:00 | 00:00:00 | 00:00:00 | |
| DL1XH-15 | 2026-08-31 00:41:53 | 50.65372 | 9.63077 | 41° | 29km/h | 16770m | 1.1m/s | -50.8°C | 4.5% | 96.8hPa | 2.5V | 03:06:12 | 02:09:00 | 00:00:00 | |
| HSKMA3-T | 2026-08-31 00:41:52 | 50.65394 | 9.63111 | 46° | 31km/h | 16776m | 1.5m/s | -50.8°C | 2.1% | 96.7hPa | 2.6V | 03:06:51 | 02:09:04 | 00:00:00 | |
| DM0DOS-11 | 2026-08-31 00:41:51 | 50.65361 | 9.63062 | 42° | 27km/h | 16768m | 1.4m/s | -50.8°C | 4.5% | 96.8hPa | 2.5V | 03:06:14 | 02:08:58 | 00:00:00 | |
| BIOWL1-15 | 2026-08-31 00:41:50 | 50.65361 | 9.63062 | 43° | 27km/h | 16768m | 1.4m/s | -50.8°C | 2% | 96.8hPa | 2.5V | 03:06:51 | 02:08:58 | 00:00:00 | |
| DL1XH1-15 | 2026-08-31 00:41:49 | 50.65351 | 9.63048 | 44° | 26km/h | 16765m | 1.5m/s | -50.8°C | 4.5% | 96.9hPa | 2.6V | 03:06:16 | 02:08:56 | 00:00:00 | |
| DF8AY | 2026-08-31 00:41:48 | 50.65372 | 9.63077 | 42° | 29km/h | 16770m | 1.1m/s | 0°C | 0% | 0hPa | 2.5V | 03:06:51 | 02:09:00 | 00:00:00 | |
| DL1XH-west | 2026-08-31 00:41:47 | 50.65366 | 9.63070 | 43° | 27km/h | 16769m | 1.3m/s | -50.8°C | 2% | 96.8hPa | 2.5V | 03:06:51 | 02:08:59 | 00:00:00 | |
| DL1XH-15 | 2026-08-31 00:41:43 | 50.65323 | 9.63002 | 44° | 27km/h | 16755m | 1.8m/s | -50.8°C | 4.5% | 97hPa | 2.6V | 03:06:22 | 02:08:50 | 00:00:00 | |
| DO2JMG | 2026-08-31 00:41:42 | 50.65342 | 9.63033 | 46° | 26km/h | 16762m | 1.4m/s | 0°C | 0% | 0hPa | 2.5V | 18:12:15 | 02:08:54 | 00:00:00 | |
| HSKMA3-T | 2026-08-31 00:41:41 | 50.65338 | 9.63025 | 46° | 27km/h | 16760m | 1.4m/s | -50.8°C | 2% | 96.9hPa | 2.5V | 03:06:51 | 02:08:53 | 00:00:00 | |
| DF8AY | 2026-08-31 00:41:37 | 50.65318 | 9.62994 | 45° | 27km/h | 16754m | 1.5m/s | 0°C | 0% | 0hPa | 2.5V | 03:06:51 | 02:08:49 | 00:00:00 | |
| BIOWL1-15 | 2026-08-31 00:41:37 | 50.65313 | 9.62986 | 46° | 27km/h | 16752m | 1.5m/s | -50.9°C | 2.1% | 97hPa | 2.5V | 03:06:51 | 02:08:48 | 00:00:00 | |
| DL1XH1-15 | 2026-08-31 00:41:35 | 50.65304 | 9.62971 | 46° | 26km/h | 16749m | 1.6m/s | -50.9°C | 4.6% | 97.1hPa | 2.5V | 03:06:26 | 02:08:46 | 00:00:00 | |
| DL1XH-15 | 2026-08-31 00:41:33 | 50.65281 | 9.62927 | 52° | 26km/h | 16739m | 1.6m/s | -50.9°C | 4.8% | 97.2hPa | 2.5V | 03:06:32 | 02:08:40 | 00:00:00 | |
| HSKMA3-T | 2026-08-31 00:41:30 | 50.65288 | 9.62942 | 52° | 24km/h | 16743m | 1.5m/s | -50.9°C | 2.4% | 97.2hPa | 2.5V | 03:06:51 | 02:08:42 | 00:00:00 | |
| DM0DOS-11 | 2026-08-31 00:41:28 | 50.65273 | 9.62911 | 52° | 26km/h | 16736m | 1.5m/s | -50.9°C | 4.8% | 97.2hPa | 2.6V | 03:06:34 | 02:08:38 | 00:00:00 | |
| DL1XH-west | 2026-08-31 00:41:27 | 50.65277 | 9.62919 | 53° | 26km/h | 16738m | 1.6m/s | -50.9°C | 2.6% | 97.2hPa | 2.5V | 03:06:51 | 02:08:39 | 00:00:00 | |
| DF8AY | 2026-08-31 00:41:26 | 50.65273 | 9.62911 | 52° | 26km/h | 16736m | 1.5m/s | 0°C | 0% | 0hPa | 2.6V | 03:06:51 | 02:08:38 | 00:00:00 | |
| BIOWL1-15 | 2026-08-31 00:41:25 | 50.65252 | 9.62868 | 53° | 27km/h | 16728m | 1.4m/s | -50.9°C | 2.7% | 97.4hPa | 2.5V | 03:06:51 | 02:08:33 | 00:00:00 | |
| DL1XH-15 | 2026-08-31 00:41:23 | 50.65240 | 9.62843 | 53° | 26km/h | 16723m | 1.7m/s | -50.9°C | 4.9% | 97.5hPa | 2.6V | 03:06:42 | 02:08:30 | 00:00:00 | |
| HSKMA3-T | 2026-08-31 00:41:20 | 50.65248 | 9.62860 | 53° | 27km/h | 16727m | 1.4m/s | -50.9°C | 2.7% | 97.4hPa | 2.5V | 03:06:51 | 02:08:32 | 00:00:00 | |
| DL1XH-west | 2026-08-31 00:41:16 | 50.65232 | 9.62826 | 55° | 26km/h | 16720m | 1.4m/s | -51°C | 2.8% | 97.5hPa | 2.5V | 03:06:51 | 02:08:28 | 00:00:00 | |
| BIOWL1-15 | 2026-08-31 00:41:15 | 50.65209 | 9.62773 | 57° | 27km/h | 16712m | 1.4m/s | -51.2°C | 2.8% | 97.7hPa | 2.5V | 03:06:51 | 02:08:22 | 00:00:00 | |
| DL0LBS | 2026-08-31 00:41:14 | 50.65228 | 9.62817 | 55° | 26km/h | 16719m | 1.4m/s | -51.0°C | 2.5% | 97.6hPa | 2.5V | 03:06:00 | 00:00:00 | 00:00:00 | |
| DF8AY | 2026-08-31 00:41:14 | 50.65224 | 9.62809 | 55° | 27km/h | 16717m | 1.5m/s | 0°C | 0% | 0hPa | 2.5V | 03:06:51 | 02:08:26 | 00:00:00 | |
| DL1XH-15 | 2026-08-31 00:41:13 | 50.65201 | 9.62755 | 57° | 27km/h | 16708m | 1.6m/s | -51.2°C | 5% | 97.7hPa | 2.5V | 03:06:52 | 02:08:20 | 00:00:00 | |
| HSKMA3-T | 2026-08-31 00:41:09 | 50.65205 | 9.62764 | 57° | 27km/h | 16710m | 1.6m/s | -51.2°C | 2.8% | 97.7hPa | 2.5V | 03:06:51 | 02:08:21 | 00:00:00 | |
| DJ2KF-10 | 2026-08-31 00:41:09 | 50.65205 | 9.62764 | 58° | 27km/h | 16710m | 1.6m/s | -51.1°C | 5.0% | 97.6hPa | 2.5V | 00:00:00 | 02:08:21 | 00:00:00 | |
| DM0DOS-11 | 2026-08-31 00:41:08 | 50.65181 | 9.62699 | 62° | 27km/h | 16699m | 1.6m/s | -51.3°C | 5% | 97.8hPa | 2.5V | 03:06:58 | 02:08:14 | 00:00:00 | |
| BIOWL1-15 | 2026-08-31 00:41:05 | 50.65177 | 9.62689 | 64° | 27km/h | 16697m | 1.6m/s | -51.3°C | 2.7% | 97.9hPa | 2.5V | 03:07:42 | 02:08:13 | 00:00:00 | |
| DL1XH-west | 2026-08-31 00:41:05 | 50.65190 | 9.62727 | 60° | 27km/h | 16704m | 1.6m/s | -51.3°C | 2.8% | 97.8hPa | 2.6V | 03:07:42 | 02:08:17 | 00:00:00 | |
| DF8AY | 2026-08-31 00:41:04 | 50.65187 | 9.62718 | 61° | 27km/h | 16702m | 1.7m/s | 0°C | 0% | 0hPa | 2.5V | 03:08:33 | 02:08:16 | 00:00:00 | |
| DL1XH-15 | 2026-08-31 00:41:03 | 50.65168 | 9.62659 | 64° | 27km/h | 16692m | 1.7m/s | -51.3°C | 4.9% | 98hPa | 2.5V | 03:07:02 | 02:08:10 | 00:00:00 | |
| HSKMA3-T | 2026-08-31 00:40:58 | 50.65168 | 9.62659 | 64° | 27km/h | 16692m | 1.7m/s | -51.3°C | 2.7% | 98hPa | 2.5V | 03:07:42 | 02:08:10 | 00:00:00 | |
| DL1XH-west | 2026-08-31 00:40:55 | 50.65159 | 9.62629 | 66° | 27km/h | 16688m | 1.4m/s | -51.4°C | 2.6% | 98hPa | 2.5V | 03:07:42 | 02:08:07 | 00:00:00 | |
| DL0LBS | 2026-08-31 00:40:55 | 50.65159 | 9.62629 | 67° | 27km/h | 16688m | 1.4m/s | -51.3°C | 2.4% | 98.0hPa | 2.5V | 03:07:00 | 00:00:00 | 00:00:00 | |
| DL1XH1-15 | 2026-08-31 00:40:53 | 50.65147 | 9.62579 | 72° | 27km/h | 16680m | 1.5m/s | -51.3°C | 4.7% | 98.1hPa | 2.5V | 03:07:10 | 02:08:02 | 00:00:00 | |
| DL1XH-15 | 2026-08-31 00:40:53 | 50.65143 | 9.62558 | 73° | 27km/h | 16677m | 1.6m/s | -51.4°C | 4.7% | 98.2hPa | 2.5V | 03:07:12 | 02:08:00 | 00:00:00 | |
| BIOWL1-15 | 2026-08-31 00:40:52 | 50.65147 | 9.62579 | 72° | 27km/h | 16680m | 1.5m/s | -51.3°C | 2.4% | 98.1hPa | 2.5V | 03:07:42 | 02:08:02 | 00:00:00 | |
| HSKMA3-T | 2026-08-31 00:40:47 | 50.65141 | 9.62547 | 74° | 27km/h | 16676m | 1.5m/s | -51.3°C | 2.3% | 98.2hPa | 2.6V | 03:07:42 | 02:07:59 | 00:00:00 | |
| DL1XH-west | 2026-08-31 00:40:45 | 50.65137 | 9.62525 | 74° | 29km/h | 16673m | 1.5m/s | -51.4°C | 2.2% | 98.2hPa | 2.5V | 03:07:42 | 02:07:57 | 00:00:00 | |
| DM0DOS-11 | 2026-08-31 00:40:44 | 50.65133 | 9.62503 | 75° | 29km/h | 16670m | 1.5m/s | -51.3°C | 4.6% | 98.3hPa | 2.5V | 03:07:17 | 02:07:55 | 00:00:00 | |
| DL1XH1-15 | 2026-08-31 00:40:43 | 50.65128 | 9.62468 | 78° | 29km/h | 16666m | 1.5m/s | -51.3°C | 4.5% | 98.3hPa | 2.6V | 03:07:20 | 02:07:52 | 00:00:00 | |
| BIOWL1-15 | 2026-08-31 00:40:41 | 50.65130 | 9.62480 | 78° | 29km/h | 16667m | 1.5m/s | -51.3°C | 2.2% | 98.4hPa | 2.5V | 03:07:42 | 02:07:53 | 00:00:00 | |
| DF8AY | 2026-08-31 00:40:39 | 50.65126 | 9.62445 | 82° | 31km/h | 16663m | 1.6m/s | 0°C | 0% | 0hPa | 2.5V | 03:08:33 | 02:07:50 | 00:00:00 | |
| DL1XH-15 | 2026-08-31 00:40:38 | 50.65125 | 9.62433 | 82° | 31km/h | 16661m | 1.6m/s | -51.3°C | 4.6% | 98.4hPa | 2.5V | 03:07:23 | 02:07:49 | 00:00:00 | |
| DM0DOS-11 | 2026-08-31 00:40:38 | 50.65121 | 9.62384 | 81° | 31km/h | 16655m | 1.6m/s | -51.3°C | 4.5% | 98.5hPa | 2.6V | 03:07:27 | 02:07:45 | 00:00:00 | |
| HSKMA3-T | 2026-08-31 00:40:37 | 50.65125 | 9.62433 | 83° | 31km/h | 16661m | 1.6m/s | -51.3°C | 2.2% | 98.4hPa | 2.5V | 03:07:42 | 02:07:49 | 00:00:00 | |
| DL1XH-west | 2026-08-31 00:40:34 | 50.65122 | 9.62396 | 82° | 31km/h | 16656m | 1.5m/s | -51.3°C | 2% | 98.5hPa | 2.5V | 03:07:42 | 02:07:46 | 00:00:00 | |
| DL1XH1-15 | 2026-08-31 00:40:33 | 50.65115 | 9.62333 | 80° | 33km/h | 16649m | 1.4m/s | -51.4°C | 4.8% | 98.6hPa | 2.5V | 03:07:31 | 02:07:41 | 00:00:00 | |
| BIOWL1-15 | 2026-08-31 00:40:31 | 50.65118 | 9.62359 | 80° | 33km/h | 16652m | 1.5m/s | -51.3°C | 2.3% | 98.6hPa | 2.5V | 03:07:42 | 02:07:43 | 00:00:00 | |
| DF8AY | 2026-08-31 00:40:29 | 50.65113 | 9.62308 | 84° | 33km/h | 16646m | 1.4m/s | 0°C | 0% | 0hPa | 2.6V | 03:08:33 | 02:07:39 | 00:00:00 | |
| SONCRA | 2026-08-31 00:40:26 | 50.65112 | 9.62295 | 85° | 31km/h | 16645m | 1.4m/s | -51.5°C | 2.4% | 98.7hPa | 2.5V | 00:00:00 | 00:00:00 | 00:00:00 | |
| HSKMA3-T | 2026-08-31 00:40:26 | 50.65112 | 9.62295 | 85° | 33km/h | 16645m | 1.4m/s | -51.5°C | 2.7% | 98.7hPa | 2.6V | 03:07:42 | 02:07:38 | 00:00:00 | |
| DM0DOS-11 | 2026-08-31 00:40:24 | 50.65111 | 9.62256 | 89° | 33km/h | 16640m | 1.6m/s | -51.6°C | 4.9% | 98.7hPa | 2.5V | 03:07:37 | 02:07:35 | 00:00:00 | |
| BIOWL1-15 | 2026-08-31 00:40:24 | 50.65106 | 9.62102 | 86° | 37km/h | 16623m | 1.5m/s | -52.1°C | 2.9% | 99hPa | 2.5V | 03:08:33 | 02:07:24 | 00:00:00 | |
| DL1XH1-15 | 2026-08-31 00:40:23 | 50.65111 | 9.62201 | 87° | 35km/h | 16634m | 1.5m/s | -51.9°C | 5.1% | 98.8hPa | 2.6V | 03:07:41 | 02:07:31 | 00:00:00 | |
| Es werden nur die letzten 3500 von 6070 Frames angezeigt. GPX/KML und Diagramme bleiben verfügbar. | |||||||||||||||